<?xml version='1.0' encoding='UTF-8'?><gpx version="1.1" creator="JPX - https://github.com/jenetics/jpx" xmlns="http://www.topografix.com/GPX/1/1"><trk><trkseg><trkpt lat="44.9575033" lon="8.0179317"><ele>180.0</ele><time>2026-04-18T13:03:27.372Z</time></trkpt><trkpt lat="44.9585367" lon="8.0180333"><ele>180.0</ele><time>2026-04-18T13:03:34.372Z</time></trkpt><trkpt lat="44.9586883" lon="8.017935"><ele>180.0</ele><time>2026-04-18T13:03:35.373Z</time></trkpt><trkpt lat="44.9588333" lon="8.0178333"><ele>180.0</ele><time>2026-04-18T13:03:36.372Z</time></trkpt><trkpt lat="44.9589833" lon="8.0177217"><ele>180.0</ele><time>2026-04-18T13:03:37.373Z</time></trkpt><trkpt lat="44.959135" lon="8.0176133"><ele>180.0</ele><time>2026-04-18T13:03:38.373Z</time></trkpt><trkpt lat="44.95929" lon="8.0175117"><ele>180.0</ele><time>2026-04-18T13:03:39.373Z</time></trkpt><trkpt lat="44.9594333" lon="8.01741"><ele>180.66666666666666</ele><time>2026-04-18T13:03:40.373Z</time></trkpt><trkpt lat="44.9595683" lon="8.0173033"><ele>181.33333333333331</ele><time>2026-04-18T13:03:41.372Z</time></trkpt><trkpt lat="44.95971" lon="8.0172017"><ele>182.0</ele><time>2026-04-18T13:03:42.372Z</time></trkpt><trkpt lat="44.95986" lon="8.0170967"><ele>182.0</ele><time>2026-04-18T13:03:43.373Z</time></trkpt><trkpt lat="44.9600033" lon="8.0169983"><ele>182.0</ele><time>2026-04-18T13:03:44.373Z</time></trkpt><trkpt lat="44.96015" lon="8.0169067"><ele>182.0</ele><time>2026-04-18T13:03:45.373Z</time></trkpt><trkpt lat="44.960295" lon="8.01683"><ele>181.66666666666666</ele><time>2026-04-18T13:03:46.373Z</time></trkpt><trkpt lat="44.96045" lon="8.0167367"><ele>181.33333333333334</ele><time>2026-04-18T13:03:47.373Z</time></trkpt><trkpt lat="44.9606017" lon="8.0166467"><ele>181.0</ele><time>2026-04-18T13:03:48.373Z</time></trkpt><trkpt lat="44.9607617" lon="8.016565"><ele>180.0</ele><time>2026-04-18T13:03:49.372Z</time></trkpt><trkpt lat="44.96092" lon="8.01649"><ele>179.0</ele><time>2026-04-18T13:03:50.373Z</time></trkpt><trkpt lat="44.9610767" lon="8.0164117"><ele>178.0</ele><time>2026-04-18T13:03:51.373Z</time></trkpt><trkpt lat="44.9612317" lon="8.0163283"><ele>178.0</ele><time>2026-04-18T13:03:52.372Z</time></trkpt><trkpt lat="44.961385" lon="8.0162483"><ele>178.0</ele><time>2026-04-18T13:03:53.373Z</time></trkpt><trkpt lat="44.9615367" lon="8.0161617"><ele>178.0</ele><time>2026-04-18T13:03:54.373Z</time></trkpt><trkpt lat="44.9616867" lon="8.0160833"><ele>179.0</ele><time>2026-04-18T13:03:55.372Z</time></trkpt><trkpt lat="44.9618383" lon="8.016"><ele>180.0</ele><time>2026-04-18T13:03:56.373Z</time></trkpt><trkpt lat="44.9619917" lon="8.0159167"><ele>181.0</ele><time>2026-04-18T13:03:57.373Z</time></trkpt><trkpt lat="44.962145" lon="8.01584"><ele>181.33333333333334</ele><time>2026-04-18T13:03:58.373Z</time></trkpt><trkpt lat="44.9622967" lon="8.015755"><ele>181.66666666666666</ele><time>2026-04-18T13:03:59.373Z</time></trkpt><trkpt lat="44.96245" lon="8.0156817"><ele>182.0</ele><time>2026-04-18T13:04:00.373Z</time></trkpt><trkpt lat="44.962605" lon="8.0156017"><ele>183.0</ele><time>2026-04-18T13:04:01.373Z</time></trkpt><trkpt lat="44.9627733" lon="8.0155267"><ele>184.0</ele><time>2026-04-18T13:04:02.373Z</time></trkpt><trkpt lat="44.96294" lon="8.0154483"><ele>185.0</ele><time>2026-04-18T13:04:03.372Z</time></trkpt><trkpt lat="44.9630983" lon="8.0153633"><ele>185.0</ele><time>2026-04-18T13:04:04.373Z</time></trkpt><trkpt lat="44.963265" lon="8.015285"><ele>185.0</ele><time>2026-04-18T13:04:05.373Z</time></trkpt><trkpt lat="44.963415" lon="8.0152"><ele>185.0</ele><time>2026-04-18T13:04:06.373Z</time></trkpt><trkpt lat="44.9635683" lon="8.015105"><ele>184.33333333333331</ele><time>2026-04-18T13:04:07.373Z</time></trkpt><trkpt lat="44.9637233" lon="8.0150033"><ele>183.66666666666666</ele><time>2026-04-18T13:04:08.373Z</time></trkpt><trkpt lat="44.9638733" lon="8.0148917"><ele>183.0</ele><time>2026-04-18T13:04:09.373Z</time></trkpt><trkpt lat="44.964025" lon="8.0147733"><ele>182.66666666666666</ele><time>2026-04-18T13:04:10.373Z</time></trkpt><trkpt lat="44.9641733" lon="8.0146483"><ele>182.33333333333331</ele><time>2026-04-18T13:04:11.373Z</time></trkpt><trkpt lat="44.96431" lon="8.0145283"><ele>182.0</ele><time>2026-04-18T13:04:12.373Z</time></trkpt><trkpt lat="44.964445" lon="8.0143983"><ele>182.66666666666666</ele><time>2026-04-18T13:04:13.373Z</time></trkpt><trkpt lat="44.964585" lon="8.0142767"><ele>183.33333333333334</ele><time>2026-04-18T13:04:14.372Z</time></trkpt><trkpt lat="44.964725" lon="8.0141533"><ele>184.0</ele><time>2026-04-18T13:04:15.373Z</time></trkpt><trkpt lat="44.9648667" lon="8.014025"><ele>183.33333333333334</ele><time>2026-04-18T13:04:16.372Z</time></trkpt><trkpt lat="44.96501" lon="8.01389"><ele>182.66666666666666</ele><time>2026-04-18T13:04:17.372Z</time></trkpt><trkpt lat="44.9651533" lon="8.0137617"><ele>182.0</ele><time>2026-04-18T13:04:18.373Z</time></trkpt><trkpt lat="44.9652967" lon="8.0136417"><ele>182.0</ele><time>2026-04-18T13:04:19.372Z</time></trkpt><trkpt lat="44.9654433" lon="8.013515"><ele>182.0</ele><time>2026-04-18T13:04:20.373Z</time></trkpt><trkpt lat="44.9655933" lon="8.013385"><ele>182.0</ele><time>2026-04-18T13:04:21.372Z</time></trkpt><trkpt lat="44.9657383" lon="8.01326"><ele>184.33333333333331</ele><time>2026-04-18T13:04:22.373Z</time></trkpt><trkpt lat="44.965885" lon="8.01313"><ele>186.66666666666666</ele><time>2026-04-18T13:04:23.372Z</time></trkpt><trkpt lat="44.9660283" lon="8.0130017"><ele>189.0</ele><time>2026-04-18T13:04:24.373Z</time></trkpt><trkpt lat="44.9661717" lon="8.0128883"><ele>189.0</ele><time>2026-04-18T13:04:25.373Z</time></trkpt><trkpt lat="44.9663033" lon="8.01277"><ele>189.0</ele><time>2026-04-18T13:04:26.373Z</time></trkpt><trkpt lat="44.9664367" lon="8.012655"><ele>189.0</ele><time>2026-04-18T13:04:27.372Z</time></trkpt><trkpt lat="44.96658" lon="8.0125433"><ele>186.66666666666666</ele><time>2026-04-18T13:04:28.373Z</time></trkpt><trkpt lat="44.96673" lon="8.0124617"><ele>184.33333333333331</ele><time>2026-04-18T13:04:29.373Z</time></trkpt><trkpt lat="44.96688" lon="8.0123733"><ele>182.0</ele><time>2026-04-18T13:04:30.372Z</time></trkpt><trkpt lat="44.9670383" lon="8.0122933"><ele>182.0</ele><time>2026-04-18T13:04:31.373Z</time></trkpt><trkpt lat="44.9671883" lon="8.0122267"><ele>182.0</ele><time>2026-04-18T13:04:32.373Z</time></trkpt><trkpt lat="44.967345" lon="8.0121583"><ele>182.0</ele><time>2026-04-18T13:04:33.373Z</time></trkpt><trkpt lat="44.9675083" lon="8.0121033"><ele>182.0</ele><time>2026-04-18T13:04:34.373Z</time></trkpt><trkpt lat="44.9676667" lon="8.01205"><ele>182.0</ele><time>2026-04-18T13:04:35.372Z</time></trkpt><trkpt lat="44.967835" lon="8.0120233"><ele>182.0</ele><time>2026-04-18T13:04:36.373Z</time></trkpt><trkpt lat="44.9680117" lon="8.012055"><ele>182.0</ele><time>2026-04-18T13:04:37.373Z</time></trkpt><trkpt lat="44.9681683" lon="8.0120817"><ele>182.0</ele><time>2026-04-18T13:04:38.373Z</time></trkpt><trkpt lat="44.9683383" lon="8.0121267"><ele>182.0</ele><time>2026-04-18T13:04:39.372Z</time></trkpt><trkpt lat="44.968495" lon="8.0121783"><ele>181.33333333333331</ele><time>2026-04-18T13:04:40.373Z</time></trkpt><trkpt lat="44.9686417" lon="8.0122517"><ele>180.66666666666666</ele><time>2026-04-18T13:04:41.373Z</time></trkpt><trkpt lat="44.9687967" lon="8.0123333"><ele>180.0</ele><time>2026-04-18T13:04:42.373Z</time></trkpt><trkpt lat="44.9689467" lon="8.012415"><ele>180.66666666666666</ele><time>2026-04-18T13:04:43.373Z</time></trkpt><trkpt lat="44.9690983" lon="8.0125033"><ele>181.33333333333331</ele><time>2026-04-18T13:04:44.373Z</time></trkpt><trkpt lat="44.9692433" lon="8.0125883"><ele>182.0</ele><time>2026-04-18T13:04:45.373Z</time></trkpt><trkpt lat="44.96938" lon="8.0126733"><ele>182.0</ele><time>2026-04-18T13:04:46.372Z</time></trkpt><trkpt lat="44.9695033" lon="8.0127367"><ele>182.0</ele><time>2026-04-18T13:04:47.373Z</time></trkpt><trkpt lat="44.9696133" lon="8.0127883"><ele>182.0</ele><time>2026-04-18T13:04:48.373Z</time></trkpt><trkpt lat="44.9697033" lon="8.0128317"><ele>182.0</ele><time>2026-04-18T13:04:49.373Z</time></trkpt><trkpt lat="44.969785" lon="8.0128783"><ele>182.0</ele><time>2026-04-18T13:04:50.373Z</time></trkpt><trkpt lat="44.9698883" lon="8.0128883"><ele>182.0</ele><time>2026-04-18T13:04:52.373Z</time></trkpt><trkpt lat="44.9699383" lon="8.0127317"><ele>182.0</ele><time>2026-04-18T13:04:54.373Z</time></trkpt><trkpt lat="44.96994" lon="8.0126"><ele>182.0</ele><time>2026-04-18T13:04:55.373Z</time></trkpt><trkpt lat="44.96993" lon="8.0124417"><ele>182.0</ele><time>2026-04-18T13:04:56.372Z</time></trkpt><trkpt lat="44.9699117" lon="8.0122717"><ele>182.0</ele><time>2026-04-18T13:04:57.373Z</time></trkpt><trkpt lat="44.9699" lon="8.0121067"><ele>181.5</ele><time>2026-04-18T13:04:58.372Z</time></trkpt><trkpt lat="44.9698917" lon="8.0119183"><ele>181.0</ele><time>2026-04-18T13:04:59.373Z</time></trkpt><trkpt lat="44.9698883" lon="8.01174"><ele>180.5</ele><time>2026-04-18T13:05:00.373Z</time></trkpt><trkpt lat="44.9698933" lon="8.011565"><ele>180.0</ele><time>2026-04-18T13:05:01.373Z</time></trkpt><trkpt lat="44.9699067" lon="8.0113983"><ele>179.75</ele><time>2026-04-18T13:05:02.373Z</time></trkpt><trkpt lat="44.9699167" lon="8.0112183"><ele>179.5</ele><time>2026-04-18T13:05:03.373Z</time></trkpt><trkpt lat="44.9699333" lon="8.0110433"><ele>179.25</ele><time>2026-04-18T13:05:04.372Z</time></trkpt><trkpt lat="44.9699417" lon="8.01087"><ele>179.0</ele><time>2026-04-18T13:05:05.373Z</time></trkpt><trkpt lat="44.9699433" lon="8.0107017"><ele>179.5</ele><time>2026-04-18T13:05:06.373Z</time></trkpt><trkpt lat="44.9699483" lon="8.0105533"><ele>180.0</ele><time>2026-04-18T13:05:07.372Z</time></trkpt><trkpt lat="44.969955" lon="8.0104183"><ele>180.5</ele><time>2026-04-18T13:05:08.373Z</time></trkpt><trkpt lat="44.9699667" lon="8.0103033"><ele>181.0</ele><time>2026-04-18T13:05:09.373Z</time></trkpt><trkpt lat="44.9699733" lon="8.0102117"><ele>181.5</ele><time>2026-04-18T13:05:10.373Z</time></trkpt><trkpt lat="44.9699683" lon="8.0100833"><ele>182.0</ele><time>2026-04-18T13:05:12.373Z</time></trkpt><trkpt lat="44.9699717" lon="8.0099917"><ele>182.0</ele><time>2026-04-18T13:05:15.373Z</time></trkpt><trkpt lat="44.9699733" lon="8.0098933"><ele>182.0</ele><time>2026-04-18T13:05:18.372Z</time></trkpt><trkpt lat="44.9699867" lon="8.009805"><ele>182.0</ele><time>2026-04-18T13:05:20.373Z</time></trkpt><trkpt lat="44.9700767" lon="8.0097617"><ele>182.0</ele><time>2026-04-18T13:05:23.373Z</time></trkpt><trkpt lat="44.9701733" lon="8.00977"><ele>182.0</ele><time>2026-04-18T13:05:25.373Z</time></trkpt><trkpt lat="44.970295" lon="8.0097783"><ele>182.0</ele><time>2026-04-18T13:05:27.373Z</time></trkpt><trkpt lat="44.9703583" lon="8.0097767"><ele>182.0</ele><time>2026-04-18T13:05:28.373Z</time></trkpt><trkpt lat="44.970425" lon="8.0097667"><ele>182.0</ele><time>2026-04-18T13:05:29.373Z</time></trkpt><trkpt lat="44.9705483" lon="8.009775"><ele>182.0</ele><time>2026-04-18T13:05:31.373Z</time></trkpt><trkpt lat="44.97064" lon="8.0097767"><ele>182.0</ele><time>2026-04-18T13:05:33.372Z</time></trkpt><trkpt lat="44.9707217" lon="8.0097833"><ele>182.0</ele><time>2026-04-18T13:05:35.373Z</time></trkpt><trkpt lat="44.9708167" lon="8.009795"><ele>182.83333333333331</ele><time>2026-04-18T13:05:37.373Z</time></trkpt><trkpt lat="44.9709083" lon="8.00981"><ele>183.66666666666666</ele><time>2026-04-18T13:05:39.373Z</time></trkpt><trkpt lat="44.9709917" lon="8.009825"><ele>184.5</ele><time>2026-04-18T13:05:41.373Z</time></trkpt><trkpt lat="44.9710717" lon="8.0098333"><ele>185.33333333333334</ele><time>2026-04-18T13:05:43.373Z</time></trkpt><trkpt lat="44.971155" lon="8.0098633"><ele>186.16666666666669</ele><time>2026-04-18T13:05:45.373Z</time></trkpt><trkpt lat="44.9712533" lon="8.0098967"><ele>187.0</ele><time>2026-04-18T13:05:47.372Z</time></trkpt><trkpt lat="44.9713567" lon="8.0099217"><ele>187.0</ele><time>2026-04-18T13:05:49.373Z</time></trkpt><trkpt lat="44.9714717" lon="8.0099533"><ele>187.0</ele><time>2026-04-18T13:05:51.372Z</time></trkpt><trkpt lat="44.9715383" lon="8.0099717"><ele>187.0</ele><time>2026-04-18T13:05:52.373Z</time></trkpt><trkpt lat="44.9716533" lon="8.010015"><ele>187.0</ele><time>2026-04-18T13:05:54.373Z</time></trkpt><trkpt lat="44.9717517" lon="8.010045"><ele>187.0</ele><time>2026-04-18T13:05:56.373Z</time></trkpt><trkpt lat="44.9718183" lon="8.01006"><ele>186.66666666666669</ele><time>2026-04-18T13:05:58.373Z</time></trkpt><trkpt lat="44.9719067" lon="8.0100633"><ele>186.33333333333334</ele><time>2026-04-18T13:06:11.371Z</time></trkpt><trkpt lat="44.971985" lon="8.010085"><ele>186.0</ele><time>2026-04-18T13:06:13.371Z</time></trkpt><trkpt lat="44.9720617" lon="8.0101017"><ele>185.66666666666666</ele><time>2026-04-18T13:06:15.371Z</time></trkpt><trkpt lat="44.9721383" lon="8.010115"><ele>185.33333333333331</ele><time>2026-04-18T13:06:18.372Z</time></trkpt><trkpt lat="44.9722033" lon="8.01012"><ele>185.0</ele><time>2026-04-18T13:06:20.372Z</time></trkpt><trkpt lat="44.97229" lon="8.0101583"><ele>185.0</ele><time>2026-04-18T13:06:22.372Z</time></trkpt><trkpt lat="44.97239" lon="8.0102"><ele>185.0</ele><time>2026-04-18T13:06:24.372Z</time></trkpt><trkpt lat="44.9724917" lon="8.0102233"><ele>185.0</ele><time>2026-04-18T13:06:26.372Z</time></trkpt><trkpt lat="44.9726133" lon="8.0102567"><ele>185.0</ele><time>2026-04-18T13:06:28.372Z</time></trkpt><trkpt lat="44.9726817" lon="8.0102583"><ele>185.0</ele><time>2026-04-18T13:06:29.371Z</time></trkpt><trkpt lat="44.972755" lon="8.01027"><ele>185.0</ele><time>2026-04-18T13:06:30.372Z</time></trkpt><trkpt lat="44.9728217" lon="8.01029"><ele>185.0</ele><time>2026-04-18T13:06:31.371Z</time></trkpt><trkpt lat="44.9728917" lon="8.0102983"><ele>185.0</ele><time>2026-04-18T13:06:32.372Z</time></trkpt><trkpt lat="44.9729617" lon="8.0103017"><ele>185.0</ele><time>2026-04-18T13:06:33.372Z</time></trkpt><trkpt lat="44.9730283" lon="8.0103067"><ele>185.0</ele><time>2026-04-18T13:06:34.371Z</time></trkpt><trkpt lat="44.9731383" lon="8.0103117"><ele>185.0</ele><time>2026-04-18T13:06:36.372Z</time></trkpt><trkpt lat="44.9732617" lon="8.0103583"><ele>184.99999999999997</ele><time>2026-04-18T13:06:38.371Z</time></trkpt><trkpt lat="44.973325" lon="8.0104"><ele>185.0</ele><time>2026-04-18T13:06:39.372Z</time></trkpt><trkpt lat="44.9733967" lon="8.01045"><ele>185.0</ele><time>2026-04-18T13:06:40.371Z</time></trkpt><trkpt lat="44.9734583" lon="8.01051"><ele>185.0</ele><time>2026-04-18T13:06:41.371Z</time></trkpt><trkpt lat="44.9735167" lon="8.010565"><ele>185.0</ele><time>2026-04-18T13:06:42.372Z</time></trkpt><trkpt lat="44.9735783" lon="8.0106133"><ele>184.99999999999997</ele><time>2026-04-18T13:06:43.372Z</time></trkpt><trkpt lat="44.9736433" lon="8.0106433"><ele>185.0</ele><time>2026-04-18T13:06:44.371Z</time></trkpt><trkpt lat="44.9737083" lon="8.0106667"><ele>185.5</ele><time>2026-04-18T13:06:45.371Z</time></trkpt><trkpt lat="44.9737817" lon="8.010675"><ele>186.0</ele><time>2026-04-18T13:06:46.371Z</time></trkpt><trkpt lat="44.9738567" lon="8.0106817"><ele>186.5</ele><time>2026-04-18T13:06:47.372Z</time></trkpt><trkpt lat="44.9739317" lon="8.0106817"><ele>187.0</ele><time>2026-04-18T13:06:48.372Z</time></trkpt><trkpt lat="44.9740133" lon="8.01068"><ele>187.5</ele><time>2026-04-18T13:06:49.372Z</time></trkpt><trkpt lat="44.9740983" lon="8.0106867"><ele>188.0</ele><time>2026-04-18T13:06:50.372Z</time></trkpt><trkpt lat="44.974185" lon="8.0107033"><ele>187.5</ele><time>2026-04-18T13:06:51.372Z</time></trkpt><trkpt lat="44.974275" lon="8.0107133"><ele>187.0</ele><time>2026-04-18T13:06:52.372Z</time></trkpt><trkpt lat="44.9743567" lon="8.01073"><ele>186.5</ele><time>2026-04-18T13:06:53.372Z</time></trkpt><trkpt lat="44.974435" lon="8.0107517"><ele>186.0</ele><time>2026-04-18T13:06:54.372Z</time></trkpt><trkpt lat="44.974515" lon="8.010775"><ele>185.5</ele><time>2026-04-18T13:06:55.371Z</time></trkpt><trkpt lat="44.9745967" lon="8.0108033"><ele>185.0</ele><time>2026-04-18T13:06:56.372Z</time></trkpt><trkpt lat="44.9746783" lon="8.0108267"><ele>185.0</ele><time>2026-04-18T13:06:57.372Z</time></trkpt><trkpt lat="44.9747583" lon="8.010855"><ele>185.0</ele><time>2026-04-18T13:06:58.372Z</time></trkpt><trkpt lat="44.9748433" lon="8.01088"><ele>185.0</ele><time>2026-04-18T13:06:59.371Z</time></trkpt><trkpt lat="44.9749283" lon="8.0109017"><ele>185.0</ele><time>2026-04-18T13:07:00.372Z</time></trkpt><trkpt lat="44.9750217" lon="8.0109367"><ele>185.0</ele><time>2026-04-18T13:07:01.372Z</time></trkpt><trkpt lat="44.9751017" lon="8.0109733"><ele>185.0</ele><time>2026-04-18T13:07:02.372Z</time></trkpt><trkpt lat="44.9751867" lon="8.011015"><ele>184.8</ele><time>2026-04-18T13:07:03.372Z</time></trkpt><trkpt lat="44.9752683" lon="8.01105"><ele>184.6</ele><time>2026-04-18T13:07:04.372Z</time></trkpt><trkpt lat="44.97535" lon="8.0110783"><ele>184.39999999999998</ele><time>2026-04-18T13:07:05.372Z</time></trkpt><trkpt lat="44.9754433" lon="8.0110983"><ele>184.2</ele><time>2026-04-18T13:07:06.372Z</time></trkpt><trkpt lat="44.9755483" lon="8.0111083"><ele>184.0</ele><time>2026-04-18T13:07:07.372Z</time></trkpt><trkpt lat="44.9756517" lon="8.0111"><ele>184.0</ele><time>2026-04-18T13:07:08.372Z</time></trkpt><trkpt lat="44.9757617" lon="8.0110667"><ele>184.0</ele><time>2026-04-18T13:07:09.372Z</time></trkpt><trkpt lat="44.9758733" lon="8.0110533"><ele>184.0</ele><time>2026-04-18T13:07:10.372Z</time></trkpt><trkpt lat="44.9759767" lon="8.0110333"><ele>184.0</ele><time>2026-04-18T13:07:11.372Z</time></trkpt><trkpt lat="44.9760767" lon="8.0110167"><ele>184.0</ele><time>2026-04-18T13:07:12.371Z</time></trkpt><trkpt lat="44.976175" lon="8.0109967"><ele>184.0</ele><time>2026-04-18T13:07:13.372Z</time></trkpt><trkpt lat="44.9762783" lon="8.01098"><ele>184.0</ele><time>2026-04-18T13:07:14.372Z</time></trkpt><trkpt lat="44.9763883" lon="8.0109683"><ele>184.0</ele><time>2026-04-18T13:07:15.372Z</time></trkpt><trkpt lat="44.9764917" lon="8.010965"><ele>184.0</ele><time>2026-04-18T13:07:16.372Z</time></trkpt><trkpt lat="44.9765933" lon="8.0109483"><ele>184.0</ele><time>2026-04-18T13:07:17.371Z</time></trkpt><trkpt lat="44.9766983" lon="8.0109383"><ele>183.2</ele><time>2026-04-18T13:07:18.371Z</time></trkpt><trkpt lat="44.976805" lon="8.010935"><ele>182.39999999999998</ele><time>2026-04-18T13:07:19.372Z</time></trkpt><trkpt lat="44.9769183" lon="8.0109283"><ele>181.6</ele><time>2026-04-18T13:07:20.371Z</time></trkpt><trkpt lat="44.9770283" lon="8.010915"><ele>180.8</ele><time>2026-04-18T13:07:21.372Z</time></trkpt><trkpt lat="44.9771333" lon="8.010905"><ele>180.0</ele><time>2026-04-18T13:07:22.371Z</time></trkpt><trkpt lat="44.9772467" lon="8.0108967"><ele>180.0</ele><time>2026-04-18T13:07:23.371Z</time></trkpt><trkpt lat="44.9773567" lon="8.0108983"><ele>180.0</ele><time>2026-04-18T13:07:24.371Z</time></trkpt><trkpt lat="44.9774717" lon="8.010905"><ele>180.0</ele><time>2026-04-18T13:07:25.372Z</time></trkpt><trkpt lat="44.9775783" lon="8.0109067"><ele>180.0</ele><time>2026-04-18T13:07:26.371Z</time></trkpt><trkpt lat="44.9776883" lon="8.0108933"><ele>180.0</ele><time>2026-04-18T13:07:27.371Z</time></trkpt><trkpt lat="44.9778" lon="8.0108733"><ele>180.6</ele><time>2026-04-18T13:07:28.371Z</time></trkpt><trkpt lat="44.9779033" lon="8.0108567"><ele>181.2</ele><time>2026-04-18T13:07:29.372Z</time></trkpt><trkpt lat="44.978005" lon="8.010835"><ele>181.8</ele><time>2026-04-18T13:07:30.372Z</time></trkpt><trkpt lat="44.9781133" lon="8.0108167"><ele>182.4</ele><time>2026-04-18T13:07:31.371Z</time></trkpt><trkpt lat="44.9782167" lon="8.010785"><ele>183.0</ele><time>2026-04-18T13:07:32.372Z</time></trkpt><trkpt lat="44.9783267" lon="8.0107517"><ele>183.8</ele><time>2026-04-18T13:07:33.371Z</time></trkpt><trkpt lat="44.9784317" lon="8.0107283"><ele>184.60000000000002</ele><time>2026-04-18T13:07:34.371Z</time></trkpt><trkpt lat="44.9785417" lon="8.0107083"><ele>185.39999999999998</ele><time>2026-04-18T13:07:35.371Z</time></trkpt><trkpt lat="44.97865" lon="8.0106933"><ele>186.2</ele><time>2026-04-18T13:07:36.372Z</time></trkpt><trkpt lat="44.9787583" lon="8.0107033"><ele>187.0</ele><time>2026-04-18T13:07:37.372Z</time></trkpt><trkpt lat="44.9788683" lon="8.0107133"><ele>187.0</ele><time>2026-04-18T13:07:38.372Z</time></trkpt><trkpt lat="44.978975" lon="8.0107217"><ele>187.0</ele><time>2026-04-18T13:07:39.372Z</time></trkpt><trkpt lat="44.9790833" lon="8.0107433"><ele>187.0</ele><time>2026-04-18T13:07:40.372Z</time></trkpt><trkpt lat="44.9791917" lon="8.01076"><ele>187.0</ele><time>2026-04-18T13:07:41.371Z</time></trkpt><trkpt lat="44.979305" lon="8.010775"><ele>187.0</ele><time>2026-04-18T13:07:42.372Z</time></trkpt><trkpt lat="44.9794167" lon="8.0107967"><ele>186.6</ele><time>2026-04-18T13:07:43.372Z</time></trkpt><trkpt lat="44.9795233" lon="8.01082"><ele>186.2</ele><time>2026-04-18T13:07:44.372Z</time></trkpt><trkpt lat="44.9796317" lon="8.010835"><ele>185.8</ele><time>2026-04-18T13:07:45.372Z</time></trkpt><trkpt lat="44.979735" lon="8.0108533"><ele>185.4</ele><time>2026-04-18T13:07:46.372Z</time></trkpt><trkpt lat="44.9798333" lon="8.0108867"><ele>185.0</ele><time>2026-04-18T13:07:47.372Z</time></trkpt><trkpt lat="44.9799367" lon="8.0109117"><ele>184.0</ele><time>2026-04-18T13:07:48.372Z</time></trkpt><trkpt lat="44.9800433" lon="8.0109383"><ele>183.0</ele><time>2026-04-18T13:07:49.372Z</time></trkpt><trkpt lat="44.9801483" lon="8.0109683"><ele>182.0</ele><time>2026-04-18T13:07:50.372Z</time></trkpt><trkpt lat="44.9802517" lon="8.010995"><ele>181.0</ele><time>2026-04-18T13:07:51.372Z</time></trkpt><trkpt lat="44.9803517" lon="8.01103"><ele>180.0</ele><time>2026-04-18T13:07:52.372Z</time></trkpt><trkpt lat="44.9804433" lon="8.0110683"><ele>180.0</ele><time>2026-04-18T13:07:53.372Z</time></trkpt><trkpt lat="44.9805467" lon="8.011105"><ele>180.0</ele><time>2026-04-18T13:07:54.372Z</time></trkpt><trkpt lat="44.9806483" lon="8.0111467"><ele>180.0</ele><time>2026-04-18T13:07:55.372Z</time></trkpt><trkpt lat="44.980755" lon="8.01119"><ele>180.0</ele><time>2026-04-18T13:07:56.372Z</time></trkpt><trkpt lat="44.98085" lon="8.01123"><ele>180.0</ele><time>2026-04-18T13:07:57.371Z</time></trkpt><trkpt lat="44.980955" lon="8.01127"><ele>180.0</ele><time>2026-04-18T13:07:58.372Z</time></trkpt><trkpt lat="44.9810683" lon="8.0113083"><ele>180.0</ele><time>2026-04-18T13:07:59.372Z</time></trkpt><trkpt lat="44.9811667" lon="8.0113583"><ele>180.0</ele><time>2026-04-18T13:08:00.372Z</time></trkpt><trkpt lat="44.9812683" lon="8.0113983"><ele>180.0</ele><time>2026-04-18T13:08:01.371Z</time></trkpt><trkpt lat="44.9813633" lon="8.0114367"><ele>180.0</ele><time>2026-04-18T13:08:02.372Z</time></trkpt><trkpt lat="44.9814583" lon="8.01148"><ele>180.0</ele><time>2026-04-18T13:08:03.372Z</time></trkpt><trkpt lat="44.9815633" lon="8.011525"><ele>180.0</ele><time>2026-04-18T13:08:04.371Z</time></trkpt><trkpt lat="44.9816683" lon="8.01158"><ele>180.0</ele><time>2026-04-18T13:08:05.371Z</time></trkpt><trkpt lat="44.9817717" lon="8.0116367"><ele>180.0</ele><time>2026-04-18T13:08:06.372Z</time></trkpt><trkpt lat="44.981875" lon="8.0116883"><ele>180.0</ele><time>2026-04-18T13:08:07.372Z</time></trkpt><trkpt lat="44.9819767" lon="8.0117417"><ele>180.0</ele><time>2026-04-18T13:08:08.372Z</time></trkpt><trkpt lat="44.9820717" lon="8.0118017"><ele>180.0</ele><time>2026-04-18T13:08:09.372Z</time></trkpt><trkpt lat="44.9821633" lon="8.0118583"><ele>180.0</ele><time>2026-04-18T13:08:10.372Z</time></trkpt><trkpt lat="44.9822533" lon="8.0119283"><ele>180.0</ele><time>2026-04-18T13:08:11.372Z</time></trkpt><trkpt lat="44.9823433" lon="8.0119817"><ele>180.0</ele><time>2026-04-18T13:08:12.372Z</time></trkpt><trkpt lat="44.9824417" lon="8.0120233"><ele>181.6</ele><time>2026-04-18T13:08:13.371Z</time></trkpt><trkpt lat="44.9825417" lon="8.0120617"><ele>183.2</ele><time>2026-04-18T13:08:14.372Z</time></trkpt><trkpt lat="44.9826433" lon="8.0120917"><ele>184.8</ele><time>2026-04-18T13:08:15.371Z</time></trkpt><trkpt lat="44.9827433" lon="8.0121233"><ele>186.4</ele><time>2026-04-18T13:08:16.372Z</time></trkpt><trkpt lat="44.9828417" lon="8.0121517"><ele>188.0</ele><time>2026-04-18T13:08:17.372Z</time></trkpt><trkpt lat="44.9829433" lon="8.0121717"><ele>188.0</ele><time>2026-04-18T13:08:18.372Z</time></trkpt><trkpt lat="44.9830433" lon="8.0121883"><ele>188.0</ele><time>2026-04-18T13:08:19.372Z</time></trkpt><trkpt lat="44.9831433" lon="8.0121967"><ele>188.0</ele><time>2026-04-18T13:08:20.372Z</time></trkpt><trkpt lat="44.98324" lon="8.0121967"><ele>188.0</ele><time>2026-04-18T13:08:21.371Z</time></trkpt><trkpt lat="44.983345" lon="8.01219"><ele>188.0</ele><time>2026-04-18T13:08:22.372Z</time></trkpt><trkpt lat="44.9834417" lon="8.012175"><ele>187.60000000000002</ele><time>2026-04-18T13:08:23.372Z</time></trkpt><trkpt lat="44.98354" lon="8.012135"><ele>187.20000000000002</ele><time>2026-04-18T13:08:24.372Z</time></trkpt><trkpt lat="44.98364" lon="8.0120867"><ele>186.8</ele><time>2026-04-18T13:08:25.372Z</time></trkpt><trkpt lat="44.9837333" lon="8.0120317"><ele>186.4</ele><time>2026-04-18T13:08:26.372Z</time></trkpt><trkpt lat="44.98383" lon="8.0119817"><ele>186.0</ele><time>2026-04-18T13:08:27.372Z</time></trkpt><trkpt lat="44.9839267" lon="8.0119217"><ele>186.0</ele><time>2026-04-18T13:08:28.372Z</time></trkpt><trkpt lat="44.98402" lon="8.011875"><ele>186.0</ele><time>2026-04-18T13:08:29.372Z</time></trkpt><trkpt lat="44.9841133" lon="8.0118117"><ele>186.0</ele><time>2026-04-18T13:08:30.372Z</time></trkpt><trkpt lat="44.9842033" lon="8.011745"><ele>186.0</ele><time>2026-04-18T13:08:31.371Z</time></trkpt><trkpt lat="44.9843" lon="8.011675"><ele>186.0</ele><time>2026-04-18T13:08:32.372Z</time></trkpt><trkpt lat="44.9843983" lon="8.0116067"><ele>186.0</ele><time>2026-04-18T13:08:33.372Z</time></trkpt><trkpt lat="44.984495" lon="8.01153"><ele>186.0</ele><time>2026-04-18T13:08:34.372Z</time></trkpt><trkpt lat="44.98459" lon="8.011465"><ele>186.0</ele><time>2026-04-18T13:08:35.372Z</time></trkpt><trkpt lat="44.984685" lon="8.0113883"><ele>186.0</ele><time>2026-04-18T13:08:36.372Z</time></trkpt><trkpt lat="44.9847783" lon="8.0113133"><ele>186.0</ele><time>2026-04-18T13:08:37.371Z</time></trkpt><trkpt lat="44.98488" lon="8.011245"><ele>186.0</ele><time>2026-04-18T13:08:38.371Z</time></trkpt><trkpt lat="44.9849683" lon="8.0111717"><ele>186.0</ele><time>2026-04-18T13:08:39.372Z</time></trkpt><trkpt lat="44.9850433" lon="8.0111133"><ele>186.0</ele><time>2026-04-18T13:08:40.372Z</time></trkpt><trkpt lat="44.9851233" lon="8.0110533"><ele>186.0</ele><time>2026-04-18T13:08:41.372Z</time></trkpt><trkpt lat="44.9851917" lon="8.0109717"><ele>186.0</ele><time>2026-04-18T13:08:42.372Z</time></trkpt><trkpt lat="44.9852533" lon="8.01088"><ele>186.66666666666666</ele><time>2026-04-18T13:08:43.371Z</time></trkpt><trkpt lat="44.9853017" lon="8.0107717"><ele>187.33333333333334</ele><time>2026-04-18T13:08:44.371Z</time></trkpt><trkpt lat="44.9853383" lon="8.010655"><ele>188.0</ele><time>2026-04-18T13:08:45.372Z</time></trkpt><trkpt lat="44.9853683" lon="8.0105333"><ele>188.66666666666669</ele><time>2026-04-18T13:08:46.371Z</time></trkpt><trkpt lat="44.9854017" lon="8.0104167"><ele>189.33333333333334</ele><time>2026-04-18T13:08:47.372Z</time></trkpt><trkpt lat="44.9854433" lon="8.0103183"><ele>190.0</ele><time>2026-04-18T13:08:48.372Z</time></trkpt><trkpt lat="44.9854933" lon="8.0102417"><ele>190.0</ele><time>2026-04-18T13:08:49.371Z</time></trkpt><trkpt lat="44.9855583" lon="8.010195"><ele>190.0</ele><time>2026-04-18T13:08:50.372Z</time></trkpt><trkpt lat="44.9856433" lon="8.01017"><ele>190.0</ele><time>2026-04-18T13:08:51.372Z</time></trkpt><trkpt lat="44.9857383" lon="8.010175"><ele>190.0</ele><time>2026-04-18T13:08:52.371Z</time></trkpt><trkpt lat="44.985825" lon="8.0101767"><ele>190.0</ele><time>2026-04-18T13:08:53.371Z</time></trkpt><trkpt lat="44.985915" lon="8.01017"><ele>190.0</ele><time>2026-04-18T13:08:54.372Z</time></trkpt><trkpt lat="44.9860017" lon="8.01017"><ele>190.16666666666669</ele><time>2026-04-18T13:08:55.372Z</time></trkpt><trkpt lat="44.986085" lon="8.0101733"><ele>190.33333333333334</ele><time>2026-04-18T13:08:56.372Z</time></trkpt><trkpt lat="44.9861667" lon="8.0101767"><ele>190.5</ele><time>2026-04-18T13:08:57.372Z</time></trkpt><trkpt lat="44.9862517" lon="8.010185"><ele>190.66666666666666</ele><time>2026-04-18T13:08:58.371Z</time></trkpt><trkpt lat="44.9863217" lon="8.0102117"><ele>190.83333333333331</ele><time>2026-04-18T13:08:59.372Z</time></trkpt><trkpt lat="44.9863883" lon="8.010245"><ele>191.0</ele><time>2026-04-18T13:09:00.371Z</time></trkpt><trkpt lat="44.9864583" lon="8.0102833"><ele>191.0</ele><time>2026-04-18T13:09:01.372Z</time></trkpt><trkpt lat="44.9865283" lon="8.01032"><ele>191.0</ele><time>2026-04-18T13:09:02.372Z</time></trkpt><trkpt lat="44.986605" lon="8.010365"><ele>191.0</ele><time>2026-04-18T13:09:03.371Z</time></trkpt><trkpt lat="44.9866917" lon="8.01041"><ele>191.0</ele><time>2026-04-18T13:09:04.372Z</time></trkpt><trkpt lat="44.986785" lon="8.0104683"><ele>191.0</ele><time>2026-04-18T13:09:05.372Z</time></trkpt><trkpt lat="44.98688" lon="8.010525"><ele>191.16666666666666</ele><time>2026-04-18T13:09:06.372Z</time></trkpt><trkpt lat="44.9869583" lon="8.0105667"><ele>191.33333333333331</ele><time>2026-04-18T13:09:07.371Z</time></trkpt><trkpt lat="44.9870417" lon="8.01059"><ele>191.5</ele><time>2026-04-18T13:09:08.371Z</time></trkpt><trkpt lat="44.9871233" lon="8.0106217"><ele>191.66666666666666</ele><time>2026-04-18T13:09:09.372Z</time></trkpt><trkpt lat="44.9871983" lon="8.0106567"><ele>191.83333333333334</ele><time>2026-04-18T13:09:10.372Z</time></trkpt><trkpt lat="44.9872633" lon="8.0106917"><ele>192.0</ele><time>2026-04-18T13:09:11.372Z</time></trkpt><trkpt lat="44.987325" lon="8.0107267"><ele>192.0</ele><time>2026-04-18T13:09:12.372Z</time></trkpt><trkpt lat="44.98741" lon="8.01078"><ele>192.0</ele><time>2026-04-18T13:09:14.372Z</time></trkpt><trkpt lat="44.9874783" lon="8.010815"><ele>192.0</ele><time>2026-04-18T13:09:17.372Z</time></trkpt><trkpt lat="44.9875433" lon="8.0108317"><ele>192.0</ele><time>2026-04-18T13:09:19.372Z</time></trkpt><trkpt lat="44.9876583" lon="8.01083"><ele>192.0</ele><time>2026-04-18T13:09:21.372Z</time></trkpt><trkpt lat="44.98773" lon="8.0108233"><ele>192.0</ele><time>2026-04-18T13:09:22.372Z</time></trkpt><trkpt lat="44.9878083" lon="8.010805"><ele>191.8</ele><time>2026-04-18T13:09:23.372Z</time></trkpt><trkpt lat="44.987895" lon="8.0107933"><ele>191.6</ele><time>2026-04-18T13:09:24.372Z</time></trkpt><trkpt lat="44.9879967" lon="8.01078"><ele>191.4</ele><time>2026-04-18T13:09:25.372Z</time></trkpt><trkpt lat="44.9881" lon="8.0107767"><ele>191.20000000000002</ele><time>2026-04-18T13:09:26.372Z</time></trkpt><trkpt lat="44.9881983" lon="8.0107717"><ele>191.0</ele><time>2026-04-18T13:09:27.372Z</time></trkpt><trkpt lat="44.9882833" lon="8.0107783"><ele>190.8</ele><time>2026-04-18T13:09:28.372Z</time></trkpt><trkpt lat="44.9883667" lon="8.0107817"><ele>190.60000000000002</ele><time>2026-04-18T13:09:29.372Z</time></trkpt><trkpt lat="44.9884567" lon="8.0107817"><ele>190.4</ele><time>2026-04-18T13:09:30.372Z</time></trkpt><trkpt lat="44.9885567" lon="8.0107767"><ele>190.2</ele><time>2026-04-18T13:09:31.372Z</time></trkpt><trkpt lat="44.988655" lon="8.0107783"><ele>190.0</ele><time>2026-04-18T13:09:32.372Z</time></trkpt><trkpt lat="44.988755" lon="8.0107767"><ele>190.0</ele><time>2026-04-18T13:09:33.372Z</time></trkpt><trkpt lat="44.9888517" lon="8.010765"><ele>190.0</ele><time>2026-04-18T13:09:34.372Z</time></trkpt><trkpt lat="44.9889583" lon="8.0107667"><ele>190.0</ele><time>2026-04-18T13:09:35.372Z</time></trkpt><trkpt lat="44.9890583" lon="8.0107817"><ele>190.0</ele><time>2026-04-18T13:09:36.372Z</time></trkpt><trkpt lat="44.9891633" lon="8.0108017"><ele>190.0</ele><time>2026-04-18T13:09:37.371Z</time></trkpt><trkpt lat="44.98926" lon="8.0108267"><ele>189.2</ele><time>2026-04-18T13:09:38.372Z</time></trkpt><trkpt lat="44.9893583" lon="8.0108483"><ele>188.4</ele><time>2026-04-18T13:09:39.372Z</time></trkpt><trkpt lat="44.9894567" lon="8.0108683"><ele>187.60000000000002</ele><time>2026-04-18T13:09:40.372Z</time></trkpt><trkpt lat="44.9895517" lon="8.0108817"><ele>186.8</ele><time>2026-04-18T13:09:41.372Z</time></trkpt><trkpt lat="44.9896483" lon="8.0109017"><ele>186.0</ele><time>2026-04-18T13:09:42.372Z</time></trkpt><trkpt lat="44.9897533" lon="8.0109167"><ele>186.0</ele><time>2026-04-18T13:09:43.371Z</time></trkpt><trkpt lat="44.9898517" lon="8.0109317"><ele>186.0</ele><time>2026-04-18T13:09:44.372Z</time></trkpt><trkpt lat="44.9899367" lon="8.01094"><ele>186.0</ele><time>2026-04-18T13:09:45.372Z</time></trkpt><trkpt lat="44.9900167" lon="8.0109567"><ele>186.0</ele><time>2026-04-18T13:09:46.372Z</time></trkpt><trkpt lat="44.9900967" lon="8.0109733"><ele>186.0</ele><time>2026-04-18T13:09:47.372Z</time></trkpt><trkpt lat="44.9901783" lon="8.0109933"><ele>186.0</ele><time>2026-04-18T13:09:48.372Z</time></trkpt><trkpt lat="44.9902683" lon="8.01102"><ele>186.0</ele><time>2026-04-18T13:09:49.372Z</time></trkpt><trkpt lat="44.9903583" lon="8.0110533"><ele>186.0</ele><time>2026-04-18T13:09:50.372Z</time></trkpt><trkpt lat="44.99045" lon="8.0110967"><ele>186.0</ele><time>2026-04-18T13:09:51.372Z</time></trkpt><trkpt lat="44.9905383" lon="8.0111467"><ele>186.0</ele><time>2026-04-18T13:09:52.372Z</time></trkpt><trkpt lat="44.9906233" lon="8.0112"><ele>186.0</ele><time>2026-04-18T13:09:53.372Z</time></trkpt><trkpt lat="44.9907083" lon="8.0112567"><ele>186.0</ele><time>2026-04-18T13:09:54.372Z</time></trkpt><trkpt lat="44.9907983" lon="8.01131"><ele>186.0</ele><time>2026-04-18T13:09:55.372Z</time></trkpt><trkpt lat="44.99089" lon="8.0113583"><ele>186.0</ele><time>2026-04-18T13:09:56.372Z</time></trkpt><trkpt lat="44.9909867" lon="8.0114033"><ele>186.0</ele><time>2026-04-18T13:09:57.372Z</time></trkpt><trkpt lat="44.9910883" lon="8.0114367"><ele>186.0</ele><time>2026-04-18T13:09:58.372Z</time></trkpt><trkpt lat="44.99119" lon="8.0114667"><ele>186.20000000000002</ele><time>2026-04-18T13:09:59.372Z</time></trkpt><trkpt lat="44.9912917" lon="8.0115"><ele>186.4</ele><time>2026-04-18T13:10:00.372Z</time></trkpt><trkpt lat="44.991395" lon="8.0115333"><ele>186.6</ele><time>2026-04-18T13:10:01.371Z</time></trkpt><trkpt lat="44.9914767" lon="8.0115717"><ele>186.8</ele><time>2026-04-18T13:10:02.371Z</time></trkpt><trkpt lat="44.9915467" lon="8.011605"><ele>187.0</ele><time>2026-04-18T13:10:03.372Z</time></trkpt><trkpt lat="44.9916267" lon="8.0116367"><ele>187.6</ele><time>2026-04-18T13:10:04.372Z</time></trkpt><trkpt lat="44.99171" lon="8.011665"><ele>188.2</ele><time>2026-04-18T13:10:05.371Z</time></trkpt><trkpt lat="44.9918067" lon="8.011685"><ele>188.8</ele><time>2026-04-18T13:10:06.372Z</time></trkpt><trkpt lat="44.9919117" lon="8.0116883"><ele>189.4</ele><time>2026-04-18T13:10:07.372Z</time></trkpt><trkpt lat="44.9920267" lon="8.0116767"><ele>190.0</ele><time>2026-04-18T13:10:08.372Z</time></trkpt><trkpt lat="44.9921383" lon="8.0116617"><ele>190.2</ele><time>2026-04-18T13:10:09.371Z</time></trkpt><trkpt lat="44.99224" lon="8.0116467"><ele>190.4</ele><time>2026-04-18T13:10:10.372Z</time></trkpt><trkpt lat="44.9923467" lon="8.0116183"><ele>190.60000000000002</ele><time>2026-04-18T13:10:11.372Z</time></trkpt><trkpt lat="44.9924483" lon="8.0115917"><ele>190.8</ele><time>2026-04-18T13:10:12.372Z</time></trkpt><trkpt lat="44.99254" lon="8.0115617"><ele>191.0</ele><time>2026-04-18T13:10:13.372Z</time></trkpt><trkpt lat="44.9926383" lon="8.0115483"><ele>190.60000000000002</ele><time>2026-04-18T13:10:14.372Z</time></trkpt><trkpt lat="44.9927417" lon="8.011525"><ele>190.2</ele><time>2026-04-18T13:10:15.372Z</time></trkpt><trkpt lat="44.992845" lon="8.011515"><ele>189.8</ele><time>2026-04-18T13:10:16.371Z</time></trkpt><trkpt lat="44.9929333" lon="8.011505"><ele>189.39999999999998</ele><time>2026-04-18T13:10:17.371Z</time></trkpt><trkpt lat="44.9930167" lon="8.0115033"><ele>189.0</ele><time>2026-04-18T13:10:18.371Z</time></trkpt><trkpt lat="44.9930917" lon="8.011495"><ele>189.0</ele><time>2026-04-18T13:10:19.372Z</time></trkpt><trkpt lat="44.9932067" lon="8.0114467"><ele>189.0</ele><time>2026-04-18T13:10:21.372Z</time></trkpt><trkpt lat="44.9932817" lon="8.0113233"><ele>189.0</ele><time>2026-04-18T13:10:23.372Z</time></trkpt><trkpt lat="44.99333" lon="8.01118"><ele>189.0</ele><time>2026-04-18T13:10:25.372Z</time></trkpt><trkpt lat="44.9933967" lon="8.0110633"><ele>189.39999999999998</ele><time>2026-04-18T13:10:27.372Z</time></trkpt><trkpt lat="44.9935217" lon="8.0109783"><ele>189.8</ele><time>2026-04-18T13:10:29.371Z</time></trkpt><trkpt lat="44.9935933" lon="8.01093"><ele>190.2</ele><time>2026-04-18T13:10:30.372Z</time></trkpt><trkpt lat="44.9936667" lon="8.0108817"><ele>190.60000000000002</ele><time>2026-04-18T13:10:31.372Z</time></trkpt><trkpt lat="44.9937467" lon="8.0108483"><ele>191.0</ele><time>2026-04-18T13:10:32.371Z</time></trkpt><trkpt lat="44.9938317" lon="8.010825"><ele>191.66666666666666</ele><time>2026-04-18T13:10:33.372Z</time></trkpt><trkpt lat="44.9939167" lon="8.0107933"><ele>192.33333333333331</ele><time>2026-04-18T13:10:34.372Z</time></trkpt><trkpt lat="44.9939983" lon="8.01075"><ele>193.0</ele><time>2026-04-18T13:10:35.371Z</time></trkpt><trkpt lat="44.99408" lon="8.0107083"><ele>193.66666666666666</ele><time>2026-04-18T13:10:36.371Z</time></trkpt><trkpt lat="44.9941567" lon="8.0106617"><ele>194.33333333333334</ele><time>2026-04-18T13:10:37.371Z</time></trkpt><trkpt lat="44.9942433" lon="8.0106083"><ele>195.0</ele><time>2026-04-18T13:10:38.372Z</time></trkpt><trkpt lat="44.9943283" lon="8.0105483"><ele>195.0</ele><time>2026-04-18T13:10:39.372Z</time></trkpt><trkpt lat="44.9944217" lon="8.010485"><ele>195.0</ele><time>2026-04-18T13:10:40.372Z</time></trkpt><trkpt lat="44.9945017" lon="8.0104167"><ele>195.0</ele><time>2026-04-18T13:10:41.371Z</time></trkpt><trkpt lat="44.9945783" lon="8.0103483"><ele>195.0</ele><time>2026-04-18T13:10:42.372Z</time></trkpt><trkpt lat="44.99466" lon="8.0102783"><ele>195.0</ele><time>2026-04-18T13:10:43.372Z</time></trkpt><trkpt lat="44.9947283" lon="8.01022"><ele>195.0</ele><time>2026-04-18T13:10:44.372Z</time></trkpt><trkpt lat="44.9947883" lon="8.0101533"><ele>195.0</ele><time>2026-04-18T13:10:45.372Z</time></trkpt><trkpt lat="44.9948617" lon="8.0100867"><ele>195.0</ele><time>2026-04-18T13:10:46.372Z</time></trkpt><trkpt lat="44.994935" lon="8.0100217"><ele>195.0</ele><time>2026-04-18T13:10:47.371Z</time></trkpt><trkpt lat="44.995005" lon="8.009965"><ele>195.0</ele><time>2026-04-18T13:10:48.372Z</time></trkpt><trkpt lat="44.9950783" lon="8.0099167"><ele>195.0</ele><time>2026-04-18T13:10:49.372Z</time></trkpt><trkpt lat="44.9951533" lon="8.0098683"><ele>195.2</ele><time>2026-04-18T13:10:50.372Z</time></trkpt><trkpt lat="44.9952383" lon="8.009815"><ele>195.4</ele><time>2026-04-18T13:10:51.372Z</time></trkpt><trkpt lat="44.9953283" lon="8.0097683"><ele>195.60000000000002</ele><time>2026-04-18T13:10:52.372Z</time></trkpt><trkpt lat="44.9954233" lon="8.009735"><ele>195.8</ele><time>2026-04-18T13:10:53.371Z</time></trkpt><trkpt lat="44.9955217" lon="8.0097117"><ele>196.0</ele><time>2026-04-18T13:10:54.372Z</time></trkpt><trkpt lat="44.9956167" lon="8.00969"><ele>195.99999999999997</ele><time>2026-04-18T13:10:55.372Z</time></trkpt><trkpt lat="44.995695" lon="8.009675"><ele>196.0</ele><time>2026-04-18T13:10:56.372Z</time></trkpt><trkpt lat="44.9957617" lon="8.009665"><ele>196.0</ele><time>2026-04-18T13:10:57.372Z</time></trkpt><trkpt lat="44.9958517" lon="8.00963"><ele>196.0</ele><time>2026-04-18T13:10:59.37Z</time></trkpt><trkpt lat="44.9959183" lon="8.0096133"><ele>195.99999999999997</ele><time>2026-04-18T13:11:01.371Z</time></trkpt><trkpt lat="44.9960017" lon="8.0096717"><ele>196.0</ele><time>2026-04-18T13:11:04.37Z</time></trkpt><trkpt lat="44.9960417" lon="8.0098"><ele>195.99999999999997</ele><time>2026-04-18T13:11:06.371Z</time></trkpt><trkpt lat="44.99605" lon="8.009905"><ele>196.0</ele><time>2026-04-18T13:11:07.37Z</time></trkpt><trkpt lat="44.9960583" lon="8.0100267"><ele>196.0</ele><time>2026-04-18T13:11:08.371Z</time></trkpt><trkpt lat="44.9960783" lon="8.0101483"><ele>196.0</ele><time>2026-04-18T13:11:09.371Z</time></trkpt><trkpt lat="44.9960983" lon="8.0102717"><ele>195.99999999999997</ele><time>2026-04-18T13:11:10.371Z</time></trkpt><trkpt lat="44.9961167" lon="8.01039"><ele>196.0</ele><time>2026-04-18T13:11:11.371Z</time></trkpt><trkpt lat="44.9961417" lon="8.01051"><ele>194.83333333333331</ele><time>2026-04-18T13:11:12.37Z</time></trkpt><trkpt lat="44.9961683" lon="8.0106317"><ele>193.66666666666666</ele><time>2026-04-18T13:11:13.371Z</time></trkpt><trkpt lat="44.99619" lon="8.0107483"><ele>192.5</ele><time>2026-04-18T13:11:14.371Z</time></trkpt><trkpt lat="44.9962033" lon="8.0108633"><ele>191.33333333333331</ele><time>2026-04-18T13:11:15.371Z</time></trkpt><trkpt lat="44.9962183" lon="8.0109617"><ele>190.16666666666666</ele><time>2026-04-18T13:11:16.371Z</time></trkpt><trkpt lat="44.9962383" lon="8.0110517"><ele>189.0</ele><time>2026-04-18T13:11:17.37Z</time></trkpt><trkpt lat="44.996255" lon="8.0111417"><ele>189.0</ele><time>2026-04-18T13:11:18.37Z</time></trkpt><trkpt lat="44.9962767" lon="8.011245"><ele>189.0</ele><time>2026-04-18T13:11:19.37Z</time></trkpt><trkpt lat="44.9962933" lon="8.01135"><ele>189.0</ele><time>2026-04-18T13:11:20.371Z</time></trkpt><trkpt lat="44.9963133" lon="8.011515"><ele>189.0</ele><time>2026-04-18T13:11:22.37Z</time></trkpt><trkpt lat="44.9963317" lon="8.0116133"><ele>189.0</ele><time>2026-04-18T13:11:24.371Z</time></trkpt><trkpt lat="44.9963733" lon="8.0117333"><ele>189.0</ele><time>2026-04-18T13:11:27.37Z</time></trkpt><trkpt lat="44.9964767" lon="8.0117133"><ele>189.0</ele><time>2026-04-18T13:11:35.37Z</time></trkpt><trkpt lat="44.99654" lon="8.0116633"><ele>189.0</ele><time>2026-04-18T13:11:36.371Z</time></trkpt><trkpt lat="44.9966133" lon="8.0115867"><ele>189.0</ele><time>2026-04-18T13:11:37.371Z</time></trkpt><trkpt lat="44.9966967" lon="8.01151"><ele>189.0</ele><time>2026-04-18T13:11:38.37Z</time></trkpt><trkpt lat="44.9967867" lon="8.01142"><ele>189.0</ele><time>2026-04-18T13:11:39.371Z</time></trkpt><trkpt lat="44.9968833" lon="8.0113133"><ele>189.0</ele><time>2026-04-18T13:11:40.371Z</time></trkpt><trkpt lat="44.99699" lon="8.0111983"><ele>189.0</ele><time>2026-04-18T13:11:41.371Z</time></trkpt><trkpt lat="44.9971033" lon="8.0110767"><ele>189.0</ele><time>2026-04-18T13:11:42.371Z</time></trkpt><trkpt lat="44.9972183" lon="8.0109517"><ele>189.0</ele><time>2026-04-18T13:11:43.37Z</time></trkpt><trkpt lat="44.9973383" lon="8.0108233"><ele>189.33333333333334</ele><time>2026-04-18T13:11:44.37Z</time></trkpt><trkpt lat="44.9974683" lon="8.0106883"><ele>189.66666666666669</ele><time>2026-04-18T13:11:45.371Z</time></trkpt><trkpt lat="44.9976" lon="8.0105517"><ele>190.0</ele><time>2026-04-18T13:11:46.371Z</time></trkpt><trkpt lat="44.9977283" lon="8.01041"><ele>190.0</ele><time>2026-04-18T13:11:47.371Z</time></trkpt><trkpt lat="44.997865" lon="8.0102633"><ele>190.0</ele><time>2026-04-18T13:11:48.37Z</time></trkpt><trkpt lat="44.9980017" lon="8.0101233"><ele>190.0</ele><time>2026-04-18T13:11:49.371Z</time></trkpt><trkpt lat="44.9981317" lon="8.009975"><ele>190.33333333333334</ele><time>2026-04-18T13:11:50.371Z</time></trkpt><trkpt lat="44.9982583" lon="8.0098283"><ele>190.66666666666666</ele><time>2026-04-18T13:11:51.37Z</time></trkpt><trkpt lat="44.998395" lon="8.0096817"><ele>191.0</ele><time>2026-04-18T13:11:52.37Z</time></trkpt><trkpt lat="44.9985367" lon="8.0095417"><ele>191.0</ele><time>2026-04-18T13:11:53.371Z</time></trkpt><trkpt lat="44.9986717" lon="8.009395"><ele>191.0</ele><time>2026-04-18T13:11:54.371Z</time></trkpt><trkpt lat="44.9988033" lon="8.009245"><ele>191.0</ele><time>2026-04-18T13:11:55.371Z</time></trkpt><trkpt lat="44.9989317" lon="8.009105"><ele>191.33333333333331</ele><time>2026-04-18T13:11:56.371Z</time></trkpt><trkpt lat="44.99906" lon="8.0089783"><ele>191.66666666666666</ele><time>2026-04-18T13:11:57.371Z</time></trkpt><trkpt lat="44.9991917" lon="8.00884"><ele>192.0</ele><time>2026-04-18T13:11:58.371Z</time></trkpt><trkpt lat="44.99932" lon="8.0087"><ele>192.66666666666669</ele><time>2026-04-18T13:11:59.371Z</time></trkpt><trkpt lat="44.999445" lon="8.0085717"><ele>193.33333333333334</ele><time>2026-04-18T13:12:00.371Z</time></trkpt><trkpt lat="44.999565" lon="8.0084383"><ele>194.0</ele><time>2026-04-18T13:12:01.371Z</time></trkpt><trkpt lat="44.9996983" lon="8.0083233"><ele>194.0</ele><time>2026-04-18T13:12:02.37Z</time></trkpt><trkpt lat="44.9998417" lon="8.008245"><ele>194.0</ele><time>2026-04-18T13:12:03.371Z</time></trkpt><trkpt lat="44.9999917" lon="8.0082"><ele>194.0</ele><time>2026-04-18T13:12:04.37Z</time></trkpt><trkpt lat="45.000145" lon="8.0081917"><ele>194.0</ele><time>2026-04-18T13:12:05.37Z</time></trkpt><trkpt lat="45.0003033" lon="8.0082033"><ele>194.0</ele><time>2026-04-18T13:12:06.371Z</time></trkpt><trkpt lat="45.0004533" lon="8.0082133"><ele>194.0</ele><time>2026-04-18T13:12:07.371Z</time></trkpt><trkpt lat="45.0006083" lon="8.0082183"><ele>194.0</ele><time>2026-04-18T13:12:08.371Z</time></trkpt><trkpt lat="45.0007683" lon="8.008185"><ele>194.0</ele><time>2026-04-18T13:12:09.37Z</time></trkpt><trkpt lat="45.000905" lon="8.008105"><ele>194.0</ele><time>2026-04-18T13:12:10.371Z</time></trkpt><trkpt lat="45.00104" lon="8.007985"><ele>195.66666666666669</ele><time>2026-04-18T13:12:11.371Z</time></trkpt><trkpt lat="45.001175" lon="8.0078583"><ele>197.33333333333331</ele><time>2026-04-18T13:12:12.371Z</time></trkpt><trkpt lat="45.0013083" lon="8.0077317"><ele>199.0</ele><time>2026-04-18T13:12:13.37Z</time></trkpt><trkpt lat="45.0014367" lon="8.007615"><ele>197.0</ele><time>2026-04-18T13:12:14.371Z</time></trkpt><trkpt lat="45.001575" lon="8.0074833"><ele>195.0</ele><time>2026-04-18T13:12:15.371Z</time></trkpt><trkpt lat="45.0017033" lon="8.0073533"><ele>193.0</ele><time>2026-04-18T13:12:16.371Z</time></trkpt><trkpt lat="45.001845" lon="8.007235"><ele>193.0</ele><time>2026-04-18T13:12:17.371Z</time></trkpt><trkpt lat="45.0019817" lon="8.0071233"><ele>193.0</ele><time>2026-04-18T13:12:18.371Z</time></trkpt><trkpt lat="45.0021233" lon="8.0070117"><ele>193.0</ele><time>2026-04-18T13:12:19.371Z</time></trkpt><trkpt lat="45.00227" lon="8.0069017"><ele>193.0</ele><time>2026-04-18T13:12:20.371Z</time></trkpt><trkpt lat="45.0024167" lon="8.00678"><ele>193.0</ele><time>2026-04-18T13:12:21.37Z</time></trkpt><trkpt lat="45.002555" lon="8.0066733"><ele>193.0</ele><time>2026-04-18T13:12:22.371Z</time></trkpt><trkpt lat="45.00269" lon="8.006575"><ele>193.0</ele><time>2026-04-18T13:12:23.371Z</time></trkpt><trkpt lat="45.002825" lon="8.0064917"><ele>193.0</ele><time>2026-04-18T13:12:24.371Z</time></trkpt><trkpt lat="45.002945" lon="8.0064017"><ele>193.0</ele><time>2026-04-18T13:12:25.371Z</time></trkpt><trkpt lat="45.0030417" lon="8.0062967"><ele>193.0</ele><time>2026-04-18T13:12:26.371Z</time></trkpt><trkpt lat="45.003095" lon="8.0061417"><ele>193.0</ele><time>2026-04-18T13:12:27.371Z</time></trkpt><trkpt lat="45.00311" lon="8.0059633"><ele>193.0</ele><time>2026-04-18T13:12:28.371Z</time></trkpt><trkpt lat="45.0030833" lon="8.0057867"><ele>193.0</ele><time>2026-04-18T13:12:29.371Z</time></trkpt><trkpt lat="45.003035" lon="8.0056067"><ele>193.0</ele><time>2026-04-18T13:12:30.371Z</time></trkpt><trkpt lat="45.0029817" lon="8.005425"><ele>193.25</ele><time>2026-04-18T13:12:31.371Z</time></trkpt><trkpt lat="45.0029333" lon="8.005235"><ele>193.5</ele><time>2026-04-18T13:12:32.37Z</time></trkpt><trkpt lat="45.0028833" lon="8.0050383"><ele>193.75</ele><time>2026-04-18T13:12:33.371Z</time></trkpt><trkpt lat="45.0028417" lon="8.0048417"><ele>194.0</ele><time>2026-04-18T13:12:34.371Z</time></trkpt><trkpt lat="45.0027867" lon="8.0046367"><ele>196.0</ele><time>2026-04-18T13:12:35.371Z</time></trkpt><trkpt lat="45.0027317" lon="8.0044333"><ele>198.0</ele><time>2026-04-18T13:12:36.37Z</time></trkpt><trkpt lat="45.0026783" lon="8.0042283"><ele>200.0</ele><time>2026-04-18T13:12:37.37Z</time></trkpt><trkpt lat="45.00263" lon="8.004025"><ele>202.0</ele><time>2026-04-18T13:12:38.371Z</time></trkpt><trkpt lat="45.00258" lon="8.0038267"><ele>204.0</ele><time>2026-04-18T13:12:39.37Z</time></trkpt><trkpt lat="45.00253" lon="8.00362"><ele>206.0</ele><time>2026-04-18T13:12:40.371Z</time></trkpt><trkpt lat="45.0024783" lon="8.003405"><ele>208.66666666666669</ele><time>2026-04-18T13:12:41.37Z</time></trkpt><trkpt lat="45.00242" lon="8.0032"><ele>211.33333333333331</ele><time>2026-04-18T13:12:42.371Z</time></trkpt><trkpt lat="45.0023583" lon="8.0029933"><ele>214.0</ele><time>2026-04-18T13:12:43.371Z</time></trkpt><trkpt lat="45.0023083" lon="8.0027767"><ele>214.0</ele><time>2026-04-18T13:12:44.371Z</time></trkpt><trkpt lat="45.002265" lon="8.002565"><ele>214.0</ele><time>2026-04-18T13:12:45.371Z</time></trkpt><trkpt lat="45.0022267" lon="8.002365"><ele>214.0</ele><time>2026-04-18T13:12:46.371Z</time></trkpt><trkpt lat="45.002175" lon="8.0021683"><ele>214.0</ele><time>2026-04-18T13:12:47.37Z</time></trkpt><trkpt lat="45.0021267" lon="8.0019717"><ele>214.0</ele><time>2026-04-18T13:12:48.371Z</time></trkpt><trkpt lat="45.0020833" lon="8.0017733"><ele>214.0</ele><time>2026-04-18T13:12:49.371Z</time></trkpt><trkpt lat="45.002045" lon="8.0015867"><ele>214.0</ele><time>2026-04-18T13:12:50.371Z</time></trkpt><trkpt lat="45.00203" lon="8.0014033"><ele>214.0</ele><time>2026-04-18T13:12:51.371Z</time></trkpt><trkpt lat="45.0020367" lon="8.0012183"><ele>214.0</ele><time>2026-04-18T13:12:52.37Z</time></trkpt><trkpt lat="45.0020867" lon="8.0010533"><ele>214.0</ele><time>2026-04-18T13:12:53.371Z</time></trkpt><trkpt lat="45.00216" lon="8.0008983"><ele>214.0</ele><time>2026-04-18T13:12:54.371Z</time></trkpt><trkpt lat="45.002235" lon="8.0007417"><ele>215.5</ele><time>2026-04-18T13:12:55.371Z</time></trkpt><trkpt lat="45.0023117" lon="8.0005817"><ele>217.0</ele><time>2026-04-18T13:12:56.371Z</time></trkpt><trkpt lat="45.0023867" lon="8.0004167"><ele>218.5</ele><time>2026-04-18T13:12:57.371Z</time></trkpt><trkpt lat="45.00246" lon="8.0002633"><ele>220.0</ele><time>2026-04-18T13:12:58.371Z</time></trkpt><trkpt lat="45.0025467" lon="8.0001233"><ele>220.0</ele><time>2026-04-18T13:12:59.371Z</time></trkpt><trkpt lat="45.0026483" lon="8.0000167"><ele>220.0</ele><time>2026-04-18T13:13:00.371Z</time></trkpt><trkpt lat="45.00277" lon="7.9999683"><ele>220.0</ele><time>2026-04-18T13:13:01.371Z</time></trkpt><trkpt lat="45.0029017" lon="7.9999867"><ele>220.0</ele><time>2026-04-18T13:13:02.371Z</time></trkpt><trkpt lat="45.0030117" lon="8.0000733"><ele>220.0</ele><time>2026-04-18T13:13:03.371Z</time></trkpt><trkpt lat="45.0031033" lon="8.00021"><ele>220.0</ele><time>2026-04-18T13:13:04.371Z</time></trkpt><trkpt lat="45.0031483" lon="8.0003567"><ele>220.0</ele><time>2026-04-18T13:13:05.371Z</time></trkpt><trkpt lat="45.0031233" lon="8.000515"><ele>220.0</ele><time>2026-04-18T13:13:06.371Z</time></trkpt><trkpt lat="45.0030617" lon="8.00065"><ele>220.0</ele><time>2026-04-18T13:13:07.371Z</time></trkpt><trkpt lat="45.0030117" lon="8.000755"><ele>220.0</ele><time>2026-04-18T13:13:08.371Z</time></trkpt><trkpt lat="45.002975" lon="8.0008717"><ele>220.0</ele><time>2026-04-18T13:13:09.37Z</time></trkpt><trkpt lat="45.0029617" lon="8.0009767"><ele>220.0</ele><time>2026-04-18T13:13:10.37Z</time></trkpt><trkpt lat="45.0029583" lon="8.0010717"><ele>220.0</ele><time>2026-04-18T13:13:11.371Z</time></trkpt><trkpt lat="45.00307" lon="8.0011667"><ele>220.75</ele><time>2026-04-18T13:13:13.37Z</time></trkpt><trkpt lat="45.0031633" lon="8.0011333"><ele>221.5</ele><time>2026-04-18T13:13:14.371Z</time></trkpt><trkpt lat="45.0032667" lon="8.0010417"><ele>222.25</ele><time>2026-04-18T13:13:15.37Z</time></trkpt><trkpt lat="45.0033617" lon="8.0009017"><ele>223.0</ele><time>2026-04-18T13:13:16.37Z</time></trkpt><trkpt lat="45.0034667" lon="8.0007533"><ele>227.25</ele><time>2026-04-18T13:13:17.371Z</time></trkpt><trkpt lat="45.0035467" lon="8.0006133"><ele>231.5</ele><time>2026-04-18T13:13:18.371Z</time></trkpt><trkpt lat="45.0036233" lon="8.000465"><ele>235.75</ele><time>2026-04-18T13:13:19.371Z</time></trkpt><trkpt lat="45.0036817" lon="8.0003133"><ele>240.0</ele><time>2026-04-18T13:13:20.371Z</time></trkpt><trkpt lat="45.00373" lon="8.0001433"><ele>240.0</ele><time>2026-04-18T13:13:21.371Z</time></trkpt><trkpt lat="45.003775" lon="7.99998"><ele>240.0</ele><time>2026-04-18T13:13:22.371Z</time></trkpt><trkpt lat="45.0038367" lon="7.9998167"><ele>240.0</ele><time>2026-04-18T13:13:23.371Z</time></trkpt><trkpt lat="45.0038867" lon="7.999645"><ele>240.0</ele><time>2026-04-18T13:13:24.37Z</time></trkpt><trkpt lat="45.0039317" lon="7.9994633"><ele>240.0</ele><time>2026-04-18T13:13:25.371Z</time></trkpt><trkpt lat="45.00397" lon="7.9992833"><ele>240.0</ele><time>2026-04-18T13:13:26.371Z</time></trkpt><trkpt lat="45.004015" lon="7.9990983"><ele>240.0</ele><time>2026-04-18T13:13:27.371Z</time></trkpt><trkpt lat="45.004055" lon="7.998925"><ele>240.0</ele><time>2026-04-18T13:13:28.371Z</time></trkpt><trkpt lat="45.0040783" lon="7.99874"><ele>239.75</ele><time>2026-04-18T13:13:29.37Z</time></trkpt><trkpt lat="45.00412" lon="7.998555"><ele>239.5</ele><time>2026-04-18T13:13:30.37Z</time></trkpt><trkpt lat="45.0041583" lon="7.9983867"><ele>239.25</ele><time>2026-04-18T13:13:31.371Z</time></trkpt><trkpt lat="45.00418" lon="7.9982217"><ele>239.0</ele><time>2026-04-18T13:13:32.371Z</time></trkpt><trkpt lat="45.0041783" lon="7.998045"><ele>239.0</ele><time>2026-04-18T13:13:33.371Z</time></trkpt><trkpt lat="45.0041417" lon="7.99788"><ele>239.0</ele><time>2026-04-18T13:13:34.37Z</time></trkpt><trkpt lat="45.0040667" lon="7.9977367"><ele>239.0</ele><time>2026-04-18T13:13:35.37Z</time></trkpt><trkpt lat="45.0039867" lon="7.9976017"><ele>239.0</ele><time>2026-04-18T13:13:36.371Z</time></trkpt><trkpt lat="45.0038967" lon="7.9974733"><ele>241.75</ele><time>2026-04-18T13:13:37.371Z</time></trkpt><trkpt lat="45.0038083" lon="7.997335"><ele>244.5</ele><time>2026-04-18T13:13:38.371Z</time></trkpt><trkpt lat="45.0037167" lon="7.9971917"><ele>247.25</ele><time>2026-04-18T13:13:39.371Z</time></trkpt><trkpt lat="45.0036283" lon="7.997065"><ele>250.0</ele><time>2026-04-18T13:13:40.37Z</time></trkpt><trkpt lat="45.0035267" lon="7.9969683"><ele>250.0</ele><time>2026-04-18T13:13:41.371Z</time></trkpt><trkpt lat="45.0034267" lon="7.9968917"><ele>250.0</ele><time>2026-04-18T13:13:42.371Z</time></trkpt><trkpt lat="45.0033333" lon="7.996835"><ele>250.0</ele><time>2026-04-18T13:13:43.371Z</time></trkpt><trkpt lat="45.0032467" lon="7.9967733"><ele>250.0</ele><time>2026-04-18T13:13:44.371Z</time></trkpt><trkpt lat="45.0031983" lon="7.9966917"><ele>250.0</ele><time>2026-04-18T13:13:45.37Z</time></trkpt><trkpt lat="45.003175" lon="7.996585"><ele>251.6</ele><time>2026-04-18T13:13:46.371Z</time></trkpt><trkpt lat="45.0031767" lon="7.996475"><ele>253.2</ele><time>2026-04-18T13:13:47.37Z</time></trkpt><trkpt lat="45.00321" lon="7.996355"><ele>254.8</ele><time>2026-04-18T13:13:48.371Z</time></trkpt><trkpt lat="45.0032833" lon="7.9962167"><ele>256.4</ele><time>2026-04-18T13:13:49.371Z</time></trkpt><trkpt lat="45.00339" lon="7.9960633"><ele>258.0</ele><time>2026-04-18T13:13:50.37Z</time></trkpt><trkpt lat="45.0034867" lon="7.9959133"><ele>255.75</ele><time>2026-04-18T13:13:51.371Z</time></trkpt><trkpt lat="45.003575" lon="7.9957717"><ele>253.5</ele><time>2026-04-18T13:13:52.371Z</time></trkpt><trkpt lat="45.003665" lon="7.9956533"><ele>251.25</ele><time>2026-04-18T13:13:53.37Z</time></trkpt><trkpt lat="45.0037667" lon="7.9955833"><ele>249.0</ele><time>2026-04-18T13:13:54.37Z</time></trkpt><trkpt lat="45.0038883" lon="7.995545"><ele>249.0</ele><time>2026-04-18T13:13:55.371Z</time></trkpt><trkpt lat="45.004015" lon="7.9955233"><ele>249.0</ele><time>2026-04-18T13:13:56.371Z</time></trkpt><trkpt lat="45.0041467" lon="7.9955133"><ele>249.0</ele><time>2026-04-18T13:13:57.371Z</time></trkpt><trkpt lat="45.0042683" lon="7.9955017"><ele>249.0</ele><time>2026-04-18T13:13:58.37Z</time></trkpt><trkpt lat="45.004375" lon="7.995455"><ele>248.5</ele><time>2026-04-18T13:13:59.37Z</time></trkpt><trkpt lat="45.00445" lon="7.9953617"><ele>248.0</ele><time>2026-04-18T13:14:00.371Z</time></trkpt><trkpt lat="45.004505" lon="7.9952233"><ele>247.5</ele><time>2026-04-18T13:14:01.37Z</time></trkpt><trkpt lat="45.0045467" lon="7.9950533"><ele>247.0</ele><time>2026-04-18T13:14:02.371Z</time></trkpt><trkpt lat="45.0045567" lon="7.9948667"><ele>247.0</ele><time>2026-04-18T13:14:03.37Z</time></trkpt><trkpt lat="45.004555" lon="7.99467"><ele>247.0</ele><time>2026-04-18T13:14:04.37Z</time></trkpt><trkpt lat="45.0045533" lon="7.9944717"><ele>247.0</ele><time>2026-04-18T13:14:05.37Z</time></trkpt><trkpt lat="45.0045567" lon="7.9942683"><ele>247.0</ele><time>2026-04-18T13:14:06.371Z</time></trkpt><trkpt lat="45.0045567" lon="7.994075"><ele>245.25</ele><time>2026-04-18T13:14:07.371Z</time></trkpt><trkpt lat="45.004565" lon="7.9938833"><ele>243.5</ele><time>2026-04-18T13:14:08.37Z</time></trkpt><trkpt lat="45.0045717" lon="7.9937017"><ele>241.75</ele><time>2026-04-18T13:14:09.371Z</time></trkpt><trkpt lat="45.00456" lon="7.993525"><ele>240.0</ele><time>2026-04-18T13:14:10.371Z</time></trkpt><trkpt lat="45.0045" lon="7.9933567"><ele>238.75</ele><time>2026-04-18T13:14:11.37Z</time></trkpt><trkpt lat="45.0044067" lon="7.9932183"><ele>237.5</ele><time>2026-04-18T13:14:12.37Z</time></trkpt><trkpt lat="45.004325" lon="7.9930867"><ele>236.25</ele><time>2026-04-18T13:14:13.37Z</time></trkpt><trkpt lat="45.0042583" lon="7.9929533"><ele>235.0</ele><time>2026-04-18T13:14:14.37Z</time></trkpt><trkpt lat="45.0042233" lon="7.9928"><ele>235.0</ele><time>2026-04-18T13:14:15.371Z</time></trkpt><trkpt lat="45.0042167" lon="7.9926467"><ele>235.0</ele><time>2026-04-18T13:14:16.371Z</time></trkpt><trkpt lat="45.00424" lon="7.9925"><ele>235.0</ele><time>2026-04-18T13:14:17.37Z</time></trkpt><trkpt lat="45.0042383" lon="7.99238"><ele>235.0</ele><time>2026-04-18T13:14:18.371Z</time></trkpt><trkpt lat="45.0041967" lon="7.9922583"><ele>235.0</ele><time>2026-04-18T13:14:19.371Z</time></trkpt><trkpt lat="45.0041433" lon="7.9921467"><ele>232.0</ele><time>2026-04-18T13:14:20.37Z</time></trkpt><trkpt lat="45.0040667" lon="7.992065"><ele>229.0</ele><time>2026-04-18T13:14:21.37Z</time></trkpt><trkpt lat="45.00396" lon="7.99201"><ele>226.0</ele><time>2026-04-18T13:14:22.371Z</time></trkpt><trkpt lat="45.003845" lon="7.9919617"><ele>223.0</ele><time>2026-04-18T13:14:23.371Z</time></trkpt><trkpt lat="45.0037517" lon="7.99183"><ele>223.0</ele><time>2026-04-18T13:14:24.371Z</time></trkpt><trkpt lat="45.003695" lon="7.991655"><ele>223.0</ele><time>2026-04-18T13:14:25.371Z</time></trkpt><trkpt lat="45.0036817" lon="7.9914533"><ele>223.0</ele><time>2026-04-18T13:14:26.371Z</time></trkpt><trkpt lat="45.003685" lon="7.991245"><ele>223.0</ele><time>2026-04-18T13:14:27.371Z</time></trkpt><trkpt lat="45.00369" lon="7.991045"><ele>223.0</ele><time>2026-04-18T13:14:28.371Z</time></trkpt><trkpt lat="45.003705" lon="7.990845"><ele>223.0</ele><time>2026-04-18T13:14:29.371Z</time></trkpt><trkpt lat="45.003735" lon="7.9906233"><ele>223.0</ele><time>2026-04-18T13:14:30.371Z</time></trkpt><trkpt lat="45.00375" lon="7.9904283"><ele>223.0</ele><time>2026-04-18T13:14:31.371Z</time></trkpt><trkpt lat="45.0037883" lon="7.99023"><ele>222.33333333333331</ele><time>2026-04-18T13:14:32.37Z</time></trkpt><trkpt lat="45.00384" lon="7.9900317"><ele>221.66666666666669</ele><time>2026-04-18T13:14:33.371Z</time></trkpt><trkpt lat="45.003905" lon="7.9898417"><ele>221.0</ele><time>2026-04-18T13:14:34.371Z</time></trkpt><trkpt lat="45.0039933" lon="7.9896367"><ele>219.0</ele><time>2026-04-18T13:14:35.371Z</time></trkpt><trkpt lat="45.004075" lon="7.98944"><ele>217.0</ele><time>2026-04-18T13:14:36.371Z</time></trkpt><trkpt lat="45.0041533" lon="7.9892533"><ele>215.0</ele><time>2026-04-18T13:14:37.37Z</time></trkpt><trkpt lat="45.0042383" lon="7.9890667"><ele>215.0</ele><time>2026-04-18T13:14:38.371Z</time></trkpt><trkpt lat="45.004325" lon="7.988875"><ele>215.0</ele><time>2026-04-18T13:14:39.371Z</time></trkpt><trkpt lat="45.004405" lon="7.98869"><ele>215.0</ele><time>2026-04-18T13:14:40.371Z</time></trkpt><trkpt lat="45.0044833" lon="7.9885033"><ele>213.5</ele><time>2026-04-18T13:14:41.37Z</time></trkpt><trkpt lat="45.0045533" lon="7.988325"><ele>212.0</ele><time>2026-04-18T13:14:42.371Z</time></trkpt><trkpt lat="45.0046283" lon="7.9881433"><ele>210.5</ele><time>2026-04-18T13:14:43.371Z</time></trkpt><trkpt lat="45.0047017" lon="7.9879667"><ele>209.0</ele><time>2026-04-18T13:14:44.371Z</time></trkpt><trkpt lat="45.0047817" lon="7.9878017"><ele>209.0</ele><time>2026-04-18T13:14:45.37Z</time></trkpt><trkpt lat="45.0048783" lon="7.9876467"><ele>209.0</ele><time>2026-04-18T13:14:46.371Z</time></trkpt><trkpt lat="45.004995" lon="7.987515"><ele>209.0</ele><time>2026-04-18T13:14:47.37Z</time></trkpt><trkpt lat="45.00512" lon="7.9874083"><ele>209.0</ele><time>2026-04-18T13:14:48.371Z</time></trkpt><trkpt lat="45.0052467" lon="7.987305"><ele>212.0</ele><time>2026-04-18T13:14:49.371Z</time></trkpt><trkpt lat="45.0053817" lon="7.9872033"><ele>215.0</ele><time>2026-04-18T13:14:50.371Z</time></trkpt><trkpt lat="45.0055267" lon="7.9870867"><ele>218.0</ele><time>2026-04-18T13:14:51.371Z</time></trkpt><trkpt lat="45.005655" lon="7.9869633"><ele>218.0</ele><time>2026-04-18T13:14:52.37Z</time></trkpt><trkpt lat="45.0057833" lon="7.986845"><ele>218.0</ele><time>2026-04-18T13:14:53.371Z</time></trkpt><trkpt lat="45.0059183" lon="7.986735"><ele>218.0</ele><time>2026-04-18T13:14:54.371Z</time></trkpt><trkpt lat="45.0060583" lon="7.98663"><ele>218.66666666666669</ele><time>2026-04-18T13:14:55.371Z</time></trkpt><trkpt lat="45.0062067" lon="7.9865567"><ele>219.33333333333331</ele><time>2026-04-18T13:14:56.371Z</time></trkpt><trkpt lat="45.00636" lon="7.9864867"><ele>220.0</ele><time>2026-04-18T13:14:57.37Z</time></trkpt><trkpt lat="45.0065067" lon="7.9864333"><ele>220.0</ele><time>2026-04-18T13:14:58.37Z</time></trkpt><trkpt lat="45.00665" lon="7.9863867"><ele>220.0</ele><time>2026-04-18T13:14:59.37Z</time></trkpt><trkpt lat="45.0068" lon="7.9863483"><ele>220.0</ele><time>2026-04-18T13:15:00.371Z</time></trkpt><trkpt lat="45.0069583" lon="7.986335"><ele>221.0</ele><time>2026-04-18T13:15:01.371Z</time></trkpt><trkpt lat="45.0071217" lon="7.9863333"><ele>222.0</ele><time>2026-04-18T13:15:02.371Z</time></trkpt><trkpt lat="45.0072617" lon="7.9863183"><ele>223.0</ele><time>2026-04-18T13:15:03.371Z</time></trkpt><trkpt lat="45.0074333" lon="7.9863017"><ele>223.33333333333331</ele><time>2026-04-18T13:15:04.371Z</time></trkpt><trkpt lat="45.0076" lon="7.9862833"><ele>223.66666666666669</ele><time>2026-04-18T13:15:05.371Z</time></trkpt><trkpt lat="45.0077633" lon="7.9862567"><ele>224.0</ele><time>2026-04-18T13:15:06.371Z</time></trkpt><trkpt lat="45.007915" lon="7.9862233"><ele>224.0</ele><time>2026-04-18T13:15:07.37Z</time></trkpt><trkpt lat="45.00808" lon="7.9861933"><ele>224.0</ele><time>2026-04-18T13:15:08.371Z</time></trkpt><trkpt lat="45.008245" lon="7.9861517"><ele>224.0</ele><time>2026-04-18T13:15:09.371Z</time></trkpt><trkpt lat="45.0084117" lon="7.9861067"><ele>225.0</ele><time>2026-04-18T13:15:10.371Z</time></trkpt><trkpt lat="45.00858" lon="7.9860683"><ele>226.0</ele><time>2026-04-18T13:15:11.371Z</time></trkpt><trkpt lat="45.00874" lon="7.9860233"><ele>227.0</ele><time>2026-04-18T13:15:12.371Z</time></trkpt><trkpt lat="45.0089067" lon="7.9859917"><ele>227.0</ele><time>2026-04-18T13:15:13.371Z</time></trkpt><trkpt lat="45.0090767" lon="7.9859833"><ele>227.0</ele><time>2026-04-18T13:15:14.37Z</time></trkpt><trkpt lat="45.0092317" lon="7.9860067"><ele>227.0</ele><time>2026-04-18T13:15:15.371Z</time></trkpt><trkpt lat="45.0093867" lon="7.98605"><ele>226.5</ele><time>2026-04-18T13:15:16.371Z</time></trkpt><trkpt lat="45.0095333" lon="7.9861083"><ele>226.0</ele><time>2026-04-18T13:15:17.371Z</time></trkpt><trkpt lat="45.0096733" lon="7.98617"><ele>225.5</ele><time>2026-04-18T13:15:18.371Z</time></trkpt><trkpt lat="45.00981" lon="7.9862233"><ele>225.0</ele><time>2026-04-18T13:15:19.371Z</time></trkpt><trkpt lat="45.00993" lon="7.9862667"><ele>223.0</ele><time>2026-04-18T13:15:20.371Z</time></trkpt><trkpt lat="45.010055" lon="7.9863067"><ele>221.0</ele><time>2026-04-18T13:15:21.37Z</time></trkpt><trkpt lat="45.0101683" lon="7.98634"><ele>219.0</ele><time>2026-04-18T13:15:22.371Z</time></trkpt><trkpt lat="45.0102767" lon="7.9863567"><ele>217.0</ele><time>2026-04-18T13:15:23.371Z</time></trkpt><trkpt lat="45.010365" lon="7.9864017"><ele>215.0</ele><time>2026-04-18T13:15:24.37Z</time></trkpt><trkpt lat="45.0104367" lon="7.986485"><ele>215.0</ele><time>2026-04-18T13:15:25.371Z</time></trkpt><trkpt lat="45.0104933" lon="7.98659"><ele>215.0</ele><time>2026-04-18T13:15:26.371Z</time></trkpt><trkpt lat="45.0105317" lon="7.9867233"><ele>215.0</ele><time>2026-04-18T13:15:27.371Z</time></trkpt><trkpt lat="45.0105483" lon="7.9868767"><ele>215.0</ele><time>2026-04-18T13:15:28.371Z</time></trkpt><trkpt lat="45.0105483" lon="7.9870417"><ele>215.0</ele><time>2026-04-18T13:15:29.371Z</time></trkpt><trkpt lat="45.0105317" lon="7.9872083"><ele>215.75</ele><time>2026-04-18T13:15:30.371Z</time></trkpt><trkpt lat="45.0105167" lon="7.9873967"><ele>216.5</ele><time>2026-04-18T13:15:31.371Z</time></trkpt><trkpt lat="45.010495" lon="7.987605"><ele>217.25</ele><time>2026-04-18T13:15:32.37Z</time></trkpt><trkpt lat="45.010465" lon="7.9878083"><ele>218.0</ele><time>2026-04-18T13:15:33.371Z</time></trkpt><trkpt lat="45.01043" lon="7.9880183"><ele>219.66666666666669</ele><time>2026-04-18T13:15:34.37Z</time></trkpt><trkpt lat="45.0103967" lon="7.98823"><ele>221.33333333333331</ele><time>2026-04-18T13:15:35.371Z</time></trkpt><trkpt lat="45.010375" lon="7.9884583"><ele>223.0</ele><time>2026-04-18T13:15:36.37Z</time></trkpt><trkpt lat="45.0103483" lon="7.9886817"><ele>224.75</ele><time>2026-04-18T13:15:37.37Z</time></trkpt><trkpt lat="45.0103217" lon="7.9888983"><ele>226.5</ele><time>2026-04-18T13:15:38.371Z</time></trkpt><trkpt lat="45.0102783" lon="7.9890967"><ele>228.25</ele><time>2026-04-18T13:15:39.37Z</time></trkpt><trkpt lat="45.0102" lon="7.9892483"><ele>230.0</ele><time>2026-04-18T13:15:40.371Z</time></trkpt><trkpt lat="45.0100783" lon="7.9893633"><ele>234.4</ele><time>2026-04-18T13:15:41.371Z</time></trkpt><trkpt lat="45.0099467" lon="7.9894283"><ele>238.8</ele><time>2026-04-18T13:15:42.37Z</time></trkpt><trkpt lat="45.00985" lon="7.9894833"><ele>243.2</ele><time>2026-04-18T13:15:43.371Z</time></trkpt><trkpt lat="45.0097733" lon="7.9895633"><ele>247.6</ele><time>2026-04-18T13:15:44.371Z</time></trkpt><trkpt lat="45.0097367" lon="7.9896717"><ele>252.0</ele><time>2026-04-18T13:15:45.371Z</time></trkpt><trkpt lat="45.0097417" lon="7.9897683"><ele>252.0</ele><time>2026-04-18T13:15:46.37Z</time></trkpt><trkpt lat="45.0097733" lon="7.989855"><ele>252.0</ele><time>2026-04-18T13:15:47.37Z</time></trkpt><trkpt lat="45.0098417" lon="7.9898967"><ele>252.0</ele><time>2026-04-18T13:15:48.37Z</time></trkpt><trkpt lat="45.009955" lon="7.989915"><ele>252.0</ele><time>2026-04-18T13:15:49.371Z</time></trkpt><trkpt lat="45.010095" lon="7.98993"><ele>252.0</ele><time>2026-04-18T13:15:50.37Z</time></trkpt><trkpt lat="45.0102583" lon="7.9899317"><ele>251.0</ele><time>2026-04-18T13:15:51.371Z</time></trkpt><trkpt lat="45.0104167" lon="7.9899367"><ele>250.0</ele><time>2026-04-18T13:15:52.371Z</time></trkpt><trkpt lat="45.0105617" lon="7.9899483"><ele>249.0</ele><time>2026-04-18T13:15:53.371Z</time></trkpt><trkpt lat="45.0106983" lon="7.9899683"><ele>248.0</ele><time>2026-04-18T13:15:54.371Z</time></trkpt><trkpt lat="45.0108283" lon="7.9899817"><ele>249.0</ele><time>2026-04-18T13:15:55.371Z</time></trkpt><trkpt lat="45.0109867" lon="7.9900333"><ele>250.0</ele><time>2026-04-18T13:15:56.371Z</time></trkpt><trkpt lat="45.01111" lon="7.9900317"><ele>251.0</ele><time>2026-04-18T13:15:57.371Z</time></trkpt><trkpt lat="45.01123" lon="7.9900317"><ele>252.0</ele><time>2026-04-18T13:15:58.37Z</time></trkpt><trkpt lat="45.0113567" lon="7.9900483"><ele>252.0</ele><time>2026-04-18T13:15:59.37Z</time></trkpt><trkpt lat="45.0114883" lon="7.9900683"><ele>252.0</ele><time>2026-04-18T13:16:00.369Z</time></trkpt><trkpt lat="45.0116183" lon="7.9900883"><ele>252.0</ele><time>2026-04-18T13:16:01.37Z</time></trkpt><trkpt lat="45.0117517" lon="7.9901217"><ele>252.0</ele><time>2026-04-18T13:16:02.369Z</time></trkpt><trkpt lat="45.0118833" lon="7.990175"><ele>253.0</ele><time>2026-04-18T13:16:03.37Z</time></trkpt><trkpt lat="45.0120217" lon="7.990225"><ele>254.0</ele><time>2026-04-18T13:16:04.369Z</time></trkpt><trkpt lat="45.0121583" lon="7.990275"><ele>255.0</ele><time>2026-04-18T13:16:05.37Z</time></trkpt><trkpt lat="45.01229" lon="7.99034"><ele>256.0</ele><time>2026-04-18T13:16:06.37Z</time></trkpt><trkpt lat="45.0124183" lon="7.9904283"><ele>256.66666666666663</ele><time>2026-04-18T13:16:07.37Z</time></trkpt><trkpt lat="45.0125317" lon="7.9905617"><ele>257.3333333333333</ele><time>2026-04-18T13:16:08.37Z</time></trkpt><trkpt lat="45.0126333" lon="7.99072"><ele>258.0</ele><time>2026-04-18T13:16:09.37Z</time></trkpt><trkpt lat="45.0127267" lon="7.9909017"><ele>260.0</ele><time>2026-04-18T13:16:10.37Z</time></trkpt><trkpt lat="45.012815" lon="7.9910917"><ele>262.0</ele><time>2026-04-18T13:16:11.37Z</time></trkpt><trkpt lat="45.0129033" lon="7.99128"><ele>264.0</ele><time>2026-04-18T13:16:12.369Z</time></trkpt><trkpt lat="45.0129983" lon="7.99147"><ele>264.0</ele><time>2026-04-18T13:16:13.37Z</time></trkpt><trkpt lat="45.0130883" lon="7.9916517"><ele>264.0</ele><time>2026-04-18T13:16:14.369Z</time></trkpt><trkpt lat="45.0131967" lon="7.99181"><ele>264.0</ele><time>2026-04-18T13:16:15.369Z</time></trkpt><trkpt lat="45.0133167" lon="7.9919483"><ele>263.3333333333333</ele><time>2026-04-18T13:16:16.37Z</time></trkpt><trkpt lat="45.0134433" lon="7.992065"><ele>262.66666666666663</ele><time>2026-04-18T13:16:17.37Z</time></trkpt><trkpt lat="45.0135783" lon="7.9921567"><ele>262.0</ele><time>2026-04-18T13:16:18.37Z</time></trkpt><trkpt lat="45.013735" lon="7.9922367"><ele>262.0</ele><time>2026-04-18T13:16:19.369Z</time></trkpt><trkpt lat="45.01389" lon="7.9923067"><ele>262.0</ele><time>2026-04-18T13:16:20.37Z</time></trkpt><trkpt lat="45.0140533" lon="7.9923633"><ele>262.0</ele><time>2026-04-18T13:16:21.37Z</time></trkpt><trkpt lat="45.014215" lon="7.9924"><ele>261.66666666666663</ele><time>2026-04-18T13:16:22.369Z</time></trkpt><trkpt lat="45.01437" lon="7.9924417"><ele>261.3333333333333</ele><time>2026-04-18T13:16:23.37Z</time></trkpt><trkpt lat="45.0145317" lon="7.9924933"><ele>261.0</ele><time>2026-04-18T13:16:24.37Z</time></trkpt><trkpt lat="45.0146917" lon="7.9925483"><ele>261.0</ele><time>2026-04-18T13:16:25.37Z</time></trkpt><trkpt lat="45.0148467" lon="7.9925933"><ele>261.0</ele><time>2026-04-18T13:16:26.37Z</time></trkpt><trkpt lat="45.0149983" lon="7.9926467"><ele>261.0</ele><time>2026-04-18T13:16:27.369Z</time></trkpt><trkpt lat="45.0151517" lon="7.99269"><ele>262.6666666666667</ele><time>2026-04-18T13:16:28.37Z</time></trkpt><trkpt lat="45.01531" lon="7.9927167"><ele>264.33333333333337</ele><time>2026-04-18T13:16:29.37Z</time></trkpt><trkpt lat="45.0154683" lon="7.992745"><ele>266.0</ele><time>2026-04-18T13:16:30.369Z</time></trkpt><trkpt lat="45.0156233" lon="7.992755"><ele>266.0</ele><time>2026-04-18T13:16:31.37Z</time></trkpt><trkpt lat="45.0157767" lon="7.992745"><ele>266.0</ele><time>2026-04-18T13:16:32.37Z</time></trkpt><trkpt lat="45.0159283" lon="7.99274"><ele>266.0</ele><time>2026-04-18T13:16:33.369Z</time></trkpt><trkpt lat="45.0160917" lon="7.9927067"><ele>267.33333333333337</ele><time>2026-04-18T13:16:34.369Z</time></trkpt><trkpt lat="45.0162583" lon="7.9926517"><ele>268.6666666666667</ele><time>2026-04-18T13:16:35.37Z</time></trkpt><trkpt lat="45.0164133" lon="7.9925617"><ele>270.0</ele><time>2026-04-18T13:16:36.369Z</time></trkpt><trkpt lat="45.0165733" lon="7.99246"><ele>270.0</ele><time>2026-04-18T13:16:37.37Z</time></trkpt><trkpt lat="45.01672" lon="7.9923517"><ele>270.0</ele><time>2026-04-18T13:16:38.37Z</time></trkpt><trkpt lat="45.0168717" lon="7.9922317"><ele>270.0</ele><time>2026-04-18T13:16:39.37Z</time></trkpt><trkpt lat="45.0170167" lon="7.9921033"><ele>270.0</ele><time>2026-04-18T13:16:40.37Z</time></trkpt><trkpt lat="45.017155" lon="7.991985"><ele>270.0</ele><time>2026-04-18T13:16:41.37Z</time></trkpt><trkpt lat="45.0172933" lon="7.9918633"><ele>270.0</ele><time>2026-04-18T13:16:42.37Z</time></trkpt><trkpt lat="45.0174317" lon="7.9917383"><ele>268.6666666666667</ele><time>2026-04-18T13:16:43.37Z</time></trkpt><trkpt lat="45.0175583" lon="7.9916017"><ele>267.33333333333337</ele><time>2026-04-18T13:16:44.37Z</time></trkpt><trkpt lat="45.0176717" lon="7.9914617"><ele>266.0</ele><time>2026-04-18T13:16:45.37Z</time></trkpt><trkpt lat="45.01777" lon="7.99129"><ele>266.0</ele><time>2026-04-18T13:16:46.37Z</time></trkpt><trkpt lat="45.0178617" lon="7.9911017"><ele>266.0</ele><time>2026-04-18T13:16:47.37Z</time></trkpt><trkpt lat="45.0179417" lon="7.9909133"><ele>266.0</ele><time>2026-04-18T13:16:48.369Z</time></trkpt><trkpt lat="45.01802" lon="7.9907267"><ele>265.33333333333337</ele><time>2026-04-18T13:16:49.369Z</time></trkpt><trkpt lat="45.0180983" lon="7.990535"><ele>264.6666666666667</ele><time>2026-04-18T13:16:50.37Z</time></trkpt><trkpt lat="45.0181817" lon="7.9903483"><ele>264.0</ele><time>2026-04-18T13:16:51.37Z</time></trkpt><trkpt lat="45.0182617" lon="7.99015"><ele>266.0</ele><time>2026-04-18T13:16:52.37Z</time></trkpt><trkpt lat="45.0183333" lon="7.98996"><ele>268.0</ele><time>2026-04-18T13:16:53.37Z</time></trkpt><trkpt lat="45.0183967" lon="7.9897517"><ele>270.0</ele><time>2026-04-18T13:16:54.37Z</time></trkpt><trkpt lat="45.0184633" lon="7.9895583"><ele>270.0</ele><time>2026-04-18T13:16:55.37Z</time></trkpt><trkpt lat="45.01853" lon="7.989365"><ele>270.0</ele><time>2026-04-18T13:16:56.37Z</time></trkpt><trkpt lat="45.0185933" lon="7.9891667"><ele>270.0</ele><time>2026-04-18T13:16:57.37Z</time></trkpt><trkpt lat="45.01866" lon="7.9889667"><ele>271.6666666666667</ele><time>2026-04-18T13:16:58.37Z</time></trkpt><trkpt lat="45.01873" lon="7.9887617"><ele>273.33333333333337</ele><time>2026-04-18T13:16:59.37Z</time></trkpt><trkpt lat="45.0188033" lon="7.9885583"><ele>275.0</ele><time>2026-04-18T13:17:00.369Z</time></trkpt><trkpt lat="45.01888" lon="7.9883617"><ele>274.6666666666667</ele><time>2026-04-18T13:17:01.37Z</time></trkpt><trkpt lat="45.0189833" lon="7.988185"><ele>274.3333333333333</ele><time>2026-04-18T13:17:02.37Z</time></trkpt><trkpt lat="45.019105" lon="7.988025"><ele>274.0</ele><time>2026-04-18T13:17:03.37Z</time></trkpt><trkpt lat="45.0192367" lon="7.987905"><ele>274.0</ele><time>2026-04-18T13:17:04.37Z</time></trkpt><trkpt lat="45.01937" lon="7.987785"><ele>274.0</ele><time>2026-04-18T13:17:05.369Z</time></trkpt><trkpt lat="45.0195133" lon="7.9877033"><ele>274.0</ele><time>2026-04-18T13:17:06.37Z</time></trkpt><trkpt lat="45.01966" lon="7.9876733"><ele>274.0</ele><time>2026-04-18T13:17:07.37Z</time></trkpt><trkpt lat="45.0198067" lon="7.9876767"><ele>274.0</ele><time>2026-04-18T13:17:08.37Z</time></trkpt><trkpt lat="45.0199667" lon="7.9877167"><ele>274.0</ele><time>2026-04-18T13:17:09.37Z</time></trkpt><trkpt lat="45.0201017" lon="7.98778"><ele>274.3333333333333</ele><time>2026-04-18T13:17:10.37Z</time></trkpt><trkpt lat="45.020235" lon="7.9878517"><ele>274.6666666666667</ele><time>2026-04-18T13:17:11.37Z</time></trkpt><trkpt lat="45.020385" lon="7.9879267"><ele>275.0</ele><time>2026-04-18T13:17:12.37Z</time></trkpt><trkpt lat="45.0205383" lon="7.9879817"><ele>275.0</ele><time>2026-04-18T13:17:13.37Z</time></trkpt><trkpt lat="45.0206883" lon="7.9880567"><ele>275.0</ele><time>2026-04-18T13:17:14.37Z</time></trkpt><trkpt lat="45.0208317" lon="7.9881267"><ele>275.0</ele><time>2026-04-18T13:17:15.369Z</time></trkpt><trkpt lat="45.0209783" lon="7.9881733"><ele>274.6666666666667</ele><time>2026-04-18T13:17:16.37Z</time></trkpt><trkpt lat="45.0211217" lon="7.9881633"><ele>274.3333333333333</ele><time>2026-04-18T13:17:17.369Z</time></trkpt><trkpt lat="45.0212833" lon="7.9881183"><ele>274.0</ele><time>2026-04-18T13:17:18.37Z</time></trkpt><trkpt lat="45.021435" lon="7.9880417"><ele>274.0</ele><time>2026-04-18T13:17:19.37Z</time></trkpt><trkpt lat="45.021595" lon="7.98797"><ele>274.0</ele><time>2026-04-18T13:17:20.369Z</time></trkpt><trkpt lat="45.0217533" lon="7.9878967"><ele>274.0</ele><time>2026-04-18T13:17:21.37Z</time></trkpt><trkpt lat="45.0219033" lon="7.9878333"><ele>272.0</ele><time>2026-04-18T13:17:22.37Z</time></trkpt><trkpt lat="45.0220367" lon="7.9877867"><ele>270.0</ele><time>2026-04-18T13:17:23.369Z</time></trkpt><trkpt lat="45.0221683" lon="7.987775"><ele>268.0</ele><time>2026-04-18T13:17:24.369Z</time></trkpt><trkpt lat="45.0223067" lon="7.9878267"><ele>266.0</ele><time>2026-04-18T13:17:25.37Z</time></trkpt><trkpt lat="45.02244" lon="7.9879017"><ele>263.6666666666667</ele><time>2026-04-18T13:17:26.369Z</time></trkpt><trkpt lat="45.02258" lon="7.9879867"><ele>261.3333333333333</ele><time>2026-04-18T13:17:27.37Z</time></trkpt><trkpt lat="45.022725" lon="7.988075"><ele>259.0</ele><time>2026-04-18T13:17:28.369Z</time></trkpt><trkpt lat="45.0228667" lon="7.9881633"><ele>259.0</ele><time>2026-04-18T13:17:29.369Z</time></trkpt><trkpt lat="45.0230217" lon="7.9882583"><ele>259.0</ele><time>2026-04-18T13:17:30.369Z</time></trkpt><trkpt lat="45.0231667" lon="7.988345"><ele>259.0</ele><time>2026-04-18T13:17:31.37Z</time></trkpt><trkpt lat="45.0233217" lon="7.98843"><ele>256.0</ele><time>2026-04-18T13:17:32.37Z</time></trkpt><trkpt lat="45.0234767" lon="7.9885183"><ele>253.0</ele><time>2026-04-18T13:17:33.37Z</time></trkpt><trkpt lat="45.02363" lon="7.9886033"><ele>250.0</ele><time>2026-04-18T13:17:34.37Z</time></trkpt><trkpt lat="45.0237783" lon="7.988685"><ele>250.0</ele><time>2026-04-18T13:17:35.37Z</time></trkpt><trkpt lat="45.0239133" lon="7.98879"><ele>250.0</ele><time>2026-04-18T13:17:36.37Z</time></trkpt><trkpt lat="45.0240417" lon="7.9889083"><ele>250.0</ele><time>2026-04-18T13:17:37.37Z</time></trkpt><trkpt lat="45.0241483" lon="7.9890283"><ele>250.0</ele><time>2026-04-18T13:17:38.369Z</time></trkpt><trkpt lat="45.0242483" lon="7.9891433"><ele>251.25</ele><time>2026-04-18T13:17:39.37Z</time></trkpt><trkpt lat="45.02434" lon="7.9892167"><ele>252.5</ele><time>2026-04-18T13:17:40.37Z</time></trkpt><trkpt lat="45.0244483" lon="7.9892433"><ele>253.75</ele><time>2026-04-18T13:17:41.37Z</time></trkpt><trkpt lat="45.0245633" lon="7.989215"><ele>255.0</ele><time>2026-04-18T13:17:42.37Z</time></trkpt><trkpt lat="45.024675" lon="7.9891467"><ele>257.75</ele><time>2026-04-18T13:17:43.37Z</time></trkpt><trkpt lat="45.0247917" lon="7.989065"><ele>260.5</ele><time>2026-04-18T13:17:44.37Z</time></trkpt><trkpt lat="45.0249083" lon="7.9889833"><ele>263.25</ele><time>2026-04-18T13:17:45.37Z</time></trkpt><trkpt lat="45.0250317" lon="7.98889"><ele>266.0</ele><time>2026-04-18T13:17:46.37Z</time></trkpt><trkpt lat="45.0251467" lon="7.9887817"><ele>267.33333333333337</ele><time>2026-04-18T13:17:47.37Z</time></trkpt><trkpt lat="45.0252567" lon="7.9886517"><ele>268.6666666666667</ele><time>2026-04-18T13:17:48.369Z</time></trkpt><trkpt lat="45.0253767" lon="7.9884933"><ele>270.0</ele><time>2026-04-18T13:17:49.37Z</time></trkpt><trkpt lat="45.02547" lon="7.9883217"><ele>273.0</ele><time>2026-04-18T13:17:50.369Z</time></trkpt><trkpt lat="45.0255683" lon="7.9881167"><ele>276.0</ele><time>2026-04-18T13:17:51.37Z</time></trkpt><trkpt lat="45.0256717" lon="7.98792"><ele>279.0</ele><time>2026-04-18T13:17:52.37Z</time></trkpt><trkpt lat="45.0257817" lon="7.98772"><ele>276.6666666666667</ele><time>2026-04-18T13:17:53.369Z</time></trkpt><trkpt lat="45.0259117" lon="7.9875517"><ele>274.33333333333337</ele><time>2026-04-18T13:17:54.37Z</time></trkpt><trkpt lat="45.0260283" lon="7.98741"><ele>272.0</ele><time>2026-04-18T13:17:55.37Z</time></trkpt><trkpt lat="45.026175" lon="7.9873083"><ele>272.0</ele><time>2026-04-18T13:17:56.37Z</time></trkpt><trkpt lat="45.0263267" lon="7.9872"><ele>272.0</ele><time>2026-04-18T13:17:57.37Z</time></trkpt><trkpt lat="45.0264833" lon="7.98713"><ele>272.0</ele><time>2026-04-18T13:17:58.37Z</time></trkpt><trkpt lat="45.0266367" lon="7.9870567"><ele>269.6666666666667</ele><time>2026-04-18T13:17:59.37Z</time></trkpt><trkpt lat="45.02678" lon="7.9869833"><ele>267.3333333333333</ele><time>2026-04-18T13:18:00.37Z</time></trkpt><trkpt lat="45.02693" lon="7.98692"><ele>265.0</ele><time>2026-04-18T13:18:01.37Z</time></trkpt><trkpt lat="45.027075" lon="7.9868767"><ele>265.0</ele><time>2026-04-18T13:18:02.37Z</time></trkpt><trkpt lat="45.0272267" lon="7.9868717"><ele>265.0</ele><time>2026-04-18T13:18:03.369Z</time></trkpt><trkpt lat="45.0273867" lon="7.9869133"><ele>265.0</ele><time>2026-04-18T13:18:04.37Z</time></trkpt><trkpt lat="45.0275383" lon="7.9869583"><ele>265.0</ele><time>2026-04-18T13:18:05.37Z</time></trkpt><trkpt lat="45.027685" lon="7.9870167"><ele>265.0</ele><time>2026-04-18T13:18:06.37Z</time></trkpt><trkpt lat="45.02783" lon="7.9870783"><ele>265.0</ele><time>2026-04-18T13:18:07.37Z</time></trkpt><trkpt lat="45.0279733" lon="7.987145"><ele>265.0</ele><time>2026-04-18T13:18:08.37Z</time></trkpt><trkpt lat="45.0281217" lon="7.9872167"><ele>265.0</ele><time>2026-04-18T13:18:09.37Z</time></trkpt><trkpt lat="45.0282767" lon="7.98728"><ele>265.0</ele><time>2026-04-18T13:18:10.37Z</time></trkpt><trkpt lat="45.0284317" lon="7.987305"><ele>267.0</ele><time>2026-04-18T13:18:11.369Z</time></trkpt><trkpt lat="45.02858" lon="7.98731"><ele>269.0</ele><time>2026-04-18T13:18:12.369Z</time></trkpt><trkpt lat="45.0287367" lon="7.9872983"><ele>271.0</ele><time>2026-04-18T13:18:13.37Z</time></trkpt><trkpt lat="45.0288967" lon="7.9872783"><ele>271.0</ele><time>2026-04-18T13:18:14.37Z</time></trkpt><trkpt lat="45.0290533" lon="7.9872467"><ele>271.0</ele><time>2026-04-18T13:18:15.37Z</time></trkpt><trkpt lat="45.02921" lon="7.9871983"><ele>271.0</ele><time>2026-04-18T13:18:16.369Z</time></trkpt><trkpt lat="45.0293683" lon="7.9871283"><ele>270.66666666666663</ele><time>2026-04-18T13:18:17.37Z</time></trkpt><trkpt lat="45.0295183" lon="7.98704"><ele>270.3333333333333</ele><time>2026-04-18T13:18:18.37Z</time></trkpt><trkpt lat="45.029665" lon="7.9869567"><ele>270.0</ele><time>2026-04-18T13:18:19.37Z</time></trkpt><trkpt lat="45.029805" lon="7.986855"><ele>270.0</ele><time>2026-04-18T13:18:20.37Z</time></trkpt><trkpt lat="45.029945" lon="7.9867567"><ele>270.0</ele><time>2026-04-18T13:18:21.37Z</time></trkpt><trkpt lat="45.0300883" lon="7.9866633"><ele>270.0</ele><time>2026-04-18T13:18:22.37Z</time></trkpt><trkpt lat="45.0302283" lon="7.9865833"><ele>271.3333333333333</ele><time>2026-04-18T13:18:23.37Z</time></trkpt><trkpt lat="45.0303733" lon="7.9865033"><ele>272.66666666666663</ele><time>2026-04-18T13:18:24.37Z</time></trkpt><trkpt lat="45.030495" lon="7.9863917"><ele>274.0</ele><time>2026-04-18T13:18:25.369Z</time></trkpt><trkpt lat="45.030605" lon="7.98623"><ele>274.0</ele><time>2026-04-18T13:18:26.37Z</time></trkpt><trkpt lat="45.0307067" lon="7.9860417"><ele>274.0</ele><time>2026-04-18T13:18:27.37Z</time></trkpt><trkpt lat="45.0308117" lon="7.9858567"><ele>274.0</ele><time>2026-04-18T13:18:28.369Z</time></trkpt><trkpt lat="45.03094" lon="7.98568"><ele>273.0</ele><time>2026-04-18T13:18:29.369Z</time></trkpt><trkpt lat="45.0310833" lon="7.9855333"><ele>272.0</ele><time>2026-04-18T13:18:30.37Z</time></trkpt><trkpt lat="45.0312283" lon="7.9854"><ele>271.0</ele><time>2026-04-18T13:18:31.37Z</time></trkpt><trkpt lat="45.031375" lon="7.985275"><ele>271.0</ele><time>2026-04-18T13:18:32.37Z</time></trkpt><trkpt lat="45.0315183" lon="7.9851517"><ele>271.0</ele><time>2026-04-18T13:18:33.37Z</time></trkpt><trkpt lat="45.0316533" lon="7.9850367"><ele>271.0</ele><time>2026-04-18T13:18:34.369Z</time></trkpt><trkpt lat="45.03178" lon="7.98492"><ele>271.3333333333333</ele><time>2026-04-18T13:18:35.37Z</time></trkpt><trkpt lat="45.0319017" lon="7.9847883"><ele>271.6666666666667</ele><time>2026-04-18T13:18:36.369Z</time></trkpt><trkpt lat="45.03203" lon="7.9846783"><ele>272.0</ele><time>2026-04-18T13:18:37.37Z</time></trkpt><trkpt lat="45.0321783" lon="7.984595"><ele>272.0</ele><time>2026-04-18T13:18:38.37Z</time></trkpt><trkpt lat="45.032335" lon="7.9845583"><ele>272.0</ele><time>2026-04-18T13:18:39.369Z</time></trkpt><trkpt lat="45.0324967" lon="7.984535"><ele>272.0</ele><time>2026-04-18T13:18:40.369Z</time></trkpt><trkpt lat="45.0326567" lon="7.98452"><ele>272.0</ele><time>2026-04-18T13:18:41.37Z</time></trkpt><trkpt lat="45.0328067" lon="7.9845233"><ele>272.0</ele><time>2026-04-18T13:18:42.37Z</time></trkpt><trkpt lat="45.032955" lon="7.98457"><ele>272.0</ele><time>2026-04-18T13:18:43.369Z</time></trkpt><trkpt lat="45.033095" lon="7.9846783"><ele>272.0</ele><time>2026-04-18T13:18:44.369Z</time></trkpt><trkpt lat="45.0332217" lon="7.9848133"><ele>272.0</ele><time>2026-04-18T13:18:45.37Z</time></trkpt><trkpt lat="45.033355" lon="7.984935"><ele>272.0</ele><time>2026-04-18T13:18:46.37Z</time></trkpt><trkpt lat="45.0334917" lon="7.9850333"><ele>272.6666666666667</ele><time>2026-04-18T13:18:47.37Z</time></trkpt><trkpt lat="45.03363" lon="7.9851083"><ele>273.3333333333333</ele><time>2026-04-18T13:18:48.369Z</time></trkpt><trkpt lat="45.0337817" lon="7.9851433"><ele>274.0</ele><time>2026-04-18T13:18:49.37Z</time></trkpt><trkpt lat="45.0339417" lon="7.9851683"><ele>274.0</ele><time>2026-04-18T13:18:50.369Z</time></trkpt><trkpt lat="45.0340983" lon="7.9851633"><ele>274.0</ele><time>2026-04-18T13:18:51.37Z</time></trkpt><trkpt lat="45.0342483" lon="7.9851033"><ele>274.0</ele><time>2026-04-18T13:18:52.37Z</time></trkpt><trkpt lat="45.0343983" lon="7.985005"><ele>277.3333333333333</ele><time>2026-04-18T13:18:53.37Z</time></trkpt><trkpt lat="45.0345417" lon="7.9848883"><ele>280.6666666666667</ele><time>2026-04-18T13:18:54.369Z</time></trkpt><trkpt lat="45.0346967" lon="7.9848033"><ele>284.0</ele><time>2026-04-18T13:18:55.37Z</time></trkpt><trkpt lat="45.0348483" lon="7.984785"><ele>283.0</ele><time>2026-04-18T13:18:56.37Z</time></trkpt><trkpt lat="45.03502" lon="7.984845"><ele>282.0</ele><time>2026-04-18T13:18:57.37Z</time></trkpt><trkpt lat="45.0351767" lon="7.9849333"><ele>281.0</ele><time>2026-04-18T13:18:58.369Z</time></trkpt><trkpt lat="45.035325" lon="7.9849967"><ele>280.25</ele><time>2026-04-18T13:18:59.369Z</time></trkpt><trkpt lat="45.0354583" lon="7.98507"><ele>279.5</ele><time>2026-04-18T13:19:00.37Z</time></trkpt><trkpt lat="45.0355667" lon="7.9851933"><ele>278.75</ele><time>2026-04-18T13:19:01.37Z</time></trkpt><trkpt lat="45.0356567" lon="7.98535"><ele>278.0</ele><time>2026-04-18T13:19:02.37Z</time></trkpt><trkpt lat="45.0357433" lon="7.9854967"><ele>280.0</ele><time>2026-04-18T13:19:03.37Z</time></trkpt><trkpt lat="45.0358467" lon="7.98561"><ele>282.0</ele><time>2026-04-18T13:19:04.37Z</time></trkpt><trkpt lat="45.03598" lon="7.9856967"><ele>284.0</ele><time>2026-04-18T13:19:05.37Z</time></trkpt><trkpt lat="45.0361233" lon="7.9857367"><ele>286.0</ele><time>2026-04-18T13:19:06.37Z</time></trkpt><trkpt lat="45.0362733" lon="7.9857367"><ele>286.0</ele><time>2026-04-18T13:19:07.369Z</time></trkpt><trkpt lat="45.03643" lon="7.9857317"><ele>286.0</ele><time>2026-04-18T13:19:08.369Z</time></trkpt><trkpt lat="45.0365733" lon="7.9857283"><ele>286.0</ele><time>2026-04-18T13:19:09.37Z</time></trkpt><trkpt lat="45.0367217" lon="7.9857183"><ele>286.0</ele><time>2026-04-18T13:19:10.37Z</time></trkpt><trkpt lat="45.0368583" lon="7.985725"><ele>287.5</ele><time>2026-04-18T13:19:11.369Z</time></trkpt><trkpt lat="45.0369883" lon="7.9856833"><ele>289.0</ele><time>2026-04-18T13:19:12.37Z</time></trkpt><trkpt lat="45.0371117" lon="7.98559"><ele>290.5</ele><time>2026-04-18T13:19:13.369Z</time></trkpt><trkpt lat="45.03723" lon="7.9854483"><ele>292.0</ele><time>2026-04-18T13:19:14.37Z</time></trkpt><trkpt lat="45.037345" lon="7.98532"><ele>293.25</ele><time>2026-04-18T13:19:15.37Z</time></trkpt><trkpt lat="45.03747" lon="7.9852033"><ele>294.5</ele><time>2026-04-18T13:19:16.369Z</time></trkpt><trkpt lat="45.037605" lon="7.985125"><ele>295.75</ele><time>2026-04-18T13:19:17.37Z</time></trkpt><trkpt lat="45.0377517" lon="7.98509"><ele>297.0</ele><time>2026-04-18T13:19:18.37Z</time></trkpt><trkpt lat="45.0379117" lon="7.9850967"><ele>297.0</ele><time>2026-04-18T13:19:19.37Z</time></trkpt><trkpt lat="45.03807" lon="7.985105"><ele>297.0</ele><time>2026-04-18T13:19:20.37Z</time></trkpt><trkpt lat="45.038225" lon="7.98508"><ele>297.0</ele><time>2026-04-18T13:19:21.37Z</time></trkpt><trkpt lat="45.0383633" lon="7.98499"><ele>295.0</ele><time>2026-04-18T13:19:22.37Z</time></trkpt><trkpt lat="45.0384817" lon="7.984865"><ele>293.0</ele><time>2026-04-18T13:19:23.37Z</time></trkpt><trkpt lat="45.0385983" lon="7.98474"><ele>291.0</ele><time>2026-04-18T13:19:24.37Z</time></trkpt><trkpt lat="45.038715" lon="7.984625"><ele>289.0</ele><time>2026-04-18T13:19:25.37Z</time></trkpt><trkpt lat="45.0388433" lon="7.9845233"><ele>289.0</ele><time>2026-04-18T13:19:26.37Z</time></trkpt><trkpt lat="45.038985" lon="7.98443"><ele>289.0</ele><time>2026-04-18T13:19:27.37Z</time></trkpt><trkpt lat="45.0391267" lon="7.984325"><ele>289.0</ele><time>2026-04-18T13:19:28.37Z</time></trkpt><trkpt lat="45.0392733" lon="7.9842083"><ele>291.0</ele><time>2026-04-18T13:19:29.37Z</time></trkpt><trkpt lat="45.0394233" lon="7.9840833"><ele>293.0</ele><time>2026-04-18T13:19:30.369Z</time></trkpt><trkpt lat="45.03957" lon="7.983975"><ele>295.0</ele><time>2026-04-18T13:19:31.369Z</time></trkpt><trkpt lat="45.0397067" lon="7.9838583"><ele>295.0</ele><time>2026-04-18T13:19:32.369Z</time></trkpt><trkpt lat="45.0398483" lon="7.9837367"><ele>295.0</ele><time>2026-04-18T13:19:33.37Z</time></trkpt><trkpt lat="45.0399933" lon="7.9836133"><ele>295.0</ele><time>2026-04-18T13:19:34.37Z</time></trkpt><trkpt lat="45.04014" lon="7.9834983"><ele>295.0</ele><time>2026-04-18T13:19:35.37Z</time></trkpt><trkpt lat="45.0402767" lon="7.9833867"><ele>295.0</ele><time>2026-04-18T13:19:36.369Z</time></trkpt><trkpt lat="45.0404267" lon="7.9832917"><ele>295.0</ele><time>2026-04-18T13:19:37.37Z</time></trkpt><trkpt lat="45.040575" lon="7.9832233"><ele>294.5</ele><time>2026-04-18T13:19:38.37Z</time></trkpt><trkpt lat="45.0407117" lon="7.9831667"><ele>294.0</ele><time>2026-04-18T13:19:39.369Z</time></trkpt><trkpt lat="45.040855" lon="7.983115"><ele>293.5</ele><time>2026-04-18T13:19:40.37Z</time></trkpt><trkpt lat="45.040995" lon="7.983045"><ele>293.0</ele><time>2026-04-18T13:19:41.369Z</time></trkpt><trkpt lat="45.0411167" lon="7.9829333"><ele>293.0</ele><time>2026-04-18T13:19:42.369Z</time></trkpt><trkpt lat="45.0412317" lon="7.9827783"><ele>293.0</ele><time>2026-04-18T13:19:43.37Z</time></trkpt><trkpt lat="45.04133" lon="7.9826"><ele>293.0</ele><time>2026-04-18T13:19:44.37Z</time></trkpt><trkpt lat="45.04141" lon="7.98243"><ele>294.0</ele><time>2026-04-18T13:19:45.37Z</time></trkpt><trkpt lat="45.0414917" lon="7.9822367"><ele>295.0</ele><time>2026-04-18T13:19:46.369Z</time></trkpt><trkpt lat="45.0415517" lon="7.9820333"><ele>296.0</ele><time>2026-04-18T13:19:47.37Z</time></trkpt><trkpt lat="45.0415867" lon="7.9818217"><ele>295.6666666666667</ele><time>2026-04-18T13:19:48.37Z</time></trkpt><trkpt lat="45.0415817" lon="7.9816083"><ele>295.3333333333333</ele><time>2026-04-18T13:19:49.369Z</time></trkpt><trkpt lat="45.0415467" lon="7.9813967"><ele>295.0</ele><time>2026-04-18T13:19:50.37Z</time></trkpt><trkpt lat="45.0414883" lon="7.9811867"><ele>295.0</ele><time>2026-04-18T13:19:51.37Z</time></trkpt><trkpt lat="45.0414133" lon="7.9810017"><ele>295.0</ele><time>2026-04-18T13:19:52.37Z</time></trkpt><trkpt lat="45.0413517" lon="7.9807867"><ele>295.0</ele><time>2026-04-18T13:19:53.37Z</time></trkpt><trkpt lat="45.041295" lon="7.9805883"><ele>292.5</ele><time>2026-04-18T13:19:54.369Z</time></trkpt><trkpt lat="45.0412533" lon="7.9803917"><ele>290.0</ele><time>2026-04-18T13:19:55.37Z</time></trkpt><trkpt lat="45.0412183" lon="7.9802133"><ele>287.5</ele><time>2026-04-18T13:19:56.37Z</time></trkpt><trkpt lat="45.0411917" lon="7.9800467"><ele>285.0</ele><time>2026-04-18T13:19:57.37Z</time></trkpt><trkpt lat="45.041175" lon="7.9799033"><ele>282.8333333333333</ele><time>2026-04-18T13:19:58.37Z</time></trkpt><trkpt lat="45.0411767" lon="7.97981"><ele>280.6666666666667</ele><time>2026-04-18T13:19:59.37Z</time></trkpt><trkpt lat="45.0411983" lon="7.979705"><ele>278.5</ele><time>2026-04-18T13:20:00.37Z</time></trkpt><trkpt lat="45.04127" lon="7.9796133"><ele>276.33333333333337</ele><time>2026-04-18T13:20:02.369Z</time></trkpt><trkpt lat="45.04135" lon="7.9797433"><ele>274.1666666666667</ele><time>2026-04-18T13:20:04.37Z</time></trkpt><trkpt lat="45.04137" lon="7.979845"><ele>272.0</ele><time>2026-04-18T13:20:05.37Z</time></trkpt><trkpt lat="45.0413817" lon="7.9799583"><ele>274.6</ele><time>2026-04-18T13:20:06.37Z</time></trkpt><trkpt lat="45.0413933" lon="7.9800767"><ele>277.2</ele><time>2026-04-18T13:20:07.37Z</time></trkpt><trkpt lat="45.041405" lon="7.9802083"><ele>279.8</ele><time>2026-04-18T13:20:08.37Z</time></trkpt><trkpt lat="45.0414233" lon="7.9803467"><ele>282.4</ele><time>2026-04-18T13:20:09.37Z</time></trkpt><trkpt lat="45.041445" lon="7.9805017"><ele>285.0</ele><time>2026-04-18T13:20:10.37Z</time></trkpt><trkpt lat="45.0414633" lon="7.9806617"><ele>285.0</ele><time>2026-04-18T13:20:11.37Z</time></trkpt><trkpt lat="45.0415" lon="7.9808233"><ele>285.0</ele><time>2026-04-18T13:20:12.369Z</time></trkpt><trkpt lat="45.0415467" lon="7.9809833"><ele>285.0</ele><time>2026-04-18T13:20:13.37Z</time></trkpt><trkpt lat="45.0415733" lon="7.98111"><ele>285.0</ele><time>2026-04-18T13:20:14.37Z</time></trkpt><trkpt lat="45.0416183" lon="7.9812367"><ele>285.0</ele><time>2026-04-18T13:20:15.37Z</time></trkpt><trkpt lat="45.0416717" lon="7.9813583"><ele>285.0</ele><time>2026-04-18T13:20:16.37Z</time></trkpt><trkpt lat="45.04174" lon="7.98147"><ele>285.0</ele><time>2026-04-18T13:20:17.37Z</time></trkpt><trkpt lat="45.0418033" lon="7.981605"><ele>285.0</ele><time>2026-04-18T13:20:18.37Z</time></trkpt><trkpt lat="45.0418817" lon="7.9817533"><ele>285.0</ele><time>2026-04-18T13:20:19.37Z</time></trkpt><trkpt lat="45.0419883" lon="7.9819467"><ele>285.0</ele><time>2026-04-18T13:20:20.369Z</time></trkpt><trkpt lat="45.0421467" lon="7.9821517"><ele>285.0</ele><time>2026-04-18T13:20:21.369Z</time></trkpt><trkpt lat="45.042215" lon="7.9824017"><ele>285.0</ele><time>2026-04-18T13:20:22.369Z</time></trkpt><trkpt lat="45.0420667" lon="7.9827883"><ele>280.3333333333333</ele><time>2026-04-18T13:20:23.369Z</time></trkpt><trkpt lat="45.04206" lon="7.9830317"><ele>275.66666666666663</ele><time>2026-04-18T13:20:24.37Z</time></trkpt><trkpt lat="45.04204" lon="7.98324"><ele>271.0</ele><time>2026-04-18T13:20:25.37Z</time></trkpt><trkpt lat="45.041965" lon="7.983445"><ele>270.3333333333333</ele><time>2026-04-18T13:20:26.37Z</time></trkpt><trkpt lat="45.0418683" lon="7.9836483"><ele>269.6666666666667</ele><time>2026-04-18T13:20:27.37Z</time></trkpt><trkpt lat="45.0417467" lon="7.9838483"><ele>269.0</ele><time>2026-04-18T13:20:28.37Z</time></trkpt><trkpt lat="45.0416183" lon="7.9840483"><ele>269.0</ele><time>2026-04-18T13:20:29.369Z</time></trkpt><trkpt lat="45.0414983" lon="7.9842333"><ele>269.0</ele><time>2026-04-18T13:20:30.37Z</time></trkpt><trkpt lat="45.04138" lon="7.98444"><ele>269.0</ele><time>2026-04-18T13:20:31.37Z</time></trkpt><trkpt lat="45.0412733" lon="7.9846433"><ele>269.0</ele><time>2026-04-18T13:20:32.37Z</time></trkpt><trkpt lat="45.0411567" lon="7.9848433"><ele>269.0</ele><time>2026-04-18T13:20:33.37Z</time></trkpt><trkpt lat="45.04108" lon="7.9850567"><ele>269.0</ele><time>2026-04-18T13:20:34.369Z</time></trkpt><trkpt lat="45.0409983" lon="7.9852617"><ele>267.6666666666667</ele><time>2026-04-18T13:20:35.37Z</time></trkpt><trkpt lat="45.0409133" lon="7.9854667"><ele>266.3333333333333</ele><time>2026-04-18T13:20:36.369Z</time></trkpt><trkpt lat="45.040825" lon="7.9856433"><ele>265.0</ele><time>2026-04-18T13:20:37.37Z</time></trkpt><trkpt lat="45.0407383" lon="7.98584"><ele>263.66666666666663</ele><time>2026-04-18T13:20:38.37Z</time></trkpt><trkpt lat="45.0406567" lon="7.9860267"><ele>262.3333333333333</ele><time>2026-04-18T13:20:39.37Z</time></trkpt><trkpt lat="45.0405683" lon="7.9862267"><ele>261.0</ele><time>2026-04-18T13:20:40.37Z</time></trkpt><trkpt lat="45.04048" lon="7.9864367"><ele>261.0</ele><time>2026-04-18T13:20:41.37Z</time></trkpt><trkpt lat="45.040385" lon="7.9866333"><ele>261.0</ele><time>2026-04-18T13:20:42.37Z</time></trkpt><trkpt lat="45.0402867" lon="7.9868267"><ele>261.0</ele><time>2026-04-18T13:20:43.37Z</time></trkpt><trkpt lat="45.040185" lon="7.9870117"><ele>262.6666666666667</ele><time>2026-04-18T13:20:44.37Z</time></trkpt><trkpt lat="45.0400783" lon="7.98719"><ele>264.33333333333337</ele><time>2026-04-18T13:20:45.369Z</time></trkpt><trkpt lat="45.0399533" lon="7.987355"><ele>266.0</ele><time>2026-04-18T13:20:46.37Z</time></trkpt><trkpt lat="45.039815" lon="7.9875033"><ele>264.6666666666667</ele><time>2026-04-18T13:20:47.369Z</time></trkpt><trkpt lat="45.0396733" lon="7.98763"><ele>263.3333333333333</ele><time>2026-04-18T13:20:48.37Z</time></trkpt><trkpt lat="45.0395317" lon="7.9877533"><ele>262.0</ele><time>2026-04-18T13:20:49.369Z</time></trkpt><trkpt lat="45.0393917" lon="7.9878817"><ele>262.0</ele><time>2026-04-18T13:20:50.369Z</time></trkpt><trkpt lat="45.03925" lon="7.98798"><ele>262.0</ele><time>2026-04-18T13:20:51.37Z</time></trkpt><trkpt lat="45.0390983" lon="7.9880667"><ele>262.0</ele><time>2026-04-18T13:20:52.37Z</time></trkpt><trkpt lat="45.0389417" lon="7.9881367"><ele>259.3333333333333</ele><time>2026-04-18T13:20:53.369Z</time></trkpt><trkpt lat="45.038785" lon="7.9881917"><ele>256.6666666666667</ele><time>2026-04-18T13:20:54.37Z</time></trkpt><trkpt lat="45.0386217" lon="7.9882467"><ele>254.0</ele><time>2026-04-18T13:20:55.37Z</time></trkpt><trkpt lat="45.0384633" lon="7.9883283"><ele>252.0</ele><time>2026-04-18T13:20:56.37Z</time></trkpt><trkpt lat="45.0383217" lon="7.988435"><ele>250.0</ele><time>2026-04-18T13:20:57.37Z</time></trkpt><trkpt lat="45.0381817" lon="7.9885583"><ele>248.0</ele><time>2026-04-18T13:20:58.369Z</time></trkpt><trkpt lat="45.0380533" lon="7.9887017"><ele>248.0</ele><time>2026-04-18T13:20:59.37Z</time></trkpt><trkpt lat="45.0379433" lon="7.988875"><ele>248.0</ele><time>2026-04-18T13:21:00.37Z</time></trkpt><trkpt lat="45.0378467" lon="7.9890567"><ele>248.0</ele><time>2026-04-18T13:21:01.369Z</time></trkpt><trkpt lat="45.0377567" lon="7.9892233"><ele>250.66666666666669</ele><time>2026-04-18T13:21:02.37Z</time></trkpt><trkpt lat="45.0376717" lon="7.9894033"><ele>253.33333333333331</ele><time>2026-04-18T13:21:03.37Z</time></trkpt><trkpt lat="45.03758" lon="7.9895967"><ele>256.0</ele><time>2026-04-18T13:21:04.37Z</time></trkpt><trkpt lat="45.0374983" lon="7.9897967"><ele>254.66666666666666</ele><time>2026-04-18T13:21:05.37Z</time></trkpt><trkpt lat="45.03742" lon="7.98998"><ele>253.33333333333331</ele><time>2026-04-18T13:21:06.369Z</time></trkpt><trkpt lat="45.0373383" lon="7.99016"><ele>252.0</ele><time>2026-04-18T13:21:07.37Z</time></trkpt><trkpt lat="45.0372617" lon="7.99035"><ele>253.33333333333331</ele><time>2026-04-18T13:21:08.37Z</time></trkpt><trkpt lat="45.0371917" lon="7.990555"><ele>254.66666666666666</ele><time>2026-04-18T13:21:09.369Z</time></trkpt><trkpt lat="45.037145" lon="7.9907533"><ele>256.0</ele><time>2026-04-18T13:21:10.37Z</time></trkpt><trkpt lat="45.0371317" lon="7.9909617"><ele>256.0</ele><time>2026-04-18T13:21:11.37Z</time></trkpt><trkpt lat="45.0371433" lon="7.9911783"><ele>256.0</ele><time>2026-04-18T13:21:12.37Z</time></trkpt><trkpt lat="45.03718" lon="7.9913967"><ele>256.0</ele><time>2026-04-18T13:21:13.369Z</time></trkpt><trkpt lat="45.0372433" lon="7.991615"><ele>253.66666666666666</ele><time>2026-04-18T13:21:14.369Z</time></trkpt><trkpt lat="45.03731" lon="7.9918317"><ele>251.33333333333331</ele><time>2026-04-18T13:21:15.369Z</time></trkpt><trkpt lat="45.0373633" lon="7.9920633"><ele>249.0</ele><time>2026-04-18T13:21:16.37Z</time></trkpt><trkpt lat="45.03741" lon="7.9923"><ele>248.66666666666669</ele><time>2026-04-18T13:21:17.37Z</time></trkpt><trkpt lat="45.0374617" lon="7.9925383"><ele>248.33333333333334</ele><time>2026-04-18T13:21:18.37Z</time></trkpt><trkpt lat="45.0375067" lon="7.9927733"><ele>248.0</ele><time>2026-04-18T13:21:19.37Z</time></trkpt><trkpt lat="45.0375567" lon="7.993"><ele>247.33333333333334</ele><time>2026-04-18T13:21:20.368Z</time></trkpt><trkpt lat="45.0375833" lon="7.9932133"><ele>246.66666666666669</ele><time>2026-04-18T13:21:21.369Z</time></trkpt><trkpt lat="45.0376433" lon="7.9934283"><ele>246.0</ele><time>2026-04-18T13:21:22.369Z</time></trkpt><trkpt lat="45.03769" lon="7.9936283"><ele>245.75</ele><time>2026-04-18T13:21:23.368Z</time></trkpt><trkpt lat="45.0377267" lon="7.9938183"><ele>245.5</ele><time>2026-04-18T13:21:24.369Z</time></trkpt><trkpt lat="45.0377667" lon="7.99399"><ele>245.25</ele><time>2026-04-18T13:21:25.369Z</time></trkpt><trkpt lat="45.0378017" lon="7.9941567"><ele>245.0</ele><time>2026-04-18T13:21:26.369Z</time></trkpt><trkpt lat="45.0378267" lon="7.9943033"><ele>244.66666666666669</ele><time>2026-04-18T13:21:27.369Z</time></trkpt><trkpt lat="45.0378533" lon="7.994425"><ele>244.33333333333334</ele><time>2026-04-18T13:21:28.369Z</time></trkpt><trkpt lat="45.0378883" lon="7.9945233"><ele>244.0</ele><time>2026-04-18T13:21:29.369Z</time></trkpt><trkpt lat="45.03799" lon="7.9945833"><ele>243.66666666666669</ele><time>2026-04-18T13:21:31.369Z</time></trkpt><trkpt lat="45.0380533" lon="7.9945433"><ele>243.33333333333334</ele><time>2026-04-18T13:21:32.369Z</time></trkpt><trkpt lat="45.0381083" lon="7.99445"><ele>243.0</ele><time>2026-04-18T13:21:33.369Z</time></trkpt><trkpt lat="45.0381567" lon="7.99432"><ele>243.0</ele><time>2026-04-18T13:21:34.369Z</time></trkpt><trkpt lat="45.0382133" lon="7.9941767"><ele>243.0</ele><time>2026-04-18T13:21:35.369Z</time></trkpt><trkpt lat="45.0382717" lon="7.99404"><ele>243.0</ele><time>2026-04-18T13:21:36.368Z</time></trkpt><trkpt lat="45.0383417" lon="7.9939083"><ele>243.0</ele><time>2026-04-18T13:21:37.369Z</time></trkpt><trkpt lat="45.0384217" lon="7.993775"><ele>244.5</ele><time>2026-04-18T13:21:38.369Z</time></trkpt><trkpt lat="45.0385133" lon="7.9936383"><ele>246.0</ele><time>2026-04-18T13:21:39.369Z</time></trkpt><trkpt lat="45.0386067" lon="7.9934883"><ele>247.5</ele><time>2026-04-18T13:21:40.369Z</time></trkpt><trkpt lat="45.0387083" lon="7.99334"><ele>249.0</ele><time>2026-04-18T13:21:41.369Z</time></trkpt><trkpt lat="45.0388083" lon="7.9931933"><ele>249.0</ele><time>2026-04-18T13:21:42.368Z</time></trkpt><trkpt lat="45.0389233" lon="7.9930517"><ele>249.0</ele><time>2026-04-18T13:21:43.369Z</time></trkpt><trkpt lat="45.039045" lon="7.9929133"><ele>249.0</ele><time>2026-04-18T13:21:44.369Z</time></trkpt><trkpt lat="45.0391667" lon="7.9927767"><ele>250.33333333333331</ele><time>2026-04-18T13:21:45.369Z</time></trkpt><trkpt lat="45.0393017" lon="7.9926467"><ele>251.66666666666666</ele><time>2026-04-18T13:21:46.369Z</time></trkpt><trkpt lat="45.03944" lon="7.9925217"><ele>253.0</ele><time>2026-04-18T13:21:47.368Z</time></trkpt><trkpt lat="45.0395733" lon="7.9923883"><ele>253.0</ele><time>2026-04-18T13:21:48.369Z</time></trkpt><trkpt lat="45.0396983" lon="7.9922567"><ele>253.0</ele><time>2026-04-18T13:21:49.369Z</time></trkpt><trkpt lat="45.03982" lon="7.9921133"><ele>253.0</ele><time>2026-04-18T13:21:50.369Z</time></trkpt><trkpt lat="45.039945" lon="7.9919567"><ele>254.33333333333331</ele><time>2026-04-18T13:21:51.369Z</time></trkpt><trkpt lat="45.04006" lon="7.99179"><ele>255.66666666666669</ele><time>2026-04-18T13:21:52.369Z</time></trkpt><trkpt lat="45.0401817" lon="7.9916433"><ele>257.0</ele><time>2026-04-18T13:21:53.368Z</time></trkpt><trkpt lat="45.040325" lon="7.9915417"><ele>257.0</ele><time>2026-04-18T13:21:54.369Z</time></trkpt><trkpt lat="45.0404767" lon="7.9914517"><ele>257.0</ele><time>2026-04-18T13:21:55.368Z</time></trkpt><trkpt lat="45.0406283" lon="7.991365"><ele>257.0</ele><time>2026-04-18T13:21:56.369Z</time></trkpt><trkpt lat="45.0407767" lon="7.9912833"><ele>261.0</ele><time>2026-04-18T13:21:57.369Z</time></trkpt><trkpt lat="45.04093" lon="7.9912017"><ele>265.0</ele><time>2026-04-18T13:21:58.368Z</time></trkpt><trkpt lat="45.0410867" lon="7.991145"><ele>269.0</ele><time>2026-04-18T13:21:59.368Z</time></trkpt><trkpt lat="45.041245" lon="7.9910917"><ele>269.0</ele><time>2026-04-18T13:22:00.369Z</time></trkpt><trkpt lat="45.041405" lon="7.9910533"><ele>269.0</ele><time>2026-04-18T13:22:01.369Z</time></trkpt><trkpt lat="45.041555" lon="7.9910267"><ele>269.0</ele><time>2026-04-18T13:22:02.369Z</time></trkpt><trkpt lat="45.0417083" lon="7.9910083"><ele>271.33333333333337</ele><time>2026-04-18T13:22:03.368Z</time></trkpt><trkpt lat="45.04186" lon="7.9910067"><ele>273.6666666666667</ele><time>2026-04-18T13:22:04.369Z</time></trkpt><trkpt lat="45.042015" lon="7.9910333"><ele>276.0</ele><time>2026-04-18T13:22:05.369Z</time></trkpt><trkpt lat="45.04216" lon="7.99108"><ele>276.0</ele><time>2026-04-18T13:22:06.369Z</time></trkpt><trkpt lat="45.0422983" lon="7.99109"><ele>276.0</ele><time>2026-04-18T13:22:07.369Z</time></trkpt><trkpt lat="45.042415" lon="7.9910617"><ele>276.0</ele><time>2026-04-18T13:22:08.369Z</time></trkpt><trkpt lat="45.0425217" lon="7.9910083"><ele>276.0</ele><time>2026-04-18T13:22:09.369Z</time></trkpt><trkpt lat="45.0426067" lon="7.99091"><ele>273.0</ele><time>2026-04-18T13:22:10.369Z</time></trkpt><trkpt lat="45.0426883" lon="7.9908"><ele>270.0</ele><time>2026-04-18T13:22:11.368Z</time></trkpt><trkpt lat="45.0427883" lon="7.990685"><ele>267.0</ele><time>2026-04-18T13:22:12.369Z</time></trkpt><trkpt lat="45.0428983" lon="7.9905833"><ele>264.0</ele><time>2026-04-18T13:22:13.369Z</time></trkpt><trkpt lat="45.0430183" lon="7.9904567"><ele>264.0</ele><time>2026-04-18T13:22:14.368Z</time></trkpt><trkpt lat="45.0431433" lon="7.9903383"><ele>264.0</ele><time>2026-04-18T13:22:15.369Z</time></trkpt><trkpt lat="45.0432683" lon="7.9902267"><ele>264.0</ele><time>2026-04-18T13:22:16.369Z</time></trkpt><trkpt lat="45.0433983" lon="7.9900983"><ele>264.25</ele><time>2026-04-18T13:22:17.369Z</time></trkpt><trkpt lat="45.0435183" lon="7.9899833"><ele>264.5</ele><time>2026-04-18T13:22:18.368Z</time></trkpt><trkpt lat="45.0436433" lon="7.989885"><ele>264.75</ele><time>2026-04-18T13:22:19.369Z</time></trkpt><trkpt lat="45.04377" lon="7.98979"><ele>265.0</ele><time>2026-04-18T13:22:20.369Z</time></trkpt><trkpt lat="45.043895" lon="7.9897117"><ele>265.0</ele><time>2026-04-18T13:22:21.368Z</time></trkpt><trkpt lat="45.0440233" lon="7.989645"><ele>265.0</ele><time>2026-04-18T13:22:22.369Z</time></trkpt><trkpt lat="45.0441567" lon="7.98959"><ele>265.0</ele><time>2026-04-18T13:22:23.368Z</time></trkpt><trkpt lat="45.044295" lon="7.9895533"><ele>265.0</ele><time>2026-04-18T13:22:24.369Z</time></trkpt><trkpt lat="45.0444417" lon="7.9895367"><ele>266.75</ele><time>2026-04-18T13:22:25.369Z</time></trkpt><trkpt lat="45.0445767" lon="7.98952"><ele>268.5</ele><time>2026-04-18T13:22:26.369Z</time></trkpt><trkpt lat="45.0447117" lon="7.9894967"><ele>270.25</ele><time>2026-04-18T13:22:27.369Z</time></trkpt><trkpt lat="45.0448367" lon="7.9894317"><ele>272.0</ele><time>2026-04-18T13:22:28.368Z</time></trkpt><trkpt lat="45.044955" lon="7.9893133"><ele>272.75</ele><time>2026-04-18T13:22:29.368Z</time></trkpt><trkpt lat="45.0450683" lon="7.9891767"><ele>273.5</ele><time>2026-04-18T13:22:30.369Z</time></trkpt><trkpt lat="45.0451783" lon="7.9890283"><ele>274.25</ele><time>2026-04-18T13:22:31.369Z</time></trkpt><trkpt lat="45.045285" lon="7.988885"><ele>275.0</ele><time>2026-04-18T13:22:32.369Z</time></trkpt><trkpt lat="45.0454033" lon="7.9887633"><ele>275.6666666666667</ele><time>2026-04-18T13:22:33.369Z</time></trkpt><trkpt lat="45.045525" lon="7.988645"><ele>276.3333333333333</ele><time>2026-04-18T13:22:34.369Z</time></trkpt><trkpt lat="45.0456517" lon="7.9885383"><ele>277.0</ele><time>2026-04-18T13:22:35.369Z</time></trkpt><trkpt lat="45.0457917" lon="7.98844"><ele>278.75</ele><time>2026-04-18T13:22:36.369Z</time></trkpt><trkpt lat="45.045925" lon="7.988365"><ele>280.5</ele><time>2026-04-18T13:22:37.368Z</time></trkpt><trkpt lat="45.0460683" lon="7.988295"><ele>282.25</ele><time>2026-04-18T13:22:38.368Z</time></trkpt><trkpt lat="45.046215" lon="7.9882333"><ele>284.0</ele><time>2026-04-18T13:22:39.369Z</time></trkpt><trkpt lat="45.0463683" lon="7.988215"><ele>284.0</ele><time>2026-04-18T13:22:40.369Z</time></trkpt><trkpt lat="45.0465217" lon="7.9881917"><ele>284.0</ele><time>2026-04-18T13:22:41.369Z</time></trkpt><trkpt lat="45.046675" lon="7.98819"><ele>284.0</ele><time>2026-04-18T13:22:42.369Z</time></trkpt><trkpt lat="45.0468267" lon="7.9881933"><ele>288.0</ele><time>2026-04-18T13:22:43.368Z</time></trkpt><trkpt lat="45.0469867" lon="7.9881917"><ele>292.0</ele><time>2026-04-18T13:22:44.368Z</time></trkpt><trkpt lat="45.047145" lon="7.988195"><ele>296.0</ele><time>2026-04-18T13:22:45.368Z</time></trkpt><trkpt lat="45.0473067" lon="7.988185"><ele>297.0</ele><time>2026-04-18T13:22:46.369Z</time></trkpt><trkpt lat="45.0474683" lon="7.9881783"><ele>298.0</ele><time>2026-04-18T13:22:47.369Z</time></trkpt><trkpt lat="45.047625" lon="7.988165"><ele>299.0</ele><time>2026-04-18T13:22:48.368Z</time></trkpt><trkpt lat="45.0477733" lon="7.9881567"><ele>299.0</ele><time>2026-04-18T13:22:49.368Z</time></trkpt><trkpt lat="45.0479367" lon="7.9881517"><ele>299.0</ele><time>2026-04-18T13:22:50.368Z</time></trkpt><trkpt lat="45.04809" lon="7.9881183"><ele>299.0</ele><time>2026-04-18T13:22:51.369Z</time></trkpt><trkpt lat="45.0482383" lon="7.988035"><ele>299.6666666666667</ele><time>2026-04-18T13:22:52.369Z</time></trkpt><trkpt lat="45.0483833" lon="7.9879217"><ele>300.3333333333333</ele><time>2026-04-18T13:22:53.369Z</time></trkpt><trkpt lat="45.048515" lon="7.9878017"><ele>301.0</ele><time>2026-04-18T13:22:54.369Z</time></trkpt><trkpt lat="45.0486467" lon="7.9876867"><ele>301.0</ele><time>2026-04-18T13:22:55.369Z</time></trkpt><trkpt lat="45.0487767" lon="7.9875767"><ele>301.0</ele><time>2026-04-18T13:22:56.369Z</time></trkpt><trkpt lat="45.04891" lon="7.9874533"><ele>301.0</ele><time>2026-04-18T13:22:57.369Z</time></trkpt><trkpt lat="45.0490483" lon="7.9873433"><ele>304.3333333333333</ele><time>2026-04-18T13:22:58.368Z</time></trkpt><trkpt lat="45.0491883" lon="7.9872417"><ele>307.6666666666667</ele><time>2026-04-18T13:22:59.369Z</time></trkpt><trkpt lat="45.0493283" lon="7.98716"><ele>311.0</ele><time>2026-04-18T13:23:00.368Z</time></trkpt><trkpt lat="45.0494767" lon="7.987085"><ele>311.0</ele><time>2026-04-18T13:23:01.369Z</time></trkpt><trkpt lat="45.0496317" lon="7.9870233"><ele>311.0</ele><time>2026-04-18T13:23:02.368Z</time></trkpt><trkpt lat="45.049785" lon="7.9869833"><ele>311.0</ele><time>2026-04-18T13:23:03.369Z</time></trkpt><trkpt lat="45.049945" lon="7.9869617"><ele>313.0</ele><time>2026-04-18T13:23:04.369Z</time></trkpt><trkpt lat="45.0500983" lon="7.9869517"><ele>315.0</ele><time>2026-04-18T13:23:05.369Z</time></trkpt><trkpt lat="45.0502583" lon="7.986945"><ele>317.0</ele><time>2026-04-18T13:23:06.368Z</time></trkpt><trkpt lat="45.0504183" lon="7.9869383"><ele>317.0</ele><time>2026-04-18T13:23:07.369Z</time></trkpt><trkpt lat="45.0505783" lon="7.9869317"><ele>317.0</ele><time>2026-04-18T13:23:08.369Z</time></trkpt><trkpt lat="45.0507417" lon="7.9869167"><ele>317.0</ele><time>2026-04-18T13:23:09.369Z</time></trkpt><trkpt lat="45.05091" lon="7.9869067"><ele>318.0</ele><time>2026-04-18T13:23:10.369Z</time></trkpt><trkpt lat="45.0510717" lon="7.9868883"><ele>319.0</ele><time>2026-04-18T13:23:11.369Z</time></trkpt><trkpt lat="45.0512267" lon="7.986875"><ele>320.0</ele><time>2026-04-18T13:23:12.369Z</time></trkpt><trkpt lat="45.0513817" lon="7.9868583"><ele>320.0</ele><time>2026-04-18T13:23:13.369Z</time></trkpt><trkpt lat="45.0515383" lon="7.98684"><ele>320.0</ele><time>2026-04-18T13:23:14.369Z</time></trkpt><trkpt lat="45.0517" lon="7.9868183"><ele>320.0</ele><time>2026-04-18T13:23:15.369Z</time></trkpt><trkpt lat="45.0518533" lon="7.9868133"><ele>321.6666666666667</ele><time>2026-04-18T13:23:16.369Z</time></trkpt><trkpt lat="45.0520133" lon="7.9867883"><ele>323.3333333333333</ele><time>2026-04-18T13:23:17.369Z</time></trkpt><trkpt lat="45.0521633" lon="7.986765"><ele>325.0</ele><time>2026-04-18T13:23:18.369Z</time></trkpt><trkpt lat="45.05232" lon="7.9867417"><ele>331.3333333333333</ele><time>2026-04-18T13:23:19.368Z</time></trkpt><trkpt lat="45.0524767" lon="7.9867317"><ele>337.6666666666667</ele><time>2026-04-18T13:23:20.369Z</time></trkpt><trkpt lat="45.05264" lon="7.9867083"><ele>344.0</ele><time>2026-04-18T13:23:21.369Z</time></trkpt><trkpt lat="45.0528083" lon="7.9866933"><ele>342.33333333333337</ele><time>2026-04-18T13:23:22.369Z</time></trkpt><trkpt lat="45.0529683" lon="7.9866717"><ele>340.6666666666667</ele><time>2026-04-18T13:23:23.369Z</time></trkpt><trkpt lat="45.05313" lon="7.98666"><ele>339.0</ele><time>2026-04-18T13:23:24.368Z</time></trkpt><trkpt lat="45.053285" lon="7.9866483"><ele>342.6666666666667</ele><time>2026-04-18T13:23:25.369Z</time></trkpt><trkpt lat="45.053435" lon="7.986635"><ele>346.33333333333337</ele><time>2026-04-18T13:23:26.369Z</time></trkpt><trkpt lat="45.053595" lon="7.9866167"><ele>350.0</ele><time>2026-04-18T13:23:27.369Z</time></trkpt><trkpt lat="45.0537417" lon="7.9865983"><ele>350.0</ele><time>2026-04-18T13:23:28.369Z</time></trkpt><trkpt lat="45.05389" lon="7.9865817"><ele>350.0</ele><time>2026-04-18T13:23:29.369Z</time></trkpt><trkpt lat="45.0540367" lon="7.9865733"><ele>350.0</ele><time>2026-04-18T13:23:30.369Z</time></trkpt><trkpt lat="45.054185" lon="7.9865683"><ele>350.0</ele><time>2026-04-18T13:23:31.369Z</time></trkpt><trkpt lat="45.0543167" lon="7.9865583"><ele>350.75</ele><time>2026-04-18T13:23:32.369Z</time></trkpt><trkpt lat="45.0544333" lon="7.9865467"><ele>351.5</ele><time>2026-04-18T13:23:33.369Z</time></trkpt><trkpt lat="45.0545567" lon="7.9864983"><ele>352.25</ele><time>2026-04-18T13:23:34.369Z</time></trkpt><trkpt lat="45.05468" lon="7.986435"><ele>353.0</ele><time>2026-04-18T13:23:35.369Z</time></trkpt><trkpt lat="45.0548" lon="7.9863617"><ele>353.0</ele><time>2026-04-18T13:23:36.369Z</time></trkpt><trkpt lat="45.05492" lon="7.98629"><ele>353.0</ele><time>2026-04-18T13:23:37.369Z</time></trkpt><trkpt lat="45.0550333" lon="7.98619"><ele>353.0</ele><time>2026-04-18T13:23:38.368Z</time></trkpt><trkpt lat="45.055145" lon="7.9861033"><ele>353.0</ele><time>2026-04-18T13:23:39.369Z</time></trkpt><trkpt lat="45.0552633" lon="7.9860233"><ele>351.75</ele><time>2026-04-18T13:23:40.369Z</time></trkpt><trkpt lat="45.0553833" lon="7.98597"><ele>350.5</ele><time>2026-04-18T13:23:41.368Z</time></trkpt><trkpt lat="45.0554983" lon="7.9859167"><ele>349.25</ele><time>2026-04-18T13:23:42.369Z</time></trkpt><trkpt lat="45.05562" lon="7.9858467"><ele>348.0</ele><time>2026-04-18T13:23:43.369Z</time></trkpt><trkpt lat="45.05574" lon="7.9857267"><ele>351.5</ele><time>2026-04-18T13:23:44.368Z</time></trkpt><trkpt lat="45.0558433" lon="7.9856083"><ele>355.0</ele><time>2026-04-18T13:23:45.369Z</time></trkpt><trkpt lat="45.0559433" lon="7.9854967"><ele>358.5</ele><time>2026-04-18T13:23:46.369Z</time></trkpt><trkpt lat="45.0560483" lon="7.9854017"><ele>362.0</ele><time>2026-04-18T13:23:47.368Z</time></trkpt><trkpt lat="45.056145" lon="7.9853333"><ele>362.0</ele><time>2026-04-18T13:23:48.368Z</time></trkpt><trkpt lat="45.0562567" lon="7.9852983"><ele>362.0</ele><time>2026-04-18T13:23:49.369Z</time></trkpt><trkpt lat="45.05637" lon="7.9852783"><ele>362.0</ele><time>2026-04-18T13:23:50.369Z</time></trkpt><trkpt lat="45.0564733" lon="7.985255"><ele>362.0</ele><time>2026-04-18T13:23:51.369Z</time></trkpt><trkpt lat="45.0565867" lon="7.985235"><ele>362.0</ele><time>2026-04-18T13:23:52.369Z</time></trkpt><trkpt lat="45.0567" lon="7.9852283"><ele>365.20000000000005</ele><time>2026-04-18T13:23:53.369Z</time></trkpt><trkpt lat="45.056815" lon="7.9852"><ele>368.4</ele><time>2026-04-18T13:23:54.369Z</time></trkpt><trkpt lat="45.0569217" lon="7.98518"><ele>371.6</ele><time>2026-04-18T13:23:55.369Z</time></trkpt><trkpt lat="45.057025" lon="7.9851633"><ele>374.79999999999995</ele><time>2026-04-18T13:23:56.369Z</time></trkpt><trkpt lat="45.0571317" lon="7.9851817"><ele>378.0</ele><time>2026-04-18T13:23:57.369Z</time></trkpt><trkpt lat="45.05723" lon="7.9852417"><ele>378.0</ele><time>2026-04-18T13:23:58.368Z</time></trkpt><trkpt lat="45.0573417" lon="7.9852967"><ele>378.0</ele><time>2026-04-18T13:23:59.369Z</time></trkpt><trkpt lat="45.057455" lon="7.9853383"><ele>378.0</ele><time>2026-04-18T13:24:00.369Z</time></trkpt><trkpt lat="45.05757" lon="7.98538"><ele>378.0</ele><time>2026-04-18T13:24:01.369Z</time></trkpt><trkpt lat="45.057675" lon="7.9854217"><ele>380.0</ele><time>2026-04-18T13:24:02.369Z</time></trkpt><trkpt lat="45.05778" lon="7.9854467"><ele>382.0</ele><time>2026-04-18T13:24:03.369Z</time></trkpt><trkpt lat="45.0578683" lon="7.9854383"><ele>384.0</ele><time>2026-04-18T13:24:04.368Z</time></trkpt><trkpt lat="45.0579517" lon="7.985375"><ele>386.0</ele><time>2026-04-18T13:24:05.368Z</time></trkpt><trkpt lat="45.0580183" lon="7.9852867"><ele>388.0</ele><time>2026-04-18T13:24:06.368Z</time></trkpt><trkpt lat="45.0580417" lon="7.9851417"><ele>385.2</ele><time>2026-04-18T13:24:07.368Z</time></trkpt><trkpt lat="45.058045" lon="7.9849833"><ele>382.4</ele><time>2026-04-18T13:24:08.369Z</time></trkpt><trkpt lat="45.05803" lon="7.9848367"><ele>379.59999999999997</ele><time>2026-04-18T13:24:09.369Z</time></trkpt><trkpt lat="45.05802" lon="7.98471"><ele>376.79999999999995</ele><time>2026-04-18T13:24:10.369Z</time></trkpt><trkpt lat="45.0579983" lon="7.9845883"><ele>374.0</ele><time>2026-04-18T13:24:11.368Z</time></trkpt><trkpt lat="45.05798" lon="7.9844633"><ele>374.0</ele><time>2026-04-18T13:24:12.368Z</time></trkpt><trkpt lat="45.05797" lon="7.9843283"><ele>374.0</ele><time>2026-04-18T13:24:13.369Z</time></trkpt><trkpt lat="45.0579683" lon="7.9842183"><ele>374.0</ele><time>2026-04-18T13:24:14.369Z</time></trkpt><trkpt lat="45.0580033" lon="7.9841217"><ele>374.0</ele><time>2026-04-18T13:24:15.369Z</time></trkpt><trkpt lat="45.058065" lon="7.9840467"><ele>374.0</ele><time>2026-04-18T13:24:16.369Z</time></trkpt><trkpt lat="45.0581517" lon="7.9840083"><ele>374.0</ele><time>2026-04-18T13:24:17.368Z</time></trkpt><trkpt lat="45.0582633" lon="7.9840017"><ele>377.6666666666667</ele><time>2026-04-18T13:24:18.368Z</time></trkpt><trkpt lat="45.058405" lon="7.9840433"><ele>381.33333333333337</ele><time>2026-04-18T13:24:19.369Z</time></trkpt><trkpt lat="45.0585567" lon="7.9841033"><ele>385.0</ele><time>2026-04-18T13:24:20.369Z</time></trkpt><trkpt lat="45.058705" lon="7.98417"><ele>387.75</ele><time>2026-04-18T13:24:21.369Z</time></trkpt><trkpt lat="45.0588433" lon="7.9842267"><ele>390.5</ele><time>2026-04-18T13:24:22.369Z</time></trkpt><trkpt lat="45.0589767" lon="7.9842817"><ele>393.25</ele><time>2026-04-18T13:24:23.369Z</time></trkpt><trkpt lat="45.059115" lon="7.984345"><ele>396.0</ele><time>2026-04-18T13:24:24.369Z</time></trkpt><trkpt lat="45.0592633" lon="7.98438"><ele>397.33333333333337</ele><time>2026-04-18T13:24:25.369Z</time></trkpt><trkpt lat="45.0594083" lon="7.9843783"><ele>398.6666666666667</ele><time>2026-04-18T13:24:26.369Z</time></trkpt><trkpt lat="45.0595567" lon="7.9843267"><ele>400.0</ele><time>2026-04-18T13:24:27.369Z</time></trkpt><trkpt lat="45.0596983" lon="7.9842483"><ele>395.25</ele><time>2026-04-18T13:24:28.369Z</time></trkpt><trkpt lat="45.059835" lon="7.9841667"><ele>390.5</ele><time>2026-04-18T13:24:29.368Z</time></trkpt><trkpt lat="45.0599717" lon="7.98409"><ele>385.75</ele><time>2026-04-18T13:24:30.369Z</time></trkpt><trkpt lat="45.06009" lon="7.98401"><ele>381.0</ele><time>2026-04-18T13:24:31.369Z</time></trkpt><trkpt lat="45.060225" lon="7.9839433"><ele>379.75</ele><time>2026-04-18T13:24:32.369Z</time></trkpt><trkpt lat="45.0603733" lon="7.9839217"><ele>378.5</ele><time>2026-04-18T13:24:33.369Z</time></trkpt><trkpt lat="45.0605217" lon="7.983935"><ele>377.25</ele><time>2026-04-18T13:24:34.368Z</time></trkpt><trkpt lat="45.06067" lon="7.98396"><ele>376.0</ele><time>2026-04-18T13:24:35.369Z</time></trkpt><trkpt lat="45.0608133" lon="7.9839883"><ele>375.0</ele><time>2026-04-18T13:24:36.369Z</time></trkpt><trkpt lat="45.0609567" lon="7.9840117"><ele>374.0</ele><time>2026-04-18T13:24:37.369Z</time></trkpt><trkpt lat="45.0610917" lon="7.9840317"><ele>373.0</ele><time>2026-04-18T13:24:38.368Z</time></trkpt><trkpt lat="45.0612167" lon="7.98406"><ele>372.0</ele><time>2026-04-18T13:24:39.369Z</time></trkpt><trkpt lat="45.0613333" lon="7.9840917"><ele>372.0</ele><time>2026-04-18T13:24:40.369Z</time></trkpt><trkpt lat="45.0614417" lon="7.9841367"><ele>372.0</ele><time>2026-04-18T13:24:41.369Z</time></trkpt><trkpt lat="45.06154" lon="7.9841883"><ele>372.0</ele><time>2026-04-18T13:24:42.369Z</time></trkpt><trkpt lat="45.06165" lon="7.9842083"><ele>372.0</ele><time>2026-04-18T13:24:43.369Z</time></trkpt><trkpt lat="45.0617433" lon="7.98418"><ele>372.0</ele><time>2026-04-18T13:24:44.369Z</time></trkpt><trkpt lat="45.0618333" lon="7.98411"><ele>370.25</ele><time>2026-04-18T13:24:45.369Z</time></trkpt><trkpt lat="45.0619217" lon="7.9840217"><ele>368.5</ele><time>2026-04-18T13:24:46.369Z</time></trkpt><trkpt lat="45.062015" lon="7.9839267"><ele>366.75</ele><time>2026-04-18T13:24:47.368Z</time></trkpt><trkpt lat="45.0621167" lon="7.983825"><ele>365.0</ele><time>2026-04-18T13:24:48.369Z</time></trkpt><trkpt lat="45.0622217" lon="7.9837167"><ele>365.0</ele><time>2026-04-18T13:24:49.369Z</time></trkpt><trkpt lat="45.062325" lon="7.9836017"><ele>365.0</ele><time>2026-04-18T13:24:50.369Z</time></trkpt><trkpt lat="45.06242" lon="7.9834817"><ele>365.0</ele><time>2026-04-18T13:24:51.368Z</time></trkpt><trkpt lat="45.062515" lon="7.9833517"><ele>365.0</ele><time>2026-04-18T13:24:52.369Z</time></trkpt><trkpt lat="45.0626183" lon="7.9832083"><ele>365.0</ele><time>2026-04-18T13:24:53.369Z</time></trkpt><trkpt lat="45.062725" lon="7.9830733"><ele>365.0</ele><time>2026-04-18T13:24:54.369Z</time></trkpt><trkpt lat="45.06284" lon="7.9829267"><ele>365.0</ele><time>2026-04-18T13:24:55.369Z</time></trkpt><trkpt lat="45.062955" lon="7.9827867"><ele>365.0</ele><time>2026-04-18T13:24:56.369Z</time></trkpt><trkpt lat="45.0630683" lon="7.9826317"><ele>365.33333333333337</ele><time>2026-04-18T13:24:57.369Z</time></trkpt><trkpt lat="45.06319" lon="7.982485"><ele>365.6666666666667</ele><time>2026-04-18T13:24:58.368Z</time></trkpt><trkpt lat="45.063315" lon="7.9823367"><ele>366.0</ele><time>2026-04-18T13:24:59.368Z</time></trkpt><trkpt lat="45.0634283" lon="7.982195"><ele>368.0</ele><time>2026-04-18T13:25:00.369Z</time></trkpt><trkpt lat="45.06354" lon="7.9820467"><ele>370.0</ele><time>2026-04-18T13:25:01.369Z</time></trkpt><trkpt lat="45.063635" lon="7.9818817"><ele>372.0</ele><time>2026-04-18T13:25:02.369Z</time></trkpt><trkpt lat="45.0637133" lon="7.9816883"><ele>372.25</ele><time>2026-04-18T13:25:03.369Z</time></trkpt><trkpt lat="45.0637783" lon="7.981485"><ele>372.5</ele><time>2026-04-18T13:25:04.369Z</time></trkpt><trkpt lat="45.0638383" lon="7.9813067"><ele>372.75</ele><time>2026-04-18T13:25:05.369Z</time></trkpt><trkpt lat="45.0639267" lon="7.9811617"><ele>373.0</ele><time>2026-04-18T13:25:06.369Z</time></trkpt><trkpt lat="45.0640483" lon="7.9810483"><ele>375.0</ele><time>2026-04-18T13:25:07.369Z</time></trkpt><trkpt lat="45.0641933" lon="7.9809883"><ele>377.0</ele><time>2026-04-18T13:25:08.369Z</time></trkpt><trkpt lat="45.0643483" lon="7.9809417"><ele>379.0</ele><time>2026-04-18T13:25:09.368Z</time></trkpt><trkpt lat="45.0644967" lon="7.9808667"><ele>378.0</ele><time>2026-04-18T13:25:10.369Z</time></trkpt><trkpt lat="45.0646417" lon="7.9807533"><ele>377.0</ele><time>2026-04-18T13:25:11.368Z</time></trkpt><trkpt lat="45.0647817" lon="7.980635"><ele>376.0</ele><time>2026-04-18T13:25:12.368Z</time></trkpt><trkpt lat="45.06492" lon="7.9805033"><ele>374.3333333333333</ele><time>2026-04-18T13:25:13.369Z</time></trkpt><trkpt lat="45.06505" lon="7.9803633"><ele>372.6666666666667</ele><time>2026-04-18T13:25:14.368Z</time></trkpt><trkpt lat="45.0651683" lon="7.9802017"><ele>371.0</ele><time>2026-04-18T13:25:15.369Z</time></trkpt><trkpt lat="45.0652833" lon="7.9800483"><ele>373.0</ele><time>2026-04-18T13:25:16.369Z</time></trkpt><trkpt lat="45.0653833" lon="7.9798833"><ele>375.0</ele><time>2026-04-18T13:25:17.369Z</time></trkpt><trkpt lat="45.065495" lon="7.97972"><ele>377.0</ele><time>2026-04-18T13:25:18.369Z</time></trkpt><trkpt lat="45.0655967" lon="7.9795767"><ele>377.0</ele><time>2026-04-18T13:25:19.369Z</time></trkpt><trkpt lat="45.0656833" lon="7.9794133"><ele>377.0</ele><time>2026-04-18T13:25:20.369Z</time></trkpt><trkpt lat="45.06578" lon="7.9792633"><ele>377.0</ele><time>2026-04-18T13:25:21.369Z</time></trkpt><trkpt lat="45.065885" lon="7.9791017"><ele>377.0</ele><time>2026-04-18T13:25:22.369Z</time></trkpt><trkpt lat="45.06599" lon="7.9789367"><ele>380.0</ele><time>2026-04-18T13:25:23.368Z</time></trkpt><trkpt lat="45.0660867" lon="7.9787583"><ele>383.0</ele><time>2026-04-18T13:25:24.369Z</time></trkpt><trkpt lat="45.0661833" lon="7.9785883"><ele>386.0</ele><time>2026-04-18T13:25:25.368Z</time></trkpt><trkpt lat="45.0663" lon="7.9784317"><ele>385.66666666666663</ele><time>2026-04-18T13:25:26.369Z</time></trkpt><trkpt lat="45.0664167" lon="7.9782883"><ele>385.33333333333337</ele><time>2026-04-18T13:25:27.369Z</time></trkpt><trkpt lat="45.066545" lon="7.9781533"><ele>385.0</ele><time>2026-04-18T13:25:28.369Z</time></trkpt><trkpt lat="45.066665" lon="7.9779967"><ele>384.0</ele><time>2026-04-18T13:25:29.369Z</time></trkpt><trkpt lat="45.0667817" lon="7.9778283"><ele>383.0</ele><time>2026-04-18T13:25:30.369Z</time></trkpt><trkpt lat="45.066895" lon="7.9776433"><ele>382.0</ele><time>2026-04-18T13:25:31.368Z</time></trkpt><trkpt lat="45.0670133" lon="7.9774633"><ele>384.3333333333333</ele><time>2026-04-18T13:25:32.368Z</time></trkpt><trkpt lat="45.0671283" lon="7.9772933"><ele>386.66666666666663</ele><time>2026-04-18T13:25:33.369Z</time></trkpt><trkpt lat="45.067255" lon="7.9771417"><ele>389.0</ele><time>2026-04-18T13:25:34.369Z</time></trkpt><trkpt lat="45.0673733" lon="7.976975"><ele>391.0</ele><time>2026-04-18T13:25:35.369Z</time></trkpt><trkpt lat="45.0674833" lon="7.9768033"><ele>393.0</ele><time>2026-04-18T13:25:36.369Z</time></trkpt><trkpt lat="45.067565" lon="7.9766067"><ele>395.0</ele><time>2026-04-18T13:25:37.369Z</time></trkpt><trkpt lat="45.0676267" lon="7.9764117"><ele>395.0</ele><time>2026-04-18T13:25:38.369Z</time></trkpt><trkpt lat="45.0676883" lon="7.976225"><ele>395.0</ele><time>2026-04-18T13:25:39.369Z</time></trkpt><trkpt lat="45.0677517" lon="7.97605"><ele>395.0</ele><time>2026-04-18T13:25:40.369Z</time></trkpt><trkpt lat="45.0678233" lon="7.975885"><ele>395.0</ele><time>2026-04-18T13:25:41.369Z</time></trkpt><trkpt lat="45.0678983" lon="7.9757133"><ele>395.3333333333333</ele><time>2026-04-18T13:25:42.369Z</time></trkpt><trkpt lat="45.0679717" lon="7.9755267"><ele>395.66666666666663</ele><time>2026-04-18T13:25:43.369Z</time></trkpt><trkpt lat="45.06804" lon="7.9753333"><ele>396.0</ele><time>2026-04-18T13:25:44.369Z</time></trkpt><trkpt lat="45.068105" lon="7.9751317"><ele>395.0</ele><time>2026-04-18T13:25:45.369Z</time></trkpt><trkpt lat="45.0681733" lon="7.9749383"><ele>394.0</ele><time>2026-04-18T13:25:46.368Z</time></trkpt><trkpt lat="45.0682433" lon="7.9747617"><ele>393.0</ele><time>2026-04-18T13:25:47.369Z</time></trkpt><trkpt lat="45.0683283" lon="7.9745917"><ele>392.0</ele><time>2026-04-18T13:25:48.369Z</time></trkpt><trkpt lat="45.0684317" lon="7.9744317"><ele>395.75</ele><time>2026-04-18T13:25:49.368Z</time></trkpt><trkpt lat="45.0685617" lon="7.9743083"><ele>399.5</ele><time>2026-04-18T13:25:50.369Z</time></trkpt><trkpt lat="45.0686933" lon="7.9742233"><ele>403.25</ele><time>2026-04-18T13:25:51.369Z</time></trkpt><trkpt lat="45.06883" lon="7.9741683"><ele>407.0</ele><time>2026-04-18T13:25:52.369Z</time></trkpt><trkpt lat="45.0689617" lon="7.9740867"><ele>407.0</ele><time>2026-04-18T13:25:53.369Z</time></trkpt><trkpt lat="45.06909" lon="7.974"><ele>407.0</ele><time>2026-04-18T13:25:54.369Z</time></trkpt><trkpt lat="45.0692283" lon="7.9739067"><ele>407.0</ele><time>2026-04-18T13:25:55.369Z</time></trkpt><trkpt lat="45.06935" lon="7.973845"><ele>407.0</ele><time>2026-04-18T13:25:56.369Z</time></trkpt><trkpt lat="45.069465" lon="7.97379"><ele>408.20000000000005</ele><time>2026-04-18T13:25:57.369Z</time></trkpt><trkpt lat="45.0695633" lon="7.973735"><ele>409.4</ele><time>2026-04-18T13:25:58.368Z</time></trkpt><trkpt lat="45.0696333" lon="7.9736433"><ele>410.6</ele><time>2026-04-18T13:25:59.369Z</time></trkpt><trkpt lat="45.06969" lon="7.9735"><ele>411.79999999999995</ele><time>2026-04-18T13:26:00.369Z</time></trkpt><trkpt lat="45.069735" lon="7.9733283"><ele>413.0</ele><time>2026-04-18T13:26:01.368Z</time></trkpt><trkpt lat="45.0697567" lon="7.97316"><ele>414.25</ele><time>2026-04-18T13:26:02.368Z</time></trkpt><trkpt lat="45.069775" lon="7.9729983"><ele>415.5</ele><time>2026-04-18T13:26:03.368Z</time></trkpt><trkpt lat="45.06982" lon="7.9728467"><ele>416.75</ele><time>2026-04-18T13:26:04.369Z</time></trkpt><trkpt lat="45.0698917" lon="7.9727333"><ele>418.0</ele><time>2026-04-18T13:26:05.369Z</time></trkpt><trkpt lat="45.06999" lon="7.97264"><ele>418.0</ele><time>2026-04-18T13:26:06.368Z</time></trkpt><trkpt lat="45.07009" lon="7.9725517"><ele>418.0</ele><time>2026-04-18T13:26:07.369Z</time></trkpt><trkpt lat="45.0701967" lon="7.97246"><ele>418.0</ele><time>2026-04-18T13:26:08.368Z</time></trkpt><trkpt lat="45.0703033" lon="7.972355"><ele>418.0</ele><time>2026-04-18T13:26:09.369Z</time></trkpt><trkpt lat="45.0703967" lon="7.9722517"><ele>418.4</ele><time>2026-04-18T13:26:10.368Z</time></trkpt><trkpt lat="45.0705033" lon="7.9721617"><ele>418.79999999999995</ele><time>2026-04-18T13:26:11.369Z</time></trkpt><trkpt lat="45.0706117" lon="7.97211"><ele>419.2</ele><time>2026-04-18T13:26:12.369Z</time></trkpt><trkpt lat="45.070725" lon="7.9720917"><ele>419.6</ele><time>2026-04-18T13:26:13.368Z</time></trkpt><trkpt lat="45.07081" lon="7.9720583"><ele>420.0</ele><time>2026-04-18T13:26:14.369Z</time></trkpt><trkpt lat="45.0708933" lon="7.9719883"><ele>420.0</ele><time>2026-04-18T13:26:16.369Z</time></trkpt><trkpt lat="45.0710117" lon="7.9718817"><ele>420.0</ele><time>2026-04-18T13:26:18.369Z</time></trkpt><trkpt lat="45.071095" lon="7.971815"><ele>420.0</ele><time>2026-04-18T13:26:19.369Z</time></trkpt><trkpt lat="45.0711933" lon="7.971755"><ele>420.0</ele><time>2026-04-18T13:26:20.369Z</time></trkpt><trkpt lat="45.0712983" lon="7.97169"><ele>422.0</ele><time>2026-04-18T13:26:21.369Z</time></trkpt><trkpt lat="45.07141" lon="7.9716217"><ele>424.0</ele><time>2026-04-18T13:26:22.369Z</time></trkpt><trkpt lat="45.0715317" lon="7.9715417"><ele>426.0</ele><time>2026-04-18T13:26:23.369Z</time></trkpt><trkpt lat="45.071655" lon="7.9714583"><ele>428.0</ele><time>2026-04-18T13:26:24.368Z</time></trkpt><trkpt lat="45.0717883" lon="7.9713683"><ele>428.25</ele><time>2026-04-18T13:26:25.369Z</time></trkpt><trkpt lat="45.071915" lon="7.9712733"><ele>428.5</ele><time>2026-04-18T13:26:26.369Z</time></trkpt><trkpt lat="45.07204" lon="7.971175"><ele>428.75</ele><time>2026-04-18T13:26:27.369Z</time></trkpt><trkpt lat="45.072175" lon="7.9710883"><ele>429.0</ele><time>2026-04-18T13:26:28.369Z</time></trkpt><trkpt lat="45.0723183" lon="7.971"><ele>427.66666666666663</ele><time>2026-04-18T13:26:29.369Z</time></trkpt><trkpt lat="45.0724567" lon="7.97092"><ele>426.3333333333333</ele><time>2026-04-18T13:26:30.369Z</time></trkpt><trkpt lat="45.0725917" lon="7.97082"><ele>425.0</ele><time>2026-04-18T13:26:31.369Z</time></trkpt><trkpt lat="45.07273" lon="7.97071"><ele>430.66666666666663</ele><time>2026-04-18T13:26:32.369Z</time></trkpt><trkpt lat="45.07287" lon="7.9706083"><ele>436.33333333333337</ele><time>2026-04-18T13:26:33.368Z</time></trkpt><trkpt lat="45.073" lon="7.9705117"><ele>442.0</ele><time>2026-04-18T13:26:34.369Z</time></trkpt><trkpt lat="45.0731417" lon="7.9704133"><ele>441.33333333333337</ele><time>2026-04-18T13:26:35.369Z</time></trkpt><trkpt lat="45.0732833" lon="7.9703167"><ele>440.66666666666663</ele><time>2026-04-18T13:26:36.368Z</time></trkpt><trkpt lat="45.0734083" lon="7.9702033"><ele>440.0</ele><time>2026-04-18T13:26:37.369Z</time></trkpt><trkpt lat="45.0735383" lon="7.9700833"><ele>445.0</ele><time>2026-04-18T13:26:38.369Z</time></trkpt><trkpt lat="45.073655" lon="7.9699367"><ele>450.0</ele><time>2026-04-18T13:26:39.369Z</time></trkpt><trkpt lat="45.07376" lon="7.9697833"><ele>455.0</ele><time>2026-04-18T13:26:40.368Z</time></trkpt><trkpt lat="45.0738583" lon="7.9696533"><ele>460.0</ele><time>2026-04-18T13:26:41.369Z</time></trkpt><trkpt lat="45.0739683" lon="7.9695467"><ele>460.0</ele><time>2026-04-18T13:26:42.369Z</time></trkpt><trkpt lat="45.07408" lon="7.969445"><ele>460.0</ele><time>2026-04-18T13:26:43.369Z</time></trkpt><trkpt lat="45.074205" lon="7.96939"><ele>460.0</ele><time>2026-04-18T13:26:44.368Z</time></trkpt><trkpt lat="45.074335" lon="7.969395"><ele>460.0</ele><time>2026-04-18T13:26:45.369Z</time></trkpt><trkpt lat="45.0744617" lon="7.9694533"><ele>460.5</ele><time>2026-04-18T13:26:46.369Z</time></trkpt><trkpt lat="45.074585" lon="7.9695233"><ele>461.0</ele><time>2026-04-18T13:26:47.369Z</time></trkpt><trkpt lat="45.0747133" lon="7.9695817"><ele>461.5</ele><time>2026-04-18T13:26:48.369Z</time></trkpt><trkpt lat="45.0748367" lon="7.969635"><ele>462.0</ele><time>2026-04-18T13:26:49.369Z</time></trkpt><trkpt lat="45.0749683" lon="7.9696917"><ele>462.0</ele><time>2026-04-18T13:26:50.369Z</time></trkpt><trkpt lat="45.0751" lon="7.969765"><ele>462.0</ele><time>2026-04-18T13:26:51.369Z</time></trkpt><trkpt lat="45.0752117" lon="7.9698583"><ele>462.0</ele><time>2026-04-18T13:26:52.369Z</time></trkpt><trkpt lat="45.0752917" lon="7.9699883"><ele>462.0</ele><time>2026-04-18T13:26:53.369Z</time></trkpt><trkpt lat="45.075335" lon="7.97014"><ele>460.75</ele><time>2026-04-18T13:26:54.369Z</time></trkpt><trkpt lat="45.0753383" lon="7.970325"><ele>459.5</ele><time>2026-04-18T13:26:55.369Z</time></trkpt><trkpt lat="45.0753467" lon="7.970495"><ele>458.25</ele><time>2026-04-18T13:26:56.369Z</time></trkpt><trkpt lat="45.075385" lon="7.9706417"><ele>457.0</ele><time>2026-04-18T13:26:57.369Z</time></trkpt><trkpt lat="45.0754517" lon="7.9707833"><ele>456.0</ele><time>2026-04-18T13:26:58.368Z</time></trkpt><trkpt lat="45.0755467" lon="7.9709133"><ele>455.0</ele><time>2026-04-18T13:26:59.369Z</time></trkpt><trkpt lat="45.0756333" lon="7.971045"><ele>454.0</ele><time>2026-04-18T13:27:00.368Z</time></trkpt><trkpt lat="45.0756967" lon="7.9712"><ele>453.0</ele><time>2026-04-18T13:27:01.369Z</time></trkpt><trkpt lat="45.0757367" lon="7.97136"><ele>453.0</ele><time>2026-04-18T13:27:02.369Z</time></trkpt><trkpt lat="45.0757617" lon="7.9715417"><ele>453.0</ele><time>2026-04-18T13:27:03.369Z</time></trkpt><trkpt lat="45.075745" lon="7.9717333"><ele>453.0</ele><time>2026-04-18T13:27:04.369Z</time></trkpt><trkpt lat="45.0757217" lon="7.9719267"><ele>453.0</ele><time>2026-04-18T13:27:05.369Z</time></trkpt><trkpt lat="45.07568" lon="7.972105"><ele>455.75</ele><time>2026-04-18T13:27:06.369Z</time></trkpt><trkpt lat="45.0756217" lon="7.9722533"><ele>458.5</ele><time>2026-04-18T13:27:07.369Z</time></trkpt><trkpt lat="45.0755433" lon="7.9723833"><ele>461.25</ele><time>2026-04-18T13:27:08.369Z</time></trkpt><trkpt lat="45.0754433" lon="7.9725"><ele>464.0</ele><time>2026-04-18T13:27:09.369Z</time></trkpt><trkpt lat="45.0753533" lon="7.9726067"><ele>464.8333333333333</ele><time>2026-04-18T13:27:10.369Z</time></trkpt><trkpt lat="45.075285" lon="7.9727"><ele>465.66666666666663</ele><time>2026-04-18T13:27:11.368Z</time></trkpt><trkpt lat="45.075245" lon="7.972795"><ele>466.5</ele><time>2026-04-18T13:27:12.369Z</time></trkpt><trkpt lat="45.0752267" lon="7.9729083"><ele>467.33333333333337</ele><time>2026-04-18T13:27:13.368Z</time></trkpt><trkpt lat="45.0752283" lon="7.973005"><ele>468.1666666666667</ele><time>2026-04-18T13:27:14.369Z</time></trkpt><trkpt lat="45.0753267" lon="7.97307"><ele>469.0</ele><time>2026-04-18T13:27:16.369Z</time></trkpt><trkpt lat="45.0754133" lon="7.9730133"><ele>469.0</ele><time>2026-04-18T13:27:17.369Z</time></trkpt><trkpt lat="45.075505" lon="7.97288"><ele>469.0</ele><time>2026-04-18T13:27:18.369Z</time></trkpt><trkpt lat="45.0756117" lon="7.9726967"><ele>469.0</ele><time>2026-04-18T13:27:19.369Z</time></trkpt><trkpt lat="45.0757067" lon="7.9725283"><ele>473.5</ele><time>2026-04-18T13:27:20.367Z</time></trkpt><trkpt lat="45.0757967" lon="7.9723883"><ele>478.0</ele><time>2026-04-18T13:27:21.368Z</time></trkpt><trkpt lat="45.0758667" lon="7.972255"><ele>482.5</ele><time>2026-04-18T13:27:22.367Z</time></trkpt><trkpt lat="45.0759217" lon="7.9720933"><ele>487.0</ele><time>2026-04-18T13:27:23.368Z</time></trkpt><trkpt lat="45.07598" lon="7.9719217"><ele>487.0</ele><time>2026-04-18T13:27:24.368Z</time></trkpt><trkpt lat="45.076025" lon="7.971755"><ele>487.0</ele><time>2026-04-18T13:27:25.367Z</time></trkpt><trkpt lat="45.0760867" lon="7.9716167"><ele>487.0</ele><time>2026-04-18T13:27:26.367Z</time></trkpt><trkpt lat="45.0761633" lon="7.9715"><ele>487.0</ele><time>2026-04-18T13:27:27.368Z</time></trkpt><trkpt lat="45.0762333" lon="7.97138"><ele>485.8</ele><time>2026-04-18T13:27:28.368Z</time></trkpt><trkpt lat="45.0762733" lon="7.9712533"><ele>484.6</ele><time>2026-04-18T13:27:29.368Z</time></trkpt><trkpt lat="45.0762917" lon="7.97112"><ele>483.40000000000003</ele><time>2026-04-18T13:27:30.368Z</time></trkpt><trkpt lat="45.07628" lon="7.9709817"><ele>482.20000000000005</ele><time>2026-04-18T13:27:31.368Z</time></trkpt><trkpt lat="45.076245" lon="7.9708467"><ele>481.0</ele><time>2026-04-18T13:27:32.368Z</time></trkpt><trkpt lat="45.0761917" lon="7.9707217"><ele>481.0</ele><time>2026-04-18T13:27:33.368Z</time></trkpt><trkpt lat="45.0761317" lon="7.9706"><ele>481.0</ele><time>2026-04-18T13:27:34.368Z</time></trkpt><trkpt lat="45.0760867" lon="7.9704567"><ele>481.0</ele><time>2026-04-18T13:27:35.368Z</time></trkpt><trkpt lat="45.0760683" lon="7.9703167"><ele>481.0</ele><time>2026-04-18T13:27:36.367Z</time></trkpt><trkpt lat="45.076075" lon="7.970165"><ele>481.0</ele><time>2026-04-18T13:27:37.368Z</time></trkpt><trkpt lat="45.0760983" lon="7.970015"><ele>482.5</ele><time>2026-04-18T13:27:38.368Z</time></trkpt><trkpt lat="45.0761217" lon="7.9698517"><ele>484.0</ele><time>2026-04-18T13:27:39.368Z</time></trkpt><trkpt lat="45.0761467" lon="7.9696833"><ele>485.5</ele><time>2026-04-18T13:27:40.367Z</time></trkpt><trkpt lat="45.076175" lon="7.9695117"><ele>487.0</ele><time>2026-04-18T13:27:41.368Z</time></trkpt><trkpt lat="45.07621" lon="7.9693483"><ele>487.8</ele><time>2026-04-18T13:27:42.367Z</time></trkpt><trkpt lat="45.0762483" lon="7.96919"><ele>488.6</ele><time>2026-04-18T13:27:43.368Z</time></trkpt><trkpt lat="45.076295" lon="7.96905"><ele>489.40000000000003</ele><time>2026-04-18T13:27:44.368Z</time></trkpt><trkpt lat="45.07634" lon="7.96891"><ele>490.20000000000005</ele><time>2026-04-18T13:27:45.368Z</time></trkpt><trkpt lat="45.07639" lon="7.9687967"><ele>491.0</ele><time>2026-04-18T13:27:46.368Z</time></trkpt><trkpt lat="45.07645" lon="7.9686867"><ele>491.0</ele><time>2026-04-18T13:27:47.368Z</time></trkpt><trkpt lat="45.07652" lon="7.9685767"><ele>491.0</ele><time>2026-04-18T13:27:48.368Z</time></trkpt><trkpt lat="45.0765917" lon="7.9684783"><ele>491.0</ele><time>2026-04-18T13:27:49.368Z</time></trkpt><trkpt lat="45.076685" lon="7.9683883"><ele>491.0</ele><time>2026-04-18T13:27:50.367Z</time></trkpt><trkpt lat="45.0768067" lon="7.9683"><ele>493.66666666666663</ele><time>2026-04-18T13:27:51.368Z</time></trkpt><trkpt lat="45.076945" lon="7.96822"><ele>496.33333333333337</ele><time>2026-04-18T13:27:52.368Z</time></trkpt><trkpt lat="45.0770867" lon="7.9681433"><ele>499.0</ele><time>2026-04-18T13:27:53.368Z</time></trkpt><trkpt lat="45.0772283" lon="7.9680467"><ele>499.0</ele><time>2026-04-18T13:27:54.368Z</time></trkpt><trkpt lat="45.0773783" lon="7.967955"><ele>499.0</ele><time>2026-04-18T13:27:55.368Z</time></trkpt><trkpt lat="45.077525" lon="7.9678633"><ele>499.0</ele><time>2026-04-18T13:27:56.368Z</time></trkpt><trkpt lat="45.0776633" lon="7.9677633"><ele>501.0</ele><time>2026-04-18T13:27:57.368Z</time></trkpt><trkpt lat="45.07779" lon="7.9676717"><ele>503.0</ele><time>2026-04-18T13:27:58.368Z</time></trkpt><trkpt lat="45.07791" lon="7.9676017"><ele>505.0</ele><time>2026-04-18T13:27:59.367Z</time></trkpt><trkpt lat="45.0780467" lon="7.96756"><ele>507.0</ele><time>2026-04-18T13:28:00.368Z</time></trkpt><trkpt lat="45.07818" lon="7.9675533"><ele>507.75</ele><time>2026-04-18T13:28:01.368Z</time></trkpt><trkpt lat="45.07832" lon="7.96758"><ele>508.5</ele><time>2026-04-18T13:28:02.367Z</time></trkpt><trkpt lat="45.07845" lon="7.96764"><ele>509.25</ele><time>2026-04-18T13:28:03.368Z</time></trkpt><trkpt lat="45.07858" lon="7.9677433"><ele>510.0</ele><time>2026-04-18T13:28:04.368Z</time></trkpt><trkpt lat="45.0786933" lon="7.96787"><ele>510.0</ele><time>2026-04-18T13:28:05.368Z</time></trkpt><trkpt lat="45.07879" lon="7.9680183"><ele>510.0</ele><time>2026-04-18T13:28:06.368Z</time></trkpt><trkpt lat="45.0789017" lon="7.9681633"><ele>510.0</ele><time>2026-04-18T13:28:07.367Z</time></trkpt><trkpt lat="45.0790133" lon="7.9683033"><ele>510.0</ele><time>2026-04-18T13:28:08.368Z</time></trkpt><trkpt lat="45.07913" lon="7.9684333"><ele>513.0</ele><time>2026-04-18T13:28:09.368Z</time></trkpt><trkpt lat="45.0792367" lon="7.9685517"><ele>516.0</ele><time>2026-04-18T13:28:10.368Z</time></trkpt><trkpt lat="45.07934" lon="7.9686483"><ele>519.0</ele><time>2026-04-18T13:28:11.368Z</time></trkpt><trkpt lat="45.0794383" lon="7.9687317"><ele>522.0</ele><time>2026-04-18T13:28:12.368Z</time></trkpt><trkpt lat="45.0795217" lon="7.96878"><ele>522.0</ele><time>2026-04-18T13:28:13.368Z</time></trkpt><trkpt lat="45.0796" lon="7.9688"><ele>522.0</ele><time>2026-04-18T13:28:14.368Z</time></trkpt><trkpt lat="45.0796817" lon="7.9687633"><ele>522.0</ele><time>2026-04-18T13:28:15.367Z</time></trkpt><trkpt lat="45.07975" lon="7.96869"><ele>522.0</ele><time>2026-04-18T13:28:16.368Z</time></trkpt><trkpt lat="45.079825" lon="7.9685667"><ele>522.0</ele><time>2026-04-18T13:28:17.368Z</time></trkpt><trkpt lat="45.0799033" lon="7.9684283"><ele>518.0</ele><time>2026-04-18T13:28:18.367Z</time></trkpt><trkpt lat="45.0799967" lon="7.9682917"><ele>514.0</ele><time>2026-04-18T13:28:19.367Z</time></trkpt><trkpt lat="45.080095" lon="7.96814"><ele>510.0</ele><time>2026-04-18T13:28:20.368Z</time></trkpt><trkpt lat="45.080185" lon="7.9679717"><ele>506.0</ele><time>2026-04-18T13:28:21.368Z</time></trkpt><trkpt lat="45.0802667" lon="7.9678083"><ele>506.0</ele><time>2026-04-18T13:28:22.368Z</time></trkpt><trkpt lat="45.0803567" lon="7.9676333"><ele>506.0</ele><time>2026-04-18T13:28:23.368Z</time></trkpt><trkpt lat="45.0804467" lon="7.967445"><ele>506.0</ele><time>2026-04-18T13:28:24.368Z</time></trkpt><trkpt lat="45.0805383" lon="7.96726"><ele>507.0</ele><time>2026-04-18T13:28:25.368Z</time></trkpt><trkpt lat="45.0806233" lon="7.9670733"><ele>508.0</ele><time>2026-04-18T13:28:26.368Z</time></trkpt><trkpt lat="45.080715" lon="7.9668783"><ele>509.0</ele><time>2026-04-18T13:28:27.368Z</time></trkpt><trkpt lat="45.08081" lon="7.9666933"><ele>509.0</ele><time>2026-04-18T13:28:28.368Z</time></trkpt><trkpt lat="45.0809033" lon="7.9665117"><ele>509.0</ele><time>2026-04-18T13:28:29.367Z</time></trkpt><trkpt lat="45.081" lon="7.96633"><ele>509.0</ele><time>2026-04-18T13:28:30.368Z</time></trkpt><trkpt lat="45.0810917" lon="7.9661383"><ele>509.0</ele><time>2026-04-18T13:28:31.368Z</time></trkpt><trkpt lat="45.081185" lon="7.9659483"><ele>509.0</ele><time>2026-04-18T13:28:32.368Z</time></trkpt><trkpt lat="45.0812617" lon="7.9657483"><ele>509.0</ele><time>2026-04-18T13:28:33.368Z</time></trkpt><trkpt lat="45.0813467" lon="7.9655517"><ele>507.0</ele><time>2026-04-18T13:28:34.367Z</time></trkpt><trkpt lat="45.0814067" lon="7.9653333"><ele>505.0</ele><time>2026-04-18T13:28:35.368Z</time></trkpt><trkpt lat="45.08144" lon="7.9651183"><ele>503.0</ele><time>2026-04-18T13:28:36.368Z</time></trkpt><trkpt lat="45.081455" lon="7.9649083"><ele>503.0</ele><time>2026-04-18T13:28:37.368Z</time></trkpt><trkpt lat="45.081475" lon="7.96472"><ele>503.0</ele><time>2026-04-18T13:28:38.367Z</time></trkpt><trkpt lat="45.0815283" lon="7.9645467"><ele>503.0</ele><time>2026-04-18T13:28:39.367Z</time></trkpt><trkpt lat="45.0816" lon="7.9644017"><ele>503.0</ele><time>2026-04-18T13:28:40.367Z</time></trkpt><trkpt lat="45.0816983" lon="7.96428"><ele>508.0</ele><time>2026-04-18T13:28:41.368Z</time></trkpt><trkpt lat="45.08183" lon="7.96419"><ele>513.0</ele><time>2026-04-18T13:28:42.368Z</time></trkpt><trkpt lat="45.08197" lon="7.9641017"><ele>518.0</ele><time>2026-04-18T13:28:43.368Z</time></trkpt><trkpt lat="45.0821133" lon="7.9640233"><ele>518.0</ele><time>2026-04-18T13:28:44.368Z</time></trkpt><trkpt lat="45.0822667" lon="7.9639333"><ele>518.0</ele><time>2026-04-18T13:28:45.367Z</time></trkpt><trkpt lat="45.0824217" lon="7.9638383"><ele>518.0</ele><time>2026-04-18T13:28:46.368Z</time></trkpt><trkpt lat="45.08257" lon="7.96373"><ele>513.0</ele><time>2026-04-18T13:28:47.368Z</time></trkpt><trkpt lat="45.082715" lon="7.9636083"><ele>508.0</ele><time>2026-04-18T13:28:48.368Z</time></trkpt><trkpt lat="45.082855" lon="7.9634783"><ele>503.0</ele><time>2026-04-18T13:28:49.368Z</time></trkpt><trkpt lat="45.0829883" lon="7.9633433"><ele>499.3333333333333</ele><time>2026-04-18T13:28:50.368Z</time></trkpt><trkpt lat="45.0831283" lon="7.9632317"><ele>495.66666666666663</ele><time>2026-04-18T13:28:51.368Z</time></trkpt><trkpt lat="45.0832817" lon="7.963155"><ele>492.0</ele><time>2026-04-18T13:28:52.368Z</time></trkpt><trkpt lat="45.0834533" lon="7.9631117"><ele>491.66666666666663</ele><time>2026-04-18T13:28:53.368Z</time></trkpt><trkpt lat="45.0836183" lon="7.963085"><ele>491.3333333333333</ele><time>2026-04-18T13:28:54.368Z</time></trkpt><trkpt lat="45.083765" lon="7.96304"><ele>491.0</ele><time>2026-04-18T13:28:55.367Z</time></trkpt><trkpt lat="45.0839217" lon="7.9630033"><ele>491.0</ele><time>2026-04-18T13:28:56.367Z</time></trkpt><trkpt lat="45.0840567" lon="7.9629767"><ele>491.0</ele><time>2026-04-18T13:28:57.368Z</time></trkpt><trkpt lat="45.0842" lon="7.96298"><ele>491.0</ele><time>2026-04-18T13:28:58.368Z</time></trkpt><trkpt lat="45.0843433" lon="7.963015"><ele>491.0</ele><time>2026-04-18T13:28:59.368Z</time></trkpt><trkpt lat="45.0844783" lon="7.963085"><ele>490.0</ele><time>2026-04-18T13:29:00.367Z</time></trkpt><trkpt lat="45.0845983" lon="7.9631967"><ele>489.0</ele><time>2026-04-18T13:29:01.367Z</time></trkpt><trkpt lat="45.0846967" lon="7.96334"><ele>488.0</ele><time>2026-04-18T13:29:02.367Z</time></trkpt><trkpt lat="45.0848117" lon="7.9634667"><ele>487.0</ele><time>2026-04-18T13:29:03.368Z</time></trkpt><trkpt lat="45.0849167" lon="7.9635483"><ele>487.0</ele><time>2026-04-18T13:29:04.368Z</time></trkpt><trkpt lat="45.08502" lon="7.963555"><ele>487.0</ele><time>2026-04-18T13:29:05.367Z</time></trkpt><trkpt lat="45.0851133" lon="7.9634983"><ele>487.0</ele><time>2026-04-18T13:29:06.368Z</time></trkpt><trkpt lat="45.085185" lon="7.9633633"><ele>487.0</ele><time>2026-04-18T13:29:07.368Z</time></trkpt><trkpt lat="45.0852183" lon="7.96319"><ele>487.0</ele><time>2026-04-18T13:29:08.367Z</time></trkpt><trkpt lat="45.085275" lon="7.9629967"><ele>487.0</ele><time>2026-04-18T13:29:09.368Z</time></trkpt><trkpt lat="45.0853783" lon="7.96285"><ele>487.0</ele><time>2026-04-18T13:29:10.367Z</time></trkpt><trkpt lat="45.0855133" lon="7.962765"><ele>487.0</ele><time>2026-04-18T13:29:11.368Z</time></trkpt><trkpt lat="45.0856667" lon="7.962725"><ele>479.33333333333337</ele><time>2026-04-18T13:29:12.368Z</time></trkpt><trkpt lat="45.085815" lon="7.9627367"><ele>471.66666666666663</ele><time>2026-04-18T13:29:13.368Z</time></trkpt><trkpt lat="45.08597" lon="7.962745"><ele>464.0</ele><time>2026-04-18T13:29:14.368Z</time></trkpt><trkpt lat="45.0861317" lon="7.9627583"><ele>464.0</ele><time>2026-04-18T13:29:15.368Z</time></trkpt><trkpt lat="45.0863033" lon="7.9627667"><ele>464.0</ele><time>2026-04-18T13:29:16.368Z</time></trkpt><trkpt lat="45.086475" lon="7.962755"><ele>464.0</ele><time>2026-04-18T13:29:17.368Z</time></trkpt><trkpt lat="45.08663" lon="7.9627317"><ele>461.0</ele><time>2026-04-18T13:29:18.368Z</time></trkpt><trkpt lat="45.0867783" lon="7.96267"><ele>458.0</ele><time>2026-04-18T13:29:19.368Z</time></trkpt><trkpt lat="45.0869433" lon="7.962585"><ele>455.0</ele><time>2026-04-18T13:29:20.367Z</time></trkpt><trkpt lat="45.0871083" lon="7.962505"><ele>454.66666666666663</ele><time>2026-04-18T13:29:21.368Z</time></trkpt><trkpt lat="45.087275" lon="7.9624283"><ele>454.33333333333337</ele><time>2026-04-18T13:29:22.367Z</time></trkpt><trkpt lat="45.0874217" lon="7.9623417"><ele>454.0</ele><time>2026-04-18T13:29:23.368Z</time></trkpt><trkpt lat="45.087555" lon="7.9622433"><ele>454.0</ele><time>2026-04-18T13:29:24.368Z</time></trkpt><trkpt lat="45.087675" lon="7.9621817"><ele>454.0</ele><time>2026-04-18T13:29:25.368Z</time></trkpt><trkpt lat="45.0877817" lon="7.962145"><ele>454.0</ele><time>2026-04-18T13:29:26.368Z</time></trkpt><trkpt lat="45.0878833" lon="7.9621683"><ele>454.0</ele><time>2026-04-18T13:29:27.368Z</time></trkpt><trkpt lat="45.0879667" lon="7.9622683"><ele>454.0</ele><time>2026-04-18T13:29:28.368Z</time></trkpt><trkpt lat="45.0879867" lon="7.9624117"><ele>454.0</ele><time>2026-04-18T13:29:29.368Z</time></trkpt><trkpt lat="45.087965" lon="7.962565"><ele>454.0</ele><time>2026-04-18T13:29:30.368Z</time></trkpt><trkpt lat="45.0878883" lon="7.9626783"><ele>454.0</ele><time>2026-04-18T13:29:31.368Z</time></trkpt><trkpt lat="45.0877633" lon="7.9627617"><ele>452.5</ele><time>2026-04-18T13:29:32.368Z</time></trkpt><trkpt lat="45.08765" lon="7.9628617"><ele>451.0</ele><time>2026-04-18T13:29:33.368Z</time></trkpt><trkpt lat="45.087565" lon="7.963015"><ele>449.5</ele><time>2026-04-18T13:29:34.367Z</time></trkpt><trkpt lat="45.0875183" lon="7.9631817"><ele>448.0</ele><time>2026-04-18T13:29:35.368Z</time></trkpt><trkpt lat="45.0875167" lon="7.9633317"><ele>448.5</ele><time>2026-04-18T13:29:36.367Z</time></trkpt><trkpt lat="45.0875667" lon="7.9634567"><ele>449.0</ele><time>2026-04-18T13:29:37.368Z</time></trkpt><trkpt lat="45.0876483" lon="7.9635317"><ele>449.5</ele><time>2026-04-18T13:29:38.368Z</time></trkpt><trkpt lat="45.087775" lon="7.9635683"><ele>450.0</ele><time>2026-04-18T13:29:39.367Z</time></trkpt><trkpt lat="45.0879133" lon="7.9636233"><ele>450.0</ele><time>2026-04-18T13:29:40.367Z</time></trkpt><trkpt lat="45.0880417" lon="7.96371"><ele>450.0</ele><time>2026-04-18T13:29:41.368Z</time></trkpt><trkpt lat="45.088165" lon="7.9638183"><ele>450.0</ele><time>2026-04-18T13:29:42.368Z</time></trkpt><trkpt lat="45.0882983" lon="7.963945"><ele>450.0</ele><time>2026-04-18T13:29:43.368Z</time></trkpt><trkpt lat="45.08843" lon="7.964075"><ele>444.66666666666663</ele><time>2026-04-18T13:29:44.368Z</time></trkpt><trkpt lat="45.0885633" lon="7.9641983"><ele>439.3333333333333</ele><time>2026-04-18T13:29:45.368Z</time></trkpt><trkpt lat="45.0886933" lon="7.9643267"><ele>434.0</ele><time>2026-04-18T13:29:46.367Z</time></trkpt><trkpt lat="45.08881" lon="7.9644717"><ele>434.0</ele><time>2026-04-18T13:29:47.367Z</time></trkpt><trkpt lat="45.0889083" lon="7.9646267"><ele>434.0</ele><time>2026-04-18T13:29:48.368Z</time></trkpt><trkpt lat="45.088995" lon="7.964795"><ele>434.0</ele><time>2026-04-18T13:29:49.368Z</time></trkpt><trkpt lat="45.0890833" lon="7.9649483"><ele>434.0</ele><time>2026-04-18T13:29:50.368Z</time></trkpt><trkpt lat="45.0891617" lon="7.965085"><ele>429.6</ele><time>2026-04-18T13:29:51.368Z</time></trkpt><trkpt lat="45.089245" lon="7.9652033"><ele>425.2</ele><time>2026-04-18T13:29:52.368Z</time></trkpt><trkpt lat="45.08932" lon="7.9652667"><ele>420.8</ele><time>2026-04-18T13:29:53.368Z</time></trkpt><trkpt lat="45.08941" lon="7.965285"><ele>416.40000000000003</ele><time>2026-04-18T13:29:54.368Z</time></trkpt><trkpt lat="45.08949" lon="7.96527"><ele>412.0</ele><time>2026-04-18T13:29:55.368Z</time></trkpt><trkpt lat="45.0895583" lon="7.965195"><ele>412.0</ele><time>2026-04-18T13:29:56.367Z</time></trkpt><trkpt lat="45.089595" lon="7.965055"><ele>412.0</ele><time>2026-04-18T13:29:57.367Z</time></trkpt><trkpt lat="45.089575" lon="7.9648817"><ele>412.0</ele><time>2026-04-18T13:29:58.367Z</time></trkpt><trkpt lat="45.08952" lon="7.964695"><ele>412.0</ele><time>2026-04-18T13:29:59.368Z</time></trkpt><trkpt lat="45.0894433" lon="7.96451"><ele>413.6</ele><time>2026-04-18T13:30:00.368Z</time></trkpt><trkpt lat="45.089375" lon="7.9643417"><ele>415.20000000000005</ele><time>2026-04-18T13:30:01.368Z</time></trkpt><trkpt lat="45.08934" lon="7.9642"><ele>416.8</ele><time>2026-04-18T13:30:02.368Z</time></trkpt><trkpt lat="45.089365" lon="7.9640933"><ele>418.4</ele><time>2026-04-18T13:30:03.367Z</time></trkpt><trkpt lat="45.089415" lon="7.9640217"><ele>420.0</ele><time>2026-04-18T13:30:04.368Z</time></trkpt><trkpt lat="45.0894817" lon="7.96401"><ele>420.0</ele><time>2026-04-18T13:30:05.368Z</time></trkpt><trkpt lat="45.0895617" lon="7.964075"><ele>420.0</ele><time>2026-04-18T13:30:06.368Z</time></trkpt><trkpt lat="45.0896517" lon="7.964195"><ele>420.0</ele><time>2026-04-18T13:30:07.368Z</time></trkpt><trkpt lat="45.0897717" lon="7.964345"><ele>420.0</ele><time>2026-04-18T13:30:08.368Z</time></trkpt><trkpt lat="45.0899267" lon="7.9644567"><ele>420.33333333333337</ele><time>2026-04-18T13:30:09.367Z</time></trkpt><trkpt lat="45.0900883" lon="7.9645033"><ele>420.6666666666667</ele><time>2026-04-18T13:30:10.368Z</time></trkpt><trkpt lat="45.09025" lon="7.9644767"><ele>421.0</ele><time>2026-04-18T13:30:11.367Z</time></trkpt><trkpt lat="45.0904267" lon="7.9644383"><ele>421.0</ele><time>2026-04-18T13:30:12.367Z</time></trkpt><trkpt lat="45.0905917" lon="7.9643883"><ele>421.0</ele><time>2026-04-18T13:30:13.368Z</time></trkpt><trkpt lat="45.090745" lon="7.9643517"><ele>421.0</ele><time>2026-04-18T13:30:14.367Z</time></trkpt><trkpt lat="45.09089" lon="7.9643167"><ele>421.0</ele><time>2026-04-18T13:30:15.367Z</time></trkpt><trkpt lat="45.0910367" lon="7.9642833"><ele>421.0</ele><time>2026-04-18T13:30:16.368Z</time></trkpt><trkpt lat="45.09118" lon="7.9642483"><ele>421.0</ele><time>2026-04-18T13:30:17.367Z</time></trkpt><trkpt lat="45.0913133" lon="7.9641917"><ele>421.0</ele><time>2026-04-18T13:30:18.368Z</time></trkpt><trkpt lat="45.0914333" lon="7.96409"><ele>417.25</ele><time>2026-04-18T13:30:19.368Z</time></trkpt><trkpt lat="45.0915067" lon="7.963935"><ele>413.5</ele><time>2026-04-18T13:30:20.368Z</time></trkpt><trkpt lat="45.0915433" lon="7.96374"><ele>409.75</ele><time>2026-04-18T13:30:21.367Z</time></trkpt><trkpt lat="45.091505" lon="7.963545"><ele>406.0</ele><time>2026-04-18T13:30:22.367Z</time></trkpt><trkpt lat="45.0914367" lon="7.9633417"><ele>403.0</ele><time>2026-04-18T13:30:23.368Z</time></trkpt><trkpt lat="45.0913783" lon="7.9631383"><ele>400.0</ele><time>2026-04-18T13:30:24.368Z</time></trkpt><trkpt lat="45.0913267" lon="7.9629183"><ele>397.0</ele><time>2026-04-18T13:30:25.368Z</time></trkpt><trkpt lat="45.0912883" lon="7.9627017"><ele>397.75</ele><time>2026-04-18T13:30:26.368Z</time></trkpt><trkpt lat="45.0912717" lon="7.9624967"><ele>398.5</ele><time>2026-04-18T13:30:27.368Z</time></trkpt><trkpt lat="45.0912933" lon="7.9622917"><ele>399.25</ele><time>2026-04-18T13:30:28.367Z</time></trkpt><trkpt lat="45.091345" lon="7.9620983"><ele>400.0</ele><time>2026-04-18T13:30:29.368Z</time></trkpt><trkpt lat="45.0914183" lon="7.9619183"><ele>400.0</ele><time>2026-04-18T13:30:30.367Z</time></trkpt><trkpt lat="45.0915117" lon="7.9617517"><ele>400.0</ele><time>2026-04-18T13:30:31.367Z</time></trkpt><trkpt lat="45.0916083" lon="7.961585"><ele>400.0</ele><time>2026-04-18T13:30:32.368Z</time></trkpt><trkpt lat="45.091695" lon="7.96141"><ele>394.33333333333337</ele><time>2026-04-18T13:30:33.368Z</time></trkpt><trkpt lat="45.09179" lon="7.9612317"><ele>388.6666666666667</ele><time>2026-04-18T13:30:34.367Z</time></trkpt><trkpt lat="45.091885" lon="7.9610583"><ele>383.0</ele><time>2026-04-18T13:30:35.368Z</time></trkpt><trkpt lat="45.0919717" lon="7.9608883"><ele>383.25</ele><time>2026-04-18T13:30:36.368Z</time></trkpt><trkpt lat="45.0920567" lon="7.96073"><ele>383.5</ele><time>2026-04-18T13:30:37.367Z</time></trkpt><trkpt lat="45.0921433" lon="7.9605733"><ele>383.75</ele><time>2026-04-18T13:30:38.368Z</time></trkpt><trkpt lat="45.0922317" lon="7.960415"><ele>384.0</ele><time>2026-04-18T13:30:39.368Z</time></trkpt><trkpt lat="45.0923167" lon="7.9602517"><ele>384.0</ele><time>2026-04-18T13:30:40.368Z</time></trkpt><trkpt lat="45.0924033" lon="7.9600783"><ele>384.0</ele><time>2026-04-18T13:30:41.368Z</time></trkpt><trkpt lat="45.092485" lon="7.959905"><ele>384.0</ele><time>2026-04-18T13:30:42.368Z</time></trkpt><trkpt lat="45.0925733" lon="7.95974"><ele>384.0</ele><time>2026-04-18T13:30:43.367Z</time></trkpt><trkpt lat="45.09266" lon="7.9595683"><ele>382.75</ele><time>2026-04-18T13:30:44.368Z</time></trkpt><trkpt lat="45.0927117" lon="7.9593883"><ele>381.5</ele><time>2026-04-18T13:30:45.368Z</time></trkpt><trkpt lat="45.0927567" lon="7.9591867"><ele>380.25</ele><time>2026-04-18T13:30:46.368Z</time></trkpt><trkpt lat="45.09277" lon="7.9589933"><ele>379.0</ele><time>2026-04-18T13:30:47.368Z</time></trkpt><trkpt lat="45.0927867" lon="7.9587933"><ele>378.5</ele><time>2026-04-18T13:30:48.368Z</time></trkpt><trkpt lat="45.092795" lon="7.9585917"><ele>378.0</ele><time>2026-04-18T13:30:49.368Z</time></trkpt><trkpt lat="45.092805" lon="7.958385"><ele>377.5</ele><time>2026-04-18T13:30:50.368Z</time></trkpt><trkpt lat="45.09282" lon="7.95817"><ele>377.0</ele><time>2026-04-18T13:30:51.368Z</time></trkpt><trkpt lat="45.09284" lon="7.9579567"><ele>377.0</ele><time>2026-04-18T13:30:52.368Z</time></trkpt><trkpt lat="45.092845" lon="7.95774"><ele>377.0</ele><time>2026-04-18T13:30:53.368Z</time></trkpt><trkpt lat="45.0928467" lon="7.9575183"><ele>377.0</ele><time>2026-04-18T13:30:54.368Z</time></trkpt><trkpt lat="45.0928733" lon="7.9573217"><ele>377.5</ele><time>2026-04-18T13:30:55.368Z</time></trkpt><trkpt lat="45.0929433" lon="7.9571583"><ele>378.0</ele><time>2026-04-18T13:30:56.368Z</time></trkpt><trkpt lat="45.09305" lon="7.957025"><ele>378.5</ele><time>2026-04-18T13:30:57.368Z</time></trkpt><trkpt lat="45.0931783" lon="7.95693"><ele>379.0</ele><time>2026-04-18T13:30:58.368Z</time></trkpt><trkpt lat="45.0933017" lon="7.9568233"><ele>381.5</ele><time>2026-04-18T13:30:59.368Z</time></trkpt><trkpt lat="45.09343" lon="7.95672"><ele>384.0</ele><time>2026-04-18T13:31:00.368Z</time></trkpt><trkpt lat="45.093555" lon="7.95662"><ele>386.5</ele><time>2026-04-18T13:31:01.367Z</time></trkpt><trkpt lat="45.0936817" lon="7.956505"><ele>389.0</ele><time>2026-04-18T13:31:02.368Z</time></trkpt><trkpt lat="45.0938" lon="7.9563683"><ele>389.0</ele><time>2026-04-18T13:31:03.368Z</time></trkpt><trkpt lat="45.09392" lon="7.9562167"><ele>389.0</ele><time>2026-04-18T13:31:04.367Z</time></trkpt><trkpt lat="45.0940367" lon="7.956075"><ele>389.0</ele><time>2026-04-18T13:31:05.367Z</time></trkpt><trkpt lat="45.0941517" lon="7.9559317"><ele>390.3333333333333</ele><time>2026-04-18T13:31:06.367Z</time></trkpt><trkpt lat="45.0942717" lon="7.9558017"><ele>391.66666666666663</ele><time>2026-04-18T13:31:07.367Z</time></trkpt><trkpt lat="45.09439" lon="7.955675"><ele>393.0</ele><time>2026-04-18T13:31:08.368Z</time></trkpt><trkpt lat="45.0945083" lon="7.9555383"><ele>393.0</ele><time>2026-04-18T13:31:09.368Z</time></trkpt><trkpt lat="45.0946233" lon="7.955395"><ele>393.0</ele><time>2026-04-18T13:31:10.368Z</time></trkpt><trkpt lat="45.09473" lon="7.9552533"><ele>393.0</ele><time>2026-04-18T13:31:11.367Z</time></trkpt><trkpt lat="45.09484" lon="7.95512"><ele>393.0</ele><time>2026-04-18T13:31:12.368Z</time></trkpt><trkpt lat="45.094945" lon="7.9549817"><ele>393.5</ele><time>2026-04-18T13:31:13.368Z</time></trkpt><trkpt lat="45.095035" lon="7.95486"><ele>394.0</ele><time>2026-04-18T13:31:14.368Z</time></trkpt><trkpt lat="45.0951133" lon="7.9547117"><ele>394.5</ele><time>2026-04-18T13:31:15.368Z</time></trkpt><trkpt lat="45.095195" lon="7.9545683"><ele>395.0</ele><time>2026-04-18T13:31:16.368Z</time></trkpt><trkpt lat="45.0952767" lon="7.95443"><ele>395.0</ele><time>2026-04-18T13:31:17.368Z</time></trkpt><trkpt lat="45.0953467" lon="7.9542867"><ele>395.0</ele><time>2026-04-18T13:31:18.367Z</time></trkpt><trkpt lat="45.0954033" lon="7.9541283"><ele>395.0</ele><time>2026-04-18T13:31:19.367Z</time></trkpt><trkpt lat="45.095445" lon="7.953965"><ele>395.0</ele><time>2026-04-18T13:31:20.368Z</time></trkpt><trkpt lat="45.0954717" lon="7.9537983"><ele>394.8</ele><time>2026-04-18T13:31:21.368Z</time></trkpt><trkpt lat="45.0954717" lon="7.9536383"><ele>394.6</ele><time>2026-04-18T13:31:22.368Z</time></trkpt><trkpt lat="45.0954683" lon="7.953495"><ele>394.4</ele><time>2026-04-18T13:31:23.367Z</time></trkpt><trkpt lat="45.0954417" lon="7.9533633"><ele>394.2</ele><time>2026-04-18T13:31:24.367Z</time></trkpt><trkpt lat="45.0953967" lon="7.953255"><ele>394.0</ele><time>2026-04-18T13:31:25.367Z</time></trkpt><trkpt lat="45.09536" lon="7.95316"><ele>394.0</ele><time>2026-04-18T13:31:26.367Z</time></trkpt><trkpt lat="45.09531" lon="7.95305"><ele>394.0</ele><time>2026-04-18T13:31:28.368Z</time></trkpt><trkpt lat="45.0953933" lon="7.9529467"><ele>394.0</ele><time>2026-04-18T13:31:32.367Z</time></trkpt><trkpt lat="45.0954667" lon="7.9529"><ele>394.0</ele><time>2026-04-18T13:31:33.368Z</time></trkpt><trkpt lat="45.0955483" lon="7.9528233"><ele>394.0</ele><time>2026-04-18T13:31:34.367Z</time></trkpt><trkpt lat="45.0956333" lon="7.9527317"><ele>394.0</ele><time>2026-04-18T13:31:35.367Z</time></trkpt><trkpt lat="45.095715" lon="7.9526333"><ele>394.0</ele><time>2026-04-18T13:31:36.368Z</time></trkpt><trkpt lat="45.0957883" lon="7.9525467"><ele>394.0</ele><time>2026-04-18T13:31:37.368Z</time></trkpt><trkpt lat="45.0958667" lon="7.952435"><ele>394.0</ele><time>2026-04-18T13:31:38.368Z</time></trkpt><trkpt lat="45.0959517" lon="7.9523417"><ele>394.0</ele><time>2026-04-18T13:31:39.368Z</time></trkpt><trkpt lat="45.0960417" lon="7.9522533"><ele>393.5</ele><time>2026-04-18T13:31:40.368Z</time></trkpt><trkpt lat="45.09615" lon="7.9521733"><ele>393.0</ele><time>2026-04-18T13:31:41.368Z</time></trkpt><trkpt lat="45.096265" lon="7.9521033"><ele>392.5</ele><time>2026-04-18T13:31:42.368Z</time></trkpt><trkpt lat="45.0964033" lon="7.952055"><ele>392.0</ele><time>2026-04-18T13:31:43.367Z</time></trkpt><trkpt lat="45.0965483" lon="7.9520033"><ele>393.3333333333333</ele><time>2026-04-18T13:31:44.368Z</time></trkpt><trkpt lat="45.0966917" lon="7.9519367"><ele>394.66666666666663</ele><time>2026-04-18T13:31:45.368Z</time></trkpt><trkpt lat="45.0968317" lon="7.951855"><ele>396.0</ele><time>2026-04-18T13:31:46.368Z</time></trkpt><trkpt lat="45.0969617" lon="7.9517433"><ele>391.5</ele><time>2026-04-18T13:31:47.367Z</time></trkpt><trkpt lat="45.0970867" lon="7.9516283"><ele>387.0</ele><time>2026-04-18T13:31:48.367Z</time></trkpt><trkpt lat="45.0972033" lon="7.9515317"><ele>382.5</ele><time>2026-04-18T13:31:49.368Z</time></trkpt><trkpt lat="45.097315" lon="7.9514367"><ele>378.0</ele><time>2026-04-18T13:31:50.368Z</time></trkpt><trkpt lat="45.0974167" lon="7.9513517"><ele>379.0</ele><time>2026-04-18T13:31:51.368Z</time></trkpt><trkpt lat="45.09751" lon="7.95127"><ele>380.0</ele><time>2026-04-18T13:31:52.368Z</time></trkpt><trkpt lat="45.097575" lon="7.9511867"><ele>381.0</ele><time>2026-04-18T13:31:53.367Z</time></trkpt><trkpt lat="45.0976317" lon="7.9511117"><ele>382.0</ele><time>2026-04-18T13:31:54.368Z</time></trkpt><trkpt lat="45.09764" lon="7.95102"><ele>383.0</ele><time>2026-04-18T13:31:55.368Z</time></trkpt><trkpt lat="45.0976167" lon="7.950935"><ele>384.0</ele><time>2026-04-18T13:31:56.368Z</time></trkpt><trkpt lat="45.0974967" lon="7.9508883"><ele>382.5</ele><time>2026-04-18T13:31:58.367Z</time></trkpt><trkpt lat="45.0974" lon="7.9509533"><ele>381.0</ele><time>2026-04-18T13:31:59.368Z</time></trkpt><trkpt lat="45.0972883" lon="7.9510567"><ele>379.5</ele><time>2026-04-18T13:32:00.367Z</time></trkpt><trkpt lat="45.0971617" lon="7.9511733"><ele>378.0</ele><time>2026-04-18T13:32:01.368Z</time></trkpt><trkpt lat="45.097025" lon="7.951275"><ele>378.0</ele><time>2026-04-18T13:32:02.367Z</time></trkpt><trkpt lat="45.09689" lon="7.9513567"><ele>378.0</ele><time>2026-04-18T13:32:03.368Z</time></trkpt><trkpt lat="45.0967667" lon="7.9514"><ele>378.0</ele><time>2026-04-18T13:32:04.367Z</time></trkpt><trkpt lat="45.0966583" lon="7.95143"><ele>378.0</ele><time>2026-04-18T13:32:05.368Z</time></trkpt><trkpt lat="45.0965483" lon="7.9514433"><ele>377.1666666666667</ele><time>2026-04-18T13:32:06.367Z</time></trkpt><trkpt lat="45.0964567" lon="7.9514283"><ele>376.3333333333333</ele><time>2026-04-18T13:32:07.368Z</time></trkpt><trkpt lat="45.096375" lon="7.9513583"><ele>375.5</ele><time>2026-04-18T13:32:08.368Z</time></trkpt><trkpt lat="45.0963367" lon="7.9512417"><ele>374.66666666666663</ele><time>2026-04-18T13:32:09.367Z</time></trkpt><trkpt lat="45.0963433" lon="7.9511233"><ele>373.8333333333333</ele><time>2026-04-18T13:32:10.368Z</time></trkpt><trkpt lat="45.0963933" lon="7.9510233"><ele>373.0</ele><time>2026-04-18T13:32:11.367Z</time></trkpt><trkpt lat="45.096495" lon="7.950935"><ele>369.66666666666663</ele><time>2026-04-18T13:32:12.368Z</time></trkpt><trkpt lat="45.096635" lon="7.950865"><ele>366.3333333333333</ele><time>2026-04-18T13:32:13.368Z</time></trkpt><trkpt lat="45.0968017" lon="7.950815"><ele>363.0</ele><time>2026-04-18T13:32:14.367Z</time></trkpt><trkpt lat="45.0969617" lon="7.9507417"><ele>363.0</ele><time>2026-04-18T13:32:15.368Z</time></trkpt><trkpt lat="45.0971017" lon="7.950625"><ele>363.0</ele><time>2026-04-18T13:32:16.368Z</time></trkpt><trkpt lat="45.0972217" lon="7.9504717"><ele>363.0</ele><time>2026-04-18T13:32:17.368Z</time></trkpt><trkpt lat="45.0973333" lon="7.9503017"><ele>364.3333333333333</ele><time>2026-04-18T13:32:18.368Z</time></trkpt><trkpt lat="45.0974417" lon="7.95014"><ele>365.66666666666663</ele><time>2026-04-18T13:32:19.368Z</time></trkpt><trkpt lat="45.097535" lon="7.9499583"><ele>367.0</ele><time>2026-04-18T13:32:20.368Z</time></trkpt><trkpt lat="45.097625" lon="7.9497667"><ele>364.0</ele><time>2026-04-18T13:32:21.367Z</time></trkpt><trkpt lat="45.0977083" lon="7.949595"><ele>361.0</ele><time>2026-04-18T13:32:22.367Z</time></trkpt><trkpt lat="45.0978" lon="7.94943"><ele>358.0</ele><time>2026-04-18T13:32:23.368Z</time></trkpt><trkpt lat="45.0979067" lon="7.9492867"><ele>355.0</ele><time>2026-04-18T13:32:24.368Z</time></trkpt><trkpt lat="45.0980383" lon="7.949185"><ele>353.66666666666663</ele><time>2026-04-18T13:32:25.368Z</time></trkpt><trkpt lat="45.0981833" lon="7.9490883"><ele>352.3333333333333</ele><time>2026-04-18T13:32:26.367Z</time></trkpt><trkpt lat="45.09832" lon="7.948985"><ele>351.0</ele><time>2026-04-18T13:32:27.368Z</time></trkpt><trkpt lat="45.09844" lon="7.948855"><ele>351.0</ele><time>2026-04-18T13:32:28.368Z</time></trkpt><trkpt lat="45.0985433" lon="7.9486967"><ele>351.0</ele><time>2026-04-18T13:32:29.368Z</time></trkpt><trkpt lat="45.09865" lon="7.94854"><ele>351.0</ele><time>2026-04-18T13:32:30.368Z</time></trkpt><trkpt lat="45.0987633" lon="7.9483967"><ele>349.0</ele><time>2026-04-18T13:32:31.367Z</time></trkpt><trkpt lat="45.09887" lon="7.9482483"><ele>347.0</ele><time>2026-04-18T13:32:32.368Z</time></trkpt><trkpt lat="45.09897" lon="7.9481033"><ele>345.0</ele><time>2026-04-18T13:32:33.367Z</time></trkpt><trkpt lat="45.0990733" lon="7.94796"><ele>343.0</ele><time>2026-04-18T13:32:34.367Z</time></trkpt><trkpt lat="45.0991867" lon="7.9478133"><ele>343.0</ele><time>2026-04-18T13:32:35.368Z</time></trkpt><trkpt lat="45.099315" lon="7.947705"><ele>343.0</ele><time>2026-04-18T13:32:36.367Z</time></trkpt><trkpt lat="45.0994583" lon="7.9476217"><ele>343.0</ele><time>2026-04-18T13:32:37.368Z</time></trkpt><trkpt lat="45.0996133" lon="7.9475667"><ele>340.3333333333333</ele><time>2026-04-18T13:32:38.368Z</time></trkpt><trkpt lat="45.099765" lon="7.947515"><ele>337.6666666666667</ele><time>2026-04-18T13:32:39.368Z</time></trkpt><trkpt lat="45.0999167" lon="7.9474617"><ele>335.0</ele><time>2026-04-18T13:32:40.368Z</time></trkpt><trkpt lat="45.1000583" lon="7.9474033"><ele>334.5</ele><time>2026-04-18T13:32:41.368Z</time></trkpt><trkpt lat="45.1001967" lon="7.9473433"><ele>334.0</ele><time>2026-04-18T13:32:42.367Z</time></trkpt><trkpt lat="45.10033" lon="7.94728"><ele>333.5</ele><time>2026-04-18T13:32:43.368Z</time></trkpt><trkpt lat="45.100445" lon="7.9472317"><ele>333.0</ele><time>2026-04-18T13:32:44.367Z</time></trkpt><trkpt lat="45.10056" lon="7.9471633"><ele>333.0</ele><time>2026-04-18T13:32:45.368Z</time></trkpt><trkpt lat="45.100655" lon="7.94705"><ele>333.0</ele><time>2026-04-18T13:32:46.368Z</time></trkpt><trkpt lat="45.10072" lon="7.9468933"><ele>333.0</ele><time>2026-04-18T13:32:47.368Z</time></trkpt><trkpt lat="45.1007433" lon="7.946695"><ele>333.0</ele><time>2026-04-18T13:32:48.368Z</time></trkpt><trkpt lat="45.1007117" lon="7.9464783"><ele>328.0</ele><time>2026-04-18T13:32:49.368Z</time></trkpt><trkpt lat="45.1006517" lon="7.9462767"><ele>323.0</ele><time>2026-04-18T13:32:50.368Z</time></trkpt><trkpt lat="45.1005867" lon="7.9460633"><ele>318.0</ele><time>2026-04-18T13:32:51.368Z</time></trkpt><trkpt lat="45.1005183" lon="7.9458767"><ele>315.25</ele><time>2026-04-18T13:32:52.368Z</time></trkpt><trkpt lat="45.1004667" lon="7.94568"><ele>312.5</ele><time>2026-04-18T13:32:53.368Z</time></trkpt><trkpt lat="45.10045" lon="7.9454733"><ele>309.75</ele><time>2026-04-18T13:32:54.368Z</time></trkpt><trkpt lat="45.1004817" lon="7.9452617"><ele>307.0</ele><time>2026-04-18T13:32:55.368Z</time></trkpt><trkpt lat="45.10054" lon="7.94507"><ele>305.66666666666663</ele><time>2026-04-18T13:32:56.368Z</time></trkpt><trkpt lat="45.1006083" lon="7.9448767"><ele>304.3333333333333</ele><time>2026-04-18T13:32:57.367Z</time></trkpt><trkpt lat="45.1006883" lon="7.9446883"><ele>303.0</ele><time>2026-04-18T13:32:58.367Z</time></trkpt><trkpt lat="45.1007667" lon="7.9445117"><ele>304.5</ele><time>2026-04-18T13:32:59.367Z</time></trkpt><trkpt lat="45.10085" lon="7.9443533"><ele>306.0</ele><time>2026-04-18T13:33:00.368Z</time></trkpt><trkpt lat="45.100945" lon="7.9442333"><ele>307.5</ele><time>2026-04-18T13:33:01.368Z</time></trkpt><trkpt lat="45.1010583" lon="7.94417"><ele>309.0</ele><time>2026-04-18T13:33:02.367Z</time></trkpt><trkpt lat="45.101185" lon="7.9441733"><ele>309.0</ele><time>2026-04-18T13:33:03.367Z</time></trkpt><trkpt lat="45.1013" lon="7.944175"><ele>309.0</ele><time>2026-04-18T13:33:04.367Z</time></trkpt><trkpt lat="45.1013717" lon="7.944105"><ele>309.0</ele><time>2026-04-18T13:33:05.368Z</time></trkpt><trkpt lat="45.1013983" lon="7.943985"><ele>309.0</ele><time>2026-04-18T13:33:06.368Z</time></trkpt><trkpt lat="45.1013683" lon="7.943875"><ele>309.0</ele><time>2026-04-18T13:33:07.368Z</time></trkpt><trkpt lat="45.1013167" lon="7.9437667"><ele>309.0</ele><time>2026-04-18T13:33:08.368Z</time></trkpt><trkpt lat="45.101245" lon="7.9437083"><ele>309.0</ele><time>2026-04-18T13:33:09.367Z</time></trkpt><trkpt lat="45.10114" lon="7.9437017"><ele>309.0</ele><time>2026-04-18T13:33:10.368Z</time></trkpt><trkpt lat="45.1009933" lon="7.94377"><ele>309.0</ele><time>2026-04-18T13:33:11.368Z</time></trkpt><trkpt lat="45.10084" lon="7.9438933"><ele>307.0</ele><time>2026-04-18T13:33:12.368Z</time></trkpt><trkpt lat="45.1006867" lon="7.9440933"><ele>305.0</ele><time>2026-04-18T13:33:13.367Z</time></trkpt><trkpt lat="45.10055" lon="7.9442717"><ele>303.0</ele><time>2026-04-18T13:33:14.367Z</time></trkpt><trkpt lat="45.100415" lon="7.944435"><ele>303.0</ele><time>2026-04-18T13:33:15.367Z</time></trkpt><trkpt lat="45.1002933" lon="7.9445833"><ele>303.0</ele><time>2026-04-18T13:33:16.368Z</time></trkpt><trkpt lat="45.1001817" lon="7.9447233"><ele>303.0</ele><time>2026-04-18T13:33:17.368Z</time></trkpt><trkpt lat="45.10009" lon="7.9448683"><ele>303.0</ele><time>2026-04-18T13:33:18.367Z</time></trkpt><trkpt lat="45.1000283" lon="7.9450383"><ele>304.0</ele><time>2026-04-18T13:33:19.367Z</time></trkpt><trkpt lat="45.100005" lon="7.9452433"><ele>305.0</ele><time>2026-04-18T13:33:20.368Z</time></trkpt><trkpt lat="45.099995" lon="7.945455"><ele>306.0</ele><time>2026-04-18T13:33:21.368Z</time></trkpt><trkpt lat="45.0999933" lon="7.9456383"><ele>307.0</ele><time>2026-04-18T13:33:22.368Z</time></trkpt><trkpt lat="45.0999717" lon="7.94579"><ele>306.8333333333333</ele><time>2026-04-18T13:33:23.367Z</time></trkpt><trkpt lat="45.09992" lon="7.9459017"><ele>306.66666666666663</ele><time>2026-04-18T13:33:24.368Z</time></trkpt><trkpt lat="45.0998567" lon="7.9459467"><ele>306.5</ele><time>2026-04-18T13:33:25.368Z</time></trkpt><trkpt lat="45.0997933" lon="7.945945"><ele>306.3333333333333</ele><time>2026-04-18T13:33:26.368Z</time></trkpt><trkpt lat="45.099735" lon="7.9458667"><ele>306.1666666666667</ele><time>2026-04-18T13:33:27.367Z</time></trkpt><trkpt lat="45.0997167" lon="7.9457433"><ele>306.0</ele><time>2026-04-18T13:33:28.368Z</time></trkpt><trkpt lat="45.0997317" lon="7.9455883"><ele>306.0</ele><time>2026-04-18T13:33:29.368Z</time></trkpt><trkpt lat="45.09978" lon="7.94542"><ele>306.0</ele><time>2026-04-18T13:33:30.368Z</time></trkpt><trkpt lat="45.0998183" lon="7.9452517"><ele>306.0</ele><time>2026-04-18T13:33:31.368Z</time></trkpt><trkpt lat="45.0998183" lon="7.9450833"><ele>306.0</ele><time>2026-04-18T13:33:32.368Z</time></trkpt><trkpt lat="45.099795" lon="7.94492"><ele>302.0</ele><time>2026-04-18T13:33:33.368Z</time></trkpt><trkpt lat="45.0997867" lon="7.9447517"><ele>298.0</ele><time>2026-04-18T13:33:34.368Z</time></trkpt><trkpt lat="45.0997983" lon="7.9445717"><ele>294.0</ele><time>2026-04-18T13:33:35.368Z</time></trkpt><trkpt lat="45.0998533" lon="7.9443833"><ele>290.0</ele><time>2026-04-18T13:33:36.367Z</time></trkpt><trkpt lat="45.0999133" lon="7.9442017"><ele>292.6666666666667</ele><time>2026-04-18T13:33:37.368Z</time></trkpt><trkpt lat="45.099975" lon="7.9440083"><ele>295.3333333333333</ele><time>2026-04-18T13:33:38.368Z</time></trkpt><trkpt lat="45.1000333" lon="7.9438067"><ele>298.0</ele><time>2026-04-18T13:33:39.368Z</time></trkpt><trkpt lat="45.1000917" lon="7.9436033"><ele>298.0</ele><time>2026-04-18T13:33:40.368Z</time></trkpt><trkpt lat="45.1001533" lon="7.9434117"><ele>298.0</ele><time>2026-04-18T13:33:41.368Z</time></trkpt><trkpt lat="45.100225" lon="7.9432317"><ele>298.0</ele><time>2026-04-18T13:33:42.368Z</time></trkpt><trkpt lat="45.1002917" lon="7.943055"><ele>298.0</ele><time>2026-04-18T13:33:43.367Z</time></trkpt><trkpt lat="45.1003583" lon="7.94288"><ele>295.66666666666663</ele><time>2026-04-18T13:33:44.368Z</time></trkpt><trkpt lat="45.100425" lon="7.94269"><ele>293.3333333333333</ele><time>2026-04-18T13:33:45.367Z</time></trkpt><trkpt lat="45.1004917" lon="7.9424933"><ele>291.0</ele><time>2026-04-18T13:33:46.368Z</time></trkpt><trkpt lat="45.1005633" lon="7.9422917"><ele>291.75</ele><time>2026-04-18T13:33:47.368Z</time></trkpt><trkpt lat="45.1006283" lon="7.9421117"><ele>292.5</ele><time>2026-04-18T13:33:48.367Z</time></trkpt><trkpt lat="45.100705" lon="7.9419317"><ele>293.25</ele><time>2026-04-18T13:33:49.368Z</time></trkpt><trkpt lat="45.1007767" lon="7.941775"><ele>294.0</ele><time>2026-04-18T13:33:50.368Z</time></trkpt><trkpt lat="45.1008717" lon="7.94163"><ele>291.75</ele><time>2026-04-18T13:33:51.368Z</time></trkpt><trkpt lat="45.1009717" lon="7.9415083"><ele>289.5</ele><time>2026-04-18T13:33:52.367Z</time></trkpt><trkpt lat="45.1010717" lon="7.941425"><ele>287.25</ele><time>2026-04-18T13:33:53.368Z</time></trkpt><trkpt lat="45.1011817" lon="7.9414017"><ele>285.0</ele><time>2026-04-18T13:33:54.368Z</time></trkpt><trkpt lat="45.1012767" lon="7.9414317"><ele>285.0</ele><time>2026-04-18T13:33:55.368Z</time></trkpt><trkpt lat="45.101385" lon="7.9414617"><ele>285.0</ele><time>2026-04-18T13:33:56.368Z</time></trkpt><trkpt lat="45.101475" lon="7.9414667"><ele>285.0</ele><time>2026-04-18T13:33:57.368Z</time></trkpt><trkpt lat="45.1015733" lon="7.9414033"><ele>285.0</ele><time>2026-04-18T13:33:58.368Z</time></trkpt><trkpt lat="45.1016767" lon="7.9413067"><ele>285.0</ele><time>2026-04-18T13:33:59.368Z</time></trkpt><trkpt lat="45.10173" lon="7.9411517"><ele>285.75</ele><time>2026-04-18T13:34:00.368Z</time></trkpt><trkpt lat="45.101765" lon="7.940955"><ele>286.5</ele><time>2026-04-18T13:34:01.368Z</time></trkpt><trkpt lat="45.1017867" lon="7.9407517"><ele>287.25</ele><time>2026-04-18T13:34:02.368Z</time></trkpt><trkpt lat="45.1018067" lon="7.9405633"><ele>288.0</ele><time>2026-04-18T13:34:03.368Z</time></trkpt><trkpt lat="45.1018567" lon="7.9404233"><ele>284.75</ele><time>2026-04-18T13:34:04.368Z</time></trkpt><trkpt lat="45.101945" lon="7.9403283"><ele>281.5</ele><time>2026-04-18T13:34:05.367Z</time></trkpt><trkpt lat="45.1020633" lon="7.940265"><ele>278.25</ele><time>2026-04-18T13:34:06.368Z</time></trkpt><trkpt lat="45.1021983" lon="7.9402267"><ele>275.0</ele><time>2026-04-18T13:34:07.368Z</time></trkpt><trkpt lat="45.1023433" lon="7.9401933"><ele>275.75</ele><time>2026-04-18T13:34:08.368Z</time></trkpt><trkpt lat="45.1024933" lon="7.9401483"><ele>276.5</ele><time>2026-04-18T13:34:09.368Z</time></trkpt><trkpt lat="45.1026233" lon="7.940105"><ele>277.25</ele><time>2026-04-18T13:34:10.368Z</time></trkpt><trkpt lat="45.1027467" lon="7.9400683"><ele>278.0</ele><time>2026-04-18T13:34:11.368Z</time></trkpt><trkpt lat="45.1028567" lon="7.9400633"><ele>278.0</ele><time>2026-04-18T13:34:12.368Z</time></trkpt><trkpt lat="45.1029583" lon="7.94011"><ele>278.0</ele><time>2026-04-18T13:34:13.368Z</time></trkpt><trkpt lat="45.1030383" lon="7.9402017"><ele>278.0</ele><time>2026-04-18T13:34:14.368Z</time></trkpt><trkpt lat="45.1031117" lon="7.9403183"><ele>278.0</ele><time>2026-04-18T13:34:15.368Z</time></trkpt><trkpt lat="45.10318" lon="7.9404133"><ele>278.0</ele><time>2026-04-18T13:34:16.368Z</time></trkpt><trkpt lat="45.1032483" lon="7.94047"><ele>276.75</ele><time>2026-04-18T13:34:17.367Z</time></trkpt><trkpt lat="45.1033533" lon="7.940485"><ele>275.5</ele><time>2026-04-18T13:34:18.368Z</time></trkpt><trkpt lat="45.103465" lon="7.9404533"><ele>274.25</ele><time>2026-04-18T13:34:19.367Z</time></trkpt><trkpt lat="45.103575" lon="7.9403983"><ele>273.0</ele><time>2026-04-18T13:34:20.368Z</time></trkpt><trkpt lat="45.1036833" lon="7.9403367"><ele>273.0</ele><time>2026-04-18T13:34:21.368Z</time></trkpt><trkpt lat="45.1037917" lon="7.9402833"><ele>273.0</ele><time>2026-04-18T13:34:22.368Z</time></trkpt><trkpt lat="45.1039017" lon="7.9402533"><ele>273.0</ele><time>2026-04-18T13:34:23.368Z</time></trkpt><trkpt lat="45.104005" lon="7.9402433"><ele>273.0</ele><time>2026-04-18T13:34:24.368Z</time></trkpt><trkpt lat="45.1041133" lon="7.940275"><ele>273.0</ele><time>2026-04-18T13:34:25.368Z</time></trkpt><trkpt lat="45.1042417" lon="7.9403483"><ele>270.25</ele><time>2026-04-18T13:34:26.367Z</time></trkpt><trkpt lat="45.1043633" lon="7.9404417"><ele>267.5</ele><time>2026-04-18T13:34:27.368Z</time></trkpt><trkpt lat="45.1044733" lon="7.940525"><ele>264.75</ele><time>2026-04-18T13:34:28.368Z</time></trkpt><trkpt lat="45.1045817" lon="7.9405967"><ele>262.0</ele><time>2026-04-18T13:34:29.367Z</time></trkpt><trkpt lat="45.1046917" lon="7.9406633"><ele>262.0</ele><time>2026-04-18T13:34:30.368Z</time></trkpt><trkpt lat="45.1048233" lon="7.9407283"><ele>262.0</ele><time>2026-04-18T13:34:31.368Z</time></trkpt><trkpt lat="45.10497" lon="7.9407917"><ele>262.0</ele><time>2026-04-18T13:34:32.368Z</time></trkpt><trkpt lat="45.1051217" lon="7.9408433"><ele>262.0</ele><time>2026-04-18T13:34:33.368Z</time></trkpt><trkpt lat="45.1052867" lon="7.9409083"><ele>259.66666666666663</ele><time>2026-04-18T13:34:34.367Z</time></trkpt><trkpt lat="45.10546" lon="7.9409767"><ele>257.3333333333333</ele><time>2026-04-18T13:34:35.368Z</time></trkpt><trkpt lat="45.10563" lon="7.9410367"><ele>255.0</ele><time>2026-04-18T13:34:36.367Z</time></trkpt><trkpt lat="45.105795" lon="7.941095"><ele>251.66666666666669</ele><time>2026-04-18T13:34:37.368Z</time></trkpt><trkpt lat="45.1059667" lon="7.94115"><ele>248.33333333333334</ele><time>2026-04-18T13:34:38.368Z</time></trkpt><trkpt lat="45.1061317" lon="7.94121"><ele>245.0</ele><time>2026-04-18T13:34:39.368Z</time></trkpt><trkpt lat="45.1062883" lon="7.9412667"><ele>245.0</ele><time>2026-04-18T13:34:40.367Z</time></trkpt><trkpt lat="45.1064517" lon="7.94132"><ele>245.0</ele><time>2026-04-18T13:34:41.368Z</time></trkpt><trkpt lat="45.1066133" lon="7.9413917"><ele>245.0</ele><time>2026-04-18T13:34:42.368Z</time></trkpt><trkpt lat="45.1067717" lon="7.9414767"><ele>244.66666666666669</ele><time>2026-04-18T13:34:43.368Z</time></trkpt><trkpt lat="45.1069267" lon="7.9415717"><ele>244.33333333333331</ele><time>2026-04-18T13:34:44.367Z</time></trkpt><trkpt lat="45.1070783" lon="7.9416667"><ele>244.0</ele><time>2026-04-18T13:34:45.368Z</time></trkpt><trkpt lat="45.1072217" lon="7.9417633"><ele>244.0</ele><time>2026-04-18T13:34:46.368Z</time></trkpt><trkpt lat="45.1073667" lon="7.9418567"><ele>244.0</ele><time>2026-04-18T13:34:47.368Z</time></trkpt><trkpt lat="45.10752" lon="7.94191"><ele>244.0</ele><time>2026-04-18T13:34:48.368Z</time></trkpt><trkpt lat="45.1076633" lon="7.9418983"><ele>244.0</ele><time>2026-04-18T13:34:49.367Z</time></trkpt><trkpt lat="45.107815" lon="7.941845"><ele>244.0</ele><time>2026-04-18T13:34:50.368Z</time></trkpt><trkpt lat="45.1079667" lon="7.9417467"><ele>244.0</ele><time>2026-04-18T13:34:51.367Z</time></trkpt><trkpt lat="45.108125" lon="7.9416517"><ele>243.0</ele><time>2026-04-18T13:34:52.367Z</time></trkpt><trkpt lat="45.1082883" lon="7.9415583"><ele>242.0</ele><time>2026-04-18T13:34:53.368Z</time></trkpt><trkpt lat="45.10844" lon="7.941475"><ele>241.0</ele><time>2026-04-18T13:34:54.368Z</time></trkpt><trkpt lat="45.1085833" lon="7.9414067"><ele>241.0</ele><time>2026-04-18T13:34:55.368Z</time></trkpt><trkpt lat="45.1087283" lon="7.9413517"><ele>241.0</ele><time>2026-04-18T13:34:56.368Z</time></trkpt><trkpt lat="45.1088917" lon="7.9413283"><ele>241.0</ele><time>2026-04-18T13:34:57.367Z</time></trkpt><trkpt lat="45.1090667" lon="7.941345"><ele>240.33333333333331</ele><time>2026-04-18T13:34:58.368Z</time></trkpt><trkpt lat="45.1092383" lon="7.9413667"><ele>239.66666666666669</ele><time>2026-04-18T13:34:59.368Z</time></trkpt><trkpt lat="45.1094033" lon="7.941405"><ele>239.0</ele><time>2026-04-18T13:35:00.368Z</time></trkpt><trkpt lat="45.1095767" lon="7.9414383"><ele>239.0</ele><time>2026-04-18T13:35:01.368Z</time></trkpt><trkpt lat="45.1097517" lon="7.9414633"><ele>239.0</ele><time>2026-04-18T13:35:02.368Z</time></trkpt><trkpt lat="45.1099267" lon="7.94149"><ele>239.0</ele><time>2026-04-18T13:35:03.368Z</time></trkpt><trkpt lat="45.1101" lon="7.9415217"><ele>238.66666666666669</ele><time>2026-04-18T13:35:04.368Z</time></trkpt><trkpt lat="45.11027" lon="7.9415533"><ele>238.33333333333331</ele><time>2026-04-18T13:35:05.368Z</time></trkpt><trkpt lat="45.1104533" lon="7.94156"><ele>238.0</ele><time>2026-04-18T13:35:06.368Z</time></trkpt><trkpt lat="45.1106183" lon="7.9416167"><ele>240.0</ele><time>2026-04-18T13:35:07.367Z</time></trkpt><trkpt lat="45.1107767" lon="7.9416917"><ele>242.0</ele><time>2026-04-18T13:35:08.368Z</time></trkpt><trkpt lat="45.11094" lon="7.9417467"><ele>244.0</ele><time>2026-04-18T13:35:09.368Z</time></trkpt><trkpt lat="45.11109" lon="7.941815"><ele>240.0</ele><time>2026-04-18T13:35:10.368Z</time></trkpt><trkpt lat="45.1112417" lon="7.9418667"><ele>236.0</ele><time>2026-04-18T13:35:11.368Z</time></trkpt><trkpt lat="45.111405" lon="7.94188"><ele>232.0</ele><time>2026-04-18T13:35:12.368Z</time></trkpt><trkpt lat="45.1115583" lon="7.9418767"><ele>232.33333333333331</ele><time>2026-04-18T13:35:13.367Z</time></trkpt><trkpt lat="45.1117317" lon="7.94182"><ele>232.66666666666669</ele><time>2026-04-18T13:35:14.368Z</time></trkpt><trkpt lat="45.111875" lon="7.9417867"><ele>233.0</ele><time>2026-04-18T13:35:15.367Z</time></trkpt><trkpt lat="45.1120067" lon="7.9417717"><ele>233.0</ele><time>2026-04-18T13:35:16.368Z</time></trkpt><trkpt lat="45.1121183" lon="7.9417767"><ele>233.0</ele><time>2026-04-18T13:35:17.368Z</time></trkpt><trkpt lat="45.1122317" lon="7.941835"><ele>233.0</ele><time>2026-04-18T13:35:18.368Z</time></trkpt><trkpt lat="45.1123467" lon="7.94194"><ele>233.0</ele><time>2026-04-18T13:35:19.368Z</time></trkpt><trkpt lat="45.1124517" lon="7.9420533"><ele>233.5</ele><time>2026-04-18T13:35:20.367Z</time></trkpt><trkpt lat="45.1125517" lon="7.9421167"><ele>234.0</ele><time>2026-04-18T13:35:21.368Z</time></trkpt><trkpt lat="45.112675" lon="7.9421333"><ele>234.5</ele><time>2026-04-18T13:35:22.368Z</time></trkpt><trkpt lat="45.1128133" lon="7.9421083"><ele>235.0</ele><time>2026-04-18T13:35:23.368Z</time></trkpt><trkpt lat="45.112965" lon="7.9420733"><ele>235.0</ele><time>2026-04-18T13:35:24.367Z</time></trkpt><trkpt lat="45.1131183" lon="7.94203"><ele>235.0</ele><time>2026-04-18T13:35:25.368Z</time></trkpt><trkpt lat="45.1132817" lon="7.9420017"><ele>235.0</ele><time>2026-04-18T13:35:26.367Z</time></trkpt><trkpt lat="45.1134383" lon="7.941985"><ele>233.66666666666666</ele><time>2026-04-18T13:35:27.368Z</time></trkpt><trkpt lat="45.113595" lon="7.941975"><ele>232.33333333333331</ele><time>2026-04-18T13:35:28.368Z</time></trkpt><trkpt lat="45.1137683" lon="7.94195"><ele>231.0</ele><time>2026-04-18T13:35:29.367Z</time></trkpt><trkpt lat="45.113925" lon="7.9419283"><ele>231.33333333333331</ele><time>2026-04-18T13:35:30.368Z</time></trkpt><trkpt lat="45.11409" lon="7.9419017"><ele>231.66666666666666</ele><time>2026-04-18T13:35:31.368Z</time></trkpt><trkpt lat="45.114255" lon="7.9418617"><ele>232.0</ele><time>2026-04-18T13:35:32.368Z</time></trkpt><trkpt lat="45.1144133" lon="7.9417883"><ele>234.66666666666666</ele><time>2026-04-18T13:35:33.368Z</time></trkpt><trkpt lat="45.1145667" lon="7.9417033"><ele>237.33333333333331</ele><time>2026-04-18T13:35:34.368Z</time></trkpt><trkpt lat="45.1147217" lon="7.9416267"><ele>240.0</ele><time>2026-04-18T13:35:35.367Z</time></trkpt><trkpt lat="45.11488" lon="7.9415717"><ele>238.66666666666669</ele><time>2026-04-18T13:35:36.367Z</time></trkpt><trkpt lat="45.1150417" lon="7.94153"><ele>237.33333333333334</ele><time>2026-04-18T13:35:37.368Z</time></trkpt><trkpt lat="45.1151917" lon="7.941485"><ele>236.0</ele><time>2026-04-18T13:35:38.368Z</time></trkpt><trkpt lat="45.115345" lon="7.9414317"><ele>236.0</ele><time>2026-04-18T13:35:39.368Z</time></trkpt><trkpt lat="45.1155067" lon="7.9413717"><ele>236.0</ele><time>2026-04-18T13:35:40.367Z</time></trkpt><trkpt lat="45.115665" lon="7.941325"><ele>236.0</ele><time>2026-04-18T13:35:41.367Z</time></trkpt><trkpt lat="45.1158133" lon="7.941295"><ele>234.5</ele><time>2026-04-18T13:35:42.368Z</time></trkpt><trkpt lat="45.1159583" lon="7.9412583"><ele>233.0</ele><time>2026-04-18T13:35:43.368Z</time></trkpt><trkpt lat="45.11609" lon="7.9412433"><ele>231.5</ele><time>2026-04-18T13:35:44.368Z</time></trkpt><trkpt lat="45.1162267" lon="7.9412933"><ele>230.0</ele><time>2026-04-18T13:35:45.367Z</time></trkpt><trkpt lat="45.1163517" lon="7.9413933"><ele>230.0</ele><time>2026-04-18T13:35:46.368Z</time></trkpt><trkpt lat="45.11649" lon="7.9415067"><ele>230.0</ele><time>2026-04-18T13:35:47.368Z</time></trkpt><trkpt lat="45.1166283" lon="7.9415983"><ele>230.0</ele><time>2026-04-18T13:35:48.368Z</time></trkpt><trkpt lat="45.1167717" lon="7.9416717"><ele>229.66666666666669</ele><time>2026-04-18T13:35:49.368Z</time></trkpt><trkpt lat="45.1169217" lon="7.9417183"><ele>229.33333333333331</ele><time>2026-04-18T13:35:50.368Z</time></trkpt><trkpt lat="45.117085" lon="7.9417233"><ele>229.0</ele><time>2026-04-18T13:35:51.367Z</time></trkpt><trkpt lat="45.1172467" lon="7.94168"><ele>228.0</ele><time>2026-04-18T13:35:52.368Z</time></trkpt><trkpt lat="45.117405" lon="7.9416383"><ele>227.0</ele><time>2026-04-18T13:35:53.367Z</time></trkpt><trkpt lat="45.11756" lon="7.9415967"><ele>226.0</ele><time>2026-04-18T13:35:54.367Z</time></trkpt><trkpt lat="45.1177217" lon="7.941565"><ele>226.0</ele><time>2026-04-18T13:35:55.367Z</time></trkpt><trkpt lat="45.1178967" lon="7.9415317"><ele>226.0</ele><time>2026-04-18T13:35:56.367Z</time></trkpt><trkpt lat="45.1180633" lon="7.9415017"><ele>226.0</ele><time>2026-04-18T13:35:57.367Z</time></trkpt><trkpt lat="45.1182317" lon="7.9414783"><ele>225.0</ele><time>2026-04-18T13:35:58.367Z</time></trkpt><trkpt lat="45.1184" lon="7.94144"><ele>224.0</ele><time>2026-04-18T13:35:59.367Z</time></trkpt><trkpt lat="45.11857" lon="7.9413983"><ele>223.0</ele><time>2026-04-18T13:36:00.367Z</time></trkpt><trkpt lat="45.11873" lon="7.9413467"><ele>223.0</ele><time>2026-04-18T13:36:01.367Z</time></trkpt><trkpt lat="45.118885" lon="7.941275"><ele>223.0</ele><time>2026-04-18T13:36:02.367Z</time></trkpt><trkpt lat="45.1190417" lon="7.9411733"><ele>223.0</ele><time>2026-04-18T13:36:03.366Z</time></trkpt><trkpt lat="45.1191883" lon="7.94107"><ele>223.33333333333331</ele><time>2026-04-18T13:36:04.367Z</time></trkpt><trkpt lat="45.1193367" lon="7.9409733"><ele>223.66666666666669</ele><time>2026-04-18T13:36:05.366Z</time></trkpt><trkpt lat="45.1194817" lon="7.9408733"><ele>224.0</ele><time>2026-04-18T13:36:06.367Z</time></trkpt><trkpt lat="45.1196117" lon="7.9407533"><ele>224.0</ele><time>2026-04-18T13:36:07.367Z</time></trkpt><trkpt lat="45.11974" lon="7.9406083"><ele>224.0</ele><time>2026-04-18T13:36:08.367Z</time></trkpt><trkpt lat="45.1198633" lon="7.9404533"><ele>224.0</ele><time>2026-04-18T13:36:09.367Z</time></trkpt><trkpt lat="45.1199983" lon="7.940305"><ele>221.66666666666669</ele><time>2026-04-18T13:36:10.367Z</time></trkpt><trkpt lat="45.1201433" lon="7.9401967"><ele>219.33333333333331</ele><time>2026-04-18T13:36:11.367Z</time></trkpt><trkpt lat="45.120305" lon="7.9401167"><ele>217.0</ele><time>2026-04-18T13:36:12.366Z</time></trkpt><trkpt lat="45.1204583" lon="7.9400517"><ele>216.66666666666666</ele><time>2026-04-18T13:36:13.366Z</time></trkpt><trkpt lat="45.1206167" lon="7.9400117"><ele>216.33333333333331</ele><time>2026-04-18T13:36:14.366Z</time></trkpt><trkpt lat="45.1207783" lon="7.939985"><ele>216.0</ele><time>2026-04-18T13:36:15.366Z</time></trkpt><trkpt lat="45.12094" lon="7.939995"><ele>215.66666666666669</ele><time>2026-04-18T13:36:16.366Z</time></trkpt><trkpt lat="45.1210983" lon="7.9400483"><ele>215.33333333333334</ele><time>2026-04-18T13:36:17.367Z</time></trkpt><trkpt lat="45.1212367" lon="7.9401367"><ele>215.0</ele><time>2026-04-18T13:36:18.366Z</time></trkpt><trkpt lat="45.12138" lon="7.940225"><ele>215.0</ele><time>2026-04-18T13:36:19.366Z</time></trkpt><trkpt lat="45.1215233" lon="7.9403083"><ele>215.0</ele><time>2026-04-18T13:36:20.367Z</time></trkpt><trkpt lat="45.1216733" lon="7.9404017"><ele>215.0</ele><time>2026-04-18T13:36:21.367Z</time></trkpt><trkpt lat="45.12183" lon="7.9405033"><ele>214.66666666666669</ele><time>2026-04-18T13:36:22.367Z</time></trkpt><trkpt lat="45.1219883" lon="7.9406283"><ele>214.33333333333331</ele><time>2026-04-18T13:36:23.366Z</time></trkpt><trkpt lat="45.1221317" lon="7.9407583"><ele>214.0</ele><time>2026-04-18T13:36:24.366Z</time></trkpt><trkpt lat="45.1222717" lon="7.9408967"><ele>213.0</ele><time>2026-04-18T13:36:25.366Z</time></trkpt><trkpt lat="45.12241" lon="7.94103"><ele>212.0</ele><time>2026-04-18T13:36:26.367Z</time></trkpt><trkpt lat="45.122555" lon="7.94115"><ele>211.0</ele><time>2026-04-18T13:36:27.367Z</time></trkpt><trkpt lat="45.1226917" lon="7.9412567"><ele>211.0</ele><time>2026-04-18T13:36:28.367Z</time></trkpt><trkpt lat="45.1228417" lon="7.9413583"><ele>211.0</ele><time>2026-04-18T13:36:29.367Z</time></trkpt><trkpt lat="45.122985" lon="7.941465"><ele>211.0</ele><time>2026-04-18T13:36:30.366Z</time></trkpt><trkpt lat="45.1231333" lon="7.941565"><ele>210.66666666666666</ele><time>2026-04-18T13:36:31.366Z</time></trkpt><trkpt lat="45.1232767" lon="7.94167"><ele>210.33333333333331</ele><time>2026-04-18T13:36:32.367Z</time></trkpt><trkpt lat="45.1234283" lon="7.941765"><ele>210.0</ele><time>2026-04-18T13:36:33.367Z</time></trkpt><trkpt lat="45.1235717" lon="7.94188"><ele>210.0</ele><time>2026-04-18T13:36:34.367Z</time></trkpt><trkpt lat="45.1237083" lon="7.9420117"><ele>210.0</ele><time>2026-04-18T13:36:35.366Z</time></trkpt><trkpt lat="45.1238367" lon="7.942155"><ele>210.0</ele><time>2026-04-18T13:36:36.366Z</time></trkpt><trkpt lat="45.1239667" lon="7.942305"><ele>209.33333333333331</ele><time>2026-04-18T13:36:37.367Z</time></trkpt><trkpt lat="45.124105" lon="7.9424533"><ele>208.66666666666666</ele><time>2026-04-18T13:36:38.367Z</time></trkpt><trkpt lat="45.124245" lon="7.942595"><ele>208.0</ele><time>2026-04-18T13:36:39.367Z</time></trkpt><trkpt lat="45.12438" lon="7.9427183"><ele>208.0</ele><time>2026-04-18T13:36:40.367Z</time></trkpt><trkpt lat="45.12452" lon="7.94286"><ele>208.0</ele><time>2026-04-18T13:36:41.366Z</time></trkpt><trkpt lat="45.1246533" lon="7.9429917"><ele>208.0</ele><time>2026-04-18T13:36:42.367Z</time></trkpt><trkpt lat="45.124795" lon="7.9431167"><ele>208.0</ele><time>2026-04-18T13:36:43.367Z</time></trkpt><trkpt lat="45.124935" lon="7.94322"><ele>208.0</ele><time>2026-04-18T13:36:44.367Z</time></trkpt><trkpt lat="45.1250833" lon="7.9433083"><ele>208.0</ele><time>2026-04-18T13:36:45.367Z</time></trkpt><trkpt lat="45.125235" lon="7.9433833"><ele>208.0</ele><time>2026-04-18T13:36:46.367Z</time></trkpt><trkpt lat="45.1253933" lon="7.9434283"><ele>208.0</ele><time>2026-04-18T13:36:47.367Z</time></trkpt><trkpt lat="45.1255633" lon="7.943475"><ele>208.0</ele><time>2026-04-18T13:36:48.366Z</time></trkpt><trkpt lat="45.12573" lon="7.9434983"><ele>207.66666666666666</ele><time>2026-04-18T13:36:49.367Z</time></trkpt><trkpt lat="45.1258983" lon="7.9435167"><ele>207.33333333333331</ele><time>2026-04-18T13:36:50.367Z</time></trkpt><trkpt lat="45.1260583" lon="7.94355"><ele>207.0</ele><time>2026-04-18T13:36:51.366Z</time></trkpt><trkpt lat="45.1262133" lon="7.9435833"><ele>207.0</ele><time>2026-04-18T13:36:52.367Z</time></trkpt><trkpt lat="45.1263633" lon="7.943605"><ele>207.0</ele><time>2026-04-18T13:36:53.367Z</time></trkpt><trkpt lat="45.1265183" lon="7.9436167"><ele>207.0</ele><time>2026-04-18T13:36:54.367Z</time></trkpt><trkpt lat="45.12667" lon="7.943625"><ele>207.0</ele><time>2026-04-18T13:36:55.367Z</time></trkpt><trkpt lat="45.1268333" lon="7.943615"><ele>207.0</ele><time>2026-04-18T13:36:56.367Z</time></trkpt><trkpt lat="45.126995" lon="7.9436083"><ele>207.0</ele><time>2026-04-18T13:36:57.367Z</time></trkpt><trkpt lat="45.1271583" lon="7.9436283"><ele>207.0</ele><time>2026-04-18T13:36:58.367Z</time></trkpt><trkpt lat="45.1273067" lon="7.9436683"><ele>207.0</ele><time>2026-04-18T13:36:59.366Z</time></trkpt><trkpt lat="45.1274567" lon="7.9436867"><ele>207.0</ele><time>2026-04-18T13:37:00.367Z</time></trkpt><trkpt lat="45.1276" lon="7.9436933"><ele>207.0</ele><time>2026-04-18T13:37:01.367Z</time></trkpt><trkpt lat="45.1277483" lon="7.94368"><ele>207.33333333333331</ele><time>2026-04-18T13:37:02.367Z</time></trkpt><trkpt lat="45.1278983" lon="7.94363"><ele>207.66666666666666</ele><time>2026-04-18T13:37:03.367Z</time></trkpt><trkpt lat="45.1280383" lon="7.9435517"><ele>208.0</ele><time>2026-04-18T13:37:04.366Z</time></trkpt><trkpt lat="45.128175" lon="7.9434733"><ele>208.0</ele><time>2026-04-18T13:37:05.366Z</time></trkpt><trkpt lat="45.12832" lon="7.9433967"><ele>208.0</ele><time>2026-04-18T13:37:06.367Z</time></trkpt><trkpt lat="45.1284667" lon="7.9433283"><ele>208.0</ele><time>2026-04-18T13:37:07.367Z</time></trkpt><trkpt lat="45.1286017" lon="7.9432567"><ele>208.0</ele><time>2026-04-18T13:37:08.367Z</time></trkpt><trkpt lat="45.1287283" lon="7.9431933"><ele>208.0</ele><time>2026-04-18T13:37:09.366Z</time></trkpt><trkpt lat="45.1288533" lon="7.943145"><ele>208.0</ele><time>2026-04-18T13:37:10.367Z</time></trkpt><trkpt lat="45.1289667" lon="7.9430817"><ele>208.0</ele><time>2026-04-18T13:37:11.367Z</time></trkpt><trkpt lat="45.1290667" lon="7.9430283"><ele>208.0</ele><time>2026-04-18T13:37:12.367Z</time></trkpt><trkpt lat="45.1291567" lon="7.9429883"><ele>208.0</ele><time>2026-04-18T13:37:13.366Z</time></trkpt><trkpt lat="45.1292283" lon="7.9429583"><ele>208.0</ele><time>2026-04-18T13:37:14.367Z</time></trkpt><trkpt lat="45.12933" lon="7.9430283"><ele>208.0</ele><time>2026-04-18T13:37:16.367Z</time></trkpt><trkpt lat="45.1293083" lon="7.9432183"><ele>208.0</ele><time>2026-04-18T13:37:18.367Z</time></trkpt><trkpt lat="45.1292433" lon="7.9433483"><ele>208.0</ele><time>2026-04-18T13:37:19.366Z</time></trkpt><trkpt lat="45.1291767" lon="7.9434783"><ele>208.0</ele><time>2026-04-18T13:37:20.367Z</time></trkpt><trkpt lat="45.1291217" lon="7.9436117"><ele>208.0</ele><time>2026-04-18T13:37:21.367Z</time></trkpt><trkpt lat="45.1290517" lon="7.94376"><ele>208.0</ele><time>2026-04-18T13:37:22.367Z</time></trkpt><trkpt lat="45.1289917" lon="7.9439317"><ele>208.0</ele><time>2026-04-18T13:37:23.366Z</time></trkpt><trkpt lat="45.1289267" lon="7.944105"><ele>208.0</ele><time>2026-04-18T13:37:24.366Z</time></trkpt><trkpt lat="45.1288767" lon="7.9442783"><ele>208.0</ele><time>2026-04-18T13:37:25.367Z</time></trkpt><trkpt lat="45.1288367" lon="7.944455"><ele>208.0</ele><time>2026-04-18T13:37:26.367Z</time></trkpt><trkpt lat="45.128795" lon="7.9446467"><ele>207.75</ele><time>2026-04-18T13:37:27.367Z</time></trkpt><trkpt lat="45.128755" lon="7.94483"><ele>207.5</ele><time>2026-04-18T13:37:28.367Z</time></trkpt><trkpt lat="45.1287083" lon="7.945"><ele>207.25</ele><time>2026-04-18T13:37:29.367Z</time></trkpt><trkpt lat="45.1286633" lon="7.9451567"><ele>207.0</ele><time>2026-04-18T13:37:30.367Z</time></trkpt><trkpt lat="45.12863" lon="7.945315"><ele>206.75</ele><time>2026-04-18T13:37:31.367Z</time></trkpt><trkpt lat="45.128625" lon="7.94549"><ele>206.5</ele><time>2026-04-18T13:37:32.367Z</time></trkpt><trkpt lat="45.1286417" lon="7.945675"><ele>206.25</ele><time>2026-04-18T13:37:33.367Z</time></trkpt><trkpt lat="45.1286717" lon="7.9458583"><ele>206.0</ele><time>2026-04-18T13:37:34.367Z</time></trkpt><trkpt lat="45.1286983" lon="7.9460567"><ele>205.66666666666669</ele><time>2026-04-18T13:37:35.366Z</time></trkpt><trkpt lat="45.1287333" lon="7.94626"><ele>205.33333333333331</ele><time>2026-04-18T13:37:36.366Z</time></trkpt><trkpt lat="45.12877" lon="7.94647"><ele>205.0</ele><time>2026-04-18T13:37:37.366Z</time></trkpt><trkpt lat="45.1287983" lon="7.9466817"><ele>206.0</ele><time>2026-04-18T13:37:38.366Z</time></trkpt><trkpt lat="45.12883" lon="7.9468933"><ele>207.0</ele><time>2026-04-18T13:37:39.366Z</time></trkpt><trkpt lat="45.1288817" lon="7.947095"><ele>208.0</ele><time>2026-04-18T13:37:40.367Z</time></trkpt><trkpt lat="45.1289333" lon="7.9472983"><ele>208.0</ele><time>2026-04-18T13:37:41.366Z</time></trkpt><trkpt lat="45.12897" lon="7.9475133"><ele>208.0</ele><time>2026-04-18T13:37:42.367Z</time></trkpt><trkpt lat="45.1290133" lon="7.94772"><ele>208.0</ele><time>2026-04-18T13:37:43.367Z</time></trkpt><trkpt lat="45.1290733" lon="7.9479267"><ele>207.33333333333331</ele><time>2026-04-18T13:37:44.367Z</time></trkpt><trkpt lat="45.12915" lon="7.94812"><ele>206.66666666666669</ele><time>2026-04-18T13:37:45.366Z</time></trkpt><trkpt lat="45.1292467" lon="7.9483133"><ele>206.0</ele><time>2026-04-18T13:37:46.366Z</time></trkpt><trkpt lat="45.1293567" lon="7.94849"><ele>205.33333333333334</ele><time>2026-04-18T13:37:47.367Z</time></trkpt><trkpt lat="45.1294717" lon="7.9486633"><ele>204.66666666666669</ele><time>2026-04-18T13:37:48.366Z</time></trkpt><trkpt lat="45.12957" lon="7.9488383"><ele>204.0</ele><time>2026-04-18T13:37:49.367Z</time></trkpt><trkpt lat="45.1296717" lon="7.949015"><ele>204.0</ele><time>2026-04-18T13:37:50.367Z</time></trkpt><trkpt lat="45.129765" lon="7.94919"><ele>204.0</ele><time>2026-04-18T13:37:51.367Z</time></trkpt><trkpt lat="45.1298617" lon="7.9493733"><ele>204.0</ele><time>2026-04-18T13:37:52.367Z</time></trkpt><trkpt lat="45.129945" lon="7.949545"><ele>205.25</ele><time>2026-04-18T13:37:53.367Z</time></trkpt><trkpt lat="45.1300017" lon="7.949725"><ele>206.5</ele><time>2026-04-18T13:37:54.367Z</time></trkpt><trkpt lat="45.1300467" lon="7.94992"><ele>207.75</ele><time>2026-04-18T13:37:55.367Z</time></trkpt><trkpt lat="45.1300783" lon="7.95012"><ele>209.0</ele><time>2026-04-18T13:37:56.367Z</time></trkpt><trkpt lat="45.130075" lon="7.9503067"><ele>210.75</ele><time>2026-04-18T13:37:57.366Z</time></trkpt><trkpt lat="45.130055" lon="7.9505033"><ele>212.5</ele><time>2026-04-18T13:37:58.367Z</time></trkpt><trkpt lat="45.13002" lon="7.9506933"><ele>214.25</ele><time>2026-04-18T13:37:59.366Z</time></trkpt><trkpt lat="45.1299767" lon="7.9508883"><ele>216.0</ele><time>2026-04-18T13:38:00.367Z</time></trkpt><trkpt lat="45.12995" lon="7.951085"><ele>217.25</ele><time>2026-04-18T13:38:01.367Z</time></trkpt><trkpt lat="45.129945" lon="7.9512967"><ele>218.5</ele><time>2026-04-18T13:38:02.367Z</time></trkpt><trkpt lat="45.1299433" lon="7.9515067"><ele>219.75</ele><time>2026-04-18T13:38:03.367Z</time></trkpt><trkpt lat="45.1299583" lon="7.9517117"><ele>221.0</ele><time>2026-04-18T13:38:04.366Z</time></trkpt><trkpt lat="45.1300067" lon="7.9519083"><ele>221.0</ele><time>2026-04-18T13:38:05.367Z</time></trkpt><trkpt lat="45.13006" lon="7.9521033"><ele>221.0</ele><time>2026-04-18T13:38:06.367Z</time></trkpt><trkpt lat="45.1301217" lon="7.9522933"><ele>221.0</ele><time>2026-04-18T13:38:07.367Z</time></trkpt><trkpt lat="45.1301917" lon="7.9524733"><ele>221.0</ele><time>2026-04-18T13:38:08.367Z</time></trkpt><trkpt lat="45.130275" lon="7.9526383"><ele>220.0</ele><time>2026-04-18T13:38:09.366Z</time></trkpt><trkpt lat="45.1303233" lon="7.9528583"><ele>219.0</ele><time>2026-04-18T13:38:10.367Z</time></trkpt><trkpt lat="45.1303567" lon="7.9530917"><ele>218.0</ele><time>2026-04-18T13:38:11.366Z</time></trkpt><trkpt lat="45.130385" lon="7.953325"><ele>216.66666666666669</ele><time>2026-04-18T13:38:12.367Z</time></trkpt><trkpt lat="45.1304117" lon="7.9535483"><ele>215.33333333333331</ele><time>2026-04-18T13:38:13.367Z</time></trkpt><trkpt lat="45.1304317" lon="7.9537733"><ele>214.0</ele><time>2026-04-18T13:38:14.367Z</time></trkpt><trkpt lat="45.1304867" lon="7.953965"><ele>214.0</ele><time>2026-04-18T13:38:15.367Z</time></trkpt><trkpt lat="45.130565" lon="7.95413"><ele>214.0</ele><time>2026-04-18T13:38:16.367Z</time></trkpt><trkpt lat="45.1306283" lon="7.9542933"><ele>214.0</ele><time>2026-04-18T13:38:17.367Z</time></trkpt><trkpt lat="45.130665" lon="7.9544633"><ele>214.0</ele><time>2026-04-18T13:38:18.366Z</time></trkpt><trkpt lat="45.1306883" lon="7.9546467"><ele>213.79999999999998</ele><time>2026-04-18T13:38:19.367Z</time></trkpt><trkpt lat="45.1306783" lon="7.9548217"><ele>213.59999999999997</ele><time>2026-04-18T13:38:20.366Z</time></trkpt><trkpt lat="45.13067" lon="7.954985"><ele>213.4</ele><time>2026-04-18T13:38:21.367Z</time></trkpt><trkpt lat="45.1306617" lon="7.955125"><ele>213.2</ele><time>2026-04-18T13:38:22.366Z</time></trkpt><trkpt lat="45.1306333" lon="7.9552483"><ele>213.0</ele><time>2026-04-18T13:38:23.367Z</time></trkpt><trkpt lat="45.1305783" lon="7.955365"><ele>212.8</ele><time>2026-04-18T13:38:24.367Z</time></trkpt><trkpt lat="45.1304983" lon="7.9554583"><ele>212.60000000000002</ele><time>2026-04-18T13:38:25.367Z</time></trkpt><trkpt lat="45.130395" lon="7.9555517"><ele>212.39999999999998</ele><time>2026-04-18T13:38:26.366Z</time></trkpt><trkpt lat="45.1303067" lon="7.9556467"><ele>212.2</ele><time>2026-04-18T13:38:27.367Z</time></trkpt><trkpt lat="45.13025" lon="7.9557783"><ele>212.0</ele><time>2026-04-18T13:38:28.367Z</time></trkpt><trkpt lat="45.130235" lon="7.9559467"><ele>212.0</ele><time>2026-04-18T13:38:29.367Z</time></trkpt><trkpt lat="45.1302533" lon="7.9561283"><ele>212.0</ele><time>2026-04-18T13:38:30.367Z</time></trkpt><trkpt lat="45.1302817" lon="7.95632"><ele>212.0</ele><time>2026-04-18T13:38:31.366Z</time></trkpt><trkpt lat="45.1303167" lon="7.9565083"><ele>212.0</ele><time>2026-04-18T13:38:32.367Z</time></trkpt><trkpt lat="45.130345" lon="7.956705"><ele>213.0</ele><time>2026-04-18T13:38:33.367Z</time></trkpt><trkpt lat="45.13038" lon="7.9569033"><ele>214.0</ele><time>2026-04-18T13:38:34.367Z</time></trkpt><trkpt lat="45.1304017" lon="7.957095"><ele>215.0</ele><time>2026-04-18T13:38:35.367Z</time></trkpt><trkpt lat="45.130435" lon="7.9572967"><ele>216.0</ele><time>2026-04-18T13:38:36.366Z</time></trkpt><trkpt lat="45.1304717" lon="7.957505"><ele>216.75</ele><time>2026-04-18T13:38:37.367Z</time></trkpt><trkpt lat="45.1305067" lon="7.9577167"><ele>217.5</ele><time>2026-04-18T13:38:38.367Z</time></trkpt><trkpt lat="45.1305283" lon="7.9579283"><ele>218.25</ele><time>2026-04-18T13:38:39.367Z</time></trkpt><trkpt lat="45.1305233" lon="7.9581267"><ele>219.0</ele><time>2026-04-18T13:38:40.367Z</time></trkpt><trkpt lat="45.13051" lon="7.958335"><ele>220.5</ele><time>2026-04-18T13:38:41.367Z</time></trkpt><trkpt lat="45.1304833" lon="7.9585367"><ele>222.0</ele><time>2026-04-18T13:38:42.367Z</time></trkpt><trkpt lat="45.1304533" lon="7.9587317"><ele>223.5</ele><time>2026-04-18T13:38:43.367Z</time></trkpt><trkpt lat="45.13043" lon="7.9589333"><ele>225.0</ele><time>2026-04-18T13:38:44.367Z</time></trkpt><trkpt lat="45.1304167" lon="7.9591367"><ele>226.5</ele><time>2026-04-18T13:38:45.367Z</time></trkpt><trkpt lat="45.1304217" lon="7.9593367"><ele>228.0</ele><time>2026-04-18T13:38:46.367Z</time></trkpt><trkpt lat="45.1304367" lon="7.9595433"><ele>229.5</ele><time>2026-04-18T13:38:47.366Z</time></trkpt><trkpt lat="45.1304383" lon="7.959745"><ele>231.0</ele><time>2026-04-18T13:38:48.367Z</time></trkpt><trkpt lat="45.1304317" lon="7.9599583"><ele>232.33333333333331</ele><time>2026-04-18T13:38:49.367Z</time></trkpt><trkpt lat="45.130415" lon="7.9601717"><ele>233.66666666666666</ele><time>2026-04-18T13:38:50.367Z</time></trkpt><trkpt lat="45.1303917" lon="7.96039"><ele>235.0</ele><time>2026-04-18T13:38:51.366Z</time></trkpt><trkpt lat="45.1303883" lon="7.9605933"><ele>235.0</ele><time>2026-04-18T13:38:52.367Z</time></trkpt><trkpt lat="45.1303833" lon="7.9608033"><ele>235.0</ele><time>2026-04-18T13:38:53.367Z</time></trkpt><trkpt lat="45.130375" lon="7.96102"><ele>235.0</ele><time>2026-04-18T13:38:54.367Z</time></trkpt><trkpt lat="45.1303967" lon="7.9612033"><ele>235.0</ele><time>2026-04-18T13:38:55.367Z</time></trkpt><trkpt lat="45.1304517" lon="7.96139"><ele>235.75</ele><time>2026-04-18T13:38:56.367Z</time></trkpt><trkpt lat="45.130505" lon="7.9615867"><ele>236.5</ele><time>2026-04-18T13:38:57.366Z</time></trkpt><trkpt lat="45.1305717" lon="7.96177"><ele>237.25</ele><time>2026-04-18T13:38:58.366Z</time></trkpt><trkpt lat="45.1306317" lon="7.961955"><ele>238.0</ele><time>2026-04-18T13:38:59.367Z</time></trkpt><trkpt lat="45.1306833" lon="7.9621433"><ele>241.4</ele><time>2026-04-18T13:39:00.367Z</time></trkpt><trkpt lat="45.1307433" lon="7.962325"><ele>244.8</ele><time>2026-04-18T13:39:01.367Z</time></trkpt><trkpt lat="45.1307967" lon="7.9624717"><ele>248.2</ele><time>2026-04-18T13:39:02.367Z</time></trkpt><trkpt lat="45.130835" lon="7.9626083"><ele>251.6</ele><time>2026-04-18T13:39:03.367Z</time></trkpt><trkpt lat="45.1308617" lon="7.9627217"><ele>255.0</ele><time>2026-04-18T13:39:04.367Z</time></trkpt><trkpt lat="45.13088" lon="7.9628233"><ele>256.0</ele><time>2026-04-18T13:39:05.367Z</time></trkpt><trkpt lat="45.1309267" lon="7.9629683"><ele>257.0</ele><time>2026-04-18T13:39:07.367Z</time></trkpt><trkpt lat="45.1309583" lon="7.9631233"><ele>258.0</ele><time>2026-04-18T13:39:09.367Z</time></trkpt><trkpt lat="45.1309533" lon="7.9632167"><ele>259.0</ele><time>2026-04-18T13:39:10.367Z</time></trkpt><trkpt lat="45.130955" lon="7.9633067"><ele>260.0</ele><time>2026-04-18T13:39:11.366Z</time></trkpt><trkpt lat="45.1309383" lon="7.9634067"><ele>261.0</ele><time>2026-04-18T13:39:12.366Z</time></trkpt><trkpt lat="45.1309133" lon="7.9635183"><ele>262.5</ele><time>2026-04-18T13:39:13.367Z</time></trkpt><trkpt lat="45.1308817" lon="7.96364"><ele>264.0</ele><time>2026-04-18T13:39:14.367Z</time></trkpt><trkpt lat="45.1308383" lon="7.96378"><ele>265.5</ele><time>2026-04-18T13:39:15.367Z</time></trkpt><trkpt lat="45.1307933" lon="7.96395"><ele>267.0</ele><time>2026-04-18T13:39:16.366Z</time></trkpt><trkpt lat="45.1307433" lon="7.9641317"><ele>267.0</ele><time>2026-04-18T13:39:17.367Z</time></trkpt><trkpt lat="45.13073" lon="7.9643317"><ele>267.0</ele><time>2026-04-18T13:39:18.367Z</time></trkpt><trkpt lat="45.13068" lon="7.964505"><ele>267.0</ele><time>2026-04-18T13:39:19.366Z</time></trkpt><trkpt lat="45.1306233" lon="7.9646917"><ele>267.0</ele><time>2026-04-18T13:39:20.367Z</time></trkpt><trkpt lat="45.1305783" lon="7.9648783"><ele>269.25</ele><time>2026-04-18T13:39:21.367Z</time></trkpt><trkpt lat="45.1305383" lon="7.9650617"><ele>271.5</ele><time>2026-04-18T13:39:22.366Z</time></trkpt><trkpt lat="45.13049" lon="7.965255"><ele>273.75</ele><time>2026-04-18T13:39:23.367Z</time></trkpt><trkpt lat="45.13044" lon="7.9654567"><ele>276.0</ele><time>2026-04-18T13:39:24.367Z</time></trkpt><trkpt lat="45.13039" lon="7.9656317"><ele>276.0</ele><time>2026-04-18T13:39:25.367Z</time></trkpt><trkpt lat="45.1303533" lon="7.9658133"><ele>276.0</ele><time>2026-04-18T13:39:26.366Z</time></trkpt><trkpt lat="45.13032" lon="7.9660083"><ele>276.0</ele><time>2026-04-18T13:39:27.367Z</time></trkpt><trkpt lat="45.130295" lon="7.9662083"><ele>276.0</ele><time>2026-04-18T13:39:28.367Z</time></trkpt><trkpt lat="45.130275" lon="7.966405"><ele>279.0</ele><time>2026-04-18T13:39:29.367Z</time></trkpt><trkpt lat="45.13026" lon="7.9666117"><ele>282.0</ele><time>2026-04-18T13:39:30.367Z</time></trkpt><trkpt lat="45.1302383" lon="7.9668167"><ele>285.0</ele><time>2026-04-18T13:39:31.367Z</time></trkpt><trkpt lat="45.130235" lon="7.9670183"><ele>288.0</ele><time>2026-04-18T13:39:32.367Z</time></trkpt><trkpt lat="45.13025" lon="7.967195"><ele>290.75</ele><time>2026-04-18T13:39:33.367Z</time></trkpt><trkpt lat="45.1302583" lon="7.967375"><ele>293.5</ele><time>2026-04-18T13:39:34.367Z</time></trkpt><trkpt lat="45.130245" lon="7.967545"><ele>296.25</ele><time>2026-04-18T13:39:35.366Z</time></trkpt><trkpt lat="45.1302083" lon="7.96771"><ele>299.0</ele><time>2026-04-18T13:39:36.367Z</time></trkpt><trkpt lat="45.1301733" lon="7.9678817"><ele>301.25</ele><time>2026-04-18T13:39:37.367Z</time></trkpt><trkpt lat="45.1301283" lon="7.968055"><ele>303.5</ele><time>2026-04-18T13:39:38.367Z</time></trkpt><trkpt lat="45.1300667" lon="7.9682467"><ele>305.75</ele><time>2026-04-18T13:39:39.366Z</time></trkpt><trkpt lat="45.1300233" lon="7.9684217"><ele>308.0</ele><time>2026-04-18T13:39:40.367Z</time></trkpt><trkpt lat="45.129955" lon="7.9685983"><ele>308.25</ele><time>2026-04-18T13:39:41.367Z</time></trkpt><trkpt lat="45.1299" lon="7.9687817"><ele>308.5</ele><time>2026-04-18T13:39:42.367Z</time></trkpt><trkpt lat="45.1298417" lon="7.968965"><ele>308.75</ele><time>2026-04-18T13:39:43.367Z</time></trkpt><trkpt lat="45.1298083" lon="7.9691533"><ele>309.0</ele><time>2026-04-18T13:39:44.367Z</time></trkpt><trkpt lat="45.1297917" lon="7.969365"><ele>310.0</ele><time>2026-04-18T13:39:45.367Z</time></trkpt><trkpt lat="45.1298067" lon="7.9695767"><ele>311.0</ele><time>2026-04-18T13:39:46.366Z</time></trkpt><trkpt lat="45.12983" lon="7.9697683"><ele>312.0</ele><time>2026-04-18T13:39:47.367Z</time></trkpt><trkpt lat="45.1298683" lon="7.9699633"><ele>313.0</ele><time>2026-04-18T13:39:48.366Z</time></trkpt><trkpt lat="45.1298867" lon="7.9701383"><ele>313.5</ele><time>2026-04-18T13:39:49.367Z</time></trkpt><trkpt lat="45.12991" lon="7.970315"><ele>314.0</ele><time>2026-04-18T13:39:50.367Z</time></trkpt><trkpt lat="45.129885" lon="7.9704733"><ele>314.5</ele><time>2026-04-18T13:39:51.367Z</time></trkpt><trkpt lat="45.12983" lon="7.9706183"><ele>315.0</ele><time>2026-04-18T13:39:52.366Z</time></trkpt><trkpt lat="45.129785" lon="7.9707567"><ele>317.5</ele><time>2026-04-18T13:39:53.366Z</time></trkpt><trkpt lat="45.12973" lon="7.9708933"><ele>320.0</ele><time>2026-04-18T13:39:54.367Z</time></trkpt><trkpt lat="45.1296917" lon="7.9710433"><ele>322.5</ele><time>2026-04-18T13:39:55.367Z</time></trkpt><trkpt lat="45.1296767" lon="7.9712133"><ele>325.0</ele><time>2026-04-18T13:39:56.367Z</time></trkpt><trkpt lat="45.1296683" lon="7.9713933"><ele>325.0</ele><time>2026-04-18T13:39:57.367Z</time></trkpt><trkpt lat="45.1296867" lon="7.9715533"><ele>325.0</ele><time>2026-04-18T13:39:58.367Z</time></trkpt><trkpt lat="45.1297067" lon="7.9716983"><ele>325.0</ele><time>2026-04-18T13:39:59.367Z</time></trkpt><trkpt lat="45.1296867" lon="7.9718617"><ele>325.0</ele><time>2026-04-18T13:40:00.367Z</time></trkpt><trkpt lat="45.129655" lon="7.9720233"><ele>329.0</ele><time>2026-04-18T13:40:01.367Z</time></trkpt><trkpt lat="45.129595" lon="7.9721683"><ele>333.0</ele><time>2026-04-18T13:40:02.366Z</time></trkpt><trkpt lat="45.1295233" lon="7.97232"><ele>337.0</ele><time>2026-04-18T13:40:03.367Z</time></trkpt><trkpt lat="45.1294583" lon="7.97248"><ele>341.0</ele><time>2026-04-18T13:40:04.367Z</time></trkpt><trkpt lat="45.1293867" lon="7.972635"><ele>345.0</ele><time>2026-04-18T13:40:05.367Z</time></trkpt><trkpt lat="45.1293117" lon="7.9727917"><ele>349.0</ele><time>2026-04-18T13:40:06.367Z</time></trkpt><trkpt lat="45.1292433" lon="7.972935"><ele>353.0</ele><time>2026-04-18T13:40:07.366Z</time></trkpt><trkpt lat="45.1291667" lon="7.973055"><ele>357.0</ele><time>2026-04-18T13:40:08.367Z</time></trkpt><trkpt lat="45.1290783" lon="7.97312"><ele>353.8</ele><time>2026-04-18T13:40:09.366Z</time></trkpt><trkpt lat="45.1289683" lon="7.9731233"><ele>350.6</ele><time>2026-04-18T13:40:10.367Z</time></trkpt><trkpt lat="45.128855" lon="7.9731183"><ele>347.40000000000003</ele><time>2026-04-18T13:40:11.367Z</time></trkpt><trkpt lat="45.1287467" lon="7.9731617"><ele>344.20000000000005</ele><time>2026-04-18T13:40:12.367Z</time></trkpt><trkpt lat="45.1286517" lon="7.97323"><ele>341.0</ele><time>2026-04-18T13:40:13.367Z</time></trkpt><trkpt lat="45.1285833" lon="7.973335"><ele>342.25</ele><time>2026-04-18T13:40:14.366Z</time></trkpt><trkpt lat="45.1285483" lon="7.9734717"><ele>343.5</ele><time>2026-04-18T13:40:15.367Z</time></trkpt><trkpt lat="45.1285583" lon="7.97365"><ele>344.75</ele><time>2026-04-18T13:40:16.367Z</time></trkpt><trkpt lat="45.1285667" lon="7.9738333"><ele>346.0</ele><time>2026-04-18T13:40:17.366Z</time></trkpt><trkpt lat="45.128575" lon="7.9740083"><ele>346.0</ele><time>2026-04-18T13:40:18.367Z</time></trkpt><trkpt lat="45.1285667" lon="7.9741783"><ele>346.0</ele><time>2026-04-18T13:40:19.367Z</time></trkpt><trkpt lat="45.12853" lon="7.9743417"><ele>346.0</ele><time>2026-04-18T13:40:20.367Z</time></trkpt><trkpt lat="45.1284733" lon="7.9744817"><ele>346.0</ele><time>2026-04-18T13:40:21.366Z</time></trkpt><trkpt lat="45.1283967" lon="7.974575"><ele>347.8</ele><time>2026-04-18T13:40:22.367Z</time></trkpt><trkpt lat="45.1283683" lon="7.9747317"><ele>349.6</ele><time>2026-04-18T13:40:23.367Z</time></trkpt><trkpt lat="45.1283933" lon="7.9748817"><ele>351.4</ele><time>2026-04-18T13:40:24.366Z</time></trkpt><trkpt lat="45.1284367" lon="7.9750133"><ele>353.2</ele><time>2026-04-18T13:40:25.367Z</time></trkpt><trkpt lat="45.1285117" lon="7.9751467"><ele>355.0</ele><time>2026-04-18T13:40:26.367Z</time></trkpt><trkpt lat="45.1285917" lon="7.975265"><ele>356.6</ele><time>2026-04-18T13:40:27.367Z</time></trkpt><trkpt lat="45.1286883" lon="7.97536"><ele>358.2</ele><time>2026-04-18T13:40:28.367Z</time></trkpt><trkpt lat="45.12877" lon="7.9754533"><ele>359.79999999999995</ele><time>2026-04-18T13:40:29.367Z</time></trkpt><trkpt lat="45.1288067" lon="7.9755883"><ele>361.4</ele><time>2026-04-18T13:40:30.367Z</time></trkpt><trkpt lat="45.1287967" lon="7.975725"><ele>363.0</ele><time>2026-04-18T13:40:31.366Z</time></trkpt><trkpt lat="45.1287517" lon="7.9758633"><ele>369.0</ele><time>2026-04-18T13:40:32.367Z</time></trkpt><trkpt lat="45.128665" lon="7.9760133"><ele>375.0</ele><time>2026-04-18T13:40:33.367Z</time></trkpt><trkpt lat="45.1285417" lon="7.976175"><ele>381.0</ele><time>2026-04-18T13:40:34.366Z</time></trkpt><trkpt lat="45.1284383" lon="7.9762867"><ele>387.0</ele><time>2026-04-18T13:40:35.367Z</time></trkpt><trkpt lat="45.1283083" lon="7.97635"><ele>385.25</ele><time>2026-04-18T13:40:36.366Z</time></trkpt><trkpt lat="45.12817" lon="7.97637"><ele>383.5</ele><time>2026-04-18T13:40:37.367Z</time></trkpt><trkpt lat="45.128015" lon="7.9763133"><ele>381.75</ele><time>2026-04-18T13:40:38.367Z</time></trkpt><trkpt lat="45.127885" lon="7.9763"><ele>380.0</ele><time>2026-04-18T13:40:39.367Z</time></trkpt><trkpt lat="45.1277617" lon="7.9763383"><ele>380.0</ele><time>2026-04-18T13:40:40.366Z</time></trkpt><trkpt lat="45.1276617" lon="7.9764067"><ele>380.0</ele><time>2026-04-18T13:40:41.366Z</time></trkpt><trkpt lat="45.1275517" lon="7.9764783"><ele>380.0</ele><time>2026-04-18T13:40:42.367Z</time></trkpt><trkpt lat="45.1274367" lon="7.9765167"><ele>380.0</ele><time>2026-04-18T13:40:43.367Z</time></trkpt><trkpt lat="45.1273217" lon="7.976515"><ele>374.8</ele><time>2026-04-18T13:40:44.367Z</time></trkpt><trkpt lat="45.1272167" lon="7.9765183"><ele>369.6</ele><time>2026-04-18T13:40:45.366Z</time></trkpt><trkpt lat="45.1271417" lon="7.976585"><ele>364.4</ele><time>2026-04-18T13:40:46.367Z</time></trkpt><trkpt lat="45.127085" lon="7.9766867"><ele>359.2</ele><time>2026-04-18T13:40:47.367Z</time></trkpt><trkpt lat="45.1270617" lon="7.9768217"><ele>354.0</ele><time>2026-04-18T13:40:48.367Z</time></trkpt><trkpt lat="45.1270767" lon="7.9769767"><ele>352.6666666666667</ele><time>2026-04-18T13:40:49.367Z</time></trkpt><trkpt lat="45.12713" lon="7.977165"><ele>351.33333333333337</ele><time>2026-04-18T13:40:50.367Z</time></trkpt><trkpt lat="45.1271983" lon="7.9774017"><ele>350.0</ele><time>2026-04-18T13:40:51.367Z</time></trkpt><trkpt lat="45.1272167" lon="7.9776367"><ele>353.33333333333337</ele><time>2026-04-18T13:40:52.367Z</time></trkpt><trkpt lat="45.1272017" lon="7.977865"><ele>356.6666666666667</ele><time>2026-04-18T13:40:53.366Z</time></trkpt><trkpt lat="45.127195" lon="7.978085"><ele>360.0</ele><time>2026-04-18T13:40:54.367Z</time></trkpt><trkpt lat="45.1272033" lon="7.9782933"><ele>363.5</ele><time>2026-04-18T13:40:55.367Z</time></trkpt><trkpt lat="45.12721" lon="7.9785083"><ele>367.0</ele><time>2026-04-18T13:40:56.367Z</time></trkpt><trkpt lat="45.1272167" lon="7.9787083"><ele>370.5</ele><time>2026-04-18T13:40:57.367Z</time></trkpt><trkpt lat="45.1272067" lon="7.978895"><ele>374.0</ele><time>2026-04-18T13:40:58.367Z</time></trkpt><trkpt lat="45.1271917" lon="7.97906"><ele>372.0</ele><time>2026-04-18T13:40:59.367Z</time></trkpt><trkpt lat="45.1271333" lon="7.97921"><ele>370.0</ele><time>2026-04-18T13:41:00.367Z</time></trkpt><trkpt lat="45.1270383" lon="7.9793267"><ele>368.0</ele><time>2026-04-18T13:41:01.366Z</time></trkpt><trkpt lat="45.1269117" lon="7.979385"><ele>366.0</ele><time>2026-04-18T13:41:02.367Z</time></trkpt><trkpt lat="45.126765" lon="7.9793867"><ele>366.0</ele><time>2026-04-18T13:41:03.367Z</time></trkpt><trkpt lat="45.1266233" lon="7.97933"><ele>366.0</ele><time>2026-04-18T13:41:04.367Z</time></trkpt><trkpt lat="45.1264733" lon="7.9792467"><ele>366.0</ele><time>2026-04-18T13:41:05.367Z</time></trkpt><trkpt lat="45.1263167" lon="7.9791817"><ele>369.25</ele><time>2026-04-18T13:41:06.366Z</time></trkpt><trkpt lat="45.1261733" lon="7.9791083"><ele>372.5</ele><time>2026-04-18T13:41:07.367Z</time></trkpt><trkpt lat="45.126025" lon="7.9790633"><ele>375.75</ele><time>2026-04-18T13:41:08.367Z</time></trkpt><trkpt lat="45.1258883" lon="7.9790433"><ele>379.0</ele><time>2026-04-18T13:41:09.367Z</time></trkpt><trkpt lat="45.1257417" lon="7.9790683"><ele>383.3333333333333</ele><time>2026-04-18T13:41:10.366Z</time></trkpt><trkpt lat="45.1256033" lon="7.97914"><ele>387.66666666666663</ele><time>2026-04-18T13:41:11.366Z</time></trkpt><trkpt lat="45.1254483" lon="7.9791867"><ele>392.0</ele><time>2026-04-18T13:41:12.366Z</time></trkpt><trkpt lat="45.1252933" lon="7.9792417"><ele>393.75</ele><time>2026-04-18T13:41:13.367Z</time></trkpt><trkpt lat="45.1251483" lon="7.979295"><ele>395.5</ele><time>2026-04-18T13:41:14.366Z</time></trkpt><trkpt lat="45.1250133" lon="7.97935"><ele>397.25</ele><time>2026-04-18T13:41:15.367Z</time></trkpt><trkpt lat="45.1248817" lon="7.97942"><ele>399.0</ele><time>2026-04-18T13:41:16.367Z</time></trkpt><trkpt lat="45.12474" lon="7.979495"><ele>399.25</ele><time>2026-04-18T13:41:17.367Z</time></trkpt><trkpt lat="45.12461" lon="7.97957"><ele>399.5</ele><time>2026-04-18T13:41:18.367Z</time></trkpt><trkpt lat="45.12448" lon="7.979635"><ele>399.75</ele><time>2026-04-18T13:41:19.367Z</time></trkpt><trkpt lat="45.1243633" lon="7.97971"><ele>400.0</ele><time>2026-04-18T13:41:20.367Z</time></trkpt><trkpt lat="45.1242467" lon="7.9798117"><ele>400.0</ele><time>2026-04-18T13:41:21.367Z</time></trkpt><trkpt lat="45.1241433" lon="7.97994"><ele>400.0</ele><time>2026-04-18T13:41:22.367Z</time></trkpt><trkpt lat="45.1240517" lon="7.98007"><ele>400.0</ele><time>2026-04-18T13:41:23.367Z</time></trkpt><trkpt lat="45.1239367" lon="7.98016"><ele>400.0</ele><time>2026-04-18T13:41:24.367Z</time></trkpt><trkpt lat="45.12382" lon="7.98026"><ele>399.75</ele><time>2026-04-18T13:41:25.366Z</time></trkpt><trkpt lat="45.1236967" lon="7.98034"><ele>399.5</ele><time>2026-04-18T13:41:26.366Z</time></trkpt><trkpt lat="45.12356" lon="7.98042"><ele>399.25</ele><time>2026-04-18T13:41:27.367Z</time></trkpt><trkpt lat="45.123425" lon="7.9804883"><ele>399.0</ele><time>2026-04-18T13:41:28.367Z</time></trkpt><trkpt lat="45.12328" lon="7.98055"><ele>397.5</ele><time>2026-04-18T13:41:29.367Z</time></trkpt><trkpt lat="45.123145" lon="7.9806117"><ele>396.0</ele><time>2026-04-18T13:41:30.367Z</time></trkpt><trkpt lat="45.1230083" lon="7.9806867"><ele>394.5</ele><time>2026-04-18T13:41:31.367Z</time></trkpt><trkpt lat="45.1228917" lon="7.9807683"><ele>393.0</ele><time>2026-04-18T13:41:32.367Z</time></trkpt><trkpt lat="45.1227717" lon="7.9808783"><ele>393.0</ele><time>2026-04-18T13:41:33.366Z</time></trkpt><trkpt lat="45.1226533" lon="7.9809867"><ele>393.0</ele><time>2026-04-18T13:41:34.367Z</time></trkpt><trkpt lat="45.1225433" lon="7.9810883"><ele>393.0</ele><time>2026-04-18T13:41:35.366Z</time></trkpt><trkpt lat="45.122435" lon="7.9811867"><ele>393.0</ele><time>2026-04-18T13:41:36.367Z</time></trkpt><trkpt lat="45.12234" lon="7.9812883"><ele>391.0</ele><time>2026-04-18T13:41:37.366Z</time></trkpt><trkpt lat="45.12227" lon="7.9813933"><ele>389.0</ele><time>2026-04-18T13:41:38.367Z</time></trkpt><trkpt lat="45.1222233" lon="7.9815133"><ele>387.0</ele><time>2026-04-18T13:41:39.367Z</time></trkpt><trkpt lat="45.12217" lon="7.9816683"><ele>385.0</ele><time>2026-04-18T13:41:40.367Z</time></trkpt><trkpt lat="45.1221317" lon="7.9818267"><ele>383.0</ele><time>2026-04-18T13:41:41.367Z</time></trkpt><trkpt lat="45.122095" lon="7.9820133"><ele>383.0</ele><time>2026-04-18T13:41:42.367Z</time></trkpt><trkpt lat="45.1220583" lon="7.982185"><ele>383.0</ele><time>2026-04-18T13:41:43.367Z</time></trkpt><trkpt lat="45.12199" lon="7.9823533"><ele>383.0</ele><time>2026-04-18T13:41:44.367Z</time></trkpt><trkpt lat="45.1218967" lon="7.9825083"><ele>383.0</ele><time>2026-04-18T13:41:45.367Z</time></trkpt><trkpt lat="45.12178" lon="7.9826367"><ele>381.25</ele><time>2026-04-18T13:41:46.367Z</time></trkpt><trkpt lat="45.12165" lon="7.98274"><ele>379.5</ele><time>2026-04-18T13:41:47.367Z</time></trkpt><trkpt lat="45.121515" lon="7.982815"><ele>377.75</ele><time>2026-04-18T13:41:48.367Z</time></trkpt><trkpt lat="45.121375" lon="7.9828517"><ele>376.0</ele><time>2026-04-18T13:41:49.367Z</time></trkpt><trkpt lat="45.1212367" lon="7.9828683"><ele>380.75</ele><time>2026-04-18T13:41:50.367Z</time></trkpt><trkpt lat="45.1211" lon="7.9828617"><ele>385.5</ele><time>2026-04-18T13:41:51.367Z</time></trkpt><trkpt lat="45.1209717" lon="7.98283"><ele>390.25</ele><time>2026-04-18T13:41:52.367Z</time></trkpt><trkpt lat="45.1208583" lon="7.982815"><ele>395.0</ele><time>2026-04-18T13:41:53.367Z</time></trkpt><trkpt lat="45.1207433" lon="7.9828033"><ele>397.5</ele><time>2026-04-18T13:41:54.366Z</time></trkpt><trkpt lat="45.12063" lon="7.9827733"><ele>400.0</ele><time>2026-04-18T13:41:55.367Z</time></trkpt><trkpt lat="45.1205183" lon="7.9827817"><ele>402.5</ele><time>2026-04-18T13:41:56.367Z</time></trkpt><trkpt lat="45.1204083" lon="7.9828233"><ele>405.0</ele><time>2026-04-18T13:41:57.367Z</time></trkpt><trkpt lat="45.1202933" lon="7.9829033"><ele>405.0</ele><time>2026-04-18T13:41:58.367Z</time></trkpt><trkpt lat="45.1201783" lon="7.9830083"><ele>405.0</ele><time>2026-04-18T13:41:59.367Z</time></trkpt><trkpt lat="45.120075" lon="7.9831217"><ele>405.0</ele><time>2026-04-18T13:42:00.366Z</time></trkpt><trkpt lat="45.11997" lon="7.983255"><ele>405.0</ele><time>2026-04-18T13:42:01.367Z</time></trkpt><trkpt lat="45.1198867" lon="7.9833983"><ele>407.0</ele><time>2026-04-18T13:42:02.366Z</time></trkpt><trkpt lat="45.1198233" lon="7.983555"><ele>409.0</ele><time>2026-04-18T13:42:03.367Z</time></trkpt><trkpt lat="45.11976" lon="7.98372"><ele>411.0</ele><time>2026-04-18T13:42:04.367Z</time></trkpt><trkpt lat="45.1197083" lon="7.9838917"><ele>413.0</ele><time>2026-04-18T13:42:05.367Z</time></trkpt><trkpt lat="45.11965" lon="7.9840633"><ele>416.75</ele><time>2026-04-18T13:42:06.367Z</time></trkpt><trkpt lat="45.119575" lon="7.984225"><ele>420.5</ele><time>2026-04-18T13:42:07.367Z</time></trkpt><trkpt lat="45.1195067" lon="7.98437"><ele>424.25</ele><time>2026-04-18T13:42:08.367Z</time></trkpt><trkpt lat="45.11945" lon="7.9844683"><ele>428.0</ele><time>2026-04-18T13:42:09.367Z</time></trkpt><trkpt lat="45.1193783" lon="7.9846"><ele>428.0</ele><time>2026-04-18T13:42:11.367Z</time></trkpt><trkpt lat="45.1193417" lon="7.9846767"><ele>427.99999999999994</ele><time>2026-04-18T13:42:12.367Z</time></trkpt><trkpt lat="45.119305" lon="7.9847817"><ele>427.99999999999994</ele><time>2026-04-18T13:42:13.367Z</time></trkpt><trkpt lat="45.119255" lon="7.9848967"><ele>428.0</ele><time>2026-04-18T13:42:14.367Z</time></trkpt><trkpt lat="45.119215" lon="7.9850267"><ele>428.0</ele><time>2026-04-18T13:42:15.367Z</time></trkpt><trkpt lat="45.1191783" lon="7.98519"><ele>428.5</ele><time>2026-04-18T13:42:16.367Z</time></trkpt><trkpt lat="45.119165" lon="7.9853633"><ele>429.0</ele><time>2026-04-18T13:42:17.367Z</time></trkpt><trkpt lat="45.1191833" lon="7.9855083"><ele>429.5</ele><time>2026-04-18T13:42:18.367Z</time></trkpt><trkpt lat="45.119185" lon="7.9857"><ele>430.0</ele><time>2026-04-18T13:42:19.367Z</time></trkpt><trkpt lat="45.1192067" lon="7.985875"><ele>433.0</ele><time>2026-04-18T13:42:20.367Z</time></trkpt><trkpt lat="45.1192517" lon="7.9860433"><ele>436.0</ele><time>2026-04-18T13:42:21.367Z</time></trkpt><trkpt lat="45.1193067" lon="7.9861933"><ele>439.0</ele><time>2026-04-18T13:42:22.366Z</time></trkpt><trkpt lat="45.11935" lon="7.9863517"><ele>442.0</ele><time>2026-04-18T13:42:23.367Z</time></trkpt><trkpt lat="45.1193983" lon="7.9865033"><ele>442.0</ele><time>2026-04-18T13:42:24.367Z</time></trkpt><trkpt lat="45.11946" lon="7.986655"><ele>442.00000000000006</ele><time>2026-04-18T13:42:25.367Z</time></trkpt><trkpt lat="45.1194983" lon="7.9868017"><ele>442.00000000000006</ele><time>2026-04-18T13:42:26.367Z</time></trkpt><trkpt lat="45.1195083" lon="7.9869617"><ele>442.0</ele><time>2026-04-18T13:42:27.367Z</time></trkpt><trkpt lat="45.1195033" lon="7.9871017"><ele>442.0</ele><time>2026-04-18T13:42:28.366Z</time></trkpt><trkpt lat="45.1194683" lon="7.9872367"><ele>442.6666666666667</ele><time>2026-04-18T13:42:29.367Z</time></trkpt><trkpt lat="45.1194083" lon="7.9873333"><ele>443.33333333333337</ele><time>2026-04-18T13:42:30.367Z</time></trkpt><trkpt lat="45.119325" lon="7.9874017"><ele>444.0</ele><time>2026-04-18T13:42:31.367Z</time></trkpt><trkpt lat="45.1192517" lon="7.98744"><ele>444.66666666666663</ele><time>2026-04-18T13:42:32.367Z</time></trkpt><trkpt lat="45.11918" lon="7.9874783"><ele>445.3333333333333</ele><time>2026-04-18T13:42:34.367Z</time></trkpt><trkpt lat="45.11913" lon="7.9875633"><ele>446.0</ele><time>2026-04-18T13:44:10.366Z</time></trkpt><trkpt lat="45.1191617" lon="7.9876517"><ele>446.99999999999994</ele><time>2026-04-18T13:45:33.365Z</time></trkpt><trkpt lat="45.1191867" lon="7.987735"><ele>448.0</ele><time>2026-04-18T13:45:34.366Z</time></trkpt><trkpt lat="45.119215" lon="7.9878467"><ele>449.0</ele><time>2026-04-18T13:45:35.365Z</time></trkpt><trkpt lat="45.1192367" lon="7.9879667"><ele>450.0</ele><time>2026-04-18T13:45:36.366Z</time></trkpt><trkpt lat="45.1192617" lon="7.9880883"><ele>450.99999999999994</ele><time>2026-04-18T13:45:37.366Z</time></trkpt><trkpt lat="45.1192883" lon="7.98822"><ele>452.0</ele><time>2026-04-18T13:45:38.365Z</time></trkpt><trkpt lat="45.1193217" lon="7.9883617"><ele>455.8</ele><time>2026-04-18T13:45:39.366Z</time></trkpt><trkpt lat="45.11935" lon="7.988505"><ele>459.6</ele><time>2026-04-18T13:45:40.366Z</time></trkpt><trkpt lat="45.11939" lon="7.9886333"><ele>463.40000000000003</ele><time>2026-04-18T13:45:41.366Z</time></trkpt><trkpt lat="45.1194367" lon="7.9887517"><ele>467.20000000000005</ele><time>2026-04-18T13:45:42.366Z</time></trkpt><trkpt lat="45.1194983" lon="7.9888483"><ele>471.0</ele><time>2026-04-18T13:45:43.366Z</time></trkpt><trkpt lat="45.1195767" lon="7.9889433"><ele>471.0</ele><time>2026-04-18T13:45:44.366Z</time></trkpt><trkpt lat="45.1196517" lon="7.9890417"><ele>471.0</ele><time>2026-04-18T13:45:45.365Z</time></trkpt><trkpt lat="45.1197283" lon="7.9891667"><ele>471.0</ele><time>2026-04-18T13:45:46.366Z</time></trkpt><trkpt lat="45.1198" lon="7.989305"><ele>471.0</ele><time>2026-04-18T13:45:47.365Z</time></trkpt><trkpt lat="45.11987" lon="7.98945"><ele>469.25</ele><time>2026-04-18T13:45:48.366Z</time></trkpt><trkpt lat="45.11995" lon="7.989575"><ele>467.5</ele><time>2026-04-18T13:45:49.365Z</time></trkpt><trkpt lat="45.1200333" lon="7.989705"><ele>465.75</ele><time>2026-04-18T13:45:50.366Z</time></trkpt><trkpt lat="45.1201233" lon="7.989835"><ele>464.0</ele><time>2026-04-18T13:45:51.366Z</time></trkpt><trkpt lat="45.1201983" lon="7.98995"><ele>466.2</ele><time>2026-04-18T13:45:52.365Z</time></trkpt><trkpt lat="45.1202733" lon="7.99005"><ele>468.4</ele><time>2026-04-18T13:45:53.366Z</time></trkpt><trkpt lat="45.1203567" lon="7.990115"><ele>470.6</ele><time>2026-04-18T13:45:54.366Z</time></trkpt><trkpt lat="45.1204433" lon="7.9901483"><ele>472.8</ele><time>2026-04-18T13:45:55.365Z</time></trkpt><trkpt lat="45.1205417" lon="7.990165"><ele>475.0</ele><time>2026-04-18T13:45:56.366Z</time></trkpt><trkpt lat="45.1206333" lon="7.9901683"><ele>475.00000000000006</ele><time>2026-04-18T13:45:57.365Z</time></trkpt><trkpt lat="45.120715" lon="7.9901917"><ele>475.0</ele><time>2026-04-18T13:45:58.366Z</time></trkpt><trkpt lat="45.12079" lon="7.99023"><ele>475.0</ele><time>2026-04-18T13:45:59.366Z</time></trkpt><trkpt lat="45.1208283" lon="7.9903833"><ele>475.0</ele><time>2026-04-18T13:46:01.365Z</time></trkpt><trkpt lat="45.120805" lon="7.99049"><ele>475.00000000000006</ele><time>2026-04-18T13:46:02.366Z</time></trkpt><trkpt lat="45.1207733" lon="7.9905983"><ele>475.0</ele><time>2026-04-18T13:46:03.365Z</time></trkpt><trkpt lat="45.1207433" lon="7.9907133"><ele>475.0</ele><time>2026-04-18T13:46:04.366Z</time></trkpt><trkpt lat="45.1207167" lon="7.9908233"><ele>475.0</ele><time>2026-04-18T13:46:05.365Z</time></trkpt><trkpt lat="45.1206833" lon="7.99095"><ele>475.0</ele><time>2026-04-18T13:46:06.366Z</time></trkpt><trkpt lat="45.12064" lon="7.9911"><ele>475.0</ele><time>2026-04-18T13:46:07.365Z</time></trkpt><trkpt lat="45.12061" lon="7.9912667"><ele>475.0</ele><time>2026-04-18T13:46:08.366Z</time></trkpt><trkpt lat="45.1205883" lon="7.991445"><ele>472.5</ele><time>2026-04-18T13:46:09.366Z</time></trkpt><trkpt lat="45.1205733" lon="7.9916533"><ele>470.0</ele><time>2026-04-18T13:46:10.366Z</time></trkpt><trkpt lat="45.12057" lon="7.99186"><ele>467.5</ele><time>2026-04-18T13:46:11.365Z</time></trkpt><trkpt lat="45.1205833" lon="7.992065"><ele>465.0</ele><time>2026-04-18T13:46:12.366Z</time></trkpt><trkpt lat="45.1206" lon="7.99226"><ele>462.2</ele><time>2026-04-18T13:46:13.366Z</time></trkpt><trkpt lat="45.1206117" lon="7.9924517"><ele>459.4</ele><time>2026-04-18T13:46:14.366Z</time></trkpt><trkpt lat="45.1206283" lon="7.9925983"><ele>456.6</ele><time>2026-04-18T13:46:15.366Z</time></trkpt><trkpt lat="45.1206483" lon="7.9926983"><ele>453.8</ele><time>2026-04-18T13:46:16.366Z</time></trkpt><trkpt lat="45.120675" lon="7.9927817"><ele>451.0</ele><time>2026-04-18T13:46:17.366Z</time></trkpt><trkpt lat="45.12071" lon="7.9928817"><ele>454.4</ele><time>2026-04-18T13:46:18.366Z</time></trkpt><trkpt lat="45.120745" lon="7.9929967"><ele>457.8</ele><time>2026-04-18T13:46:19.366Z</time></trkpt><trkpt lat="45.12078" lon="7.9931333"><ele>461.19999999999993</ele><time>2026-04-18T13:46:20.366Z</time></trkpt><trkpt lat="45.1208017" lon="7.9932917"><ele>464.59999999999997</ele><time>2026-04-18T13:46:21.366Z</time></trkpt><trkpt lat="45.1208317" lon="7.99346"><ele>468.0</ele><time>2026-04-18T13:46:22.366Z</time></trkpt><trkpt lat="45.1208817" lon="7.9936117"><ele>470.25</ele><time>2026-04-18T13:46:23.366Z</time></trkpt><trkpt lat="45.1209567" lon="7.993745"><ele>472.5</ele><time>2026-04-18T13:46:24.366Z</time></trkpt><trkpt lat="45.1210567" lon="7.9938583"><ele>474.75</ele><time>2026-04-18T13:46:25.365Z</time></trkpt><trkpt lat="45.121165" lon="7.99396"><ele>477.0</ele><time>2026-04-18T13:46:26.365Z</time></trkpt><trkpt lat="45.1212967" lon="7.9940733"><ele>474.33333333333337</ele><time>2026-04-18T13:46:27.366Z</time></trkpt><trkpt lat="45.12142" lon="7.99419"><ele>471.6666666666667</ele><time>2026-04-18T13:46:28.366Z</time></trkpt><trkpt lat="45.1215283" lon="7.9943367"><ele>469.0</ele><time>2026-04-18T13:46:29.366Z</time></trkpt><trkpt lat="45.12164" lon="7.9944883"><ele>466.75</ele><time>2026-04-18T13:46:30.366Z</time></trkpt><trkpt lat="45.1217567" lon="7.99463"><ele>464.5</ele><time>2026-04-18T13:46:31.366Z</time></trkpt><trkpt lat="45.1218683" lon="7.9947517"><ele>462.25</ele><time>2026-04-18T13:46:32.366Z</time></trkpt><trkpt lat="45.1219783" lon="7.9948533"><ele>460.0</ele><time>2026-04-18T13:46:33.365Z</time></trkpt><trkpt lat="45.12209" lon="7.99494"><ele>456.75</ele><time>2026-04-18T13:46:34.366Z</time></trkpt><trkpt lat="45.1221967" lon="7.9950117"><ele>453.5</ele><time>2026-04-18T13:46:35.366Z</time></trkpt><trkpt lat="45.122305" lon="7.995075"><ele>450.25</ele><time>2026-04-18T13:46:36.365Z</time></trkpt><trkpt lat="45.1224217" lon="7.995135"><ele>447.0</ele><time>2026-04-18T13:46:37.366Z</time></trkpt><trkpt lat="45.12254" lon="7.9951717"><ele>447.0</ele><time>2026-04-18T13:46:38.366Z</time></trkpt><trkpt lat="45.12267" lon="7.995195"><ele>447.0</ele><time>2026-04-18T13:46:39.366Z</time></trkpt><trkpt lat="45.1228" lon="7.9952083"><ele>447.0</ele><time>2026-04-18T13:46:40.366Z</time></trkpt><trkpt lat="45.12293" lon="7.9952167"><ele>447.0</ele><time>2026-04-18T13:46:41.366Z</time></trkpt><trkpt lat="45.1230533" lon="7.9952517"><ele>447.0</ele><time>2026-04-18T13:46:42.365Z</time></trkpt><trkpt lat="45.1231683" lon="7.995315"><ele>447.0</ele><time>2026-04-18T13:46:43.366Z</time></trkpt><trkpt lat="45.1232717" lon="7.9954067"><ele>447.0</ele><time>2026-04-18T13:46:44.366Z</time></trkpt><trkpt lat="45.123365" lon="7.9955217"><ele>447.0</ele><time>2026-04-18T13:46:45.366Z</time></trkpt><trkpt lat="45.123405" lon="7.995675"><ele>451.25</ele><time>2026-04-18T13:46:46.366Z</time></trkpt><trkpt lat="45.12339" lon="7.9958483"><ele>455.5</ele><time>2026-04-18T13:46:47.365Z</time></trkpt><trkpt lat="45.1233467" lon="7.996045"><ele>459.75</ele><time>2026-04-18T13:46:48.366Z</time></trkpt><trkpt lat="45.1233067" lon="7.9962417"><ele>464.0</ele><time>2026-04-18T13:46:49.365Z</time></trkpt><trkpt lat="45.1232717" lon="7.9964283"><ele>456.5</ele><time>2026-04-18T13:46:50.365Z</time></trkpt><trkpt lat="45.123215" lon="7.996605"><ele>449.0</ele><time>2026-04-18T13:46:51.366Z</time></trkpt><trkpt lat="45.123165" lon="7.9967867"><ele>441.5</ele><time>2026-04-18T13:46:52.366Z</time></trkpt><trkpt lat="45.12313" lon="7.99697"><ele>434.0</ele><time>2026-04-18T13:46:53.366Z</time></trkpt><trkpt lat="45.1231167" lon="7.9971467"><ele>434.0</ele><time>2026-04-18T13:46:54.366Z</time></trkpt><trkpt lat="45.1231117" lon="7.997305"><ele>434.0</ele><time>2026-04-18T13:46:55.366Z</time></trkpt><trkpt lat="45.1230983" lon="7.9974517"><ele>434.0</ele><time>2026-04-18T13:46:56.365Z</time></trkpt><trkpt lat="45.1230667" lon="7.9975833"><ele>434.0</ele><time>2026-04-18T13:46:57.366Z</time></trkpt><trkpt lat="45.1230233" lon="7.99769"><ele>434.0</ele><time>2026-04-18T13:46:58.366Z</time></trkpt><trkpt lat="45.1229767" lon="7.9977783"><ele>435.0</ele><time>2026-04-18T13:46:59.366Z</time></trkpt><trkpt lat="45.1229067" lon="7.99785"><ele>436.0</ele><time>2026-04-18T13:47:00.365Z</time></trkpt><trkpt lat="45.12282" lon="7.9979133"><ele>437.0</ele><time>2026-04-18T13:47:01.366Z</time></trkpt><trkpt lat="45.1227217" lon="7.997975"><ele>438.0</ele><time>2026-04-18T13:47:02.366Z</time></trkpt><trkpt lat="45.12262" lon="7.9980517"><ele>439.0</ele><time>2026-04-18T13:47:03.365Z</time></trkpt><trkpt lat="45.1225217" lon="7.9981367"><ele>439.0</ele><time>2026-04-18T13:47:04.366Z</time></trkpt><trkpt lat="45.1224083" lon="7.99823"><ele>439.0</ele><time>2026-04-18T13:47:05.366Z</time></trkpt><trkpt lat="45.1222983" lon="7.9983133"><ele>439.0</ele><time>2026-04-18T13:47:06.365Z</time></trkpt><trkpt lat="45.1221883" lon="7.9983967"><ele>439.0</ele><time>2026-04-18T13:47:07.366Z</time></trkpt><trkpt lat="45.122095" lon="7.9984967"><ele>436.5</ele><time>2026-04-18T13:47:08.366Z</time></trkpt><trkpt lat="45.1220117" lon="7.9986167"><ele>434.0</ele><time>2026-04-18T13:47:09.365Z</time></trkpt><trkpt lat="45.1219367" lon="7.9987317"><ele>431.5</ele><time>2026-04-18T13:47:10.366Z</time></trkpt><trkpt lat="45.1218633" lon="7.99884"><ele>429.0</ele><time>2026-04-18T13:47:11.366Z</time></trkpt><trkpt lat="45.12178" lon="7.9989667"><ele>429.0</ele><time>2026-04-18T13:47:12.365Z</time></trkpt><trkpt lat="45.1216983" lon="7.9990783"><ele>429.0</ele><time>2026-04-18T13:47:13.366Z</time></trkpt><trkpt lat="45.1216267" lon="7.99919"><ele>429.0</ele><time>2026-04-18T13:47:14.366Z</time></trkpt><trkpt lat="45.12157" lon="7.9993017"><ele>429.0</ele><time>2026-04-18T13:47:15.366Z</time></trkpt><trkpt lat="45.1215367" lon="7.9994417"><ele>429.0</ele><time>2026-04-18T13:47:16.366Z</time></trkpt><trkpt lat="45.12153" lon="7.9996083"><ele>426.6</ele><time>2026-04-18T13:47:17.366Z</time></trkpt><trkpt lat="45.1215317" lon="7.9997633"><ele>424.2</ele><time>2026-04-18T13:47:18.365Z</time></trkpt><trkpt lat="45.1215383" lon="7.9999117"><ele>421.8</ele><time>2026-04-18T13:47:19.366Z</time></trkpt><trkpt lat="45.1215367" lon="8.0000533"><ele>419.40000000000003</ele><time>2026-04-18T13:47:20.366Z</time></trkpt><trkpt lat="45.1214983" lon="8.0001867"><ele>417.0</ele><time>2026-04-18T13:47:21.366Z</time></trkpt><trkpt lat="45.1214367" lon="8.0003117"><ele>417.0</ele><time>2026-04-18T13:47:22.366Z</time></trkpt><trkpt lat="45.12136" lon="8.0004467"><ele>417.0</ele><time>2026-04-18T13:47:23.366Z</time></trkpt><trkpt lat="45.1212667" lon="8.0005733"><ele>417.0</ele><time>2026-04-18T13:47:24.366Z</time></trkpt><trkpt lat="45.1211733" lon="8.000695"><ele>417.0</ele><time>2026-04-18T13:47:25.366Z</time></trkpt><trkpt lat="45.1210683" lon="8.000795"><ele>418.25</ele><time>2026-04-18T13:47:26.366Z</time></trkpt><trkpt lat="45.1209467" lon="8.0008433"><ele>419.5</ele><time>2026-04-18T13:47:27.366Z</time></trkpt><trkpt lat="45.12081" lon="8.0008933"><ele>420.75</ele><time>2026-04-18T13:47:28.366Z</time></trkpt><trkpt lat="45.12068" lon="8.0009667"><ele>422.0</ele><time>2026-04-18T13:47:29.365Z</time></trkpt><trkpt lat="45.120555" lon="8.0010433"><ele>422.0</ele><time>2026-04-18T13:47:30.366Z</time></trkpt><trkpt lat="45.1204317" lon="8.001135"><ele>422.0</ele><time>2026-04-18T13:47:31.366Z</time></trkpt><trkpt lat="45.1203067" lon="8.0012317"><ele>422.0</ele><time>2026-04-18T13:47:32.365Z</time></trkpt><trkpt lat="45.1201883" lon="8.0013383"><ele>422.0</ele><time>2026-04-18T13:47:33.366Z</time></trkpt><trkpt lat="45.1200683" lon="8.0014383"><ele>422.0</ele><time>2026-04-18T13:47:34.366Z</time></trkpt><trkpt lat="45.11996" lon="8.0015483"><ele>422.0</ele><time>2026-04-18T13:47:35.366Z</time></trkpt><trkpt lat="45.1198533" lon="8.001645"><ele>422.0</ele><time>2026-04-18T13:47:36.366Z</time></trkpt><trkpt lat="45.1197383" lon="8.00173"><ele>422.0</ele><time>2026-04-18T13:47:37.366Z</time></trkpt><trkpt lat="45.1196267" lon="8.0018083"><ele>423.5</ele><time>2026-04-18T13:47:38.366Z</time></trkpt><trkpt lat="45.1195317" lon="8.0018933"><ele>425.0</ele><time>2026-04-18T13:47:39.366Z</time></trkpt><trkpt lat="45.11943" lon="8.0019667"><ele>426.5</ele><time>2026-04-18T13:47:40.365Z</time></trkpt><trkpt lat="45.11932" lon="8.0020183"><ele>428.0</ele><time>2026-04-18T13:47:41.366Z</time></trkpt><trkpt lat="45.119205" lon="8.0020517"><ele>428.0</ele><time>2026-04-18T13:47:42.366Z</time></trkpt><trkpt lat="45.1190933" lon="8.00206"><ele>428.0</ele><time>2026-04-18T13:47:43.366Z</time></trkpt><trkpt lat="45.1189733" lon="8.0020767"><ele>428.0</ele><time>2026-04-18T13:47:44.366Z</time></trkpt><trkpt lat="45.118865" lon="8.0021017"><ele>428.0</ele><time>2026-04-18T13:47:45.365Z</time></trkpt><trkpt lat="45.1187467" lon="8.0021367"><ele>429.75</ele><time>2026-04-18T13:47:46.366Z</time></trkpt><trkpt lat="45.1186233" lon="8.0021967"><ele>431.5</ele><time>2026-04-18T13:47:47.366Z</time></trkpt><trkpt lat="45.118505" lon="8.0022483"><ele>433.25</ele><time>2026-04-18T13:47:48.366Z</time></trkpt><trkpt lat="45.1183967" lon="8.00229"><ele>435.0</ele><time>2026-04-18T13:47:49.366Z</time></trkpt><trkpt lat="45.1182833" lon="8.002315"><ele>438.5</ele><time>2026-04-18T13:47:50.366Z</time></trkpt><trkpt lat="45.1181517" lon="8.0023217"><ele>442.0</ele><time>2026-04-18T13:47:51.366Z</time></trkpt><trkpt lat="45.1180233" lon="8.0023083"><ele>445.5</ele><time>2026-04-18T13:47:52.366Z</time></trkpt><trkpt lat="45.117895" lon="8.0022933"><ele>449.0</ele><time>2026-04-18T13:47:53.366Z</time></trkpt><trkpt lat="45.1177817" lon="8.0022917"><ele>449.0</ele><time>2026-04-18T13:47:54.366Z</time></trkpt><trkpt lat="45.1176683" lon="8.002305"><ele>449.0</ele><time>2026-04-18T13:47:55.366Z</time></trkpt><trkpt lat="45.1175517" lon="8.0023483"><ele>449.0</ele><time>2026-04-18T13:47:56.365Z</time></trkpt><trkpt lat="45.117435" lon="8.002415"><ele>449.0</ele><time>2026-04-18T13:47:57.366Z</time></trkpt><trkpt lat="45.117325" lon="8.0025133"><ele>446.66666666666663</ele><time>2026-04-18T13:47:58.366Z</time></trkpt><trkpt lat="45.117235" lon="8.0025717"><ele>444.3333333333333</ele><time>2026-04-18T13:47:59.366Z</time></trkpt><trkpt lat="45.1171633" lon="8.0026233"><ele>442.0</ele><time>2026-04-18T13:48:00.366Z</time></trkpt><trkpt lat="45.1170767" lon="8.0026783"><ele>439.66666666666663</ele><time>2026-04-18T13:48:01.366Z</time></trkpt><trkpt lat="45.117015" lon="8.0027433"><ele>437.3333333333333</ele><time>2026-04-18T13:48:02.366Z</time></trkpt><trkpt lat="45.116945" lon="8.0028317"><ele>435.0</ele><time>2026-04-18T13:48:03.366Z</time></trkpt><trkpt lat="45.1169267" lon="8.0029333"><ele>435.0</ele><time>2026-04-18T13:48:04.366Z</time></trkpt><trkpt lat="45.1168967" lon="8.0030217"><ele>435.0</ele><time>2026-04-18T13:48:05.366Z</time></trkpt><trkpt lat="45.116855" lon="8.0031133"><ele>435.0</ele><time>2026-04-18T13:48:06.366Z</time></trkpt><trkpt lat="45.1167883" lon="8.003215"><ele>435.0</ele><time>2026-04-18T13:48:07.366Z</time></trkpt><trkpt lat="45.1167183" lon="8.00333"><ele>435.0</ele><time>2026-04-18T13:48:08.366Z</time></trkpt><trkpt lat="45.1166517" lon="8.00346"><ele>435.75</ele><time>2026-04-18T13:48:09.366Z</time></trkpt><trkpt lat="45.1165783" lon="8.0035833"><ele>436.5</ele><time>2026-04-18T13:48:10.366Z</time></trkpt><trkpt lat="45.1164917" lon="8.0036867"><ele>437.25</ele><time>2026-04-18T13:48:11.366Z</time></trkpt><trkpt lat="45.116385" lon="8.0037917"><ele>438.0</ele><time>2026-04-18T13:48:12.366Z</time></trkpt><trkpt lat="45.11627" lon="8.00389"><ele>438.5</ele><time>2026-04-18T13:48:13.365Z</time></trkpt><trkpt lat="45.11618" lon="8.0039367"><ele>439.0</ele><time>2026-04-18T13:48:14.366Z</time></trkpt><trkpt lat="45.116115" lon="8.00398"><ele>439.5</ele><time>2026-04-18T13:48:15.366Z</time></trkpt><trkpt lat="45.11604" lon="8.0040767"><ele>440.0</ele><time>2026-04-18T13:48:17.366Z</time></trkpt><trkpt lat="45.1160283" lon="8.00423"><ele>440.5</ele><time>2026-04-18T13:48:19.366Z</time></trkpt><trkpt lat="45.1160283" lon="8.0043267"><ele>441.0</ele><time>2026-04-18T13:48:20.365Z</time></trkpt><trkpt lat="45.1160267" lon="8.00443"><ele>441.0</ele><time>2026-04-18T13:48:21.366Z</time></trkpt><trkpt lat="45.11604" lon="8.0045383"><ele>441.0</ele><time>2026-04-18T13:48:22.366Z</time></trkpt><trkpt lat="45.1160617" lon="8.0046633"><ele>441.0</ele><time>2026-04-18T13:48:23.366Z</time></trkpt><trkpt lat="45.1161133" lon="8.0047833"><ele>441.0</ele><time>2026-04-18T13:48:24.366Z</time></trkpt><trkpt lat="45.1161967" lon="8.0048917"><ele>441.0</ele><time>2026-04-18T13:48:25.366Z</time></trkpt><trkpt lat="45.1162967" lon="8.0050217"><ele>445.25</ele><time>2026-04-18T13:48:26.366Z</time></trkpt><trkpt lat="45.1163933" lon="8.005145"><ele>449.5</ele><time>2026-04-18T13:48:27.366Z</time></trkpt><trkpt lat="45.1164917" lon="8.0052667"><ele>453.75</ele><time>2026-04-18T13:48:28.366Z</time></trkpt><trkpt lat="45.11659" lon="8.0053633"><ele>458.0</ele><time>2026-04-18T13:48:29.365Z</time></trkpt><trkpt lat="45.1166933" lon="8.00541"><ele>451.0</ele><time>2026-04-18T13:48:30.366Z</time></trkpt><trkpt lat="45.1167933" lon="8.0054533"><ele>443.99999999999994</ele><time>2026-04-18T13:48:31.365Z</time></trkpt><trkpt lat="45.11689" lon="8.0054867"><ele>437.0</ele><time>2026-04-18T13:48:32.366Z</time></trkpt><trkpt lat="45.1169817" lon="8.00555"><ele>430.0</ele><time>2026-04-18T13:48:33.365Z</time></trkpt><trkpt lat="45.1170567" lon="8.0056333"><ele>423.0</ele><time>2026-04-18T13:48:34.366Z</time></trkpt><trkpt lat="45.117115" lon="8.0057317"><ele>425.1666666666667</ele><time>2026-04-18T13:48:35.366Z</time></trkpt><trkpt lat="45.117155" lon="8.005845"><ele>427.33333333333337</ele><time>2026-04-18T13:48:36.366Z</time></trkpt><trkpt lat="45.1171783" lon="8.0059633"><ele>429.5</ele><time>2026-04-18T13:48:37.366Z</time></trkpt><trkpt lat="45.1171567" lon="8.0060733"><ele>431.6666666666667</ele><time>2026-04-18T13:48:38.366Z</time></trkpt><trkpt lat="45.1171083" lon="8.0061767"><ele>433.83333333333337</ele><time>2026-04-18T13:48:39.366Z</time></trkpt><trkpt lat="45.117045" lon="8.0062767"><ele>436.0</ele><time>2026-04-18T13:48:40.366Z</time></trkpt><trkpt lat="45.11695" lon="8.00636"><ele>436.0</ele><time>2026-04-18T13:48:41.366Z</time></trkpt><trkpt lat="45.1168367" lon="8.0064583"><ele>436.0</ele><time>2026-04-18T13:48:42.366Z</time></trkpt><trkpt lat="45.1167233" lon="8.0065733"><ele>436.0</ele><time>2026-04-18T13:48:43.366Z</time></trkpt><trkpt lat="45.11662" lon="8.0067267"><ele>436.0</ele><time>2026-04-18T13:48:44.365Z</time></trkpt><trkpt lat="45.11657" lon="8.0069267"><ele>435.0</ele><time>2026-04-18T13:48:45.366Z</time></trkpt><trkpt lat="45.116555" lon="8.0071367"><ele>434.0</ele><time>2026-04-18T13:48:46.366Z</time></trkpt><trkpt lat="45.1165833" lon="8.0073467"><ele>433.0</ele><time>2026-04-18T13:48:47.366Z</time></trkpt><trkpt lat="45.11662" lon="8.0075433"><ele>432.0</ele><time>2026-04-18T13:48:48.366Z</time></trkpt><trkpt lat="45.11663" lon="8.0077383"><ele>431.0</ele><time>2026-04-18T13:48:49.366Z</time></trkpt><trkpt lat="45.1166317" lon="8.00792"><ele>430.0</ele><time>2026-04-18T13:48:50.366Z</time></trkpt><trkpt lat="45.1166167" lon="8.0080817"><ele>429.0</ele><time>2026-04-18T13:48:51.366Z</time></trkpt><trkpt lat="45.116585" lon="8.0082283"><ele>428.0</ele><time>2026-04-18T13:48:52.366Z</time></trkpt><trkpt lat="45.1165233" lon="8.0083783"><ele>436.5</ele><time>2026-04-18T13:48:53.366Z</time></trkpt><trkpt lat="45.116465" lon="8.008535"><ele>445.0</ele><time>2026-04-18T13:48:54.365Z</time></trkpt><trkpt lat="45.1163983" lon="8.0087017"><ele>453.5</ele><time>2026-04-18T13:48:55.366Z</time></trkpt><trkpt lat="45.1162967" lon="8.00887"><ele>462.0</ele><time>2026-04-18T13:48:56.366Z</time></trkpt><trkpt lat="45.116225" lon="8.0090583"><ele>457.25</ele><time>2026-04-18T13:48:57.365Z</time></trkpt><trkpt lat="45.1161617" lon="8.0092567"><ele>452.5</ele><time>2026-04-18T13:48:58.366Z</time></trkpt><trkpt lat="45.1160983" lon="8.00945"><ele>447.75</ele><time>2026-04-18T13:48:59.366Z</time></trkpt><trkpt lat="45.1160533" lon="8.009645"><ele>443.0</ele><time>2026-04-18T13:49:00.366Z</time></trkpt><trkpt lat="45.11604" lon="8.00983"><ele>440.5</ele><time>2026-04-18T13:49:01.366Z</time></trkpt><trkpt lat="45.1160367" lon="8.0100217"><ele>438.0</ele><time>2026-04-18T13:49:02.366Z</time></trkpt><trkpt lat="45.1160617" lon="8.01021"><ele>435.5</ele><time>2026-04-18T13:49:03.365Z</time></trkpt><trkpt lat="45.1161117" lon="8.0103867"><ele>433.0</ele><time>2026-04-18T13:49:04.366Z</time></trkpt><trkpt lat="45.1162017" lon="8.0105483"><ele>433.0</ele><time>2026-04-18T13:49:05.366Z</time></trkpt><trkpt lat="45.1163" lon="8.0106917"><ele>433.0</ele><time>2026-04-18T13:49:06.366Z</time></trkpt><trkpt lat="45.1163867" lon="8.0108483"><ele>433.0</ele><time>2026-04-18T13:49:07.366Z</time></trkpt><trkpt lat="45.1164367" lon="8.0110117"><ele>433.0</ele><time>2026-04-18T13:49:08.366Z</time></trkpt><trkpt lat="45.1164533" lon="8.0111883"><ele>434.25</ele><time>2026-04-18T13:49:09.366Z</time></trkpt><trkpt lat="45.1164583" lon="8.0113633"><ele>435.5</ele><time>2026-04-18T13:49:10.366Z</time></trkpt><trkpt lat="45.116475" lon="8.0115467"><ele>436.75</ele><time>2026-04-18T13:49:11.365Z</time></trkpt><trkpt lat="45.1164917" lon="8.0117283"><ele>438.0</ele><time>2026-04-18T13:49:12.366Z</time></trkpt><trkpt lat="45.1165133" lon="8.011875"><ele>438.59999999999997</ele><time>2026-04-18T13:49:13.365Z</time></trkpt><trkpt lat="45.11654" lon="8.0120283"><ele>439.19999999999993</ele><time>2026-04-18T13:49:14.365Z</time></trkpt><trkpt lat="45.11658" lon="8.0121567"><ele>439.8</ele><time>2026-04-18T13:49:15.366Z</time></trkpt><trkpt lat="45.1166183" lon="8.0122683"><ele>440.4</ele><time>2026-04-18T13:49:16.366Z</time></trkpt><trkpt lat="45.1166783" lon="8.0123533"><ele>441.0</ele><time>2026-04-18T13:49:17.365Z</time></trkpt><trkpt lat="45.1167517" lon="8.0124267"><ele>435.0</ele><time>2026-04-18T13:49:18.366Z</time></trkpt><trkpt lat="45.116825" lon="8.0124817"><ele>429.0</ele><time>2026-04-18T13:49:19.365Z</time></trkpt><trkpt lat="45.1169283" lon="8.0125183"><ele>423.0</ele><time>2026-04-18T13:49:20.366Z</time></trkpt><trkpt lat="45.1170483" lon="8.0125533"><ele>417.0</ele><time>2026-04-18T13:49:21.365Z</time></trkpt><trkpt lat="45.1171867" lon="8.01259"><ele>417.0</ele><time>2026-04-18T13:49:22.366Z</time></trkpt><trkpt lat="45.117335" lon="8.0126367"><ele>417.0</ele><time>2026-04-18T13:49:23.366Z</time></trkpt><trkpt lat="45.117485" lon="8.0126883"><ele>417.0</ele><time>2026-04-18T13:49:24.365Z</time></trkpt><trkpt lat="45.1176267" lon="8.0127383"><ele>412.25</ele><time>2026-04-18T13:49:25.365Z</time></trkpt><trkpt lat="45.1177633" lon="8.012775"><ele>407.5</ele><time>2026-04-18T13:49:26.366Z</time></trkpt><trkpt lat="45.1178717" lon="8.0127917"><ele>402.75</ele><time>2026-04-18T13:49:27.365Z</time></trkpt><trkpt lat="45.11798" lon="8.0128467"><ele>398.0</ele><time>2026-04-18T13:49:28.366Z</time></trkpt><trkpt lat="45.1180867" lon="8.01293"><ele>398.0</ele><time>2026-04-18T13:49:29.365Z</time></trkpt><trkpt lat="45.11818" lon="8.0130317"><ele>398.0</ele><time>2026-04-18T13:49:30.366Z</time></trkpt><trkpt lat="45.11827" lon="8.01314"><ele>398.0</ele><time>2026-04-18T13:49:31.365Z</time></trkpt><trkpt lat="45.1183717" lon="8.0132267"><ele>398.0</ele><time>2026-04-18T13:49:32.366Z</time></trkpt><trkpt lat="45.11847" lon="8.0132917"><ele>398.5</ele><time>2026-04-18T13:49:33.366Z</time></trkpt><trkpt lat="45.1185783" lon="8.0133733"><ele>399.0</ele><time>2026-04-18T13:49:34.366Z</time></trkpt><trkpt lat="45.1186867" lon="8.0134767"><ele>399.5</ele><time>2026-04-18T13:49:35.366Z</time></trkpt><trkpt lat="45.1187817" lon="8.0136083"><ele>400.0</ele><time>2026-04-18T13:49:36.366Z</time></trkpt><trkpt lat="45.1188667" lon="8.013735"><ele>400.0</ele><time>2026-04-18T13:49:37.365Z</time></trkpt><trkpt lat="45.1189667" lon="8.013835"><ele>400.0</ele><time>2026-04-18T13:49:38.365Z</time></trkpt><trkpt lat="45.1190867" lon="8.0139217"><ele>400.0</ele><time>2026-04-18T13:49:39.366Z</time></trkpt><trkpt lat="45.119205" lon="8.01401"><ele>400.0</ele><time>2026-04-18T13:49:40.366Z</time></trkpt><trkpt lat="45.11932" lon="8.0141"><ele>399.25</ele><time>2026-04-18T13:49:41.366Z</time></trkpt><trkpt lat="45.1194283" lon="8.0141967"><ele>398.5</ele><time>2026-04-18T13:49:42.366Z</time></trkpt><trkpt lat="45.1195283" lon="8.014295"><ele>397.75</ele><time>2026-04-18T13:49:43.365Z</time></trkpt><trkpt lat="45.1196133" lon="8.0143833"><ele>397.0</ele><time>2026-04-18T13:49:44.366Z</time></trkpt><trkpt lat="45.1196983" lon="8.01445"><ele>397.0</ele><time>2026-04-18T13:49:45.366Z</time></trkpt><trkpt lat="45.11978" lon="8.0145083"><ele>397.0</ele><time>2026-04-18T13:49:46.366Z</time></trkpt><trkpt lat="45.1198633" lon="8.0145783"><ele>397.0</ele><time>2026-04-18T13:49:47.366Z</time></trkpt><trkpt lat="45.1199583" lon="8.01465"><ele>397.0</ele><time>2026-04-18T13:49:48.366Z</time></trkpt><trkpt lat="45.1200567" lon="8.0147183"><ele>397.0</ele><time>2026-04-18T13:49:49.366Z</time></trkpt><trkpt lat="45.1201417" lon="8.01477"><ele>398.6</ele><time>2026-04-18T13:49:50.365Z</time></trkpt><trkpt lat="45.1202383" lon="8.01482"><ele>400.20000000000005</ele><time>2026-04-18T13:49:51.366Z</time></trkpt><trkpt lat="45.1203417" lon="8.01486"><ele>401.8</ele><time>2026-04-18T13:49:52.365Z</time></trkpt><trkpt lat="45.1204417" lon="8.0148967"><ele>403.4</ele><time>2026-04-18T13:49:53.366Z</time></trkpt><trkpt lat="45.1205283" lon="8.014945"><ele>405.0</ele><time>2026-04-18T13:49:54.366Z</time></trkpt><trkpt lat="45.1206083" lon="8.01502"><ele>406.0</ele><time>2026-04-18T13:49:55.366Z</time></trkpt><trkpt lat="45.1206617" lon="8.0151183"><ele>407.0</ele><time>2026-04-18T13:49:56.365Z</time></trkpt><trkpt lat="45.1207333" lon="8.0152083"><ele>408.0</ele><time>2026-04-18T13:49:57.366Z</time></trkpt><trkpt lat="45.1208083" lon="8.0152933"><ele>409.0</ele><time>2026-04-18T13:49:58.366Z</time></trkpt><trkpt lat="45.1208967" lon="8.0153767"><ele>410.0</ele><time>2026-04-18T13:49:59.366Z</time></trkpt><trkpt lat="45.1210067" lon="8.0154417"><ele>410.0</ele><time>2026-04-18T13:50:00.366Z</time></trkpt><trkpt lat="45.121135" lon="8.0155017"><ele>410.0</ele><time>2026-04-18T13:50:01.366Z</time></trkpt><trkpt lat="45.12126" lon="8.0155633"><ele>410.0</ele><time>2026-04-18T13:50:02.365Z</time></trkpt><trkpt lat="45.1213833" lon="8.0156117"><ele>410.0</ele><time>2026-04-18T13:50:03.366Z</time></trkpt><trkpt lat="45.1215117" lon="8.0156617"><ele>405.75</ele><time>2026-04-18T13:50:04.365Z</time></trkpt><trkpt lat="45.1216333" lon="8.01568"><ele>401.5</ele><time>2026-04-18T13:50:05.366Z</time></trkpt><trkpt lat="45.12178" lon="8.0156767"><ele>397.25</ele><time>2026-04-18T13:50:06.366Z</time></trkpt><trkpt lat="45.121915" lon="8.0156333"><ele>393.0</ele><time>2026-04-18T13:50:07.366Z</time></trkpt><trkpt lat="45.1220483" lon="8.0156017"><ele>393.0</ele><time>2026-04-18T13:50:08.366Z</time></trkpt><trkpt lat="45.1221783" lon="8.015575"><ele>393.0</ele><time>2026-04-18T13:50:09.365Z</time></trkpt><trkpt lat="45.1222983" lon="8.015555"><ele>393.0</ele><time>2026-04-18T13:50:10.366Z</time></trkpt><trkpt lat="45.122415" lon="8.0155133"><ele>393.0</ele><time>2026-04-18T13:50:11.366Z</time></trkpt><trkpt lat="45.1225133" lon="8.0154583"><ele>395.0</ele><time>2026-04-18T13:50:12.366Z</time></trkpt><trkpt lat="45.122605" lon="8.0153817"><ele>397.0</ele><time>2026-04-18T13:50:13.366Z</time></trkpt><trkpt lat="45.1226933" lon="8.0153033"><ele>399.0</ele><time>2026-04-18T13:50:14.366Z</time></trkpt><trkpt lat="45.122805" lon="8.0152217"><ele>401.0</ele><time>2026-04-18T13:50:15.365Z</time></trkpt><trkpt lat="45.1229233" lon="8.0151517"><ele>401.0</ele><time>2026-04-18T13:50:16.366Z</time></trkpt><trkpt lat="45.1230417" lon="8.01509"><ele>401.0</ele><time>2026-04-18T13:50:17.366Z</time></trkpt><trkpt lat="45.1231517" lon="8.0150367"><ele>401.0</ele><time>2026-04-18T13:50:18.365Z</time></trkpt><trkpt lat="45.12326" lon="8.014965"><ele>401.0</ele><time>2026-04-18T13:50:19.366Z</time></trkpt><trkpt lat="45.1233733" lon="8.01489"><ele>401.25</ele><time>2026-04-18T13:50:20.366Z</time></trkpt><trkpt lat="45.12349" lon="8.014815"><ele>401.5</ele><time>2026-04-18T13:50:21.366Z</time></trkpt><trkpt lat="45.123605" lon="8.0147433"><ele>401.75</ele><time>2026-04-18T13:50:22.366Z</time></trkpt><trkpt lat="45.123725" lon="8.01467"><ele>402.0</ele><time>2026-04-18T13:50:23.366Z</time></trkpt><trkpt lat="45.1238483" lon="8.01462"><ele>402.0</ele><time>2026-04-18T13:50:24.366Z</time></trkpt><trkpt lat="45.123955" lon="8.0146017"><ele>402.0</ele><time>2026-04-18T13:50:25.366Z</time></trkpt><trkpt lat="45.1240683" lon="8.01459"><ele>402.0</ele><time>2026-04-18T13:50:26.366Z</time></trkpt><trkpt lat="45.1241867" lon="8.0146067"><ele>402.0</ele><time>2026-04-18T13:50:27.365Z</time></trkpt><trkpt lat="45.12432" lon="8.014625"><ele>402.0</ele><time>2026-04-18T13:50:28.366Z</time></trkpt><trkpt lat="45.124455" lon="8.0146317"><ele>402.0</ele><time>2026-04-18T13:50:29.366Z</time></trkpt><trkpt lat="45.1245833" lon="8.0146017"><ele>402.0</ele><time>2026-04-18T13:50:30.366Z</time></trkpt><trkpt lat="45.1247133" lon="8.0145217"><ele>402.0</ele><time>2026-04-18T13:50:31.366Z</time></trkpt><trkpt lat="45.1248333" lon="8.014445"><ele>404.75</ele><time>2026-04-18T13:50:32.366Z</time></trkpt><trkpt lat="45.1249583" lon="8.01438"><ele>407.5</ele><time>2026-04-18T13:50:33.366Z</time></trkpt><trkpt lat="45.12508" lon="8.01432"><ele>410.25</ele><time>2026-04-18T13:50:34.366Z</time></trkpt><trkpt lat="45.1251867" lon="8.014275"><ele>413.0</ele><time>2026-04-18T13:50:35.365Z</time></trkpt><trkpt lat="45.125285" lon="8.0142167"><ele>413.0</ele><time>2026-04-18T13:50:36.365Z</time></trkpt><trkpt lat="45.1253833" lon="8.0141667"><ele>413.0</ele><time>2026-04-18T13:50:37.366Z</time></trkpt><trkpt lat="45.125485" lon="8.0140833"><ele>413.0</ele><time>2026-04-18T13:50:38.366Z</time></trkpt><trkpt lat="45.125595" lon="8.0139833"><ele>413.0</ele><time>2026-04-18T13:50:39.365Z</time></trkpt><trkpt lat="45.1256917" lon="8.0138717"><ele>411.79999999999995</ele><time>2026-04-18T13:50:40.366Z</time></trkpt><trkpt lat="45.1257767" lon="8.0137433"><ele>410.6</ele><time>2026-04-18T13:50:41.366Z</time></trkpt><trkpt lat="45.1258517" lon="8.013625"><ele>409.4</ele><time>2026-04-18T13:50:42.366Z</time></trkpt><trkpt lat="45.12593" lon="8.013545"><ele>408.20000000000005</ele><time>2026-04-18T13:50:43.366Z</time></trkpt><trkpt lat="45.1260117" lon="8.0134967"><ele>407.0</ele><time>2026-04-18T13:50:44.366Z</time></trkpt><trkpt lat="45.1261033" lon="8.0134833"><ele>407.0</ele><time>2026-04-18T13:50:45.366Z</time></trkpt><trkpt lat="45.1262" lon="8.0134683"><ele>407.0</ele><time>2026-04-18T13:50:46.365Z</time></trkpt><trkpt lat="45.1263067" lon="8.0134567"><ele>407.0</ele><time>2026-04-18T13:50:47.366Z</time></trkpt><trkpt lat="45.1264033" lon="8.01343"><ele>407.0</ele><time>2026-04-18T13:50:48.366Z</time></trkpt><trkpt lat="45.1265" lon="8.0133867"><ele>407.0</ele><time>2026-04-18T13:50:49.366Z</time></trkpt><trkpt lat="45.1266017" lon="8.01331"><ele>401.75</ele><time>2026-04-18T13:50:50.366Z</time></trkpt><trkpt lat="45.126695" lon="8.0132033"><ele>396.5</ele><time>2026-04-18T13:50:51.366Z</time></trkpt><trkpt lat="45.1268033" lon="8.013105"><ele>391.25</ele><time>2026-04-18T13:50:52.366Z</time></trkpt><trkpt lat="45.1269083" lon="8.01303"><ele>386.0</ele><time>2026-04-18T13:50:53.366Z</time></trkpt><trkpt lat="45.1270117" lon="8.0129583"><ele>386.0</ele><time>2026-04-18T13:50:54.366Z</time></trkpt><trkpt lat="45.12712" lon="8.0129133"><ele>386.0</ele><time>2026-04-18T13:50:55.366Z</time></trkpt><trkpt lat="45.127225" lon="8.0128617"><ele>386.0</ele><time>2026-04-18T13:50:56.366Z</time></trkpt><trkpt lat="45.12735" lon="8.01282"><ele>386.0</ele><time>2026-04-18T13:50:57.366Z</time></trkpt><trkpt lat="45.1274333" lon="8.0127633"><ele>386.0</ele><time>2026-04-18T13:50:58.366Z</time></trkpt><trkpt lat="45.127495" lon="8.0126733"><ele>386.0</ele><time>2026-04-18T13:50:59.366Z</time></trkpt><trkpt lat="45.127545" lon="8.0125633"><ele>386.0</ele><time>2026-04-18T13:51:00.366Z</time></trkpt><trkpt lat="45.1275817" lon="8.0124383"><ele>386.0</ele><time>2026-04-18T13:51:01.366Z</time></trkpt><trkpt lat="45.1275967" lon="8.0122867"><ele>386.0</ele><time>2026-04-18T13:51:02.366Z</time></trkpt><trkpt lat="45.1275817" lon="8.0121117"><ele>386.0</ele><time>2026-04-18T13:51:03.366Z</time></trkpt><trkpt lat="45.127575" lon="8.0119483"><ele>386.0</ele><time>2026-04-18T13:51:04.366Z</time></trkpt><trkpt lat="45.1275583" lon="8.0117983"><ele>386.0</ele><time>2026-04-18T13:51:05.365Z</time></trkpt><trkpt lat="45.1275333" lon="8.011665"><ele>386.0</ele><time>2026-04-18T13:51:06.365Z</time></trkpt><trkpt lat="45.1275033" lon="8.0115617"><ele>386.0</ele><time>2026-04-18T13:51:07.366Z</time></trkpt><trkpt lat="45.1275217" lon="8.0114283"><ele>386.0</ele><time>2026-04-18T13:51:09.366Z</time></trkpt><trkpt lat="45.127595" lon="8.0114617"><ele>386.0</ele><time>2026-04-18T13:51:11.365Z</time></trkpt><trkpt lat="45.127665" lon="8.0115817"><ele>386.0</ele><time>2026-04-18T13:51:13.366Z</time></trkpt><trkpt lat="45.1277217" lon="8.0116517"><ele>386.0</ele><time>2026-04-18T13:51:14.365Z</time></trkpt><trkpt lat="45.12779" lon="8.0117167"><ele>386.0</ele><time>2026-04-18T13:51:15.366Z</time></trkpt><trkpt lat="45.1278717" lon="8.0117717"><ele>386.0</ele><time>2026-04-18T13:51:16.366Z</time></trkpt><trkpt lat="45.1279733" lon="8.0118133"><ele>386.0</ele><time>2026-04-18T13:51:17.366Z</time></trkpt><trkpt lat="45.1280817" lon="8.011865"><ele>386.0</ele><time>2026-04-18T13:51:18.365Z</time></trkpt><trkpt lat="45.12818" lon="8.0119483"><ele>386.0</ele><time>2026-04-18T13:51:19.366Z</time></trkpt><trkpt lat="45.1282667" lon="8.012035"><ele>386.0</ele><time>2026-04-18T13:51:20.366Z</time></trkpt><trkpt lat="45.1283483" lon="8.0121267"><ele>386.0</ele><time>2026-04-18T13:51:21.365Z</time></trkpt><trkpt lat="45.1284533" lon="8.012225"><ele>383.75</ele><time>2026-04-18T13:51:22.366Z</time></trkpt><trkpt lat="45.12857" lon="8.0123117"><ele>381.5</ele><time>2026-04-18T13:51:23.366Z</time></trkpt><trkpt lat="45.1286983" lon="8.012385"><ele>379.25</ele><time>2026-04-18T13:51:24.366Z</time></trkpt><trkpt lat="45.1288183" lon="8.0124167"><ele>377.0</ele><time>2026-04-18T13:51:25.366Z</time></trkpt><trkpt lat="45.12897" lon="8.0124317"><ele>378.5</ele><time>2026-04-18T13:51:26.365Z</time></trkpt><trkpt lat="45.1291" lon="8.012415"><ele>380.0</ele><time>2026-04-18T13:51:27.366Z</time></trkpt><trkpt lat="45.129225" lon="8.0124217"><ele>381.5</ele><time>2026-04-18T13:51:28.366Z</time></trkpt><trkpt lat="45.1293433" lon="8.0124283"><ele>383.0</ele><time>2026-04-18T13:51:29.366Z</time></trkpt><trkpt lat="45.1294667" lon="8.012435"><ele>383.0</ele><time>2026-04-18T13:51:30.365Z</time></trkpt><trkpt lat="45.1295967" lon="8.01244"><ele>383.0</ele><time>2026-04-18T13:51:31.366Z</time></trkpt><trkpt lat="45.1297217" lon="8.0124283"><ele>383.0</ele><time>2026-04-18T13:51:32.366Z</time></trkpt><trkpt lat="45.129835" lon="8.0123983"><ele>383.0</ele><time>2026-04-18T13:51:33.366Z</time></trkpt><trkpt lat="45.1299467" lon="8.012355"><ele>382.0</ele><time>2026-04-18T13:51:34.366Z</time></trkpt><trkpt lat="45.1300383" lon="8.0123317"><ele>381.0</ele><time>2026-04-18T13:51:35.366Z</time></trkpt><trkpt lat="45.13013" lon="8.0123567"><ele>380.0</ele><time>2026-04-18T13:51:36.365Z</time></trkpt><trkpt lat="45.1302183" lon="8.01242"><ele>379.0</ele><time>2026-04-18T13:51:37.366Z</time></trkpt><trkpt lat="45.1303117" lon="8.0124917"><ele>378.0</ele><time>2026-04-18T13:51:38.366Z</time></trkpt><trkpt lat="45.1304083" lon="8.0125567"><ele>377.5</ele><time>2026-04-18T13:51:39.366Z</time></trkpt><trkpt lat="45.130495" lon="8.0126017"><ele>377.0</ele><time>2026-04-18T13:51:40.365Z</time></trkpt><trkpt lat="45.1305883" lon="8.012615"><ele>376.5</ele><time>2026-04-18T13:51:41.366Z</time></trkpt><trkpt lat="45.130665" lon="8.0125967"><ele>376.0</ele><time>2026-04-18T13:51:42.366Z</time></trkpt><trkpt lat="45.1307383" lon="8.0125667"><ele>375.5</ele><time>2026-04-18T13:51:43.366Z</time></trkpt><trkpt lat="45.130795" lon="8.0124983"><ele>375.0</ele><time>2026-04-18T13:51:44.366Z</time></trkpt><trkpt lat="45.1308733" lon="8.0124167"><ele>375.0</ele><time>2026-04-18T13:51:45.365Z</time></trkpt><trkpt lat="45.1309617" lon="8.012325"><ele>375.0</ele><time>2026-04-18T13:51:46.365Z</time></trkpt><trkpt lat="45.1310533" lon="8.0122317"><ele>375.0</ele><time>2026-04-18T13:51:47.366Z</time></trkpt><trkpt lat="45.1311367" lon="8.0121617"><ele>375.0</ele><time>2026-04-18T13:51:48.366Z</time></trkpt><trkpt lat="45.1312283" lon="8.012115"><ele>375.0</ele><time>2026-04-18T13:51:49.366Z</time></trkpt><trkpt lat="45.1313183" lon="8.0120833"><ele>375.0</ele><time>2026-04-18T13:51:50.365Z</time></trkpt><trkpt lat="45.1314" lon="8.012085"><ele>375.0</ele><time>2026-04-18T13:51:51.366Z</time></trkpt><trkpt lat="45.1314733" lon="8.012095"><ele>375.0</ele><time>2026-04-18T13:51:52.366Z</time></trkpt><trkpt lat="45.1315417" lon="8.0121417"><ele>375.0</ele><time>2026-04-18T13:51:53.366Z</time></trkpt><trkpt lat="45.1316017" lon="8.0122233"><ele>375.0</ele><time>2026-04-18T13:51:54.365Z</time></trkpt><trkpt lat="45.13166" lon="8.0123233"><ele>375.0</ele><time>2026-04-18T13:51:55.366Z</time></trkpt><trkpt lat="45.1317133" lon="8.0124567"><ele>367.25</ele><time>2026-04-18T13:51:56.366Z</time></trkpt><trkpt lat="45.1317967" lon="8.0125883"><ele>359.5</ele><time>2026-04-18T13:51:57.366Z</time></trkpt><trkpt lat="45.1318883" lon="8.012705"><ele>351.75</ele><time>2026-04-18T13:51:58.366Z</time></trkpt><trkpt lat="45.1319883" lon="8.0127867"><ele>344.0</ele><time>2026-04-18T13:51:59.365Z</time></trkpt><trkpt lat="45.1321033" lon="8.0128533"><ele>344.0</ele><time>2026-04-18T13:52:00.366Z</time></trkpt><trkpt lat="45.1322133" lon="8.012895"><ele>344.0</ele><time>2026-04-18T13:52:01.366Z</time></trkpt><trkpt lat="45.1323367" lon="8.0129283"><ele>344.0</ele><time>2026-04-18T13:52:02.366Z</time></trkpt><trkpt lat="45.1324483" lon="8.0129917"><ele>344.0</ele><time>2026-04-18T13:52:03.365Z</time></trkpt><trkpt lat="45.1325567" lon="8.0130417"><ele>342.75</ele><time>2026-04-18T13:52:04.365Z</time></trkpt><trkpt lat="45.1326733" lon="8.0130833"><ele>341.5</ele><time>2026-04-18T13:52:05.366Z</time></trkpt><trkpt lat="45.132785" lon="8.0131183"><ele>340.25</ele><time>2026-04-18T13:52:06.365Z</time></trkpt><trkpt lat="45.1328933" lon="8.0131467"><ele>339.0</ele><time>2026-04-18T13:52:07.365Z</time></trkpt><trkpt lat="45.1330033" lon="8.0131833"><ele>339.0</ele><time>2026-04-18T13:52:08.366Z</time></trkpt><trkpt lat="45.1331233" lon="8.01327"><ele>339.0</ele><time>2026-04-18T13:52:09.366Z</time></trkpt><trkpt lat="45.1332383" lon="8.0133633"><ele>339.0</ele><time>2026-04-18T13:52:10.366Z</time></trkpt><trkpt lat="45.1333617" lon="8.013445"><ele>339.0</ele><time>2026-04-18T13:52:11.366Z</time></trkpt><trkpt lat="45.13348" lon="8.0135167"><ele>340.5</ele><time>2026-04-18T13:52:12.365Z</time></trkpt><trkpt lat="45.1336067" lon="8.01358"><ele>342.0</ele><time>2026-04-18T13:52:13.366Z</time></trkpt><trkpt lat="45.1337433" lon="8.0136583"><ele>343.5</ele><time>2026-04-18T13:52:14.366Z</time></trkpt><trkpt lat="45.133875" lon="8.0137317"><ele>345.0</ele><time>2026-04-18T13:52:15.366Z</time></trkpt><trkpt lat="45.133995" lon="8.0137933"><ele>342.25</ele><time>2026-04-18T13:52:16.365Z</time></trkpt><trkpt lat="45.1341183" lon="8.0138567"><ele>339.5</ele><time>2026-04-18T13:52:17.366Z</time></trkpt><trkpt lat="45.1342433" lon="8.0139367"><ele>336.75</ele><time>2026-04-18T13:52:18.366Z</time></trkpt><trkpt lat="45.1343767" lon="8.014"><ele>334.0</ele><time>2026-04-18T13:52:19.365Z</time></trkpt><trkpt lat="45.1345133" lon="8.01407"><ele>333.66666666666663</ele><time>2026-04-18T13:52:20.365Z</time></trkpt><trkpt lat="45.1346367" lon="8.0141783"><ele>333.3333333333333</ele><time>2026-04-18T13:52:21.366Z</time></trkpt><trkpt lat="45.1347733" lon="8.014295"><ele>333.0</ele><time>2026-04-18T13:52:22.366Z</time></trkpt><trkpt lat="45.1349017" lon="8.0144"><ele>329.6666666666667</ele><time>2026-04-18T13:52:23.366Z</time></trkpt><trkpt lat="45.1350383" lon="8.0145133"><ele>326.33333333333337</ele><time>2026-04-18T13:52:24.366Z</time></trkpt><trkpt lat="45.1351833" lon="8.01462"><ele>323.0</ele><time>2026-04-18T13:52:25.365Z</time></trkpt><trkpt lat="45.1353233" lon="8.01472"><ele>323.0</ele><time>2026-04-18T13:52:26.366Z</time></trkpt><trkpt lat="45.135455" lon="8.0148083"><ele>323.0</ele><time>2026-04-18T13:52:27.366Z</time></trkpt><trkpt lat="45.1356033" lon="8.0149117"><ele>323.0</ele><time>2026-04-18T13:52:28.365Z</time></trkpt><trkpt lat="45.1357367" lon="8.0150133"><ele>321.5</ele><time>2026-04-18T13:52:29.366Z</time></trkpt><trkpt lat="45.1358633" lon="8.0151117"><ele>320.0</ele><time>2026-04-18T13:52:30.365Z</time></trkpt><trkpt lat="45.1359817" lon="8.015215"><ele>318.5</ele><time>2026-04-18T13:52:31.366Z</time></trkpt><trkpt lat="45.1361117" lon="8.0153133"><ele>317.0</ele><time>2026-04-18T13:52:32.366Z</time></trkpt><trkpt lat="45.13624" lon="8.0154"><ele>317.0</ele><time>2026-04-18T13:52:33.366Z</time></trkpt><trkpt lat="45.1363717" lon="8.0154833"><ele>317.0</ele><time>2026-04-18T13:52:34.366Z</time></trkpt><trkpt lat="45.1364733" lon="8.015565"><ele>317.0</ele><time>2026-04-18T13:52:35.365Z</time></trkpt><trkpt lat="45.13659" lon="8.0156567"><ele>317.0</ele><time>2026-04-18T13:52:36.365Z</time></trkpt><trkpt lat="45.1366833" lon="8.0157517"><ele>316.4</ele><time>2026-04-18T13:52:37.365Z</time></trkpt><trkpt lat="45.136765" lon="8.0158483"><ele>315.79999999999995</ele><time>2026-04-18T13:52:38.366Z</time></trkpt><trkpt lat="45.1368067" lon="8.0159817"><ele>315.2</ele><time>2026-04-18T13:52:39.366Z</time></trkpt><trkpt lat="45.1368117" lon="8.01612"><ele>314.59999999999997</ele><time>2026-04-18T13:52:40.366Z</time></trkpt><trkpt lat="45.13679" lon="8.0162767"><ele>314.0</ele><time>2026-04-18T13:52:41.366Z</time></trkpt><trkpt lat="45.13677" lon="8.0164333"><ele>314.0</ele><time>2026-04-18T13:52:42.366Z</time></trkpt><trkpt lat="45.1367567" lon="8.0165867"><ele>314.0</ele><time>2026-04-18T13:52:43.366Z</time></trkpt><trkpt lat="45.1367617" lon="8.0167383"><ele>314.0</ele><time>2026-04-18T13:52:44.366Z</time></trkpt><trkpt lat="45.1367967" lon="8.01688"><ele>314.0</ele><time>2026-04-18T13:52:45.365Z</time></trkpt><trkpt lat="45.1368567" lon="8.0170367"><ele>314.0</ele><time>2026-04-18T13:52:46.366Z</time></trkpt><trkpt lat="45.136925" lon="8.0171883"><ele>313.0</ele><time>2026-04-18T13:52:47.366Z</time></trkpt><trkpt lat="45.1369983" lon="8.0173333"><ele>312.0</ele><time>2026-04-18T13:52:48.365Z</time></trkpt><trkpt lat="45.1370867" lon="8.0174667"><ele>311.0</ele><time>2026-04-18T13:52:49.366Z</time></trkpt><trkpt lat="45.137185" lon="8.0175733"><ele>310.0</ele><time>2026-04-18T13:52:50.366Z</time></trkpt><trkpt lat="45.13731" lon="8.0176733"><ele>304.3333333333333</ele><time>2026-04-18T13:52:51.365Z</time></trkpt><trkpt lat="45.13744" lon="8.017765"><ele>298.6666666666667</ele><time>2026-04-18T13:52:52.366Z</time></trkpt><trkpt lat="45.1375717" lon="8.01789"><ele>293.0</ele><time>2026-04-18T13:52:53.365Z</time></trkpt><trkpt lat="45.1376933" lon="8.01805"><ele>293.0</ele><time>2026-04-18T13:52:54.366Z</time></trkpt><trkpt lat="45.1377967" lon="8.01821"><ele>293.0</ele><time>2026-04-18T13:52:55.366Z</time></trkpt><trkpt lat="45.1378917" lon="8.018345"><ele>293.0</ele><time>2026-04-18T13:52:56.365Z</time></trkpt><trkpt lat="45.1379933" lon="8.01846"><ele>293.0</ele><time>2026-04-18T13:52:57.366Z</time></trkpt><trkpt lat="45.1381033" lon="8.0185817"><ele>291.4</ele><time>2026-04-18T13:52:58.366Z</time></trkpt><trkpt lat="45.138195" lon="8.0187"><ele>289.8</ele><time>2026-04-18T13:52:59.366Z</time></trkpt><trkpt lat="45.1382683" lon="8.0188233"><ele>288.2</ele><time>2026-04-18T13:53:00.366Z</time></trkpt><trkpt lat="45.1383367" lon="8.0189383"><ele>286.6</ele><time>2026-04-18T13:53:01.366Z</time></trkpt><trkpt lat="45.1384167" lon="8.0190233"><ele>285.0</ele><time>2026-04-18T13:53:02.366Z</time></trkpt><trkpt lat="45.1385167" lon="8.0190633"><ele>284.8333333333333</ele><time>2026-04-18T13:53:03.365Z</time></trkpt><trkpt lat="45.1386133" lon="8.0190783"><ele>284.6666666666667</ele><time>2026-04-18T13:53:04.366Z</time></trkpt><trkpt lat="45.1387067" lon="8.0190617"><ele>284.5</ele><time>2026-04-18T13:53:05.365Z</time></trkpt><trkpt lat="45.1387767" lon="8.019015"><ele>284.33333333333337</ele><time>2026-04-18T13:53:06.366Z</time></trkpt><trkpt lat="45.138845" lon="8.01895"><ele>284.1666666666667</ele><time>2026-04-18T13:53:07.365Z</time></trkpt><trkpt lat="45.1389267" lon="8.018925"><ele>284.0</ele><time>2026-04-18T13:53:08.366Z</time></trkpt><trkpt lat="45.139015" lon="8.0189667"><ele>284.5</ele><time>2026-04-18T13:53:09.366Z</time></trkpt><trkpt lat="45.13911" lon="8.019055"><ele>285.0</ele><time>2026-04-18T13:53:10.366Z</time></trkpt><trkpt lat="45.1392183" lon="8.0191817"><ele>285.5</ele><time>2026-04-18T13:53:11.366Z</time></trkpt><trkpt lat="45.1393417" lon="8.0193367"><ele>286.0</ele><time>2026-04-18T13:53:12.366Z</time></trkpt><trkpt lat="45.1394667" lon="8.01948"><ele>286.0</ele><time>2026-04-18T13:53:13.366Z</time></trkpt><trkpt lat="45.1395833" lon="8.0195933"><ele>286.0</ele><time>2026-04-18T13:53:14.366Z</time></trkpt><trkpt lat="45.1397" lon="8.019695"><ele>286.0</ele><time>2026-04-18T13:53:15.366Z</time></trkpt><trkpt lat="45.1398217" lon="8.0198167"><ele>286.0</ele><time>2026-04-18T13:53:16.365Z</time></trkpt><trkpt lat="45.1399467" lon="8.0199417"><ele>288.0</ele><time>2026-04-18T13:53:17.365Z</time></trkpt><trkpt lat="45.1400633" lon="8.0200767"><ele>290.0</ele><time>2026-04-18T13:53:18.366Z</time></trkpt><trkpt lat="45.1401483" lon="8.0202017"><ele>292.0</ele><time>2026-04-18T13:53:19.365Z</time></trkpt><trkpt lat="45.1401983" lon="8.0203267"><ele>294.0</ele><time>2026-04-18T13:53:20.366Z</time></trkpt><trkpt lat="45.140235" lon="8.0204567"><ele>294.0</ele><time>2026-04-18T13:53:21.366Z</time></trkpt><trkpt lat="45.1402717" lon="8.0205717"><ele>294.0</ele><time>2026-04-18T13:53:22.366Z</time></trkpt><trkpt lat="45.1403017" lon="8.0206683"><ele>294.0</ele><time>2026-04-18T13:53:23.366Z</time></trkpt><trkpt lat="45.1403683" lon="8.020745"><ele>294.0</ele><time>2026-04-18T13:53:24.365Z</time></trkpt><trkpt lat="45.1404683" lon="8.0208083"><ele>294.0</ele><time>2026-04-18T13:53:25.366Z</time></trkpt><trkpt lat="45.140585" lon="8.0208833"><ele>294.5</ele><time>2026-04-18T13:53:26.366Z</time></trkpt><trkpt lat="45.1407017" lon="8.0209733"><ele>295.0</ele><time>2026-04-18T13:53:27.366Z</time></trkpt><trkpt lat="45.1408183" lon="8.021085"><ele>295.5</ele><time>2026-04-18T13:53:28.366Z</time></trkpt><trkpt lat="45.1409183" lon="8.0212067"><ele>296.0</ele><time>2026-04-18T13:53:29.366Z</time></trkpt><trkpt lat="45.141015" lon="8.0213167"><ele>297.2</ele><time>2026-04-18T13:53:30.366Z</time></trkpt><trkpt lat="45.1411083" lon="8.0214317"><ele>298.40000000000003</ele><time>2026-04-18T13:53:31.366Z</time></trkpt><trkpt lat="45.1411917" lon="8.021525"><ele>299.6</ele><time>2026-04-18T13:53:32.366Z</time></trkpt><trkpt lat="45.1412717" lon="8.021585"><ele>300.8</ele><time>2026-04-18T13:53:33.366Z</time></trkpt><trkpt lat="45.14135" lon="8.0216367"><ele>302.0</ele><time>2026-04-18T13:53:34.365Z</time></trkpt><trkpt lat="45.1414233" lon="8.02169"><ele>302.0</ele><time>2026-04-18T13:53:35.365Z</time></trkpt><trkpt lat="45.1415267" lon="8.0217483"><ele>302.0</ele><time>2026-04-18T13:53:36.366Z</time></trkpt><trkpt lat="45.1416417" lon="8.0218333"><ele>302.0</ele><time>2026-04-18T13:53:37.366Z</time></trkpt><trkpt lat="45.1417667" lon="8.0219283"><ele>302.0</ele><time>2026-04-18T13:53:38.365Z</time></trkpt><trkpt lat="45.1418983" lon="8.0220583"><ele>304.0</ele><time>2026-04-18T13:53:39.365Z</time></trkpt><trkpt lat="45.14203" lon="8.0221867"><ele>306.0</ele><time>2026-04-18T13:53:40.366Z</time></trkpt><trkpt lat="45.1421633" lon="8.0223083"><ele>308.0</ele><time>2026-04-18T13:53:41.366Z</time></trkpt><trkpt lat="45.142305" lon="8.0224133"><ele>307.0</ele><time>2026-04-18T13:53:42.366Z</time></trkpt><trkpt lat="45.1424367" lon="8.0225133"><ele>306.0</ele><time>2026-04-18T13:53:43.366Z</time></trkpt><trkpt lat="45.1425733" lon="8.0226017"><ele>305.0</ele><time>2026-04-18T13:53:44.366Z</time></trkpt><trkpt lat="45.1426917" lon="8.0226933"><ele>304.0</ele><time>2026-04-18T13:53:45.366Z</time></trkpt><trkpt lat="45.1427983" lon="8.022805"><ele>304.0</ele><time>2026-04-18T13:53:46.366Z</time></trkpt><trkpt lat="45.1428967" lon="8.022935"><ele>304.0</ele><time>2026-04-18T13:53:47.366Z</time></trkpt><trkpt lat="45.1429783" lon="8.0230767"><ele>304.0</ele><time>2026-04-18T13:53:48.366Z</time></trkpt><trkpt lat="45.143035" lon="8.02324"><ele>304.0</ele><time>2026-04-18T13:53:49.365Z</time></trkpt><trkpt lat="45.14307" lon="8.0233817"><ele>304.59999999999997</ele><time>2026-04-18T13:53:50.365Z</time></trkpt><trkpt lat="45.1431317" lon="8.0234967"><ele>305.2</ele><time>2026-04-18T13:53:51.364Z</time></trkpt><trkpt lat="45.1432183" lon="8.0236067"><ele>305.79999999999995</ele><time>2026-04-18T13:53:52.365Z</time></trkpt><trkpt lat="45.1433167" lon="8.0236833"><ele>306.4</ele><time>2026-04-18T13:53:53.365Z</time></trkpt><trkpt lat="45.1434233" lon="8.0237117"><ele>307.0</ele><time>2026-04-18T13:53:54.365Z</time></trkpt><trkpt lat="45.1435333" lon="8.0237117"><ele>307.0</ele><time>2026-04-18T13:53:55.365Z</time></trkpt><trkpt lat="45.1436483" lon="8.023705"><ele>307.0</ele><time>2026-04-18T13:53:56.365Z</time></trkpt><trkpt lat="45.14377" lon="8.0237383"><ele>307.0</ele><time>2026-04-18T13:53:57.364Z</time></trkpt><trkpt lat="45.14388" lon="8.0237967"><ele>307.0</ele><time>2026-04-18T13:53:58.365Z</time></trkpt><trkpt lat="45.143985" lon="8.0238767"><ele>309.75</ele><time>2026-04-18T13:53:59.365Z</time></trkpt><trkpt lat="45.14409" lon="8.0239633"><ele>312.5</ele><time>2026-04-18T13:54:00.364Z</time></trkpt><trkpt lat="45.1441917" lon="8.0240567"><ele>315.25</ele><time>2026-04-18T13:54:01.365Z</time></trkpt><trkpt lat="45.1442917" lon="8.0241233"><ele>318.0</ele><time>2026-04-18T13:54:02.365Z</time></trkpt><trkpt lat="45.1443967" lon="8.02419"><ele>319.0</ele><time>2026-04-18T13:54:03.364Z</time></trkpt><trkpt lat="45.1444833" lon="8.024265"><ele>320.0</ele><time>2026-04-18T13:54:04.365Z</time></trkpt><trkpt lat="45.1445567" lon="8.02436"><ele>321.0</ele><time>2026-04-18T13:54:05.365Z</time></trkpt><trkpt lat="45.144625" lon="8.0244733"><ele>322.0</ele><time>2026-04-18T13:54:06.364Z</time></trkpt><trkpt lat="45.1446867" lon="8.024615"><ele>323.0</ele><time>2026-04-18T13:54:07.365Z</time></trkpt><trkpt lat="45.144745" lon="8.0247517"><ele>323.0</ele><time>2026-04-18T13:54:08.365Z</time></trkpt><trkpt lat="45.1447967" lon="8.024915"><ele>323.0</ele><time>2026-04-18T13:54:09.365Z</time></trkpt><trkpt lat="45.1448267" lon="8.0250933"><ele>323.0</ele><time>2026-04-18T13:54:10.365Z</time></trkpt><trkpt lat="45.144855" lon="8.0252683"><ele>323.0</ele><time>2026-04-18T13:54:11.365Z</time></trkpt><trkpt lat="45.144875" lon="8.0254383"><ele>322.59999999999997</ele><time>2026-04-18T13:54:12.365Z</time></trkpt><trkpt lat="45.14488" lon="8.0255833"><ele>322.2</ele><time>2026-04-18T13:54:13.365Z</time></trkpt><trkpt lat="45.1448683" lon="8.02572"><ele>321.8</ele><time>2026-04-18T13:54:14.365Z</time></trkpt><trkpt lat="45.1448467" lon="8.0258483"><ele>321.4</ele><time>2026-04-18T13:54:15.365Z</time></trkpt><trkpt lat="45.1448017" lon="8.0259617"><ele>321.0</ele><time>2026-04-18T13:54:16.365Z</time></trkpt><trkpt lat="45.1447517" lon="8.0260633"><ele>321.0</ele><time>2026-04-18T13:54:17.365Z</time></trkpt><trkpt lat="45.1447017" lon="8.02615"><ele>321.0</ele><time>2026-04-18T13:54:18.365Z</time></trkpt><trkpt lat="45.14465" lon="8.0262483"><ele>321.0</ele><time>2026-04-18T13:54:19.365Z</time></trkpt><trkpt lat="45.14462" lon="8.026365"><ele>321.0</ele><time>2026-04-18T13:54:20.364Z</time></trkpt><trkpt lat="45.1446117" lon="8.0264967"><ele>321.0</ele><time>2026-04-18T13:54:21.365Z</time></trkpt><trkpt lat="45.1446267" lon="8.0266433"><ele>320.5</ele><time>2026-04-18T13:54:22.365Z</time></trkpt><trkpt lat="45.1446683" lon="8.0268183"><ele>320.0</ele><time>2026-04-18T13:54:23.364Z</time></trkpt><trkpt lat="45.1447033" lon="8.0269767"><ele>319.5</ele><time>2026-04-18T13:54:24.364Z</time></trkpt><trkpt lat="45.1447383" lon="8.02713"><ele>319.0</ele><time>2026-04-18T13:54:25.365Z</time></trkpt><trkpt lat="45.1447867" lon="8.02727"><ele>319.0</ele><time>2026-04-18T13:54:26.364Z</time></trkpt><trkpt lat="45.14482" lon="8.0274217"><ele>319.0</ele><time>2026-04-18T13:54:27.365Z</time></trkpt><trkpt lat="45.1448533" lon="8.02756"><ele>319.0</ele><time>2026-04-18T13:54:28.365Z</time></trkpt><trkpt lat="45.1448667" lon="8.02767"><ele>319.0</ele><time>2026-04-18T13:54:29.364Z</time></trkpt><trkpt lat="45.1448683" lon="8.0277867"><ele>319.0</ele><time>2026-04-18T13:54:30.365Z</time></trkpt><trkpt lat="45.1448717" lon="8.027895"><ele>318.2</ele><time>2026-04-18T13:54:31.365Z</time></trkpt><trkpt lat="45.144865" lon="8.028"><ele>317.4</ele><time>2026-04-18T13:54:32.364Z</time></trkpt><trkpt lat="45.144855" lon="8.0281117"><ele>316.6</ele><time>2026-04-18T13:54:33.365Z</time></trkpt><trkpt lat="45.14485" lon="8.028255"><ele>315.8</ele><time>2026-04-18T13:54:34.364Z</time></trkpt><trkpt lat="45.14487" lon="8.0283967"><ele>315.0</ele><time>2026-04-18T13:54:35.365Z</time></trkpt><trkpt lat="45.1448983" lon="8.0285383"><ele>315.0</ele><time>2026-04-18T13:54:36.365Z</time></trkpt><trkpt lat="45.1449217" lon="8.0286733"><ele>315.0</ele><time>2026-04-18T13:54:37.364Z</time></trkpt><trkpt lat="45.1449383" lon="8.0287933"><ele>315.0</ele><time>2026-04-18T13:54:38.365Z</time></trkpt><trkpt lat="45.14496" lon="8.0289167"><ele>315.0</ele><time>2026-04-18T13:54:39.365Z</time></trkpt><trkpt lat="45.144975" lon="8.0290533"><ele>315.0</ele><time>2026-04-18T13:54:40.365Z</time></trkpt><trkpt lat="45.1449967" lon="8.0292"><ele>315.4</ele><time>2026-04-18T13:54:41.365Z</time></trkpt><trkpt lat="45.1450233" lon="8.02937"><ele>315.8</ele><time>2026-04-18T13:54:42.365Z</time></trkpt><trkpt lat="45.14504" lon="8.02951"><ele>316.2</ele><time>2026-04-18T13:54:43.365Z</time></trkpt><trkpt lat="45.1450567" lon="8.02965"><ele>316.6</ele><time>2026-04-18T13:54:44.365Z</time></trkpt><trkpt lat="45.1450817" lon="8.029795"><ele>317.0</ele><time>2026-04-18T13:54:45.365Z</time></trkpt><trkpt lat="45.1451217" lon="8.0299233"><ele>317.0</ele><time>2026-04-18T13:54:46.365Z</time></trkpt><trkpt lat="45.1451683" lon="8.0300383"><ele>317.0</ele><time>2026-04-18T13:54:47.365Z</time></trkpt><trkpt lat="45.14524" lon="8.0301567"><ele>317.0</ele><time>2026-04-18T13:54:48.365Z</time></trkpt><trkpt lat="45.1453483" lon="8.03026"><ele>317.0</ele><time>2026-04-18T13:54:49.364Z</time></trkpt><trkpt lat="45.14548" lon="8.03035"><ele>317.0</ele><time>2026-04-18T13:54:50.365Z</time></trkpt><trkpt lat="45.1456017" lon="8.0304233"><ele>317.0</ele><time>2026-04-18T13:54:51.364Z</time></trkpt><trkpt lat="45.14572" lon="8.0304683"><ele>317.0</ele><time>2026-04-18T13:54:52.365Z</time></trkpt><trkpt lat="45.1458267" lon="8.0304683"><ele>317.0</ele><time>2026-04-18T13:54:53.365Z</time></trkpt><trkpt lat="45.1459333" lon="8.0304317"><ele>311.6</ele><time>2026-04-18T13:54:54.365Z</time></trkpt><trkpt lat="45.1460317" lon="8.03038"><ele>306.2</ele><time>2026-04-18T13:54:55.365Z</time></trkpt><trkpt lat="45.1461333" lon="8.030335"><ele>300.8</ele><time>2026-04-18T13:54:56.365Z</time></trkpt><trkpt lat="45.1462433" lon="8.03033"><ele>295.4</ele><time>2026-04-18T13:54:57.364Z</time></trkpt><trkpt lat="45.146365" lon="8.030345"><ele>290.0</ele><time>2026-04-18T13:54:58.365Z</time></trkpt><trkpt lat="45.1464883" lon="8.0303667"><ele>287.2</ele><time>2026-04-18T13:54:59.365Z</time></trkpt><trkpt lat="45.1465883" lon="8.0303617"><ele>284.4</ele><time>2026-04-18T13:55:00.365Z</time></trkpt><trkpt lat="45.1467017" lon="8.03039"><ele>281.6</ele><time>2026-04-18T13:55:01.365Z</time></trkpt><trkpt lat="45.14681" lon="8.0304233"><ele>278.8</ele><time>2026-04-18T13:55:02.364Z</time></trkpt><trkpt lat="45.1469" lon="8.0304617"><ele>276.0</ele><time>2026-04-18T13:55:03.364Z</time></trkpt><trkpt lat="45.1469983" lon="8.0305067"><ele>276.0</ele><time>2026-04-18T13:55:04.364Z</time></trkpt><trkpt lat="45.147095" lon="8.030565"><ele>276.0</ele><time>2026-04-18T13:55:05.365Z</time></trkpt><trkpt lat="45.1471783" lon="8.0306233"><ele>276.0</ele><time>2026-04-18T13:55:06.364Z</time></trkpt><trkpt lat="45.1472633" lon="8.0306767"><ele>276.0</ele><time>2026-04-18T13:55:07.364Z</time></trkpt><trkpt lat="45.1473483" lon="8.030715"><ele>276.0</ele><time>2026-04-18T13:55:08.364Z</time></trkpt><trkpt lat="45.1474333" lon="8.030745"><ele>275.5</ele><time>2026-04-18T13:55:09.365Z</time></trkpt><trkpt lat="45.1475183" lon="8.0307767"><ele>275.0</ele><time>2026-04-18T13:55:10.365Z</time></trkpt><trkpt lat="45.1476017" lon="8.0308167"><ele>274.5</ele><time>2026-04-18T13:55:11.365Z</time></trkpt><trkpt lat="45.14767" lon="8.0308733"><ele>274.0</ele><time>2026-04-18T13:55:12.365Z</time></trkpt><trkpt lat="45.147745" lon="8.0309583"><ele>273.5</ele><time>2026-04-18T13:55:13.365Z</time></trkpt><trkpt lat="45.1477833" lon="8.03106"><ele>273.0</ele><time>2026-04-18T13:55:14.364Z</time></trkpt><trkpt lat="45.147855" lon="8.0311683"><ele>276.0</ele><time>2026-04-18T13:55:15.365Z</time></trkpt><trkpt lat="45.14794" lon="8.0312817"><ele>279.0</ele><time>2026-04-18T13:55:16.365Z</time></trkpt><trkpt lat="45.1480333" lon="8.0313833"><ele>282.0</ele><time>2026-04-18T13:55:17.365Z</time></trkpt><trkpt lat="45.148145" lon="8.0314667"><ele>285.0</ele><time>2026-04-18T13:55:18.365Z</time></trkpt><trkpt lat="45.1482467" lon="8.031535"><ele>285.0</ele><time>2026-04-18T13:55:19.364Z</time></trkpt><trkpt lat="45.1483383" lon="8.0316217"><ele>285.0</ele><time>2026-04-18T13:55:20.365Z</time></trkpt><trkpt lat="45.1484417" lon="8.0316867"><ele>285.0</ele><time>2026-04-18T13:55:21.365Z</time></trkpt><trkpt lat="45.14852" lon="8.031745"><ele>285.0</ele><time>2026-04-18T13:55:22.365Z</time></trkpt><trkpt lat="45.1486" lon="8.0317633"><ele>285.0</ele><time>2026-04-18T13:55:23.365Z</time></trkpt><trkpt lat="45.1486967" lon="8.031785"><ele>284.8</ele><time>2026-04-18T13:55:24.365Z</time></trkpt><trkpt lat="45.1487983" lon="8.0318067"><ele>284.6</ele><time>2026-04-18T13:55:25.365Z</time></trkpt><trkpt lat="45.1489133" lon="8.0318417"><ele>284.4</ele><time>2026-04-18T13:55:26.365Z</time></trkpt><trkpt lat="45.1490217" lon="8.031885"><ele>284.2</ele><time>2026-04-18T13:55:27.364Z</time></trkpt><trkpt lat="45.1491017" lon="8.0319117"><ele>284.0</ele><time>2026-04-18T13:55:28.365Z</time></trkpt><trkpt lat="45.1491633" lon="8.031955"><ele>284.0</ele><time>2026-04-18T13:55:29.365Z</time></trkpt><trkpt lat="45.14921" lon="8.032065"><ele>284.0</ele><time>2026-04-18T13:55:31.365Z</time></trkpt><trkpt lat="45.14919" lon="8.032155"><ele>284.0</ele><time>2026-04-18T13:55:32.365Z</time></trkpt><trkpt lat="45.1491567" lon="8.0322533"><ele>284.0</ele><time>2026-04-18T13:55:33.365Z</time></trkpt><trkpt lat="45.1491333" lon="8.0323683"><ele>284.0</ele><time>2026-04-18T13:55:34.364Z</time></trkpt><trkpt lat="45.1491083" lon="8.0325033"><ele>284.0</ele><time>2026-04-18T13:55:35.365Z</time></trkpt><trkpt lat="45.14909" lon="8.0326467"><ele>282.6666666666667</ele><time>2026-04-18T13:55:36.364Z</time></trkpt><trkpt lat="45.149085" lon="8.0327717"><ele>281.33333333333337</ele><time>2026-04-18T13:55:37.365Z</time></trkpt><trkpt lat="45.1490683" lon="8.0328933"><ele>280.0</ele><time>2026-04-18T13:55:38.365Z</time></trkpt><trkpt lat="45.14904" lon="8.0329967"><ele>278.6666666666667</ele><time>2026-04-18T13:55:39.365Z</time></trkpt><trkpt lat="45.1489967" lon="8.0331017"><ele>277.3333333333333</ele><time>2026-04-18T13:55:40.365Z</time></trkpt><trkpt lat="45.1489467" lon="8.0332133"><ele>276.0</ele><time>2026-04-18T13:55:41.365Z</time></trkpt><trkpt lat="45.1488933" lon="8.0333183"><ele>276.0</ele><time>2026-04-18T13:55:42.364Z</time></trkpt><trkpt lat="45.1488333" lon="8.033415"><ele>276.0</ele><time>2026-04-18T13:55:43.365Z</time></trkpt><trkpt lat="45.1487817" lon="8.0334883"><ele>276.0</ele><time>2026-04-18T13:55:44.365Z</time></trkpt><trkpt lat="45.1487333" lon="8.03356"><ele>276.0</ele><time>2026-04-18T13:55:45.365Z</time></trkpt><trkpt lat="45.14869" lon="8.033625"><ele>276.0</ele><time>2026-04-18T13:55:46.364Z</time></trkpt><trkpt lat="45.1486883" lon="8.0337933"><ele>276.0</ele><time>2026-04-18T13:55:48.365Z</time></trkpt><trkpt lat="45.14871" lon="8.0339017"><ele>276.0</ele><time>2026-04-18T13:55:49.365Z</time></trkpt><trkpt lat="45.1487417" lon="8.0340017"><ele>276.0</ele><time>2026-04-18T13:55:50.364Z</time></trkpt><trkpt lat="45.1487883" lon="8.03411"><ele>276.0</ele><time>2026-04-18T13:55:51.364Z</time></trkpt><trkpt lat="45.1488483" lon="8.034205"><ele>276.0</ele><time>2026-04-18T13:55:52.365Z</time></trkpt><trkpt lat="45.1489133" lon="8.034305"><ele>276.0</ele><time>2026-04-18T13:55:53.365Z</time></trkpt><trkpt lat="45.1489633" lon="8.0344133"><ele>276.0</ele><time>2026-04-18T13:55:54.365Z</time></trkpt><trkpt lat="45.1489817" lon="8.0345283"><ele>275.0</ele><time>2026-04-18T13:55:55.364Z</time></trkpt><trkpt lat="45.148975" lon="8.0346483"><ele>274.0</ele><time>2026-04-18T13:55:56.364Z</time></trkpt><trkpt lat="45.1489433" lon="8.0347467"><ele>273.0</ele><time>2026-04-18T13:55:57.364Z</time></trkpt><trkpt lat="45.14889" lon="8.0348217"><ele>272.0</ele><time>2026-04-18T13:55:58.365Z</time></trkpt><trkpt lat="45.1487917" lon="8.03489"><ele>271.0</ele><time>2026-04-18T13:55:59.365Z</time></trkpt><trkpt lat="45.1486717" lon="8.034955"><ele>271.75</ele><time>2026-04-18T13:56:00.364Z</time></trkpt><trkpt lat="45.1485333" lon="8.0350267"><ele>272.5</ele><time>2026-04-18T13:56:01.365Z</time></trkpt><trkpt lat="45.148395" lon="8.0351017"><ele>273.25</ele><time>2026-04-18T13:56:02.365Z</time></trkpt><trkpt lat="45.1482683" lon="8.035165"><ele>274.0</ele><time>2026-04-18T13:56:03.364Z</time></trkpt><trkpt lat="45.1481767" lon="8.0352633"><ele>269.75</ele><time>2026-04-18T13:56:04.365Z</time></trkpt><trkpt lat="45.148085" lon="8.0353717"><ele>265.5</ele><time>2026-04-18T13:56:05.365Z</time></trkpt><trkpt lat="45.1480083" lon="8.0354867"><ele>261.25</ele><time>2026-04-18T13:56:06.365Z</time></trkpt><trkpt lat="45.1479933" lon="8.0356367"><ele>257.0</ele><time>2026-04-18T13:56:07.365Z</time></trkpt><trkpt lat="45.148025" lon="8.0358067"><ele>257.0</ele><time>2026-04-18T13:56:08.364Z</time></trkpt><trkpt lat="45.1480767" lon="8.0359633"><ele>257.0</ele><time>2026-04-18T13:56:09.365Z</time></trkpt><trkpt lat="45.1481383" lon="8.0361133"><ele>257.0</ele><time>2026-04-18T13:56:10.365Z</time></trkpt><trkpt lat="45.148185" lon="8.0362617"><ele>257.0</ele><time>2026-04-18T13:56:11.365Z</time></trkpt><trkpt lat="45.1482167" lon="8.0364183"><ele>259.75</ele><time>2026-04-18T13:56:12.365Z</time></trkpt><trkpt lat="45.1482233" lon="8.0366"><ele>262.5</ele><time>2026-04-18T13:56:13.364Z</time></trkpt><trkpt lat="45.1482317" lon="8.0368033"><ele>265.25</ele><time>2026-04-18T13:56:14.365Z</time></trkpt><trkpt lat="45.1482317" lon="8.0370067"><ele>268.0</ele><time>2026-04-18T13:56:15.365Z</time></trkpt><trkpt lat="45.1482167" lon="8.037215"><ele>262.25</ele><time>2026-04-18T13:56:16.365Z</time></trkpt><trkpt lat="45.1482033" lon="8.0374067"><ele>256.5</ele><time>2026-04-18T13:56:17.364Z</time></trkpt><trkpt lat="45.1481983" lon="8.037585"><ele>250.75</ele><time>2026-04-18T13:56:18.365Z</time></trkpt><trkpt lat="45.148175" lon="8.0377767"><ele>245.0</ele><time>2026-04-18T13:56:19.365Z</time></trkpt><trkpt lat="45.1481183" lon="8.0379517"><ele>242.5</ele><time>2026-04-18T13:56:20.365Z</time></trkpt><trkpt lat="45.148055" lon="8.0381"><ele>240.0</ele><time>2026-04-18T13:56:21.364Z</time></trkpt><trkpt lat="45.14797" lon="8.0382233"><ele>237.5</ele><time>2026-04-18T13:56:22.365Z</time></trkpt><trkpt lat="45.1478833" lon="8.0383367"><ele>235.0</ele><time>2026-04-18T13:56:23.365Z</time></trkpt><trkpt lat="45.1477733" lon="8.0384033"><ele>235.0</ele><time>2026-04-18T13:56:24.364Z</time></trkpt><trkpt lat="45.1476483" lon="8.0384633"><ele>235.0</ele><time>2026-04-18T13:56:25.364Z</time></trkpt><trkpt lat="45.1475183" lon="8.0385233"><ele>235.0</ele><time>2026-04-18T13:56:26.365Z</time></trkpt><trkpt lat="45.147405" lon="8.0385767"><ele>235.0</ele><time>2026-04-18T13:56:27.364Z</time></trkpt><trkpt lat="45.14732" lon="8.0386383"><ele>234.16666666666666</ele><time>2026-04-18T13:56:28.365Z</time></trkpt><trkpt lat="45.1472567" lon="8.038715"><ele>233.33333333333331</ele><time>2026-04-18T13:56:29.365Z</time></trkpt><trkpt lat="45.14723" lon="8.0388117"><ele>232.5</ele><time>2026-04-18T13:56:30.365Z</time></trkpt><trkpt lat="45.14722" lon="8.0389317"><ele>231.66666666666669</ele><time>2026-04-18T13:56:31.365Z</time></trkpt><trkpt lat="45.1472417" lon="8.0390467"><ele>230.83333333333334</ele><time>2026-04-18T13:56:32.365Z</time></trkpt><trkpt lat="45.1472933" lon="8.03916"><ele>230.0</ele><time>2026-04-18T13:56:33.365Z</time></trkpt><trkpt lat="45.1473833" lon="8.039255"><ele>230.0</ele><time>2026-04-18T13:56:34.364Z</time></trkpt><trkpt lat="45.1475033" lon="8.0393483"><ele>230.0</ele><time>2026-04-18T13:56:35.364Z</time></trkpt><trkpt lat="45.1476233" lon="8.0394617"><ele>230.0</ele><time>2026-04-18T13:56:36.365Z</time></trkpt><trkpt lat="45.1477267" lon="8.03962"><ele>230.0</ele><time>2026-04-18T13:56:37.365Z</time></trkpt><trkpt lat="45.1478483" lon="8.0397917"><ele>230.0</ele><time>2026-04-18T13:56:38.365Z</time></trkpt><trkpt lat="45.1479583" lon="8.0399517"><ele>230.0</ele><time>2026-04-18T13:56:39.365Z</time></trkpt><trkpt lat="45.1480733" lon="8.0401033"><ele>230.0</ele><time>2026-04-18T13:56:40.365Z</time></trkpt><trkpt lat="45.148175" lon="8.0402283"><ele>230.0</ele><time>2026-04-18T13:56:41.364Z</time></trkpt><trkpt lat="45.14827" lon="8.0403633"><ele>230.0</ele><time>2026-04-18T13:56:42.364Z</time></trkpt><trkpt lat="45.14836" lon="8.04048"><ele>230.0</ele><time>2026-04-18T13:56:43.365Z</time></trkpt><trkpt lat="45.14843" lon="8.0406333"><ele>230.0</ele><time>2026-04-18T13:56:44.365Z</time></trkpt><trkpt lat="45.148455" lon="8.0407933"><ele>230.0</ele><time>2026-04-18T13:56:45.365Z</time></trkpt><trkpt lat="45.148445" lon="8.0409467"><ele>228.8</ele><time>2026-04-18T13:56:46.365Z</time></trkpt><trkpt lat="45.1484383" lon="8.0411"><ele>227.6</ele><time>2026-04-18T13:56:47.365Z</time></trkpt><trkpt lat="45.148455" lon="8.0412483"><ele>226.39999999999998</ele><time>2026-04-18T13:56:48.365Z</time></trkpt><trkpt lat="45.148485" lon="8.0414"><ele>225.2</ele><time>2026-04-18T13:56:49.365Z</time></trkpt><trkpt lat="45.1485183" lon="8.0415483"><ele>224.0</ele><time>2026-04-18T13:56:50.365Z</time></trkpt><trkpt lat="45.1485467" lon="8.0416867"><ele>222.39999999999998</ele><time>2026-04-18T13:56:51.365Z</time></trkpt><trkpt lat="45.1485767" lon="8.04182"><ele>220.79999999999998</ele><time>2026-04-18T13:56:52.365Z</time></trkpt><trkpt lat="45.1486067" lon="8.0419367"><ele>219.20000000000002</ele><time>2026-04-18T13:56:53.365Z</time></trkpt><trkpt lat="45.1486033" lon="8.0420633"><ele>217.60000000000002</ele><time>2026-04-18T13:56:54.365Z</time></trkpt><trkpt lat="45.1485933" lon="8.0421867"><ele>216.0</ele><time>2026-04-18T13:56:55.364Z</time></trkpt><trkpt lat="45.1485767" lon="8.0423233"><ele>214.25</ele><time>2026-04-18T13:56:56.365Z</time></trkpt><trkpt lat="45.14857" lon="8.0424667"><ele>212.5</ele><time>2026-04-18T13:56:57.365Z</time></trkpt><trkpt lat="45.1485883" lon="8.042615"><ele>210.75</ele><time>2026-04-18T13:56:58.365Z</time></trkpt><trkpt lat="45.1486433" lon="8.0427733"><ele>209.0</ele><time>2026-04-18T13:56:59.365Z</time></trkpt><trkpt lat="45.1487283" lon="8.042925"><ele>209.0</ele><time>2026-04-18T13:57:00.365Z</time></trkpt><trkpt lat="45.148835" lon="8.0430667"><ele>209.0</ele><time>2026-04-18T13:57:01.365Z</time></trkpt><trkpt lat="45.148935" lon="8.0432117"><ele>209.0</ele><time>2026-04-18T13:57:02.365Z</time></trkpt><trkpt lat="45.1490317" lon="8.0433533"><ele>209.0</ele><time>2026-04-18T13:57:03.365Z</time></trkpt><trkpt lat="45.14911" lon="8.0434817"><ele>210.79999999999998</ele><time>2026-04-18T13:57:04.365Z</time></trkpt><trkpt lat="45.1491867" lon="8.0436017"><ele>212.6</ele><time>2026-04-18T13:57:05.364Z</time></trkpt><trkpt lat="45.14926" lon="8.043725"><ele>214.4</ele><time>2026-04-18T13:57:06.365Z</time></trkpt><trkpt lat="45.14933" lon="8.0438467"><ele>216.2</ele><time>2026-04-18T13:57:07.365Z</time></trkpt><trkpt lat="45.1493917" lon="8.0439667"><ele>218.0</ele><time>2026-04-18T13:57:08.365Z</time></trkpt><trkpt lat="45.14944" lon="8.0440967"><ele>215.0</ele><time>2026-04-18T13:57:09.365Z</time></trkpt><trkpt lat="45.1494967" lon="8.0442267"><ele>212.0</ele><time>2026-04-18T13:57:10.365Z</time></trkpt><trkpt lat="45.1495567" lon="8.044375"><ele>209.0</ele><time>2026-04-18T13:57:11.365Z</time></trkpt><trkpt lat="45.14962" lon="8.0445233"><ele>206.0</ele><time>2026-04-18T13:57:12.365Z</time></trkpt><trkpt lat="45.1496917" lon="8.0446683"><ele>206.0</ele><time>2026-04-18T13:57:13.365Z</time></trkpt><trkpt lat="45.1497633" lon="8.0448083"><ele>206.0</ele><time>2026-04-18T13:57:14.364Z</time></trkpt><trkpt lat="45.149835" lon="8.0449383"><ele>206.0</ele><time>2026-04-18T13:57:15.364Z</time></trkpt><trkpt lat="45.1499033" lon="8.0450683"><ele>206.0</ele><time>2026-04-18T13:57:16.365Z</time></trkpt><trkpt lat="45.1499633" lon="8.0452"><ele>206.25</ele><time>2026-04-18T13:57:17.365Z</time></trkpt><trkpt lat="45.1500083" lon="8.0453517"><ele>206.5</ele><time>2026-04-18T13:57:18.364Z</time></trkpt><trkpt lat="45.1500367" lon="8.04551"><ele>206.75</ele><time>2026-04-18T13:57:19.364Z</time></trkpt><trkpt lat="45.1500583" lon="8.04567"><ele>207.0</ele><time>2026-04-18T13:57:20.364Z</time></trkpt><trkpt lat="45.1501" lon="8.045835"><ele>207.0</ele><time>2026-04-18T13:57:21.365Z</time></trkpt><trkpt lat="45.150165" lon="8.0459867"><ele>207.0</ele><time>2026-04-18T13:57:22.365Z</time></trkpt><trkpt lat="45.1502667" lon="8.0461067"><ele>207.0</ele><time>2026-04-18T13:57:23.365Z</time></trkpt><trkpt lat="45.1503933" lon="8.0461833"><ele>207.0</ele><time>2026-04-18T13:57:24.364Z</time></trkpt><trkpt lat="45.150515" lon="8.0462567"><ele>207.0</ele><time>2026-04-18T13:57:25.364Z</time></trkpt><trkpt lat="45.1506317" lon="8.0463183"><ele>207.0</ele><time>2026-04-18T13:57:26.364Z</time></trkpt><trkpt lat="45.1507533" lon="8.0464"><ele>207.0</ele><time>2026-04-18T13:57:27.365Z</time></trkpt><trkpt lat="45.1508567" lon="8.04648"><ele>207.0</ele><time>2026-04-18T13:57:28.365Z</time></trkpt><trkpt lat="45.15095" lon="8.04655"><ele>207.0</ele><time>2026-04-18T13:57:29.365Z</time></trkpt><trkpt lat="45.1510283" lon="8.0466367"><ele>207.0</ele><time>2026-04-18T13:57:30.365Z</time></trkpt><trkpt lat="45.151105" lon="8.0467567"><ele>207.0</ele><time>2026-04-18T13:57:31.365Z</time></trkpt><trkpt lat="45.1511667" lon="8.0468883"><ele>207.0</ele><time>2026-04-18T13:57:32.365Z</time></trkpt><trkpt lat="45.1512167" lon="8.047035"><ele>207.0</ele><time>2026-04-18T13:57:33.365Z</time></trkpt><trkpt lat="45.1512583" lon="8.0471917"><ele>207.0</ele><time>2026-04-18T13:57:34.364Z</time></trkpt><trkpt lat="45.1513083" lon="8.0473567"><ele>207.0</ele><time>2026-04-18T13:57:35.365Z</time></trkpt><trkpt lat="45.1513633" lon="8.0475183"><ele>207.0</ele><time>2026-04-18T13:57:36.365Z</time></trkpt><trkpt lat="45.1514183" lon="8.04768"><ele>207.0</ele><time>2026-04-18T13:57:37.365Z</time></trkpt><trkpt lat="45.151485" lon="8.0478367"><ele>208.0</ele><time>2026-04-18T13:57:38.365Z</time></trkpt><trkpt lat="45.1515583" lon="8.0479883"><ele>209.0</ele><time>2026-04-18T13:57:39.365Z</time></trkpt><trkpt lat="45.1516483" lon="8.048135"><ele>210.0</ele><time>2026-04-18T13:57:40.365Z</time></trkpt><trkpt lat="45.1517383" lon="8.0482833"><ele>211.0</ele><time>2026-04-18T13:57:41.365Z</time></trkpt><trkpt lat="45.1518267" lon="8.0484233"><ele>208.5</ele><time>2026-04-18T13:57:42.365Z</time></trkpt><trkpt lat="45.1519133" lon="8.0485567"><ele>206.0</ele><time>2026-04-18T13:57:43.365Z</time></trkpt><trkpt lat="45.15201" lon="8.0486933"><ele>203.5</ele><time>2026-04-18T13:57:44.365Z</time></trkpt><trkpt lat="45.1521033" lon="8.0488183"><ele>201.0</ele><time>2026-04-18T13:57:45.365Z</time></trkpt><trkpt lat="45.1521933" lon="8.0489333"><ele>201.0</ele><time>2026-04-18T13:57:46.365Z</time></trkpt><trkpt lat="45.1523033" lon="8.0490267"><ele>201.0</ele><time>2026-04-18T13:57:47.364Z</time></trkpt><trkpt lat="45.1524133" lon="8.049115"><ele>201.0</ele><time>2026-04-18T13:57:48.365Z</time></trkpt><trkpt lat="45.1525217" lon="8.0491933"><ele>201.0</ele><time>2026-04-18T13:57:49.364Z</time></trkpt><trkpt lat="45.1526317" lon="8.0492917"><ele>198.8</ele><time>2026-04-18T13:57:50.365Z</time></trkpt><trkpt lat="45.15272" lon="8.0493933"><ele>196.60000000000002</ele><time>2026-04-18T13:57:51.365Z</time></trkpt><trkpt lat="45.1527967" lon="8.0494917"><ele>194.4</ele><time>2026-04-18T13:57:52.365Z</time></trkpt><trkpt lat="45.15286" lon="8.049595"><ele>192.2</ele><time>2026-04-18T13:57:53.364Z</time></trkpt><trkpt lat="45.152885" lon="8.049725"><ele>190.0</ele><time>2026-04-18T13:57:54.365Z</time></trkpt><trkpt lat="45.1528833" lon="8.0498783"><ele>188.0</ele><time>2026-04-18T13:57:55.364Z</time></trkpt><trkpt lat="45.1528683" lon="8.050025"><ele>186.0</ele><time>2026-04-18T13:57:56.365Z</time></trkpt><trkpt lat="45.1528617" lon="8.0501583"><ele>184.0</ele><time>2026-04-18T13:57:57.364Z</time></trkpt><trkpt lat="45.15289" lon="8.0502917"><ele>182.0</ele><time>2026-04-18T13:57:58.365Z</time></trkpt><trkpt lat="45.1529367" lon="8.0504117"><ele>180.0</ele><time>2026-04-18T13:57:59.365Z</time></trkpt><trkpt lat="45.1529917" lon="8.05051"><ele>180.0</ele><time>2026-04-18T13:58:00.364Z</time></trkpt><trkpt lat="45.153035" lon="8.05059"><ele>180.0</ele><time>2026-04-18T13:58:01.365Z</time></trkpt><trkpt lat="45.1531183" lon="8.0506783"><ele>180.0</ele><time>2026-04-18T13:58:03.365Z</time></trkpt><trkpt lat="45.15318" lon="8.05074"><ele>180.0</ele><time>2026-04-18T13:58:05.365Z</time></trkpt><trkpt lat="45.1532283" lon="8.0508267"><ele>180.0</ele><time>2026-04-18T13:58:35.365Z</time></trkpt><trkpt lat="45.15319" lon="8.0509183"><ele>180.0</ele><time>2026-04-18T13:58:38.365Z</time></trkpt><trkpt lat="45.1531333" lon="8.0509633"><ele>179.2</ele><time>2026-04-18T13:58:39.365Z</time></trkpt><trkpt lat="45.1530533" lon="8.0510083"><ele>178.4</ele><time>2026-04-18T13:58:40.365Z</time></trkpt><trkpt lat="45.1529633" lon="8.0510617"><ele>177.60000000000002</ele><time>2026-04-18T13:58:41.365Z</time></trkpt><trkpt lat="45.1528817" lon="8.0511267"><ele>176.8</ele><time>2026-04-18T13:58:42.365Z</time></trkpt><trkpt lat="45.15279" lon="8.0511967"><ele>176.0</ele><time>2026-04-18T13:58:43.365Z</time></trkpt><trkpt lat="45.15269" lon="8.05125"><ele>176.0</ele><time>2026-04-18T13:58:44.365Z</time></trkpt><trkpt lat="45.1525933" lon="8.05131"><ele>176.0</ele><time>2026-04-18T13:58:45.365Z</time></trkpt><trkpt lat="45.1525017" lon="8.0513617"><ele>176.0</ele><time>2026-04-18T13:58:46.364Z</time></trkpt><trkpt lat="45.1524167" lon="8.0514133"><ele>176.0</ele><time>2026-04-18T13:58:47.365Z</time></trkpt><trkpt lat="45.1523333" lon="8.051475"><ele>176.0</ele><time>2026-04-18T13:58:48.365Z</time></trkpt><trkpt lat="45.1522633" lon="8.05154"><ele>176.20000000000002</ele><time>2026-04-18T13:58:49.365Z</time></trkpt><trkpt lat="45.1522267" lon="8.0516167"><ele>176.4</ele><time>2026-04-18T13:58:50.365Z</time></trkpt><trkpt lat="45.15221" lon="8.0517167"><ele>176.6</ele><time>2026-04-18T13:58:51.365Z</time></trkpt><trkpt lat="45.1522283" lon="8.0518467"><ele>176.8</ele><time>2026-04-18T13:58:52.365Z</time></trkpt><trkpt lat="45.1522767" lon="8.0519917"><ele>177.0</ele><time>2026-04-18T13:58:53.364Z</time></trkpt><trkpt lat="45.15234" lon="8.0521433"><ele>176.75</ele><time>2026-04-18T13:58:54.365Z</time></trkpt><trkpt lat="45.1524117" lon="8.0523133"><ele>176.5</ele><time>2026-04-18T13:58:55.365Z</time></trkpt><trkpt lat="45.152475" lon="8.0524867"><ele>176.25</ele><time>2026-04-18T13:58:56.364Z</time></trkpt><trkpt lat="45.1525367" lon="8.0526733"><ele>176.0</ele><time>2026-04-18T13:58:57.364Z</time></trkpt><trkpt lat="45.15261" lon="8.052845"><ele>176.0</ele><time>2026-04-18T13:58:58.365Z</time></trkpt><trkpt lat="45.1526683" lon="8.0530233"><ele>176.0</ele><time>2026-04-18T13:58:59.364Z</time></trkpt><trkpt lat="45.1527317" lon="8.0531983"><ele>176.0</ele><time>2026-04-18T13:59:00.365Z</time></trkpt><trkpt lat="45.152785" lon="8.05338"><ele>176.0</ele><time>2026-04-18T13:59:01.365Z</time></trkpt><trkpt lat="45.15284" lon="8.0535633"><ele>175.5</ele><time>2026-04-18T13:59:02.365Z</time></trkpt><trkpt lat="45.152895" lon="8.0537383"><ele>175.0</ele><time>2026-04-18T13:59:03.365Z</time></trkpt><trkpt lat="45.1529483" lon="8.0539167"><ele>174.5</ele><time>2026-04-18T13:59:04.365Z</time></trkpt><trkpt lat="45.1530033" lon="8.0540867"><ele>174.0</ele><time>2026-04-18T13:59:05.365Z</time></trkpt><trkpt lat="45.1530633" lon="8.054255"><ele>173.75</ele><time>2026-04-18T13:59:06.365Z</time></trkpt><trkpt lat="45.1531233" lon="8.0544183"><ele>173.5</ele><time>2026-04-18T13:59:07.365Z</time></trkpt><trkpt lat="45.1531817" lon="8.0545767"><ele>173.25</ele><time>2026-04-18T13:59:08.365Z</time></trkpt><trkpt lat="45.1532417" lon="8.0547333"><ele>173.0</ele><time>2026-04-18T13:59:09.365Z</time></trkpt><trkpt lat="45.15329" lon="8.0548933"><ele>173.25</ele><time>2026-04-18T13:59:10.365Z</time></trkpt><trkpt lat="45.1533383" lon="8.05506"><ele>173.5</ele><time>2026-04-18T13:59:11.365Z</time></trkpt><trkpt lat="45.15339" lon="8.05522"><ele>173.75</ele><time>2026-04-18T13:59:12.365Z</time></trkpt><trkpt lat="45.1534483" lon="8.0553733"><ele>174.0</ele><time>2026-04-18T13:59:13.364Z</time></trkpt><trkpt lat="45.15351" lon="8.055525"><ele>174.0</ele><time>2026-04-18T13:59:14.364Z</time></trkpt><trkpt lat="45.1535633" lon="8.05568"><ele>174.0</ele><time>2026-04-18T13:59:15.364Z</time></trkpt><trkpt lat="45.1536067" lon="8.0558383"><ele>174.0</ele><time>2026-04-18T13:59:16.365Z</time></trkpt><trkpt lat="45.15365" lon="8.0559833"><ele>174.0</ele><time>2026-04-18T13:59:17.365Z</time></trkpt><trkpt lat="45.1536983" lon="8.0561133"><ele>174.0</ele><time>2026-04-18T13:59:18.365Z</time></trkpt><trkpt lat="45.1537517" lon="8.0562117"><ele>174.0</ele><time>2026-04-18T13:59:19.365Z</time></trkpt><trkpt lat="45.1538217" lon="8.0562767"><ele>174.0</ele><time>2026-04-18T13:59:20.365Z</time></trkpt><trkpt lat="45.1538983" lon="8.05632"><ele>174.0</ele><time>2026-04-18T13:59:21.365Z</time></trkpt><trkpt lat="45.15398" lon="8.0563567"><ele>174.0</ele><time>2026-04-18T13:59:22.365Z</time></trkpt><trkpt lat="45.15405" lon="8.0564183"><ele>174.0</ele><time>2026-04-18T13:59:23.365Z</time></trkpt><trkpt lat="45.15412" lon="8.056485"><ele>173.5</ele><time>2026-04-18T13:59:24.365Z</time></trkpt><trkpt lat="45.154195" lon="8.056595"><ele>173.0</ele><time>2026-04-18T13:59:25.364Z</time></trkpt><trkpt lat="45.15427" lon="8.05671"><ele>172.5</ele><time>2026-04-18T13:59:26.365Z</time></trkpt><trkpt lat="45.1543583" lon="8.0568217"><ele>172.0</ele><time>2026-04-18T13:59:27.365Z</time></trkpt><trkpt lat="45.1544533" lon="8.056935"><ele>172.0</ele><time>2026-04-18T13:59:28.364Z</time></trkpt><trkpt lat="45.1545367" lon="8.0570517"><ele>172.0</ele><time>2026-04-18T13:59:29.365Z</time></trkpt><trkpt lat="45.1546283" lon="8.05716"><ele>172.0</ele><time>2026-04-18T13:59:30.365Z</time></trkpt><trkpt lat="45.1547333" lon="8.0572767"><ele>172.0</ele><time>2026-04-18T13:59:31.365Z</time></trkpt><trkpt lat="45.1548367" lon="8.0573933"><ele>172.0</ele><time>2026-04-18T13:59:32.365Z</time></trkpt><trkpt lat="45.1549383" lon="8.0575167"><ele>172.0</ele><time>2026-04-18T13:59:33.364Z</time></trkpt><trkpt lat="45.1550383" lon="8.0576383"><ele>172.0</ele><time>2026-04-18T13:59:34.365Z</time></trkpt><trkpt lat="45.1551383" lon="8.05776"><ele>172.0</ele><time>2026-04-18T13:59:35.365Z</time></trkpt><trkpt lat="45.1552383" lon="8.0578933"><ele>172.0</ele><time>2026-04-18T13:59:36.365Z</time></trkpt><trkpt lat="45.1553433" lon="8.05802"><ele>172.0</ele><time>2026-04-18T13:59:37.364Z</time></trkpt><trkpt lat="45.1554417" lon="8.0581367"><ele>172.0</ele><time>2026-04-18T13:59:38.365Z</time></trkpt><trkpt lat="45.1555317" lon="8.0582617"><ele>172.0</ele><time>2026-04-18T13:59:39.365Z</time></trkpt><trkpt lat="45.155625" lon="8.0583867"><ele>171.5</ele><time>2026-04-18T13:59:40.364Z</time></trkpt><trkpt lat="45.1557267" lon="8.0585233"><ele>171.0</ele><time>2026-04-18T13:59:41.364Z</time></trkpt><trkpt lat="45.1558117" lon="8.0586533"><ele>170.5</ele><time>2026-04-18T13:59:42.365Z</time></trkpt><trkpt lat="45.155885" lon="8.058795"><ele>170.0</ele><time>2026-04-18T13:59:43.365Z</time></trkpt><trkpt lat="45.1559383" lon="8.05894"><ele>170.0</ele><time>2026-04-18T13:59:44.365Z</time></trkpt><trkpt lat="45.155975" lon="8.0590633"><ele>170.0</ele><time>2026-04-18T13:59:45.365Z</time></trkpt><trkpt lat="45.1560133" lon="8.05918"><ele>170.0</ele><time>2026-04-18T13:59:46.364Z</time></trkpt><trkpt lat="45.1560533" lon="8.059265"><ele>170.0</ele><time>2026-04-18T13:59:47.364Z</time></trkpt><trkpt lat="45.1560817" lon="8.05937"><ele>170.0</ele><time>2026-04-18T13:59:49.365Z</time></trkpt><trkpt lat="45.1560767" lon="8.0594617"><ele>170.0</ele><time>2026-04-18T13:59:52.365Z</time></trkpt><trkpt lat="45.156095" lon="8.0595767"><ele>170.16666666666666</ele><time>2026-04-18T13:59:54.365Z</time></trkpt><trkpt lat="45.1561067" lon="8.05967"><ele>170.33333333333331</ele><time>2026-04-18T13:59:55.365Z</time></trkpt><trkpt lat="45.156125" lon="8.05977"><ele>170.5</ele><time>2026-04-18T13:59:56.365Z</time></trkpt><trkpt lat="45.1561433" lon="8.0598883"><ele>170.66666666666666</ele><time>2026-04-18T13:59:57.365Z</time></trkpt><trkpt lat="45.1561567" lon="8.0600233"><ele>170.83333333333334</ele><time>2026-04-18T13:59:58.364Z</time></trkpt><trkpt lat="45.156165" lon="8.06017"><ele>171.0</ele><time>2026-04-18T13:59:59.364Z</time></trkpt><trkpt lat="45.15616" lon="8.060335"><ele>171.0</ele><time>2026-04-18T14:00:00.365Z</time></trkpt><trkpt lat="45.1561617" lon="8.060505"><ele>171.0</ele><time>2026-04-18T14:00:01.365Z</time></trkpt><trkpt lat="45.15617" lon="8.0606867"><ele>171.0</ele><time>2026-04-18T14:00:02.365Z</time></trkpt><trkpt lat="45.1561667" lon="8.060885"><ele>171.0</ele><time>2026-04-18T14:00:03.365Z</time></trkpt><trkpt lat="45.156145" lon="8.0610917"><ele>170.75</ele><time>2026-04-18T14:00:04.365Z</time></trkpt><trkpt lat="45.1561033" lon="8.0613"><ele>170.5</ele><time>2026-04-18T14:00:05.365Z</time></trkpt><trkpt lat="45.1560833" lon="8.06151"><ele>170.25</ele><time>2026-04-18T14:00:06.364Z</time></trkpt><trkpt lat="45.1560583" lon="8.06171"><ele>170.0</ele><time>2026-04-18T14:00:07.365Z</time></trkpt><trkpt lat="45.1560483" lon="8.0619167"><ele>169.75</ele><time>2026-04-18T14:00:08.365Z</time></trkpt><trkpt lat="45.15603" lon="8.0621183"><ele>169.5</ele><time>2026-04-18T14:00:09.365Z</time></trkpt><trkpt lat="45.1560133" lon="8.0623283"><ele>169.25</ele><time>2026-04-18T14:00:10.365Z</time></trkpt><trkpt lat="45.1559967" lon="8.0625333"><ele>169.0</ele><time>2026-04-18T14:00:11.364Z</time></trkpt><trkpt lat="45.1559683" lon="8.062735"><ele>169.25</ele><time>2026-04-18T14:00:12.365Z</time></trkpt><trkpt lat="45.1559317" lon="8.06293"><ele>169.5</ele><time>2026-04-18T14:00:13.365Z</time></trkpt><trkpt lat="45.1558983" lon="8.0631233"><ele>169.75</ele><time>2026-04-18T14:00:14.364Z</time></trkpt><trkpt lat="45.1558683" lon="8.063325"><ele>170.0</ele><time>2026-04-18T14:00:15.365Z</time></trkpt><trkpt lat="45.1558467" lon="8.0635167"><ele>170.0</ele><time>2026-04-18T14:00:16.365Z</time></trkpt><trkpt lat="45.1558233" lon="8.06372"><ele>170.0</ele><time>2026-04-18T14:00:17.365Z</time></trkpt><trkpt lat="45.1557933" lon="8.0639283"><ele>170.0</ele><time>2026-04-18T14:00:18.364Z</time></trkpt><trkpt lat="45.1557683" lon="8.064145"><ele>170.0</ele><time>2026-04-18T14:00:19.365Z</time></trkpt><trkpt lat="45.155735" lon="8.0643483"><ele>170.0</ele><time>2026-04-18T14:00:20.365Z</time></trkpt><trkpt lat="45.1557033" lon="8.0645533"><ele>170.0</ele><time>2026-04-18T14:00:21.365Z</time></trkpt><trkpt lat="45.1556817" lon="8.0647383"><ele>170.0</ele><time>2026-04-18T14:00:22.365Z</time></trkpt><trkpt lat="45.1556583" lon="8.0649167"><ele>171.5</ele><time>2026-04-18T14:00:23.365Z</time></trkpt><trkpt lat="45.1556417" lon="8.065095"><ele>173.0</ele><time>2026-04-18T14:00:24.364Z</time></trkpt><trkpt lat="45.15563" lon="8.0652633"><ele>174.5</ele><time>2026-04-18T14:00:25.365Z</time></trkpt><trkpt lat="45.15561" lon="8.0654167"><ele>176.0</ele><time>2026-04-18T14:00:26.365Z</time></trkpt><trkpt lat="45.1555883" lon="8.0655567"><ele>176.0</ele><time>2026-04-18T14:00:27.365Z</time></trkpt><trkpt lat="45.1555233" lon="8.06566"><ele>176.0</ele><time>2026-04-18T14:00:28.365Z</time></trkpt><trkpt lat="45.155455" lon="8.065755"><ele>176.0</ele><time>2026-04-18T14:00:29.364Z</time></trkpt><trkpt lat="45.1554033" lon="8.06586"><ele>176.0</ele><time>2026-04-18T14:00:30.365Z</time></trkpt><trkpt lat="45.155375" lon="8.0659783"><ele>176.0</ele><time>2026-04-18T14:00:31.365Z</time></trkpt><trkpt lat="45.1553817" lon="8.0661067"><ele>175.8</ele><time>2026-04-18T14:00:32.365Z</time></trkpt><trkpt lat="45.1554033" lon="8.0662367"><ele>175.60000000000002</ele><time>2026-04-18T14:00:33.364Z</time></trkpt><trkpt lat="45.1554367" lon="8.066385"><ele>175.4</ele><time>2026-04-18T14:00:34.364Z</time></trkpt><trkpt lat="45.1554517" lon="8.0665517"><ele>175.2</ele><time>2026-04-18T14:00:35.364Z</time></trkpt><trkpt lat="45.155435" lon="8.0667233"><ele>175.0</ele><time>2026-04-18T14:00:36.365Z</time></trkpt><trkpt lat="45.15542" lon="8.0668983"><ele>175.16666666666669</ele><time>2026-04-18T14:00:37.365Z</time></trkpt><trkpt lat="45.1553917" lon="8.0670483"><ele>175.33333333333334</ele><time>2026-04-18T14:00:38.365Z</time></trkpt><trkpt lat="45.1553717" lon="8.06717"><ele>175.5</ele><time>2026-04-18T14:00:39.365Z</time></trkpt><trkpt lat="45.1553467" lon="8.067275"><ele>175.66666666666666</ele><time>2026-04-18T14:00:40.365Z</time></trkpt><trkpt lat="45.1553233" lon="8.0673583"><ele>175.83333333333331</ele><time>2026-04-18T14:00:41.365Z</time></trkpt><trkpt lat="45.1552967" lon="8.0674717"><ele>176.0</ele><time>2026-04-18T14:00:43.365Z</time></trkpt><trkpt lat="45.15529" lon="8.0675617"><ele>176.0</ele><time>2026-04-18T14:00:46.364Z</time></trkpt><trkpt lat="45.1553517" lon="8.067445"><ele>176.0</ele><time>2026-04-18T14:00:50.365Z</time></trkpt><trkpt lat="45.1553667" lon="8.0673417"><ele>176.0</ele><time>2026-04-18T14:00:51.364Z</time></trkpt><trkpt lat="45.1553833" lon="8.0672183"><ele>176.0</ele><time>2026-04-18T14:00:52.365Z</time></trkpt><trkpt lat="45.1554" lon="8.0670817"><ele>176.0</ele><time>2026-04-18T14:00:53.365Z</time></trkpt><trkpt lat="45.1554167" lon="8.0669267"><ele>175.8</ele><time>2026-04-18T14:00:54.365Z</time></trkpt><trkpt lat="45.15543" lon="8.0667733"><ele>175.60000000000002</ele><time>2026-04-18T14:00:55.365Z</time></trkpt><trkpt lat="45.1554467" lon="8.066635"><ele>175.4</ele><time>2026-04-18T14:00:56.365Z</time></trkpt><trkpt lat="45.1554683" lon="8.0665033"><ele>175.2</ele><time>2026-04-18T14:00:57.365Z</time></trkpt><trkpt lat="45.155485" lon="8.0663817"><ele>175.0</ele><time>2026-04-18T14:00:58.365Z</time></trkpt><trkpt lat="45.1555067" lon="8.066285"><ele>175.0</ele><time>2026-04-18T14:00:59.364Z</time></trkpt><trkpt lat="45.1555783" lon="8.0661983"><ele>175.0</ele><time>2026-04-18T14:01:01.364Z</time></trkpt><trkpt lat="45.1556833" lon="8.0662967"><ele>175.0</ele><time>2026-04-18T14:01:03.365Z</time></trkpt><trkpt lat="45.155735" lon="8.0664283"><ele>175.0</ele><time>2026-04-18T14:01:04.365Z</time></trkpt><trkpt lat="45.15578" lon="8.06662"><ele>173.33333333333334</ele><time>2026-04-18T14:01:05.365Z</time></trkpt><trkpt lat="45.1558283" lon="8.0668317"><ele>171.66666666666666</ele><time>2026-04-18T14:01:06.365Z</time></trkpt><trkpt lat="45.155895" lon="8.067035"><ele>170.0</ele><time>2026-04-18T14:01:07.365Z</time></trkpt><trkpt lat="45.15594" lon="8.067215"><ele>170.0</ele><time>2026-04-18T14:01:08.364Z</time></trkpt><trkpt lat="45.1559983" lon="8.0674033"><ele>170.0</ele><time>2026-04-18T14:01:09.365Z</time></trkpt><trkpt lat="45.1560517" lon="8.0675983"><ele>170.0</ele><time>2026-04-18T14:01:10.365Z</time></trkpt><trkpt lat="45.1560983" lon="8.0678083"><ele>170.0</ele><time>2026-04-18T14:01:11.364Z</time></trkpt><trkpt lat="45.1561633" lon="8.0680233"><ele>170.66666666666666</ele><time>2026-04-18T14:01:12.365Z</time></trkpt><trkpt lat="45.1562283" lon="8.0682367"><ele>171.33333333333334</ele><time>2026-04-18T14:01:13.365Z</time></trkpt><trkpt lat="45.15628" lon="8.0684517"><ele>172.0</ele><time>2026-04-18T14:01:14.364Z</time></trkpt><trkpt lat="45.1563433" lon="8.068665"><ele>172.66666666666669</ele><time>2026-04-18T14:01:15.365Z</time></trkpt><trkpt lat="45.1564" lon="8.068875"><ele>173.33333333333334</ele><time>2026-04-18T14:01:16.364Z</time></trkpt><trkpt lat="45.1564567" lon="8.0690883"><ele>174.0</ele><time>2026-04-18T14:01:17.365Z</time></trkpt><trkpt lat="45.15651" lon="8.0693017"><ele>173.66666666666666</ele><time>2026-04-18T14:01:18.365Z</time></trkpt><trkpt lat="45.1565667" lon="8.0695183"><ele>173.33333333333331</ele><time>2026-04-18T14:01:19.364Z</time></trkpt><trkpt lat="45.1566217" lon="8.0697233"><ele>173.0</ele><time>2026-04-18T14:01:20.365Z</time></trkpt><trkpt lat="45.1566733" lon="8.069925"><ele>172.66666666666666</ele><time>2026-04-18T14:01:21.364Z</time></trkpt><trkpt lat="45.1567383" lon="8.0701283"><ele>172.33333333333334</ele><time>2026-04-18T14:01:22.365Z</time></trkpt><trkpt lat="45.1567967" lon="8.0703467"><ele>172.0</ele><time>2026-04-18T14:01:23.364Z</time></trkpt><trkpt lat="45.1568483" lon="8.0705517"><ele>172.0</ele><time>2026-04-18T14:01:24.365Z</time></trkpt><trkpt lat="45.1569033" lon="8.0707683"><ele>172.0</ele><time>2026-04-18T14:01:25.365Z</time></trkpt><trkpt lat="45.156955" lon="8.0709667"><ele>172.0</ele><time>2026-04-18T14:01:26.365Z</time></trkpt><trkpt lat="45.1570117" lon="8.0711817"><ele>172.0</ele><time>2026-04-18T14:01:27.365Z</time></trkpt><trkpt lat="45.1570583" lon="8.0714067"><ele>172.0</ele><time>2026-04-18T14:01:28.364Z</time></trkpt><trkpt lat="45.1571167" lon="8.0716233"><ele>172.0</ele><time>2026-04-18T14:01:29.364Z</time></trkpt><trkpt lat="45.1571817" lon="8.0718433"><ele>172.33333333333334</ele><time>2026-04-18T14:01:30.365Z</time></trkpt><trkpt lat="45.1572417" lon="8.0720567"><ele>172.66666666666666</ele><time>2026-04-18T14:01:31.365Z</time></trkpt><trkpt lat="45.1572867" lon="8.0722667"><ele>173.0</ele><time>2026-04-18T14:01:32.365Z</time></trkpt><trkpt lat="45.1573467" lon="8.0724667"><ele>172.66666666666666</ele><time>2026-04-18T14:01:33.365Z</time></trkpt><trkpt lat="45.1574067" lon="8.0726683"><ele>172.33333333333334</ele><time>2026-04-18T14:01:34.365Z</time></trkpt><trkpt lat="45.1574733" lon="8.0728683"><ele>172.0</ele><time>2026-04-18T14:01:35.364Z</time></trkpt><trkpt lat="45.1575283" lon="8.073065"><ele>172.0</ele><time>2026-04-18T14:01:36.365Z</time></trkpt><trkpt lat="45.1575817" lon="8.073245"><ele>172.0</ele><time>2026-04-18T14:01:37.365Z</time></trkpt><trkpt lat="45.15763" lon="8.0734133"><ele>172.0</ele><time>2026-04-18T14:01:38.365Z</time></trkpt><trkpt lat="45.1576833" lon="8.0735733"><ele>172.0</ele><time>2026-04-18T14:01:39.364Z</time></trkpt><trkpt lat="45.157725" lon="8.0737217"><ele>171.75</ele><time>2026-04-18T14:01:40.365Z</time></trkpt><trkpt lat="45.15775" lon="8.073865"><ele>171.5</ele><time>2026-04-18T14:01:41.365Z</time></trkpt><trkpt lat="45.157745" lon="8.0740217"><ele>171.25</ele><time>2026-04-18T14:01:42.365Z</time></trkpt><trkpt lat="45.1577217" lon="8.0741917"><ele>171.0</ele><time>2026-04-18T14:01:43.365Z</time></trkpt><trkpt lat="45.1576867" lon="8.0743733"><ele>171.0</ele><time>2026-04-18T14:01:44.365Z</time></trkpt><trkpt lat="45.1576533" lon="8.0745567"><ele>171.0</ele><time>2026-04-18T14:01:45.364Z</time></trkpt><trkpt lat="45.157615" lon="8.074745"><ele>171.0</ele><time>2026-04-18T14:01:46.364Z</time></trkpt><trkpt lat="45.157555" lon="8.0749283"><ele>171.0</ele><time>2026-04-18T14:01:47.365Z</time></trkpt><trkpt lat="45.15749" lon="8.0751067"><ele>172.0</ele><time>2026-04-18T14:01:48.364Z</time></trkpt><trkpt lat="45.1574217" lon="8.0752867"><ele>173.0</ele><time>2026-04-18T14:01:49.365Z</time></trkpt><trkpt lat="45.15736" lon="8.07548"><ele>174.0</ele><time>2026-04-18T14:01:50.365Z</time></trkpt><trkpt lat="45.1572917" lon="8.0756783"><ele>175.0</ele><time>2026-04-18T14:01:51.364Z</time></trkpt><trkpt lat="45.1572267" lon="8.075875"><ele>176.66666666666669</ele><time>2026-04-18T14:01:52.364Z</time></trkpt><trkpt lat="45.15716" lon="8.0760783"><ele>178.33333333333334</ele><time>2026-04-18T14:01:53.365Z</time></trkpt><trkpt lat="45.1570883" lon="8.076275"><ele>180.0</ele><time>2026-04-18T14:01:54.364Z</time></trkpt><trkpt lat="45.1570083" lon="8.076465"><ele>181.5</ele><time>2026-04-18T14:01:55.365Z</time></trkpt><trkpt lat="45.1569117" lon="8.0766417"><ele>183.0</ele><time>2026-04-18T14:01:56.365Z</time></trkpt><trkpt lat="45.15681" lon="8.0767867"><ele>184.5</ele><time>2026-04-18T14:01:57.365Z</time></trkpt><trkpt lat="45.1566967" lon="8.0769033"><ele>186.0</ele><time>2026-04-18T14:01:58.365Z</time></trkpt><trkpt lat="45.1565683" lon="8.0770167"><ele>186.25</ele><time>2026-04-18T14:01:59.364Z</time></trkpt><trkpt lat="45.1564583" lon="8.0771417"><ele>186.5</ele><time>2026-04-18T14:02:00.365Z</time></trkpt><trkpt lat="45.1563767" lon="8.0772767"><ele>186.75</ele><time>2026-04-18T14:02:01.365Z</time></trkpt><trkpt lat="45.15633" lon="8.0774333"><ele>187.0</ele><time>2026-04-18T14:02:02.365Z</time></trkpt><trkpt lat="45.1563283" lon="8.0776017"><ele>187.0</ele><time>2026-04-18T14:02:03.365Z</time></trkpt><trkpt lat="45.1563583" lon="8.077785"><ele>187.0</ele><time>2026-04-18T14:02:04.364Z</time></trkpt><trkpt lat="45.1563733" lon="8.0779783"><ele>187.0</ele><time>2026-04-18T14:02:05.365Z</time></trkpt><trkpt lat="45.1563883" lon="8.0781867"><ele>187.0</ele><time>2026-04-18T14:02:06.364Z</time></trkpt><trkpt lat="45.15639" lon="8.0784033"><ele>188.5</ele><time>2026-04-18T14:02:07.364Z</time></trkpt><trkpt lat="45.1563583" lon="8.0786167"><ele>190.0</ele><time>2026-04-18T14:02:08.364Z</time></trkpt><trkpt lat="45.1563083" lon="8.0787983"><ele>191.5</ele><time>2026-04-18T14:02:09.365Z</time></trkpt><trkpt lat="45.15623" lon="8.0789733"><ele>193.0</ele><time>2026-04-18T14:02:10.365Z</time></trkpt><trkpt lat="45.1561433" lon="8.0791317"><ele>194.25</ele><time>2026-04-18T14:02:11.365Z</time></trkpt><trkpt lat="45.156045" lon="8.07928"><ele>195.5</ele><time>2026-04-18T14:02:12.365Z</time></trkpt><trkpt lat="45.1559417" lon="8.07943"><ele>196.75</ele><time>2026-04-18T14:02:13.365Z</time></trkpt><trkpt lat="45.1558417" lon="8.079595"><ele>198.0</ele><time>2026-04-18T14:02:14.365Z</time></trkpt><trkpt lat="45.155755" lon="8.0797683"><ele>198.0</ele><time>2026-04-18T14:02:15.365Z</time></trkpt><trkpt lat="45.155675" lon="8.0799517"><ele>198.0</ele><time>2026-04-18T14:02:16.365Z</time></trkpt><trkpt lat="45.1555933" lon="8.0801433"><ele>198.0</ele><time>2026-04-18T14:02:17.365Z</time></trkpt><trkpt lat="45.1555233" lon="8.0803317"><ele>198.0</ele><time>2026-04-18T14:02:18.365Z</time></trkpt><trkpt lat="45.1554567" lon="8.0805217"><ele>198.0</ele><time>2026-04-18T14:02:19.365Z</time></trkpt><trkpt lat="45.155395" lon="8.0806933"><ele>198.0</ele><time>2026-04-18T14:02:20.365Z</time></trkpt><trkpt lat="45.1553417" lon="8.0808567"><ele>198.0</ele><time>2026-04-18T14:02:21.365Z</time></trkpt><trkpt lat="45.1552983" lon="8.0810083"><ele>199.33333333333334</ele><time>2026-04-18T14:02:22.365Z</time></trkpt><trkpt lat="45.1552783" lon="8.08114"><ele>200.66666666666669</ele><time>2026-04-18T14:02:23.365Z</time></trkpt><trkpt lat="45.1552933" lon="8.08126"><ele>202.0</ele><time>2026-04-18T14:02:24.364Z</time></trkpt><trkpt lat="45.155345" lon="8.081345"><ele>203.33333333333334</ele><time>2026-04-18T14:02:25.365Z</time></trkpt><trkpt lat="45.15541" lon="8.0813783"><ele>204.66666666666669</ele><time>2026-04-18T14:02:26.364Z</time></trkpt><trkpt lat="45.1554817" lon="8.0813417"><ele>206.0</ele><time>2026-04-18T14:02:27.365Z</time></trkpt><trkpt lat="45.1555733" lon="8.08124"><ele>206.0</ele><time>2026-04-18T14:02:28.365Z</time></trkpt><trkpt lat="45.155675" lon="8.08108"><ele>206.0</ele><time>2026-04-18T14:02:29.365Z</time></trkpt><trkpt lat="45.1557717" lon="8.0808917"><ele>206.0</ele><time>2026-04-18T14:02:30.365Z</time></trkpt><trkpt lat="45.1558633" lon="8.080735"><ele>206.60000000000002</ele><time>2026-04-18T14:02:31.365Z</time></trkpt><trkpt lat="45.15596" lon="8.0806"><ele>207.2</ele><time>2026-04-18T14:02:32.364Z</time></trkpt><trkpt lat="45.1560383" lon="8.0804767"><ele>207.8</ele><time>2026-04-18T14:02:33.365Z</time></trkpt><trkpt lat="45.1561167" lon="8.0803917"><ele>208.39999999999998</ele><time>2026-04-18T14:02:34.365Z</time></trkpt><trkpt lat="45.156195" lon="8.0803617"><ele>209.0</ele><time>2026-04-18T14:02:35.365Z</time></trkpt><trkpt lat="45.15626" lon="8.0803867"><ele>209.0</ele><time>2026-04-18T14:02:36.365Z</time></trkpt><trkpt lat="45.1563033" lon="8.0804533"><ele>209.0</ele><time>2026-04-18T14:02:37.364Z</time></trkpt><trkpt lat="45.1563083" lon="8.0805567"><ele>209.0</ele><time>2026-04-18T14:02:38.364Z</time></trkpt><trkpt lat="45.1562733" lon="8.08069"><ele>209.0</ele><time>2026-04-18T14:02:39.364Z</time></trkpt><trkpt lat="45.1562283" lon="8.08084"><ele>209.0</ele><time>2026-04-18T14:02:40.364Z</time></trkpt><trkpt lat="45.156185" lon="8.08099"><ele>211.75</ele><time>2026-04-18T14:02:41.365Z</time></trkpt><trkpt lat="45.1561383" lon="8.0811483"><ele>214.5</ele><time>2026-04-18T14:02:42.365Z</time></trkpt><trkpt lat="45.1561033" lon="8.0813167"><ele>217.25</ele><time>2026-04-18T14:02:43.365Z</time></trkpt><trkpt lat="45.1560667" lon="8.0814817"><ele>220.0</ele><time>2026-04-18T14:02:44.365Z</time></trkpt><trkpt lat="45.1560417" lon="8.08165"><ele>221.75</ele><time>2026-04-18T14:02:45.365Z</time></trkpt><trkpt lat="45.1560067" lon="8.0818233"><ele>223.5</ele><time>2026-04-18T14:02:46.364Z</time></trkpt><trkpt lat="45.1559817" lon="8.082"><ele>225.25</ele><time>2026-04-18T14:02:47.365Z</time></trkpt><trkpt lat="45.1559533" lon="8.0821767"><ele>227.0</ele><time>2026-04-18T14:02:48.363Z</time></trkpt><trkpt lat="45.1559017" lon="8.0823133"><ele>226.75</ele><time>2026-04-18T14:02:49.364Z</time></trkpt><trkpt lat="45.1558533" lon="8.0824583"><ele>226.5</ele><time>2026-04-18T14:02:50.363Z</time></trkpt><trkpt lat="45.155785" lon="8.0825967"><ele>226.25</ele><time>2026-04-18T14:02:51.364Z</time></trkpt><trkpt lat="45.1556967" lon="8.0827333"><ele>226.0</ele><time>2026-04-18T14:02:52.364Z</time></trkpt><trkpt lat="45.1556133" lon="8.0828633"><ele>226.0</ele><time>2026-04-18T14:02:53.364Z</time></trkpt><trkpt lat="45.15554" lon="8.0829967"><ele>226.00000000000003</ele><time>2026-04-18T14:02:54.364Z</time></trkpt><trkpt lat="45.155485" lon="8.0831217"><ele>226.00000000000003</ele><time>2026-04-18T14:02:55.363Z</time></trkpt><trkpt lat="45.1554433" lon="8.0832317"><ele>226.0</ele><time>2026-04-18T14:02:56.364Z</time></trkpt><trkpt lat="45.1554217" lon="8.0833433"><ele>226.0</ele><time>2026-04-18T14:02:57.364Z</time></trkpt><trkpt lat="45.155425" lon="8.08347"><ele>229.0</ele><time>2026-04-18T14:02:58.363Z</time></trkpt><trkpt lat="45.155455" lon="8.0835867"><ele>232.00000000000003</ele><time>2026-04-18T14:02:59.364Z</time></trkpt><trkpt lat="45.1555217" lon="8.08371"><ele>235.00000000000003</ele><time>2026-04-18T14:03:00.364Z</time></trkpt><trkpt lat="45.1555917" lon="8.0838183"><ele>238.0</ele><time>2026-04-18T14:03:01.364Z</time></trkpt><trkpt lat="45.1556667" lon="8.0839467"><ele>241.0</ele><time>2026-04-18T14:03:02.363Z</time></trkpt><trkpt lat="45.1557217" lon="8.08408"><ele>241.4</ele><time>2026-04-18T14:03:03.364Z</time></trkpt><trkpt lat="45.1557367" lon="8.0842283"><ele>241.8</ele><time>2026-04-18T14:03:04.363Z</time></trkpt><trkpt lat="45.1557233" lon="8.0843833"><ele>242.20000000000002</ele><time>2026-04-18T14:03:05.363Z</time></trkpt><trkpt lat="45.1556917" lon="8.084535"><ele>242.60000000000002</ele><time>2026-04-18T14:03:06.363Z</time></trkpt><trkpt lat="45.1556433" lon="8.0846867"><ele>243.0</ele><time>2026-04-18T14:03:07.364Z</time></trkpt><trkpt lat="45.1555883" lon="8.084855"><ele>245.5</ele><time>2026-04-18T14:03:08.364Z</time></trkpt><trkpt lat="45.15553" lon="8.0850367"><ele>248.0</ele><time>2026-04-18T14:03:09.364Z</time></trkpt><trkpt lat="45.15548" lon="8.085225"><ele>250.5</ele><time>2026-04-18T14:03:10.364Z</time></trkpt><trkpt lat="45.155425" lon="8.0854017"><ele>253.0</ele><time>2026-04-18T14:03:11.364Z</time></trkpt><trkpt lat="45.155375" lon="8.08558"><ele>253.0</ele><time>2026-04-18T14:03:12.364Z</time></trkpt><trkpt lat="45.155325" lon="8.0857483"><ele>253.0</ele><time>2026-04-18T14:03:13.363Z</time></trkpt><trkpt lat="45.1552883" lon="8.0859283"><ele>253.0</ele><time>2026-04-18T14:03:14.363Z</time></trkpt><trkpt lat="45.1552683" lon="8.0861217"><ele>253.0</ele><time>2026-04-18T14:03:15.364Z</time></trkpt><trkpt lat="45.1552583" lon="8.0863067"><ele>254.25</ele><time>2026-04-18T14:03:16.364Z</time></trkpt><trkpt lat="45.15526" lon="8.0865"><ele>255.5</ele><time>2026-04-18T14:03:17.364Z</time></trkpt><trkpt lat="45.1552583" lon="8.0866817"><ele>256.75</ele><time>2026-04-18T14:03:18.364Z</time></trkpt><trkpt lat="45.15526" lon="8.0868817"><ele>258.0</ele><time>2026-04-18T14:03:19.363Z</time></trkpt><trkpt lat="45.1552467" lon="8.0870817"><ele>258.0</ele><time>2026-04-18T14:03:20.363Z</time></trkpt><trkpt lat="45.1551967" lon="8.087255"><ele>258.0</ele><time>2026-04-18T14:03:21.364Z</time></trkpt><trkpt lat="45.1551133" lon="8.0874283"><ele>258.0</ele><time>2026-04-18T14:03:22.364Z</time></trkpt><trkpt lat="45.1550083" lon="8.0875717"><ele>258.0</ele><time>2026-04-18T14:03:23.363Z</time></trkpt><trkpt lat="45.154905" lon="8.0877067"><ele>261.0</ele><time>2026-04-18T14:03:24.364Z</time></trkpt><trkpt lat="45.1548317" lon="8.0878617"><ele>264.0</ele><time>2026-04-18T14:03:25.364Z</time></trkpt><trkpt lat="45.154795" lon="8.0880167"><ele>267.0</ele><time>2026-04-18T14:03:26.364Z</time></trkpt><trkpt lat="45.15479" lon="8.08819"><ele>270.0</ele><time>2026-04-18T14:03:27.364Z</time></trkpt><trkpt lat="45.1548267" lon="8.0883733"><ele>267.0</ele><time>2026-04-18T14:03:28.364Z</time></trkpt><trkpt lat="45.15489" lon="8.08855"><ele>264.0</ele><time>2026-04-18T14:03:29.364Z</time></trkpt><trkpt lat="45.1549833" lon="8.088725"><ele>261.0</ele><time>2026-04-18T14:03:30.364Z</time></trkpt><trkpt lat="45.1550867" lon="8.088895"><ele>261.0</ele><time>2026-04-18T14:03:31.364Z</time></trkpt><trkpt lat="45.15519" lon="8.0890867"><ele>261.0</ele><time>2026-04-18T14:03:32.364Z</time></trkpt><trkpt lat="45.1552783" lon="8.0892833"><ele>261.0</ele><time>2026-04-18T14:03:33.364Z</time></trkpt><trkpt lat="45.1553533" lon="8.0894683"><ele>263.6666666666667</ele><time>2026-04-18T14:03:34.364Z</time></trkpt><trkpt lat="45.1554467" lon="8.0896517"><ele>266.33333333333337</ele><time>2026-04-18T14:03:35.364Z</time></trkpt><trkpt lat="45.1555533" lon="8.0898183"><ele>269.0</ele><time>2026-04-18T14:03:36.364Z</time></trkpt><trkpt lat="45.15568" lon="8.089965"><ele>269.6666666666667</ele><time>2026-04-18T14:03:37.364Z</time></trkpt><trkpt lat="45.1558067" lon="8.0901067"><ele>270.3333333333333</ele><time>2026-04-18T14:03:38.364Z</time></trkpt><trkpt lat="45.1559267" lon="8.0902683"><ele>271.0</ele><time>2026-04-18T14:03:39.364Z</time></trkpt><trkpt lat="45.1560333" lon="8.0904533"><ele>271.0</ele><time>2026-04-18T14:03:40.364Z</time></trkpt><trkpt lat="45.156125" lon="8.0906383"><ele>271.0</ele><time>2026-04-18T14:03:41.364Z</time></trkpt><trkpt lat="45.1562267" lon="8.0908217"><ele>271.0</ele><time>2026-04-18T14:03:42.364Z</time></trkpt><trkpt lat="45.1563283" lon="8.0909983"><ele>269.66666666666663</ele><time>2026-04-18T14:03:43.364Z</time></trkpt><trkpt lat="45.1564217" lon="8.0911733"><ele>268.3333333333333</ele><time>2026-04-18T14:03:44.364Z</time></trkpt><trkpt lat="45.1565217" lon="8.0913467"><ele>267.0</ele><time>2026-04-18T14:03:45.364Z</time></trkpt><trkpt lat="45.1566167" lon="8.0915233"><ele>269.75</ele><time>2026-04-18T14:03:46.363Z</time></trkpt><trkpt lat="45.1566833" lon="8.0917183"><ele>272.5</ele><time>2026-04-18T14:03:47.364Z</time></trkpt><trkpt lat="45.1567367" lon="8.0919033"><ele>275.25</ele><time>2026-04-18T14:03:48.364Z</time></trkpt><trkpt lat="45.1567967" lon="8.0920967"><ele>278.0</ele><time>2026-04-18T14:03:49.364Z</time></trkpt><trkpt lat="45.1568667" lon="8.0922717"><ele>280.5</ele><time>2026-04-18T14:03:50.364Z</time></trkpt><trkpt lat="45.1569483" lon="8.0924533"><ele>283.0</ele><time>2026-04-18T14:03:51.364Z</time></trkpt><trkpt lat="45.1570417" lon="8.09261"><ele>285.5</ele><time>2026-04-18T14:03:52.363Z</time></trkpt><trkpt lat="45.1571217" lon="8.0927483"><ele>288.0</ele><time>2026-04-18T14:03:53.364Z</time></trkpt><trkpt lat="45.1571783" lon="8.0928917"><ele>288.0</ele><time>2026-04-18T14:03:54.364Z</time></trkpt><trkpt lat="45.157225" lon="8.0930183"><ele>288.0</ele><time>2026-04-18T14:03:55.364Z</time></trkpt><trkpt lat="45.1572533" lon="8.0931367"><ele>288.0</ele><time>2026-04-18T14:03:56.363Z</time></trkpt><trkpt lat="45.1572467" lon="8.0932417"><ele>288.0</ele><time>2026-04-18T14:03:57.364Z</time></trkpt><trkpt lat="45.1572067" lon="8.093355"><ele>288.0</ele><time>2026-04-18T14:03:59.364Z</time></trkpt><trkpt lat="45.157145" lon="8.093375"><ele>288.0</ele><time>2026-04-18T14:04:00.363Z</time></trkpt><trkpt lat="45.1570767" lon="8.0933933"><ele>288.2</ele><time>2026-04-18T14:04:01.364Z</time></trkpt><trkpt lat="45.1569867" lon="8.093415"><ele>288.4</ele><time>2026-04-18T14:04:02.364Z</time></trkpt><trkpt lat="45.15688" lon="8.0934133"><ele>288.59999999999997</ele><time>2026-04-18T14:04:03.364Z</time></trkpt><trkpt lat="45.15677" lon="8.093415"><ele>288.8</ele><time>2026-04-18T14:04:04.364Z</time></trkpt><trkpt lat="45.1566533" lon="8.0934283"><ele>289.0</ele><time>2026-04-18T14:04:05.363Z</time></trkpt><trkpt lat="45.15654" lon="8.0934433"><ele>290.0</ele><time>2026-04-18T14:04:06.364Z</time></trkpt><trkpt lat="45.1564267" lon="8.09346"><ele>291.0</ele><time>2026-04-18T14:04:07.364Z</time></trkpt><trkpt lat="45.15631" lon="8.0934667"><ele>292.0</ele><time>2026-04-18T14:04:08.364Z</time></trkpt><trkpt lat="45.156195" lon="8.0934833"><ele>293.0</ele><time>2026-04-18T14:04:09.363Z</time></trkpt><trkpt lat="45.15607" lon="8.0935017"><ele>293.0</ele><time>2026-04-18T14:04:10.363Z</time></trkpt><trkpt lat="45.1559433" lon="8.0935167"><ele>293.0</ele><time>2026-04-18T14:04:11.364Z</time></trkpt><trkpt lat="45.1558183" lon="8.0935383"><ele>293.0</ele><time>2026-04-18T14:04:12.364Z</time></trkpt><trkpt lat="45.1557017" lon="8.0935683"><ele>293.0</ele><time>2026-04-18T14:04:13.364Z</time></trkpt><trkpt lat="45.1556017" lon="8.09359"><ele>293.6666666666667</ele><time>2026-04-18T14:04:14.364Z</time></trkpt><trkpt lat="45.1555" lon="8.0936"><ele>294.33333333333337</ele><time>2026-04-18T14:04:15.364Z</time></trkpt><trkpt lat="45.155405" lon="8.093615"><ele>295.0</ele><time>2026-04-18T14:04:16.364Z</time></trkpt><trkpt lat="45.15532" lon="8.093645"><ele>295.6666666666667</ele><time>2026-04-18T14:04:17.364Z</time></trkpt><trkpt lat="45.15524" lon="8.09368"><ele>296.3333333333333</ele><time>2026-04-18T14:04:18.364Z</time></trkpt><trkpt lat="45.15517" lon="8.0937"><ele>297.0</ele><time>2026-04-18T14:04:19.364Z</time></trkpt><trkpt lat="45.1550767" lon="8.0938133"><ele>297.0</ele><time>2026-04-18T14:04:21.364Z</time></trkpt><trkpt lat="45.1550283" lon="8.0939117"><ele>297.0</ele><time>2026-04-18T14:04:22.364Z</time></trkpt><trkpt lat="45.15501" lon="8.09404"><ele>297.0</ele><time>2026-04-18T14:04:23.364Z</time></trkpt><trkpt lat="45.1549817" lon="8.0941867"><ele>297.0</ele><time>2026-04-18T14:04:24.363Z</time></trkpt><trkpt lat="45.1549517" lon="8.0943567"><ele>297.0</ele><time>2026-04-18T14:04:25.364Z</time></trkpt><trkpt lat="45.1549183" lon="8.09455"><ele>296.0</ele><time>2026-04-18T14:04:26.364Z</time></trkpt><trkpt lat="45.154875" lon="8.0947417"><ele>295.0</ele><time>2026-04-18T14:04:27.364Z</time></trkpt><trkpt lat="45.154835" lon="8.094925"><ele>294.0</ele><time>2026-04-18T14:04:28.364Z</time></trkpt><trkpt lat="45.15477" lon="8.0951167"><ele>293.0</ele><time>2026-04-18T14:04:29.363Z</time></trkpt><trkpt lat="45.1547217" lon="8.0953183"><ele>293.0</ele><time>2026-04-18T14:04:30.364Z</time></trkpt><trkpt lat="45.1546633" lon="8.0955217"><ele>293.0</ele><time>2026-04-18T14:04:31.363Z</time></trkpt><trkpt lat="45.1546067" lon="8.0957367"><ele>293.0</ele><time>2026-04-18T14:04:32.364Z</time></trkpt><trkpt lat="45.1545567" lon="8.095955"><ele>291.0</ele><time>2026-04-18T14:04:33.364Z</time></trkpt><trkpt lat="45.15452" lon="8.0961833"><ele>289.0</ele><time>2026-04-18T14:04:34.364Z</time></trkpt><trkpt lat="45.154505" lon="8.0964083"><ele>287.0</ele><time>2026-04-18T14:04:35.364Z</time></trkpt><trkpt lat="45.15449" lon="8.0966283"><ele>286.5</ele><time>2026-04-18T14:04:36.363Z</time></trkpt><trkpt lat="45.15448" lon="8.0968167"><ele>286.0</ele><time>2026-04-18T14:04:37.364Z</time></trkpt><trkpt lat="45.1544567" lon="8.0969967"><ele>285.5</ele><time>2026-04-18T14:04:38.363Z</time></trkpt><trkpt lat="45.15441" lon="8.0971717"><ele>285.0</ele><time>2026-04-18T14:04:39.364Z</time></trkpt><trkpt lat="45.154345" lon="8.0973433"><ele>284.5</ele><time>2026-04-18T14:04:40.364Z</time></trkpt><trkpt lat="45.1542767" lon="8.0975"><ele>284.0</ele><time>2026-04-18T14:04:41.364Z</time></trkpt><trkpt lat="45.1541983" lon="8.0976783"><ele>283.5</ele><time>2026-04-18T14:04:42.363Z</time></trkpt><trkpt lat="45.1541017" lon="8.0978667"><ele>283.0</ele><time>2026-04-18T14:04:43.364Z</time></trkpt><trkpt lat="45.154015" lon="8.0980633"><ele>283.66666666666663</ele><time>2026-04-18T14:04:44.364Z</time></trkpt><trkpt lat="45.1539233" lon="8.098265"><ele>284.3333333333333</ele><time>2026-04-18T14:04:45.364Z</time></trkpt><trkpt lat="45.1538333" lon="8.0984583"><ele>285.0</ele><time>2026-04-18T14:04:46.364Z</time></trkpt><trkpt lat="45.1537417" lon="8.098645"><ele>285.0</ele><time>2026-04-18T14:04:47.364Z</time></trkpt><trkpt lat="45.1536517" lon="8.0988367"><ele>285.0</ele><time>2026-04-18T14:04:48.363Z</time></trkpt><trkpt lat="45.15356" lon="8.0990333"><ele>285.0</ele><time>2026-04-18T14:04:49.364Z</time></trkpt><trkpt lat="45.1534767" lon="8.099225"><ele>283.6666666666667</ele><time>2026-04-18T14:04:50.363Z</time></trkpt><trkpt lat="45.1533783" lon="8.0994117"><ele>282.33333333333337</ele><time>2026-04-18T14:04:51.364Z</time></trkpt><trkpt lat="45.153295" lon="8.0995917"><ele>281.0</ele><time>2026-04-18T14:04:52.364Z</time></trkpt><trkpt lat="45.1532217" lon="8.0997683"><ele>278.75</ele><time>2026-04-18T14:04:53.364Z</time></trkpt><trkpt lat="45.153155" lon="8.099955"><ele>276.5</ele><time>2026-04-18T14:04:54.363Z</time></trkpt><trkpt lat="45.153135" lon="8.1001483"><ele>274.25</ele><time>2026-04-18T14:04:55.363Z</time></trkpt><trkpt lat="45.1531417" lon="8.100365"><ele>272.0</ele><time>2026-04-18T14:04:56.364Z</time></trkpt><trkpt lat="45.1531683" lon="8.10056"><ele>270.0</ele><time>2026-04-18T14:04:57.363Z</time></trkpt><trkpt lat="45.1531883" lon="8.100755"><ele>268.0</ele><time>2026-04-18T14:04:58.364Z</time></trkpt><trkpt lat="45.1531683" lon="8.100925"><ele>266.0</ele><time>2026-04-18T14:04:59.364Z</time></trkpt><trkpt lat="45.1531167" lon="8.1010783"><ele>264.0</ele><time>2026-04-18T14:05:00.364Z</time></trkpt><trkpt lat="45.15306" lon="8.1012433"><ele>264.0</ele><time>2026-04-18T14:05:01.364Z</time></trkpt><trkpt lat="45.1530283" lon="8.1014417"><ele>264.0</ele><time>2026-04-18T14:05:02.364Z</time></trkpt><trkpt lat="45.1530217" lon="8.1016667"><ele>264.0</ele><time>2026-04-18T14:05:03.364Z</time></trkpt><trkpt lat="45.153015" lon="8.1018833"><ele>261.6666666666667</ele><time>2026-04-18T14:05:04.364Z</time></trkpt><trkpt lat="45.153015" lon="8.102105"><ele>259.33333333333337</ele><time>2026-04-18T14:05:05.363Z</time></trkpt><trkpt lat="45.1530217" lon="8.1023167"><ele>257.0</ele><time>2026-04-18T14:05:06.364Z</time></trkpt><trkpt lat="45.153075" lon="8.102515"><ele>257.5</ele><time>2026-04-18T14:05:07.363Z</time></trkpt><trkpt lat="45.1531467" lon="8.102705"><ele>258.0</ele><time>2026-04-18T14:05:08.363Z</time></trkpt><trkpt lat="45.1532233" lon="8.1028983"><ele>258.5</ele><time>2026-04-18T14:05:09.363Z</time></trkpt><trkpt lat="45.1533" lon="8.103065"><ele>259.0</ele><time>2026-04-18T14:05:10.364Z</time></trkpt><trkpt lat="45.1533833" lon="8.1032067"><ele>258.66666666666663</ele><time>2026-04-18T14:05:11.364Z</time></trkpt><trkpt lat="45.1534267" lon="8.10333"><ele>258.3333333333333</ele><time>2026-04-18T14:05:12.364Z</time></trkpt><trkpt lat="45.1534283" lon="8.1034433"><ele>258.0</ele><time>2026-04-18T14:05:13.364Z</time></trkpt><trkpt lat="45.1533317" lon="8.103555"><ele>257.6666666666667</ele><time>2026-04-18T14:05:15.364Z</time></trkpt><trkpt lat="45.1532683" lon="8.1035717"><ele>257.33333333333337</ele><time>2026-04-18T14:05:16.364Z</time></trkpt><trkpt lat="45.1531933" lon="8.1035483"><ele>257.0</ele><time>2026-04-18T14:05:17.364Z</time></trkpt><trkpt lat="45.1530917" lon="8.103465"><ele>255.33333333333334</ele><time>2026-04-18T14:05:18.364Z</time></trkpt><trkpt lat="45.1529667" lon="8.1033217"><ele>253.66666666666669</ele><time>2026-04-18T14:05:19.364Z</time></trkpt><trkpt lat="45.1528383" lon="8.1031567"><ele>252.0</ele><time>2026-04-18T14:05:20.364Z</time></trkpt><trkpt lat="45.152745" lon="8.10302"><ele>252.0</ele><time>2026-04-18T14:05:21.363Z</time></trkpt><trkpt lat="45.152665" lon="8.10293"><ele>252.0</ele><time>2026-04-18T14:05:22.364Z</time></trkpt><trkpt lat="45.1525967" lon="8.1028967"><ele>252.0</ele><time>2026-04-18T14:05:23.364Z</time></trkpt><trkpt lat="45.15251" lon="8.10296"><ele>252.0</ele><time>2026-04-18T14:05:25.364Z</time></trkpt><trkpt lat="45.152495" lon="8.103065"><ele>252.0</ele><time>2026-04-18T14:05:26.364Z</time></trkpt><trkpt lat="45.1525267" lon="8.103205"><ele>249.0</ele><time>2026-04-18T14:05:27.363Z</time></trkpt><trkpt lat="45.152585" lon="8.1033883"><ele>246.0</ele><time>2026-04-18T14:05:28.363Z</time></trkpt><trkpt lat="45.152665" lon="8.1035833"><ele>243.0</ele><time>2026-04-18T14:05:29.364Z</time></trkpt><trkpt lat="45.1527517" lon="8.1037883"><ele>243.0</ele><time>2026-04-18T14:05:30.364Z</time></trkpt><trkpt lat="45.1528267" lon="8.1039883"><ele>243.0</ele><time>2026-04-18T14:05:31.364Z</time></trkpt><trkpt lat="45.1528983" lon="8.1041983"><ele>243.0</ele><time>2026-04-18T14:05:32.364Z</time></trkpt><trkpt lat="45.1529583" lon="8.10439"><ele>240.75</ele><time>2026-04-18T14:05:33.364Z</time></trkpt><trkpt lat="45.1530217" lon="8.1045817"><ele>238.5</ele><time>2026-04-18T14:05:34.363Z</time></trkpt><trkpt lat="45.1530783" lon="8.1047533"><ele>236.25</ele><time>2026-04-18T14:05:35.364Z</time></trkpt><trkpt lat="45.1531417" lon="8.104925"><ele>234.0</ele><time>2026-04-18T14:05:36.363Z</time></trkpt><trkpt lat="45.1532067" lon="8.1050883"><ele>234.0</ele><time>2026-04-18T14:05:37.364Z</time></trkpt><trkpt lat="45.1532817" lon="8.10523"><ele>234.0</ele><time>2026-04-18T14:05:38.364Z</time></trkpt><trkpt lat="45.1533883" lon="8.1053383"><ele>234.0</ele><time>2026-04-18T14:05:39.364Z</time></trkpt><trkpt lat="45.1535117" lon="8.1054217"><ele>234.0</ele><time>2026-04-18T14:05:40.364Z</time></trkpt><trkpt lat="45.1536367" lon="8.1054983"><ele>234.0</ele><time>2026-04-18T14:05:41.363Z</time></trkpt><trkpt lat="45.15374" lon="8.1056083"><ele>234.0</ele><time>2026-04-18T14:05:42.364Z</time></trkpt><trkpt lat="45.153815" lon="8.1057867"><ele>234.0</ele><time>2026-04-18T14:05:43.364Z</time></trkpt><trkpt lat="45.1538583" lon="8.1059833"><ele>234.0</ele><time>2026-04-18T14:05:44.364Z</time></trkpt><trkpt lat="45.1538817" lon="8.10619"><ele>232.0</ele><time>2026-04-18T14:05:45.363Z</time></trkpt><trkpt lat="45.1538933" lon="8.106415"><ele>230.0</ele><time>2026-04-18T14:05:46.364Z</time></trkpt><trkpt lat="45.1539117" lon="8.1066117"><ele>228.0</ele><time>2026-04-18T14:05:47.364Z</time></trkpt><trkpt lat="45.1539283" lon="8.1068"><ele>226.0</ele><time>2026-04-18T14:05:48.363Z</time></trkpt><trkpt lat="45.153945" lon="8.1069667"><ele>225.5</ele><time>2026-04-18T14:05:49.364Z</time></trkpt><trkpt lat="45.153975" lon="8.10715"><ele>225.0</ele><time>2026-04-18T14:05:50.364Z</time></trkpt><trkpt lat="45.1540333" lon="8.1073033"><ele>224.5</ele><time>2026-04-18T14:05:51.364Z</time></trkpt><trkpt lat="45.15411" lon="8.1074483"><ele>224.0</ele><time>2026-04-18T14:05:52.364Z</time></trkpt><trkpt lat="45.1541833" lon="8.10759"><ele>224.0</ele><time>2026-04-18T14:05:53.364Z</time></trkpt><trkpt lat="45.15426" lon="8.107725"><ele>223.99999999999997</ele><time>2026-04-18T14:05:54.363Z</time></trkpt><trkpt lat="45.1543483" lon="8.1078367"><ele>223.99999999999997</ele><time>2026-04-18T14:05:55.363Z</time></trkpt><trkpt lat="45.1544283" lon="8.1079083"><ele>224.0</ele><time>2026-04-18T14:05:56.364Z</time></trkpt><trkpt lat="45.1545267" lon="8.10793"><ele>224.0</ele><time>2026-04-18T14:05:57.364Z</time></trkpt><trkpt lat="45.1546367" lon="8.1078933"><ele>224.0</ele><time>2026-04-18T14:05:58.364Z</time></trkpt><trkpt lat="45.1547683" lon="8.1078183"><ele>224.0</ele><time>2026-04-18T14:05:59.364Z</time></trkpt><trkpt lat="45.15491" lon="8.1077333"><ele>224.0</ele><time>2026-04-18T14:06:00.364Z</time></trkpt><trkpt lat="45.1550417" lon="8.1076617"><ele>224.0</ele><time>2026-04-18T14:06:01.364Z</time></trkpt><trkpt lat="45.15515" lon="8.1075917"><ele>224.39999999999998</ele><time>2026-04-18T14:06:02.363Z</time></trkpt><trkpt lat="45.1552633" lon="8.1075217"><ele>224.79999999999998</ele><time>2026-04-18T14:06:03.363Z</time></trkpt><trkpt lat="45.1553583" lon="8.1074517"><ele>225.20000000000002</ele><time>2026-04-18T14:06:04.364Z</time></trkpt><trkpt lat="45.1554367" lon="8.1074133"><ele>225.60000000000002</ele><time>2026-04-18T14:06:05.364Z</time></trkpt><trkpt lat="45.15552" lon="8.107435"><ele>226.0</ele><time>2026-04-18T14:06:06.364Z</time></trkpt><trkpt lat="45.155585" lon="8.10749"><ele>226.0</ele><time>2026-04-18T14:06:07.364Z</time></trkpt><trkpt lat="45.1556" lon="8.1075817"><ele>226.00000000000003</ele><time>2026-04-18T14:06:08.364Z</time></trkpt><trkpt lat="45.1555733" lon="8.1077083"><ele>226.00000000000003</ele><time>2026-04-18T14:06:09.364Z</time></trkpt><trkpt lat="45.1555083" lon="8.1078467"><ele>226.0</ele><time>2026-04-18T14:06:10.364Z</time></trkpt><trkpt lat="45.1554167" lon="8.1079867"><ele>226.0</ele><time>2026-04-18T14:06:11.364Z</time></trkpt><trkpt lat="45.1552983" lon="8.10814"><ele>221.0</ele><time>2026-04-18T14:06:12.364Z</time></trkpt><trkpt lat="45.155175" lon="8.1082867"><ele>216.0</ele><time>2026-04-18T14:06:13.363Z</time></trkpt><trkpt lat="45.1550683" lon="8.10842"><ele>211.0</ele><time>2026-04-18T14:06:14.364Z</time></trkpt><trkpt lat="45.1549567" lon="8.1085233"><ele>206.0</ele><time>2026-04-18T14:06:15.364Z</time></trkpt><trkpt lat="45.1548383" lon="8.1085883"><ele>205.5</ele><time>2026-04-18T14:06:16.364Z</time></trkpt><trkpt lat="45.1547117" lon="8.1086067"><ele>205.0</ele><time>2026-04-18T14:06:17.364Z</time></trkpt><trkpt lat="45.15457" lon="8.1085967"><ele>204.5</ele><time>2026-04-18T14:06:18.364Z</time></trkpt><trkpt lat="45.1544333" lon="8.1085867"><ele>204.0</ele><time>2026-04-18T14:06:19.364Z</time></trkpt><trkpt lat="45.1542983" lon="8.1085733"><ele>204.0</ele><time>2026-04-18T14:06:20.364Z</time></trkpt><trkpt lat="45.1541633" lon="8.1085533"><ele>204.0</ele><time>2026-04-18T14:06:21.364Z</time></trkpt><trkpt lat="45.15403" lon="8.1085417"><ele>204.0</ele><time>2026-04-18T14:06:22.363Z</time></trkpt><trkpt lat="45.153925" lon="8.108525"><ele>204.0</ele><time>2026-04-18T14:06:23.364Z</time></trkpt><trkpt lat="45.1538083" lon="8.1085467"><ele>201.25</ele><time>2026-04-18T14:06:24.364Z</time></trkpt><trkpt lat="45.1537017" lon="8.1086"><ele>198.5</ele><time>2026-04-18T14:06:25.364Z</time></trkpt><trkpt lat="45.1536117" lon="8.1087133"><ele>195.75</ele><time>2026-04-18T14:06:26.364Z</time></trkpt><trkpt lat="45.153555" lon="8.10886"><ele>193.0</ele><time>2026-04-18T14:06:27.364Z</time></trkpt><trkpt lat="45.15352" lon="8.10901"><ele>193.25</ele><time>2026-04-18T14:06:28.363Z</time></trkpt><trkpt lat="45.1535" lon="8.1091567"><ele>193.5</ele><time>2026-04-18T14:06:29.363Z</time></trkpt><trkpt lat="45.1535133" lon="8.1093217"><ele>193.75</ele><time>2026-04-18T14:06:30.364Z</time></trkpt><trkpt lat="45.1535483" lon="8.10948"><ele>194.0</ele><time>2026-04-18T14:06:31.364Z</time></trkpt><trkpt lat="45.1536" lon="8.1096233"><ele>194.0</ele><time>2026-04-18T14:06:32.364Z</time></trkpt><trkpt lat="45.1536633" lon="8.1097817"><ele>194.0</ele><time>2026-04-18T14:06:33.364Z</time></trkpt><trkpt lat="45.153735" lon="8.1099317"><ele>194.0</ele><time>2026-04-18T14:06:34.363Z</time></trkpt><trkpt lat="45.1538067" lon="8.1100933"><ele>194.0</ele><time>2026-04-18T14:06:35.364Z</time></trkpt><trkpt lat="45.1538733" lon="8.11025"><ele>194.25</ele><time>2026-04-18T14:06:36.364Z</time></trkpt><trkpt lat="45.1539567" lon="8.1103917"><ele>194.5</ele><time>2026-04-18T14:06:37.364Z</time></trkpt><trkpt lat="45.1540483" lon="8.1105417"><ele>194.75</ele><time>2026-04-18T14:06:38.364Z</time></trkpt><trkpt lat="45.1541183" lon="8.1106933"><ele>195.0</ele><time>2026-04-18T14:06:39.363Z</time></trkpt><trkpt lat="45.154155" lon="8.1108667"><ele>196.0</ele><time>2026-04-18T14:06:40.364Z</time></trkpt><trkpt lat="45.1541633" lon="8.1110767"><ele>197.0</ele><time>2026-04-18T14:06:41.363Z</time></trkpt><trkpt lat="45.1541483" lon="8.11129"><ele>198.0</ele><time>2026-04-18T14:06:42.364Z</time></trkpt><trkpt lat="45.1541333" lon="8.111495"><ele>199.0</ele><time>2026-04-18T14:06:43.364Z</time></trkpt><trkpt lat="45.1541383" lon="8.1117017"><ele>200.75</ele><time>2026-04-18T14:06:44.363Z</time></trkpt><trkpt lat="45.1541717" lon="8.1119"><ele>202.5</ele><time>2026-04-18T14:06:45.364Z</time></trkpt><trkpt lat="45.1542333" lon="8.112075"><ele>204.25</ele><time>2026-04-18T14:06:46.364Z</time></trkpt><trkpt lat="45.1543233" lon="8.1122233"><ele>206.0</ele><time>2026-04-18T14:06:47.364Z</time></trkpt><trkpt lat="45.1544317" lon="8.11235"><ele>207.25</ele><time>2026-04-18T14:06:48.364Z</time></trkpt><trkpt lat="45.1545683" lon="8.1124367"><ele>208.5</ele><time>2026-04-18T14:06:49.363Z</time></trkpt><trkpt lat="45.1546983" lon="8.1125017"><ele>209.75</ele><time>2026-04-18T14:06:50.363Z</time></trkpt><trkpt lat="45.1548383" lon="8.112565"><ele>211.0</ele><time>2026-04-18T14:06:51.363Z</time></trkpt><trkpt lat="45.15497" lon="8.1126533"><ele>211.0</ele><time>2026-04-18T14:06:52.364Z</time></trkpt><trkpt lat="45.1551167" lon="8.1127133"><ele>211.0</ele><time>2026-04-18T14:06:53.364Z</time></trkpt><trkpt lat="45.1552667" lon="8.11274"><ele>211.0</ele><time>2026-04-18T14:06:54.363Z</time></trkpt><trkpt lat="45.1554167" lon="8.1127517"><ele>211.0</ele><time>2026-04-18T14:06:55.364Z</time></trkpt><trkpt lat="45.1555683" lon="8.1127983"><ele>211.0</ele><time>2026-04-18T14:06:56.364Z</time></trkpt><trkpt lat="45.1557133" lon="8.1128533"><ele>211.0</ele><time>2026-04-18T14:06:57.363Z</time></trkpt><trkpt lat="45.1558483" lon="8.1128817"><ele>211.0</ele><time>2026-04-18T14:06:58.363Z</time></trkpt><trkpt lat="45.155975" lon="8.1129067"><ele>210.20000000000002</ele><time>2026-04-18T14:06:59.364Z</time></trkpt><trkpt lat="45.1560783" lon="8.1129383"><ele>209.4</ele><time>2026-04-18T14:07:00.364Z</time></trkpt><trkpt lat="45.1561583" lon="8.1129867"><ele>208.6</ele><time>2026-04-18T14:07:01.364Z</time></trkpt><trkpt lat="45.1562117" lon="8.1131133"><ele>207.8</ele><time>2026-04-18T14:07:03.364Z</time></trkpt><trkpt lat="45.1560883" lon="8.1131933"><ele>207.0</ele><time>2026-04-18T14:07:05.364Z</time></trkpt><trkpt lat="45.1559683" lon="8.1131967"><ele>207.0</ele><time>2026-04-18T14:07:06.363Z</time></trkpt><trkpt lat="45.1558367" lon="8.1132067"><ele>207.0</ele><time>2026-04-18T14:07:07.364Z</time></trkpt><trkpt lat="45.1557117" lon="8.1132267"><ele>207.0</ele><time>2026-04-18T14:07:08.364Z</time></trkpt><trkpt lat="45.1555883" lon="8.1132533"><ele>207.0</ele><time>2026-04-18T14:07:09.364Z</time></trkpt><trkpt lat="45.1554583" lon="8.11328"><ele>211.5</ele><time>2026-04-18T14:07:10.363Z</time></trkpt><trkpt lat="45.1553333" lon="8.113305"><ele>216.0</ele><time>2026-04-18T14:07:11.364Z</time></trkpt><trkpt lat="45.1552067" lon="8.11333"><ele>220.5</ele><time>2026-04-18T14:07:12.364Z</time></trkpt><trkpt lat="45.15508" lon="8.1133667"><ele>225.0</ele><time>2026-04-18T14:07:13.364Z</time></trkpt><trkpt lat="45.1549517" lon="8.1133933"><ele>225.75</ele><time>2026-04-18T14:07:14.364Z</time></trkpt><trkpt lat="45.154825" lon="8.1134383"><ele>226.5</ele><time>2026-04-18T14:07:15.364Z</time></trkpt><trkpt lat="45.1547083" lon="8.1135233"><ele>227.25</ele><time>2026-04-18T14:07:16.364Z</time></trkpt><trkpt lat="45.154595" lon="8.1136333"><ele>228.0</ele><time>2026-04-18T14:07:17.364Z</time></trkpt><trkpt lat="45.154485" lon="8.1137417"><ele>228.0</ele><time>2026-04-18T14:07:18.363Z</time></trkpt><trkpt lat="45.1543633" lon="8.1138317"><ele>228.0</ele><time>2026-04-18T14:07:19.364Z</time></trkpt><trkpt lat="45.1542317" lon="8.1138717"><ele>228.0</ele><time>2026-04-18T14:07:20.364Z</time></trkpt><trkpt lat="45.1541067" lon="8.1138883"><ele>228.0</ele><time>2026-04-18T14:07:21.364Z</time></trkpt><trkpt lat="45.1539917" lon="8.113915"><ele>231.5</ele><time>2026-04-18T14:07:22.363Z</time></trkpt><trkpt lat="45.1538867" lon="8.11394"><ele>235.0</ele><time>2026-04-18T14:07:23.364Z</time></trkpt><trkpt lat="45.1537867" lon="8.1140033"><ele>238.5</ele><time>2026-04-18T14:07:24.364Z</time></trkpt><trkpt lat="45.15369" lon="8.114105"><ele>242.0</ele><time>2026-04-18T14:07:25.364Z</time></trkpt><trkpt lat="45.1536167" lon="8.1142533"><ele>242.25</ele><time>2026-04-18T14:07:26.364Z</time></trkpt><trkpt lat="45.15357" lon="8.114425"><ele>242.5</ele><time>2026-04-18T14:07:27.364Z</time></trkpt><trkpt lat="45.1535433" lon="8.1146017"><ele>242.75</ele><time>2026-04-18T14:07:28.364Z</time></trkpt><trkpt lat="45.1535317" lon="8.11477"><ele>243.0</ele><time>2026-04-18T14:07:29.364Z</time></trkpt><trkpt lat="45.1535383" lon="8.1149233"><ele>242.0</ele><time>2026-04-18T14:07:30.364Z</time></trkpt><trkpt lat="45.1535983" lon="8.1150767"><ele>241.0</ele><time>2026-04-18T14:07:31.364Z</time></trkpt><trkpt lat="45.15371" lon="8.1152033"><ele>240.0</ele><time>2026-04-18T14:07:32.364Z</time></trkpt><trkpt lat="45.1538567" lon="8.1152683"><ele>239.0</ele><time>2026-04-18T14:07:33.364Z</time></trkpt><trkpt lat="45.1540133" lon="8.11532"><ele>238.75</ele><time>2026-04-18T14:07:34.364Z</time></trkpt><trkpt lat="45.1541633" lon="8.1153783"><ele>238.5</ele><time>2026-04-18T14:07:35.364Z</time></trkpt><trkpt lat="45.1543" lon="8.1154767"><ele>238.25</ele><time>2026-04-18T14:07:36.364Z</time></trkpt><trkpt lat="45.1544033" lon="8.11561"><ele>238.0</ele><time>2026-04-18T14:07:37.364Z</time></trkpt><trkpt lat="45.1544883" lon="8.1157767"><ele>235.0</ele><time>2026-04-18T14:07:38.364Z</time></trkpt><trkpt lat="45.1545433" lon="8.1159683"><ele>232.0</ele><time>2026-04-18T14:07:39.364Z</time></trkpt><trkpt lat="45.154585" lon="8.116175"><ele>229.0</ele><time>2026-04-18T14:07:40.363Z</time></trkpt><trkpt lat="45.154625" lon="8.1163967"><ele>227.0</ele><time>2026-04-18T14:07:41.364Z</time></trkpt><trkpt lat="45.1546617" lon="8.1166333"><ele>225.0</ele><time>2026-04-18T14:07:42.364Z</time></trkpt><trkpt lat="45.1547083" lon="8.1168683"><ele>223.0</ele><time>2026-04-18T14:07:43.364Z</time></trkpt><trkpt lat="45.1547533" lon="8.1170883"><ele>223.0</ele><time>2026-04-18T14:07:44.364Z</time></trkpt><trkpt lat="45.1548017" lon="8.1173"><ele>223.0</ele><time>2026-04-18T14:07:45.364Z</time></trkpt><trkpt lat="45.1548433" lon="8.1175083"><ele>223.0</ele><time>2026-04-18T14:07:46.364Z</time></trkpt><trkpt lat="45.1548883" lon="8.1177267"><ele>223.66666666666666</ele><time>2026-04-18T14:07:47.363Z</time></trkpt><trkpt lat="45.1549283" lon="8.11794"><ele>224.33333333333331</ele><time>2026-04-18T14:07:48.364Z</time></trkpt><trkpt lat="45.15496" lon="8.1181583"><ele>225.0</ele><time>2026-04-18T14:07:49.364Z</time></trkpt><trkpt lat="45.1550033" lon="8.1183917"><ele>222.5</ele><time>2026-04-18T14:07:50.364Z</time></trkpt><trkpt lat="45.155025" lon="8.11861"><ele>220.0</ele><time>2026-04-18T14:07:51.363Z</time></trkpt><trkpt lat="45.1550517" lon="8.1188233"><ele>217.5</ele><time>2026-04-18T14:07:52.364Z</time></trkpt><trkpt lat="45.1550517" lon="8.11902"><ele>215.0</ele><time>2026-04-18T14:07:53.364Z</time></trkpt><trkpt lat="45.1550467" lon="8.1192133"><ele>213.8</ele><time>2026-04-18T14:07:54.364Z</time></trkpt><trkpt lat="45.1550217" lon="8.1193883"><ele>212.6</ele><time>2026-04-18T14:07:55.364Z</time></trkpt><trkpt lat="45.1549983" lon="8.119535"><ele>211.39999999999998</ele><time>2026-04-18T14:07:56.364Z</time></trkpt><trkpt lat="45.154995" lon="8.1196917"><ele>210.2</ele><time>2026-04-18T14:07:57.363Z</time></trkpt><trkpt lat="45.1550233" lon="8.1198333"><ele>209.0</ele><time>2026-04-18T14:07:58.364Z</time></trkpt><trkpt lat="45.155095" lon="8.1199783"><ele>208.5</ele><time>2026-04-18T14:07:59.364Z</time></trkpt><trkpt lat="45.15515" lon="8.12013"><ele>208.0</ele><time>2026-04-18T14:08:00.364Z</time></trkpt><trkpt lat="45.155175" lon="8.1202867"><ele>207.5</ele><time>2026-04-18T14:08:01.363Z</time></trkpt><trkpt lat="45.1551417" lon="8.120435"><ele>207.0</ele><time>2026-04-18T14:08:02.364Z</time></trkpt><trkpt lat="45.1550817" lon="8.12058"><ele>207.0</ele><time>2026-04-18T14:08:03.364Z</time></trkpt><trkpt lat="45.154995" lon="8.1207217"><ele>207.0</ele><time>2026-04-18T14:08:04.363Z</time></trkpt><trkpt lat="45.1549067" lon="8.1208767"><ele>207.0</ele><time>2026-04-18T14:08:05.364Z</time></trkpt><trkpt lat="45.1548" lon="8.1210483"><ele>207.0</ele><time>2026-04-18T14:08:06.364Z</time></trkpt><trkpt lat="45.154695" lon="8.121215"><ele>203.66666666666669</ele><time>2026-04-18T14:08:07.364Z</time></trkpt><trkpt lat="45.1545933" lon="8.121385"><ele>200.33333333333334</ele><time>2026-04-18T14:08:08.364Z</time></trkpt><trkpt lat="45.1544933" lon="8.1215583"><ele>197.0</ele><time>2026-04-18T14:08:09.363Z</time></trkpt><trkpt lat="45.1543783" lon="8.1217317"><ele>196.66666666666669</ele><time>2026-04-18T14:08:10.363Z</time></trkpt><trkpt lat="45.154275" lon="8.1219033"><ele>196.33333333333331</ele><time>2026-04-18T14:08:11.364Z</time></trkpt><trkpt lat="45.1541717" lon="8.12206"><ele>196.0</ele><time>2026-04-18T14:08:12.364Z</time></trkpt><trkpt lat="45.1540717" lon="8.1222267"><ele>196.33333333333331</ele><time>2026-04-18T14:08:13.364Z</time></trkpt><trkpt lat="45.15398" lon="8.122405"><ele>196.66666666666669</ele><time>2026-04-18T14:08:14.364Z</time></trkpt><trkpt lat="45.15389" lon="8.1225817"><ele>197.0</ele><time>2026-04-18T14:08:15.364Z</time></trkpt><trkpt lat="45.1537967" lon="8.1227467"><ele>197.0</ele><time>2026-04-18T14:08:16.364Z</time></trkpt><trkpt lat="45.153695" lon="8.122905"><ele>197.0</ele><time>2026-04-18T14:08:17.363Z</time></trkpt><trkpt lat="45.1536" lon="8.1230583"><ele>197.0</ele><time>2026-04-18T14:08:18.363Z</time></trkpt><trkpt lat="45.1535133" lon="8.1232333"><ele>197.0</ele><time>2026-04-18T14:08:19.363Z</time></trkpt><trkpt lat="45.1534333" lon="8.1234117"><ele>195.25</ele><time>2026-04-18T14:08:20.363Z</time></trkpt><trkpt lat="45.15338" lon="8.1236"><ele>193.5</ele><time>2026-04-18T14:08:21.364Z</time></trkpt><trkpt lat="45.153345" lon="8.1237933"><ele>191.75</ele><time>2026-04-18T14:08:22.364Z</time></trkpt><trkpt lat="45.1533333" lon="8.123985"><ele>190.0</ele><time>2026-04-18T14:08:23.364Z</time></trkpt><trkpt lat="45.15334" lon="8.1241733"><ele>190.0</ele><time>2026-04-18T14:08:24.364Z</time></trkpt><trkpt lat="45.15337" lon="8.1243733"><ele>190.0</ele><time>2026-04-18T14:08:25.364Z</time></trkpt><trkpt lat="45.1534083" lon="8.1245733"><ele>190.0</ele><time>2026-04-18T14:08:26.364Z</time></trkpt><trkpt lat="45.1534533" lon="8.1247717"><ele>190.0</ele><time>2026-04-18T14:08:27.364Z</time></trkpt><trkpt lat="45.1534883" lon="8.1249717"><ele>190.25</ele><time>2026-04-18T14:08:28.363Z</time></trkpt><trkpt lat="45.153515" lon="8.1251533"><ele>190.5</ele><time>2026-04-18T14:08:29.363Z</time></trkpt><trkpt lat="45.15353" lon="8.125335"><ele>190.75</ele><time>2026-04-18T14:08:30.364Z</time></trkpt><trkpt lat="45.1535267" lon="8.125505"><ele>191.0</ele><time>2026-04-18T14:08:31.364Z</time></trkpt><trkpt lat="45.1534867" lon="8.1256767"><ele>190.4</ele><time>2026-04-18T14:08:32.363Z</time></trkpt><trkpt lat="45.1534467" lon="8.1258317"><ele>189.8</ele><time>2026-04-18T14:08:33.364Z</time></trkpt><trkpt lat="45.1534333" lon="8.1259767"><ele>189.20000000000002</ele><time>2026-04-18T14:08:34.364Z</time></trkpt><trkpt lat="45.1534317" lon="8.1261267"><ele>188.60000000000002</ele><time>2026-04-18T14:08:35.364Z</time></trkpt><trkpt lat="45.153435" lon="8.12629"><ele>188.0</ele><time>2026-04-18T14:08:36.364Z</time></trkpt><trkpt lat="45.1534433" lon="8.1264717"><ele>187.0</ele><time>2026-04-18T14:08:37.364Z</time></trkpt><trkpt lat="45.1534417" lon="8.1266767"><ele>186.0</ele><time>2026-04-18T14:08:38.364Z</time></trkpt><trkpt lat="45.1534433" lon="8.1268867"><ele>185.0</ele><time>2026-04-18T14:08:39.364Z</time></trkpt><trkpt lat="45.1534467" lon="8.1270917"><ele>184.0</ele><time>2026-04-18T14:08:40.364Z</time></trkpt><trkpt lat="45.1534533" lon="8.12729"><ele>181.75</ele><time>2026-04-18T14:08:41.364Z</time></trkpt><trkpt lat="45.15346" lon="8.1274917"><ele>179.5</ele><time>2026-04-18T14:08:42.364Z</time></trkpt><trkpt lat="45.153465" lon="8.1276883"><ele>177.25</ele><time>2026-04-18T14:08:43.364Z</time></trkpt><trkpt lat="45.153465" lon="8.1278817"><ele>175.0</ele><time>2026-04-18T14:08:44.364Z</time></trkpt><trkpt lat="45.1534667" lon="8.1280733"><ele>173.5</ele><time>2026-04-18T14:08:45.364Z</time></trkpt><trkpt lat="45.153475" lon="8.1282617"><ele>172.0</ele><time>2026-04-18T14:08:46.364Z</time></trkpt><trkpt lat="45.153485" lon="8.12844"><ele>170.5</ele><time>2026-04-18T14:08:47.364Z</time></trkpt><trkpt lat="45.1534967" lon="8.1285933"><ele>169.0</ele><time>2026-04-18T14:08:48.364Z</time></trkpt><trkpt lat="45.1535167" lon="8.1287333"><ele>169.0</ele><time>2026-04-18T14:08:49.364Z</time></trkpt><trkpt lat="45.1535783" lon="8.1288517"><ele>169.0</ele><time>2026-04-18T14:08:50.364Z</time></trkpt><trkpt lat="45.1536567" lon="8.12896"><ele>169.0</ele><time>2026-04-18T14:08:51.363Z</time></trkpt><trkpt lat="45.1537483" lon="8.129065"><ele>169.0</ele><time>2026-04-18T14:08:52.364Z</time></trkpt><trkpt lat="45.1538567" lon="8.1291733"><ele>167.75</ele><time>2026-04-18T14:08:53.364Z</time></trkpt><trkpt lat="45.15397" lon="8.1292917"><ele>166.5</ele><time>2026-04-18T14:08:54.364Z</time></trkpt><trkpt lat="45.15408" lon="8.12942"><ele>165.25</ele><time>2026-04-18T14:08:55.364Z</time></trkpt><trkpt lat="45.1541933" lon="8.1295517"><ele>164.0</ele><time>2026-04-18T14:08:56.364Z</time></trkpt><trkpt lat="45.1543067" lon="8.1296717"><ele>164.0</ele><time>2026-04-18T14:08:57.364Z</time></trkpt><trkpt lat="45.1544217" lon="8.1297867"><ele>164.0</ele><time>2026-04-18T14:08:58.364Z</time></trkpt><trkpt lat="45.1545467" lon="8.129885"><ele>164.0</ele><time>2026-04-18T14:08:59.364Z</time></trkpt><trkpt lat="45.1546817" lon="8.1299683"><ele>164.0</ele><time>2026-04-18T14:09:00.363Z</time></trkpt><trkpt lat="45.1548333" lon="8.1300317"><ele>163.75</ele><time>2026-04-18T14:09:01.364Z</time></trkpt><trkpt lat="45.154965" lon="8.1300967"><ele>163.5</ele><time>2026-04-18T14:09:02.363Z</time></trkpt><trkpt lat="45.1551" lon="8.13017"><ele>163.25</ele><time>2026-04-18T14:09:03.364Z</time></trkpt><trkpt lat="45.15523" lon="8.1302617"><ele>163.0</ele><time>2026-04-18T14:09:04.364Z</time></trkpt><trkpt lat="45.1553617" lon="8.1303517"><ele>163.0</ele><time>2026-04-18T14:09:05.363Z</time></trkpt><trkpt lat="45.1555" lon="8.1304417"><ele>163.0</ele><time>2026-04-18T14:09:06.364Z</time></trkpt><trkpt lat="45.155635" lon="8.1305167"><ele>163.0</ele><time>2026-04-18T14:09:07.363Z</time></trkpt><trkpt lat="45.15578" lon="8.1305833"><ele>164.0</ele><time>2026-04-18T14:09:08.364Z</time></trkpt><trkpt lat="45.1559167" lon="8.130665"><ele>165.0</ele><time>2026-04-18T14:09:09.364Z</time></trkpt><trkpt lat="45.1560383" lon="8.1307483"><ele>166.0</ele><time>2026-04-18T14:09:10.364Z</time></trkpt><trkpt lat="45.156185" lon="8.1308017"><ele>167.0</ele><time>2026-04-18T14:09:11.363Z</time></trkpt><trkpt lat="45.1563317" lon="8.130855"><ele>165.66666666666666</ele><time>2026-04-18T14:09:12.363Z</time></trkpt><trkpt lat="45.156485" lon="8.1309083"><ele>164.33333333333334</ele><time>2026-04-18T14:09:13.364Z</time></trkpt><trkpt lat="45.15663" lon="8.1309583"><ele>163.0</ele><time>2026-04-18T14:09:14.364Z</time></trkpt><trkpt lat="45.1567733" lon="8.1309933"><ele>163.0</ele><time>2026-04-18T14:09:15.364Z</time></trkpt><trkpt lat="45.1569233" lon="8.1310183"><ele>163.0</ele><time>2026-04-18T14:09:16.364Z</time></trkpt><trkpt lat="45.1570767" lon="8.13104"><ele>163.0</ele><time>2026-04-18T14:09:17.364Z</time></trkpt><trkpt lat="45.1572317" lon="8.13108"><ele>162.0</ele><time>2026-04-18T14:09:18.364Z</time></trkpt><trkpt lat="45.1573783" lon="8.1311017"><ele>161.0</ele><time>2026-04-18T14:09:19.364Z</time></trkpt><trkpt lat="45.1575183" lon="8.1311117"><ele>160.0</ele><time>2026-04-18T14:09:20.363Z</time></trkpt><trkpt lat="45.15766" lon="8.1311467"><ele>159.0</ele><time>2026-04-18T14:09:21.364Z</time></trkpt><trkpt lat="45.1577983" lon="8.13118"><ele>159.0</ele><time>2026-04-18T14:09:22.364Z</time></trkpt><trkpt lat="45.157935" lon="8.13124"><ele>159.0</ele><time>2026-04-18T14:09:23.364Z</time></trkpt><trkpt lat="45.1580717" lon="8.1312917"><ele>159.0</ele><time>2026-04-18T14:09:24.364Z</time></trkpt><trkpt lat="45.1582067" lon="8.13135"><ele>159.0</ele><time>2026-04-18T14:09:25.364Z</time></trkpt><trkpt lat="45.15833" lon="8.13139"><ele>158.5</ele><time>2026-04-18T14:09:26.364Z</time></trkpt><trkpt lat="45.1584633" lon="8.1314067"><ele>158.0</ele><time>2026-04-18T14:09:27.364Z</time></trkpt><trkpt lat="45.1585833" lon="8.1314383"><ele>157.5</ele><time>2026-04-18T14:09:28.363Z</time></trkpt><trkpt lat="45.158715" lon="8.1314717"><ele>157.0</ele><time>2026-04-18T14:09:29.364Z</time></trkpt><trkpt lat="45.1588383" lon="8.1315483"><ele>156.0</ele><time>2026-04-18T14:09:30.363Z</time></trkpt><trkpt lat="45.15897" lon="8.1316317"><ele>155.0</ele><time>2026-04-18T14:09:31.363Z</time></trkpt><trkpt lat="45.15909" lon="8.131755"><ele>154.0</ele><time>2026-04-18T14:09:32.363Z</time></trkpt><trkpt lat="45.1592283" lon="8.1318717"><ele>154.0</ele><time>2026-04-18T14:09:33.364Z</time></trkpt><trkpt lat="45.15939" lon="8.1319883"><ele>154.0</ele><time>2026-04-18T14:09:34.364Z</time></trkpt><trkpt lat="45.15954" lon="8.13209"><ele>154.0</ele><time>2026-04-18T14:09:35.363Z</time></trkpt><trkpt lat="45.1596967" lon="8.1321667"><ele>154.0</ele><time>2026-04-18T14:09:36.364Z</time></trkpt><trkpt lat="45.1598483" lon="8.1322383"><ele>154.0</ele><time>2026-04-18T14:09:37.364Z</time></trkpt><trkpt lat="45.1600033" lon="8.1323217"><ele>154.0</ele><time>2026-04-18T14:09:38.363Z</time></trkpt><trkpt lat="45.1601533" lon="8.1323917"><ele>152.5</ele><time>2026-04-18T14:09:39.364Z</time></trkpt><trkpt lat="45.1603033" lon="8.1324667"><ele>151.0</ele><time>2026-04-18T14:09:40.364Z</time></trkpt><trkpt lat="45.16044" lon="8.1325483"><ele>149.5</ele><time>2026-04-18T14:09:41.363Z</time></trkpt><trkpt lat="45.1605733" lon="8.1326183"><ele>148.0</ele><time>2026-04-18T14:09:42.364Z</time></trkpt><trkpt lat="45.1607067" lon="8.13268"><ele>148.0</ele><time>2026-04-18T14:09:43.363Z</time></trkpt><trkpt lat="45.1608267" lon="8.13274"><ele>148.0</ele><time>2026-04-18T14:09:44.364Z</time></trkpt><trkpt lat="45.160935" lon="8.1328033"><ele>148.0</ele><time>2026-04-18T14:09:45.364Z</time></trkpt><trkpt lat="45.1610267" lon="8.1328917"><ele>148.0</ele><time>2026-04-18T14:09:46.364Z</time></trkpt><trkpt lat="45.16109" lon="8.1330183"><ele>148.0</ele><time>2026-04-18T14:09:47.364Z</time></trkpt><trkpt lat="45.161125" lon="8.1331633"><ele>148.0</ele><time>2026-04-18T14:09:48.364Z</time></trkpt><trkpt lat="45.1611517" lon="8.1333383"><ele>148.0</ele><time>2026-04-18T14:09:49.363Z</time></trkpt><trkpt lat="45.1611583" lon="8.1335267"><ele>148.0</ele><time>2026-04-18T14:09:50.364Z</time></trkpt><trkpt lat="45.1611517" lon="8.1337233"><ele>148.0</ele><time>2026-04-18T14:09:51.363Z</time></trkpt><trkpt lat="45.1611567" lon="8.1339283"><ele>148.0</ele><time>2026-04-18T14:09:52.364Z</time></trkpt><trkpt lat="45.1611633" lon="8.1341467"><ele>148.0</ele><time>2026-04-18T14:09:53.364Z</time></trkpt><trkpt lat="45.1611867" lon="8.1343833"><ele>148.0</ele><time>2026-04-18T14:09:54.364Z</time></trkpt><trkpt lat="45.16119" lon="8.1346217"><ele>148.0</ele><time>2026-04-18T14:09:55.364Z</time></trkpt><trkpt lat="45.1612" lon="8.1348617"><ele>148.0</ele><time>2026-04-18T14:09:56.364Z</time></trkpt><trkpt lat="45.1612067" lon="8.1350967"><ele>147.33333333333334</ele><time>2026-04-18T14:09:57.364Z</time></trkpt><trkpt lat="45.161225" lon="8.1353467"><ele>146.66666666666666</ele><time>2026-04-18T14:09:58.364Z</time></trkpt><trkpt lat="45.161235" lon="8.1355867"><ele>146.0</ele><time>2026-04-18T14:09:59.363Z</time></trkpt><trkpt lat="45.1612517" lon="8.1358267"><ele>145.66666666666666</ele><time>2026-04-18T14:10:00.364Z</time></trkpt><trkpt lat="45.16126" lon="8.1360567"><ele>145.33333333333334</ele><time>2026-04-18T14:10:01.364Z</time></trkpt><trkpt lat="45.1612667" lon="8.1362867"><ele>145.0</ele><time>2026-04-18T14:10:02.364Z</time></trkpt><trkpt lat="45.1612717" lon="8.1365167"><ele>145.33333333333334</ele><time>2026-04-18T14:10:03.364Z</time></trkpt><trkpt lat="45.161285" lon="8.136745"><ele>145.66666666666666</ele><time>2026-04-18T14:10:04.363Z</time></trkpt><trkpt lat="45.1612933" lon="8.1369717"><ele>146.0</ele><time>2026-04-18T14:10:05.364Z</time></trkpt><trkpt lat="45.1613117" lon="8.1372067"><ele>146.0</ele><time>2026-04-18T14:10:06.364Z</time></trkpt><trkpt lat="45.1613367" lon="8.1374317"><ele>146.0</ele><time>2026-04-18T14:10:07.364Z</time></trkpt><trkpt lat="45.1613567" lon="8.1376483"><ele>146.0</ele><time>2026-04-18T14:10:08.363Z</time></trkpt><trkpt lat="45.161375" lon="8.137885"><ele>146.0</ele><time>2026-04-18T14:10:09.364Z</time></trkpt><trkpt lat="45.161385" lon="8.1381167"><ele>146.0</ele><time>2026-04-18T14:10:10.364Z</time></trkpt><trkpt lat="45.161385" lon="8.1383433"><ele>146.0</ele><time>2026-04-18T14:10:11.364Z</time></trkpt><trkpt lat="45.1613817" lon="8.1385733"><ele>146.0</ele><time>2026-04-18T14:10:12.364Z</time></trkpt><trkpt lat="45.1613917" lon="8.1388"><ele>146.0</ele><time>2026-04-18T14:10:13.364Z</time></trkpt><trkpt lat="45.1614067" lon="8.1390267"><ele>146.0</ele><time>2026-04-18T14:10:14.364Z</time></trkpt><trkpt lat="45.1614217" lon="8.13926"><ele>146.0</ele><time>2026-04-18T14:10:15.363Z</time></trkpt><trkpt lat="45.16143" lon="8.139495"><ele>146.0</ele><time>2026-04-18T14:10:16.364Z</time></trkpt><trkpt lat="45.161445" lon="8.1397233"><ele>146.0</ele><time>2026-04-18T14:10:17.363Z</time></trkpt><trkpt lat="45.161455" lon="8.1399467"><ele>146.0</ele><time>2026-04-18T14:10:18.364Z</time></trkpt><trkpt lat="45.1614733" lon="8.14018"><ele>146.0</ele><time>2026-04-18T14:10:19.363Z</time></trkpt><trkpt lat="45.1614833" lon="8.1404133"><ele>146.0</ele><time>2026-04-18T14:10:20.364Z</time></trkpt><trkpt lat="45.1615017" lon="8.1406417"><ele>146.33333333333331</ele><time>2026-04-18T14:10:21.364Z</time></trkpt><trkpt lat="45.1615217" lon="8.1408617"><ele>146.66666666666666</ele><time>2026-04-18T14:10:22.364Z</time></trkpt><trkpt lat="45.16153" lon="8.14108"><ele>147.0</ele><time>2026-04-18T14:10:23.364Z</time></trkpt><trkpt lat="45.1615233" lon="8.1413017"><ele>146.66666666666666</ele><time>2026-04-18T14:10:24.363Z</time></trkpt><trkpt lat="45.16154" lon="8.1415267"><ele>146.33333333333331</ele><time>2026-04-18T14:10:25.364Z</time></trkpt><trkpt lat="45.1615617" lon="8.14175"><ele>146.0</ele><time>2026-04-18T14:10:26.364Z</time></trkpt><trkpt lat="45.1615633" lon="8.1419833"><ele>145.66666666666666</ele><time>2026-04-18T14:10:27.364Z</time></trkpt><trkpt lat="45.1615767" lon="8.142225"><ele>145.33333333333334</ele><time>2026-04-18T14:10:28.363Z</time></trkpt><trkpt lat="45.1615917" lon="8.1424583"><ele>145.0</ele><time>2026-04-18T14:10:29.364Z</time></trkpt><trkpt lat="45.1616167" lon="8.1426933"><ele>145.0</ele><time>2026-04-18T14:10:30.364Z</time></trkpt><trkpt lat="45.1616367" lon="8.142935"><ele>145.0</ele><time>2026-04-18T14:10:31.364Z</time></trkpt><trkpt lat="45.1616583" lon="8.1431583"><ele>145.0</ele><time>2026-04-18T14:10:32.363Z</time></trkpt><trkpt lat="45.1616917" lon="8.1433917"><ele>145.0</ele><time>2026-04-18T14:10:33.363Z</time></trkpt><trkpt lat="45.1617233" lon="8.143615"><ele>145.0</ele><time>2026-04-18T14:10:34.364Z</time></trkpt><trkpt lat="45.1617567" lon="8.1438383"><ele>145.0</ele><time>2026-04-18T14:10:35.364Z</time></trkpt><trkpt lat="45.16179" lon="8.14406"><ele>145.0</ele><time>2026-04-18T14:10:36.363Z</time></trkpt><trkpt lat="45.1618167" lon="8.14428"><ele>145.0</ele><time>2026-04-18T14:10:37.364Z</time></trkpt><trkpt lat="45.1618533" lon="8.1445017"><ele>145.0</ele><time>2026-04-18T14:10:38.363Z</time></trkpt><trkpt lat="45.16189" lon="8.1447283"><ele>145.66666666666669</ele><time>2026-04-18T14:10:39.364Z</time></trkpt><trkpt lat="45.1619317" lon="8.1449533"><ele>146.33333333333334</ele><time>2026-04-18T14:10:40.364Z</time></trkpt><trkpt lat="45.1619733" lon="8.1451733"><ele>147.0</ele><time>2026-04-18T14:10:41.364Z</time></trkpt><trkpt lat="45.162" lon="8.145395"><ele>147.0</ele><time>2026-04-18T14:10:42.363Z</time></trkpt><trkpt lat="45.1620333" lon="8.1456267"><ele>147.0</ele><time>2026-04-18T14:10:43.364Z</time></trkpt><trkpt lat="45.1620683" lon="8.1458517"><ele>147.0</ele><time>2026-04-18T14:10:44.364Z</time></trkpt><trkpt lat="45.162105" lon="8.1460783"><ele>149.33333333333334</ele><time>2026-04-18T14:10:45.364Z</time></trkpt><trkpt lat="45.162145" lon="8.1463033"><ele>151.66666666666669</ele><time>2026-04-18T14:10:46.364Z</time></trkpt><trkpt lat="45.1621733" lon="8.1465217"><ele>154.0</ele><time>2026-04-18T14:10:47.364Z</time></trkpt><trkpt lat="45.162205" lon="8.1467433"><ele>157.33333333333334</ele><time>2026-04-18T14:10:48.363Z</time></trkpt><trkpt lat="45.1622267" lon="8.1469783"><ele>160.66666666666666</ele><time>2026-04-18T14:10:49.364Z</time></trkpt><trkpt lat="45.1622433" lon="8.14721"><ele>164.0</ele><time>2026-04-18T14:10:50.364Z</time></trkpt><trkpt lat="45.1622367" lon="8.147435"><ele>165.0</ele><time>2026-04-18T14:10:51.364Z</time></trkpt><trkpt lat="45.1622183" lon="8.1476633"><ele>166.0</ele><time>2026-04-18T14:10:52.364Z</time></trkpt><trkpt lat="45.16219" lon="8.14788"><ele>167.0</ele><time>2026-04-18T14:10:53.364Z</time></trkpt><trkpt lat="45.162155" lon="8.1480883"><ele>167.33333333333331</ele><time>2026-04-18T14:10:54.364Z</time></trkpt><trkpt lat="45.1621017" lon="8.1483083"><ele>167.66666666666666</ele><time>2026-04-18T14:10:55.364Z</time></trkpt><trkpt lat="45.1620517" lon="8.1485333"><ele>168.0</ele><time>2026-04-18T14:10:56.363Z</time></trkpt><trkpt lat="45.1620083" lon="8.1487567"><ele>168.0</ele><time>2026-04-18T14:10:57.364Z</time></trkpt><trkpt lat="45.16197" lon="8.14897"><ele>168.0</ele><time>2026-04-18T14:10:58.364Z</time></trkpt><trkpt lat="45.161915" lon="8.1491883"><ele>168.0</ele><time>2026-04-18T14:10:59.364Z</time></trkpt><trkpt lat="45.161865" lon="8.1494067"><ele>166.33333333333334</ele><time>2026-04-18T14:11:00.364Z</time></trkpt><trkpt lat="45.1618167" lon="8.1496283"><ele>164.66666666666669</ele><time>2026-04-18T14:11:01.364Z</time></trkpt><trkpt lat="45.16177" lon="8.1498567"><ele>163.0</ele><time>2026-04-18T14:11:02.363Z</time></trkpt><trkpt lat="45.1617183" lon="8.150075"><ele>161.66666666666669</ele><time>2026-04-18T14:11:03.364Z</time></trkpt><trkpt lat="45.161675" lon="8.1503"><ele>160.33333333333334</ele><time>2026-04-18T14:11:04.364Z</time></trkpt><trkpt lat="45.1616483" lon="8.1505267"><ele>159.0</ele><time>2026-04-18T14:11:05.364Z</time></trkpt><trkpt lat="45.161635" lon="8.1507583"><ele>156.66666666666666</ele><time>2026-04-18T14:11:06.364Z</time></trkpt><trkpt lat="45.161615" lon="8.15099"><ele>154.33333333333331</ele><time>2026-04-18T14:11:07.364Z</time></trkpt><trkpt lat="45.1616" lon="8.1512283"><ele>152.0</ele><time>2026-04-18T14:11:08.364Z</time></trkpt><trkpt lat="45.1615917" lon="8.151455"><ele>150.33333333333331</ele><time>2026-04-18T14:11:09.364Z</time></trkpt><trkpt lat="45.16158" lon="8.151695"><ele>148.66666666666666</ele><time>2026-04-18T14:11:10.364Z</time></trkpt><trkpt lat="45.1615667" lon="8.15193"><ele>147.0</ele><time>2026-04-18T14:11:11.364Z</time></trkpt><trkpt lat="45.1615567" lon="8.1521633"><ele>146.33333333333334</ele><time>2026-04-18T14:11:12.364Z</time></trkpt><trkpt lat="45.16155" lon="8.1523967"><ele>145.66666666666669</ele><time>2026-04-18T14:11:13.364Z</time></trkpt><trkpt lat="45.16154" lon="8.152625"><ele>145.0</ele><time>2026-04-18T14:11:14.363Z</time></trkpt><trkpt lat="45.16153" lon="8.1528633"><ele>148.33333333333334</ele><time>2026-04-18T14:11:15.363Z</time></trkpt><trkpt lat="45.1615167" lon="8.1530967"><ele>151.66666666666666</ele><time>2026-04-18T14:11:16.364Z</time></trkpt><trkpt lat="45.1615117" lon="8.153325"><ele>155.0</ele><time>2026-04-18T14:11:17.364Z</time></trkpt><trkpt lat="45.1615067" lon="8.153555"><ele>155.0</ele><time>2026-04-18T14:11:18.364Z</time></trkpt><trkpt lat="45.1614967" lon="8.153785"><ele>155.0</ele><time>2026-04-18T14:11:19.364Z</time></trkpt><trkpt lat="45.16149" lon="8.15401"><ele>155.0</ele><time>2026-04-18T14:11:20.364Z</time></trkpt><trkpt lat="45.161475" lon="8.1542433"><ele>153.0</ele><time>2026-04-18T14:11:21.364Z</time></trkpt><trkpt lat="45.161465" lon="8.1544767"><ele>151.0</ele><time>2026-04-18T14:11:22.364Z</time></trkpt><trkpt lat="45.1614567" lon="8.154705"><ele>149.0</ele><time>2026-04-18T14:11:23.363Z</time></trkpt><trkpt lat="45.1614533" lon="8.1549283"><ele>148.66666666666666</ele><time>2026-04-18T14:11:24.364Z</time></trkpt><trkpt lat="45.1614467" lon="8.1551583"><ele>148.33333333333334</ele><time>2026-04-18T14:11:25.364Z</time></trkpt><trkpt lat="45.161435" lon="8.155385"><ele>148.0</ele><time>2026-04-18T14:11:26.364Z</time></trkpt><trkpt lat="45.1614383" lon="8.1556133"><ele>147.66666666666669</ele><time>2026-04-18T14:11:27.363Z</time></trkpt><trkpt lat="45.1614583" lon="8.1558383"><ele>147.33333333333334</ele><time>2026-04-18T14:11:28.364Z</time></trkpt><trkpt lat="45.161465" lon="8.15606"><ele>147.0</ele><time>2026-04-18T14:11:29.364Z</time></trkpt><trkpt lat="45.1614783" lon="8.1562833"><ele>147.0</ele><time>2026-04-18T14:11:30.364Z</time></trkpt><trkpt lat="45.1614967" lon="8.1565167"><ele>147.0</ele><time>2026-04-18T14:11:31.364Z</time></trkpt><trkpt lat="45.1615033" lon="8.1567483"><ele>147.0</ele><time>2026-04-18T14:11:32.363Z</time></trkpt><trkpt lat="45.1615133" lon="8.15697"><ele>146.33333333333334</ele><time>2026-04-18T14:11:33.363Z</time></trkpt><trkpt lat="45.161525" lon="8.1572033"><ele>145.66666666666669</ele><time>2026-04-18T14:11:34.363Z</time></trkpt><trkpt lat="45.1615317" lon="8.1574383"><ele>145.0</ele><time>2026-04-18T14:11:35.362Z</time></trkpt><trkpt lat="45.16154" lon="8.1576667"><ele>145.0</ele><time>2026-04-18T14:11:36.362Z</time></trkpt><trkpt lat="45.161545" lon="8.157905"><ele>145.0</ele><time>2026-04-18T14:11:37.363Z</time></trkpt><trkpt lat="45.1615567" lon="8.158145"><ele>145.0</ele><time>2026-04-18T14:11:38.363Z</time></trkpt><trkpt lat="45.161565" lon="8.1583667"><ele>144.66666666666669</ele><time>2026-04-18T14:11:39.363Z</time></trkpt><trkpt lat="45.1615717" lon="8.1585883"><ele>144.33333333333334</ele><time>2026-04-18T14:11:40.363Z</time></trkpt><trkpt lat="45.1615817" lon="8.1588133"><ele>144.0</ele><time>2026-04-18T14:11:41.363Z</time></trkpt><trkpt lat="45.16158" lon="8.1590483"><ele>143.66666666666666</ele><time>2026-04-18T14:11:42.362Z</time></trkpt><trkpt lat="45.1615983" lon="8.1592883"><ele>143.33333333333331</ele><time>2026-04-18T14:11:43.363Z</time></trkpt><trkpt lat="45.1616083" lon="8.159515"><ele>143.0</ele><time>2026-04-18T14:11:44.363Z</time></trkpt><trkpt lat="45.1616133" lon="8.1597367"><ele>143.0</ele><time>2026-04-18T14:11:45.363Z</time></trkpt><trkpt lat="45.1616383" lon="8.159975"><ele>143.0</ele><time>2026-04-18T14:11:46.363Z</time></trkpt><trkpt lat="45.161655" lon="8.1602117"><ele>143.0</ele><time>2026-04-18T14:11:47.363Z</time></trkpt><trkpt lat="45.16167" lon="8.1604467"><ele>143.0</ele><time>2026-04-18T14:11:48.363Z</time></trkpt><trkpt lat="45.1616833" lon="8.16068"><ele>143.0</ele><time>2026-04-18T14:11:49.363Z</time></trkpt><trkpt lat="45.1616933" lon="8.1609067"><ele>143.0</ele><time>2026-04-18T14:11:50.363Z</time></trkpt><trkpt lat="45.1617" lon="8.16114"><ele>143.0</ele><time>2026-04-18T14:11:51.363Z</time></trkpt><trkpt lat="45.1617117" lon="8.1613633"><ele>143.0</ele><time>2026-04-18T14:11:52.363Z</time></trkpt><trkpt lat="45.1617183" lon="8.1616017"><ele>143.0</ele><time>2026-04-18T14:11:53.362Z</time></trkpt><trkpt lat="45.161735" lon="8.16184"><ele>142.66666666666666</ele><time>2026-04-18T14:11:54.362Z</time></trkpt><trkpt lat="45.1617383" lon="8.16207"><ele>142.33333333333334</ele><time>2026-04-18T14:11:55.363Z</time></trkpt><trkpt lat="45.1617467" lon="8.1623067"><ele>142.0</ele><time>2026-04-18T14:11:56.363Z</time></trkpt><trkpt lat="45.16176" lon="8.1625433"><ele>142.0</ele><time>2026-04-18T14:11:57.363Z</time></trkpt><trkpt lat="45.1617717" lon="8.1627733"><ele>142.0</ele><time>2026-04-18T14:11:58.363Z</time></trkpt><trkpt lat="45.1617817" lon="8.1630083"><ele>142.0</ele><time>2026-04-18T14:11:59.363Z</time></trkpt><trkpt lat="45.16179" lon="8.1632467"><ele>142.33333333333334</ele><time>2026-04-18T14:12:00.363Z</time></trkpt><trkpt lat="45.1618" lon="8.1634833"><ele>142.66666666666666</ele><time>2026-04-18T14:12:01.363Z</time></trkpt><trkpt lat="45.161805" lon="8.1637233"><ele>143.0</ele><time>2026-04-18T14:12:02.363Z</time></trkpt><trkpt lat="45.16182" lon="8.16396"><ele>144.33333333333331</ele><time>2026-04-18T14:12:03.363Z</time></trkpt><trkpt lat="45.1618383" lon="8.1641933"><ele>145.66666666666666</ele><time>2026-04-18T14:12:04.362Z</time></trkpt><trkpt lat="45.1618483" lon="8.1644383"><ele>147.0</ele><time>2026-04-18T14:12:05.362Z</time></trkpt><trkpt lat="45.16186" lon="8.1646767"><ele>147.0</ele><time>2026-04-18T14:12:06.363Z</time></trkpt><trkpt lat="45.1618767" lon="8.16491"><ele>147.0</ele><time>2026-04-18T14:12:07.363Z</time></trkpt><trkpt lat="45.1618833" lon="8.1651417"><ele>147.0</ele><time>2026-04-18T14:12:08.363Z</time></trkpt><trkpt lat="45.161905" lon="8.1653633"><ele>147.0</ele><time>2026-04-18T14:12:09.363Z</time></trkpt><trkpt lat="45.1619183" lon="8.16559"><ele>147.0</ele><time>2026-04-18T14:12:10.362Z</time></trkpt><trkpt lat="45.1619317" lon="8.1658133"><ele>147.0</ele><time>2026-04-18T14:12:11.362Z</time></trkpt><trkpt lat="45.161935" lon="8.166035"><ele>146.33333333333334</ele><time>2026-04-18T14:12:12.363Z</time></trkpt><trkpt lat="45.1619167" lon="8.1662667"><ele>145.66666666666669</ele><time>2026-04-18T14:12:13.362Z</time></trkpt><trkpt lat="45.1618817" lon="8.1664717"><ele>145.0</ele><time>2026-04-18T14:12:14.363Z</time></trkpt><trkpt lat="45.161825" lon="8.1666617"><ele>144.66666666666669</ele><time>2026-04-18T14:12:15.363Z</time></trkpt><trkpt lat="45.16174" lon="8.1668533"><ele>144.33333333333334</ele><time>2026-04-18T14:12:16.363Z</time></trkpt><trkpt lat="45.161645" lon="8.1670517"><ele>144.0</ele><time>2026-04-18T14:12:17.363Z</time></trkpt><trkpt lat="45.1615433" lon="8.1672367"><ele>143.33333333333334</ele><time>2026-04-18T14:12:18.363Z</time></trkpt><trkpt lat="45.1614433" lon="8.1674167"><ele>142.66666666666669</ele><time>2026-04-18T14:12:19.363Z</time></trkpt><trkpt lat="45.16134" lon="8.167595"><ele>142.0</ele><time>2026-04-18T14:12:20.363Z</time></trkpt><trkpt lat="45.1612367" lon="8.1677767"><ele>142.0</ele><time>2026-04-18T14:12:21.363Z</time></trkpt><trkpt lat="45.161135" lon="8.1679567"><ele>142.0</ele><time>2026-04-18T14:12:22.363Z</time></trkpt><trkpt lat="45.16103" lon="8.1681417"><ele>142.0</ele><time>2026-04-18T14:12:23.363Z</time></trkpt><trkpt lat="45.1609283" lon="8.1683167"><ele>141.66666666666669</ele><time>2026-04-18T14:12:24.363Z</time></trkpt><trkpt lat="45.1608233" lon="8.1684967"><ele>141.33333333333334</ele><time>2026-04-18T14:12:25.362Z</time></trkpt><trkpt lat="45.1607133" lon="8.1686733"><ele>141.0</ele><time>2026-04-18T14:12:26.363Z</time></trkpt><trkpt lat="45.1606133" lon="8.1688583"><ele>141.0</ele><time>2026-04-18T14:12:27.363Z</time></trkpt><trkpt lat="45.1605083" lon="8.1690367"><ele>141.0</ele><time>2026-04-18T14:12:28.363Z</time></trkpt><trkpt lat="45.160405" lon="8.1692133"><ele>141.0</ele><time>2026-04-18T14:12:29.363Z</time></trkpt><trkpt lat="45.1603" lon="8.16939"><ele>141.0</ele><time>2026-04-18T14:12:30.363Z</time></trkpt><trkpt lat="45.1601933" lon="8.1695683"><ele>141.0</ele><time>2026-04-18T14:12:31.363Z</time></trkpt><trkpt lat="45.1600917" lon="8.169745"><ele>141.0</ele><time>2026-04-18T14:12:32.363Z</time></trkpt><trkpt lat="45.1599817" lon="8.169925"><ele>141.0</ele><time>2026-04-18T14:12:33.363Z</time></trkpt><trkpt lat="45.1598867" lon="8.1701033"><ele>141.0</ele><time>2026-04-18T14:12:34.362Z</time></trkpt><trkpt lat="45.15978" lon="8.17028"><ele>141.0</ele><time>2026-04-18T14:12:35.362Z</time></trkpt><trkpt lat="45.1596917" lon="8.170475"><ele>141.0</ele><time>2026-04-18T14:12:36.363Z</time></trkpt><trkpt lat="45.159625" lon="8.1706833"><ele>141.0</ele><time>2026-04-18T14:12:37.363Z</time></trkpt><trkpt lat="45.1595883" lon="8.170905"><ele>141.0</ele><time>2026-04-18T14:12:38.363Z</time></trkpt><trkpt lat="45.1595667" lon="8.171135"><ele>141.33333333333334</ele><time>2026-04-18T14:12:39.363Z</time></trkpt><trkpt lat="45.15955" lon="8.1713567"><ele>141.66666666666669</ele><time>2026-04-18T14:12:40.362Z</time></trkpt><trkpt lat="45.159535" lon="8.1715933"><ele>142.0</ele><time>2026-04-18T14:12:41.362Z</time></trkpt><trkpt lat="45.1595283" lon="8.1718267"><ele>142.0</ele><time>2026-04-18T14:12:42.363Z</time></trkpt><trkpt lat="45.1595133" lon="8.172055"><ele>142.0</ele><time>2026-04-18T14:12:43.363Z</time></trkpt><trkpt lat="45.1595017" lon="8.1722833"><ele>142.0</ele><time>2026-04-18T14:12:44.363Z</time></trkpt><trkpt lat="45.1594933" lon="8.1725017"><ele>141.66666666666669</ele><time>2026-04-18T14:12:45.363Z</time></trkpt><trkpt lat="45.1594783" lon="8.172725"><ele>141.33333333333334</ele><time>2026-04-18T14:12:46.363Z</time></trkpt><trkpt lat="45.159465" lon="8.1729483"><ele>141.0</ele><time>2026-04-18T14:12:47.363Z</time></trkpt><trkpt lat="45.15945" lon="8.1731633"><ele>141.33333333333334</ele><time>2026-04-18T14:12:48.362Z</time></trkpt><trkpt lat="45.1594417" lon="8.1733833"><ele>141.66666666666669</ele><time>2026-04-18T14:12:49.363Z</time></trkpt><trkpt lat="45.1594317" lon="8.1736017"><ele>142.0</ele><time>2026-04-18T14:12:50.363Z</time></trkpt><trkpt lat="45.1594233" lon="8.1738217"><ele>142.66666666666669</ele><time>2026-04-18T14:12:51.362Z</time></trkpt><trkpt lat="45.1594183" lon="8.1740417"><ele>143.33333333333334</ele><time>2026-04-18T14:12:52.363Z</time></trkpt><trkpt lat="45.1594067" lon="8.1742583"><ele>144.0</ele><time>2026-04-18T14:12:53.363Z</time></trkpt><trkpt lat="45.1594033" lon="8.174465"><ele>144.0</ele><time>2026-04-18T14:12:54.363Z</time></trkpt><trkpt lat="45.1593983" lon="8.1746817"><ele>144.0</ele><time>2026-04-18T14:12:55.362Z</time></trkpt><trkpt lat="45.15939" lon="8.1748983"><ele>144.0</ele><time>2026-04-18T14:12:56.363Z</time></trkpt><trkpt lat="45.1593833" lon="8.1751217"><ele>144.0</ele><time>2026-04-18T14:12:57.363Z</time></trkpt><trkpt lat="45.1593633" lon="8.175335"><ele>144.0</ele><time>2026-04-18T14:12:58.363Z</time></trkpt><trkpt lat="45.1593483" lon="8.1755533"><ele>144.0</ele><time>2026-04-18T14:12:59.362Z</time></trkpt><trkpt lat="45.1593483" lon="8.1757667"><ele>144.0</ele><time>2026-04-18T14:13:00.363Z</time></trkpt><trkpt lat="45.1593417" lon="8.1759733"><ele>144.0</ele><time>2026-04-18T14:13:01.363Z</time></trkpt><trkpt lat="45.15934" lon="8.1761817"><ele>144.0</ele><time>2026-04-18T14:13:02.362Z</time></trkpt><trkpt lat="45.159335" lon="8.17638"><ele>144.0</ele><time>2026-04-18T14:13:03.363Z</time></trkpt><trkpt lat="45.1593183" lon="8.17657"><ele>144.25</ele><time>2026-04-18T14:13:04.362Z</time></trkpt><trkpt lat="45.1593117" lon="8.17677"><ele>144.5</ele><time>2026-04-18T14:13:05.363Z</time></trkpt><trkpt lat="45.1593017" lon="8.176965"><ele>144.75</ele><time>2026-04-18T14:13:06.363Z</time></trkpt><trkpt lat="45.1592983" lon="8.1771483"><ele>145.0</ele><time>2026-04-18T14:13:07.363Z</time></trkpt><trkpt lat="45.159295" lon="8.1773233"><ele>144.75</ele><time>2026-04-18T14:13:08.363Z</time></trkpt><trkpt lat="45.1592883" lon="8.1774983"><ele>144.5</ele><time>2026-04-18T14:13:09.363Z</time></trkpt><trkpt lat="45.1592783" lon="8.1776817"><ele>144.25</ele><time>2026-04-18T14:13:10.362Z</time></trkpt><trkpt lat="45.1592783" lon="8.17786"><ele>144.0</ele><time>2026-04-18T14:13:11.363Z</time></trkpt><trkpt lat="45.1592667" lon="8.1780433"><ele>144.5</ele><time>2026-04-18T14:13:12.363Z</time></trkpt><trkpt lat="45.159255" lon="8.17823"><ele>145.0</ele><time>2026-04-18T14:13:13.362Z</time></trkpt><trkpt lat="45.1592383" lon="8.1784267"><ele>145.5</ele><time>2026-04-18T14:13:14.362Z</time></trkpt><trkpt lat="45.1592417" lon="8.1786183"><ele>146.0</ele><time>2026-04-18T14:13:15.363Z</time></trkpt><trkpt lat="45.159235" lon="8.1788183"><ele>146.0</ele><time>2026-04-18T14:13:16.362Z</time></trkpt><trkpt lat="45.15922" lon="8.17901"><ele>146.0</ele><time>2026-04-18T14:13:17.363Z</time></trkpt><trkpt lat="45.1591967" lon="8.179155"><ele>146.0</ele><time>2026-04-18T14:13:18.362Z</time></trkpt><trkpt lat="45.1591433" lon="8.1792967"><ele>146.0</ele><time>2026-04-18T14:13:19.363Z</time></trkpt><trkpt lat="45.1590433" lon="8.17941"><ele>146.75</ele><time>2026-04-18T14:13:20.363Z</time></trkpt><trkpt lat="45.1589317" lon="8.1795233"><ele>147.5</ele><time>2026-04-18T14:13:21.363Z</time></trkpt><trkpt lat="45.1588033" lon="8.1796267"><ele>148.25</ele><time>2026-04-18T14:13:22.363Z</time></trkpt><trkpt lat="45.1586933" lon="8.179735"><ele>149.0</ele><time>2026-04-18T14:13:23.363Z</time></trkpt><trkpt lat="45.158585" lon="8.1798533"><ele>149.25</ele><time>2026-04-18T14:13:24.363Z</time></trkpt><trkpt lat="45.1584783" lon="8.1799833"><ele>149.5</ele><time>2026-04-18T14:13:25.363Z</time></trkpt><trkpt lat="45.1583667" lon="8.1801233"><ele>149.75</ele><time>2026-04-18T14:13:26.363Z</time></trkpt><trkpt lat="45.158265" lon="8.1802633"><ele>150.0</ele><time>2026-04-18T14:13:27.363Z</time></trkpt><trkpt lat="45.1581617" lon="8.180415"><ele>150.5</ele><time>2026-04-18T14:13:28.363Z</time></trkpt><trkpt lat="45.1580833" lon="8.1805783"><ele>151.0</ele><time>2026-04-18T14:13:29.363Z</time></trkpt><trkpt lat="45.158005" lon="8.18075"><ele>151.5</ele><time>2026-04-18T14:13:30.363Z</time></trkpt><trkpt lat="45.15795" lon="8.180935"><ele>152.0</ele><time>2026-04-18T14:13:31.363Z</time></trkpt><trkpt lat="45.1578833" lon="8.1811117"><ele>153.5</ele><time>2026-04-18T14:13:32.362Z</time></trkpt><trkpt lat="45.1578183" lon="8.1812867"><ele>155.0</ele><time>2026-04-18T14:13:33.363Z</time></trkpt><trkpt lat="45.1577433" lon="8.181465"><ele>156.5</ele><time>2026-04-18T14:13:34.363Z</time></trkpt><trkpt lat="45.1576533" lon="8.18164"><ele>158.0</ele><time>2026-04-18T14:13:35.363Z</time></trkpt><trkpt lat="45.1575517" lon="8.181805"><ele>158.66666666666666</ele><time>2026-04-18T14:13:36.362Z</time></trkpt><trkpt lat="45.157425" lon="8.1819333"><ele>159.33333333333334</ele><time>2026-04-18T14:13:37.363Z</time></trkpt><trkpt lat="45.1572817" lon="8.18203"><ele>160.0</ele><time>2026-04-18T14:13:38.362Z</time></trkpt><trkpt lat="45.1571383" lon="8.18211"><ele>160.0</ele><time>2026-04-18T14:13:39.362Z</time></trkpt><trkpt lat="45.1569883" lon="8.18221"><ele>160.0</ele><time>2026-04-18T14:13:40.363Z</time></trkpt><trkpt lat="45.156865" lon="8.182355"><ele>160.0</ele><time>2026-04-18T14:13:41.362Z</time></trkpt><trkpt lat="45.15679" lon="8.1825433"><ele>163.33333333333334</ele><time>2026-04-18T14:13:42.363Z</time></trkpt><trkpt lat="45.156735" lon="8.18275"><ele>166.66666666666666</ele><time>2026-04-18T14:13:43.362Z</time></trkpt><trkpt lat="45.156665" lon="8.1829483"><ele>170.0</ele><time>2026-04-18T14:13:44.362Z</time></trkpt><trkpt lat="45.156565" lon="8.1831117"><ele>169.66666666666666</ele><time>2026-04-18T14:13:45.362Z</time></trkpt><trkpt lat="45.15644" lon="8.183245"><ele>169.33333333333334</ele><time>2026-04-18T14:13:46.363Z</time></trkpt><trkpt lat="45.1563283" lon="8.18339"><ele>169.0</ele><time>2026-04-18T14:13:47.363Z</time></trkpt><trkpt lat="45.1562317" lon="8.1835717"><ele>169.0</ele><time>2026-04-18T14:13:48.363Z</time></trkpt><trkpt lat="45.1561717" lon="8.1837767"><ele>169.0</ele><time>2026-04-18T14:13:49.362Z</time></trkpt><trkpt lat="45.1561467" lon="8.183995"><ele>169.0</ele><time>2026-04-18T14:13:50.362Z</time></trkpt><trkpt lat="45.15617" lon="8.1842183"><ele>171.0</ele><time>2026-04-18T14:13:51.362Z</time></trkpt><trkpt lat="45.1562217" lon="8.184445"><ele>173.0</ele><time>2026-04-18T14:13:52.362Z</time></trkpt><trkpt lat="45.15628" lon="8.1846683"><ele>175.0</ele><time>2026-04-18T14:13:53.363Z</time></trkpt><trkpt lat="45.1563317" lon="8.1848917"><ele>175.66666666666669</ele><time>2026-04-18T14:13:54.363Z</time></trkpt><trkpt lat="45.1563867" lon="8.185115"><ele>176.33333333333334</ele><time>2026-04-18T14:13:55.363Z</time></trkpt><trkpt lat="45.156445" lon="8.185335"><ele>177.0</ele><time>2026-04-18T14:13:56.363Z</time></trkpt><trkpt lat="45.1564917" lon="8.1855517"><ele>180.0</ele><time>2026-04-18T14:13:57.363Z</time></trkpt><trkpt lat="45.156545" lon="8.1857767"><ele>183.0</ele><time>2026-04-18T14:13:58.363Z</time></trkpt><trkpt lat="45.1565883" lon="8.18597"><ele>186.0</ele><time>2026-04-18T14:13:59.363Z</time></trkpt><trkpt lat="45.1566533" lon="8.186165"><ele>186.0</ele><time>2026-04-18T14:14:00.363Z</time></trkpt><trkpt lat="45.1567467" lon="8.1863267"><ele>186.0</ele><time>2026-04-18T14:14:01.363Z</time></trkpt><trkpt lat="45.1568717" lon="8.18646"><ele>186.0</ele><time>2026-04-18T14:14:02.363Z</time></trkpt><trkpt lat="45.1570133" lon="8.1865433"><ele>188.0</ele><time>2026-04-18T14:14:03.363Z</time></trkpt><trkpt lat="45.1571633" lon="8.1866017"><ele>190.0</ele><time>2026-04-18T14:14:04.363Z</time></trkpt><trkpt lat="45.1573167" lon="8.1866483"><ele>192.0</ele><time>2026-04-18T14:14:05.363Z</time></trkpt><trkpt lat="45.157445" lon="8.1867217"><ele>193.25</ele><time>2026-04-18T14:14:06.363Z</time></trkpt><trkpt lat="45.1575417" lon="8.18686"><ele>194.5</ele><time>2026-04-18T14:14:07.363Z</time></trkpt><trkpt lat="45.1576017" lon="8.187045"><ele>195.75</ele><time>2026-04-18T14:14:08.362Z</time></trkpt><trkpt lat="45.15763" lon="8.1872567"><ele>197.0</ele><time>2026-04-18T14:14:09.363Z</time></trkpt><trkpt lat="45.1576167" lon="8.1874833"><ele>199.0</ele><time>2026-04-18T14:14:10.362Z</time></trkpt><trkpt lat="45.157585" lon="8.1877"><ele>201.0</ele><time>2026-04-18T14:14:11.363Z</time></trkpt><trkpt lat="45.1575533" lon="8.1879183"><ele>203.0</ele><time>2026-04-18T14:14:12.363Z</time></trkpt><trkpt lat="45.157525" lon="8.188145"><ele>204.66666666666669</ele><time>2026-04-18T14:14:13.363Z</time></trkpt><trkpt lat="45.1575117" lon="8.1883667"><ele>206.33333333333331</ele><time>2026-04-18T14:14:14.362Z</time></trkpt><trkpt lat="45.1574933" lon="8.1885983"><ele>208.0</ele><time>2026-04-18T14:14:15.363Z</time></trkpt><trkpt lat="45.15747" lon="8.1888167"><ele>208.75</ele><time>2026-04-18T14:14:16.363Z</time></trkpt><trkpt lat="45.1574317" lon="8.1890167"><ele>209.5</ele><time>2026-04-18T14:14:17.362Z</time></trkpt><trkpt lat="45.157365" lon="8.1891917"><ele>210.25</ele><time>2026-04-18T14:14:18.363Z</time></trkpt><trkpt lat="45.1572683" lon="8.189335"><ele>211.0</ele><time>2026-04-18T14:14:19.363Z</time></trkpt><trkpt lat="45.1571383" lon="8.1894283"><ele>211.75</ele><time>2026-04-18T14:14:20.363Z</time></trkpt><trkpt lat="45.157005" lon="8.1894817"><ele>212.5</ele><time>2026-04-18T14:14:21.363Z</time></trkpt><trkpt lat="45.1568617" lon="8.1894983"><ele>213.25</ele><time>2026-04-18T14:14:22.363Z</time></trkpt><trkpt lat="45.15671" lon="8.1895167"><ele>214.0</ele><time>2026-04-18T14:14:23.363Z</time></trkpt><trkpt lat="45.156565" lon="8.1895283"><ele>214.0</ele><time>2026-04-18T14:14:24.363Z</time></trkpt><trkpt lat="45.1564217" lon="8.1895383"><ele>214.0</ele><time>2026-04-18T14:14:25.363Z</time></trkpt><trkpt lat="45.1562883" lon="8.18956"><ele>214.0</ele><time>2026-04-18T14:14:26.362Z</time></trkpt><trkpt lat="45.1561667" lon="8.1895817"><ele>214.0</ele><time>2026-04-18T14:14:27.362Z</time></trkpt><trkpt lat="45.1560533" lon="8.1895917"><ele>213.99999999999997</ele><time>2026-04-18T14:14:28.363Z</time></trkpt><trkpt lat="45.1559633" lon="8.1895917"><ele>214.0</ele><time>2026-04-18T14:14:29.362Z</time></trkpt><trkpt lat="45.155885" lon="8.189595"><ele>214.0</ele><time>2026-04-18T14:14:30.363Z</time></trkpt><trkpt lat="45.1557967" lon="8.1896667"><ele>214.0</ele><time>2026-04-18T14:14:32.363Z</time></trkpt><trkpt lat="45.1558133" lon="8.189785"><ele>213.99999999999997</ele><time>2026-04-18T14:14:34.362Z</time></trkpt><trkpt lat="45.155875" lon="8.18985"><ele>214.0</ele><time>2026-04-18T14:14:35.362Z</time></trkpt><trkpt lat="45.1559817" lon="8.18993"><ele>217.0</ele><time>2026-04-18T14:14:36.362Z</time></trkpt><trkpt lat="45.1561" lon="8.1900133"><ele>220.0</ele><time>2026-04-18T14:14:37.363Z</time></trkpt><trkpt lat="45.1562167" lon="8.1900967"><ele>223.0</ele><time>2026-04-18T14:14:38.363Z</time></trkpt><trkpt lat="45.1563217" lon="8.1901783"><ele>226.0</ele><time>2026-04-18T14:14:39.363Z</time></trkpt><trkpt lat="45.1564383" lon="8.1902583"><ele>225.75</ele><time>2026-04-18T14:14:40.362Z</time></trkpt><trkpt lat="45.1565667" lon="8.1903383"><ele>225.5</ele><time>2026-04-18T14:14:41.362Z</time></trkpt><trkpt lat="45.1566833" lon="8.1904167"><ele>225.25</ele><time>2026-04-18T14:14:42.363Z</time></trkpt><trkpt lat="45.15679" lon="8.190515"><ele>225.0</ele><time>2026-04-18T14:14:43.363Z</time></trkpt><trkpt lat="45.15687" lon="8.1906433"><ele>227.2</ele><time>2026-04-18T14:14:44.363Z</time></trkpt><trkpt lat="45.1569017" lon="8.19079"><ele>229.4</ele><time>2026-04-18T14:14:45.362Z</time></trkpt><trkpt lat="45.156885" lon="8.1909383"><ele>231.60000000000002</ele><time>2026-04-18T14:14:46.363Z</time></trkpt><trkpt lat="45.156845" lon="8.1910833"><ele>233.8</ele><time>2026-04-18T14:14:47.362Z</time></trkpt><trkpt lat="45.1567867" lon="8.1912317"><ele>236.0</ele><time>2026-04-18T14:14:48.362Z</time></trkpt><trkpt lat="45.1567233" lon="8.1913867"><ele>237.0</ele><time>2026-04-18T14:14:49.363Z</time></trkpt><trkpt lat="45.1566517" lon="8.19155"><ele>238.0</ele><time>2026-04-18T14:14:50.362Z</time></trkpt><trkpt lat="45.1565933" lon="8.19173"><ele>239.0</ele><time>2026-04-18T14:14:51.363Z</time></trkpt><trkpt lat="45.15652" lon="8.1919133"><ele>240.0</ele><time>2026-04-18T14:14:52.362Z</time></trkpt><trkpt lat="45.1564467" lon="8.192095"><ele>237.66666666666669</ele><time>2026-04-18T14:14:53.363Z</time></trkpt><trkpt lat="45.1563767" lon="8.1922883"><ele>235.33333333333334</ele><time>2026-04-18T14:14:54.363Z</time></trkpt><trkpt lat="45.1563033" lon="8.1924817"><ele>233.0</ele><time>2026-04-18T14:14:55.363Z</time></trkpt><trkpt lat="45.1562183" lon="8.192675"><ele>233.0</ele><time>2026-04-18T14:14:56.363Z</time></trkpt><trkpt lat="45.156145" lon="8.1928667"><ele>233.0</ele><time>2026-04-18T14:14:57.363Z</time></trkpt><trkpt lat="45.1560733" lon="8.1930483"><ele>233.0</ele><time>2026-04-18T14:14:58.363Z</time></trkpt><trkpt lat="45.15599" lon="8.1932417"><ele>234.75</ele><time>2026-04-18T14:14:59.363Z</time></trkpt><trkpt lat="45.1559267" lon="8.1934217"><ele>236.5</ele><time>2026-04-18T14:15:00.363Z</time></trkpt><trkpt lat="45.1558583" lon="8.19361"><ele>238.25</ele><time>2026-04-18T14:15:01.362Z</time></trkpt><trkpt lat="45.1558117" lon="8.193795"><ele>240.0</ele><time>2026-04-18T14:15:02.363Z</time></trkpt><trkpt lat="45.155795" lon="8.19398"><ele>241.0</ele><time>2026-04-18T14:15:03.363Z</time></trkpt><trkpt lat="45.15579" lon="8.19416"><ele>242.0</ele><time>2026-04-18T14:15:04.363Z</time></trkpt><trkpt lat="45.1558033" lon="8.19436"><ele>243.0</ele><time>2026-04-18T14:15:05.363Z</time></trkpt><trkpt lat="45.1558367" lon="8.1945483"><ele>244.0</ele><time>2026-04-18T14:15:06.363Z</time></trkpt><trkpt lat="45.1558833" lon="8.1947417"><ele>245.5</ele><time>2026-04-18T14:15:07.363Z</time></trkpt><trkpt lat="45.1559133" lon="8.1949483"><ele>247.0</ele><time>2026-04-18T14:15:08.362Z</time></trkpt><trkpt lat="45.1559383" lon="8.1951367"><ele>248.5</ele><time>2026-04-18T14:15:09.363Z</time></trkpt><trkpt lat="45.1559667" lon="8.1953317"><ele>250.0</ele><time>2026-04-18T14:15:10.363Z</time></trkpt><trkpt lat="45.15601" lon="8.1955167"><ele>250.75</ele><time>2026-04-18T14:15:11.363Z</time></trkpt><trkpt lat="45.1560617" lon="8.1956917"><ele>251.5</ele><time>2026-04-18T14:15:12.363Z</time></trkpt><trkpt lat="45.156125" lon="8.195855"><ele>252.25</ele><time>2026-04-18T14:15:13.362Z</time></trkpt><trkpt lat="45.1562117" lon="8.19602"><ele>253.0</ele><time>2026-04-18T14:15:14.363Z</time></trkpt><trkpt lat="45.1562917" lon="8.19612"><ele>253.0</ele><time>2026-04-18T14:15:15.363Z</time></trkpt><trkpt lat="45.1563717" lon="8.19618"><ele>253.0</ele><time>2026-04-18T14:15:16.363Z</time></trkpt><trkpt lat="45.15646" lon="8.1961817"><ele>253.0</ele><time>2026-04-18T14:15:17.363Z</time></trkpt><trkpt lat="45.1565583" lon="8.19614"><ele>253.0</ele><time>2026-04-18T14:15:18.363Z</time></trkpt><trkpt lat="45.1566483" lon="8.1960533"><ele>253.0</ele><time>2026-04-18T14:15:19.363Z</time></trkpt><trkpt lat="45.15675" lon="8.1959433"><ele>255.25</ele><time>2026-04-18T14:15:20.362Z</time></trkpt><trkpt lat="45.1568483" lon="8.195815"><ele>257.5</ele><time>2026-04-18T14:15:21.363Z</time></trkpt><trkpt lat="45.1569533" lon="8.19574"><ele>259.75</ele><time>2026-04-18T14:15:22.363Z</time></trkpt><trkpt lat="45.1570667" lon="8.1957133"><ele>262.0</ele><time>2026-04-18T14:15:23.363Z</time></trkpt><trkpt lat="45.1571867" lon="8.1957283"><ele>262.0</ele><time>2026-04-18T14:15:24.362Z</time></trkpt><trkpt lat="45.1573" lon="8.1957783"><ele>262.0</ele><time>2026-04-18T14:15:25.363Z</time></trkpt><trkpt lat="45.1574067" lon="8.1958517"><ele>262.0</ele><time>2026-04-18T14:15:26.362Z</time></trkpt><trkpt lat="45.15751" lon="8.1959117"><ele>262.0</ele><time>2026-04-18T14:15:27.362Z</time></trkpt><trkpt lat="45.1576317" lon="8.195985"><ele>264.0</ele><time>2026-04-18T14:15:28.362Z</time></trkpt><trkpt lat="45.1577467" lon="8.1960667"><ele>266.0</ele><time>2026-04-18T14:15:29.363Z</time></trkpt><trkpt lat="45.157845" lon="8.1961667"><ele>268.0</ele><time>2026-04-18T14:15:30.363Z</time></trkpt><trkpt lat="45.1579267" lon="8.1962817"><ele>270.0</ele><time>2026-04-18T14:15:31.363Z</time></trkpt><trkpt lat="45.158" lon="8.1963967"><ele>270.0</ele><time>2026-04-18T14:15:32.363Z</time></trkpt><trkpt lat="45.158065" lon="8.1965017"><ele>270.0</ele><time>2026-04-18T14:15:33.363Z</time></trkpt><trkpt lat="45.1581133" lon="8.1965833"><ele>270.0</ele><time>2026-04-18T14:15:34.362Z</time></trkpt><trkpt lat="45.15818" lon="8.1966483"><ele>270.0</ele><time>2026-04-18T14:15:35.363Z</time></trkpt><trkpt lat="45.1582567" lon="8.1966783"><ele>270.0</ele><time>2026-04-18T14:15:36.362Z</time></trkpt><trkpt lat="45.1583483" lon="8.1966817"><ele>270.0</ele><time>2026-04-18T14:15:37.363Z</time></trkpt><trkpt lat="45.1584483" lon="8.1966567"><ele>271.2</ele><time>2026-04-18T14:15:38.363Z</time></trkpt><trkpt lat="45.1585417" lon="8.1966317"><ele>272.4</ele><time>2026-04-18T14:15:39.363Z</time></trkpt><trkpt lat="45.1586283" lon="8.196585"><ele>273.6</ele><time>2026-04-18T14:15:40.363Z</time></trkpt><trkpt lat="45.1587183" lon="8.1965183"><ele>274.8</ele><time>2026-04-18T14:15:41.363Z</time></trkpt><trkpt lat="45.158805" lon="8.1964467"><ele>276.0</ele><time>2026-04-18T14:15:42.363Z</time></trkpt><trkpt lat="45.1588683" lon="8.1963567"><ele>277.8</ele><time>2026-04-18T14:15:43.363Z</time></trkpt><trkpt lat="45.15892" lon="8.1962417"><ele>279.6</ele><time>2026-04-18T14:15:44.362Z</time></trkpt><trkpt lat="45.1589367" lon="8.1961183"><ele>281.4</ele><time>2026-04-18T14:15:45.363Z</time></trkpt><trkpt lat="45.1589167" lon="8.1959817"><ele>283.2</ele><time>2026-04-18T14:15:46.363Z</time></trkpt><trkpt lat="45.1588667" lon="8.195855"><ele>285.0</ele><time>2026-04-18T14:15:47.363Z</time></trkpt><trkpt lat="45.1588033" lon="8.1957567"><ele>285.5</ele><time>2026-04-18T14:15:48.363Z</time></trkpt><trkpt lat="45.1587367" lon="8.19567"><ele>286.0</ele><time>2026-04-18T14:15:49.362Z</time></trkpt><trkpt lat="45.158665" lon="8.1955733"><ele>286.5</ele><time>2026-04-18T14:15:50.363Z</time></trkpt><trkpt lat="45.15861" lon="8.1954817"><ele>287.0</ele><time>2026-04-18T14:15:51.363Z</time></trkpt><trkpt lat="45.15857" lon="8.1954017"><ele>287.5</ele><time>2026-04-18T14:15:52.363Z</time></trkpt><trkpt lat="45.15853" lon="8.195305"><ele>288.0</ele><time>2026-04-18T14:15:53.363Z</time></trkpt><trkpt lat="45.1585183" lon="8.19519"><ele>288.0</ele><time>2026-04-18T14:15:54.363Z</time></trkpt><trkpt lat="45.15852" lon="8.1950583"><ele>288.0</ele><time>2026-04-18T14:15:55.362Z</time></trkpt><trkpt lat="45.1585283" lon="8.1949317"><ele>288.0</ele><time>2026-04-18T14:15:56.362Z</time></trkpt><trkpt lat="45.158535" lon="8.1948"><ele>288.0</ele><time>2026-04-18T14:15:57.363Z</time></trkpt><trkpt lat="45.1585567" lon="8.1946567"><ele>288.0</ele><time>2026-04-18T14:15:58.363Z</time></trkpt><trkpt lat="45.158585" lon="8.1945083"><ele>288.0</ele><time>2026-04-18T14:15:59.363Z</time></trkpt><trkpt lat="45.1586317" lon="8.1943667"><ele>288.0</ele><time>2026-04-18T14:16:00.363Z</time></trkpt><trkpt lat="45.1586767" lon="8.19422"><ele>288.0</ele><time>2026-04-18T14:16:01.363Z</time></trkpt><trkpt lat="45.1587417" lon="8.1940917"><ele>288.0</ele><time>2026-04-18T14:16:02.362Z</time></trkpt><trkpt lat="45.1588083" lon="8.193965"><ele>288.0</ele><time>2026-04-18T14:16:03.363Z</time></trkpt><trkpt lat="45.1588633" lon="8.1938467"><ele>288.0</ele><time>2026-04-18T14:16:04.363Z</time></trkpt><trkpt lat="45.1589083" lon="8.1937383"><ele>288.0</ele><time>2026-04-18T14:16:05.363Z</time></trkpt><trkpt lat="45.15895" lon="8.193625"><ele>288.0</ele><time>2026-04-18T14:16:06.362Z</time></trkpt><trkpt lat="45.1589767" lon="8.1935217"><ele>288.0</ele><time>2026-04-18T14:16:07.363Z</time></trkpt><trkpt lat="45.1589867" lon="8.1934283"><ele>288.0</ele><time>2026-04-18T14:16:08.362Z</time></trkpt><trkpt lat="45.1589633" lon="8.1933367"><ele>288.0</ele><time>2026-04-18T14:16:09.363Z</time></trkpt><trkpt lat="45.1589017" lon="8.1932417"><ele>288.0</ele><time>2026-04-18T14:16:11.362Z</time></trkpt><trkpt lat="45.1588567" lon="8.1931717"><ele>280.0</ele><time>2026-04-18T14:16:13.362Z</time></trkpt><trkpt lat="45.158805" lon="8.193075"><ele>280.0</ele><time>2026-04-18T14:16:16.363Z</time></trkpt><trkpt lat="45.15874" lon="8.193045"><ele>280.0</ele><time>2026-04-18T14:16:20.363Z</time></trkpt></trkseg><trkseg><trkpt lat="45.1588017" lon="8.1931183"><ele>281.3333333333333</ele><time>2026-04-18T14:28:45.361Z</time></trkpt><trkpt lat="45.1588317" lon="8.1932133"><ele>282.66666666666663</ele><time>2026-04-18T14:28:47.361Z</time></trkpt><trkpt lat="45.158865" lon="8.1933383"><ele>284.0</ele><time>2026-04-18T14:28:49.361Z</time></trkpt><trkpt lat="45.158905" lon="8.193445"><ele>285.3333333333333</ele><time>2026-04-18T14:28:51.361Z</time></trkpt><trkpt lat="45.1589283" lon="8.1935533"><ele>286.6666666666667</ele><time>2026-04-18T14:28:53.361Z</time></trkpt><trkpt lat="45.158885" lon="8.193705"><ele>288.0</ele><time>2026-04-18T14:28:55.361Z</time></trkpt><trkpt lat="45.15883" lon="8.1938233"><ele>288.0</ele><time>2026-04-18T14:28:57.361Z</time></trkpt><trkpt lat="45.1587817" lon="8.193945"><ele>288.0</ele><time>2026-04-18T14:28:59.361Z</time></trkpt><trkpt lat="45.1587483" lon="8.1940233"><ele>288.0</ele><time>2026-04-18T14:29:00.361Z</time></trkpt><trkpt lat="45.1587017" lon="8.1941017"><ele>288.0</ele><time>2026-04-18T14:29:01.361Z</time></trkpt><trkpt lat="45.15865" lon="8.1941883"><ele>288.0</ele><time>2026-04-18T14:29:02.361Z</time></trkpt><trkpt lat="45.1586" lon="8.1942817"><ele>288.0</ele><time>2026-04-18T14:29:03.361Z</time></trkpt><trkpt lat="45.158565" lon="8.1943767"><ele>288.0</ele><time>2026-04-18T14:29:04.36Z</time></trkpt><trkpt lat="45.1585433" lon="8.19449"><ele>288.0</ele><time>2026-04-18T14:29:05.361Z</time></trkpt><trkpt lat="45.1585283" lon="8.1946183"><ele>288.0</ele><time>2026-04-18T14:29:06.361Z</time></trkpt><trkpt lat="45.1585167" lon="8.1947483"><ele>288.0</ele><time>2026-04-18T14:29:07.361Z</time></trkpt><trkpt lat="45.1585067" lon="8.194875"><ele>288.0</ele><time>2026-04-18T14:29:08.361Z</time></trkpt><trkpt lat="45.1584967" lon="8.195025"><ele>288.0</ele><time>2026-04-18T14:29:09.361Z</time></trkpt><trkpt lat="45.1584967" lon="8.1951767"><ele>288.0</ele><time>2026-04-18T14:29:10.361Z</time></trkpt><trkpt lat="45.1585083" lon="8.1953233"><ele>288.0</ele><time>2026-04-18T14:29:11.361Z</time></trkpt><trkpt lat="45.158545" lon="8.1954583"><ele>288.0</ele><time>2026-04-18T14:29:12.361Z</time></trkpt><trkpt lat="45.1586017" lon="8.1955883"><ele>288.0</ele><time>2026-04-18T14:29:13.361Z</time></trkpt><trkpt lat="45.1586717" lon="8.195705"><ele>287.5</ele><time>2026-04-18T14:29:14.361Z</time></trkpt><trkpt lat="45.15875" lon="8.195815"><ele>287.0</ele><time>2026-04-18T14:29:15.361Z</time></trkpt><trkpt lat="45.1588117" lon="8.1959233"><ele>286.5</ele><time>2026-04-18T14:29:16.361Z</time></trkpt><trkpt lat="45.1588617" lon="8.1960217"><ele>286.0</ele><time>2026-04-18T14:29:17.36Z</time></trkpt><trkpt lat="45.1589117" lon="8.1960783"><ele>285.5</ele><time>2026-04-18T14:29:18.36Z</time></trkpt><trkpt lat="45.1589233" lon="8.196185"><ele>285.0</ele><time>2026-04-18T14:29:19.361Z</time></trkpt><trkpt lat="45.15891" lon="8.1962867"><ele>285.0</ele><time>2026-04-18T14:29:20.361Z</time></trkpt><trkpt lat="45.1588683" lon="8.1963767"><ele>285.0</ele><time>2026-04-18T14:29:21.361Z</time></trkpt><trkpt lat="45.15879" lon="8.196465"><ele>285.0</ele><time>2026-04-18T14:29:22.361Z</time></trkpt><trkpt lat="45.1586817" lon="8.1965233"><ele>285.0</ele><time>2026-04-18T14:29:23.361Z</time></trkpt><trkpt lat="45.1585817" lon="8.1965567"><ele>285.0</ele><time>2026-04-18T14:29:24.36Z</time></trkpt><trkpt lat="45.1584867" lon="8.1965833"><ele>283.5</ele><time>2026-04-18T14:29:25.361Z</time></trkpt><trkpt lat="45.1584" lon="8.1965933"><ele>282.0</ele><time>2026-04-18T14:29:26.36Z</time></trkpt><trkpt lat="45.1583217" lon="8.1966033"><ele>280.5</ele><time>2026-04-18T14:29:27.361Z</time></trkpt><trkpt lat="45.1582583" lon="8.1965967"><ele>279.0</ele><time>2026-04-18T14:29:28.361Z</time></trkpt><trkpt lat="45.1581733" lon="8.19658"><ele>277.5</ele><time>2026-04-18T14:29:30.361Z</time></trkpt><trkpt lat="45.158165" lon="8.196695"><ele>276.0</ele><time>2026-04-18T14:29:33.361Z</time></trkpt><trkpt lat="45.1582067" lon="8.196885"><ele>276.0</ele><time>2026-04-18T14:29:35.361Z</time></trkpt><trkpt lat="45.1582317" lon="8.197015"><ele>276.0</ele><time>2026-04-18T14:29:36.361Z</time></trkpt><trkpt lat="45.1582567" lon="8.19714"><ele>276.0</ele><time>2026-04-18T14:29:37.36Z</time></trkpt><trkpt lat="45.1582767" lon="8.1972733"><ele>276.0</ele><time>2026-04-18T14:29:38.361Z</time></trkpt><trkpt lat="45.1583083" lon="8.19742"><ele>276.0</ele><time>2026-04-18T14:29:39.361Z</time></trkpt><trkpt lat="45.1583383" lon="8.19757"><ele>275.25</ele><time>2026-04-18T14:29:40.361Z</time></trkpt><trkpt lat="45.15837" lon="8.1977233"><ele>274.5</ele><time>2026-04-18T14:29:41.36Z</time></trkpt><trkpt lat="45.1584067" lon="8.1978767"><ele>273.75</ele><time>2026-04-18T14:29:42.361Z</time></trkpt><trkpt lat="45.15845" lon="8.1980317"><ele>273.0</ele><time>2026-04-18T14:29:43.361Z</time></trkpt><trkpt lat="45.158505" lon="8.1981783"><ele>272.0</ele><time>2026-04-18T14:29:44.361Z</time></trkpt><trkpt lat="45.15855" lon="8.1983317"><ele>271.0</ele><time>2026-04-18T14:29:45.361Z</time></trkpt><trkpt lat="45.1586067" lon="8.1984967"><ele>270.0</ele><time>2026-04-18T14:29:46.361Z</time></trkpt><trkpt lat="45.1586567" lon="8.198665"><ele>269.0</ele><time>2026-04-18T14:29:47.361Z</time></trkpt><trkpt lat="45.1586917" lon="8.1988417"><ele>268.25</ele><time>2026-04-18T14:29:48.361Z</time></trkpt><trkpt lat="45.1587017" lon="8.1990233"><ele>267.5</ele><time>2026-04-18T14:29:49.361Z</time></trkpt><trkpt lat="45.1586983" lon="8.199215"><ele>266.75</ele><time>2026-04-18T14:29:50.361Z</time></trkpt><trkpt lat="45.1586717" lon="8.199415"><ele>266.0</ele><time>2026-04-18T14:29:51.361Z</time></trkpt><trkpt lat="45.1586417" lon="8.1996067"><ele>266.0</ele><time>2026-04-18T14:29:52.36Z</time></trkpt><trkpt lat="45.1586017" lon="8.19979"><ele>266.0</ele><time>2026-04-18T14:29:53.361Z</time></trkpt><trkpt lat="45.1585483" lon="8.1999817"><ele>266.0</ele><time>2026-04-18T14:29:54.361Z</time></trkpt><trkpt lat="45.158505" lon="8.2001717"><ele>266.0</ele><time>2026-04-18T14:29:55.36Z</time></trkpt><trkpt lat="45.1584517" lon="8.20035"><ele>267.0</ele><time>2026-04-18T14:29:56.361Z</time></trkpt><trkpt lat="45.1584083" lon="8.20053"><ele>268.0</ele><time>2026-04-18T14:29:57.36Z</time></trkpt><trkpt lat="45.1583367" lon="8.2006967"><ele>269.0</ele><time>2026-04-18T14:29:58.361Z</time></trkpt><trkpt lat="45.1582633" lon="8.2008667"><ele>270.0</ele><time>2026-04-18T14:29:59.361Z</time></trkpt><trkpt lat="45.1581833" lon="8.2010317"><ele>270.75</ele><time>2026-04-18T14:30:00.361Z</time></trkpt><trkpt lat="45.1581017" lon="8.2012017"><ele>271.5</ele><time>2026-04-18T14:30:01.361Z</time></trkpt><trkpt lat="45.1580167" lon="8.201355"><ele>272.25</ele><time>2026-04-18T14:30:02.361Z</time></trkpt><trkpt lat="45.1579017" lon="8.2014933"><ele>273.0</ele><time>2026-04-18T14:30:03.361Z</time></trkpt><trkpt lat="45.1578067" lon="8.2016517"><ele>273.0</ele><time>2026-04-18T14:30:04.361Z</time></trkpt><trkpt lat="45.1577067" lon="8.2017983"><ele>273.0</ele><time>2026-04-18T14:30:05.361Z</time></trkpt><trkpt lat="45.1576283" lon="8.201965"><ele>273.0</ele><time>2026-04-18T14:30:06.361Z</time></trkpt><trkpt lat="45.15754" lon="8.2021117"><ele>273.0</ele><time>2026-04-18T14:30:07.361Z</time></trkpt><trkpt lat="45.1574483" lon="8.202245"><ele>271.0</ele><time>2026-04-18T14:30:08.361Z</time></trkpt><trkpt lat="45.1573667" lon="8.2023733"><ele>269.0</ele><time>2026-04-18T14:30:09.361Z</time></trkpt><trkpt lat="45.1572817" lon="8.2024883"><ele>267.0</ele><time>2026-04-18T14:30:10.361Z</time></trkpt><trkpt lat="45.1572033" lon="8.2026"><ele>265.0</ele><time>2026-04-18T14:30:11.36Z</time></trkpt><trkpt lat="45.1570933" lon="8.2026883"><ele>265.0</ele><time>2026-04-18T14:30:12.36Z</time></trkpt><trkpt lat="45.1569933" lon="8.20279"><ele>265.0</ele><time>2026-04-18T14:30:13.361Z</time></trkpt><trkpt lat="45.1568917" lon="8.2028967"><ele>265.0</ele><time>2026-04-18T14:30:14.361Z</time></trkpt><trkpt lat="45.1568" lon="8.2030217"><ele>265.0</ele><time>2026-04-18T14:30:15.36Z</time></trkpt><trkpt lat="45.1567133" lon="8.203155"><ele>267.5</ele><time>2026-04-18T14:30:16.361Z</time></trkpt><trkpt lat="45.15663" lon="8.2033083"><ele>270.0</ele><time>2026-04-18T14:30:17.361Z</time></trkpt><trkpt lat="45.1565517" lon="8.2034633"><ele>272.5</ele><time>2026-04-18T14:30:18.361Z</time></trkpt><trkpt lat="45.1564683" lon="8.2036317"><ele>275.0</ele><time>2026-04-18T14:30:19.361Z</time></trkpt><trkpt lat="45.156385" lon="8.2037933"><ele>272.0</ele><time>2026-04-18T14:30:20.36Z</time></trkpt><trkpt lat="45.1562867" lon="8.203945"><ele>269.0</ele><time>2026-04-18T14:30:21.361Z</time></trkpt><trkpt lat="45.1561867" lon="8.20409"><ele>266.0</ele><time>2026-04-18T14:30:22.36Z</time></trkpt><trkpt lat="45.1560983" lon="8.2042217"><ele>263.0</ele><time>2026-04-18T14:30:23.36Z</time></trkpt><trkpt lat="45.1560017" lon="8.2043483"><ele>263.0</ele><time>2026-04-18T14:30:24.361Z</time></trkpt><trkpt lat="45.1558933" lon="8.2044433"><ele>263.0</ele><time>2026-04-18T14:30:25.36Z</time></trkpt><trkpt lat="45.1557683" lon="8.2045317"><ele>263.0</ele><time>2026-04-18T14:30:26.361Z</time></trkpt><trkpt lat="45.155645" lon="8.2045983"><ele>263.0</ele><time>2026-04-18T14:30:27.361Z</time></trkpt><trkpt lat="45.1555267" lon="8.2046583"><ele>263.2</ele><time>2026-04-18T14:30:28.361Z</time></trkpt><trkpt lat="45.15543" lon="8.204715"><ele>263.4</ele><time>2026-04-18T14:30:29.36Z</time></trkpt><trkpt lat="45.15535" lon="8.204795"><ele>263.59999999999997</ele><time>2026-04-18T14:30:30.361Z</time></trkpt><trkpt lat="45.15529" lon="8.204895"><ele>263.8</ele><time>2026-04-18T14:30:31.361Z</time></trkpt><trkpt lat="45.1552633" lon="8.20501"><ele>264.0</ele><time>2026-04-18T14:30:32.361Z</time></trkpt><trkpt lat="45.1552567" lon="8.2051167"><ele>264.0</ele><time>2026-04-18T14:30:33.361Z</time></trkpt><trkpt lat="45.1552867" lon="8.20521"><ele>264.0</ele><time>2026-04-18T14:30:34.361Z</time></trkpt><trkpt lat="45.15534" lon="8.2052933"><ele>264.0</ele><time>2026-04-18T14:30:35.36Z</time></trkpt><trkpt lat="45.1554167" lon="8.2053617"><ele>264.0</ele><time>2026-04-18T14:30:36.361Z</time></trkpt><trkpt lat="45.155515" lon="8.2054217"><ele>264.0</ele><time>2026-04-18T14:30:37.361Z</time></trkpt><trkpt lat="45.15563" lon="8.20547"><ele>264.75</ele><time>2026-04-18T14:30:38.361Z</time></trkpt><trkpt lat="45.15575" lon="8.2055217"><ele>265.5</ele><time>2026-04-18T14:30:39.361Z</time></trkpt><trkpt lat="45.1558483" lon="8.2056"><ele>266.25</ele><time>2026-04-18T14:30:40.361Z</time></trkpt><trkpt lat="45.1559483" lon="8.2057067"><ele>267.0</ele><time>2026-04-18T14:30:41.361Z</time></trkpt><trkpt lat="45.15603" lon="8.2058383"><ele>267.0</ele><time>2026-04-18T14:30:42.361Z</time></trkpt><trkpt lat="45.1561283" lon="8.20597"><ele>267.0</ele><time>2026-04-18T14:30:43.361Z</time></trkpt><trkpt lat="45.1562233" lon="8.2060883"><ele>267.0</ele><time>2026-04-18T14:30:44.361Z</time></trkpt><trkpt lat="45.1563417" lon="8.20618"><ele>267.0</ele><time>2026-04-18T14:30:45.36Z</time></trkpt><trkpt lat="45.1564583" lon="8.2062733"><ele>267.0</ele><time>2026-04-18T14:30:46.361Z</time></trkpt><trkpt lat="45.1565583" lon="8.206375"><ele>267.0</ele><time>2026-04-18T14:30:47.361Z</time></trkpt><trkpt lat="45.156655" lon="8.206475"><ele>267.0</ele><time>2026-04-18T14:30:48.361Z</time></trkpt><trkpt lat="45.1567467" lon="8.2065617"><ele>267.0</ele><time>2026-04-18T14:30:49.361Z</time></trkpt><trkpt lat="45.1568267" lon="8.2066567"><ele>267.0</ele><time>2026-04-18T14:30:50.361Z</time></trkpt><trkpt lat="45.1568817" lon="8.206805"><ele>267.0</ele><time>2026-04-18T14:30:51.361Z</time></trkpt><trkpt lat="45.1569083" lon="8.2069917"><ele>267.0</ele><time>2026-04-18T14:30:52.361Z</time></trkpt><trkpt lat="45.1568967" lon="8.20718"><ele>267.0</ele><time>2026-04-18T14:30:53.36Z</time></trkpt><trkpt lat="45.15688" lon="8.2073633"><ele>266.5</ele><time>2026-04-18T14:30:54.361Z</time></trkpt><trkpt lat="45.15687" lon="8.2075467"><ele>266.0</ele><time>2026-04-18T14:30:55.361Z</time></trkpt><trkpt lat="45.1568667" lon="8.2077283"><ele>265.5</ele><time>2026-04-18T14:30:56.361Z</time></trkpt><trkpt lat="45.1568583" lon="8.2079083"><ele>265.0</ele><time>2026-04-18T14:30:57.36Z</time></trkpt><trkpt lat="45.1568283" lon="8.2080983"><ele>266.5</ele><time>2026-04-18T14:30:58.361Z</time></trkpt><trkpt lat="45.1568" lon="8.2082817"><ele>268.0</ele><time>2026-04-18T14:30:59.361Z</time></trkpt><trkpt lat="45.1567683" lon="8.2084567"><ele>269.5</ele><time>2026-04-18T14:31:00.361Z</time></trkpt><trkpt lat="45.1567183" lon="8.208645"><ele>271.0</ele><time>2026-04-18T14:31:01.361Z</time></trkpt><trkpt lat="45.1566783" lon="8.2088483"><ele>272.75</ele><time>2026-04-18T14:31:02.361Z</time></trkpt><trkpt lat="45.1566517" lon="8.2090583"><ele>274.5</ele><time>2026-04-18T14:31:03.361Z</time></trkpt><trkpt lat="45.156625" lon="8.20926"><ele>276.25</ele><time>2026-04-18T14:31:04.361Z</time></trkpt><trkpt lat="45.1565833" lon="8.20946"><ele>278.0</ele><time>2026-04-18T14:31:05.361Z</time></trkpt><trkpt lat="45.1565317" lon="8.2096567"><ele>274.0</ele><time>2026-04-18T14:31:06.361Z</time></trkpt><trkpt lat="45.1564717" lon="8.2098567"><ele>270.0</ele><time>2026-04-18T14:31:07.36Z</time></trkpt><trkpt lat="45.1564017" lon="8.2100583"><ele>266.0</ele><time>2026-04-18T14:31:08.36Z</time></trkpt><trkpt lat="45.156335" lon="8.2102667"><ele>266.0</ele><time>2026-04-18T14:31:09.361Z</time></trkpt><trkpt lat="45.1562733" lon="8.210465"><ele>266.0</ele><time>2026-04-18T14:31:10.361Z</time></trkpt><trkpt lat="45.156205" lon="8.2106583"><ele>266.0</ele><time>2026-04-18T14:31:11.361Z</time></trkpt><trkpt lat="45.1561333" lon="8.2108467"><ele>268.75</ele><time>2026-04-18T14:31:12.361Z</time></trkpt><trkpt lat="45.1560683" lon="8.2110267"><ele>271.5</ele><time>2026-04-18T14:31:13.36Z</time></trkpt><trkpt lat="45.1560117" lon="8.211195"><ele>274.25</ele><time>2026-04-18T14:31:14.361Z</time></trkpt><trkpt lat="45.155975" lon="8.21136"><ele>277.0</ele><time>2026-04-18T14:31:15.361Z</time></trkpt><trkpt lat="45.1559467" lon="8.2115383"><ele>281.25</ele><time>2026-04-18T14:31:16.36Z</time></trkpt><trkpt lat="45.1559517" lon="8.21172"><ele>285.5</ele><time>2026-04-18T14:31:17.361Z</time></trkpt><trkpt lat="45.155995" lon="8.2118867"><ele>289.75</ele><time>2026-04-18T14:31:18.361Z</time></trkpt><trkpt lat="45.1560683" lon="8.2120417"><ele>294.0</ele><time>2026-04-18T14:31:19.36Z</time></trkpt><trkpt lat="45.156105" lon="8.21221"><ele>296.25</ele><time>2026-04-18T14:31:20.361Z</time></trkpt><trkpt lat="45.1561483" lon="8.2124283"><ele>298.5</ele><time>2026-04-18T14:31:21.361Z</time></trkpt><trkpt lat="45.1561817" lon="8.21262"><ele>300.75</ele><time>2026-04-18T14:31:22.361Z</time></trkpt><trkpt lat="45.156245" lon="8.21281"><ele>303.0</ele><time>2026-04-18T14:31:23.36Z</time></trkpt><trkpt lat="45.1563383" lon="8.2129833"><ele>303.0</ele><time>2026-04-18T14:31:24.361Z</time></trkpt><trkpt lat="45.1564333" lon="8.2131533"><ele>303.0</ele><time>2026-04-18T14:31:25.361Z</time></trkpt><trkpt lat="45.1565133" lon="8.2133317"><ele>303.0</ele><time>2026-04-18T14:31:26.361Z</time></trkpt><trkpt lat="45.1565833" lon="8.213525"><ele>299.6666666666667</ele><time>2026-04-18T14:31:27.361Z</time></trkpt><trkpt lat="45.1566333" lon="8.21373"><ele>296.33333333333337</ele><time>2026-04-18T14:31:28.361Z</time></trkpt><trkpt lat="45.156665" lon="8.2139467"><ele>293.0</ele><time>2026-04-18T14:31:29.361Z</time></trkpt><trkpt lat="45.1566817" lon="8.2141633"><ele>293.0</ele><time>2026-04-18T14:31:30.361Z</time></trkpt><trkpt lat="45.1566633" lon="8.2143717"><ele>293.0</ele><time>2026-04-18T14:31:31.361Z</time></trkpt><trkpt lat="45.1566367" lon="8.214565"><ele>293.0</ele><time>2026-04-18T14:31:32.361Z</time></trkpt><trkpt lat="45.1565967" lon="8.2147517"><ele>293.0</ele><time>2026-04-18T14:31:33.361Z</time></trkpt><trkpt lat="45.1565583" lon="8.21494"><ele>291.75</ele><time>2026-04-18T14:31:34.361Z</time></trkpt><trkpt lat="45.15653" lon="8.2151367"><ele>290.5</ele><time>2026-04-18T14:31:35.361Z</time></trkpt><trkpt lat="45.1565033" lon="8.2153433"><ele>289.25</ele><time>2026-04-18T14:31:36.36Z</time></trkpt><trkpt lat="45.15648" lon="8.215545"><ele>288.0</ele><time>2026-04-18T14:31:37.361Z</time></trkpt><trkpt lat="45.1564867" lon="8.21573"><ele>293.0</ele><time>2026-04-18T14:31:38.361Z</time></trkpt><trkpt lat="45.1565367" lon="8.2159283"><ele>298.0</ele><time>2026-04-18T14:31:39.36Z</time></trkpt><trkpt lat="45.1566067" lon="8.2161133"><ele>303.0</ele><time>2026-04-18T14:31:40.361Z</time></trkpt><trkpt lat="45.156695" lon="8.216255"><ele>308.0</ele><time>2026-04-18T14:31:41.361Z</time></trkpt><trkpt lat="45.1568017" lon="8.21638"><ele>308.0</ele><time>2026-04-18T14:31:42.361Z</time></trkpt><trkpt lat="45.15691" lon="8.2164717"><ele>308.0</ele><time>2026-04-18T14:31:43.361Z</time></trkpt><trkpt lat="45.1570083" lon="8.2166033"><ele>308.0</ele><time>2026-04-18T14:31:44.361Z</time></trkpt><trkpt lat="45.1570967" lon="8.2167533"><ele>308.0</ele><time>2026-04-18T14:31:45.36Z</time></trkpt><trkpt lat="45.15718" lon="8.2168967"><ele>308.75</ele><time>2026-04-18T14:31:46.361Z</time></trkpt><trkpt lat="45.1572783" lon="8.217005"><ele>309.5</ele><time>2026-04-18T14:31:47.361Z</time></trkpt><trkpt lat="45.1573967" lon="8.2170733"><ele>310.25</ele><time>2026-04-18T14:31:48.361Z</time></trkpt><trkpt lat="45.1575383" lon="8.217105"><ele>311.0</ele><time>2026-04-18T14:31:49.36Z</time></trkpt><trkpt lat="45.157655" lon="8.2171433"><ele>311.0</ele><time>2026-04-18T14:31:50.361Z</time></trkpt><trkpt lat="45.1577983" lon="8.2171567"><ele>311.0</ele><time>2026-04-18T14:31:51.361Z</time></trkpt><trkpt lat="45.15793" lon="8.2171717"><ele>311.0</ele><time>2026-04-18T14:31:52.361Z</time></trkpt><trkpt lat="45.1580583" lon="8.2172083"><ele>311.0</ele><time>2026-04-18T14:31:53.361Z</time></trkpt><trkpt lat="45.1581783" lon="8.2172583"><ele>314.0</ele><time>2026-04-18T14:31:54.36Z</time></trkpt><trkpt lat="45.1582983" lon="8.21734"><ele>317.0</ele><time>2026-04-18T14:31:55.361Z</time></trkpt><trkpt lat="45.1584117" lon="8.2174367"><ele>320.0</ele><time>2026-04-18T14:31:56.361Z</time></trkpt><trkpt lat="45.1585283" lon="8.2175183"><ele>323.0</ele><time>2026-04-18T14:31:57.361Z</time></trkpt><trkpt lat="45.15865" lon="8.217565"><ele>323.0</ele><time>2026-04-18T14:31:58.36Z</time></trkpt><trkpt lat="45.1587717" lon="8.2176083"><ele>323.0</ele><time>2026-04-18T14:31:59.361Z</time></trkpt><trkpt lat="45.1588867" lon="8.2176467"><ele>323.0</ele><time>2026-04-18T14:32:00.361Z</time></trkpt><trkpt lat="45.1590033" lon="8.217695"><ele>323.0</ele><time>2026-04-18T14:32:01.361Z</time></trkpt><trkpt lat="45.1591233" lon="8.2177333"><ele>321.75</ele><time>2026-04-18T14:32:02.361Z</time></trkpt><trkpt lat="45.1592467" lon="8.2177717"><ele>320.5</ele><time>2026-04-18T14:32:03.361Z</time></trkpt><trkpt lat="45.15936" lon="8.2178083"><ele>319.25</ele><time>2026-04-18T14:32:04.36Z</time></trkpt><trkpt lat="45.1594633" lon="8.2178667"><ele>318.0</ele><time>2026-04-18T14:32:05.361Z</time></trkpt><trkpt lat="45.159545" lon="8.2179833"><ele>318.0</ele><time>2026-04-18T14:32:06.361Z</time></trkpt><trkpt lat="45.1596117" lon="8.2181333"><ele>318.0</ele><time>2026-04-18T14:32:07.36Z</time></trkpt><trkpt lat="45.1596617" lon="8.2183167"><ele>318.0</ele><time>2026-04-18T14:32:08.36Z</time></trkpt><trkpt lat="45.1597017" lon="8.2184883"><ele>318.0</ele><time>2026-04-18T14:32:09.361Z</time></trkpt><trkpt lat="45.1597467" lon="8.218665"><ele>318.75</ele><time>2026-04-18T14:32:10.361Z</time></trkpt><trkpt lat="45.15978" lon="8.2188367"><ele>319.5</ele><time>2026-04-18T14:32:11.361Z</time></trkpt><trkpt lat="45.1598017" lon="8.2190217"><ele>320.25</ele><time>2026-04-18T14:32:12.361Z</time></trkpt><trkpt lat="45.1597883" lon="8.219225"><ele>321.0</ele><time>2026-04-18T14:32:13.361Z</time></trkpt><trkpt lat="45.1597833" lon="8.2194067"><ele>319.6</ele><time>2026-04-18T14:32:14.361Z</time></trkpt><trkpt lat="45.1597633" lon="8.219565"><ele>318.20000000000005</ele><time>2026-04-18T14:32:15.361Z</time></trkpt><trkpt lat="45.15974" lon="8.219705"><ele>316.79999999999995</ele><time>2026-04-18T14:32:16.361Z</time></trkpt><trkpt lat="45.1597167" lon="8.2198367"><ele>315.4</ele><time>2026-04-18T14:32:17.361Z</time></trkpt><trkpt lat="45.1596817" lon="8.2199583"><ele>314.0</ele><time>2026-04-18T14:32:18.361Z</time></trkpt><trkpt lat="45.1596333" lon="8.2200633"><ele>313.4</ele><time>2026-04-18T14:32:19.361Z</time></trkpt><trkpt lat="45.159555" lon="8.2201717"><ele>312.79999999999995</ele><time>2026-04-18T14:32:20.361Z</time></trkpt><trkpt lat="45.1594767" lon="8.2202817"><ele>312.20000000000005</ele><time>2026-04-18T14:32:21.361Z</time></trkpt><trkpt lat="45.1593983" lon="8.2203917"><ele>311.6</ele><time>2026-04-18T14:32:22.361Z</time></trkpt><trkpt lat="45.1593283" lon="8.2204833"><ele>311.0</ele><time>2026-04-18T14:32:23.36Z</time></trkpt><trkpt lat="45.15927" lon="8.2205867"><ele>311.6</ele><time>2026-04-18T14:32:24.36Z</time></trkpt><trkpt lat="45.1592217" lon="8.2206967"><ele>312.20000000000005</ele><time>2026-04-18T14:32:25.361Z</time></trkpt><trkpt lat="45.1591833" lon="8.2208233"><ele>312.79999999999995</ele><time>2026-04-18T14:32:26.361Z</time></trkpt><trkpt lat="45.1591767" lon="8.220965"><ele>313.4</ele><time>2026-04-18T14:32:27.361Z</time></trkpt><trkpt lat="45.159195" lon="8.22112"><ele>314.0</ele><time>2026-04-18T14:32:28.361Z</time></trkpt><trkpt lat="45.1592133" lon="8.2212817"><ele>314.0</ele><time>2026-04-18T14:32:29.361Z</time></trkpt><trkpt lat="45.1592517" lon="8.2214467"><ele>314.0</ele><time>2026-04-18T14:32:30.361Z</time></trkpt><trkpt lat="45.15926" lon="8.22161"><ele>314.0</ele><time>2026-04-18T14:32:31.36Z</time></trkpt><trkpt lat="45.1592683" lon="8.2217733"><ele>314.0</ele><time>2026-04-18T14:32:32.36Z</time></trkpt><trkpt lat="45.1592683" lon="8.2219283"><ele>314.0</ele><time>2026-04-18T14:32:33.361Z</time></trkpt><trkpt lat="45.1592983" lon="8.22208"><ele>314.0</ele><time>2026-04-18T14:32:34.361Z</time></trkpt><trkpt lat="45.1593433" lon="8.2222267"><ele>314.0</ele><time>2026-04-18T14:32:35.361Z</time></trkpt><trkpt lat="45.1594033" lon="8.22237"><ele>314.0</ele><time>2026-04-18T14:32:36.361Z</time></trkpt><trkpt lat="45.1594817" lon="8.22252"><ele>314.0</ele><time>2026-04-18T14:32:37.361Z</time></trkpt><trkpt lat="45.1595617" lon="8.2226767"><ele>314.0</ele><time>2026-04-18T14:32:38.36Z</time></trkpt><trkpt lat="45.1596467" lon="8.2228433"><ele>314.0</ele><time>2026-04-18T14:32:39.36Z</time></trkpt><trkpt lat="45.1597267" lon="8.2230117"><ele>314.0</ele><time>2026-04-18T14:32:40.361Z</time></trkpt><trkpt lat="45.1598017" lon="8.2231717"><ele>314.5</ele><time>2026-04-18T14:32:41.361Z</time></trkpt><trkpt lat="45.1598733" lon="8.223315"><ele>315.0</ele><time>2026-04-18T14:32:42.361Z</time></trkpt><trkpt lat="45.15993" lon="8.2234667"><ele>315.5</ele><time>2026-04-18T14:32:43.361Z</time></trkpt><trkpt lat="45.1599767" lon="8.2236417"><ele>316.0</ele><time>2026-04-18T14:32:44.361Z</time></trkpt><trkpt lat="45.1599867" lon="8.2238033"><ele>316.0</ele><time>2026-04-18T14:32:45.361Z</time></trkpt><trkpt lat="45.1599583" lon="8.22396"><ele>316.0</ele><time>2026-04-18T14:32:46.361Z</time></trkpt><trkpt lat="45.15994" lon="8.2241217"><ele>316.0</ele><time>2026-04-18T14:32:47.361Z</time></trkpt><trkpt lat="45.1599367" lon="8.2242967"><ele>316.0</ele><time>2026-04-18T14:32:48.361Z</time></trkpt><trkpt lat="45.159945" lon="8.2244733"><ele>318.25</ele><time>2026-04-18T14:32:49.361Z</time></trkpt><trkpt lat="45.1599617" lon="8.2246617"><ele>320.5</ele><time>2026-04-18T14:32:50.361Z</time></trkpt><trkpt lat="45.1599733" lon="8.2248333"><ele>322.75</ele><time>2026-04-18T14:32:51.361Z</time></trkpt><trkpt lat="45.1599617" lon="8.225"><ele>325.0</ele><time>2026-04-18T14:32:52.361Z</time></trkpt><trkpt lat="45.159925" lon="8.225155"><ele>325.5</ele><time>2026-04-18T14:32:53.361Z</time></trkpt><trkpt lat="45.159885" lon="8.225315"><ele>326.0</ele><time>2026-04-18T14:32:54.36Z</time></trkpt><trkpt lat="45.1598417" lon="8.2254767"><ele>326.5</ele><time>2026-04-18T14:32:55.361Z</time></trkpt><trkpt lat="45.1597933" lon="8.2256433"><ele>327.0</ele><time>2026-04-18T14:32:56.361Z</time></trkpt><trkpt lat="45.1597383" lon="8.2258117"><ele>324.75</ele><time>2026-04-18T14:32:57.361Z</time></trkpt><trkpt lat="45.15967" lon="8.2259733"><ele>322.5</ele><time>2026-04-18T14:32:58.361Z</time></trkpt><trkpt lat="45.1596" lon="8.2261317"><ele>320.25</ele><time>2026-04-18T14:32:59.361Z</time></trkpt><trkpt lat="45.1595117" lon="8.2262717"><ele>318.0</ele><time>2026-04-18T14:33:00.361Z</time></trkpt><trkpt lat="45.1594267" lon="8.2264133"><ele>321.0</ele><time>2026-04-18T14:33:01.36Z</time></trkpt><trkpt lat="45.15934" lon="8.22655"><ele>324.0</ele><time>2026-04-18T14:33:02.361Z</time></trkpt><trkpt lat="45.1592717" lon="8.2266917"><ele>327.0</ele><time>2026-04-18T14:33:03.36Z</time></trkpt><trkpt lat="45.1592033" lon="8.2268267"><ele>330.0</ele><time>2026-04-18T14:33:04.361Z</time></trkpt><trkpt lat="45.15911" lon="8.2269617"><ele>329.75</ele><time>2026-04-18T14:33:05.361Z</time></trkpt><trkpt lat="45.1590317" lon="8.2270983"><ele>329.5</ele><time>2026-04-18T14:33:06.361Z</time></trkpt><trkpt lat="45.1589567" lon="8.2272533"><ele>329.25</ele><time>2026-04-18T14:33:07.361Z</time></trkpt><trkpt lat="45.1588983" lon="8.2274133"><ele>329.0</ele><time>2026-04-18T14:33:08.36Z</time></trkpt><trkpt lat="45.158845" lon="8.2275783"><ele>329.0</ele><time>2026-04-18T14:33:09.361Z</time></trkpt><trkpt lat="45.1588117" lon="8.2277367"><ele>329.0</ele><time>2026-04-18T14:33:10.36Z</time></trkpt><trkpt lat="45.1587683" lon="8.2278683"><ele>329.0</ele><time>2026-04-18T14:33:11.361Z</time></trkpt><trkpt lat="45.1586967" lon="8.22799"><ele>329.0</ele><time>2026-04-18T14:33:12.361Z</time></trkpt><trkpt lat="45.15861" lon="8.2281133"><ele>329.0</ele><time>2026-04-18T14:33:13.361Z</time></trkpt><trkpt lat="45.15851" lon="8.2282167"><ele>329.0</ele><time>2026-04-18T14:33:14.361Z</time></trkpt><trkpt lat="45.1583883" lon="8.22829"><ele>329.0</ele><time>2026-04-18T14:33:15.361Z</time></trkpt><trkpt lat="45.15825" lon="8.2283617"><ele>329.0</ele><time>2026-04-18T14:33:16.361Z</time></trkpt><trkpt lat="45.1581383" lon="8.2284383"><ele>326.5</ele><time>2026-04-18T14:33:17.361Z</time></trkpt><trkpt lat="45.158025" lon="8.22852"><ele>324.0</ele><time>2026-04-18T14:33:18.36Z</time></trkpt><trkpt lat="45.157915" lon="8.2286133"><ele>321.5</ele><time>2026-04-18T14:33:19.361Z</time></trkpt><trkpt lat="45.15781" lon="8.22872"><ele>319.0</ele><time>2026-04-18T14:33:20.361Z</time></trkpt><trkpt lat="45.15772" lon="8.2288367"><ele>319.0</ele><time>2026-04-18T14:33:21.361Z</time></trkpt><trkpt lat="45.15763" lon="8.2289583"><ele>319.0</ele><time>2026-04-18T14:33:22.361Z</time></trkpt><trkpt lat="45.1575383" lon="8.2290567"><ele>319.0</ele><time>2026-04-18T14:33:23.36Z</time></trkpt><trkpt lat="45.1574267" lon="8.2291617"><ele>319.0</ele><time>2026-04-18T14:33:24.361Z</time></trkpt><trkpt lat="45.15733" lon="8.2292533"><ele>320.5</ele><time>2026-04-18T14:33:25.361Z</time></trkpt><trkpt lat="45.157215" lon="8.2293267"><ele>322.0</ele><time>2026-04-18T14:33:26.36Z</time></trkpt><trkpt lat="45.15709" lon="8.22939"><ele>323.5</ele><time>2026-04-18T14:33:27.361Z</time></trkpt><trkpt lat="45.1569683" lon="8.22944"><ele>325.0</ele><time>2026-04-18T14:33:28.361Z</time></trkpt><trkpt lat="45.15684" lon="8.22951"><ele>325.0</ele><time>2026-04-18T14:33:29.36Z</time></trkpt><trkpt lat="45.156715" lon="8.2295483"><ele>325.0</ele><time>2026-04-18T14:33:30.36Z</time></trkpt><trkpt lat="45.1565967" lon="8.2295583"><ele>325.0</ele><time>2026-04-18T14:33:31.361Z</time></trkpt><trkpt lat="45.1564783" lon="8.2295467"><ele>325.0</ele><time>2026-04-18T14:33:32.361Z</time></trkpt><trkpt lat="45.1563717" lon="8.2295417"><ele>323.2</ele><time>2026-04-18T14:33:33.361Z</time></trkpt><trkpt lat="45.15628" lon="8.2295833"><ele>321.4</ele><time>2026-04-18T14:33:34.36Z</time></trkpt><trkpt lat="45.1562133" lon="8.2296733"><ele>319.6</ele><time>2026-04-18T14:33:35.361Z</time></trkpt><trkpt lat="45.1561783" lon="8.2298017"><ele>317.8</ele><time>2026-04-18T14:33:36.36Z</time></trkpt><trkpt lat="45.1561683" lon="8.2299567"><ele>316.0</ele><time>2026-04-18T14:33:37.36Z</time></trkpt><trkpt lat="45.156195" lon="8.230155"><ele>316.0</ele><time>2026-04-18T14:33:38.361Z</time></trkpt><trkpt lat="45.1562083" lon="8.2303483"><ele>316.0</ele><time>2026-04-18T14:33:39.36Z</time></trkpt><trkpt lat="45.15621" lon="8.2305417"><ele>316.0</ele><time>2026-04-18T14:33:40.361Z</time></trkpt><trkpt lat="45.156195" lon="8.23073"><ele>316.0</ele><time>2026-04-18T14:33:41.36Z</time></trkpt><trkpt lat="45.1561567" lon="8.23091"><ele>317.25</ele><time>2026-04-18T14:33:42.361Z</time></trkpt><trkpt lat="45.1561033" lon="8.2310817"><ele>318.5</ele><time>2026-04-18T14:33:43.361Z</time></trkpt><trkpt lat="45.1560367" lon="8.2312483"><ele>319.75</ele><time>2026-04-18T14:33:44.36Z</time></trkpt><trkpt lat="45.1559583" lon="8.2314183"><ele>321.0</ele><time>2026-04-18T14:33:45.361Z</time></trkpt><trkpt lat="45.1558817" lon="8.231575"><ele>321.0</ele><time>2026-04-18T14:33:46.361Z</time></trkpt><trkpt lat="45.15581" lon="8.231715"><ele>321.0</ele><time>2026-04-18T14:33:47.361Z</time></trkpt><trkpt lat="45.1557217" lon="8.2318417"><ele>321.0</ele><time>2026-04-18T14:33:48.361Z</time></trkpt><trkpt lat="45.155625" lon="8.23196"><ele>321.0</ele><time>2026-04-18T14:33:49.361Z</time></trkpt><trkpt lat="45.1555367" lon="8.2320667"><ele>321.0</ele><time>2026-04-18T14:33:50.36Z</time></trkpt><trkpt lat="45.1554367" lon="8.2321483"><ele>321.0</ele><time>2026-04-18T14:33:51.361Z</time></trkpt><trkpt lat="45.1553317" lon="8.23221"><ele>321.0</ele><time>2026-04-18T14:33:52.36Z</time></trkpt><trkpt lat="45.1552083" lon="8.2322567"><ele>321.0</ele><time>2026-04-18T14:33:53.359Z</time></trkpt><trkpt lat="45.1550767" lon="8.2322917"><ele>326.5</ele><time>2026-04-18T14:33:54.361Z</time></trkpt><trkpt lat="45.154945" lon="8.2323217"><ele>332.0</ele><time>2026-04-18T14:33:55.36Z</time></trkpt><trkpt lat="45.1548133" lon="8.232355"><ele>337.5</ele><time>2026-04-18T14:33:56.361Z</time></trkpt><trkpt lat="45.1546767" lon="8.232395"><ele>343.0</ele><time>2026-04-18T14:33:57.36Z</time></trkpt><trkpt lat="45.1545417" lon="8.2324283"><ele>342.5</ele><time>2026-04-18T14:33:58.361Z</time></trkpt><trkpt lat="45.1544" lon="8.2324533"><ele>342.0</ele><time>2026-04-18T14:33:59.36Z</time></trkpt><trkpt lat="45.15427" lon="8.2324733"><ele>341.5</ele><time>2026-04-18T14:34:00.361Z</time></trkpt><trkpt lat="45.15414" lon="8.2325033"><ele>341.0</ele><time>2026-04-18T14:34:01.361Z</time></trkpt><trkpt lat="45.15401" lon="8.23249"><ele>341.0</ele><time>2026-04-18T14:34:02.361Z</time></trkpt><trkpt lat="45.153875" lon="8.232495"><ele>341.0</ele><time>2026-04-18T14:34:03.361Z</time></trkpt><trkpt lat="45.1537233" lon="8.2325083"><ele>341.0</ele><time>2026-04-18T14:34:04.361Z</time></trkpt><trkpt lat="45.153575" lon="8.2325217"><ele>341.0</ele><time>2026-04-18T14:34:05.361Z</time></trkpt><trkpt lat="45.1534333" lon="8.2325317"><ele>341.0</ele><time>2026-04-18T14:34:06.36Z</time></trkpt><trkpt lat="45.1533167" lon="8.2325333"><ele>341.0</ele><time>2026-04-18T14:34:07.361Z</time></trkpt><trkpt lat="45.1532533" lon="8.2325683"><ele>341.0</ele><time>2026-04-18T14:34:08.361Z</time></trkpt><trkpt lat="45.1532033" lon="8.2327033"><ele>341.0</ele><time>2026-04-18T14:34:10.361Z</time></trkpt><trkpt lat="45.153235" lon="8.2327983"><ele>341.0</ele><time>2026-04-18T14:34:11.361Z</time></trkpt><trkpt lat="45.1532967" lon="8.232905"><ele>341.0</ele><time>2026-04-18T14:34:12.36Z</time></trkpt><trkpt lat="45.15339" lon="8.2330233"><ele>341.0</ele><time>2026-04-18T14:34:13.36Z</time></trkpt><trkpt lat="45.1534917" lon="8.2331567"><ele>341.0</ele><time>2026-04-18T14:34:14.359Z</time></trkpt><trkpt lat="45.153585" lon="8.2332933"><ele>341.0</ele><time>2026-04-18T14:34:15.36Z</time></trkpt><trkpt lat="45.1536767" lon="8.2334433"><ele>341.25</ele><time>2026-04-18T14:34:16.359Z</time></trkpt><trkpt lat="45.1537733" lon="8.2335933"><ele>341.5</ele><time>2026-04-18T14:34:17.36Z</time></trkpt><trkpt lat="45.1538633" lon="8.2337567"><ele>341.75</ele><time>2026-04-18T14:34:18.36Z</time></trkpt><trkpt lat="45.1539467" lon="8.233915"><ele>342.0</ele><time>2026-04-18T14:34:19.359Z</time></trkpt><trkpt lat="45.15402" lon="8.2340533"><ele>340.40000000000003</ele><time>2026-04-18T14:34:20.36Z</time></trkpt><trkpt lat="45.154075" lon="8.2341833"><ele>338.8</ele><time>2026-04-18T14:34:21.359Z</time></trkpt><trkpt lat="45.154105" lon="8.2343283"><ele>337.2</ele><time>2026-04-18T14:34:22.359Z</time></trkpt><trkpt lat="45.1541167" lon="8.234465"><ele>335.6</ele><time>2026-04-18T14:34:23.36Z</time></trkpt><trkpt lat="45.1540883" lon="8.234595"><ele>334.0</ele><time>2026-04-18T14:34:24.359Z</time></trkpt><trkpt lat="45.154035" lon="8.2347283"><ele>334.75</ele><time>2026-04-18T14:34:25.36Z</time></trkpt><trkpt lat="45.1539433" lon="8.2348583"><ele>335.5</ele><time>2026-04-18T14:34:26.359Z</time></trkpt><trkpt lat="45.1538283" lon="8.2349917"><ele>336.25</ele><time>2026-04-18T14:34:27.36Z</time></trkpt><trkpt lat="45.1537183" lon="8.235145"><ele>337.0</ele><time>2026-04-18T14:34:28.359Z</time></trkpt><trkpt lat="45.1536233" lon="8.2352983"><ele>337.0</ele><time>2026-04-18T14:34:29.36Z</time></trkpt><trkpt lat="45.153555" lon="8.235455"><ele>337.0</ele><time>2026-04-18T14:34:30.36Z</time></trkpt><trkpt lat="45.153475" lon="8.2356117"><ele>337.0</ele><time>2026-04-18T14:34:31.359Z</time></trkpt><trkpt lat="45.1534" lon="8.2357633"><ele>337.0</ele><time>2026-04-18T14:34:32.36Z</time></trkpt><trkpt lat="45.15333" lon="8.2359167"><ele>335.0</ele><time>2026-04-18T14:34:33.36Z</time></trkpt><trkpt lat="45.1532583" lon="8.2360667"><ele>333.0</ele><time>2026-04-18T14:34:34.36Z</time></trkpt><trkpt lat="45.15319" lon="8.2362133"><ele>331.0</ele><time>2026-04-18T14:34:35.36Z</time></trkpt><trkpt lat="45.1531283" lon="8.236375"><ele>329.0</ele><time>2026-04-18T14:34:36.36Z</time></trkpt><trkpt lat="45.1530933" lon="8.23653"><ele>335.0</ele><time>2026-04-18T14:34:37.36Z</time></trkpt><trkpt lat="45.1530983" lon="8.2366917"><ele>341.0</ele><time>2026-04-18T14:34:38.36Z</time></trkpt><trkpt lat="45.1531233" lon="8.2368583"><ele>347.0</ele><time>2026-04-18T14:34:39.36Z</time></trkpt><trkpt lat="45.15316" lon="8.2370367"><ele>353.0</ele><time>2026-04-18T14:34:40.36Z</time></trkpt><trkpt lat="45.153165" lon="8.2372317"><ele>354.5</ele><time>2026-04-18T14:34:41.36Z</time></trkpt><trkpt lat="45.1531533" lon="8.23744"><ele>356.0</ele><time>2026-04-18T14:34:42.359Z</time></trkpt><trkpt lat="45.15313" lon="8.2376533"><ele>357.5</ele><time>2026-04-18T14:34:43.359Z</time></trkpt><trkpt lat="45.1530717" lon="8.23784"><ele>359.0</ele><time>2026-04-18T14:34:44.359Z</time></trkpt><trkpt lat="45.1530017" lon="8.2380083"><ele>353.6666666666667</ele><time>2026-04-18T14:34:45.36Z</time></trkpt><trkpt lat="45.152915" lon="8.2381833"><ele>348.3333333333333</ele><time>2026-04-18T14:34:46.36Z</time></trkpt><trkpt lat="45.1528383" lon="8.23839"><ele>343.0</ele><time>2026-04-18T14:34:47.36Z</time></trkpt><trkpt lat="45.152805" lon="8.23862"><ele>343.0</ele><time>2026-04-18T14:34:48.36Z</time></trkpt><trkpt lat="45.15277" lon="8.2388467"><ele>343.0</ele><time>2026-04-18T14:34:49.36Z</time></trkpt><trkpt lat="45.15275" lon="8.2390633"><ele>343.0</ele><time>2026-04-18T14:34:50.36Z</time></trkpt><trkpt lat="45.1527367" lon="8.239255"><ele>342.0</ele><time>2026-04-18T14:34:51.36Z</time></trkpt><trkpt lat="45.1527267" lon="8.23944"><ele>341.0</ele><time>2026-04-18T14:34:52.36Z</time></trkpt><trkpt lat="45.1527433" lon="8.2396433"><ele>340.0</ele><time>2026-04-18T14:34:53.359Z</time></trkpt><trkpt lat="45.1527883" lon="8.2398267"><ele>339.0</ele><time>2026-04-18T14:34:54.36Z</time></trkpt><trkpt lat="45.1528533" lon="8.2399967"><ele>339.0</ele><time>2026-04-18T14:34:55.36Z</time></trkpt><trkpt lat="45.1529533" lon="8.2401467"><ele>339.0</ele><time>2026-04-18T14:34:56.359Z</time></trkpt><trkpt lat="45.1530883" lon="8.2402667"><ele>339.0</ele><time>2026-04-18T14:34:57.36Z</time></trkpt><trkpt lat="45.1532133" lon="8.24037"><ele>338.75</ele><time>2026-04-18T14:34:58.36Z</time></trkpt><trkpt lat="45.1533333" lon="8.24048"><ele>338.5</ele><time>2026-04-18T14:34:59.36Z</time></trkpt><trkpt lat="45.1534383" lon="8.2406317"><ele>338.25</ele><time>2026-04-18T14:35:00.36Z</time></trkpt><trkpt lat="45.1535417" lon="8.240745"><ele>338.0</ele><time>2026-04-18T14:35:01.359Z</time></trkpt><trkpt lat="45.1536633" lon="8.2408067"><ele>338.25</ele><time>2026-04-18T14:35:02.36Z</time></trkpt><trkpt lat="45.1537933" lon="8.2408417"><ele>338.5</ele><time>2026-04-18T14:35:03.36Z</time></trkpt><trkpt lat="45.153945" lon="8.24085"><ele>338.75</ele><time>2026-04-18T14:35:04.36Z</time></trkpt><trkpt lat="45.1540867" lon="8.2409"><ele>339.0</ele><time>2026-04-18T14:35:05.36Z</time></trkpt><trkpt lat="45.1542233" lon="8.2410017"><ele>339.0</ele><time>2026-04-18T14:35:06.36Z</time></trkpt><trkpt lat="45.1543617" lon="8.2410517"><ele>339.0</ele><time>2026-04-18T14:35:07.36Z</time></trkpt><trkpt lat="45.1545083" lon="8.2410433"><ele>339.0</ele><time>2026-04-18T14:35:08.36Z</time></trkpt><trkpt lat="45.154645" lon="8.240995"><ele>339.0</ele><time>2026-04-18T14:35:09.36Z</time></trkpt><trkpt lat="45.15476" lon="8.2409267"><ele>336.25</ele><time>2026-04-18T14:35:10.36Z</time></trkpt><trkpt lat="45.1548717" lon="8.2409033"><ele>333.5</ele><time>2026-04-18T14:35:11.36Z</time></trkpt><trkpt lat="45.15499" lon="8.2409483"><ele>330.75</ele><time>2026-04-18T14:35:12.36Z</time></trkpt><trkpt lat="45.1550917" lon="8.2410517"><ele>328.0</ele><time>2026-04-18T14:35:13.36Z</time></trkpt><trkpt lat="45.1551817" lon="8.2411917"><ele>328.0</ele><time>2026-04-18T14:35:14.36Z</time></trkpt><trkpt lat="45.155275" lon="8.24134"><ele>328.0</ele><time>2026-04-18T14:35:15.36Z</time></trkpt><trkpt lat="45.1553883" lon="8.2414433"><ele>328.0</ele><time>2026-04-18T14:35:16.36Z</time></trkpt><trkpt lat="45.1555217" lon="8.241495"><ele>328.0</ele><time>2026-04-18T14:35:17.36Z</time></trkpt><trkpt lat="45.155665" lon="8.2414917"><ele>325.66666666666663</ele><time>2026-04-18T14:35:18.36Z</time></trkpt><trkpt lat="45.155825" lon="8.2414733"><ele>323.3333333333333</ele><time>2026-04-18T14:35:19.36Z</time></trkpt><trkpt lat="45.15598" lon="8.2414717"><ele>321.0</ele><time>2026-04-18T14:35:20.36Z</time></trkpt><trkpt lat="45.156135" lon="8.241485"><ele>321.0</ele><time>2026-04-18T14:35:21.36Z</time></trkpt><trkpt lat="45.1562833" lon="8.241535"><ele>321.0</ele><time>2026-04-18T14:35:22.359Z</time></trkpt><trkpt lat="45.1564367" lon="8.2416083"><ele>321.0</ele><time>2026-04-18T14:35:23.36Z</time></trkpt><trkpt lat="45.1565833" lon="8.241685"><ele>322.0</ele><time>2026-04-18T14:35:24.36Z</time></trkpt><trkpt lat="45.1567233" lon="8.24176"><ele>323.0</ele><time>2026-04-18T14:35:25.36Z</time></trkpt><trkpt lat="45.1568567" lon="8.2418433"><ele>324.0</ele><time>2026-04-18T14:35:26.36Z</time></trkpt><trkpt lat="45.1569867" lon="8.2419317"><ele>325.0</ele><time>2026-04-18T14:35:27.36Z</time></trkpt><trkpt lat="45.15711" lon="8.2420333"><ele>325.0</ele><time>2026-04-18T14:35:28.359Z</time></trkpt><trkpt lat="45.1572217" lon="8.24216"><ele>325.0</ele><time>2026-04-18T14:35:29.36Z</time></trkpt><trkpt lat="45.1573233" lon="8.2423033"><ele>325.0</ele><time>2026-04-18T14:35:30.36Z</time></trkpt><trkpt lat="45.157425" lon="8.24247"><ele>325.0</ele><time>2026-04-18T14:35:31.36Z</time></trkpt><trkpt lat="45.157525" lon="8.24264"><ele>323.5</ele><time>2026-04-18T14:35:32.36Z</time></trkpt><trkpt lat="45.1576033" lon="8.2428167"><ele>322.0</ele><time>2026-04-18T14:35:33.36Z</time></trkpt><trkpt lat="45.1576867" lon="8.2429717"><ele>320.5</ele><time>2026-04-18T14:35:34.36Z</time></trkpt><trkpt lat="45.1577783" lon="8.2431133"><ele>319.0</ele><time>2026-04-18T14:35:35.36Z</time></trkpt><trkpt lat="45.1578717" lon="8.243265"><ele>318.5</ele><time>2026-04-18T14:35:36.36Z</time></trkpt><trkpt lat="45.157965" lon="8.243415"><ele>318.0</ele><time>2026-04-18T14:35:37.36Z</time></trkpt><trkpt lat="45.1580683" lon="8.2435617"><ele>317.5</ele><time>2026-04-18T14:35:38.36Z</time></trkpt><trkpt lat="45.1581783" lon="8.2436883"><ele>317.0</ele><time>2026-04-18T14:35:39.36Z</time></trkpt><trkpt lat="45.1583083" lon="8.24381"><ele>317.0</ele><time>2026-04-18T14:35:40.36Z</time></trkpt><trkpt lat="45.158435" lon="8.2439233"><ele>317.0</ele><time>2026-04-18T14:35:41.359Z</time></trkpt><trkpt lat="45.1585533" lon="8.2440383"><ele>317.0</ele><time>2026-04-18T14:35:42.36Z</time></trkpt><trkpt lat="45.158665" lon="8.24416"><ele>317.0</ele><time>2026-04-18T14:35:43.359Z</time></trkpt><trkpt lat="45.15877" lon="8.244265"><ele>315.4</ele><time>2026-04-18T14:35:44.359Z</time></trkpt><trkpt lat="45.1588667" lon="8.2443783"><ele>313.79999999999995</ele><time>2026-04-18T14:35:45.359Z</time></trkpt><trkpt lat="45.1589317" lon="8.2445067"><ele>312.2</ele><time>2026-04-18T14:35:46.36Z</time></trkpt><trkpt lat="45.1589817" lon="8.2446417"><ele>310.59999999999997</ele><time>2026-04-18T14:35:47.359Z</time></trkpt><trkpt lat="45.1589933" lon="8.2447817"><ele>309.0</ele><time>2026-04-18T14:35:48.36Z</time></trkpt><trkpt lat="45.15899" lon="8.244965"><ele>305.5</ele><time>2026-04-18T14:35:49.359Z</time></trkpt><trkpt lat="45.1589633" lon="8.2451633"><ele>302.0</ele><time>2026-04-18T14:35:50.36Z</time></trkpt><trkpt lat="45.1589333" lon="8.2453567"><ele>298.5</ele><time>2026-04-18T14:35:51.36Z</time></trkpt><trkpt lat="45.15892" lon="8.2455083"><ele>295.0</ele><time>2026-04-18T14:35:52.36Z</time></trkpt><trkpt lat="45.158925" lon="8.2456517"><ele>294.3333333333333</ele><time>2026-04-18T14:35:53.36Z</time></trkpt><trkpt lat="45.1589433" lon="8.24578"><ele>293.66666666666663</ele><time>2026-04-18T14:35:54.36Z</time></trkpt><trkpt lat="45.158975" lon="8.2458783"><ele>293.0</ele><time>2026-04-18T14:35:55.359Z</time></trkpt><trkpt lat="45.1590417" lon="8.2459633"><ele>292.3333333333333</ele><time>2026-04-18T14:35:56.36Z</time></trkpt><trkpt lat="45.1590967" lon="8.2460383"><ele>291.6666666666667</ele><time>2026-04-18T14:35:57.36Z</time></trkpt><trkpt lat="45.1591117" lon="8.246145"><ele>291.0</ele><time>2026-04-18T14:35:58.36Z</time></trkpt><trkpt lat="45.159105" lon="8.2462483"><ele>290.6</ele><time>2026-04-18T14:35:59.36Z</time></trkpt><trkpt lat="45.1590633" lon="8.2463717"><ele>290.20000000000005</ele><time>2026-04-18T14:36:00.36Z</time></trkpt><trkpt lat="45.1589983" lon="8.2464933"><ele>289.79999999999995</ele><time>2026-04-18T14:36:01.36Z</time></trkpt><trkpt lat="45.158915" lon="8.2465833"><ele>289.4</ele><time>2026-04-18T14:36:02.359Z</time></trkpt><trkpt lat="45.158825" lon="8.2466367"><ele>289.0</ele><time>2026-04-18T14:36:03.359Z</time></trkpt><trkpt lat="45.1587333" lon="8.2466683"><ele>289.0</ele><time>2026-04-18T14:36:04.36Z</time></trkpt><trkpt lat="45.1586483" lon="8.2466733"><ele>289.0</ele><time>2026-04-18T14:36:05.359Z</time></trkpt><trkpt lat="45.1585817" lon="8.2466367"><ele>289.0</ele><time>2026-04-18T14:36:06.36Z</time></trkpt><trkpt lat="45.1585333" lon="8.2465617"><ele>289.0</ele><time>2026-04-18T14:36:07.359Z</time></trkpt><trkpt lat="45.1585067" lon="8.2464533"><ele>289.0</ele><time>2026-04-18T14:36:08.36Z</time></trkpt><trkpt lat="45.158495" lon="8.2463033"><ele>289.0</ele><time>2026-04-18T14:36:09.359Z</time></trkpt><trkpt lat="45.1584917" lon="8.2461"><ele>289.66666666666663</ele><time>2026-04-18T14:36:10.36Z</time></trkpt><trkpt lat="45.1584967" lon="8.24585"><ele>290.3333333333333</ele><time>2026-04-18T14:36:11.36Z</time></trkpt><trkpt lat="45.1584933" lon="8.2456433"><ele>291.0</ele><time>2026-04-18T14:36:12.36Z</time></trkpt><trkpt lat="45.15848" lon="8.2454517"><ele>292.0</ele><time>2026-04-18T14:36:13.36Z</time></trkpt><trkpt lat="45.158465" lon="8.24529"><ele>293.0</ele><time>2026-04-18T14:36:14.36Z</time></trkpt><trkpt lat="45.15845" lon="8.2451267"><ele>294.0</ele><time>2026-04-18T14:36:15.36Z</time></trkpt><trkpt lat="45.15843" lon="8.2449667"><ele>295.0</ele><time>2026-04-18T14:36:16.36Z</time></trkpt><trkpt lat="45.1583717" lon="8.24483"><ele>294.75</ele><time>2026-04-18T14:36:17.36Z</time></trkpt><trkpt lat="45.1582983" lon="8.2447217"><ele>294.5</ele><time>2026-04-18T14:36:18.36Z</time></trkpt><trkpt lat="45.1581933" lon="8.2446467"><ele>294.25</ele><time>2026-04-18T14:36:19.36Z</time></trkpt><trkpt lat="45.158085" lon="8.2446333"><ele>294.0</ele><time>2026-04-18T14:36:20.36Z</time></trkpt><trkpt lat="45.15796" lon="8.2446267"><ele>294.0</ele><time>2026-04-18T14:36:21.36Z</time></trkpt><trkpt lat="45.1578167" lon="8.244675"><ele>294.0</ele><time>2026-04-18T14:36:22.36Z</time></trkpt><trkpt lat="45.1576833" lon="8.2447133"><ele>294.0</ele><time>2026-04-18T14:36:23.36Z</time></trkpt><trkpt lat="45.157535" lon="8.24475"><ele>294.0</ele><time>2026-04-18T14:36:24.36Z</time></trkpt><trkpt lat="45.157405" lon="8.2447833"><ele>292.0</ele><time>2026-04-18T14:36:25.36Z</time></trkpt><trkpt lat="45.1572783" lon="8.2448217"><ele>290.0</ele><time>2026-04-18T14:36:26.36Z</time></trkpt><trkpt lat="45.157155" lon="8.2448317"><ele>288.0</ele><time>2026-04-18T14:36:27.359Z</time></trkpt><trkpt lat="45.1570517" lon="8.244855"><ele>286.0</ele><time>2026-04-18T14:36:28.36Z</time></trkpt><trkpt lat="45.15695" lon="8.2449183"><ele>286.0</ele><time>2026-04-18T14:36:29.36Z</time></trkpt><trkpt lat="45.1568667" lon="8.2450117"><ele>286.0</ele><time>2026-04-18T14:36:30.359Z</time></trkpt><trkpt lat="45.1568067" lon="8.2451767"><ele>286.0</ele><time>2026-04-18T14:36:31.36Z</time></trkpt><trkpt lat="45.1567783" lon="8.245365"><ele>286.0</ele><time>2026-04-18T14:36:32.359Z</time></trkpt><trkpt lat="45.1567883" lon="8.245525"><ele>285.0</ele><time>2026-04-18T14:36:33.36Z</time></trkpt><trkpt lat="45.1568433" lon="8.2456517"><ele>284.0</ele><time>2026-04-18T14:36:34.359Z</time></trkpt><trkpt lat="45.1569317" lon="8.245735"><ele>283.0</ele><time>2026-04-18T14:36:35.36Z</time></trkpt><trkpt lat="45.1570483" lon="8.2457817"><ele>282.0</ele><time>2026-04-18T14:36:36.36Z</time></trkpt><trkpt lat="45.1571567" lon="8.2458217"><ele>281.0</ele><time>2026-04-18T14:36:37.359Z</time></trkpt><trkpt lat="45.1572567" lon="8.2458767"><ele>281.0</ele><time>2026-04-18T14:36:38.36Z</time></trkpt><trkpt lat="45.1573333" lon="8.2459967"><ele>281.0</ele><time>2026-04-18T14:36:39.36Z</time></trkpt><trkpt lat="45.1573883" lon="8.2461517"><ele>281.0</ele><time>2026-04-18T14:36:40.36Z</time></trkpt><trkpt lat="45.1574117" lon="8.24631"><ele>281.0</ele><time>2026-04-18T14:36:41.36Z</time></trkpt><trkpt lat="45.15742" lon="8.2464933"><ele>279.5</ele><time>2026-04-18T14:36:42.36Z</time></trkpt><trkpt lat="45.157435" lon="8.2466883"><ele>278.0</ele><time>2026-04-18T14:36:43.36Z</time></trkpt><trkpt lat="45.1574567" lon="8.2468833"><ele>276.5</ele><time>2026-04-18T14:36:44.36Z</time></trkpt><trkpt lat="45.1574817" lon="8.2470867"><ele>275.0</ele><time>2026-04-18T14:36:45.36Z</time></trkpt><trkpt lat="45.157515" lon="8.2472983"><ele>273.0</ele><time>2026-04-18T14:36:46.359Z</time></trkpt><trkpt lat="45.1575817" lon="8.2474833"><ele>271.0</ele><time>2026-04-18T14:36:47.36Z</time></trkpt><trkpt lat="45.157655" lon="8.2476717"><ele>269.0</ele><time>2026-04-18T14:36:48.359Z</time></trkpt><trkpt lat="45.157735" lon="8.2478433"><ele>267.0</ele><time>2026-04-18T14:36:49.36Z</time></trkpt><trkpt lat="45.1578067" lon="8.2480317"><ele>264.75</ele><time>2026-04-18T14:36:50.36Z</time></trkpt><trkpt lat="45.157865" lon="8.2482283"><ele>262.5</ele><time>2026-04-18T14:36:51.36Z</time></trkpt><trkpt lat="45.1578933" lon="8.2484367"><ele>260.25</ele><time>2026-04-18T14:36:52.36Z</time></trkpt><trkpt lat="45.1578933" lon="8.2486417"><ele>258.0</ele><time>2026-04-18T14:36:53.36Z</time></trkpt><trkpt lat="45.157865" lon="8.2488383"><ele>257.0</ele><time>2026-04-18T14:36:54.359Z</time></trkpt><trkpt lat="45.15782" lon="8.2490283"><ele>256.0</ele><time>2026-04-18T14:36:55.36Z</time></trkpt><trkpt lat="45.1577667" lon="8.2492333"><ele>255.0</ele><time>2026-04-18T14:36:56.36Z</time></trkpt><trkpt lat="45.1576967" lon="8.2494317"><ele>255.0</ele><time>2026-04-18T14:36:57.359Z</time></trkpt><trkpt lat="45.1576333" lon="8.2496367"><ele>255.0</ele><time>2026-04-18T14:36:58.36Z</time></trkpt><trkpt lat="45.1575683" lon="8.2498433"><ele>255.0</ele><time>2026-04-18T14:36:59.36Z</time></trkpt><trkpt lat="45.1575067" lon="8.2500433"><ele>254.66666666666669</ele><time>2026-04-18T14:37:00.36Z</time></trkpt><trkpt lat="45.1574533" lon="8.25025"><ele>254.33333333333334</ele><time>2026-04-18T14:37:01.359Z</time></trkpt><trkpt lat="45.1573967" lon="8.2504517"><ele>254.0</ele><time>2026-04-18T14:37:02.359Z</time></trkpt><trkpt lat="45.15733" lon="8.2506567"><ele>249.75</ele><time>2026-04-18T14:37:03.36Z</time></trkpt><trkpt lat="45.1572833" lon="8.2508667"><ele>245.5</ele><time>2026-04-18T14:37:04.359Z</time></trkpt><trkpt lat="45.157235" lon="8.2510667"><ele>241.25</ele><time>2026-04-18T14:37:05.36Z</time></trkpt><trkpt lat="45.1571883" lon="8.251255"><ele>237.0</ele><time>2026-04-18T14:37:06.36Z</time></trkpt><trkpt lat="45.1571433" lon="8.2514367"><ele>237.5</ele><time>2026-04-18T14:37:07.36Z</time></trkpt><trkpt lat="45.1571067" lon="8.251615"><ele>238.0</ele><time>2026-04-18T14:37:08.359Z</time></trkpt><trkpt lat="45.1570767" lon="8.251785"><ele>238.5</ele><time>2026-04-18T14:37:09.36Z</time></trkpt><trkpt lat="45.157055" lon="8.2519583"><ele>239.0</ele><time>2026-04-18T14:37:10.36Z</time></trkpt><trkpt lat="45.1570183" lon="8.2521083"><ele>239.0</ele><time>2026-04-18T14:37:11.36Z</time></trkpt><trkpt lat="45.156975" lon="8.2522367"><ele>239.0</ele><time>2026-04-18T14:37:12.36Z</time></trkpt><trkpt lat="45.1568967" lon="8.2523433"><ele>239.0</ele><time>2026-04-18T14:37:13.36Z</time></trkpt><trkpt lat="45.1567967" lon="8.252435"><ele>239.0</ele><time>2026-04-18T14:37:14.36Z</time></trkpt><trkpt lat="45.1566883" lon="8.25252"><ele>240.0</ele><time>2026-04-18T14:37:15.359Z</time></trkpt><trkpt lat="45.1565883" lon="8.25263"><ele>241.0</ele><time>2026-04-18T14:37:16.36Z</time></trkpt><trkpt lat="45.1564917" lon="8.2527517"><ele>242.0</ele><time>2026-04-18T14:37:17.36Z</time></trkpt><trkpt lat="45.156405" lon="8.252875"><ele>243.0</ele><time>2026-04-18T14:37:18.36Z</time></trkpt><trkpt lat="45.156325" lon="8.253"><ele>240.4</ele><time>2026-04-18T14:37:19.36Z</time></trkpt><trkpt lat="45.1562533" lon="8.2531317"><ele>237.8</ele><time>2026-04-18T14:37:20.36Z</time></trkpt><trkpt lat="45.156195" lon="8.2532617"><ele>235.2</ele><time>2026-04-18T14:37:21.359Z</time></trkpt><trkpt lat="45.156145" lon="8.2533833"><ele>232.6</ele><time>2026-04-18T14:37:22.36Z</time></trkpt><trkpt lat="45.1561133" lon="8.253505"><ele>230.0</ele><time>2026-04-18T14:37:23.36Z</time></trkpt><trkpt lat="45.1560917" lon="8.2536117"><ele>229.99999999999997</ele><time>2026-04-18T14:37:24.36Z</time></trkpt><trkpt lat="45.1560883" lon="8.2537117"><ele>230.0</ele><time>2026-04-18T14:37:25.359Z</time></trkpt><trkpt lat="45.1560983" lon="8.2538233"><ele>229.99999999999997</ele><time>2026-04-18T14:37:26.36Z</time></trkpt><trkpt lat="45.15612" lon="8.2539267"><ele>229.99999999999997</ele><time>2026-04-18T14:37:27.36Z</time></trkpt><trkpt lat="45.15614" lon="8.2540283"><ele>230.0</ele><time>2026-04-18T14:37:28.36Z</time></trkpt><trkpt lat="45.1561433" lon="8.254125"><ele>229.99999999999997</ele><time>2026-04-18T14:37:29.36Z</time></trkpt><trkpt lat="45.1561133" lon="8.2542217"><ele>229.99999999999997</ele><time>2026-04-18T14:37:30.36Z</time></trkpt><trkpt lat="45.15607" lon="8.2543017"><ele>230.00000000000003</ele><time>2026-04-18T14:37:31.36Z</time></trkpt><trkpt lat="45.1560167" lon="8.2543833"><ele>230.0</ele><time>2026-04-18T14:37:32.36Z</time></trkpt><trkpt lat="45.1559483" lon="8.2544533"><ele>230.0</ele><time>2026-04-18T14:37:33.36Z</time></trkpt><trkpt lat="45.1558917" lon="8.25454"><ele>230.0</ele><time>2026-04-18T14:37:34.36Z</time></trkpt><trkpt lat="45.15586" lon="8.2546617"><ele>230.00000000000003</ele><time>2026-04-18T14:37:35.36Z</time></trkpt><trkpt lat="45.1558517" lon="8.25481"><ele>230.0</ele><time>2026-04-18T14:37:36.359Z</time></trkpt><trkpt lat="45.1558633" lon="8.2550033"><ele>230.66666666666669</ele><time>2026-04-18T14:37:37.359Z</time></trkpt><trkpt lat="45.1558733" lon="8.25523"><ele>231.33333333333331</ele><time>2026-04-18T14:37:38.359Z</time></trkpt><trkpt lat="45.1558833" lon="8.2554617"><ele>232.0</ele><time>2026-04-18T14:37:39.36Z</time></trkpt><trkpt lat="45.1558767" lon="8.2556983"><ele>230.33333333333331</ele><time>2026-04-18T14:37:40.36Z</time></trkpt><trkpt lat="45.1558683" lon="8.2559433"><ele>228.66666666666669</ele><time>2026-04-18T14:37:41.36Z</time></trkpt><trkpt lat="45.1558717" lon="8.25617"><ele>227.0</ele><time>2026-04-18T14:37:42.36Z</time></trkpt><trkpt lat="45.1558867" lon="8.2563883"><ele>224.33333333333334</ele><time>2026-04-18T14:37:43.359Z</time></trkpt><trkpt lat="45.1558917" lon="8.2566117"><ele>221.66666666666669</ele><time>2026-04-18T14:37:44.36Z</time></trkpt><trkpt lat="45.15586" lon="8.2568183"><ele>219.0</ele><time>2026-04-18T14:37:45.359Z</time></trkpt><trkpt lat="45.1558067" lon="8.25703"><ele>219.0</ele><time>2026-04-18T14:37:46.36Z</time></trkpt><trkpt lat="45.1557417" lon="8.2572317"><ele>219.0</ele><time>2026-04-18T14:37:47.36Z</time></trkpt><trkpt lat="45.155655" lon="8.257425"><ele>219.0</ele><time>2026-04-18T14:37:48.36Z</time></trkpt><trkpt lat="45.1555683" lon="8.2576117"><ele>219.25</ele><time>2026-04-18T14:37:49.36Z</time></trkpt><trkpt lat="45.1554717" lon="8.2577717"><ele>219.5</ele><time>2026-04-18T14:37:50.359Z</time></trkpt><trkpt lat="45.1553783" lon="8.2579167"><ele>219.75</ele><time>2026-04-18T14:37:51.36Z</time></trkpt><trkpt lat="45.1552867" lon="8.2580383"><ele>220.0</ele><time>2026-04-18T14:37:52.359Z</time></trkpt><trkpt lat="45.1552083" lon="8.2581867"><ele>220.5</ele><time>2026-04-18T14:37:53.36Z</time></trkpt><trkpt lat="45.1551417" lon="8.2583467"><ele>221.0</ele><time>2026-04-18T14:37:54.36Z</time></trkpt><trkpt lat="45.155075" lon="8.2585133"><ele>221.5</ele><time>2026-04-18T14:37:55.359Z</time></trkpt><trkpt lat="45.1549833" lon="8.25867"><ele>222.0</ele><time>2026-04-18T14:37:56.36Z</time></trkpt><trkpt lat="45.1549" lon="8.25882"><ele>220.25</ele><time>2026-04-18T14:37:57.36Z</time></trkpt><trkpt lat="45.1548183" lon="8.2589933"><ele>218.5</ele><time>2026-04-18T14:37:58.359Z</time></trkpt><trkpt lat="45.1547333" lon="8.2591567"><ele>216.75</ele><time>2026-04-18T14:37:59.36Z</time></trkpt><trkpt lat="45.1546333" lon="8.2593033"><ele>215.0</ele><time>2026-04-18T14:38:00.36Z</time></trkpt><trkpt lat="45.154525" lon="8.2594383"><ele>215.0</ele><time>2026-04-18T14:38:01.36Z</time></trkpt><trkpt lat="45.1544083" lon="8.259515"><ele>215.0</ele><time>2026-04-18T14:38:02.36Z</time></trkpt><trkpt lat="45.1543067" lon="8.2595983"><ele>215.0</ele><time>2026-04-18T14:38:03.36Z</time></trkpt><trkpt lat="45.154225" lon="8.25968"><ele>215.0</ele><time>2026-04-18T14:38:04.36Z</time></trkpt><trkpt lat="45.1541733" lon="8.25978"><ele>215.0</ele><time>2026-04-18T14:38:05.36Z</time></trkpt><trkpt lat="45.15415" lon="8.2599033"><ele>217.25</ele><time>2026-04-18T14:38:06.36Z</time></trkpt><trkpt lat="45.1541533" lon="8.2600383"><ele>219.5</ele><time>2026-04-18T14:38:07.36Z</time></trkpt><trkpt lat="45.15419" lon="8.2601783"><ele>221.75</ele><time>2026-04-18T14:38:08.36Z</time></trkpt><trkpt lat="45.154275" lon="8.2602867"><ele>224.0</ele><time>2026-04-18T14:38:09.359Z</time></trkpt><trkpt lat="45.1543967" lon="8.26038"><ele>224.0</ele><time>2026-04-18T14:38:10.36Z</time></trkpt><trkpt lat="45.1545167" lon="8.260435"><ele>223.99999999999997</ele><time>2026-04-18T14:38:11.36Z</time></trkpt><trkpt lat="45.1546233" lon="8.2604683"><ele>223.99999999999997</ele><time>2026-04-18T14:38:12.36Z</time></trkpt><trkpt lat="45.15472" lon="8.260475"><ele>224.0</ele><time>2026-04-18T14:38:13.36Z</time></trkpt><trkpt lat="45.1548083" lon="8.2604383"><ele>224.0</ele><time>2026-04-18T14:38:14.36Z</time></trkpt><trkpt lat="45.15487" lon="8.2603417"><ele>226.5</ele><time>2026-04-18T14:38:15.36Z</time></trkpt><trkpt lat="45.1549117" lon="8.2602083"><ele>229.0</ele><time>2026-04-18T14:38:16.36Z</time></trkpt><trkpt lat="45.15492" lon="8.2600333"><ele>231.5</ele><time>2026-04-18T14:38:17.359Z</time></trkpt><trkpt lat="45.1548983" lon="8.259845"><ele>234.0</ele><time>2026-04-18T14:38:18.36Z</time></trkpt><trkpt lat="45.1549067" lon="8.2596617"><ele>234.0</ele><time>2026-04-18T14:38:19.36Z</time></trkpt><trkpt lat="45.1549433" lon="8.2595117"><ele>234.0</ele><time>2026-04-18T14:38:20.359Z</time></trkpt><trkpt lat="45.1550217" lon="8.2593883"><ele>234.0</ele><time>2026-04-18T14:38:21.36Z</time></trkpt><trkpt lat="45.1551317" lon="8.259275"><ele>234.0</ele><time>2026-04-18T14:38:22.359Z</time></trkpt><trkpt lat="45.15524" lon="8.25917"><ele>234.0</ele><time>2026-04-18T14:38:23.359Z</time></trkpt><trkpt lat="45.1553417" lon="8.2590633"><ele>234.0</ele><time>2026-04-18T14:38:24.36Z</time></trkpt><trkpt lat="45.155435" lon="8.258965"><ele>234.0</ele><time>2026-04-18T14:38:25.36Z</time></trkpt><trkpt lat="45.1555183" lon="8.2588783"><ele>234.0</ele><time>2026-04-18T14:38:26.36Z</time></trkpt><trkpt lat="45.1556217" lon="8.2588083"><ele>233.5</ele><time>2026-04-18T14:38:27.36Z</time></trkpt><trkpt lat="45.1557183" lon="8.258765"><ele>233.0</ele><time>2026-04-18T14:38:28.359Z</time></trkpt><trkpt lat="45.15585" lon="8.2587817"><ele>232.5</ele><time>2026-04-18T14:38:29.36Z</time></trkpt><trkpt lat="45.1559783" lon="8.258835"><ele>232.0</ele><time>2026-04-18T14:38:30.36Z</time></trkpt><trkpt lat="45.15611" lon="8.2588983"><ele>235.6</ele><time>2026-04-18T14:38:31.36Z</time></trkpt><trkpt lat="45.1562317" lon="8.2589617"><ele>239.2</ele><time>2026-04-18T14:38:32.359Z</time></trkpt><trkpt lat="45.15634" lon="8.2590317"><ele>242.8</ele><time>2026-04-18T14:38:33.36Z</time></trkpt><trkpt lat="45.15643" lon="8.2591083"><ele>246.4</ele><time>2026-04-18T14:38:34.36Z</time></trkpt><trkpt lat="45.1565017" lon="8.259175"><ele>250.0</ele><time>2026-04-18T14:38:35.36Z</time></trkpt><trkpt lat="45.15655" lon="8.2592617"><ele>250.6</ele><time>2026-04-18T14:38:36.36Z</time></trkpt><trkpt lat="45.1565867" lon="8.2593717"><ele>251.2</ele><time>2026-04-18T14:38:37.36Z</time></trkpt><trkpt lat="45.1566067" lon="8.2594933"><ele>251.8</ele><time>2026-04-18T14:38:38.359Z</time></trkpt><trkpt lat="45.15662" lon="8.2596383"><ele>252.4</ele><time>2026-04-18T14:38:39.36Z</time></trkpt><trkpt lat="45.1566333" lon="8.2597833"><ele>253.0</ele><time>2026-04-18T14:38:40.359Z</time></trkpt><trkpt lat="45.1566433" lon="8.25994"><ele>255.0</ele><time>2026-04-18T14:38:41.36Z</time></trkpt><trkpt lat="45.15666" lon="8.2600983"><ele>257.0</ele><time>2026-04-18T14:38:42.36Z</time></trkpt><trkpt lat="45.15669" lon="8.2602667"><ele>259.0</ele><time>2026-04-18T14:38:43.359Z</time></trkpt><trkpt lat="45.156715" lon="8.26044"><ele>261.0</ele><time>2026-04-18T14:38:44.36Z</time></trkpt><trkpt lat="45.1567467" lon="8.2606267"><ele>261.0</ele><time>2026-04-18T14:38:45.36Z</time></trkpt><trkpt lat="45.1567817" lon="8.2608133"><ele>261.0</ele><time>2026-04-18T14:38:46.36Z</time></trkpt><trkpt lat="45.1568067" lon="8.2609817"><ele>261.0</ele><time>2026-04-18T14:38:47.36Z</time></trkpt><trkpt lat="45.15683" lon="8.2611567"><ele>261.0</ele><time>2026-04-18T14:38:48.36Z</time></trkpt><trkpt lat="45.1568583" lon="8.2613167"><ele>261.40000000000003</ele><time>2026-04-18T14:38:49.36Z</time></trkpt><trkpt lat="45.1568783" lon="8.2614617"><ele>261.8</ele><time>2026-04-18T14:38:50.359Z</time></trkpt><trkpt lat="45.1569083" lon="8.2616017"><ele>262.20000000000005</ele><time>2026-04-18T14:38:51.36Z</time></trkpt><trkpt lat="45.1569167" lon="8.26173"><ele>262.6</ele><time>2026-04-18T14:38:52.36Z</time></trkpt><trkpt lat="45.15693" lon="8.2618533"><ele>263.0</ele><time>2026-04-18T14:38:53.36Z</time></trkpt><trkpt lat="45.1569467" lon="8.26197"><ele>263.0</ele><time>2026-04-18T14:38:54.36Z</time></trkpt><trkpt lat="45.1569817" lon="8.2620833"><ele>263.0</ele><time>2026-04-18T14:38:55.36Z</time></trkpt><trkpt lat="45.1570583" lon="8.2621767"><ele>263.0</ele><time>2026-04-18T14:38:56.36Z</time></trkpt><trkpt lat="45.1571533" lon="8.262275"><ele>263.0</ele><time>2026-04-18T14:38:57.359Z</time></trkpt><trkpt lat="45.157255" lon="8.262355"><ele>263.0</ele><time>2026-04-18T14:38:58.36Z</time></trkpt><trkpt lat="45.1573467" lon="8.2624133"><ele>262.25</ele><time>2026-04-18T14:38:59.36Z</time></trkpt><trkpt lat="45.1574367" lon="8.2624717"><ele>261.5</ele><time>2026-04-18T14:39:00.36Z</time></trkpt><trkpt lat="45.157515" lon="8.2625833"><ele>260.75</ele><time>2026-04-18T14:39:01.36Z</time></trkpt><trkpt lat="45.157595" lon="8.26272"><ele>260.0</ele><time>2026-04-18T14:39:02.36Z</time></trkpt><trkpt lat="45.157675" lon="8.2628783"><ele>260.0</ele><time>2026-04-18T14:39:03.36Z</time></trkpt><trkpt lat="45.1577317" lon="8.2630583"><ele>260.0</ele><time>2026-04-18T14:39:04.359Z</time></trkpt><trkpt lat="45.1577967" lon="8.2632317"><ele>260.0</ele><time>2026-04-18T14:39:05.36Z</time></trkpt><trkpt lat="45.157855" lon="8.26339"><ele>260.0</ele><time>2026-04-18T14:39:06.36Z</time></trkpt><trkpt lat="45.157905" lon="8.2635567"><ele>258.25</ele><time>2026-04-18T14:39:07.36Z</time></trkpt><trkpt lat="45.15797" lon="8.263705"><ele>256.5</ele><time>2026-04-18T14:39:08.36Z</time></trkpt><trkpt lat="45.1580467" lon="8.2638183"><ele>254.75</ele><time>2026-04-18T14:39:09.359Z</time></trkpt><trkpt lat="45.1581533" lon="8.263935"><ele>253.0</ele><time>2026-04-18T14:39:10.36Z</time></trkpt><trkpt lat="45.1582867" lon="8.2640733"><ele>253.0</ele><time>2026-04-18T14:39:11.36Z</time></trkpt><trkpt lat="45.1583917" lon="8.264175"><ele>253.0</ele><time>2026-04-18T14:39:12.359Z</time></trkpt><trkpt lat="45.1584983" lon="8.2642733"><ele>253.0</ele><time>2026-04-18T14:39:13.36Z</time></trkpt><trkpt lat="45.158605" lon="8.2643733"><ele>253.0</ele><time>2026-04-18T14:39:14.359Z</time></trkpt><trkpt lat="45.15868" lon="8.2644917"><ele>253.0</ele><time>2026-04-18T14:39:15.359Z</time></trkpt><trkpt lat="45.1587167" lon="8.2646317"><ele>253.0</ele><time>2026-04-18T14:39:16.36Z</time></trkpt><trkpt lat="45.1587217" lon="8.2648"><ele>253.0</ele><time>2026-04-18T14:39:17.36Z</time></trkpt><trkpt lat="45.158695" lon="8.2649983"><ele>253.0</ele><time>2026-04-18T14:39:18.36Z</time></trkpt><trkpt lat="45.158665" lon="8.2651783"><ele>252.2</ele><time>2026-04-18T14:39:19.36Z</time></trkpt><trkpt lat="45.15863" lon="8.2653417"><ele>251.4</ele><time>2026-04-18T14:39:20.36Z</time></trkpt><trkpt lat="45.1586033" lon="8.2654933"><ele>250.59999999999997</ele><time>2026-04-18T14:39:21.36Z</time></trkpt><trkpt lat="45.1585817" lon="8.2656333"><ele>249.79999999999998</ele><time>2026-04-18T14:39:22.359Z</time></trkpt><trkpt lat="45.158555" lon="8.265775"><ele>249.0</ele><time>2026-04-18T14:39:23.36Z</time></trkpt><trkpt lat="45.1585233" lon="8.2659167"><ele>249.0</ele><time>2026-04-18T14:39:24.36Z</time></trkpt><trkpt lat="45.1584933" lon="8.26607"><ele>249.0</ele><time>2026-04-18T14:39:25.36Z</time></trkpt><trkpt lat="45.158465" lon="8.2662267"><ele>249.0</ele><time>2026-04-18T14:39:26.359Z</time></trkpt><trkpt lat="45.1584167" lon="8.2663883"><ele>249.0</ele><time>2026-04-18T14:39:27.36Z</time></trkpt><trkpt lat="45.1583533" lon="8.266545"><ele>250.5</ele><time>2026-04-18T14:39:28.36Z</time></trkpt><trkpt lat="45.158285" lon="8.2666917"><ele>252.0</ele><time>2026-04-18T14:39:29.36Z</time></trkpt><trkpt lat="45.1581967" lon="8.2668083"><ele>253.5</ele><time>2026-04-18T14:39:30.36Z</time></trkpt><trkpt lat="45.1581117" lon="8.26692"><ele>255.0</ele><time>2026-04-18T14:39:31.36Z</time></trkpt><trkpt lat="45.15802" lon="8.2670417"><ele>253.5</ele><time>2026-04-18T14:39:32.36Z</time></trkpt><trkpt lat="45.157935" lon="8.2671483"><ele>252.0</ele><time>2026-04-18T14:39:33.359Z</time></trkpt><trkpt lat="45.1578533" lon="8.2672817"><ele>250.5</ele><time>2026-04-18T14:39:34.36Z</time></trkpt><trkpt lat="45.157795" lon="8.2674317"><ele>249.0</ele><time>2026-04-18T14:39:35.36Z</time></trkpt><trkpt lat="45.1577667" lon="8.2675967"><ele>249.0</ele><time>2026-04-18T14:39:36.36Z</time></trkpt><trkpt lat="45.1577533" lon="8.2677617"><ele>248.99999999999997</ele><time>2026-04-18T14:39:37.36Z</time></trkpt><trkpt lat="45.1577467" lon="8.2679133"><ele>248.99999999999997</ele><time>2026-04-18T14:39:38.359Z</time></trkpt><trkpt lat="45.1577533" lon="8.2680367"><ele>249.0</ele><time>2026-04-18T14:39:39.36Z</time></trkpt><trkpt lat="45.157755" lon="8.2681417"><ele>249.0</ele><time>2026-04-18T14:39:40.36Z</time></trkpt><trkpt lat="45.1577533" lon="8.2682583"><ele>249.5</ele><time>2026-04-18T14:39:41.359Z</time></trkpt><trkpt lat="45.1577567" lon="8.2683733"><ele>250.0</ele><time>2026-04-18T14:39:42.36Z</time></trkpt><trkpt lat="45.1577517" lon="8.2684883"><ele>250.5</ele><time>2026-04-18T14:39:43.36Z</time></trkpt><trkpt lat="45.1577567" lon="8.2686017"><ele>251.0</ele><time>2026-04-18T14:39:44.36Z</time></trkpt><trkpt lat="45.157765" lon="8.2687167"><ele>251.5</ele><time>2026-04-18T14:39:45.36Z</time></trkpt><trkpt lat="45.1577817" lon="8.2688083"><ele>252.0</ele><time>2026-04-18T14:39:46.36Z</time></trkpt><trkpt lat="45.157825" lon="8.2688967"><ele>250.8</ele><time>2026-04-18T14:39:47.36Z</time></trkpt><trkpt lat="45.157905" lon="8.2690183"><ele>249.6</ele><time>2026-04-18T14:39:49.359Z</time></trkpt><trkpt lat="45.1579883" lon="8.26906"><ele>248.40000000000003</ele><time>2026-04-18T14:39:50.36Z</time></trkpt><trkpt lat="45.1580883" lon="8.2690833"><ele>247.20000000000002</ele><time>2026-04-18T14:39:51.36Z</time></trkpt><trkpt lat="45.1582183" lon="8.2690833"><ele>246.0</ele><time>2026-04-18T14:39:52.36Z</time></trkpt><trkpt lat="45.1583583" lon="8.2690767"><ele>246.0</ele><time>2026-04-18T14:39:53.359Z</time></trkpt><trkpt lat="45.1584817" lon="8.2691083"><ele>246.0</ele><time>2026-04-18T14:39:54.36Z</time></trkpt><trkpt lat="45.1585933" lon="8.2691467"><ele>246.0</ele><time>2026-04-18T14:39:55.36Z</time></trkpt><trkpt lat="45.1587017" lon="8.2691783"><ele>246.0</ele><time>2026-04-18T14:39:56.36Z</time></trkpt><trkpt lat="45.1588" lon="8.26923"><ele>246.0</ele><time>2026-04-18T14:39:57.359Z</time></trkpt><trkpt lat="45.1588883" lon="8.2692933"><ele>246.0</ele><time>2026-04-18T14:39:58.36Z</time></trkpt><trkpt lat="45.1589467" lon="8.2694167"><ele>246.0</ele><time>2026-04-18T14:39:59.36Z</time></trkpt><trkpt lat="45.15897" lon="8.2695817"><ele>246.0</ele><time>2026-04-18T14:40:00.359Z</time></trkpt><trkpt lat="45.1589617" lon="8.2697717"><ele>243.75</ele><time>2026-04-18T14:40:01.359Z</time></trkpt><trkpt lat="45.158955" lon="8.2699817"><ele>241.5</ele><time>2026-04-18T14:40:02.36Z</time></trkpt><trkpt lat="45.1589483" lon="8.2701933"><ele>239.25</ele><time>2026-04-18T14:40:03.36Z</time></trkpt><trkpt lat="45.158945" lon="8.2703967"><ele>237.0</ele><time>2026-04-18T14:40:04.359Z</time></trkpt><trkpt lat="45.1589333" lon="8.2706033"><ele>237.0</ele><time>2026-04-18T14:40:05.36Z</time></trkpt><trkpt lat="45.1589267" lon="8.270825"><ele>237.0</ele><time>2026-04-18T14:40:06.359Z</time></trkpt><trkpt lat="45.158925" lon="8.271035"><ele>237.0</ele><time>2026-04-18T14:40:07.36Z</time></trkpt><trkpt lat="45.1589133" lon="8.271235"><ele>237.0</ele><time>2026-04-18T14:40:08.359Z</time></trkpt><trkpt lat="45.158905" lon="8.2714467"><ele>238.5</ele><time>2026-04-18T14:40:09.36Z</time></trkpt><trkpt lat="45.158885" lon="8.2716533"><ele>240.0</ele><time>2026-04-18T14:40:10.359Z</time></trkpt><trkpt lat="45.1588883" lon="8.2718467"><ele>241.5</ele><time>2026-04-18T14:40:11.359Z</time></trkpt><trkpt lat="45.1588883" lon="8.2720183"><ele>243.0</ele><time>2026-04-18T14:40:12.36Z</time></trkpt><trkpt lat="45.1588917" lon="8.2722083"><ele>244.0</ele><time>2026-04-18T14:40:13.36Z</time></trkpt><trkpt lat="45.1588917" lon="8.2723733"><ele>245.0</ele><time>2026-04-18T14:40:14.36Z</time></trkpt><trkpt lat="45.1588633" lon="8.2725533"><ele>246.0</ele><time>2026-04-18T14:40:15.36Z</time></trkpt><trkpt lat="45.1588433" lon="8.2726933"><ele>247.0</ele><time>2026-04-18T14:40:16.36Z</time></trkpt><trkpt lat="45.1588283" lon="8.2727933"><ele>248.0</ele><time>2026-04-18T14:40:17.36Z</time></trkpt><trkpt lat="45.1587933" lon="8.2728983"><ele>248.00000000000003</ele><time>2026-04-18T14:40:19.36Z</time></trkpt><trkpt lat="45.15878" lon="8.2730483"><ele>248.0</ele><time>2026-04-18T14:40:54.359Z</time></trkpt><trkpt lat="45.1587717" lon="8.2731483"><ele>248.0</ele><time>2026-04-18T14:40:55.359Z</time></trkpt><trkpt lat="45.1587617" lon="8.27325"><ele>248.0</ele><time>2026-04-18T14:40:56.36Z</time></trkpt><trkpt lat="45.158765" lon="8.2733533"><ele>248.00000000000003</ele><time>2026-04-18T14:40:57.36Z</time></trkpt><trkpt lat="45.1587833" lon="8.2734533"><ele>248.0</ele><time>2026-04-18T14:40:58.36Z</time></trkpt><trkpt lat="45.1588117" lon="8.2735517"><ele>249.00000000000003</ele><time>2026-04-18T14:40:59.359Z</time></trkpt><trkpt lat="45.1588567" lon="8.27363"><ele>250.0</ele><time>2026-04-18T14:41:00.36Z</time></trkpt><trkpt lat="45.1589217" lon="8.2736967"><ele>251.0</ele><time>2026-04-18T14:41:01.36Z</time></trkpt><trkpt lat="45.1590033" lon="8.2737267"><ele>252.0</ele><time>2026-04-18T14:41:02.359Z</time></trkpt><trkpt lat="45.15909" lon="8.273725"><ele>253.00000000000003</ele><time>2026-04-18T14:41:03.359Z</time></trkpt><trkpt lat="45.15919" lon="8.2736917"><ele>254.0</ele><time>2026-04-18T14:41:04.359Z</time></trkpt><trkpt lat="45.15927" lon="8.27365"><ele>255.79999999999998</ele><time>2026-04-18T14:41:05.36Z</time></trkpt><trkpt lat="45.159365" lon="8.2735983"><ele>257.59999999999997</ele><time>2026-04-18T14:41:06.36Z</time></trkpt><trkpt lat="45.15946" lon="8.273545"><ele>259.4</ele><time>2026-04-18T14:41:07.36Z</time></trkpt><trkpt lat="45.159555" lon="8.2734917"><ele>261.2</ele><time>2026-04-18T14:41:08.36Z</time></trkpt><trkpt lat="45.1596517" lon="8.2734367"><ele>263.0</ele><time>2026-04-18T14:41:09.36Z</time></trkpt><trkpt lat="45.1597467" lon="8.2733717"><ele>263.0</ele><time>2026-04-18T14:41:10.36Z</time></trkpt><trkpt lat="45.1598417" lon="8.273305"><ele>263.0</ele><time>2026-04-18T14:41:11.36Z</time></trkpt><trkpt lat="45.1599283" lon="8.2732217"><ele>263.0</ele><time>2026-04-18T14:41:12.359Z</time></trkpt><trkpt lat="45.160005" lon="8.2731183"><ele>263.0</ele><time>2026-04-18T14:41:13.36Z</time></trkpt><trkpt lat="45.16006" lon="8.272985"><ele>263.0</ele><time>2026-04-18T14:41:14.36Z</time></trkpt><trkpt lat="45.1601083" lon="8.272835"><ele>265.0</ele><time>2026-04-18T14:41:15.36Z</time></trkpt><trkpt lat="45.1601283" lon="8.2726483"><ele>267.0</ele><time>2026-04-18T14:41:16.36Z</time></trkpt><trkpt lat="45.1601317" lon="8.2724867"><ele>269.0</ele><time>2026-04-18T14:41:17.359Z</time></trkpt><trkpt lat="45.1601433" lon="8.2722917"><ele>271.0</ele><time>2026-04-18T14:41:18.36Z</time></trkpt><trkpt lat="45.16016" lon="8.2721383"><ele>271.0</ele><time>2026-04-18T14:41:19.359Z</time></trkpt><trkpt lat="45.1601967" lon="8.2720383"><ele>271.0</ele><time>2026-04-18T14:41:20.36Z</time></trkpt><trkpt lat="45.16025" lon="8.2719783"><ele>271.0</ele><time>2026-04-18T14:41:21.36Z</time></trkpt><trkpt lat="45.160315" lon="8.271955"><ele>271.0</ele><time>2026-04-18T14:41:22.36Z</time></trkpt><trkpt lat="45.1604267" lon="8.27205"><ele>271.0</ele><time>2026-04-18T14:41:24.36Z</time></trkpt><trkpt lat="45.1604617" lon="8.27216"><ele>271.0</ele><time>2026-04-18T14:41:25.36Z</time></trkpt><trkpt lat="45.1604783" lon="8.2723167"><ele>271.5</ele><time>2026-04-18T14:41:26.36Z</time></trkpt><trkpt lat="45.1604767" lon="8.2725017"><ele>272.0</ele><time>2026-04-18T14:41:27.36Z</time></trkpt><trkpt lat="45.160475" lon="8.272685"><ele>272.5</ele><time>2026-04-18T14:41:28.36Z</time></trkpt><trkpt lat="45.1604933" lon="8.2728533"><ele>273.0</ele><time>2026-04-18T14:41:29.359Z</time></trkpt><trkpt lat="45.1604983" lon="8.2730167"><ele>274.0</ele><time>2026-04-18T14:41:30.36Z</time></trkpt><trkpt lat="45.1605183" lon="8.273185"><ele>275.0</ele><time>2026-04-18T14:41:31.36Z</time></trkpt><trkpt lat="45.1605433" lon="8.2733367"><ele>276.0</ele><time>2026-04-18T14:41:32.359Z</time></trkpt><trkpt lat="45.1606" lon="8.2734517"><ele>277.0</ele><time>2026-04-18T14:41:33.36Z</time></trkpt><trkpt lat="45.1606633" lon="8.27358"><ele>278.0</ele><time>2026-04-18T14:41:34.36Z</time></trkpt><trkpt lat="45.160745" lon="8.2736783"><ele>280.8</ele><time>2026-04-18T14:41:35.36Z</time></trkpt><trkpt lat="45.160835" lon="8.27377"><ele>283.6</ele><time>2026-04-18T14:41:36.36Z</time></trkpt><trkpt lat="45.1609183" lon="8.2738583"><ele>286.4</ele><time>2026-04-18T14:41:37.36Z</time></trkpt><trkpt lat="45.1610133" lon="8.2739283"><ele>289.2</ele><time>2026-04-18T14:41:38.36Z</time></trkpt><trkpt lat="45.1611117" lon="8.2739933"><ele>292.0</ele><time>2026-04-18T14:41:39.36Z</time></trkpt><trkpt lat="45.1612133" lon="8.274025"><ele>292.0</ele><time>2026-04-18T14:41:40.36Z</time></trkpt><trkpt lat="45.16134" lon="8.27402"><ele>292.0</ele><time>2026-04-18T14:41:41.36Z</time></trkpt><trkpt lat="45.1614667" lon="8.2740517"><ele>292.0</ele><time>2026-04-18T14:41:42.36Z</time></trkpt><trkpt lat="45.1615733" lon="8.27411"><ele>292.0</ele><time>2026-04-18T14:41:43.36Z</time></trkpt><trkpt lat="45.1616733" lon="8.274205"><ele>293.5</ele><time>2026-04-18T14:41:44.359Z</time></trkpt><trkpt lat="45.161785" lon="8.274315"><ele>295.0</ele><time>2026-04-18T14:41:45.36Z</time></trkpt><trkpt lat="45.1618967" lon="8.2744183"><ele>296.5</ele><time>2026-04-18T14:41:46.359Z</time></trkpt><trkpt lat="45.162005" lon="8.2745183"><ele>298.0</ele><time>2026-04-18T14:41:47.36Z</time></trkpt><trkpt lat="45.16212" lon="8.274615"><ele>298.0</ele><time>2026-04-18T14:41:48.36Z</time></trkpt><trkpt lat="45.1622233" lon="8.274715"><ele>298.0</ele><time>2026-04-18T14:41:49.359Z</time></trkpt><trkpt lat="45.1623167" lon="8.2748283"><ele>298.0</ele><time>2026-04-18T14:41:50.359Z</time></trkpt><trkpt lat="45.1623833" lon="8.2749683"><ele>298.0</ele><time>2026-04-18T14:41:51.36Z</time></trkpt><trkpt lat="45.1624183" lon="8.2751383"><ele>299.5</ele><time>2026-04-18T14:41:52.36Z</time></trkpt><trkpt lat="45.1624233" lon="8.2753"><ele>301.0</ele><time>2026-04-18T14:41:53.36Z</time></trkpt><trkpt lat="45.1623983" lon="8.275485"><ele>302.5</ele><time>2026-04-18T14:41:54.36Z</time></trkpt><trkpt lat="45.162375" lon="8.2756867"><ele>304.0</ele><time>2026-04-18T14:41:55.359Z</time></trkpt><trkpt lat="45.1623533" lon="8.275885"><ele>303.25</ele><time>2026-04-18T14:41:56.359Z</time></trkpt><trkpt lat="45.1623433" lon="8.2760767"><ele>302.5</ele><time>2026-04-18T14:41:57.359Z</time></trkpt><trkpt lat="45.1623383" lon="8.2762683"><ele>301.75</ele><time>2026-04-18T14:41:58.36Z</time></trkpt><trkpt lat="45.16235" lon="8.2764583"><ele>301.0</ele><time>2026-04-18T14:41:59.36Z</time></trkpt><trkpt lat="45.1623683" lon="8.2766417"><ele>301.0</ele><time>2026-04-18T14:42:00.36Z</time></trkpt><trkpt lat="45.1624083" lon="8.2768117"><ele>301.0</ele><time>2026-04-18T14:42:01.36Z</time></trkpt><trkpt lat="45.1624667" lon="8.27698"><ele>301.0</ele><time>2026-04-18T14:42:02.359Z</time></trkpt><trkpt lat="45.16256" lon="8.2771267"><ele>301.0</ele><time>2026-04-18T14:42:03.36Z</time></trkpt><trkpt lat="45.1626517" lon="8.277255"><ele>300.0</ele><time>2026-04-18T14:42:04.36Z</time></trkpt><trkpt lat="45.1627167" lon="8.2774167"><ele>299.0</ele><time>2026-04-18T14:42:05.36Z</time></trkpt><trkpt lat="45.1627433" lon="8.277595"><ele>298.0</ele><time>2026-04-18T14:42:06.36Z</time></trkpt><trkpt lat="45.1627483" lon="8.2777967"><ele>297.0</ele><time>2026-04-18T14:42:07.36Z</time></trkpt><trkpt lat="45.162735" lon="8.27799"><ele>298.75</ele><time>2026-04-18T14:42:08.36Z</time></trkpt><trkpt lat="45.1627233" lon="8.2781817"><ele>300.5</ele><time>2026-04-18T14:42:09.36Z</time></trkpt><trkpt lat="45.162705" lon="8.27837"><ele>302.25</ele><time>2026-04-18T14:42:10.359Z</time></trkpt><trkpt lat="45.1626417" lon="8.2785467"><ele>304.0</ele><time>2026-04-18T14:42:11.36Z</time></trkpt><trkpt lat="45.1625467" lon="8.278705"><ele>304.0</ele><time>2026-04-18T14:42:12.36Z</time></trkpt><trkpt lat="45.1624317" lon="8.27882"><ele>304.0</ele><time>2026-04-18T14:42:13.36Z</time></trkpt><trkpt lat="45.162325" lon="8.2788983"><ele>304.0</ele><time>2026-04-18T14:42:14.359Z</time></trkpt><trkpt lat="45.1622317" lon="8.279005"><ele>304.0</ele><time>2026-04-18T14:42:15.358Z</time></trkpt><trkpt lat="45.1621667" lon="8.2791533"><ele>304.0</ele><time>2026-04-18T14:42:16.359Z</time></trkpt><trkpt lat="45.1621017" lon="8.2793183"><ele>304.0</ele><time>2026-04-18T14:42:17.359Z</time></trkpt><trkpt lat="45.1620383" lon="8.2794867"><ele>304.0</ele><time>2026-04-18T14:42:18.359Z</time></trkpt><trkpt lat="45.1619783" lon="8.279675"><ele>304.0</ele><time>2026-04-18T14:42:19.359Z</time></trkpt><trkpt lat="45.1619117" lon="8.2798583"><ele>304.0</ele><time>2026-04-18T14:42:20.359Z</time></trkpt><trkpt lat="45.16185" lon="8.2800283"><ele>304.0</ele><time>2026-04-18T14:42:21.358Z</time></trkpt><trkpt lat="45.161785" lon="8.2801983"><ele>304.0</ele><time>2026-04-18T14:42:22.359Z</time></trkpt><trkpt lat="45.1617233" lon="8.2803633"><ele>304.0</ele><time>2026-04-18T14:42:23.359Z</time></trkpt><trkpt lat="45.161665" lon="8.2805067"><ele>302.75</ele><time>2026-04-18T14:42:24.359Z</time></trkpt><trkpt lat="45.1615917" lon="8.2806367"><ele>301.5</ele><time>2026-04-18T14:42:25.359Z</time></trkpt><trkpt lat="45.1614933" lon="8.2807417"><ele>300.25</ele><time>2026-04-18T14:42:26.359Z</time></trkpt><trkpt lat="45.161375" lon="8.2808233"><ele>299.0</ele><time>2026-04-18T14:42:27.359Z</time></trkpt><trkpt lat="45.1612583" lon="8.2809"><ele>299.0</ele><time>2026-04-18T14:42:28.359Z</time></trkpt><trkpt lat="45.161145" lon="8.2809767"><ele>299.0</ele><time>2026-04-18T14:42:29.359Z</time></trkpt><trkpt lat="45.161035" lon="8.2810517"><ele>299.0</ele><time>2026-04-18T14:42:30.358Z</time></trkpt><trkpt lat="45.160935" lon="8.2811083"><ele>299.0</ele><time>2026-04-18T14:42:31.358Z</time></trkpt><trkpt lat="45.1608417" lon="8.28116"><ele>299.0</ele><time>2026-04-18T14:42:32.358Z</time></trkpt><trkpt lat="45.1607633" lon="8.28123"><ele>299.0</ele><time>2026-04-18T14:42:33.359Z</time></trkpt><trkpt lat="45.1607" lon="8.2813233"><ele>299.0</ele><time>2026-04-18T14:42:34.359Z</time></trkpt><trkpt lat="45.1606667" lon="8.281435"><ele>299.0</ele><time>2026-04-18T14:42:35.359Z</time></trkpt><trkpt lat="45.160635" lon="8.2815617"><ele>299.0</ele><time>2026-04-18T14:42:36.359Z</time></trkpt><trkpt lat="45.1606167" lon="8.2816883"><ele>299.83333333333337</ele><time>2026-04-18T14:42:37.359Z</time></trkpt><trkpt lat="45.1606117" lon="8.2818067"><ele>300.6666666666667</ele><time>2026-04-18T14:42:38.358Z</time></trkpt><trkpt lat="45.160615" lon="8.28191"><ele>301.5</ele><time>2026-04-18T14:42:39.359Z</time></trkpt><trkpt lat="45.1606417" lon="8.2820083"><ele>302.3333333333333</ele><time>2026-04-18T14:42:40.359Z</time></trkpt><trkpt lat="45.1606867" lon="8.2821017"><ele>303.16666666666663</ele><time>2026-04-18T14:42:41.358Z</time></trkpt><trkpt lat="45.1607533" lon="8.2821633"><ele>304.0</ele><time>2026-04-18T14:42:42.359Z</time></trkpt><trkpt lat="45.1608367" lon="8.2821917"><ele>304.0</ele><time>2026-04-18T14:42:43.358Z</time></trkpt><trkpt lat="45.16093" lon="8.2821933"><ele>304.0</ele><time>2026-04-18T14:42:44.359Z</time></trkpt><trkpt lat="45.1610467" lon="8.28215"><ele>304.0</ele><time>2026-04-18T14:42:45.358Z</time></trkpt><trkpt lat="45.1611817" lon="8.2821033"><ele>304.0</ele><time>2026-04-18T14:42:46.359Z</time></trkpt><trkpt lat="45.1613017" lon="8.2820867"><ele>304.0</ele><time>2026-04-18T14:42:47.358Z</time></trkpt><trkpt lat="45.1614167" lon="8.2820867"><ele>304.0</ele><time>2026-04-18T14:42:48.358Z</time></trkpt><trkpt lat="45.1615333" lon="8.28212"><ele>304.0</ele><time>2026-04-18T14:42:49.358Z</time></trkpt><trkpt lat="45.16165" lon="8.2821583"><ele>304.0</ele><time>2026-04-18T14:42:50.358Z</time></trkpt><trkpt lat="45.1617583" lon="8.2821967"><ele>306.0</ele><time>2026-04-18T14:42:51.359Z</time></trkpt><trkpt lat="45.161875" lon="8.2822217"><ele>308.0</ele><time>2026-04-18T14:42:52.358Z</time></trkpt><trkpt lat="45.16198" lon="8.2822617"><ele>310.0</ele><time>2026-04-18T14:42:53.358Z</time></trkpt><trkpt lat="45.162075" lon="8.2823233"><ele>312.0</ele><time>2026-04-18T14:42:54.359Z</time></trkpt><trkpt lat="45.162165" lon="8.28242"><ele>314.0</ele><time>2026-04-18T14:42:55.359Z</time></trkpt><trkpt lat="45.1622367" lon="8.28255"><ele>311.4</ele><time>2026-04-18T14:42:56.359Z</time></trkpt><trkpt lat="45.1623" lon="8.2826917"><ele>308.79999999999995</ele><time>2026-04-18T14:42:57.359Z</time></trkpt><trkpt lat="45.1623633" lon="8.2828233"><ele>306.20000000000005</ele><time>2026-04-18T14:42:58.359Z</time></trkpt><trkpt lat="45.1624167" lon="8.2829517"><ele>303.6</ele><time>2026-04-18T14:42:59.359Z</time></trkpt><trkpt lat="45.1624633" lon="8.2830817"><ele>301.0</ele><time>2026-04-18T14:43:00.358Z</time></trkpt><trkpt lat="45.1625217" lon="8.28321"><ele>297.16666666666663</ele><time>2026-04-18T14:43:01.359Z</time></trkpt><trkpt lat="45.1625767" lon="8.28333"><ele>293.3333333333333</ele><time>2026-04-18T14:43:02.359Z</time></trkpt><trkpt lat="45.1626383" lon="8.2834417"><ele>289.5</ele><time>2026-04-18T14:43:03.359Z</time></trkpt><trkpt lat="45.1626817" lon="8.2835583"><ele>285.6666666666667</ele><time>2026-04-18T14:43:04.359Z</time></trkpt><trkpt lat="45.16271" lon="8.2836667"><ele>281.83333333333337</ele><time>2026-04-18T14:43:05.358Z</time></trkpt><trkpt lat="45.1627017" lon="8.2837667"><ele>278.0</ele><time>2026-04-18T14:43:06.359Z</time></trkpt><trkpt lat="45.162635" lon="8.2838567"><ele>278.0</ele><time>2026-04-18T14:43:08.359Z</time></trkpt><trkpt lat="45.1624933" lon="8.283805"><ele>278.0</ele><time>2026-04-18T14:43:10.359Z</time></trkpt><trkpt lat="45.162385" lon="8.2837133"><ele>278.0</ele><time>2026-04-18T14:43:11.359Z</time></trkpt><trkpt lat="45.1622633" lon="8.283615"><ele>278.0</ele><time>2026-04-18T14:43:12.359Z</time></trkpt><trkpt lat="45.162155" lon="8.2835233"><ele>275.6666666666667</ele><time>2026-04-18T14:43:13.359Z</time></trkpt><trkpt lat="45.1620583" lon="8.283485"><ele>273.33333333333337</ele><time>2026-04-18T14:43:14.359Z</time></trkpt><trkpt lat="45.1619917" lon="8.2835433"><ele>271.0</ele><time>2026-04-18T14:43:15.359Z</time></trkpt><trkpt lat="45.1619517" lon="8.2836183"><ele>268.6666666666667</ele><time>2026-04-18T14:43:16.359Z</time></trkpt><trkpt lat="45.16194" lon="8.2837383"><ele>266.3333333333333</ele><time>2026-04-18T14:43:17.358Z</time></trkpt><trkpt lat="45.1619633" lon="8.28389"><ele>264.0</ele><time>2026-04-18T14:43:18.359Z</time></trkpt><trkpt lat="45.161975" lon="8.2840433"><ele>262.5</ele><time>2026-04-18T14:43:19.358Z</time></trkpt><trkpt lat="45.16197" lon="8.2841783"><ele>261.0</ele><time>2026-04-18T14:43:20.359Z</time></trkpt><trkpt lat="45.1619483" lon="8.2842867"><ele>259.5</ele><time>2026-04-18T14:43:21.359Z</time></trkpt><trkpt lat="45.1619283" lon="8.2844017"><ele>258.0</ele><time>2026-04-18T14:43:22.359Z</time></trkpt><trkpt lat="45.1619167" lon="8.284525"><ele>256.5</ele><time>2026-04-18T14:43:23.359Z</time></trkpt><trkpt lat="45.16192" lon="8.2846483"><ele>255.0</ele><time>2026-04-18T14:43:24.359Z</time></trkpt><trkpt lat="45.1619333" lon="8.28479"><ele>254.0</ele><time>2026-04-18T14:43:25.359Z</time></trkpt><trkpt lat="45.1619567" lon="8.2849317"><ele>253.0</ele><time>2026-04-18T14:43:26.359Z</time></trkpt><trkpt lat="45.161985" lon="8.2850783"><ele>252.0</ele><time>2026-04-18T14:43:27.359Z</time></trkpt><trkpt lat="45.16202" lon="8.2852317"><ele>251.0</ele><time>2026-04-18T14:43:28.359Z</time></trkpt><trkpt lat="45.1620667" lon="8.2853833"><ele>250.0</ele><time>2026-04-18T14:43:29.359Z</time></trkpt><trkpt lat="45.16212" lon="8.2855433"><ele>248.25</ele><time>2026-04-18T14:43:30.359Z</time></trkpt><trkpt lat="45.1621917" lon="8.2856833"><ele>246.5</ele><time>2026-04-18T14:43:31.358Z</time></trkpt><trkpt lat="45.1622417" lon="8.2858367"><ele>244.75</ele><time>2026-04-18T14:43:32.359Z</time></trkpt><trkpt lat="45.1622933" lon="8.2859883"><ele>243.0</ele><time>2026-04-18T14:43:33.358Z</time></trkpt><trkpt lat="45.1623317" lon="8.286145"><ele>243.0</ele><time>2026-04-18T14:43:34.359Z</time></trkpt><trkpt lat="45.1623483" lon="8.2863117"><ele>243.0</ele><time>2026-04-18T14:43:35.358Z</time></trkpt><trkpt lat="45.1623667" lon="8.2864617"><ele>243.0</ele><time>2026-04-18T14:43:36.359Z</time></trkpt><trkpt lat="45.1623833" lon="8.2866133"><ele>243.0</ele><time>2026-04-18T14:43:37.359Z</time></trkpt><trkpt lat="45.1623867" lon="8.2867667"><ele>243.0</ele><time>2026-04-18T14:43:38.358Z</time></trkpt><trkpt lat="45.1623667" lon="8.286925"><ele>241.25</ele><time>2026-04-18T14:43:39.359Z</time></trkpt><trkpt lat="45.1623433" lon="8.2870967"><ele>239.5</ele><time>2026-04-18T14:43:40.359Z</time></trkpt><trkpt lat="45.16231" lon="8.2872633"><ele>237.75</ele><time>2026-04-18T14:43:41.358Z</time></trkpt><trkpt lat="45.1622533" lon="8.2874383"><ele>236.0</ele><time>2026-04-18T14:43:42.359Z</time></trkpt><trkpt lat="45.162195" lon="8.287625"><ele>235.75</ele><time>2026-04-18T14:43:43.359Z</time></trkpt><trkpt lat="45.16213" lon="8.2878133"><ele>235.5</ele><time>2026-04-18T14:43:44.358Z</time></trkpt><trkpt lat="45.1620783" lon="8.288015"><ele>235.25</ele><time>2026-04-18T14:43:45.359Z</time></trkpt><trkpt lat="45.162025" lon="8.2882133"><ele>235.0</ele><time>2026-04-18T14:43:46.358Z</time></trkpt><trkpt lat="45.161955" lon="8.288415"><ele>233.66666666666666</ele><time>2026-04-18T14:43:47.359Z</time></trkpt><trkpt lat="45.1618883" lon="8.2886183"><ele>232.33333333333331</ele><time>2026-04-18T14:43:48.359Z</time></trkpt><trkpt lat="45.1618233" lon="8.2888167"><ele>231.0</ele><time>2026-04-18T14:43:49.359Z</time></trkpt><trkpt lat="45.1617633" lon="8.2890167"><ele>230.5</ele><time>2026-04-18T14:43:50.359Z</time></trkpt><trkpt lat="45.1617183" lon="8.289215"><ele>230.0</ele><time>2026-04-18T14:43:51.359Z</time></trkpt><trkpt lat="45.1616683" lon="8.2894017"><ele>229.5</ele><time>2026-04-18T14:43:52.359Z</time></trkpt><trkpt lat="45.16162" lon="8.289565"><ele>229.0</ele><time>2026-04-18T14:43:53.359Z</time></trkpt><trkpt lat="45.16157" lon="8.2897333"><ele>227.75</ele><time>2026-04-18T14:43:54.359Z</time></trkpt><trkpt lat="45.1615167" lon="8.289895"><ele>226.5</ele><time>2026-04-18T14:43:55.359Z</time></trkpt><trkpt lat="45.16146" lon="8.290045"><ele>225.25</ele><time>2026-04-18T14:43:56.359Z</time></trkpt><trkpt lat="45.1613933" lon="8.2901783"><ele>224.0</ele><time>2026-04-18T14:43:57.358Z</time></trkpt><trkpt lat="45.1613083" lon="8.2902783"><ele>224.0</ele><time>2026-04-18T14:43:58.359Z</time></trkpt><trkpt lat="45.1612017" lon="8.2903517"><ele>224.0</ele><time>2026-04-18T14:43:59.359Z</time></trkpt><trkpt lat="45.16108" lon="8.290405"><ele>224.0</ele><time>2026-04-18T14:44:00.359Z</time></trkpt><trkpt lat="45.1609667" lon="8.2904483"><ele>224.0</ele><time>2026-04-18T14:44:01.359Z</time></trkpt><trkpt lat="45.1608533" lon="8.2905033"><ele>224.0</ele><time>2026-04-18T14:44:02.359Z</time></trkpt><trkpt lat="45.16074" lon="8.2905633"><ele>224.0</ele><time>2026-04-18T14:44:03.358Z</time></trkpt><trkpt lat="45.1606233" lon="8.290635"><ele>224.0</ele><time>2026-04-18T14:44:04.358Z</time></trkpt><trkpt lat="45.1605083" lon="8.2907167"><ele>224.0</ele><time>2026-04-18T14:44:05.359Z</time></trkpt><trkpt lat="45.1604" lon="8.2908117"><ele>223.39999999999998</ele><time>2026-04-18T14:44:06.358Z</time></trkpt><trkpt lat="45.1602967" lon="8.2909033"><ele>222.79999999999998</ele><time>2026-04-18T14:44:07.358Z</time></trkpt><trkpt lat="45.1602067" lon="8.291005"><ele>222.20000000000002</ele><time>2026-04-18T14:44:08.359Z</time></trkpt><trkpt lat="45.16013" lon="8.2911083"><ele>221.60000000000002</ele><time>2026-04-18T14:44:09.359Z</time></trkpt><trkpt lat="45.1600467" lon="8.2912017"><ele>221.0</ele><time>2026-04-18T14:44:10.359Z</time></trkpt><trkpt lat="45.1599767" lon="8.2912983"><ele>221.00000000000003</ele><time>2026-04-18T14:44:11.359Z</time></trkpt><trkpt lat="45.159925" lon="8.2913917"><ele>221.0</ele><time>2026-04-18T14:44:12.359Z</time></trkpt><trkpt lat="45.159875" lon="8.29147"><ele>221.0</ele><time>2026-04-18T14:44:13.359Z</time></trkpt><trkpt lat="45.1598217" lon="8.2915367"><ele>221.0</ele><time>2026-04-18T14:44:14.358Z</time></trkpt><trkpt lat="45.159755" lon="8.29162"><ele>221.00000000000003</ele><time>2026-04-18T14:44:16.359Z</time></trkpt><trkpt lat="45.1596567" lon="8.2916233"><ele>221.0</ele><time>2026-04-18T14:44:19.359Z</time></trkpt><trkpt lat="45.1595233" lon="8.2916217"><ele>220.8</ele><time>2026-04-18T14:44:21.358Z</time></trkpt><trkpt lat="45.1594317" lon="8.2916283"><ele>220.60000000000002</ele><time>2026-04-18T14:44:22.358Z</time></trkpt><trkpt lat="45.1593267" lon="8.2916417"><ele>220.4</ele><time>2026-04-18T14:44:23.358Z</time></trkpt><trkpt lat="45.1592117" lon="8.291655"><ele>220.2</ele><time>2026-04-18T14:44:24.359Z</time></trkpt><trkpt lat="45.1590883" lon="8.2916667"><ele>220.0</ele><time>2026-04-18T14:44:25.358Z</time></trkpt><trkpt lat="45.158965" lon="8.2916833"><ele>217.75</ele><time>2026-04-18T14:44:26.359Z</time></trkpt><trkpt lat="45.158835" lon="8.2917167"><ele>215.5</ele><time>2026-04-18T14:44:27.358Z</time></trkpt><trkpt lat="45.158695" lon="8.2917717"><ele>213.25</ele><time>2026-04-18T14:44:28.359Z</time></trkpt><trkpt lat="45.158555" lon="8.29184"><ele>211.0</ele><time>2026-04-18T14:44:29.359Z</time></trkpt><trkpt lat="45.1584083" lon="8.291925"><ele>211.0</ele><time>2026-04-18T14:44:30.358Z</time></trkpt><trkpt lat="45.1582533" lon="8.2919917"><ele>211.0</ele><time>2026-04-18T14:44:31.359Z</time></trkpt><trkpt lat="45.1581033" lon="8.292055"><ele>211.0</ele><time>2026-04-18T14:44:32.359Z</time></trkpt><trkpt lat="45.1579533" lon="8.2921317"><ele>212.33333333333331</ele><time>2026-04-18T14:44:33.359Z</time></trkpt><trkpt lat="45.1578083" lon="8.2922117"><ele>213.66666666666669</ele><time>2026-04-18T14:44:34.358Z</time></trkpt><trkpt lat="45.1576683" lon="8.2923083"><ele>215.0</ele><time>2026-04-18T14:44:35.359Z</time></trkpt><trkpt lat="45.1575267" lon="8.2924067"><ele>215.0</ele><time>2026-04-18T14:44:36.359Z</time></trkpt><trkpt lat="45.157385" lon="8.2925117"><ele>215.0</ele><time>2026-04-18T14:44:37.359Z</time></trkpt><trkpt lat="45.1572433" lon="8.292625"><ele>215.0</ele><time>2026-04-18T14:44:38.359Z</time></trkpt><trkpt lat="45.1571133" lon="8.29274"><ele>212.66666666666669</ele><time>2026-04-18T14:44:39.359Z</time></trkpt><trkpt lat="45.15697" lon="8.2928483"><ele>210.33333333333331</ele><time>2026-04-18T14:44:40.358Z</time></trkpt><trkpt lat="45.1568217" lon="8.2929317"><ele>208.0</ele><time>2026-04-18T14:44:41.359Z</time></trkpt><trkpt lat="45.1566733" lon="8.2929833"><ele>206.0</ele><time>2026-04-18T14:44:42.359Z</time></trkpt><trkpt lat="45.1565267" lon="8.2930083"><ele>204.0</ele><time>2026-04-18T14:44:43.359Z</time></trkpt><trkpt lat="45.1563767" lon="8.29302"><ele>202.0</ele><time>2026-04-18T14:44:44.359Z</time></trkpt><trkpt lat="45.1562267" lon="8.293025"><ele>200.0</ele><time>2026-04-18T14:44:45.358Z</time></trkpt><trkpt lat="45.1560767" lon="8.293025"><ele>200.0</ele><time>2026-04-18T14:44:46.359Z</time></trkpt><trkpt lat="45.155925" lon="8.2930217"><ele>200.0</ele><time>2026-04-18T14:44:47.359Z</time></trkpt><trkpt lat="45.1557683" lon="8.2930317"><ele>200.0</ele><time>2026-04-18T14:44:48.359Z</time></trkpt><trkpt lat="45.1556133" lon="8.2930383"><ele>199.0</ele><time>2026-04-18T14:44:49.358Z</time></trkpt><trkpt lat="45.1554583" lon="8.293045"><ele>198.0</ele><time>2026-04-18T14:44:50.359Z</time></trkpt><trkpt lat="45.1553067" lon="8.2930433"><ele>197.0</ele><time>2026-04-18T14:44:51.359Z</time></trkpt><trkpt lat="45.15515" lon="8.2930217"><ele>197.0</ele><time>2026-04-18T14:44:52.359Z</time></trkpt><trkpt lat="45.1549967" lon="8.2930267"><ele>197.0</ele><time>2026-04-18T14:44:53.359Z</time></trkpt><trkpt lat="45.1548433" lon="8.293"><ele>197.0</ele><time>2026-04-18T14:44:54.359Z</time></trkpt><trkpt lat="45.1547" lon="8.29296"><ele>196.75</ele><time>2026-04-18T14:44:55.359Z</time></trkpt><trkpt lat="45.154545" lon="8.2929367"><ele>196.5</ele><time>2026-04-18T14:44:56.358Z</time></trkpt><trkpt lat="45.1543967" lon="8.2928967"><ele>196.25</ele><time>2026-04-18T14:44:57.359Z</time></trkpt><trkpt lat="45.15426" lon="8.2928867"><ele>196.0</ele><time>2026-04-18T14:44:58.359Z</time></trkpt><trkpt lat="45.1541317" lon="8.2929133"><ele>195.25</ele><time>2026-04-18T14:44:59.358Z</time></trkpt><trkpt lat="45.15399" lon="8.29298"><ele>194.5</ele><time>2026-04-18T14:45:00.359Z</time></trkpt><trkpt lat="45.1538683" lon="8.29308"><ele>193.75</ele><time>2026-04-18T14:45:01.359Z</time></trkpt><trkpt lat="45.153765" lon="8.29322"><ele>193.0</ele><time>2026-04-18T14:45:02.358Z</time></trkpt><trkpt lat="45.153665" lon="8.2933883"><ele>193.0</ele><time>2026-04-18T14:45:03.359Z</time></trkpt><trkpt lat="45.1535967" lon="8.29357"><ele>193.0</ele><time>2026-04-18T14:45:04.359Z</time></trkpt><trkpt lat="45.1535683" lon="8.2937617"><ele>193.0</ele><time>2026-04-18T14:45:05.359Z</time></trkpt><trkpt lat="45.153565" lon="8.293965"><ele>193.0</ele><time>2026-04-18T14:45:06.358Z</time></trkpt><trkpt lat="45.153585" lon="8.2941683"><ele>193.0</ele><time>2026-04-18T14:45:07.359Z</time></trkpt><trkpt lat="45.1536317" lon="8.2943517"><ele>193.0</ele><time>2026-04-18T14:45:08.358Z</time></trkpt><trkpt lat="45.1537083" lon="8.2945417"><ele>193.0</ele><time>2026-04-18T14:45:09.359Z</time></trkpt><trkpt lat="45.153805" lon="8.2947033"><ele>193.0</ele><time>2026-04-18T14:45:10.359Z</time></trkpt><trkpt lat="45.1539217" lon="8.294825"><ele>193.75</ele><time>2026-04-18T14:45:11.359Z</time></trkpt><trkpt lat="45.1540383" lon="8.294945"><ele>194.5</ele><time>2026-04-18T14:45:12.359Z</time></trkpt><trkpt lat="45.1541533" lon="8.295065"><ele>195.25</ele><time>2026-04-18T14:45:13.358Z</time></trkpt><trkpt lat="45.1542567" lon="8.2952033"><ele>196.0</ele><time>2026-04-18T14:45:14.359Z</time></trkpt><trkpt lat="45.15435" lon="8.2953367"><ele>196.0</ele><time>2026-04-18T14:45:15.358Z</time></trkpt><trkpt lat="45.1544267" lon="8.2954767"><ele>196.0</ele><time>2026-04-18T14:45:16.359Z</time></trkpt><trkpt lat="45.154485" lon="8.2956383"><ele>196.0</ele><time>2026-04-18T14:45:17.359Z</time></trkpt><trkpt lat="45.1545317" lon="8.2958183"><ele>196.0</ele><time>2026-04-18T14:45:18.359Z</time></trkpt><trkpt lat="45.1545617" lon="8.296"><ele>194.25</ele><time>2026-04-18T14:45:19.359Z</time></trkpt><trkpt lat="45.1545567" lon="8.2961933"><ele>192.5</ele><time>2026-04-18T14:45:20.358Z</time></trkpt><trkpt lat="45.1545333" lon="8.2963867"><ele>190.75</ele><time>2026-04-18T14:45:21.359Z</time></trkpt><trkpt lat="45.15449" lon="8.2965883"><ele>189.0</ele><time>2026-04-18T14:45:22.359Z</time></trkpt><trkpt lat="45.1544267" lon="8.29679"><ele>189.0</ele><time>2026-04-18T14:45:23.359Z</time></trkpt><trkpt lat="45.1543383" lon="8.2969683"><ele>189.0</ele><time>2026-04-18T14:45:24.359Z</time></trkpt><trkpt lat="45.1542317" lon="8.2971233"><ele>189.0</ele><time>2026-04-18T14:45:25.359Z</time></trkpt><trkpt lat="45.154125" lon="8.297275"><ele>187.0</ele><time>2026-04-18T14:45:26.358Z</time></trkpt><trkpt lat="45.15402" lon="8.2974217"><ele>185.0</ele><time>2026-04-18T14:45:27.359Z</time></trkpt><trkpt lat="45.1539283" lon="8.297575"><ele>183.0</ele><time>2026-04-18T14:45:28.359Z</time></trkpt><trkpt lat="45.153835" lon="8.2977317"><ele>181.0</ele><time>2026-04-18T14:45:29.359Z</time></trkpt><trkpt lat="45.1537283" lon="8.2978683"><ele>181.0</ele><time>2026-04-18T14:45:30.358Z</time></trkpt><trkpt lat="45.1535967" lon="8.297955"><ele>181.0</ele><time>2026-04-18T14:45:31.359Z</time></trkpt><trkpt lat="45.1534567" lon="8.298015"><ele>181.0</ele><time>2026-04-18T14:45:32.359Z</time></trkpt><trkpt lat="45.153305" lon="8.29803"><ele>181.0</ele><time>2026-04-18T14:45:33.359Z</time></trkpt><trkpt lat="45.15315" lon="8.2979867"><ele>180.0</ele><time>2026-04-18T14:45:34.359Z</time></trkpt><trkpt lat="45.153005" lon="8.2979217"><ele>179.0</ele><time>2026-04-18T14:45:35.358Z</time></trkpt><trkpt lat="45.152855" lon="8.2978483"><ele>178.0</ele><time>2026-04-18T14:45:36.359Z</time></trkpt><trkpt lat="45.1527067" lon="8.2977833"><ele>178.0</ele><time>2026-04-18T14:45:37.359Z</time></trkpt><trkpt lat="45.15255" lon="8.29771"><ele>178.0</ele><time>2026-04-18T14:45:38.359Z</time></trkpt><trkpt lat="45.1523917" lon="8.2976417"><ele>178.0</ele><time>2026-04-18T14:45:39.359Z</time></trkpt><trkpt lat="45.1522433" lon="8.297575"><ele>178.0</ele><time>2026-04-18T14:45:40.358Z</time></trkpt><trkpt lat="45.1520983" lon="8.2975017"><ele>178.0</ele><time>2026-04-18T14:45:41.358Z</time></trkpt><trkpt lat="45.1519483" lon="8.2974367"><ele>178.0</ele><time>2026-04-18T14:45:42.359Z</time></trkpt><trkpt lat="45.1517983" lon="8.2974083"><ele>178.0</ele><time>2026-04-18T14:45:43.358Z</time></trkpt><trkpt lat="45.15165" lon="8.2974283"><ele>178.0</ele><time>2026-04-18T14:45:44.358Z</time></trkpt><trkpt lat="45.1515033" lon="8.2974667"><ele>178.0</ele><time>2026-04-18T14:45:45.359Z</time></trkpt><trkpt lat="45.151355" lon="8.29752"><ele>176.33333333333334</ele><time>2026-04-18T14:45:46.359Z</time></trkpt><trkpt lat="45.1512167" lon="8.297605"><ele>174.66666666666666</ele><time>2026-04-18T14:45:47.359Z</time></trkpt><trkpt lat="45.1510767" lon="8.297705"><ele>173.0</ele><time>2026-04-18T14:45:48.359Z</time></trkpt><trkpt lat="45.1509433" lon="8.297835"><ele>173.0</ele><time>2026-04-18T14:45:49.359Z</time></trkpt><trkpt lat="45.1508317" lon="8.2979933"><ele>173.0</ele><time>2026-04-18T14:45:50.358Z</time></trkpt><trkpt lat="45.150735" lon="8.2981783"><ele>173.0</ele><time>2026-04-18T14:45:51.359Z</time></trkpt><trkpt lat="45.1506483" lon="8.29838"><ele>170.33333333333331</ele><time>2026-04-18T14:45:52.359Z</time></trkpt><trkpt lat="45.150575" lon="8.2985933"><ele>167.66666666666666</ele><time>2026-04-18T14:45:53.359Z</time></trkpt><trkpt lat="45.1505067" lon="8.2987917"><ele>165.0</ele><time>2026-04-18T14:45:54.359Z</time></trkpt><trkpt lat="45.15045" lon="8.29901"><ele>165.0</ele><time>2026-04-18T14:45:55.359Z</time></trkpt><trkpt lat="45.150405" lon="8.2992217"><ele>165.0</ele><time>2026-04-18T14:45:56.359Z</time></trkpt><trkpt lat="45.1503433" lon="8.2994233"><ele>165.0</ele><time>2026-04-18T14:45:57.358Z</time></trkpt><trkpt lat="45.1502733" lon="8.29962"><ele>167.0</ele><time>2026-04-18T14:45:58.358Z</time></trkpt><trkpt lat="45.150165" lon="8.2997933"><ele>169.0</ele><time>2026-04-18T14:45:59.359Z</time></trkpt><trkpt lat="45.1500333" lon="8.2999283"><ele>171.0</ele><time>2026-04-18T14:46:00.359Z</time></trkpt><trkpt lat="45.1498917" lon="8.3000517"><ele>167.66666666666666</ele><time>2026-04-18T14:46:01.359Z</time></trkpt><trkpt lat="45.1497467" lon="8.3001567"><ele>164.33333333333331</ele><time>2026-04-18T14:46:02.359Z</time></trkpt><trkpt lat="45.149615" lon="8.3002817"><ele>161.0</ele><time>2026-04-18T14:46:03.359Z</time></trkpt><trkpt lat="45.1494883" lon="8.3004167"><ele>163.33333333333331</ele><time>2026-04-18T14:46:04.359Z</time></trkpt><trkpt lat="45.1493767" lon="8.300585"><ele>165.66666666666666</ele><time>2026-04-18T14:46:05.359Z</time></trkpt><trkpt lat="45.1492633" lon="8.3007517"><ele>168.0</ele><time>2026-04-18T14:46:06.358Z</time></trkpt><trkpt lat="45.1491483" lon="8.300915"><ele>165.33333333333334</ele><time>2026-04-18T14:46:07.358Z</time></trkpt><trkpt lat="45.1490333" lon="8.3010667"><ele>162.66666666666669</ele><time>2026-04-18T14:46:08.358Z</time></trkpt><trkpt lat="45.1489083" lon="8.3012167"><ele>160.0</ele><time>2026-04-18T14:46:09.359Z</time></trkpt><trkpt lat="45.1487783" lon="8.3013533"><ele>161.33333333333334</ele><time>2026-04-18T14:46:10.359Z</time></trkpt><trkpt lat="45.14865" lon="8.3014783"><ele>162.66666666666666</ele><time>2026-04-18T14:46:11.359Z</time></trkpt><trkpt lat="45.1485333" lon="8.3016067"><ele>164.0</ele><time>2026-04-18T14:46:12.359Z</time></trkpt><trkpt lat="45.1484017" lon="8.3017367"><ele>164.0</ele><time>2026-04-18T14:46:13.359Z</time></trkpt><trkpt lat="45.1482667" lon="8.3018617"><ele>164.0</ele><time>2026-04-18T14:46:14.359Z</time></trkpt><trkpt lat="45.148135" lon="8.3019917"><ele>164.0</ele><time>2026-04-18T14:46:15.359Z</time></trkpt><trkpt lat="45.1480033" lon="8.3021133"><ele>163.0</ele><time>2026-04-18T14:46:16.359Z</time></trkpt><trkpt lat="45.14787" lon="8.3022367"><ele>162.0</ele><time>2026-04-18T14:46:17.359Z</time></trkpt><trkpt lat="45.1477383" lon="8.302365"><ele>161.0</ele><time>2026-04-18T14:46:18.359Z</time></trkpt><trkpt lat="45.1476017" lon="8.3024933"><ele>160.33333333333331</ele><time>2026-04-18T14:46:19.359Z</time></trkpt><trkpt lat="45.1474567" lon="8.3026167"><ele>159.66666666666666</ele><time>2026-04-18T14:46:20.358Z</time></trkpt><trkpt lat="45.1473117" lon="8.30274"><ele>159.0</ele><time>2026-04-18T14:46:21.358Z</time></trkpt><trkpt lat="45.1471717" lon="8.3028633"><ele>159.0</ele><time>2026-04-18T14:46:22.359Z</time></trkpt><trkpt lat="45.1470433" lon="8.30303"><ele>159.0</ele><time>2026-04-18T14:46:23.359Z</time></trkpt><trkpt lat="45.1469083" lon="8.3031917"><ele>159.0</ele><time>2026-04-18T14:46:24.359Z</time></trkpt><trkpt lat="45.1467917" lon="8.303375"><ele>159.0</ele><time>2026-04-18T14:46:25.358Z</time></trkpt><trkpt lat="45.1466967" lon="8.3035633"><ele>159.0</ele><time>2026-04-18T14:46:26.359Z</time></trkpt><trkpt lat="45.1466183" lon="8.3037633"><ele>159.0</ele><time>2026-04-18T14:46:27.359Z</time></trkpt><trkpt lat="45.146535" lon="8.3039583"><ele>157.33333333333334</ele><time>2026-04-18T14:46:28.359Z</time></trkpt><trkpt lat="45.1464633" lon="8.3041533"><ele>155.66666666666669</ele><time>2026-04-18T14:46:29.358Z</time></trkpt><trkpt lat="45.14639" lon="8.3043567"><ele>154.0</ele><time>2026-04-18T14:46:30.359Z</time></trkpt><trkpt lat="45.1463317" lon="8.3045717"><ele>154.33333333333334</ele><time>2026-04-18T14:46:31.358Z</time></trkpt><trkpt lat="45.146265" lon="8.30478"><ele>154.66666666666666</ele><time>2026-04-18T14:46:32.359Z</time></trkpt><trkpt lat="45.1461983" lon="8.3049983"><ele>155.0</ele><time>2026-04-18T14:46:33.359Z</time></trkpt><trkpt lat="45.1461467" lon="8.3052317"><ele>155.0</ele><time>2026-04-18T14:46:34.359Z</time></trkpt><trkpt lat="45.1460867" lon="8.3054633"><ele>155.0</ele><time>2026-04-18T14:46:35.359Z</time></trkpt><trkpt lat="45.146015" lon="8.3056783"><ele>155.0</ele><time>2026-04-18T14:46:36.359Z</time></trkpt><trkpt lat="45.14595" lon="8.3059"><ele>155.0</ele><time>2026-04-18T14:46:37.359Z</time></trkpt><trkpt lat="45.1458867" lon="8.30612"><ele>155.0</ele><time>2026-04-18T14:46:38.359Z</time></trkpt><trkpt lat="45.1458233" lon="8.3063433"><ele>155.0</ele><time>2026-04-18T14:46:39.358Z</time></trkpt><trkpt lat="45.1457567" lon="8.306555"><ele>154.33333333333331</ele><time>2026-04-18T14:46:40.359Z</time></trkpt><trkpt lat="45.145695" lon="8.3067717"><ele>153.66666666666666</ele><time>2026-04-18T14:46:41.359Z</time></trkpt><trkpt lat="45.145635" lon="8.3069817"><ele>153.0</ele><time>2026-04-18T14:46:42.358Z</time></trkpt><trkpt lat="45.1455733" lon="8.3071917"><ele>153.0</ele><time>2026-04-18T14:46:43.359Z</time></trkpt><trkpt lat="45.145495" lon="8.3073867"><ele>153.0</ele><time>2026-04-18T14:46:44.359Z</time></trkpt><trkpt lat="45.1454017" lon="8.3075683"><ele>153.0</ele><time>2026-04-18T14:46:45.359Z</time></trkpt><trkpt lat="45.14528" lon="8.3077317"><ele>153.0</ele><time>2026-04-18T14:46:46.359Z</time></trkpt><trkpt lat="45.1451483" lon="8.3078633"><ele>153.0</ele><time>2026-04-18T14:46:47.359Z</time></trkpt><trkpt lat="45.145025" lon="8.3080017"><ele>153.0</ele><time>2026-04-18T14:46:48.359Z</time></trkpt><trkpt lat="45.1449017" lon="8.3081567"><ele>154.0</ele><time>2026-04-18T14:46:49.359Z</time></trkpt><trkpt lat="45.1447783" lon="8.3083167"><ele>155.0</ele><time>2026-04-18T14:46:50.358Z</time></trkpt><trkpt lat="45.1446567" lon="8.30848"><ele>156.0</ele><time>2026-04-18T14:46:51.359Z</time></trkpt><trkpt lat="45.1445217" lon="8.308635"><ele>156.0</ele><time>2026-04-18T14:46:52.359Z</time></trkpt><trkpt lat="45.1443933" lon="8.3087867"><ele>156.0</ele><time>2026-04-18T14:46:53.359Z</time></trkpt><trkpt lat="45.1442717" lon="8.3089383"><ele>156.0</ele><time>2026-04-18T14:46:54.359Z</time></trkpt><trkpt lat="45.14415" lon="8.3090817"><ele>154.0</ele><time>2026-04-18T14:46:55.359Z</time></trkpt><trkpt lat="45.1440333" lon="8.3092283"><ele>152.0</ele><time>2026-04-18T14:46:56.358Z</time></trkpt><trkpt lat="45.1439183" lon="8.3093783"><ele>150.0</ele><time>2026-04-18T14:46:57.359Z</time></trkpt><trkpt lat="45.1438017" lon="8.309525"><ele>150.0</ele><time>2026-04-18T14:46:58.359Z</time></trkpt><trkpt lat="45.1436833" lon="8.3096667"><ele>150.0</ele><time>2026-04-18T14:46:59.359Z</time></trkpt><trkpt lat="45.1435617" lon="8.3098183"><ele>150.0</ele><time>2026-04-18T14:47:00.359Z</time></trkpt><trkpt lat="45.1434417" lon="8.3099683"><ele>150.0</ele><time>2026-04-18T14:47:01.358Z</time></trkpt><trkpt lat="45.14333" lon="8.31011"><ele>150.0</ele><time>2026-04-18T14:47:02.359Z</time></trkpt><trkpt lat="45.1432067" lon="8.3102483"><ele>150.0</ele><time>2026-04-18T14:47:03.359Z</time></trkpt><trkpt lat="45.1430883" lon="8.310385"><ele>150.0</ele><time>2026-04-18T14:47:04.359Z</time></trkpt><trkpt lat="45.142975" lon="8.31052"><ele>150.0</ele><time>2026-04-18T14:47:05.359Z</time></trkpt><trkpt lat="45.1428717" lon="8.31065"><ele>150.0</ele><time>2026-04-18T14:47:06.358Z</time></trkpt><trkpt lat="45.1427733" lon="8.31079"><ele>150.0</ele><time>2026-04-18T14:47:07.359Z</time></trkpt><trkpt lat="45.1426733" lon="8.3109417"><ele>149.33333333333334</ele><time>2026-04-18T14:47:08.359Z</time></trkpt><trkpt lat="45.1425867" lon="8.3111217"><ele>148.66666666666669</ele><time>2026-04-18T14:47:09.358Z</time></trkpt><trkpt lat="45.1425083" lon="8.3113267"><ele>148.0</ele><time>2026-04-18T14:47:10.359Z</time></trkpt><trkpt lat="45.1424383" lon="8.311555"><ele>147.0</ele><time>2026-04-18T14:47:11.358Z</time></trkpt><trkpt lat="45.1423567" lon="8.311785"><ele>146.0</ele><time>2026-04-18T14:47:12.359Z</time></trkpt><trkpt lat="45.14228" lon="8.312"><ele>145.0</ele><time>2026-04-18T14:47:13.359Z</time></trkpt><trkpt lat="45.1421867" lon="8.3122217"><ele>145.33333333333334</ele><time>2026-04-18T14:47:14.359Z</time></trkpt><trkpt lat="45.1420983" lon="8.3124417"><ele>145.66666666666666</ele><time>2026-04-18T14:47:15.359Z</time></trkpt><trkpt lat="45.142015" lon="8.3126517"><ele>146.0</ele><time>2026-04-18T14:47:16.359Z</time></trkpt><trkpt lat="45.14194" lon="8.3128667"><ele>146.0</ele><time>2026-04-18T14:47:17.358Z</time></trkpt><trkpt lat="45.14186" lon="8.3130767"><ele>146.0</ele><time>2026-04-18T14:47:18.359Z</time></trkpt><trkpt lat="45.1417817" lon="8.3132917"><ele>146.0</ele><time>2026-04-18T14:47:19.358Z</time></trkpt><trkpt lat="45.1417067" lon="8.3135017"><ele>146.0</ele><time>2026-04-18T14:47:20.359Z</time></trkpt><trkpt lat="45.141635" lon="8.3137133"><ele>146.0</ele><time>2026-04-18T14:47:21.358Z</time></trkpt><trkpt lat="45.14156" lon="8.3139167"><ele>146.0</ele><time>2026-04-18T14:47:22.358Z</time></trkpt><trkpt lat="45.141485" lon="8.3141217"><ele>146.0</ele><time>2026-04-18T14:47:23.359Z</time></trkpt><trkpt lat="45.1414133" lon="8.3143317"><ele>146.0</ele><time>2026-04-18T14:47:24.359Z</time></trkpt><trkpt lat="45.14134" lon="8.3145383"><ele>146.0</ele><time>2026-04-18T14:47:25.359Z</time></trkpt><trkpt lat="45.1412667" lon="8.3147467"><ele>146.0</ele><time>2026-04-18T14:47:26.359Z</time></trkpt><trkpt lat="45.1411917" lon="8.3149533"><ele>146.0</ele><time>2026-04-18T14:47:27.358Z</time></trkpt><trkpt lat="45.1411133" lon="8.3151667"><ele>146.0</ele><time>2026-04-18T14:47:28.358Z</time></trkpt><trkpt lat="45.141035" lon="8.315375"><ele>146.0</ele><time>2026-04-18T14:47:29.359Z</time></trkpt><trkpt lat="45.1409617" lon="8.31559"><ele>146.0</ele><time>2026-04-18T14:47:30.358Z</time></trkpt><trkpt lat="45.140885" lon="8.315805"><ele>146.0</ele><time>2026-04-18T14:47:31.359Z</time></trkpt><trkpt lat="45.1408117" lon="8.3160233"><ele>146.0</ele><time>2026-04-18T14:47:32.358Z</time></trkpt><trkpt lat="45.1407417" lon="8.3162317"><ele>146.0</ele><time>2026-04-18T14:47:33.358Z</time></trkpt><trkpt lat="45.140675" lon="8.3164483"><ele>146.0</ele><time>2026-04-18T14:47:34.359Z</time></trkpt><trkpt lat="45.1406033" lon="8.3166633"><ele>146.0</ele><time>2026-04-18T14:47:35.358Z</time></trkpt><trkpt lat="45.1405317" lon="8.3168767"><ele>146.0</ele><time>2026-04-18T14:47:36.358Z</time></trkpt><trkpt lat="45.140465" lon="8.3170883"><ele>146.0</ele><time>2026-04-18T14:47:37.359Z</time></trkpt><trkpt lat="45.140395" lon="8.3173"><ele>145.0</ele><time>2026-04-18T14:47:38.359Z</time></trkpt><trkpt lat="45.14034" lon="8.3175217"><ele>144.0</ele><time>2026-04-18T14:47:39.359Z</time></trkpt><trkpt lat="45.140285" lon="8.3177433"><ele>143.0</ele><time>2026-04-18T14:47:40.358Z</time></trkpt><trkpt lat="45.140235" lon="8.3179717"><ele>143.0</ele><time>2026-04-18T14:47:41.359Z</time></trkpt><trkpt lat="45.1401883" lon="8.3181917"><ele>143.0</ele><time>2026-04-18T14:47:42.359Z</time></trkpt><trkpt lat="45.1401583" lon="8.31842"><ele>143.0</ele><time>2026-04-18T14:47:43.359Z</time></trkpt><trkpt lat="45.1401283" lon="8.3186517"><ele>143.0</ele><time>2026-04-18T14:47:44.359Z</time></trkpt><trkpt lat="45.1401133" lon="8.3188917"><ele>143.0</ele><time>2026-04-18T14:47:45.359Z</time></trkpt><trkpt lat="45.1401" lon="8.3191217"><ele>143.0</ele><time>2026-04-18T14:47:46.359Z</time></trkpt><trkpt lat="45.14009" lon="8.3193517"><ele>142.33333333333331</ele><time>2026-04-18T14:47:47.359Z</time></trkpt><trkpt lat="45.140095" lon="8.31958"><ele>141.66666666666666</ele><time>2026-04-18T14:47:48.359Z</time></trkpt><trkpt lat="45.1400967" lon="8.3198183"><ele>141.0</ele><time>2026-04-18T14:47:49.359Z</time></trkpt><trkpt lat="45.1400917" lon="8.3200483"><ele>141.0</ele><time>2026-04-18T14:47:50.359Z</time></trkpt><trkpt lat="45.1400833" lon="8.3202817"><ele>141.0</ele><time>2026-04-18T14:47:51.359Z</time></trkpt><trkpt lat="45.1400883" lon="8.3205167"><ele>141.0</ele><time>2026-04-18T14:47:52.359Z</time></trkpt><trkpt lat="45.14009" lon="8.320755"><ele>141.0</ele><time>2026-04-18T14:47:53.358Z</time></trkpt><trkpt lat="45.1400883" lon="8.32099"><ele>141.0</ele><time>2026-04-18T14:47:54.358Z</time></trkpt><trkpt lat="45.1400967" lon="8.3212183"><ele>141.0</ele><time>2026-04-18T14:47:55.359Z</time></trkpt><trkpt lat="45.1400983" lon="8.3214433"><ele>140.66666666666666</ele><time>2026-04-18T14:47:56.359Z</time></trkpt><trkpt lat="45.1401033" lon="8.3216717"><ele>140.33333333333331</ele><time>2026-04-18T14:47:57.359Z</time></trkpt><trkpt lat="45.1401083" lon="8.3218967"><ele>140.0</ele><time>2026-04-18T14:47:58.358Z</time></trkpt><trkpt lat="45.140115" lon="8.3221333"><ele>139.66666666666666</ele><time>2026-04-18T14:47:59.358Z</time></trkpt><trkpt lat="45.14012" lon="8.3223633"><ele>139.33333333333334</ele><time>2026-04-18T14:48:00.359Z</time></trkpt><trkpt lat="45.1401283" lon="8.3226033"><ele>139.0</ele><time>2026-04-18T14:48:01.359Z</time></trkpt><trkpt lat="45.1401417" lon="8.3228417"><ele>139.0</ele><time>2026-04-18T14:48:02.359Z</time></trkpt><trkpt lat="45.1401583" lon="8.3230783"><ele>139.0</ele><time>2026-04-18T14:48:03.359Z</time></trkpt><trkpt lat="45.1401667" lon="8.32331"><ele>139.0</ele><time>2026-04-18T14:48:04.359Z</time></trkpt><trkpt lat="45.14017" lon="8.3235383"><ele>139.0</ele><time>2026-04-18T14:48:05.359Z</time></trkpt><trkpt lat="45.1401733" lon="8.3237717"><ele>139.0</ele><time>2026-04-18T14:48:06.359Z</time></trkpt><trkpt lat="45.1401767" lon="8.3240067"><ele>139.0</ele><time>2026-04-18T14:48:07.359Z</time></trkpt><trkpt lat="45.1402067" lon="8.3242383"><ele>139.66666666666669</ele><time>2026-04-18T14:48:08.358Z</time></trkpt><trkpt lat="45.1402383" lon="8.3244683"><ele>140.33333333333334</ele><time>2026-04-18T14:48:09.359Z</time></trkpt><trkpt lat="45.1402733" lon="8.3246917"><ele>141.0</ele><time>2026-04-18T14:48:10.359Z</time></trkpt><trkpt lat="45.1403233" lon="8.3249083"><ele>141.0</ele><time>2026-04-18T14:48:11.359Z</time></trkpt><trkpt lat="45.1403633" lon="8.325135"><ele>141.0</ele><time>2026-04-18T14:48:12.359Z</time></trkpt><trkpt lat="45.1404033" lon="8.325365"><ele>141.0</ele><time>2026-04-18T14:48:13.359Z</time></trkpt><trkpt lat="45.1404383" lon="8.3255833"><ele>140.66666666666666</ele><time>2026-04-18T14:48:14.359Z</time></trkpt><trkpt lat="45.1404783" lon="8.3257983"><ele>140.33333333333331</ele><time>2026-04-18T14:48:15.358Z</time></trkpt><trkpt lat="45.1405067" lon="8.326025"><ele>140.0</ele><time>2026-04-18T14:48:16.359Z</time></trkpt><trkpt lat="45.1405533" lon="8.326245"><ele>139.0</ele><time>2026-04-18T14:48:17.358Z</time></trkpt><trkpt lat="45.1406183" lon="8.3264617"><ele>138.0</ele><time>2026-04-18T14:48:18.358Z</time></trkpt><trkpt lat="45.140695" lon="8.3266683"><ele>137.0</ele><time>2026-04-18T14:48:19.359Z</time></trkpt><trkpt lat="45.1407767" lon="8.3268533"><ele>139.0</ele><time>2026-04-18T14:48:20.359Z</time></trkpt><trkpt lat="45.14086" lon="8.32703"><ele>141.0</ele><time>2026-04-18T14:48:21.359Z</time></trkpt><trkpt lat="45.1409433" lon="8.3272"><ele>143.0</ele><time>2026-04-18T14:48:22.358Z</time></trkpt><trkpt lat="45.1410317" lon="8.3273683"><ele>145.0</ele><time>2026-04-18T14:48:23.359Z</time></trkpt><trkpt lat="45.1411267" lon="8.3275267"><ele>145.0</ele><time>2026-04-18T14:48:24.358Z</time></trkpt><trkpt lat="45.141215" lon="8.3277017"><ele>145.0</ele><time>2026-04-18T14:48:25.358Z</time></trkpt><trkpt lat="45.1412983" lon="8.3278683"><ele>145.0</ele><time>2026-04-18T14:48:26.358Z</time></trkpt><trkpt lat="45.1413817" lon="8.328025"><ele>145.0</ele><time>2026-04-18T14:48:27.359Z</time></trkpt><trkpt lat="45.1414517" lon="8.328185"><ele>145.0</ele><time>2026-04-18T14:48:28.358Z</time></trkpt><trkpt lat="45.1415267" lon="8.3283383"><ele>145.0</ele><time>2026-04-18T14:48:29.359Z</time></trkpt><trkpt lat="45.1416017" lon="8.3284633"><ele>145.0</ele><time>2026-04-18T14:48:30.359Z</time></trkpt><trkpt lat="45.1416883" lon="8.3285833"><ele>145.0</ele><time>2026-04-18T14:48:31.359Z</time></trkpt><trkpt lat="45.14176" lon="8.3287133"><ele>145.2</ele><time>2026-04-18T14:48:32.359Z</time></trkpt><trkpt lat="45.1418383" lon="8.32883"><ele>145.4</ele><time>2026-04-18T14:48:33.359Z</time></trkpt><trkpt lat="45.1419217" lon="8.3289317"><ele>145.6</ele><time>2026-04-18T14:48:34.358Z</time></trkpt><trkpt lat="45.1419967" lon="8.3290317"><ele>145.8</ele><time>2026-04-18T14:48:35.359Z</time></trkpt><trkpt lat="45.14206" lon="8.3291283"><ele>146.0</ele><time>2026-04-18T14:48:36.359Z</time></trkpt><trkpt lat="45.1421167" lon="8.32921"><ele>146.0</ele><time>2026-04-18T14:48:37.359Z</time></trkpt><trkpt lat="45.142165" lon="8.3292967"><ele>146.0</ele><time>2026-04-18T14:48:38.359Z</time></trkpt><trkpt lat="45.14223" lon="8.3294033"><ele>146.0</ele><time>2026-04-18T14:48:40.359Z</time></trkpt><trkpt lat="45.1422733" lon="8.32949"><ele>146.0</ele><time>2026-04-18T14:48:43.359Z</time></trkpt><trkpt lat="45.14221" lon="8.3295383"><ele>146.0</ele><time>2026-04-18T14:48:44.359Z</time></trkpt><trkpt lat="45.1421067" lon="8.3296567"><ele>145.8</ele><time>2026-04-18T14:48:46.359Z</time></trkpt><trkpt lat="45.14202" lon="8.3297317"><ele>145.6</ele><time>2026-04-18T14:48:47.359Z</time></trkpt><trkpt lat="45.1419333" lon="8.329825"><ele>145.4</ele><time>2026-04-18T14:48:48.359Z</time></trkpt><trkpt lat="45.14184" lon="8.3299183"><ele>145.2</ele><time>2026-04-18T14:48:49.359Z</time></trkpt><trkpt lat="45.1417683" lon="8.33001"><ele>145.0</ele><time>2026-04-18T14:48:50.358Z</time></trkpt><trkpt lat="45.14169" lon="8.3301017"><ele>145.0</ele><time>2026-04-18T14:48:51.358Z</time></trkpt><trkpt lat="45.141625" lon="8.3302283"><ele>145.0</ele><time>2026-04-18T14:48:52.359Z</time></trkpt><trkpt lat="45.1415783" lon="8.330385"><ele>145.0</ele><time>2026-04-18T14:48:53.359Z</time></trkpt><trkpt lat="45.1415417" lon="8.3305583"><ele>145.0</ele><time>2026-04-18T14:48:54.359Z</time></trkpt><trkpt lat="45.1415367" lon="8.3307417"><ele>144.75</ele><time>2026-04-18T14:48:55.359Z</time></trkpt><trkpt lat="45.1415383" lon="8.3309183"><ele>144.5</ele><time>2026-04-18T14:48:56.359Z</time></trkpt><trkpt lat="45.1415617" lon="8.3310933"><ele>144.25</ele><time>2026-04-18T14:48:57.358Z</time></trkpt><trkpt lat="45.1415783" lon="8.3312517"><ele>144.0</ele><time>2026-04-18T14:48:58.359Z</time></trkpt><trkpt lat="45.1416017" lon="8.3314"><ele>143.75</ele><time>2026-04-18T14:48:59.358Z</time></trkpt><trkpt lat="45.14163" lon="8.3315667"><ele>143.5</ele><time>2026-04-18T14:49:00.359Z</time></trkpt><trkpt lat="45.141655" lon="8.33176"><ele>143.25</ele><time>2026-04-18T14:49:01.359Z</time></trkpt><trkpt lat="45.1416833" lon="8.3319483"><ele>143.0</ele><time>2026-04-18T14:49:02.359Z</time></trkpt><trkpt lat="45.1417283" lon="8.332145"><ele>142.8</ele><time>2026-04-18T14:49:03.359Z</time></trkpt><trkpt lat="45.1417533" lon="8.3323183"><ele>142.60000000000002</ele><time>2026-04-18T14:49:04.358Z</time></trkpt><trkpt lat="45.1418067" lon="8.332475"><ele>142.39999999999998</ele><time>2026-04-18T14:49:05.359Z</time></trkpt><trkpt lat="45.1418217" lon="8.332615"><ele>142.2</ele><time>2026-04-18T14:49:06.359Z</time></trkpt><trkpt lat="45.1418417" lon="8.332745"><ele>142.0</ele><time>2026-04-18T14:49:07.359Z</time></trkpt><trkpt lat="45.14187" lon="8.3328883"><ele>142.0</ele><time>2026-04-18T14:49:08.358Z</time></trkpt><trkpt lat="45.14188" lon="8.333015"><ele>142.0</ele><time>2026-04-18T14:49:09.359Z</time></trkpt><trkpt lat="45.141895" lon="8.33316"><ele>142.0</ele><time>2026-04-18T14:49:10.359Z</time></trkpt><trkpt lat="45.141915" lon="8.3333033"><ele>142.0</ele><time>2026-04-18T14:49:11.359Z</time></trkpt><trkpt lat="45.14193" lon="8.3334483"><ele>142.0</ele><time>2026-04-18T14:49:12.359Z</time></trkpt><trkpt lat="45.141955" lon="8.333575"><ele>141.83333333333334</ele><time>2026-04-18T14:49:13.359Z</time></trkpt><trkpt lat="45.14198" lon="8.333695"><ele>141.66666666666669</ele><time>2026-04-18T14:49:14.359Z</time></trkpt><trkpt lat="45.1420117" lon="8.3338167"><ele>141.5</ele><time>2026-04-18T14:49:15.359Z</time></trkpt><trkpt lat="45.14203" lon="8.3339433"><ele>141.33333333333334</ele><time>2026-04-18T14:49:16.359Z</time></trkpt><trkpt lat="45.1420467" lon="8.3340617"><ele>141.16666666666666</ele><time>2026-04-18T14:49:17.359Z</time></trkpt><trkpt lat="45.142065" lon="8.3341667"><ele>141.0</ele><time>2026-04-18T14:49:18.359Z</time></trkpt><trkpt lat="45.1420833" lon="8.334265"><ele>140.66666666666666</ele><time>2026-04-18T14:49:19.359Z</time></trkpt><trkpt lat="45.1421017" lon="8.3343667"><ele>140.33333333333334</ele><time>2026-04-18T14:49:20.358Z</time></trkpt><trkpt lat="45.1421217" lon="8.33447"><ele>140.0</ele><time>2026-04-18T14:49:21.359Z</time></trkpt><trkpt lat="45.1421433" lon="8.33457"><ele>139.66666666666669</ele><time>2026-04-18T14:49:22.359Z</time></trkpt><trkpt lat="45.1421633" lon="8.3346733"><ele>139.33333333333334</ele><time>2026-04-18T14:49:23.359Z</time></trkpt><trkpt lat="45.142185" lon="8.334765"><ele>139.0</ele><time>2026-04-18T14:49:24.358Z</time></trkpt><trkpt lat="45.1422133" lon="8.3349017"><ele>138.8</ele><time>2026-04-18T14:49:26.359Z</time></trkpt><trkpt lat="45.1422483" lon="8.335075"><ele>138.60000000000002</ele><time>2026-04-18T14:49:28.359Z</time></trkpt><trkpt lat="45.1422817" lon="8.3351867"><ele>138.4</ele><time>2026-04-18T14:49:29.359Z</time></trkpt><trkpt lat="45.142315" lon="8.3353017"><ele>138.20000000000002</ele><time>2026-04-18T14:49:30.358Z</time></trkpt><trkpt lat="45.1423583" lon="8.3354317"><ele>138.0</ele><time>2026-04-18T14:49:31.359Z</time></trkpt><trkpt lat="45.14241" lon="8.3355717"><ele>137.75</ele><time>2026-04-18T14:49:32.359Z</time></trkpt><trkpt lat="45.142435" lon="8.3357283"><ele>137.5</ele><time>2026-04-18T14:49:33.359Z</time></trkpt><trkpt lat="45.1424383" lon="8.3358917"><ele>137.25</ele><time>2026-04-18T14:49:34.358Z</time></trkpt><trkpt lat="45.1424217" lon="8.3360683"><ele>137.0</ele><time>2026-04-18T14:49:35.359Z</time></trkpt><trkpt lat="45.1423633" lon="8.336265"><ele>136.33333333333331</ele><time>2026-04-18T14:49:36.359Z</time></trkpt><trkpt lat="45.1423033" lon="8.336475"><ele>135.66666666666666</ele><time>2026-04-18T14:49:37.359Z</time></trkpt><trkpt lat="45.14225" lon="8.3366833"><ele>135.0</ele><time>2026-04-18T14:49:38.359Z</time></trkpt><trkpt lat="45.1421917" lon="8.336885"><ele>135.0</ele><time>2026-04-18T14:49:39.359Z</time></trkpt><trkpt lat="45.14213" lon="8.33709"><ele>135.0</ele><time>2026-04-18T14:49:40.359Z</time></trkpt><trkpt lat="45.1420683" lon="8.337295"><ele>135.0</ele><time>2026-04-18T14:49:41.359Z</time></trkpt><trkpt lat="45.1420133" lon="8.3375067"><ele>134.0</ele><time>2026-04-18T14:49:42.358Z</time></trkpt><trkpt lat="45.1419633" lon="8.3377183"><ele>133.0</ele><time>2026-04-18T14:49:43.358Z</time></trkpt><trkpt lat="45.1419017" lon="8.3379267"><ele>132.0</ele><time>2026-04-18T14:49:44.358Z</time></trkpt><trkpt lat="45.1418467" lon="8.3381317"><ele>131.66666666666666</ele><time>2026-04-18T14:49:45.359Z</time></trkpt><trkpt lat="45.141785" lon="8.33834"><ele>131.33333333333331</ele><time>2026-04-18T14:49:46.359Z</time></trkpt><trkpt lat="45.1417167" lon="8.3385467"><ele>131.0</ele><time>2026-04-18T14:49:47.359Z</time></trkpt><trkpt lat="45.1416617" lon="8.3387583"><ele>131.33333333333331</ele><time>2026-04-18T14:49:48.358Z</time></trkpt><trkpt lat="45.14161" lon="8.3389767"><ele>131.66666666666666</ele><time>2026-04-18T14:49:49.358Z</time></trkpt><trkpt lat="45.14155" lon="8.3391983"><ele>132.0</ele><time>2026-04-18T14:49:50.358Z</time></trkpt><trkpt lat="45.14149" lon="8.3394117"><ele>132.0</ele><time>2026-04-18T14:49:51.358Z</time></trkpt><trkpt lat="45.14143" lon="8.33961"><ele>132.0</ele><time>2026-04-18T14:49:52.358Z</time></trkpt><trkpt lat="45.141375" lon="8.339825"><ele>132.0</ele><time>2026-04-18T14:49:53.359Z</time></trkpt><trkpt lat="45.1413117" lon="8.3400333"><ele>130.66666666666666</ele><time>2026-04-18T14:49:54.359Z</time></trkpt><trkpt lat="45.14126" lon="8.3402417"><ele>129.33333333333331</ele><time>2026-04-18T14:49:55.359Z</time></trkpt><trkpt lat="45.141205" lon="8.3404533"><ele>128.0</ele><time>2026-04-18T14:49:56.359Z</time></trkpt><trkpt lat="45.1411433" lon="8.34065"><ele>128.0</ele><time>2026-04-18T14:49:57.359Z</time></trkpt><trkpt lat="45.1410917" lon="8.340865"><ele>128.0</ele><time>2026-04-18T14:49:58.359Z</time></trkpt><trkpt lat="45.1410317" lon="8.34107"><ele>128.0</ele><time>2026-04-18T14:49:59.359Z</time></trkpt><trkpt lat="45.1409767" lon="8.34128"><ele>128.0</ele><time>2026-04-18T14:50:00.359Z</time></trkpt><trkpt lat="45.1409233" lon="8.3414833"><ele>128.0</ele><time>2026-04-18T14:50:01.359Z</time></trkpt><trkpt lat="45.1408717" lon="8.3416883"><ele>128.0</ele><time>2026-04-18T14:50:02.358Z</time></trkpt><trkpt lat="45.1408183" lon="8.3419"><ele>128.0</ele><time>2026-04-18T14:50:03.359Z</time></trkpt><trkpt lat="45.1407633" lon="8.3421117"><ele>128.0</ele><time>2026-04-18T14:50:04.358Z</time></trkpt><trkpt lat="45.1407033" lon="8.34232"><ele>128.0</ele><time>2026-04-18T14:50:05.358Z</time></trkpt><trkpt lat="45.140645" lon="8.3425233"><ele>128.33333333333331</ele><time>2026-04-18T14:50:06.359Z</time></trkpt><trkpt lat="45.140585" lon="8.3427333"><ele>128.66666666666666</ele><time>2026-04-18T14:50:07.358Z</time></trkpt><trkpt lat="45.140525" lon="8.3429417"><ele>129.0</ele><time>2026-04-18T14:50:08.359Z</time></trkpt><trkpt lat="45.14046" lon="8.343155"><ele>129.0</ele><time>2026-04-18T14:50:09.359Z</time></trkpt><trkpt lat="45.1403983" lon="8.34337"><ele>129.0</ele><time>2026-04-18T14:50:10.359Z</time></trkpt><trkpt lat="45.14034" lon="8.3435933"><ele>129.0</ele><time>2026-04-18T14:50:11.359Z</time></trkpt><trkpt lat="45.1402817" lon="8.3438"><ele>128.66666666666666</ele><time>2026-04-18T14:50:12.359Z</time></trkpt><trkpt lat="45.14023" lon="8.3440233"><ele>128.33333333333331</ele><time>2026-04-18T14:50:13.359Z</time></trkpt><trkpt lat="45.140175" lon="8.3442317"><ele>128.0</ele><time>2026-04-18T14:50:14.358Z</time></trkpt><trkpt lat="45.1401367" lon="8.3444283"><ele>128.0</ele><time>2026-04-18T14:50:15.359Z</time></trkpt><trkpt lat="45.140065" lon="8.3446383"><ele>128.0</ele><time>2026-04-18T14:50:16.359Z</time></trkpt><trkpt lat="45.1399983" lon="8.34484"><ele>128.0</ele><time>2026-04-18T14:50:17.358Z</time></trkpt><trkpt lat="45.1399433" lon="8.34506"><ele>127.33333333333333</ele><time>2026-04-18T14:50:18.359Z</time></trkpt><trkpt lat="45.13988" lon="8.3452933"><ele>126.66666666666666</ele><time>2026-04-18T14:50:19.359Z</time></trkpt><trkpt lat="45.139825" lon="8.345515"><ele>126.0</ele><time>2026-04-18T14:50:20.359Z</time></trkpt><trkpt lat="45.139765" lon="8.3457283"><ele>125.66666666666666</ele><time>2026-04-18T14:50:21.359Z</time></trkpt><trkpt lat="45.1397067" lon="8.34594"><ele>125.33333333333333</ele><time>2026-04-18T14:50:22.359Z</time></trkpt><trkpt lat="45.1396433" lon="8.3461467"><ele>125.0</ele><time>2026-04-18T14:50:23.358Z</time></trkpt><trkpt lat="45.13959" lon="8.3463683"><ele>125.0</ele><time>2026-04-18T14:50:24.359Z</time></trkpt><trkpt lat="45.1395333" lon="8.346575"><ele>125.0</ele><time>2026-04-18T14:50:25.359Z</time></trkpt><trkpt lat="45.1394683" lon="8.346785"><ele>125.0</ele><time>2026-04-18T14:50:26.359Z</time></trkpt><trkpt lat="45.1394033" lon="8.3469883"><ele>125.0</ele><time>2026-04-18T14:50:27.359Z</time></trkpt><trkpt lat="45.1393417" lon="8.3472083"><ele>125.0</ele><time>2026-04-18T14:50:28.359Z</time></trkpt><trkpt lat="45.139275" lon="8.3474117"><ele>125.0</ele><time>2026-04-18T14:50:29.359Z</time></trkpt><trkpt lat="45.1392083" lon="8.3476267"><ele>125.66666666666666</ele><time>2026-04-18T14:50:30.359Z</time></trkpt><trkpt lat="45.139145" lon="8.3478483"><ele>126.33333333333334</ele><time>2026-04-18T14:50:31.359Z</time></trkpt><trkpt lat="45.1390833" lon="8.3480517"><ele>127.0</ele><time>2026-04-18T14:50:32.359Z</time></trkpt><trkpt lat="45.139035" lon="8.348275"><ele>128.66666666666669</ele><time>2026-04-18T14:50:33.359Z</time></trkpt><trkpt lat="45.13897" lon="8.3484733"><ele>130.33333333333334</ele><time>2026-04-18T14:50:34.358Z</time></trkpt><trkpt lat="45.1389117" lon="8.3486717"><ele>132.0</ele><time>2026-04-18T14:50:35.359Z</time></trkpt><trkpt lat="45.1388367" lon="8.3488633"><ele>132.75</ele><time>2026-04-18T14:50:36.359Z</time></trkpt><trkpt lat="45.13879" lon="8.3490683"><ele>133.5</ele><time>2026-04-18T14:50:37.359Z</time></trkpt><trkpt lat="45.1387517" lon="8.3492667"><ele>134.25</ele><time>2026-04-18T14:50:38.359Z</time></trkpt><trkpt lat="45.1387433" lon="8.3494683"><ele>135.0</ele><time>2026-04-18T14:50:39.358Z</time></trkpt><trkpt lat="45.1387567" lon="8.3496717"><ele>135.66666666666666</ele><time>2026-04-18T14:50:40.358Z</time></trkpt><trkpt lat="45.138805" lon="8.34987"><ele>136.33333333333331</ele><time>2026-04-18T14:50:41.359Z</time></trkpt><trkpt lat="45.138885" lon="8.3500633"><ele>137.0</ele><time>2026-04-18T14:50:42.359Z</time></trkpt><trkpt lat="45.1389617" lon="8.3502433"><ele>137.0</ele><time>2026-04-18T14:50:43.359Z</time></trkpt><trkpt lat="45.1390217" lon="8.35045"><ele>137.0</ele><time>2026-04-18T14:50:44.359Z</time></trkpt><trkpt lat="45.1390917" lon="8.35066"><ele>137.0</ele><time>2026-04-18T14:50:45.359Z</time></trkpt><trkpt lat="45.1391667" lon="8.3508583"><ele>137.75</ele><time>2026-04-18T14:50:46.359Z</time></trkpt><trkpt lat="45.139235" lon="8.3510533"><ele>138.5</ele><time>2026-04-18T14:50:47.359Z</time></trkpt><trkpt lat="45.1392733" lon="8.3512567"><ele>139.25</ele><time>2026-04-18T14:50:48.359Z</time></trkpt><trkpt lat="45.13928" lon="8.351445"><ele>140.0</ele><time>2026-04-18T14:50:49.359Z</time></trkpt><trkpt lat="45.1392617" lon="8.3516317"><ele>141.75</ele><time>2026-04-18T14:50:50.359Z</time></trkpt><trkpt lat="45.1391817" lon="8.3517867"><ele>143.5</ele><time>2026-04-18T14:50:51.358Z</time></trkpt><trkpt lat="45.139085" lon="8.35195"><ele>145.25</ele><time>2026-04-18T14:50:52.359Z</time></trkpt><trkpt lat="45.138985" lon="8.35212"><ele>147.0</ele><time>2026-04-18T14:50:53.358Z</time></trkpt><trkpt lat="45.1389017" lon="8.3523033"><ele>150.75</ele><time>2026-04-18T14:50:54.357Z</time></trkpt><trkpt lat="45.1388567" lon="8.3525117"><ele>154.5</ele><time>2026-04-18T14:50:55.358Z</time></trkpt><trkpt lat="45.1388517" lon="8.3527217"><ele>158.25</ele><time>2026-04-18T14:50:56.358Z</time></trkpt><trkpt lat="45.1388867" lon="8.3529"><ele>162.0</ele><time>2026-04-18T14:50:57.358Z</time></trkpt><trkpt lat="45.1390017" lon="8.35305"><ele>159.66666666666666</ele><time>2026-04-18T14:50:58.358Z</time></trkpt><trkpt lat="45.13914" lon="8.353155"><ele>157.33333333333331</ele><time>2026-04-18T14:50:59.358Z</time></trkpt><trkpt lat="45.139305" lon="8.35321"><ele>155.0</ele><time>2026-04-18T14:51:00.358Z</time></trkpt><trkpt lat="45.1394817" lon="8.3532517"><ele>155.0</ele><time>2026-04-18T14:51:01.357Z</time></trkpt><trkpt lat="45.1396533" lon="8.3532567"><ele>155.0</ele><time>2026-04-18T14:51:02.358Z</time></trkpt><trkpt lat="45.1398183" lon="8.35324"><ele>155.0</ele><time>2026-04-18T14:51:03.358Z</time></trkpt><trkpt lat="45.139965" lon="8.3531767"><ele>156.33333333333331</ele><time>2026-04-18T14:51:04.357Z</time></trkpt><trkpt lat="45.14009" lon="8.3530617"><ele>157.66666666666666</ele><time>2026-04-18T14:51:05.358Z</time></trkpt><trkpt lat="45.1402083" lon="8.3529217"><ele>159.0</ele><time>2026-04-18T14:51:06.358Z</time></trkpt><trkpt lat="45.1402983" lon="8.3527417"><ele>159.0</ele><time>2026-04-18T14:51:07.358Z</time></trkpt><trkpt lat="45.1403717" lon="8.3525417"><ele>159.0</ele><time>2026-04-18T14:51:08.358Z</time></trkpt><trkpt lat="45.1404383" lon="8.3523317"><ele>159.0</ele><time>2026-04-18T14:51:09.358Z</time></trkpt><trkpt lat="45.1405067" lon="8.3521267"><ele>158.0</ele><time>2026-04-18T14:51:10.358Z</time></trkpt><trkpt lat="45.1405817" lon="8.3519517"><ele>157.0</ele><time>2026-04-18T14:51:11.358Z</time></trkpt><trkpt lat="45.140645" lon="8.3518067"><ele>156.0</ele><time>2026-04-18T14:51:12.358Z</time></trkpt><trkpt lat="45.140725" lon="8.3517167"><ele>155.0</ele><time>2026-04-18T14:51:13.358Z</time></trkpt><trkpt lat="45.1408367" lon="8.3517"><ele>157.75</ele><time>2026-04-18T14:51:14.358Z</time></trkpt><trkpt lat="45.1409583" lon="8.3517633"><ele>160.5</ele><time>2026-04-18T14:51:15.358Z</time></trkpt><trkpt lat="45.1410233" lon="8.3518967"><ele>163.25</ele><time>2026-04-18T14:51:16.358Z</time></trkpt><trkpt lat="45.1410417" lon="8.35204"><ele>166.0</ele><time>2026-04-18T14:51:17.357Z</time></trkpt><trkpt lat="45.1410233" lon="8.352225"><ele>167.33333333333334</ele><time>2026-04-18T14:51:18.358Z</time></trkpt><trkpt lat="45.1409967" lon="8.3524283"><ele>168.66666666666666</ele><time>2026-04-18T14:51:19.358Z</time></trkpt><trkpt lat="45.1409683" lon="8.35265"><ele>170.0</ele><time>2026-04-18T14:51:20.357Z</time></trkpt><trkpt lat="45.14093" lon="8.35286"><ele>172.0</ele><time>2026-04-18T14:51:21.358Z</time></trkpt><trkpt lat="45.140875" lon="8.3530567"><ele>174.0</ele><time>2026-04-18T14:51:22.358Z</time></trkpt><trkpt lat="45.1408317" lon="8.3532533"><ele>176.0</ele><time>2026-04-18T14:51:23.358Z</time></trkpt><trkpt lat="45.14079" lon="8.3534517"><ele>178.0</ele><time>2026-04-18T14:51:24.358Z</time></trkpt><trkpt lat="45.1407417" lon="8.35366"><ele>175.33333333333334</ele><time>2026-04-18T14:51:25.358Z</time></trkpt><trkpt lat="45.140685" lon="8.35387"><ele>172.66666666666666</ele><time>2026-04-18T14:51:26.358Z</time></trkpt><trkpt lat="45.14064" lon="8.3540883"><ele>170.0</ele><time>2026-04-18T14:51:27.358Z</time></trkpt><trkpt lat="45.1406" lon="8.3543067"><ele>170.0</ele><time>2026-04-18T14:51:28.358Z</time></trkpt><trkpt lat="45.14057" lon="8.3545267"><ele>170.0</ele><time>2026-04-18T14:51:29.358Z</time></trkpt><trkpt lat="45.140545" lon="8.354755"><ele>170.0</ele><time>2026-04-18T14:51:30.358Z</time></trkpt><trkpt lat="45.1405317" lon="8.3549783"><ele>172.33333333333331</ele><time>2026-04-18T14:51:31.358Z</time></trkpt><trkpt lat="45.140535" lon="8.3552133"><ele>174.66666666666666</ele><time>2026-04-18T14:51:32.358Z</time></trkpt><trkpt lat="45.1405467" lon="8.3554383"><ele>177.0</ele><time>2026-04-18T14:51:33.358Z</time></trkpt><trkpt lat="45.140565" lon="8.35566"><ele>178.75</ele><time>2026-04-18T14:51:34.358Z</time></trkpt><trkpt lat="45.140575" lon="8.3558733"><ele>180.5</ele><time>2026-04-18T14:51:35.357Z</time></trkpt><trkpt lat="45.1405483" lon="8.3560767"><ele>182.25</ele><time>2026-04-18T14:51:36.357Z</time></trkpt><trkpt lat="45.1404967" lon="8.35627"><ele>184.0</ele><time>2026-04-18T14:51:37.358Z</time></trkpt><trkpt lat="45.14043" lon="8.3564517"><ele>187.0</ele><time>2026-04-18T14:51:38.358Z</time></trkpt><trkpt lat="45.1403267" lon="8.3566017"><ele>190.0</ele><time>2026-04-18T14:51:39.358Z</time></trkpt><trkpt lat="45.1402017" lon="8.3567233"><ele>193.0</ele><time>2026-04-18T14:51:40.358Z</time></trkpt><trkpt lat="45.1400617" lon="8.3568267"><ele>193.0</ele><time>2026-04-18T14:51:41.358Z</time></trkpt><trkpt lat="45.1399067" lon="8.3569017"><ele>193.0</ele><time>2026-04-18T14:51:42.358Z</time></trkpt><trkpt lat="45.13975" lon="8.35694"><ele>193.0</ele><time>2026-04-18T14:51:43.358Z</time></trkpt><trkpt lat="45.1395833" lon="8.3569283"><ele>195.0</ele><time>2026-04-18T14:51:44.358Z</time></trkpt><trkpt lat="45.13943" lon="8.35688"><ele>197.0</ele><time>2026-04-18T14:51:45.358Z</time></trkpt><trkpt lat="45.1392867" lon="8.356795"><ele>199.0</ele><time>2026-04-18T14:51:46.357Z</time></trkpt><trkpt lat="45.139155" lon="8.3566817"><ele>199.0</ele><time>2026-04-18T14:51:47.357Z</time></trkpt><trkpt lat="45.139025" lon="8.356585"><ele>199.0</ele><time>2026-04-18T14:51:48.358Z</time></trkpt><trkpt lat="45.13889" lon="8.3565117"><ele>199.0</ele><time>2026-04-18T14:51:49.358Z</time></trkpt><trkpt lat="45.1387617" lon="8.35649"><ele>199.0</ele><time>2026-04-18T14:51:50.358Z</time></trkpt><trkpt lat="45.1386383" lon="8.3565183"><ele>199.0</ele><time>2026-04-18T14:51:51.358Z</time></trkpt><trkpt lat="45.1385267" lon="8.3566133"><ele>199.0</ele><time>2026-04-18T14:51:52.358Z</time></trkpt><trkpt lat="45.1384417" lon="8.3567567"><ele>199.0</ele><time>2026-04-18T14:51:53.358Z</time></trkpt><trkpt lat="45.1383983" lon="8.3569467"><ele>199.0</ele><time>2026-04-18T14:51:54.358Z</time></trkpt><trkpt lat="45.1383817" lon="8.3571467"><ele>201.25</ele><time>2026-04-18T14:51:55.358Z</time></trkpt><trkpt lat="45.1383667" lon="8.3573433"><ele>203.5</ele><time>2026-04-18T14:51:56.358Z</time></trkpt><trkpt lat="45.1383617" lon="8.357545"><ele>205.75</ele><time>2026-04-18T14:51:57.358Z</time></trkpt><trkpt lat="45.1383633" lon="8.3577533"><ele>208.0</ele><time>2026-04-18T14:51:58.358Z</time></trkpt><trkpt lat="45.1383633" lon="8.3579633"><ele>210.0</ele><time>2026-04-18T14:51:59.358Z</time></trkpt><trkpt lat="45.13836" lon="8.3581783"><ele>212.0</ele><time>2026-04-18T14:52:00.357Z</time></trkpt><trkpt lat="45.1383667" lon="8.35837"><ele>214.0</ele><time>2026-04-18T14:52:01.358Z</time></trkpt><trkpt lat="45.1383633" lon="8.3586017"><ele>214.0</ele><time>2026-04-18T14:52:02.358Z</time></trkpt><trkpt lat="45.1383517" lon="8.3588283"><ele>214.0</ele><time>2026-04-18T14:52:03.358Z</time></trkpt><trkpt lat="45.1383533" lon="8.3590367"><ele>214.0</ele><time>2026-04-18T14:52:04.357Z</time></trkpt><trkpt lat="45.1383633" lon="8.3592333"><ele>214.0</ele><time>2026-04-18T14:52:05.358Z</time></trkpt><trkpt lat="45.1383667" lon="8.3594117"><ele>214.6</ele><time>2026-04-18T14:52:06.358Z</time></trkpt><trkpt lat="45.1383883" lon="8.359565"><ele>215.2</ele><time>2026-04-18T14:52:07.358Z</time></trkpt><trkpt lat="45.1384017" lon="8.3597033"><ele>215.79999999999998</ele><time>2026-04-18T14:52:08.358Z</time></trkpt><trkpt lat="45.13842" lon="8.3598217"><ele>216.39999999999998</ele><time>2026-04-18T14:52:09.358Z</time></trkpt><trkpt lat="45.1384467" lon="8.35992"><ele>217.0</ele><time>2026-04-18T14:52:10.358Z</time></trkpt><trkpt lat="45.13848" lon="8.360055"><ele>216.99999999999997</ele><time>2026-04-18T14:52:12.358Z</time></trkpt><trkpt lat="45.1384133" lon="8.3600083"><ele>217.0</ele><time>2026-04-18T14:52:16.358Z</time></trkpt><trkpt lat="45.1383983" lon="8.3599067"><ele>217.0</ele><time>2026-04-18T14:52:17.358Z</time></trkpt><trkpt lat="45.1383683" lon="8.359805"><ele>217.0</ele><time>2026-04-18T14:52:18.358Z</time></trkpt><trkpt lat="45.1383367" lon="8.359715"><ele>216.99999999999997</ele><time>2026-04-18T14:52:19.358Z</time></trkpt><trkpt lat="45.138245" lon="8.35966"><ele>217.0</ele><time>2026-04-18T14:52:21.357Z</time></trkpt><trkpt lat="45.138135" lon="8.3597767"><ele>216.5</ele><time>2026-04-18T14:52:23.358Z</time></trkpt><trkpt lat="45.1380633" lon="8.3598917"><ele>216.0</ele><time>2026-04-18T14:52:24.358Z</time></trkpt><trkpt lat="45.13798" lon="8.3600267"><ele>215.5</ele><time>2026-04-18T14:52:25.357Z</time></trkpt><trkpt lat="45.1379" lon="8.360185"><ele>215.0</ele><time>2026-04-18T14:52:26.358Z</time></trkpt><trkpt lat="45.1378217" lon="8.36033"><ele>215.0</ele><time>2026-04-18T14:52:27.357Z</time></trkpt><trkpt lat="45.1377417" lon="8.36048"><ele>215.0</ele><time>2026-04-18T14:52:28.357Z</time></trkpt><trkpt lat="45.13767" lon="8.3606183"><ele>215.0</ele><time>2026-04-18T14:52:29.358Z</time></trkpt><trkpt lat="45.1375933" lon="8.3607717"><ele>215.0</ele><time>2026-04-18T14:52:30.358Z</time></trkpt><trkpt lat="45.13751" lon="8.3609117"><ele>215.25</ele><time>2026-04-18T14:52:31.357Z</time></trkpt><trkpt lat="45.1374283" lon="8.3610517"><ele>215.5</ele><time>2026-04-18T14:52:32.357Z</time></trkpt><trkpt lat="45.1373483" lon="8.36119"><ele>215.75</ele><time>2026-04-18T14:52:33.358Z</time></trkpt><trkpt lat="45.1372667" lon="8.3613267"><ele>216.0</ele><time>2026-04-18T14:52:34.357Z</time></trkpt><trkpt lat="45.1371783" lon="8.36147"><ele>216.0</ele><time>2026-04-18T14:52:35.358Z</time></trkpt><trkpt lat="45.1370867" lon="8.3616183"><ele>216.0</ele><time>2026-04-18T14:52:36.358Z</time></trkpt><trkpt lat="45.1369817" lon="8.36176"><ele>216.0</ele><time>2026-04-18T14:52:37.358Z</time></trkpt><trkpt lat="45.1368817" lon="8.361905"><ele>216.0</ele><time>2026-04-18T14:52:38.358Z</time></trkpt><trkpt lat="45.1367817" lon="8.362045"><ele>216.0</ele><time>2026-04-18T14:52:39.358Z</time></trkpt><trkpt lat="45.1366783" lon="8.3621817"><ele>216.0</ele><time>2026-04-18T14:52:40.357Z</time></trkpt><trkpt lat="45.13659" lon="8.3622967"><ele>216.0</ele><time>2026-04-18T14:52:41.358Z</time></trkpt><trkpt lat="45.1364883" lon="8.36238"><ele>216.0</ele><time>2026-04-18T14:52:42.357Z</time></trkpt><trkpt lat="45.13638" lon="8.3624233"><ele>216.75</ele><time>2026-04-18T14:52:43.358Z</time></trkpt><trkpt lat="45.1362617" lon="8.36246"><ele>217.5</ele><time>2026-04-18T14:52:44.357Z</time></trkpt><trkpt lat="45.1361417" lon="8.362505"><ele>218.25</ele><time>2026-04-18T14:52:45.358Z</time></trkpt><trkpt lat="45.13601" lon="8.3625567"><ele>219.0</ele><time>2026-04-18T14:52:46.358Z</time></trkpt><trkpt lat="45.1358833" lon="8.3626367"><ele>219.0</ele><time>2026-04-18T14:52:47.358Z</time></trkpt><trkpt lat="45.13573" lon="8.36268"><ele>219.0</ele><time>2026-04-18T14:52:48.358Z</time></trkpt><trkpt lat="45.1355733" lon="8.362685"><ele>219.0</ele><time>2026-04-18T14:52:49.358Z</time></trkpt><trkpt lat="45.1354083" lon="8.3626583"><ele>219.0</ele><time>2026-04-18T14:52:50.358Z</time></trkpt><trkpt lat="45.13523" lon="8.362635"><ele>219.0</ele><time>2026-04-18T14:52:51.358Z</time></trkpt><trkpt lat="45.1350583" lon="8.36261"><ele>219.0</ele><time>2026-04-18T14:52:52.358Z</time></trkpt><trkpt lat="45.134885" lon="8.3625867"><ele>219.0</ele><time>2026-04-18T14:52:53.358Z</time></trkpt><trkpt lat="45.1347133" lon="8.3625633"><ele>219.0</ele><time>2026-04-18T14:52:54.358Z</time></trkpt><trkpt lat="45.1345433" lon="8.3625417"><ele>219.0</ele><time>2026-04-18T14:52:55.357Z</time></trkpt><trkpt lat="45.1343833" lon="8.362525"><ele>219.0</ele><time>2026-04-18T14:52:56.358Z</time></trkpt><trkpt lat="45.134215" lon="8.36251"><ele>219.0</ele><time>2026-04-18T14:52:57.357Z</time></trkpt><trkpt lat="45.1340517" lon="8.362485"><ele>219.0</ele><time>2026-04-18T14:52:58.357Z</time></trkpt><trkpt lat="45.1338933" lon="8.362475"><ele>220.0</ele><time>2026-04-18T14:52:59.358Z</time></trkpt><trkpt lat="45.1337417" lon="8.3624533"><ele>221.0</ele><time>2026-04-18T14:53:00.357Z</time></trkpt><trkpt lat="45.133595" lon="8.3624417"><ele>222.0</ele><time>2026-04-18T14:53:01.357Z</time></trkpt><trkpt lat="45.1334567" lon="8.3624"><ele>223.0</ele><time>2026-04-18T14:53:02.358Z</time></trkpt><trkpt lat="45.1333133" lon="8.3623617"><ele>222.75</ele><time>2026-04-18T14:53:03.358Z</time></trkpt><trkpt lat="45.1331783" lon="8.3623067"><ele>222.5</ele><time>2026-04-18T14:53:04.358Z</time></trkpt><trkpt lat="45.133045" lon="8.36224"><ele>222.25</ele><time>2026-04-18T14:53:05.358Z</time></trkpt><trkpt lat="45.132925" lon="8.362165"><ele>222.0</ele><time>2026-04-18T14:53:06.358Z</time></trkpt><trkpt lat="45.1327983" lon="8.3620783"><ele>223.25</ele><time>2026-04-18T14:53:07.358Z</time></trkpt><trkpt lat="45.1326767" lon="8.3619883"><ele>224.5</ele><time>2026-04-18T14:53:08.358Z</time></trkpt><trkpt lat="45.1325467" lon="8.3618933"><ele>225.75</ele><time>2026-04-18T14:53:09.357Z</time></trkpt><trkpt lat="45.1324167" lon="8.3618017"><ele>227.0</ele><time>2026-04-18T14:53:10.358Z</time></trkpt><trkpt lat="45.1322933" lon="8.3617183"><ele>227.75</ele><time>2026-04-18T14:53:11.358Z</time></trkpt><trkpt lat="45.1321617" lon="8.361645"><ele>228.5</ele><time>2026-04-18T14:53:12.358Z</time></trkpt><trkpt lat="45.132035" lon="8.3615683"><ele>229.25</ele><time>2026-04-18T14:53:13.358Z</time></trkpt><trkpt lat="45.1319133" lon="8.36149"><ele>230.0</ele><time>2026-04-18T14:53:14.358Z</time></trkpt><trkpt lat="45.1317833" lon="8.3614033"><ele>230.5</ele><time>2026-04-18T14:53:15.358Z</time></trkpt><trkpt lat="45.131645" lon="8.3613117"><ele>231.0</ele><time>2026-04-18T14:53:16.358Z</time></trkpt><trkpt lat="45.131515" lon="8.3612217"><ele>231.5</ele><time>2026-04-18T14:53:17.358Z</time></trkpt><trkpt lat="45.131385" lon="8.36113"><ele>232.0</ele><time>2026-04-18T14:53:18.357Z</time></trkpt><trkpt lat="45.1312333" lon="8.3610417"><ele>232.66666666666666</ele><time>2026-04-18T14:53:19.358Z</time></trkpt><trkpt lat="45.1310867" lon="8.36095"><ele>233.33333333333331</ele><time>2026-04-18T14:53:20.358Z</time></trkpt><trkpt lat="45.1309333" lon="8.3608633"><ele>234.0</ele><time>2026-04-18T14:53:21.357Z</time></trkpt><trkpt lat="45.1307883" lon="8.3607667"><ele>235.33333333333331</ele><time>2026-04-18T14:53:22.358Z</time></trkpt><trkpt lat="45.13064" lon="8.3606717"><ele>236.66666666666666</ele><time>2026-04-18T14:53:23.358Z</time></trkpt><trkpt lat="45.13049" lon="8.36058"><ele>238.0</ele><time>2026-04-18T14:53:24.357Z</time></trkpt><trkpt lat="45.13035" lon="8.3604783"><ele>239.33333333333331</ele><time>2026-04-18T14:53:25.357Z</time></trkpt><trkpt lat="45.1302167" lon="8.3603567"><ele>240.66666666666669</ele><time>2026-04-18T14:53:26.358Z</time></trkpt><trkpt lat="45.13011" lon="8.3602033"><ele>242.0</ele><time>2026-04-18T14:53:27.357Z</time></trkpt><trkpt lat="45.1300183" lon="8.3600167"><ele>242.0</ele><time>2026-04-18T14:53:28.358Z</time></trkpt><trkpt lat="45.129945" lon="8.35982"><ele>242.0</ele><time>2026-04-18T14:53:29.358Z</time></trkpt><trkpt lat="45.1298917" lon="8.3596067"><ele>242.0</ele><time>2026-04-18T14:53:30.358Z</time></trkpt><trkpt lat="45.1298317" lon="8.35939"><ele>246.0</ele><time>2026-04-18T14:53:31.358Z</time></trkpt><trkpt lat="45.1297733" lon="8.359185"><ele>250.0</ele><time>2026-04-18T14:53:32.358Z</time></trkpt><trkpt lat="45.129715" lon="8.3589683"><ele>254.0</ele><time>2026-04-18T14:53:33.358Z</time></trkpt><trkpt lat="45.1296567" lon="8.3587533"><ele>254.0</ele><time>2026-04-18T14:53:34.358Z</time></trkpt><trkpt lat="45.1296" lon="8.3585383"><ele>254.0</ele><time>2026-04-18T14:53:35.358Z</time></trkpt><trkpt lat="45.1295517" lon="8.358345"><ele>254.0</ele><time>2026-04-18T14:53:36.358Z</time></trkpt><trkpt lat="45.1295017" lon="8.3581367"><ele>251.66666666666669</ele><time>2026-04-18T14:53:37.358Z</time></trkpt><trkpt lat="45.1294617" lon="8.3579333"><ele>249.33333333333331</ele><time>2026-04-18T14:53:38.358Z</time></trkpt><trkpt lat="45.129425" lon="8.3577183"><ele>247.0</ele><time>2026-04-18T14:53:39.358Z</time></trkpt><trkpt lat="45.12938" lon="8.3575233"><ele>247.0</ele><time>2026-04-18T14:53:40.358Z</time></trkpt><trkpt lat="45.1293433" lon="8.3573217"><ele>247.0</ele><time>2026-04-18T14:53:41.358Z</time></trkpt><trkpt lat="45.1293217" lon="8.35711"><ele>247.0</ele><time>2026-04-18T14:53:42.358Z</time></trkpt><trkpt lat="45.1293017" lon="8.3569017"><ele>247.0</ele><time>2026-04-18T14:53:43.358Z</time></trkpt><trkpt lat="45.1292917" lon="8.3566933"><ele>243.66666666666666</ele><time>2026-04-18T14:53:44.357Z</time></trkpt><trkpt lat="45.129275" lon="8.3564817"><ele>240.33333333333331</ele><time>2026-04-18T14:53:45.357Z</time></trkpt><trkpt lat="45.129255" lon="8.356255"><ele>237.0</ele><time>2026-04-18T14:53:46.357Z</time></trkpt><trkpt lat="45.129235" lon="8.3560467"><ele>235.25</ele><time>2026-04-18T14:53:47.358Z</time></trkpt><trkpt lat="45.1292167" lon="8.3558433"><ele>233.5</ele><time>2026-04-18T14:53:48.357Z</time></trkpt><trkpt lat="45.1291917" lon="8.3556417"><ele>231.75</ele><time>2026-04-18T14:53:49.358Z</time></trkpt><trkpt lat="45.1291683" lon="8.3554367"><ele>230.0</ele><time>2026-04-18T14:53:50.358Z</time></trkpt><trkpt lat="45.1291567" lon="8.355245"><ele>229.8</ele><time>2026-04-18T14:53:51.358Z</time></trkpt><trkpt lat="45.1291367" lon="8.355065"><ele>229.6</ele><time>2026-04-18T14:53:52.358Z</time></trkpt><trkpt lat="45.129135" lon="8.3549"><ele>229.39999999999998</ele><time>2026-04-18T14:53:53.357Z</time></trkpt><trkpt lat="45.1291283" lon="8.35477"><ele>229.2</ele><time>2026-04-18T14:53:54.358Z</time></trkpt><trkpt lat="45.1291267" lon="8.3546717"><ele>229.0</ele><time>2026-04-18T14:53:55.357Z</time></trkpt><trkpt lat="45.1290833" lon="8.3545233"><ele>228.0</ele><time>2026-04-18T14:53:57.357Z</time></trkpt><trkpt lat="45.128935" lon="8.3544967"><ele>227.0</ele><time>2026-04-18T14:53:59.358Z</time></trkpt><trkpt lat="45.1288183" lon="8.3545167"><ele>226.0</ele><time>2026-04-18T14:54:00.357Z</time></trkpt><trkpt lat="45.1286833" lon="8.3545467"><ele>225.0</ele><time>2026-04-18T14:54:01.358Z</time></trkpt><trkpt lat="45.1285467" lon="8.3545517"><ele>225.0</ele><time>2026-04-18T14:54:02.358Z</time></trkpt><trkpt lat="45.128415" lon="8.354555"><ele>225.0</ele><time>2026-04-18T14:54:03.358Z</time></trkpt><trkpt lat="45.1282817" lon="8.3545733"><ele>225.0</ele><time>2026-04-18T14:54:04.358Z</time></trkpt><trkpt lat="45.12816" lon="8.3545633"><ele>225.0</ele><time>2026-04-18T14:54:05.358Z</time></trkpt><trkpt lat="45.1280317" lon="8.3545583"><ele>224.8</ele><time>2026-04-18T14:54:06.358Z</time></trkpt><trkpt lat="45.1279167" lon="8.3545333"><ele>224.6</ele><time>2026-04-18T14:54:07.358Z</time></trkpt><trkpt lat="45.1278083" lon="8.3545117"><ele>224.39999999999998</ele><time>2026-04-18T14:54:08.357Z</time></trkpt><trkpt lat="45.127705" lon="8.3544883"><ele>224.2</ele><time>2026-04-18T14:54:09.357Z</time></trkpt><trkpt lat="45.127615" lon="8.354455"><ele>224.0</ele><time>2026-04-18T14:54:10.358Z</time></trkpt><trkpt lat="45.12754" lon="8.3544283"><ele>224.00000000000003</ele><time>2026-04-18T14:54:11.357Z</time></trkpt><trkpt lat="45.1274533" lon="8.3543733"><ele>224.0</ele><time>2026-04-18T14:54:13.358Z</time></trkpt><trkpt lat="45.1273867" lon="8.3543717"><ele>224.0</ele><time>2026-04-18T14:54:17.358Z</time></trkpt><trkpt lat="45.127325" lon="8.3543933"><ele>224.0</ele><time>2026-04-18T14:54:19.357Z</time></trkpt><trkpt lat="45.12724" lon="8.3544067"><ele>224.00000000000003</ele><time>2026-04-18T14:54:21.358Z</time></trkpt><trkpt lat="45.1271617" lon="8.35443"><ele>224.0</ele><time>2026-04-18T14:54:22.357Z</time></trkpt><trkpt lat="45.1270633" lon="8.3544683"><ele>222.0</ele><time>2026-04-18T14:54:23.358Z</time></trkpt><trkpt lat="45.1269467" lon="8.3545"><ele>220.0</ele><time>2026-04-18T14:54:24.358Z</time></trkpt><trkpt lat="45.1268067" lon="8.3545333"><ele>218.0</ele><time>2026-04-18T14:54:25.358Z</time></trkpt><trkpt lat="45.12666" lon="8.354565"><ele>216.0</ele><time>2026-04-18T14:54:26.357Z</time></trkpt><trkpt lat="45.1265217" lon="8.3545983"><ele>215.5</ele><time>2026-04-18T14:54:27.357Z</time></trkpt><trkpt lat="45.126385" lon="8.3546533"><ele>215.0</ele><time>2026-04-18T14:54:28.358Z</time></trkpt><trkpt lat="45.12626" lon="8.3547"><ele>214.5</ele><time>2026-04-18T14:54:29.358Z</time></trkpt><trkpt lat="45.1261633" lon="8.3547617"><ele>214.0</ele><time>2026-04-18T14:54:30.358Z</time></trkpt><trkpt lat="45.1260717" lon="8.35483"><ele>214.0</ele><time>2026-04-18T14:54:31.358Z</time></trkpt><trkpt lat="45.1259833" lon="8.3549417"><ele>214.0</ele><time>2026-04-18T14:54:32.358Z</time></trkpt><trkpt lat="45.1258917" lon="8.3550733"><ele>214.0</ele><time>2026-04-18T14:54:33.358Z</time></trkpt><trkpt lat="45.1257983" lon="8.3552183"><ele>214.0</ele><time>2026-04-18T14:54:34.358Z</time></trkpt><trkpt lat="45.1257133" lon="8.35536"><ele>214.0</ele><time>2026-04-18T14:54:35.358Z</time></trkpt><trkpt lat="45.1256467" lon="8.3554917"><ele>214.0</ele><time>2026-04-18T14:54:36.358Z</time></trkpt><trkpt lat="45.125595" lon="8.355635"><ele>214.0</ele><time>2026-04-18T14:54:37.358Z</time></trkpt><trkpt lat="45.1255483" lon="8.3557917"><ele>214.0</ele><time>2026-04-18T14:54:38.358Z</time></trkpt><trkpt lat="45.1255" lon="8.3559367"><ele>213.99999999999997</ele><time>2026-04-18T14:54:39.357Z</time></trkpt><trkpt lat="45.1254483" lon="8.3560583"><ele>214.0</ele><time>2026-04-18T14:54:40.358Z</time></trkpt><trkpt lat="45.125405" lon="8.3561683"><ele>214.0</ele><time>2026-04-18T14:54:41.358Z</time></trkpt><trkpt lat="45.1253567" lon="8.35625"><ele>214.0</ele><time>2026-04-18T14:54:42.357Z</time></trkpt><trkpt lat="45.125315" lon="8.356325"><ele>213.99999999999997</ele><time>2026-04-18T14:54:43.358Z</time></trkpt><trkpt lat="45.1252583" lon="8.3563717"><ele>214.0</ele><time>2026-04-18T14:54:44.358Z</time></trkpt><trkpt lat="45.1251933" lon="8.356375"><ele>214.0</ele><time>2026-04-18T14:54:45.358Z</time></trkpt><trkpt lat="45.125115" lon="8.356335"><ele>214.0</ele><time>2026-04-18T14:54:46.358Z</time></trkpt><trkpt lat="45.1250217" lon="8.356265"><ele>214.0</ele><time>2026-04-18T14:54:47.358Z</time></trkpt><trkpt lat="45.1249233" lon="8.3561517"><ele>214.0</ele><time>2026-04-18T14:54:48.358Z</time></trkpt><trkpt lat="45.1248117" lon="8.3560317"><ele>217.25</ele><time>2026-04-18T14:54:49.358Z</time></trkpt><trkpt lat="45.12471" lon="8.355915"><ele>220.5</ele><time>2026-04-18T14:54:50.357Z</time></trkpt><trkpt lat="45.124595" lon="8.3557983"><ele>223.75</ele><time>2026-04-18T14:54:51.358Z</time></trkpt><trkpt lat="45.1244883" lon="8.3556767"><ele>227.0</ele><time>2026-04-18T14:54:52.357Z</time></trkpt><trkpt lat="45.1243683" lon="8.3555633"><ele>228.0</ele><time>2026-04-18T14:54:53.358Z</time></trkpt><trkpt lat="45.12426" lon="8.355425"><ele>229.0</ele><time>2026-04-18T14:54:54.358Z</time></trkpt><trkpt lat="45.124155" lon="8.3553117"><ele>230.0</ele><time>2026-04-18T14:54:55.358Z</time></trkpt><trkpt lat="45.12405" lon="8.3551833"><ele>231.0</ele><time>2026-04-18T14:54:56.358Z</time></trkpt><trkpt lat="45.1239533" lon="8.3550483"><ele>231.0</ele><time>2026-04-18T14:54:57.357Z</time></trkpt><trkpt lat="45.1238667" lon="8.3549083"><ele>231.0</ele><time>2026-04-18T14:54:58.357Z</time></trkpt><trkpt lat="45.1237883" lon="8.3547533"><ele>231.0</ele><time>2026-04-18T14:54:59.358Z</time></trkpt><trkpt lat="45.123715" lon="8.3546217"><ele>231.0</ele><time>2026-04-18T14:55:00.357Z</time></trkpt><trkpt lat="45.1236133" lon="8.3545067"><ele>229.5</ele><time>2026-04-18T14:55:01.357Z</time></trkpt><trkpt lat="45.123515" lon="8.3544183"><ele>228.0</ele><time>2026-04-18T14:55:02.358Z</time></trkpt><trkpt lat="45.1234033" lon="8.35437"><ele>226.5</ele><time>2026-04-18T14:55:03.357Z</time></trkpt><trkpt lat="45.1232833" lon="8.3543383"><ele>225.0</ele><time>2026-04-18T14:55:04.358Z</time></trkpt><trkpt lat="45.1231717" lon="8.3542967"><ele>225.0</ele><time>2026-04-18T14:55:05.357Z</time></trkpt><trkpt lat="45.1230617" lon="8.3542783"><ele>225.0</ele><time>2026-04-18T14:55:06.358Z</time></trkpt><trkpt lat="45.1229617" lon="8.3542733"><ele>225.0</ele><time>2026-04-18T14:55:07.358Z</time></trkpt><trkpt lat="45.12287" lon="8.3542783"><ele>225.0</ele><time>2026-04-18T14:55:08.358Z</time></trkpt><trkpt lat="45.1227617" lon="8.3542967"><ele>225.0</ele><time>2026-04-18T14:55:09.357Z</time></trkpt><trkpt lat="45.1226583" lon="8.3543333"><ele>225.0</ele><time>2026-04-18T14:55:10.357Z</time></trkpt><trkpt lat="45.1225367" lon="8.3543667"><ele>225.0</ele><time>2026-04-18T14:55:11.358Z</time></trkpt><trkpt lat="45.1224167" lon="8.35439"><ele>225.0</ele><time>2026-04-18T14:55:12.358Z</time></trkpt><trkpt lat="45.1223017" lon="8.3544133"><ele>225.0</ele><time>2026-04-18T14:55:13.358Z</time></trkpt><trkpt lat="45.1221717" lon="8.35444"><ele>225.75</ele><time>2026-04-18T14:55:14.358Z</time></trkpt><trkpt lat="45.12206" lon="8.3544667"><ele>226.5</ele><time>2026-04-18T14:55:15.358Z</time></trkpt><trkpt lat="45.1219467" lon="8.3545"><ele>227.25</ele><time>2026-04-18T14:55:16.358Z</time></trkpt><trkpt lat="45.121825" lon="8.3545033"><ele>228.0</ele><time>2026-04-18T14:55:17.358Z</time></trkpt><trkpt lat="45.12172" lon="8.3544767"><ele>228.0</ele><time>2026-04-18T14:55:18.358Z</time></trkpt><trkpt lat="45.12162" lon="8.354445"><ele>228.0</ele><time>2026-04-18T14:55:19.357Z</time></trkpt><trkpt lat="45.12151" lon="8.354405"><ele>228.0</ele><time>2026-04-18T14:55:20.358Z</time></trkpt><trkpt lat="45.12141" lon="8.3543633"><ele>228.0</ele><time>2026-04-18T14:55:21.358Z</time></trkpt><trkpt lat="45.1213367" lon="8.35434"><ele>228.0</ele><time>2026-04-18T14:55:22.358Z</time></trkpt><trkpt lat="45.1212233" lon="8.3543367"><ele>227.83333333333334</ele><time>2026-04-18T14:55:24.358Z</time></trkpt><trkpt lat="45.1212033" lon="8.3544367"><ele>227.66666666666669</ele><time>2026-04-18T14:55:26.358Z</time></trkpt><trkpt lat="45.1212317" lon="8.3546067"><ele>227.5</ele><time>2026-04-18T14:55:28.358Z</time></trkpt><trkpt lat="45.121245" lon="8.35472"><ele>227.33333333333334</ele><time>2026-04-18T14:55:29.357Z</time></trkpt><trkpt lat="45.12125" lon="8.35483"><ele>227.16666666666669</ele><time>2026-04-18T14:55:30.358Z</time></trkpt><trkpt lat="45.121265" lon="8.354955"><ele>227.0</ele><time>2026-04-18T14:55:31.357Z</time></trkpt><trkpt lat="45.12129" lon="8.355085"><ele>227.66666666666669</ele><time>2026-04-18T14:55:32.358Z</time></trkpt><trkpt lat="45.1213033" lon="8.3551833"><ele>228.33333333333334</ele><time>2026-04-18T14:55:33.358Z</time></trkpt><trkpt lat="45.1213083" lon="8.35531"><ele>229.0</ele><time>2026-04-18T14:55:35.358Z</time></trkpt><trkpt lat="45.1212083" lon="8.3553433"><ele>229.66666666666669</ele><time>2026-04-18T14:55:37.358Z</time></trkpt><trkpt lat="45.121125" lon="8.3553183"><ele>230.33333333333334</ele><time>2026-04-18T14:55:38.357Z</time></trkpt><trkpt lat="45.121035" lon="8.3553017"><ele>231.0</ele><time>2026-04-18T14:55:39.358Z</time></trkpt><trkpt lat="45.120935" lon="8.3552833"><ele>231.0</ele><time>2026-04-18T14:55:40.358Z</time></trkpt><trkpt lat="45.1208167" lon="8.3552967"><ele>231.0</ele><time>2026-04-18T14:55:41.357Z</time></trkpt><trkpt lat="45.1206833" lon="8.3553467"><ele>231.0</ele><time>2026-04-18T14:55:42.358Z</time></trkpt><trkpt lat="45.1205433" lon="8.3554217"><ele>231.0</ele><time>2026-04-18T14:55:43.358Z</time></trkpt><trkpt lat="45.1203983" lon="8.3555083"><ele>229.25</ele><time>2026-04-18T14:55:44.358Z</time></trkpt><trkpt lat="45.1202783" lon="8.35558"><ele>227.5</ele><time>2026-04-18T14:55:45.358Z</time></trkpt><trkpt lat="45.1201467" lon="8.3556317"><ele>225.75</ele><time>2026-04-18T14:55:46.358Z</time></trkpt><trkpt lat="45.1200133" lon="8.3556683"><ele>224.0</ele><time>2026-04-18T14:55:47.358Z</time></trkpt><trkpt lat="45.11988" lon="8.3556833"><ele>223.25</ele><time>2026-04-18T14:55:48.358Z</time></trkpt><trkpt lat="45.119735" lon="8.35568"><ele>222.5</ele><time>2026-04-18T14:55:49.358Z</time></trkpt><trkpt lat="45.1195933" lon="8.3556783"><ele>221.75</ele><time>2026-04-18T14:55:50.358Z</time></trkpt><trkpt lat="45.1194617" lon="8.355675"><ele>221.0</ele><time>2026-04-18T14:55:51.358Z</time></trkpt><trkpt lat="45.11934" lon="8.3556717"><ele>221.0</ele><time>2026-04-18T14:55:52.358Z</time></trkpt><trkpt lat="45.1192083" lon="8.3556767"><ele>221.0</ele><time>2026-04-18T14:55:53.357Z</time></trkpt><trkpt lat="45.1191" lon="8.3556567"><ele>221.0</ele><time>2026-04-18T14:55:54.358Z</time></trkpt><trkpt lat="45.11899" lon="8.3556"><ele>221.0</ele><time>2026-04-18T14:55:55.357Z</time></trkpt><trkpt lat="45.11888" lon="8.355485"><ele>219.25</ele><time>2026-04-18T14:55:56.358Z</time></trkpt><trkpt lat="45.1187617" lon="8.3553733"><ele>217.5</ele><time>2026-04-18T14:55:57.358Z</time></trkpt><trkpt lat="45.11865" lon="8.3552633"><ele>215.75</ele><time>2026-04-18T14:55:58.357Z</time></trkpt><trkpt lat="45.1185333" lon="8.35523"><ele>214.0</ele><time>2026-04-18T14:55:59.358Z</time></trkpt><trkpt lat="45.1184067" lon="8.3552133"><ele>214.0</ele><time>2026-04-18T14:56:00.358Z</time></trkpt><trkpt lat="45.1182683" lon="8.3551933"><ele>214.0</ele><time>2026-04-18T14:56:01.358Z</time></trkpt><trkpt lat="45.11813" lon="8.3551733"><ele>214.0</ele><time>2026-04-18T14:56:02.358Z</time></trkpt><trkpt lat="45.118005" lon="8.355155"><ele>214.0</ele><time>2026-04-18T14:56:03.358Z</time></trkpt><trkpt lat="45.1178833" lon="8.3551367"><ele>212.79999999999998</ele><time>2026-04-18T14:56:04.358Z</time></trkpt><trkpt lat="45.1177783" lon="8.3551167"><ele>211.59999999999997</ele><time>2026-04-18T14:56:05.357Z</time></trkpt><trkpt lat="45.1176783" lon="8.3550867"><ele>210.4</ele><time>2026-04-18T14:56:06.358Z</time></trkpt><trkpt lat="45.117585" lon="8.3550533"><ele>209.2</ele><time>2026-04-18T14:56:07.358Z</time></trkpt><trkpt lat="45.1174933" lon="8.3549983"><ele>208.0</ele><time>2026-04-18T14:56:08.358Z</time></trkpt><trkpt lat="45.1174017" lon="8.354935"><ele>206.5</ele><time>2026-04-18T14:56:09.358Z</time></trkpt><trkpt lat="45.1173017" lon="8.3548567"><ele>205.0</ele><time>2026-04-18T14:56:10.358Z</time></trkpt><trkpt lat="45.1171883" lon="8.3547433"><ele>203.5</ele><time>2026-04-18T14:56:11.358Z</time></trkpt><trkpt lat="45.1170633" lon="8.3546383"><ele>202.0</ele><time>2026-04-18T14:56:12.358Z</time></trkpt><trkpt lat="45.1169367" lon="8.3545433"><ele>202.0</ele><time>2026-04-18T14:56:13.358Z</time></trkpt><trkpt lat="45.11681" lon="8.354435"><ele>202.0</ele><time>2026-04-18T14:56:14.358Z</time></trkpt><trkpt lat="45.1166833" lon="8.3543317"><ele>202.0</ele><time>2026-04-18T14:56:15.358Z</time></trkpt><trkpt lat="45.1165483" lon="8.3542483"><ele>202.0</ele><time>2026-04-18T14:56:16.358Z</time></trkpt><trkpt lat="45.1164183" lon="8.3541433"><ele>199.0</ele><time>2026-04-18T14:56:17.358Z</time></trkpt><trkpt lat="45.1162867" lon="8.354025"><ele>196.0</ele><time>2026-04-18T14:56:18.358Z</time></trkpt><trkpt lat="45.1161567" lon="8.3539233"><ele>193.0</ele><time>2026-04-18T14:56:19.358Z</time></trkpt><trkpt lat="45.116025" lon="8.3538333"><ele>193.0</ele><time>2026-04-18T14:56:20.358Z</time></trkpt><trkpt lat="45.1158917" lon="8.353745"><ele>193.0</ele><time>2026-04-18T14:56:21.357Z</time></trkpt><trkpt lat="45.1157667" lon="8.3536583"><ele>193.0</ele><time>2026-04-18T14:56:22.358Z</time></trkpt><trkpt lat="45.1156483" lon="8.353545"><ele>193.0</ele><time>2026-04-18T14:56:23.357Z</time></trkpt><trkpt lat="45.1155117" lon="8.3534533"><ele>192.25</ele><time>2026-04-18T14:56:24.358Z</time></trkpt><trkpt lat="45.115395" lon="8.3533583"><ele>191.5</ele><time>2026-04-18T14:56:25.358Z</time></trkpt><trkpt lat="45.1152833" lon="8.3532733"><ele>190.75</ele><time>2026-04-18T14:56:26.357Z</time></trkpt><trkpt lat="45.1151733" lon="8.35319"><ele>190.0</ele><time>2026-04-18T14:56:27.358Z</time></trkpt><trkpt lat="45.1150717" lon="8.3530967"><ele>187.5</ele><time>2026-04-18T14:56:28.358Z</time></trkpt><trkpt lat="45.114955" lon="8.3530083"><ele>185.0</ele><time>2026-04-18T14:56:29.358Z</time></trkpt><trkpt lat="45.11484" lon="8.3529167"><ele>182.5</ele><time>2026-04-18T14:56:30.358Z</time></trkpt><trkpt lat="45.114735" lon="8.352845"><ele>180.0</ele><time>2026-04-18T14:56:31.358Z</time></trkpt><trkpt lat="45.1146167" lon="8.3527517"><ele>179.75</ele><time>2026-04-18T14:56:32.358Z</time></trkpt><trkpt lat="45.1144933" lon="8.3526583"><ele>179.5</ele><time>2026-04-18T14:56:33.357Z</time></trkpt><trkpt lat="45.1143833" lon="8.3525767"><ele>179.25</ele><time>2026-04-18T14:56:34.358Z</time></trkpt><trkpt lat="45.1142717" lon="8.352495"><ele>179.0</ele><time>2026-04-18T14:56:35.358Z</time></trkpt><trkpt lat="45.1141567" lon="8.3523967"><ele>178.25</ele><time>2026-04-18T14:56:36.357Z</time></trkpt><trkpt lat="45.1140433" lon="8.3523067"><ele>177.5</ele><time>2026-04-18T14:56:37.357Z</time></trkpt><trkpt lat="45.1139133" lon="8.3522267"><ele>176.75</ele><time>2026-04-18T14:56:38.358Z</time></trkpt><trkpt lat="45.1137817" lon="8.3521467"><ele>176.0</ele><time>2026-04-18T14:56:39.358Z</time></trkpt><trkpt lat="45.113635" lon="8.3520967"><ele>174.25</ele><time>2026-04-18T14:56:40.358Z</time></trkpt><trkpt lat="45.1134817" lon="8.352075"><ele>172.5</ele><time>2026-04-18T14:56:41.358Z</time></trkpt><trkpt lat="45.1133367" lon="8.352055"><ele>170.75</ele><time>2026-04-18T14:56:42.358Z</time></trkpt><trkpt lat="45.11319" lon="8.3520367"><ele>169.0</ele><time>2026-04-18T14:56:43.358Z</time></trkpt><trkpt lat="45.11305" lon="8.3520283"><ele>167.25</ele><time>2026-04-18T14:56:44.358Z</time></trkpt><trkpt lat="45.1129267" lon="8.3520183"><ele>165.5</ele><time>2026-04-18T14:56:45.358Z</time></trkpt><trkpt lat="45.1127967" lon="8.3520167"><ele>163.75</ele><time>2026-04-18T14:56:46.358Z</time></trkpt><trkpt lat="45.1126917" lon="8.35202"><ele>162.0</ele><time>2026-04-18T14:56:47.358Z</time></trkpt><trkpt lat="45.1125733" lon="8.3520467"><ele>162.0</ele><time>2026-04-18T14:56:48.358Z</time></trkpt><trkpt lat="45.1124717" lon="8.3520883"><ele>162.0</ele><time>2026-04-18T14:56:49.357Z</time></trkpt><trkpt lat="45.1123633" lon="8.3521617"><ele>162.0</ele><time>2026-04-18T14:56:50.358Z</time></trkpt><trkpt lat="45.112255" lon="8.3522617"><ele>162.0</ele><time>2026-04-18T14:56:51.358Z</time></trkpt><trkpt lat="45.1121467" lon="8.352365"><ele>161.0</ele><time>2026-04-18T14:56:52.358Z</time></trkpt><trkpt lat="45.112045" lon="8.3524717"><ele>160.0</ele><time>2026-04-18T14:56:53.358Z</time></trkpt><trkpt lat="45.111945" lon="8.3525767"><ele>159.0</ele><time>2026-04-18T14:56:54.358Z</time></trkpt><trkpt lat="45.1118483" lon="8.3526667"><ele>158.0</ele><time>2026-04-18T14:56:55.358Z</time></trkpt><trkpt lat="45.1117483" lon="8.3527717"><ele>158.0</ele><time>2026-04-18T14:56:56.358Z</time></trkpt><trkpt lat="45.1116383" lon="8.3528833"><ele>158.0</ele><time>2026-04-18T14:56:57.357Z</time></trkpt><trkpt lat="45.111525" lon="8.35302"><ele>158.0</ele><time>2026-04-18T14:56:58.358Z</time></trkpt><trkpt lat="45.1114" lon="8.35316"><ele>158.0</ele><time>2026-04-18T14:56:59.358Z</time></trkpt><trkpt lat="45.1112617" lon="8.3533317"><ele>155.33333333333331</ele><time>2026-04-18T14:57:00.358Z</time></trkpt><trkpt lat="45.11111" lon="8.3535"><ele>152.66666666666666</ele><time>2026-04-18T14:57:01.358Z</time></trkpt><trkpt lat="45.1109683" lon="8.353655"><ele>150.0</ele><time>2026-04-18T14:57:02.358Z</time></trkpt><trkpt lat="45.1108233" lon="8.3537833"><ele>149.0</ele><time>2026-04-18T14:57:03.357Z</time></trkpt><trkpt lat="45.11067" lon="8.35388"><ele>148.0</ele><time>2026-04-18T14:57:04.358Z</time></trkpt><trkpt lat="45.1105217" lon="8.3539367"><ele>147.0</ele><time>2026-04-18T14:57:05.357Z</time></trkpt><trkpt lat="45.1103733" lon="8.3539417"><ele>147.0</ele><time>2026-04-18T14:57:06.358Z</time></trkpt><trkpt lat="45.1102283" lon="8.353925"><ele>147.0</ele><time>2026-04-18T14:57:07.358Z</time></trkpt><trkpt lat="45.1100883" lon="8.3538867"><ele>147.0</ele><time>2026-04-18T14:57:08.358Z</time></trkpt><trkpt lat="45.1099517" lon="8.3538483"><ele>147.0</ele><time>2026-04-18T14:57:09.357Z</time></trkpt><trkpt lat="45.1098117" lon="8.3537983"><ele>147.25</ele><time>2026-04-18T14:57:10.357Z</time></trkpt><trkpt lat="45.1096667" lon="8.3537467"><ele>147.5</ele><time>2026-04-18T14:57:11.358Z</time></trkpt><trkpt lat="45.1095317" lon="8.35369"><ele>147.75</ele><time>2026-04-18T14:57:12.357Z</time></trkpt><trkpt lat="45.1094017" lon="8.35365"><ele>148.0</ele><time>2026-04-18T14:57:13.358Z</time></trkpt><trkpt lat="45.1092767" lon="8.35361"><ele>148.0</ele><time>2026-04-18T14:57:14.358Z</time></trkpt><trkpt lat="45.109145" lon="8.353565"><ele>148.0</ele><time>2026-04-18T14:57:15.358Z</time></trkpt><trkpt lat="45.10901" lon="8.3535167"><ele>148.0</ele><time>2026-04-18T14:57:16.358Z</time></trkpt><trkpt lat="45.1088717" lon="8.3534817"><ele>148.0</ele><time>2026-04-18T14:57:17.357Z</time></trkpt><trkpt lat="45.108735" lon="8.3534417"><ele>149.0</ele><time>2026-04-18T14:57:18.358Z</time></trkpt><trkpt lat="45.1085967" lon="8.353395"><ele>150.0</ele><time>2026-04-18T14:57:19.358Z</time></trkpt><trkpt lat="45.1084517" lon="8.3533433"><ele>151.0</ele><time>2026-04-18T14:57:20.357Z</time></trkpt><trkpt lat="45.1083167" lon="8.3533017"><ele>152.0</ele><time>2026-04-18T14:57:21.358Z</time></trkpt><trkpt lat="45.108195" lon="8.3532667"><ele>152.2</ele><time>2026-04-18T14:57:22.358Z</time></trkpt><trkpt lat="45.1080917" lon="8.353235"><ele>152.39999999999998</ele><time>2026-04-18T14:57:23.357Z</time></trkpt><trkpt lat="45.108" lon="8.3531967"><ele>152.60000000000002</ele><time>2026-04-18T14:57:24.358Z</time></trkpt><trkpt lat="45.1079217" lon="8.3531783"><ele>152.8</ele><time>2026-04-18T14:57:25.358Z</time></trkpt><trkpt lat="45.1078167" lon="8.3531417"><ele>153.0</ele><time>2026-04-18T14:57:27.358Z</time></trkpt><trkpt lat="45.107755" lon="8.3531083"><ele>153.0</ele><time>2026-04-18T14:57:29.357Z</time></trkpt><trkpt lat="45.10768" lon="8.3530617"><ele>153.0</ele><time>2026-04-18T14:57:37.358Z</time></trkpt><trkpt lat="45.1076633" lon="8.35294"><ele>153.0</ele><time>2026-04-18T14:57:39.357Z</time></trkpt><trkpt lat="45.10767" lon="8.3528433"><ele>153.0</ele><time>2026-04-18T14:57:40.358Z</time></trkpt><trkpt lat="45.1076783" lon="8.3527283"><ele>153.0</ele><time>2026-04-18T14:57:41.358Z</time></trkpt><trkpt lat="45.107685" lon="8.3525983"><ele>153.0</ele><time>2026-04-18T14:57:42.357Z</time></trkpt><trkpt lat="45.1076883" lon="8.3524617"><ele>153.0</ele><time>2026-04-18T14:57:43.358Z</time></trkpt><trkpt lat="45.1076917" lon="8.352315"><ele>153.0</ele><time>2026-04-18T14:57:44.358Z</time></trkpt><trkpt lat="45.1076933" lon="8.35215"><ele>153.0</ele><time>2026-04-18T14:57:45.358Z</time></trkpt><trkpt lat="45.1077" lon="8.351965"><ele>153.0</ele><time>2026-04-18T14:57:46.358Z</time></trkpt><trkpt lat="45.1077117" lon="8.351775"><ele>152.75</ele><time>2026-04-18T14:57:47.358Z</time></trkpt><trkpt lat="45.1077233" lon="8.3515767"><ele>152.5</ele><time>2026-04-18T14:57:48.358Z</time></trkpt><trkpt lat="45.1077283" lon="8.3513717"><ele>152.25</ele><time>2026-04-18T14:57:49.358Z</time></trkpt><trkpt lat="45.1077317" lon="8.3511583"><ele>152.0</ele><time>2026-04-18T14:57:50.357Z</time></trkpt><trkpt lat="45.1077367" lon="8.3509267"><ele>152.0</ele><time>2026-04-18T14:57:51.358Z</time></trkpt><trkpt lat="45.1077367" lon="8.3506883"><ele>152.0</ele><time>2026-04-18T14:57:52.358Z</time></trkpt><trkpt lat="45.10774" lon="8.3504517"><ele>152.0</ele><time>2026-04-18T14:57:53.357Z</time></trkpt><trkpt lat="45.10774" lon="8.3502217"><ele>151.66666666666666</ele><time>2026-04-18T14:57:54.358Z</time></trkpt><trkpt lat="45.1077333" lon="8.349985"><ele>151.33333333333334</ele><time>2026-04-18T14:57:55.358Z</time></trkpt><trkpt lat="45.1077233" lon="8.3497533"><ele>151.0</ele><time>2026-04-18T14:57:56.358Z</time></trkpt><trkpt lat="45.10772" lon="8.3495317"><ele>151.0</ele><time>2026-04-18T14:57:57.358Z</time></trkpt><trkpt lat="45.1077233" lon="8.3493017"><ele>151.0</ele><time>2026-04-18T14:57:58.358Z</time></trkpt><trkpt lat="45.107735" lon="8.3490817"><ele>151.0</ele><time>2026-04-18T14:57:59.358Z</time></trkpt><trkpt lat="45.107745" lon="8.3488617"><ele>150.66666666666669</ele><time>2026-04-18T14:58:00.357Z</time></trkpt><trkpt lat="45.1077567" lon="8.3486333"><ele>150.33333333333334</ele><time>2026-04-18T14:58:01.357Z</time></trkpt><trkpt lat="45.1077633" lon="8.3484"><ele>150.0</ele><time>2026-04-18T14:58:02.358Z</time></trkpt><trkpt lat="45.10776" lon="8.348175"><ele>150.0</ele><time>2026-04-18T14:58:03.358Z</time></trkpt><trkpt lat="45.1077617" lon="8.34794"><ele>150.0</ele><time>2026-04-18T14:58:04.358Z</time></trkpt><trkpt lat="45.107775" lon="8.34771"><ele>150.0</ele><time>2026-04-18T14:58:05.357Z</time></trkpt><trkpt lat="45.1077767" lon="8.3474733"><ele>150.0</ele><time>2026-04-18T14:58:06.357Z</time></trkpt><trkpt lat="45.1077733" lon="8.3472317"><ele>150.0</ele><time>2026-04-18T14:58:07.358Z</time></trkpt><trkpt lat="45.1077883" lon="8.3469933"><ele>150.0</ele><time>2026-04-18T14:58:08.358Z</time></trkpt><trkpt lat="45.1078033" lon="8.3467483"><ele>149.66666666666666</ele><time>2026-04-18T14:58:09.358Z</time></trkpt><trkpt lat="45.1078117" lon="8.3465117"><ele>149.33333333333331</ele><time>2026-04-18T14:58:10.358Z</time></trkpt><trkpt lat="45.1078167" lon="8.346275"><ele>149.0</ele><time>2026-04-18T14:58:11.357Z</time></trkpt><trkpt lat="45.1078283" lon="8.3460383"><ele>147.66666666666666</ele><time>2026-04-18T14:58:12.357Z</time></trkpt><trkpt lat="45.1078283" lon="8.3457867"><ele>146.33333333333334</ele><time>2026-04-18T14:58:13.358Z</time></trkpt><trkpt lat="45.1078317" lon="8.3455467"><ele>145.0</ele><time>2026-04-18T14:58:14.358Z</time></trkpt><trkpt lat="45.107835" lon="8.3453117"><ele>144.66666666666669</ele><time>2026-04-18T14:58:15.357Z</time></trkpt><trkpt lat="45.10784" lon="8.34508"><ele>144.33333333333334</ele><time>2026-04-18T14:58:16.358Z</time></trkpt><trkpt lat="45.1078467" lon="8.3448467"><ele>144.0</ele><time>2026-04-18T14:58:17.358Z</time></trkpt><trkpt lat="45.107855" lon="8.3446167"><ele>143.66666666666666</ele><time>2026-04-18T14:58:18.358Z</time></trkpt><trkpt lat="45.10786" lon="8.3443833"><ele>143.33333333333331</ele><time>2026-04-18T14:58:19.358Z</time></trkpt><trkpt lat="45.1078567" lon="8.3441533"><ele>143.0</ele><time>2026-04-18T14:58:20.358Z</time></trkpt><trkpt lat="45.1078533" lon="8.3439283"><ele>142.66666666666666</ele><time>2026-04-18T14:58:21.358Z</time></trkpt><trkpt lat="45.1078483" lon="8.3437"><ele>142.33333333333334</ele><time>2026-04-18T14:58:22.357Z</time></trkpt><trkpt lat="45.1078483" lon="8.3434767"><ele>142.0</ele><time>2026-04-18T14:58:23.358Z</time></trkpt><trkpt lat="45.1078533" lon="8.3432433"><ele>142.33333333333334</ele><time>2026-04-18T14:58:24.358Z</time></trkpt><trkpt lat="45.1078517" lon="8.3430117"><ele>142.66666666666666</ele><time>2026-04-18T14:58:25.358Z</time></trkpt><trkpt lat="45.1078583" lon="8.3427783"><ele>143.0</ele><time>2026-04-18T14:58:26.358Z</time></trkpt><trkpt lat="45.1078733" lon="8.3425433"><ele>143.0</ele><time>2026-04-18T14:58:27.358Z</time></trkpt><trkpt lat="45.10789" lon="8.3423117"><ele>143.0</ele><time>2026-04-18T14:58:28.357Z</time></trkpt><trkpt lat="45.1078967" lon="8.34207"><ele>143.0</ele><time>2026-04-18T14:58:29.358Z</time></trkpt><trkpt lat="45.1079033" lon="8.341835"><ele>143.0</ele><time>2026-04-18T14:58:30.357Z</time></trkpt><trkpt lat="45.1079083" lon="8.3416"><ele>143.0</ele><time>2026-04-18T14:58:31.358Z</time></trkpt><trkpt lat="45.1079167" lon="8.3413617"><ele>143.0</ele><time>2026-04-18T14:58:32.357Z</time></trkpt><trkpt lat="45.10793" lon="8.3411267"><ele>141.66666666666666</ele><time>2026-04-18T14:58:33.358Z</time></trkpt><trkpt lat="45.10794" lon="8.3409017"><ele>140.33333333333334</ele><time>2026-04-18T14:58:34.358Z</time></trkpt><trkpt lat="45.10795" lon="8.340675"><ele>139.0</ele><time>2026-04-18T14:58:35.357Z</time></trkpt><trkpt lat="45.10796" lon="8.34044"><ele>139.0</ele><time>2026-04-18T14:58:36.358Z</time></trkpt><trkpt lat="45.1079733" lon="8.3402117"><ele>139.0</ele><time>2026-04-18T14:58:37.358Z</time></trkpt><trkpt lat="45.1079833" lon="8.33998"><ele>139.0</ele><time>2026-04-18T14:58:38.358Z</time></trkpt><trkpt lat="45.1079917" lon="8.3397517"><ele>139.0</ele><time>2026-04-18T14:58:39.358Z</time></trkpt><trkpt lat="45.1080083" lon="8.3395167"><ele>139.0</ele><time>2026-04-18T14:58:40.357Z</time></trkpt><trkpt lat="45.1080267" lon="8.3392867"><ele>139.0</ele><time>2026-04-18T14:58:41.358Z</time></trkpt><trkpt lat="45.10806" lon="8.3390667"><ele>138.66666666666669</ele><time>2026-04-18T14:58:42.358Z</time></trkpt><trkpt lat="45.1080967" lon="8.3388383"><ele>138.33333333333334</ele><time>2026-04-18T14:58:43.358Z</time></trkpt><trkpt lat="45.108135" lon="8.3386117"><ele>138.0</ele><time>2026-04-18T14:58:44.357Z</time></trkpt><trkpt lat="45.1081817" lon="8.3384"><ele>138.0</ele><time>2026-04-18T14:58:45.358Z</time></trkpt><trkpt lat="45.1082367" lon="8.3382017"><ele>138.0</ele><time>2026-04-18T14:58:46.358Z</time></trkpt><trkpt lat="45.1082833" lon="8.338"><ele>138.0</ele><time>2026-04-18T14:58:47.358Z</time></trkpt><trkpt lat="45.1083317" lon="8.337815"><ele>138.0</ele><time>2026-04-18T14:58:48.357Z</time></trkpt><trkpt lat="45.1083783" lon="8.3376433"><ele>138.0</ele><time>2026-04-18T14:58:49.358Z</time></trkpt><trkpt lat="45.108425" lon="8.3374683"><ele>138.0</ele><time>2026-04-18T14:58:50.358Z</time></trkpt><trkpt lat="45.108465" lon="8.3372917"><ele>138.0</ele><time>2026-04-18T14:58:51.358Z</time></trkpt><trkpt lat="45.1085" lon="8.3371"><ele>138.0</ele><time>2026-04-18T14:58:52.358Z</time></trkpt><trkpt lat="45.1085267" lon="8.3369083"><ele>138.0</ele><time>2026-04-18T14:58:53.357Z</time></trkpt><trkpt lat="45.10854" lon="8.3367167"><ele>138.0</ele><time>2026-04-18T14:58:54.358Z</time></trkpt><trkpt lat="45.1085617" lon="8.3365233"><ele>138.0</ele><time>2026-04-18T14:58:55.358Z</time></trkpt><trkpt lat="45.10858" lon="8.3363217"><ele>138.0</ele><time>2026-04-18T14:58:56.358Z</time></trkpt><trkpt lat="45.1085733" lon="8.3361167"><ele>138.0</ele><time>2026-04-18T14:58:57.358Z</time></trkpt><trkpt lat="45.108545" lon="8.3359017"><ele>138.0</ele><time>2026-04-18T14:58:58.358Z</time></trkpt><trkpt lat="45.1085083" lon="8.3356883"><ele>138.0</ele><time>2026-04-18T14:58:59.357Z</time></trkpt><trkpt lat="45.1084733" lon="8.335475"><ele>138.0</ele><time>2026-04-18T14:59:00.358Z</time></trkpt><trkpt lat="45.1084267" lon="8.3352517"><ele>138.0</ele><time>2026-04-18T14:59:01.358Z</time></trkpt><trkpt lat="45.1083733" lon="8.33504"><ele>138.0</ele><time>2026-04-18T14:59:02.358Z</time></trkpt><trkpt lat="45.1083383" lon="8.334795"><ele>138.33333333333334</ele><time>2026-04-18T14:59:03.358Z</time></trkpt><trkpt lat="45.1082783" lon="8.334575"><ele>138.66666666666669</ele><time>2026-04-18T14:59:04.357Z</time></trkpt><trkpt lat="45.1082333" lon="8.33435"><ele>139.0</ele><time>2026-04-18T14:59:05.358Z</time></trkpt><trkpt lat="45.10818" lon="8.3341167"><ele>138.0</ele><time>2026-04-18T14:59:06.357Z</time></trkpt><trkpt lat="45.1081283" lon="8.3338783"><ele>137.0</ele><time>2026-04-18T14:59:07.358Z</time></trkpt><trkpt lat="45.1080883" lon="8.3336483"><ele>136.0</ele><time>2026-04-18T14:59:08.357Z</time></trkpt><trkpt lat="45.1080417" lon="8.33342"><ele>136.0</ele><time>2026-04-18T14:59:09.358Z</time></trkpt><trkpt lat="45.107995" lon="8.3331883"><ele>136.0</ele><time>2026-04-18T14:59:10.358Z</time></trkpt><trkpt lat="45.1079483" lon="8.332965"><ele>136.0</ele><time>2026-04-18T14:59:11.358Z</time></trkpt><trkpt lat="45.1079033" lon="8.3327417"><ele>136.0</ele><time>2026-04-18T14:59:12.358Z</time></trkpt><trkpt lat="45.1078617" lon="8.3325183"><ele>136.0</ele><time>2026-04-18T14:59:13.357Z</time></trkpt><trkpt lat="45.1078233" lon="8.3322983"><ele>136.0</ele><time>2026-04-18T14:59:14.358Z</time></trkpt><trkpt lat="45.1077767" lon="8.3320733"><ele>136.0</ele><time>2026-04-18T14:59:15.357Z</time></trkpt><trkpt lat="45.107725" lon="8.3318533"><ele>136.0</ele><time>2026-04-18T14:59:16.358Z</time></trkpt><trkpt lat="45.107675" lon="8.33164"><ele>136.0</ele><time>2026-04-18T14:59:17.358Z</time></trkpt><trkpt lat="45.107635" lon="8.3314267"><ele>135.66666666666669</ele><time>2026-04-18T14:59:18.358Z</time></trkpt><trkpt lat="45.10759" lon="8.331215"><ele>135.33333333333334</ele><time>2026-04-18T14:59:19.358Z</time></trkpt><trkpt lat="45.1075467" lon="8.3309917"><ele>135.0</ele><time>2026-04-18T14:59:20.357Z</time></trkpt><trkpt lat="45.107505" lon="8.3307767"><ele>135.0</ele><time>2026-04-18T14:59:21.358Z</time></trkpt><trkpt lat="45.1074583" lon="8.330565"><ele>135.0</ele><time>2026-04-18T14:59:22.357Z</time></trkpt><trkpt lat="45.1074067" lon="8.330355"><ele>135.0</ele><time>2026-04-18T14:59:23.358Z</time></trkpt><trkpt lat="45.1073617" lon="8.330145"><ele>137.66666666666666</ele><time>2026-04-18T14:59:24.358Z</time></trkpt><trkpt lat="45.10732" lon="8.3299383"><ele>140.33333333333331</ele><time>2026-04-18T14:59:25.358Z</time></trkpt><trkpt lat="45.1072733" lon="8.3297267"><ele>143.0</ele><time>2026-04-18T14:59:26.358Z</time></trkpt><trkpt lat="45.1072267" lon="8.3295167"><ele>143.66666666666666</ele><time>2026-04-18T14:59:27.358Z</time></trkpt><trkpt lat="45.1071867" lon="8.32931"><ele>144.33333333333334</ele><time>2026-04-18T14:59:28.358Z</time></trkpt><trkpt lat="45.1071517" lon="8.3291"><ele>145.0</ele><time>2026-04-18T14:59:29.357Z</time></trkpt><trkpt lat="45.1071067" lon="8.3288883"><ele>145.0</ele><time>2026-04-18T14:59:30.358Z</time></trkpt><trkpt lat="45.1070583" lon="8.328665"><ele>145.0</ele><time>2026-04-18T14:59:31.358Z</time></trkpt><trkpt lat="45.1070117" lon="8.328445"><ele>145.0</ele><time>2026-04-18T14:59:32.358Z</time></trkpt><trkpt lat="45.1069617" lon="8.32823"><ele>144.0</ele><time>2026-04-18T14:59:33.358Z</time></trkpt><trkpt lat="45.1069167" lon="8.3280067"><ele>143.0</ele><time>2026-04-18T14:59:34.357Z</time></trkpt><trkpt lat="45.1068717" lon="8.3277917"><ele>142.0</ele><time>2026-04-18T14:59:35.357Z</time></trkpt><trkpt lat="45.1068283" lon="8.3275717"><ele>142.0</ele><time>2026-04-18T14:59:36.357Z</time></trkpt><trkpt lat="45.1067717" lon="8.327355"><ele>142.0</ele><time>2026-04-18T14:59:37.357Z</time></trkpt><trkpt lat="45.1067283" lon="8.3271317"><ele>142.0</ele><time>2026-04-18T14:59:38.358Z</time></trkpt><trkpt lat="45.1066883" lon="8.3269083"><ele>140.66666666666669</ele><time>2026-04-18T14:59:39.358Z</time></trkpt><trkpt lat="45.1066433" lon="8.32668"><ele>139.33333333333334</ele><time>2026-04-18T14:59:40.358Z</time></trkpt><trkpt lat="45.1065967" lon="8.3264517"><ele>138.0</ele><time>2026-04-18T14:59:41.358Z</time></trkpt><trkpt lat="45.1065533" lon="8.3262333"><ele>140.66666666666666</ele><time>2026-04-18T14:59:42.357Z</time></trkpt><trkpt lat="45.1065067" lon="8.325995"><ele>143.33333333333331</ele><time>2026-04-18T14:59:43.358Z</time></trkpt><trkpt lat="45.1064567" lon="8.3257617"><ele>146.0</ele><time>2026-04-18T14:59:44.358Z</time></trkpt><trkpt lat="45.10641" lon="8.3255317"><ele>146.0</ele><time>2026-04-18T14:59:45.358Z</time></trkpt><trkpt lat="45.1063583" lon="8.32531"><ele>146.0</ele><time>2026-04-18T14:59:46.358Z</time></trkpt><trkpt lat="45.1063083" lon="8.3250833"><ele>146.0</ele><time>2026-04-18T14:59:47.357Z</time></trkpt><trkpt lat="45.10626" lon="8.3248533"><ele>145.33333333333331</ele><time>2026-04-18T14:59:48.358Z</time></trkpt><trkpt lat="45.1062083" lon="8.3246117"><ele>144.66666666666666</ele><time>2026-04-18T14:59:49.357Z</time></trkpt><trkpt lat="45.10616" lon="8.324375"><ele>144.0</ele><time>2026-04-18T14:59:50.358Z</time></trkpt><trkpt lat="45.1061117" lon="8.3241417"><ele>144.0</ele><time>2026-04-18T14:59:51.358Z</time></trkpt><trkpt lat="45.10606" lon="8.3239167"><ele>144.0</ele><time>2026-04-18T14:59:52.358Z</time></trkpt><trkpt lat="45.1060183" lon="8.3236967"><ele>144.0</ele><time>2026-04-18T14:59:53.357Z</time></trkpt><trkpt lat="45.1059733" lon="8.3234733"><ele>143.33333333333334</ele><time>2026-04-18T14:59:54.357Z</time></trkpt><trkpt lat="45.1059233" lon="8.3232533"><ele>142.66666666666669</ele><time>2026-04-18T14:59:55.358Z</time></trkpt><trkpt lat="45.10587" lon="8.3230367"><ele>142.0</ele><time>2026-04-18T14:59:56.358Z</time></trkpt><trkpt lat="45.10583" lon="8.3228"><ele>141.33333333333334</ele><time>2026-04-18T14:59:57.357Z</time></trkpt><trkpt lat="45.10579" lon="8.3225767"><ele>140.66666666666666</ele><time>2026-04-18T14:59:58.356Z</time></trkpt><trkpt lat="45.10574" lon="8.3223517"><ele>140.0</ele><time>2026-04-18T14:59:59.357Z</time></trkpt><trkpt lat="45.1056933" lon="8.322135"><ele>142.0</ele><time>2026-04-18T15:00:00.357Z</time></trkpt><trkpt lat="45.1056517" lon="8.3219"><ele>144.0</ele><time>2026-04-18T15:00:01.357Z</time></trkpt><trkpt lat="45.1056017" lon="8.321675"><ele>146.0</ele><time>2026-04-18T15:00:02.357Z</time></trkpt><trkpt lat="45.105555" lon="8.321445"><ele>145.33333333333331</ele><time>2026-04-18T15:00:03.357Z</time></trkpt><trkpt lat="45.1055017" lon="8.3212167"><ele>144.66666666666666</ele><time>2026-04-18T15:00:04.357Z</time></trkpt><trkpt lat="45.1054583" lon="8.320995"><ele>144.0</ele><time>2026-04-18T15:00:05.357Z</time></trkpt><trkpt lat="45.1054117" lon="8.32077"><ele>143.0</ele><time>2026-04-18T15:00:06.356Z</time></trkpt><trkpt lat="45.105365" lon="8.3205467"><ele>142.0</ele><time>2026-04-18T15:00:07.357Z</time></trkpt><trkpt lat="45.1053167" lon="8.3203217"><ele>141.0</ele><time>2026-04-18T15:00:08.357Z</time></trkpt><trkpt lat="45.105275" lon="8.3201183"><ele>141.0</ele><time>2026-04-18T15:00:09.357Z</time></trkpt><trkpt lat="45.1052267" lon="8.3199317"><ele>141.0</ele><time>2026-04-18T15:00:10.357Z</time></trkpt><trkpt lat="45.1051883" lon="8.3197483"><ele>141.0</ele><time>2026-04-18T15:00:11.357Z</time></trkpt><trkpt lat="45.1051517" lon="8.3195833"><ele>141.0</ele><time>2026-04-18T15:00:12.357Z</time></trkpt><trkpt lat="45.1051117" lon="8.319435"><ele>141.16666666666666</ele><time>2026-04-18T15:00:13.357Z</time></trkpt><trkpt lat="45.1050733" lon="8.3193133"><ele>141.33333333333334</ele><time>2026-04-18T15:00:14.356Z</time></trkpt><trkpt lat="45.1050267" lon="8.319225"><ele>141.5</ele><time>2026-04-18T15:00:15.357Z</time></trkpt><trkpt lat="45.1049583" lon="8.3191733"><ele>141.66666666666669</ele><time>2026-04-18T15:00:16.357Z</time></trkpt><trkpt lat="45.1048717" lon="8.3191783"><ele>141.83333333333334</ele><time>2026-04-18T15:00:17.357Z</time></trkpt><trkpt lat="45.1047817" lon="8.3192383"><ele>142.0</ele><time>2026-04-18T15:00:18.357Z</time></trkpt><trkpt lat="45.1046783" lon="8.31935"><ele>142.0</ele><time>2026-04-18T15:00:19.357Z</time></trkpt><trkpt lat="45.1045667" lon="8.31946"><ele>142.0</ele><time>2026-04-18T15:00:20.356Z</time></trkpt><trkpt lat="45.10445" lon="8.319565"><ele>142.0</ele><time>2026-04-18T15:00:21.357Z</time></trkpt><trkpt lat="45.1043367" lon="8.3196717"><ele>142.0</ele><time>2026-04-18T15:00:22.357Z</time></trkpt><trkpt lat="45.10422" lon="8.31978"><ele>143.0</ele><time>2026-04-18T15:00:23.356Z</time></trkpt><trkpt lat="45.1040983" lon="8.3198933"><ele>144.0</ele><time>2026-04-18T15:00:24.356Z</time></trkpt><trkpt lat="45.1039833" lon="8.319995"><ele>145.0</ele><time>2026-04-18T15:00:25.357Z</time></trkpt><trkpt lat="45.1038633" lon="8.3201067"><ele>146.0</ele><time>2026-04-18T15:00:26.357Z</time></trkpt><trkpt lat="45.10373" lon="8.3202133"><ele>146.0</ele><time>2026-04-18T15:00:27.357Z</time></trkpt><trkpt lat="45.1035833" lon="8.3203317"><ele>146.0</ele><time>2026-04-18T15:00:28.357Z</time></trkpt><trkpt lat="45.10344" lon="8.320445"><ele>146.0</ele><time>2026-04-18T15:00:29.357Z</time></trkpt><trkpt lat="45.103295" lon="8.3205617"><ele>147.0</ele><time>2026-04-18T15:00:30.357Z</time></trkpt><trkpt lat="45.1031517" lon="8.3206767"><ele>148.0</ele><time>2026-04-18T15:00:31.357Z</time></trkpt><trkpt lat="45.10301" lon="8.3207917"><ele>149.0</ele><time>2026-04-18T15:00:32.357Z</time></trkpt><trkpt lat="45.1028667" lon="8.32091"><ele>149.0</ele><time>2026-04-18T15:00:33.357Z</time></trkpt><trkpt lat="45.102725" lon="8.3210383"><ele>149.0</ele><time>2026-04-18T15:00:34.357Z</time></trkpt><trkpt lat="45.102585" lon="8.3211583"><ele>149.0</ele><time>2026-04-18T15:00:35.356Z</time></trkpt><trkpt lat="45.102445" lon="8.3212767"><ele>149.0</ele><time>2026-04-18T15:00:36.357Z</time></trkpt><trkpt lat="45.1022967" lon="8.3213967"><ele>149.0</ele><time>2026-04-18T15:00:37.357Z</time></trkpt><trkpt lat="45.1021567" lon="8.3215233"><ele>149.0</ele><time>2026-04-18T15:00:38.357Z</time></trkpt><trkpt lat="45.1020167" lon="8.321645"><ele>149.0</ele><time>2026-04-18T15:00:39.357Z</time></trkpt><trkpt lat="45.1018733" lon="8.3217683"><ele>149.0</ele><time>2026-04-18T15:00:40.357Z</time></trkpt><trkpt lat="45.1017267" lon="8.3218917"><ele>149.0</ele><time>2026-04-18T15:00:41.356Z</time></trkpt><trkpt lat="45.1015883" lon="8.3220183"><ele>148.66666666666666</ele><time>2026-04-18T15:00:42.356Z</time></trkpt><trkpt lat="45.1014533" lon="8.32215"><ele>148.33333333333334</ele><time>2026-04-18T15:00:43.357Z</time></trkpt><trkpt lat="45.1013167" lon="8.32229"><ele>148.0</ele><time>2026-04-18T15:00:44.357Z</time></trkpt><trkpt lat="45.10119" lon="8.3224317"><ele>149.66666666666669</ele><time>2026-04-18T15:00:45.357Z</time></trkpt><trkpt lat="45.1010617" lon="8.3225817"><ele>151.33333333333334</ele><time>2026-04-18T15:00:46.357Z</time></trkpt><trkpt lat="45.1009383" lon="8.3227333"><ele>153.0</ele><time>2026-04-18T15:00:47.356Z</time></trkpt><trkpt lat="45.1008067" lon="8.32289"><ele>152.66666666666666</ele><time>2026-04-18T15:00:48.357Z</time></trkpt><trkpt lat="45.100685" lon="8.3230467"><ele>152.33333333333331</ele><time>2026-04-18T15:00:49.356Z</time></trkpt><trkpt lat="45.10056" lon="8.3232133"><ele>152.0</ele><time>2026-04-18T15:00:50.357Z</time></trkpt><trkpt lat="45.1004383" lon="8.3233717"><ele>152.66666666666666</ele><time>2026-04-18T15:00:51.357Z</time></trkpt><trkpt lat="45.1003183" lon="8.3235233"><ele>153.33333333333334</ele><time>2026-04-18T15:00:52.357Z</time></trkpt><trkpt lat="45.1001917" lon="8.323665"><ele>154.0</ele><time>2026-04-18T15:00:53.357Z</time></trkpt><trkpt lat="45.10006" lon="8.3238017"><ele>154.33333333333334</ele><time>2026-04-18T15:00:54.357Z</time></trkpt><trkpt lat="45.0999233" lon="8.323935"><ele>154.66666666666666</ele><time>2026-04-18T15:00:55.357Z</time></trkpt><trkpt lat="45.09979" lon="8.3240717"><ele>155.0</ele><time>2026-04-18T15:00:56.357Z</time></trkpt><trkpt lat="45.0996567" lon="8.3241983"><ele>156.0</ele><time>2026-04-18T15:00:57.356Z</time></trkpt><trkpt lat="45.0995217" lon="8.3243283"><ele>157.0</ele><time>2026-04-18T15:00:58.357Z</time></trkpt><trkpt lat="45.0993833" lon="8.3244583"><ele>158.0</ele><time>2026-04-18T15:00:59.357Z</time></trkpt><trkpt lat="45.0992433" lon="8.32459"><ele>158.0</ele><time>2026-04-18T15:01:00.357Z</time></trkpt><trkpt lat="45.099105" lon="8.3247217"><ele>158.0</ele><time>2026-04-18T15:01:01.357Z</time></trkpt><trkpt lat="45.0989733" lon="8.32485"><ele>158.0</ele><time>2026-04-18T15:01:02.357Z</time></trkpt><trkpt lat="45.0988417" lon="8.3249867"><ele>157.33333333333331</ele><time>2026-04-18T15:01:03.356Z</time></trkpt><trkpt lat="45.09871" lon="8.3251217"><ele>156.66666666666666</ele><time>2026-04-18T15:01:04.357Z</time></trkpt><trkpt lat="45.0985783" lon="8.3252517"><ele>156.0</ele><time>2026-04-18T15:01:05.357Z</time></trkpt><trkpt lat="45.0984417" lon="8.325385"><ele>156.0</ele><time>2026-04-18T15:01:06.356Z</time></trkpt><trkpt lat="45.0983017" lon="8.3255033"><ele>156.0</ele><time>2026-04-18T15:01:07.357Z</time></trkpt><trkpt lat="45.0981667" lon="8.325625"><ele>156.0</ele><time>2026-04-18T15:01:08.357Z</time></trkpt><trkpt lat="45.098035" lon="8.3257533"><ele>157.33333333333334</ele><time>2026-04-18T15:01:09.356Z</time></trkpt><trkpt lat="45.0978983" lon="8.32589"><ele>158.66666666666669</ele><time>2026-04-18T15:01:10.357Z</time></trkpt><trkpt lat="45.0977733" lon="8.32602"><ele>160.0</ele><time>2026-04-18T15:01:11.357Z</time></trkpt><trkpt lat="45.0976417" lon="8.3261517"><ele>160.0</ele><time>2026-04-18T15:01:12.356Z</time></trkpt><trkpt lat="45.0975133" lon="8.3262783"><ele>160.0</ele><time>2026-04-18T15:01:13.357Z</time></trkpt><trkpt lat="45.09738" lon="8.3264083"><ele>160.0</ele><time>2026-04-18T15:01:14.357Z</time></trkpt><trkpt lat="45.0972433" lon="8.3265317"><ele>160.0</ele><time>2026-04-18T15:01:15.357Z</time></trkpt><trkpt lat="45.097115" lon="8.32666"><ele>160.0</ele><time>2026-04-18T15:01:16.357Z</time></trkpt><trkpt lat="45.09698" lon="8.3267883"><ele>160.0</ele><time>2026-04-18T15:01:17.357Z</time></trkpt><trkpt lat="45.0968483" lon="8.326915"><ele>160.0</ele><time>2026-04-18T15:01:18.357Z</time></trkpt><trkpt lat="45.09672" lon="8.327045"><ele>160.0</ele><time>2026-04-18T15:01:19.357Z</time></trkpt><trkpt lat="45.0965867" lon="8.3271783"><ele>160.0</ele><time>2026-04-18T15:01:20.356Z</time></trkpt><trkpt lat="45.0964567" lon="8.3273"><ele>160.66666666666669</ele><time>2026-04-18T15:01:21.357Z</time></trkpt><trkpt lat="45.096335" lon="8.327425"><ele>161.33333333333334</ele><time>2026-04-18T15:01:22.357Z</time></trkpt><trkpt lat="45.0961983" lon="8.3275217"><ele>162.0</ele><time>2026-04-18T15:01:23.357Z</time></trkpt><trkpt lat="45.0960483" lon="8.3275917"><ele>162.0</ele><time>2026-04-18T15:01:24.357Z</time></trkpt><trkpt lat="45.0958917" lon="8.3276183"><ele>162.0</ele><time>2026-04-18T15:01:25.356Z</time></trkpt><trkpt lat="45.0957383" lon="8.3276083"><ele>162.0</ele><time>2026-04-18T15:01:26.357Z</time></trkpt><trkpt lat="45.0955817" lon="8.3275767"><ele>162.33333333333334</ele><time>2026-04-18T15:01:27.357Z</time></trkpt><trkpt lat="45.0954317" lon="8.32753"><ele>162.66666666666669</ele><time>2026-04-18T15:01:28.357Z</time></trkpt><trkpt lat="45.095285" lon="8.327465"><ele>163.0</ele><time>2026-04-18T15:01:29.357Z</time></trkpt><trkpt lat="45.0951433" lon="8.3273767"><ele>163.0</ele><time>2026-04-18T15:01:30.357Z</time></trkpt><trkpt lat="45.0950067" lon="8.3272817"><ele>163.0</ele><time>2026-04-18T15:01:31.357Z</time></trkpt><trkpt lat="45.094855" lon="8.3272"><ele>163.0</ele><time>2026-04-18T15:01:32.357Z</time></trkpt><trkpt lat="45.0947067" lon="8.327105"><ele>162.66666666666669</ele><time>2026-04-18T15:01:33.357Z</time></trkpt><trkpt lat="45.0945633" lon="8.3270167"><ele>162.33333333333334</ele><time>2026-04-18T15:01:34.356Z</time></trkpt><trkpt lat="45.0944133" lon="8.3269333"><ele>162.0</ele><time>2026-04-18T15:01:35.357Z</time></trkpt><trkpt lat="45.0942617" lon="8.3268467"><ele>162.0</ele><time>2026-04-18T15:01:36.357Z</time></trkpt><trkpt lat="45.0941133" lon="8.3267617"><ele>162.0</ele><time>2026-04-18T15:01:37.356Z</time></trkpt><trkpt lat="45.09396" lon="8.3266767"><ele>162.0</ele><time>2026-04-18T15:01:38.357Z</time></trkpt><trkpt lat="45.093805" lon="8.3265883"><ele>163.0</ele><time>2026-04-18T15:01:39.357Z</time></trkpt><trkpt lat="45.093655" lon="8.3264867"><ele>164.0</ele><time>2026-04-18T15:01:40.357Z</time></trkpt><trkpt lat="45.0935" lon="8.326395"><ele>165.0</ele><time>2026-04-18T15:01:41.356Z</time></trkpt><trkpt lat="45.093345" lon="8.3263033"><ele>166.66666666666666</ele><time>2026-04-18T15:01:42.356Z</time></trkpt><trkpt lat="45.0931983" lon="8.3262117"><ele>168.33333333333331</ele><time>2026-04-18T15:01:43.356Z</time></trkpt><trkpt lat="45.093045" lon="8.326125"><ele>170.0</ele><time>2026-04-18T15:01:44.357Z</time></trkpt><trkpt lat="45.0928933" lon="8.3260383"><ele>170.0</ele><time>2026-04-18T15:01:45.356Z</time></trkpt><trkpt lat="45.0927433" lon="8.325965"><ele>170.0</ele><time>2026-04-18T15:01:46.357Z</time></trkpt><trkpt lat="45.0925933" lon="8.3258833"><ele>170.0</ele><time>2026-04-18T15:01:47.357Z</time></trkpt><trkpt lat="45.092445" lon="8.325795"><ele>170.33333333333331</ele><time>2026-04-18T15:01:48.356Z</time></trkpt><trkpt lat="45.0922933" lon="8.3257"><ele>170.66666666666666</ele><time>2026-04-18T15:01:49.357Z</time></trkpt><trkpt lat="45.0921517" lon="8.3256117"><ele>171.0</ele><time>2026-04-18T15:01:50.357Z</time></trkpt><trkpt lat="45.0920117" lon="8.325525"><ele>171.0</ele><time>2026-04-18T15:01:51.357Z</time></trkpt><trkpt lat="45.0918633" lon="8.32545"><ele>171.0</ele><time>2026-04-18T15:01:52.357Z</time></trkpt><trkpt lat="45.0917233" lon="8.32536"><ele>171.0</ele><time>2026-04-18T15:01:53.357Z</time></trkpt><trkpt lat="45.091585" lon="8.32527"><ele>170.66666666666666</ele><time>2026-04-18T15:01:54.357Z</time></trkpt><trkpt lat="45.0914417" lon="8.3251867"><ele>170.33333333333331</ele><time>2026-04-18T15:01:55.356Z</time></trkpt><trkpt lat="45.091295" lon="8.3251017"><ele>170.0</ele><time>2026-04-18T15:01:56.357Z</time></trkpt><trkpt lat="45.091155" lon="8.32502"><ele>170.0</ele><time>2026-04-18T15:01:57.357Z</time></trkpt><trkpt lat="45.0910183" lon="8.3249433"><ele>170.0</ele><time>2026-04-18T15:01:58.357Z</time></trkpt><trkpt lat="45.0908783" lon="8.3248633"><ele>170.0</ele><time>2026-04-18T15:01:59.357Z</time></trkpt><trkpt lat="45.0907417" lon="8.32478"><ele>170.0</ele><time>2026-04-18T15:02:00.357Z</time></trkpt><trkpt lat="45.0906067" lon="8.324695"><ele>173.66666666666666</ele><time>2026-04-18T15:02:01.357Z</time></trkpt><trkpt lat="45.0904617" lon="8.324615"><ele>177.33333333333334</ele><time>2026-04-18T15:02:02.357Z</time></trkpt><trkpt lat="45.0903183" lon="8.324535"><ele>181.0</ele><time>2026-04-18T15:02:03.357Z</time></trkpt><trkpt lat="45.0901817" lon="8.324455"><ele>181.0</ele><time>2026-04-18T15:02:04.357Z</time></trkpt><trkpt lat="45.0900483" lon="8.32437"><ele>181.0</ele><time>2026-04-18T15:02:05.357Z</time></trkpt><trkpt lat="45.08991" lon="8.32428"><ele>181.0</ele><time>2026-04-18T15:02:06.357Z</time></trkpt><trkpt lat="45.0897717" lon="8.3242017"><ele>181.0</ele><time>2026-04-18T15:02:07.356Z</time></trkpt><trkpt lat="45.0896283" lon="8.3241117"><ele>181.33333333333334</ele><time>2026-04-18T15:02:08.357Z</time></trkpt><trkpt lat="45.0894967" lon="8.3240217"><ele>181.66666666666666</ele><time>2026-04-18T15:02:09.357Z</time></trkpt><trkpt lat="45.08936" lon="8.323925"><ele>182.0</ele><time>2026-04-18T15:02:10.357Z</time></trkpt><trkpt lat="45.0892233" lon="8.323835"><ele>183.75</ele><time>2026-04-18T15:02:11.357Z</time></trkpt><trkpt lat="45.0890867" lon="8.32373"><ele>185.5</ele><time>2026-04-18T15:02:12.357Z</time></trkpt><trkpt lat="45.0889717" lon="8.3236133"><ele>187.25</ele><time>2026-04-18T15:02:13.356Z</time></trkpt><trkpt lat="45.0888617" lon="8.32348"><ele>189.0</ele><time>2026-04-18T15:02:14.357Z</time></trkpt><trkpt lat="45.08875" lon="8.32333"><ele>189.0</ele><time>2026-04-18T15:02:15.357Z</time></trkpt><trkpt lat="45.0886383" lon="8.3231717"><ele>189.0</ele><time>2026-04-18T15:02:16.357Z</time></trkpt><trkpt lat="45.0885317" lon="8.3230217"><ele>189.0</ele><time>2026-04-18T15:02:17.357Z</time></trkpt><trkpt lat="45.0884233" lon="8.3228733"><ele>191.0</ele><time>2026-04-18T15:02:18.357Z</time></trkpt><trkpt lat="45.0883083" lon="8.3227233"><ele>193.0</ele><time>2026-04-18T15:02:19.357Z</time></trkpt><trkpt lat="45.0882" lon="8.3225833"><ele>195.0</ele><time>2026-04-18T15:02:20.357Z</time></trkpt><trkpt lat="45.088085" lon="8.3224483"><ele>195.25</ele><time>2026-04-18T15:02:21.357Z</time></trkpt><trkpt lat="45.087975" lon="8.3223033"><ele>195.5</ele><time>2026-04-18T15:02:22.356Z</time></trkpt><trkpt lat="45.0878667" lon="8.32216"><ele>195.75</ele><time>2026-04-18T15:02:23.356Z</time></trkpt><trkpt lat="45.0877567" lon="8.3220183"><ele>196.0</ele><time>2026-04-18T15:02:24.356Z</time></trkpt><trkpt lat="45.08764" lon="8.3218733"><ele>196.75</ele><time>2026-04-18T15:02:25.357Z</time></trkpt><trkpt lat="45.0875433" lon="8.32173"><ele>197.5</ele><time>2026-04-18T15:02:26.357Z</time></trkpt><trkpt lat="45.0874383" lon="8.321595"><ele>198.25</ele><time>2026-04-18T15:02:27.356Z</time></trkpt><trkpt lat="45.087345" lon="8.3214617"><ele>199.0</ele><time>2026-04-18T15:02:28.357Z</time></trkpt><trkpt lat="45.0872517" lon="8.3213267"><ele>200.0</ele><time>2026-04-18T15:02:29.356Z</time></trkpt><trkpt lat="45.087165" lon="8.3211833"><ele>201.0</ele><time>2026-04-18T15:02:30.357Z</time></trkpt><trkpt lat="45.087095" lon="8.3210133"><ele>202.0</ele><time>2026-04-18T15:02:31.356Z</time></trkpt><trkpt lat="45.0870317" lon="8.3208367"><ele>203.0</ele><time>2026-04-18T15:02:32.356Z</time></trkpt><trkpt lat="45.0869767" lon="8.3206583"><ele>204.25</ele><time>2026-04-18T15:02:33.356Z</time></trkpt><trkpt lat="45.0869133" lon="8.3204683"><ele>205.5</ele><time>2026-04-18T15:02:34.356Z</time></trkpt><trkpt lat="45.0868533" lon="8.3202867"><ele>206.75</ele><time>2026-04-18T15:02:35.356Z</time></trkpt><trkpt lat="45.0867967" lon="8.3200933"><ele>208.0</ele><time>2026-04-18T15:02:36.357Z</time></trkpt><trkpt lat="45.0867367" lon="8.3199033"><ele>210.0</ele><time>2026-04-18T15:02:37.357Z</time></trkpt><trkpt lat="45.0866733" lon="8.3197283"><ele>212.0</ele><time>2026-04-18T15:02:38.357Z</time></trkpt><trkpt lat="45.0866167" lon="8.31956"><ele>214.0</ele><time>2026-04-18T15:02:39.357Z</time></trkpt><trkpt lat="45.0865583" lon="8.3193883"><ele>216.0</ele><time>2026-04-18T15:02:40.356Z</time></trkpt><trkpt lat="45.0865017" lon="8.3192083"><ele>216.75</ele><time>2026-04-18T15:02:41.357Z</time></trkpt><trkpt lat="45.086425" lon="8.31905"><ele>217.5</ele><time>2026-04-18T15:02:42.356Z</time></trkpt><trkpt lat="45.0863283" lon="8.3188983"><ele>218.25</ele><time>2026-04-18T15:02:43.357Z</time></trkpt><trkpt lat="45.0862233" lon="8.3187667"><ele>219.0</ele><time>2026-04-18T15:02:44.357Z</time></trkpt><trkpt lat="45.0861117" lon="8.3186383"><ele>219.75</ele><time>2026-04-18T15:02:45.356Z</time></trkpt><trkpt lat="45.0859917" lon="8.3185183"><ele>220.5</ele><time>2026-04-18T15:02:46.357Z</time></trkpt><trkpt lat="45.085895" lon="8.318395"><ele>221.25</ele><time>2026-04-18T15:02:47.357Z</time></trkpt><trkpt lat="45.0857933" lon="8.3182783"><ele>222.0</ele><time>2026-04-18T15:02:48.356Z</time></trkpt><trkpt lat="45.08571" lon="8.3181633"><ele>223.0</ele><time>2026-04-18T15:02:49.357Z</time></trkpt><trkpt lat="45.0856333" lon="8.3180617"><ele>224.0</ele><time>2026-04-18T15:02:50.357Z</time></trkpt><trkpt lat="45.0855583" lon="8.31797"><ele>225.0</ele><time>2026-04-18T15:02:51.357Z</time></trkpt><trkpt lat="45.08548" lon="8.3178817"><ele>226.0</ele><time>2026-04-18T15:02:52.357Z</time></trkpt><trkpt lat="45.0854" lon="8.3177883"><ele>227.0</ele><time>2026-04-18T15:02:53.356Z</time></trkpt><trkpt lat="45.08531" lon="8.31772"><ele>227.00000000000003</ele><time>2026-04-18T15:02:54.356Z</time></trkpt><trkpt lat="45.0852217" lon="8.3177067"><ele>227.0</ele><time>2026-04-18T15:02:55.357Z</time></trkpt><trkpt lat="45.085125" lon="8.317715"><ele>227.0</ele><time>2026-04-18T15:02:56.357Z</time></trkpt><trkpt lat="45.08504" lon="8.3177367"><ele>227.0</ele><time>2026-04-18T15:02:57.357Z</time></trkpt><trkpt lat="45.0849717" lon="8.31773"><ele>227.00000000000003</ele><time>2026-04-18T15:02:58.357Z</time></trkpt><trkpt lat="45.0849117" lon="8.317665"><ele>227.0</ele><time>2026-04-18T15:02:59.357Z</time></trkpt><trkpt lat="45.0848517" lon="8.317575"><ele>228.0</ele><time>2026-04-18T15:03:00.357Z</time></trkpt><trkpt lat="45.0847833" lon="8.3174567"><ele>229.0</ele><time>2026-04-18T15:03:01.357Z</time></trkpt><trkpt lat="45.0847033" lon="8.3173283"><ele>230.0</ele><time>2026-04-18T15:03:02.357Z</time></trkpt><trkpt lat="45.0846117" lon="8.31721"><ele>231.0</ele><time>2026-04-18T15:03:03.357Z</time></trkpt><trkpt lat="45.0845233" lon="8.3170833"><ele>231.0</ele><time>2026-04-18T15:03:04.357Z</time></trkpt><trkpt lat="45.0844283" lon="8.3169617"><ele>231.00000000000003</ele><time>2026-04-18T15:03:05.357Z</time></trkpt><trkpt lat="45.0843433" lon="8.31684"><ele>231.00000000000003</ele><time>2026-04-18T15:03:06.357Z</time></trkpt><trkpt lat="45.08427" lon="8.316745"><ele>231.0</ele><time>2026-04-18T15:03:07.357Z</time></trkpt><trkpt lat="45.0842033" lon="8.3166833"><ele>231.0</ele><time>2026-04-18T15:03:08.357Z</time></trkpt><trkpt lat="45.0841367" lon="8.3166433"><ele>232.8</ele><time>2026-04-18T15:03:09.356Z</time></trkpt><trkpt lat="45.08405" lon="8.3166267"><ele>234.60000000000002</ele><time>2026-04-18T15:03:10.357Z</time></trkpt><trkpt lat="45.0839533" lon="8.3166017"><ele>236.4</ele><time>2026-04-18T15:03:11.357Z</time></trkpt><trkpt lat="45.0838483" lon="8.3165533"><ele>238.2</ele><time>2026-04-18T15:03:12.357Z</time></trkpt><trkpt lat="45.08374" lon="8.3164933"><ele>240.0</ele><time>2026-04-18T15:03:13.357Z</time></trkpt><trkpt lat="45.0836283" lon="8.3164383"><ele>241.25</ele><time>2026-04-18T15:03:14.357Z</time></trkpt><trkpt lat="45.0835117" lon="8.3163733"><ele>242.5</ele><time>2026-04-18T15:03:15.356Z</time></trkpt><trkpt lat="45.083395" lon="8.3162967"><ele>243.75</ele><time>2026-04-18T15:03:16.356Z</time></trkpt><trkpt lat="45.0832683" lon="8.3162017"><ele>245.0</ele><time>2026-04-18T15:03:17.356Z</time></trkpt><trkpt lat="45.0831467" lon="8.3160967"><ele>245.0</ele><time>2026-04-18T15:03:18.356Z</time></trkpt><trkpt lat="45.08302" lon="8.315985"><ele>245.0</ele><time>2026-04-18T15:03:19.357Z</time></trkpt><trkpt lat="45.0828967" lon="8.3158883"><ele>245.0</ele><time>2026-04-18T15:03:20.357Z</time></trkpt><trkpt lat="45.082775" lon="8.3157867"><ele>245.0</ele><time>2026-04-18T15:03:21.357Z</time></trkpt><trkpt lat="45.0826533" lon="8.3156783"><ele>245.0</ele><time>2026-04-18T15:03:22.356Z</time></trkpt><trkpt lat="45.08254" lon="8.3155717"><ele>245.0</ele><time>2026-04-18T15:03:23.357Z</time></trkpt><trkpt lat="45.082425" lon="8.3154933"><ele>245.0</ele><time>2026-04-18T15:03:24.357Z</time></trkpt><trkpt lat="45.0823117" lon="8.3154533"><ele>245.0</ele><time>2026-04-18T15:03:25.356Z</time></trkpt><trkpt lat="45.0822017" lon="8.3154783"><ele>244.25</ele><time>2026-04-18T15:03:26.356Z</time></trkpt><trkpt lat="45.082095" lon="8.31557"><ele>243.5</ele><time>2026-04-18T15:03:27.357Z</time></trkpt><trkpt lat="45.081995" lon="8.315695"><ele>242.75</ele><time>2026-04-18T15:03:28.357Z</time></trkpt><trkpt lat="45.0819033" lon="8.315835"><ele>242.0</ele><time>2026-04-18T15:03:29.357Z</time></trkpt><trkpt lat="45.081825" lon="8.3159933"><ele>242.0</ele><time>2026-04-18T15:03:30.357Z</time></trkpt><trkpt lat="45.0817517" lon="8.3161667"><ele>242.0</ele><time>2026-04-18T15:03:31.356Z</time></trkpt><trkpt lat="45.0816967" lon="8.3163483"><ele>242.0</ele><time>2026-04-18T15:03:32.357Z</time></trkpt><trkpt lat="45.0816567" lon="8.3165467"><ele>242.0</ele><time>2026-04-18T15:03:33.356Z</time></trkpt><trkpt lat="45.081615" lon="8.3167483"><ele>239.66666666666669</ele><time>2026-04-18T15:03:34.357Z</time></trkpt><trkpt lat="45.0815767" lon="8.3169467"><ele>237.33333333333331</ele><time>2026-04-18T15:03:35.357Z</time></trkpt><trkpt lat="45.0815283" lon="8.317145"><ele>235.0</ele><time>2026-04-18T15:03:36.357Z</time></trkpt><trkpt lat="45.0814683" lon="8.3173567"><ele>235.0</ele><time>2026-04-18T15:03:37.356Z</time></trkpt><trkpt lat="45.0814117" lon="8.3175383"><ele>235.0</ele><time>2026-04-18T15:03:38.357Z</time></trkpt><trkpt lat="45.0813317" lon="8.31771"><ele>235.0</ele><time>2026-04-18T15:03:39.357Z</time></trkpt><trkpt lat="45.0812317" lon="8.3178467"><ele>235.0</ele><time>2026-04-18T15:03:40.357Z</time></trkpt><trkpt lat="45.0811167" lon="8.3179733"><ele>235.33333333333331</ele><time>2026-04-18T15:03:41.357Z</time></trkpt><trkpt lat="45.080985" lon="8.3180733"><ele>235.66666666666669</ele><time>2026-04-18T15:03:42.357Z</time></trkpt><trkpt lat="45.0808517" lon="8.31817"><ele>236.0</ele><time>2026-04-18T15:03:43.357Z</time></trkpt><trkpt lat="45.0807117" lon="8.3182633"><ele>236.0</ele><time>2026-04-18T15:03:44.357Z</time></trkpt><trkpt lat="45.080565" lon="8.3183717"><ele>236.0</ele><time>2026-04-18T15:03:45.357Z</time></trkpt><trkpt lat="45.0804183" lon="8.3184817"><ele>236.0</ele><time>2026-04-18T15:03:46.356Z</time></trkpt><trkpt lat="45.08027" lon="8.3185867"><ele>236.0</ele><time>2026-04-18T15:03:47.356Z</time></trkpt><trkpt lat="45.08012" lon="8.3186817"><ele>236.0</ele><time>2026-04-18T15:03:48.356Z</time></trkpt><trkpt lat="45.0799667" lon="8.31879"><ele>236.0</ele><time>2026-04-18T15:03:49.357Z</time></trkpt><trkpt lat="45.07982" lon="8.31889"><ele>237.0</ele><time>2026-04-18T15:03:50.357Z</time></trkpt><trkpt lat="45.0796783" lon="8.3189933"><ele>238.0</ele><time>2026-04-18T15:03:51.357Z</time></trkpt><trkpt lat="45.0795367" lon="8.3191033"><ele>239.0</ele><time>2026-04-18T15:03:52.357Z</time></trkpt><trkpt lat="45.0794017" lon="8.319205"><ele>239.0</ele><time>2026-04-18T15:03:53.357Z</time></trkpt><trkpt lat="45.0792667" lon="8.3192917"><ele>239.0</ele><time>2026-04-18T15:03:54.357Z</time></trkpt><trkpt lat="45.079135" lon="8.3193817"><ele>239.0</ele><time>2026-04-18T15:03:55.357Z</time></trkpt><trkpt lat="45.0790083" lon="8.3194767"><ele>239.0</ele><time>2026-04-18T15:03:56.357Z</time></trkpt><trkpt lat="45.07888" lon="8.3195883"><ele>239.33333333333334</ele><time>2026-04-18T15:03:57.357Z</time></trkpt><trkpt lat="45.0787467" lon="8.31971"><ele>239.66666666666669</ele><time>2026-04-18T15:03:58.357Z</time></trkpt><trkpt lat="45.0786183" lon="8.3198433"><ele>240.0</ele><time>2026-04-18T15:03:59.357Z</time></trkpt><trkpt lat="45.078495" lon="8.3199867"><ele>240.0</ele><time>2026-04-18T15:04:00.356Z</time></trkpt><trkpt lat="45.07839" lon="8.32013"><ele>240.0</ele><time>2026-04-18T15:04:01.357Z</time></trkpt><trkpt lat="45.07829" lon="8.3202683"><ele>240.0</ele><time>2026-04-18T15:04:02.357Z</time></trkpt><trkpt lat="45.0782117" lon="8.32041"><ele>240.0</ele><time>2026-04-18T15:04:03.357Z</time></trkpt><trkpt lat="45.0781467" lon="8.320555"><ele>235.75</ele><time>2026-04-18T15:04:04.357Z</time></trkpt><trkpt lat="45.0781283" lon="8.3207367"><ele>231.5</ele><time>2026-04-18T15:04:05.357Z</time></trkpt><trkpt lat="45.0781367" lon="8.3209483"><ele>227.25</ele><time>2026-04-18T15:04:06.357Z</time></trkpt><trkpt lat="45.078165" lon="8.3211733"><ele>223.0</ele><time>2026-04-18T15:04:07.356Z</time></trkpt><trkpt lat="45.0781583" lon="8.3214017"><ele>223.0</ele><time>2026-04-18T15:04:08.357Z</time></trkpt><trkpt lat="45.0781333" lon="8.3216317"><ele>223.0</ele><time>2026-04-18T15:04:09.356Z</time></trkpt><trkpt lat="45.0780783" lon="8.3218317"><ele>223.0</ele><time>2026-04-18T15:04:10.357Z</time></trkpt><trkpt lat="45.0779817" lon="8.3220133"><ele>223.0</ele><time>2026-04-18T15:04:11.356Z</time></trkpt><trkpt lat="45.077875" lon="8.3221517"><ele>223.0</ele><time>2026-04-18T15:04:12.357Z</time></trkpt><trkpt lat="45.0777467" lon="8.3223067"><ele>223.0</ele><time>2026-04-18T15:04:13.357Z</time></trkpt><trkpt lat="45.0776333" lon="8.322465"><ele>226.0</ele><time>2026-04-18T15:04:14.357Z</time></trkpt><trkpt lat="45.077535" lon="8.3226517"><ele>229.0</ele><time>2026-04-18T15:04:15.356Z</time></trkpt><trkpt lat="45.07745" lon="8.3228283"><ele>232.0</ele><time>2026-04-18T15:04:16.357Z</time></trkpt><trkpt lat="45.07737" lon="8.3230317"><ele>228.0</ele><time>2026-04-18T15:04:17.357Z</time></trkpt><trkpt lat="45.07729" lon="8.3232367"><ele>224.0</ele><time>2026-04-18T15:04:18.357Z</time></trkpt><trkpt lat="45.0772" lon="8.32343"><ele>220.0</ele><time>2026-04-18T15:04:19.357Z</time></trkpt><trkpt lat="45.07711" lon="8.3236133"><ele>220.0</ele><time>2026-04-18T15:04:20.357Z</time></trkpt><trkpt lat="45.0770133" lon="8.3237817"><ele>220.0</ele><time>2026-04-18T15:04:21.356Z</time></trkpt><trkpt lat="45.0769117" lon="8.3239383"><ele>220.0</ele><time>2026-04-18T15:04:22.357Z</time></trkpt><trkpt lat="45.0768017" lon="8.3240933"><ele>221.0</ele><time>2026-04-18T15:04:23.356Z</time></trkpt><trkpt lat="45.0766883" lon="8.32425"><ele>222.0</ele><time>2026-04-18T15:04:24.356Z</time></trkpt><trkpt lat="45.07658" lon="8.3244167"><ele>223.0</ele><time>2026-04-18T15:04:25.357Z</time></trkpt><trkpt lat="45.07647" lon="8.3245817"><ele>223.0</ele><time>2026-04-18T15:04:26.357Z</time></trkpt><trkpt lat="45.0763617" lon="8.3247417"><ele>223.0</ele><time>2026-04-18T15:04:27.356Z</time></trkpt><trkpt lat="45.0762583" lon="8.3248983"><ele>223.0</ele><time>2026-04-18T15:04:28.357Z</time></trkpt><trkpt lat="45.07618" lon="8.3250683"><ele>223.0</ele><time>2026-04-18T15:04:29.357Z</time></trkpt><trkpt lat="45.07611" lon="8.3252583"><ele>223.0</ele><time>2026-04-18T15:04:30.357Z</time></trkpt><trkpt lat="45.0760567" lon="8.3254433"><ele>223.0</ele><time>2026-04-18T15:04:31.357Z</time></trkpt><trkpt lat="45.0760033" lon="8.3256417"><ele>223.0</ele><time>2026-04-18T15:04:32.357Z</time></trkpt><trkpt lat="45.07594" lon="8.325845"><ele>224.66666666666666</ele><time>2026-04-18T15:04:33.357Z</time></trkpt><trkpt lat="45.0758767" lon="8.326065"><ele>226.33333333333331</ele><time>2026-04-18T15:04:34.357Z</time></trkpt><trkpt lat="45.075815" lon="8.3262967"><ele>228.0</ele><time>2026-04-18T15:04:35.357Z</time></trkpt><trkpt lat="45.075755" lon="8.3265217"><ele>224.66666666666669</ele><time>2026-04-18T15:04:36.357Z</time></trkpt><trkpt lat="45.07568" lon="8.3267383"><ele>221.33333333333334</ele><time>2026-04-18T15:04:37.357Z</time></trkpt><trkpt lat="45.0755967" lon="8.326935"><ele>218.0</ele><time>2026-04-18T15:04:38.357Z</time></trkpt><trkpt lat="45.07551" lon="8.327125"><ele>221.66666666666669</ele><time>2026-04-18T15:04:39.357Z</time></trkpt><trkpt lat="45.0754117" lon="8.327295"><ele>225.33333333333331</ele><time>2026-04-18T15:04:40.356Z</time></trkpt><trkpt lat="45.0752933" lon="8.3274383"><ele>229.0</ele><time>2026-04-18T15:04:41.357Z</time></trkpt><trkpt lat="45.0751667" lon="8.3275617"><ele>229.0</ele><time>2026-04-18T15:04:42.357Z</time></trkpt><trkpt lat="45.0750283" lon="8.3276783"><ele>229.0</ele><time>2026-04-18T15:04:43.356Z</time></trkpt><trkpt lat="45.0748983" lon="8.327795"><ele>229.0</ele><time>2026-04-18T15:04:44.356Z</time></trkpt><trkpt lat="45.0747633" lon="8.32791"><ele>229.33333333333331</ele><time>2026-04-18T15:04:45.357Z</time></trkpt><trkpt lat="45.0746283" lon="8.3280083"><ele>229.66666666666669</ele><time>2026-04-18T15:04:46.356Z</time></trkpt><trkpt lat="45.0744917" lon="8.3280983"><ele>230.0</ele><time>2026-04-18T15:04:47.356Z</time></trkpt><trkpt lat="45.0743383" lon="8.3281467"><ele>230.0</ele><time>2026-04-18T15:04:48.357Z</time></trkpt><trkpt lat="45.0741867" lon="8.3281367"><ele>230.0</ele><time>2026-04-18T15:04:49.357Z</time></trkpt><trkpt lat="45.07402" lon="8.32812"><ele>230.0</ele><time>2026-04-18T15:04:50.357Z</time></trkpt><trkpt lat="45.0738567" lon="8.3281167"><ele>230.0</ele><time>2026-04-18T15:04:51.357Z</time></trkpt><trkpt lat="45.0736983" lon="8.3281267"><ele>230.0</ele><time>2026-04-18T15:04:52.357Z</time></trkpt><trkpt lat="45.07354" lon="8.32814"><ele>230.0</ele><time>2026-04-18T15:04:53.357Z</time></trkpt><trkpt lat="45.0733767" lon="8.328185"><ele>229.33333333333334</ele><time>2026-04-18T15:04:54.357Z</time></trkpt><trkpt lat="45.073215" lon="8.32824"><ele>228.66666666666669</ele><time>2026-04-18T15:04:55.356Z</time></trkpt><trkpt lat="45.073055" lon="8.3282883"><ele>228.0</ele><time>2026-04-18T15:04:56.357Z</time></trkpt><trkpt lat="45.0728933" lon="8.32835"><ele>228.0</ele><time>2026-04-18T15:04:57.357Z</time></trkpt><trkpt lat="45.0727283" lon="8.3284167"><ele>228.0</ele><time>2026-04-18T15:04:58.357Z</time></trkpt><trkpt lat="45.072565" lon="8.3284833"><ele>228.0</ele><time>2026-04-18T15:04:59.357Z</time></trkpt><trkpt lat="45.072405" lon="8.32855"><ele>228.0</ele><time>2026-04-18T15:05:00.357Z</time></trkpt><trkpt lat="45.0722467" lon="8.3286217"><ele>228.0</ele><time>2026-04-18T15:05:01.357Z</time></trkpt><trkpt lat="45.0721" lon="8.3287117"><ele>228.0</ele><time>2026-04-18T15:05:02.357Z</time></trkpt><trkpt lat="45.0719533" lon="8.3288017"><ele>230.33333333333331</ele><time>2026-04-18T15:05:03.357Z</time></trkpt><trkpt lat="45.0718067" lon="8.328895"><ele>232.66666666666666</ele><time>2026-04-18T15:05:04.357Z</time></trkpt><trkpt lat="45.0716633" lon="8.32898"><ele>235.0</ele><time>2026-04-18T15:05:05.357Z</time></trkpt><trkpt lat="45.0715183" lon="8.32907"><ele>235.66666666666666</ele><time>2026-04-18T15:05:06.357Z</time></trkpt><trkpt lat="45.0713717" lon="8.3291633"><ele>236.33333333333331</ele><time>2026-04-18T15:05:07.357Z</time></trkpt><trkpt lat="45.0712217" lon="8.3292517"><ele>237.0</ele><time>2026-04-18T15:05:08.357Z</time></trkpt><trkpt lat="45.0710733" lon="8.329335"><ele>237.0</ele><time>2026-04-18T15:05:09.357Z</time></trkpt><trkpt lat="45.0709317" lon="8.3294133"><ele>237.0</ele><time>2026-04-18T15:05:10.357Z</time></trkpt><trkpt lat="45.07079" lon="8.329495"><ele>237.0</ele><time>2026-04-18T15:05:11.357Z</time></trkpt><trkpt lat="45.07064" lon="8.3295783"><ele>235.33333333333331</ele><time>2026-04-18T15:05:12.357Z</time></trkpt><trkpt lat="45.0705" lon="8.3296867"><ele>233.66666666666666</ele><time>2026-04-18T15:05:13.357Z</time></trkpt><trkpt lat="45.0703467" lon="8.329775"><ele>232.0</ele><time>2026-04-18T15:05:14.356Z</time></trkpt><trkpt lat="45.070205" lon="8.32987"><ele>236.0</ele><time>2026-04-18T15:05:15.356Z</time></trkpt><trkpt lat="45.070055" lon="8.3299667"><ele>240.0</ele><time>2026-04-18T15:05:16.357Z</time></trkpt><trkpt lat="45.0699017" lon="8.3300617"><ele>244.0</ele><time>2026-04-18T15:05:17.357Z</time></trkpt><trkpt lat="45.0697617" lon="8.330155"><ele>244.75</ele><time>2026-04-18T15:05:18.356Z</time></trkpt><trkpt lat="45.0696267" lon="8.3302417"><ele>245.5</ele><time>2026-04-18T15:05:19.357Z</time></trkpt><trkpt lat="45.0694983" lon="8.330325"><ele>246.25</ele><time>2026-04-18T15:05:20.356Z</time></trkpt><trkpt lat="45.06938" lon="8.330405"><ele>247.0</ele><time>2026-04-18T15:05:21.357Z</time></trkpt><trkpt lat="45.06926" lon="8.3304867"><ele>247.0</ele><time>2026-04-18T15:05:22.357Z</time></trkpt><trkpt lat="45.069135" lon="8.33055"><ele>247.0</ele><time>2026-04-18T15:05:23.357Z</time></trkpt><trkpt lat="45.0690083" lon="8.3305883"><ele>247.0</ele><time>2026-04-18T15:05:24.357Z</time></trkpt><trkpt lat="45.0688783" lon="8.3306583"><ele>247.0</ele><time>2026-04-18T15:05:25.357Z</time></trkpt><trkpt lat="45.0687633" lon="8.3307617"><ele>250.0</ele><time>2026-04-18T15:05:26.357Z</time></trkpt><trkpt lat="45.0686467" lon="8.330885"><ele>253.0</ele><time>2026-04-18T15:05:27.357Z</time></trkpt><trkpt lat="45.0685533" lon="8.33103"><ele>256.0</ele><time>2026-04-18T15:05:28.357Z</time></trkpt><trkpt lat="45.0684517" lon="8.331135"><ele>259.0</ele><time>2026-04-18T15:05:29.357Z</time></trkpt><trkpt lat="45.0683283" lon="8.3311683"><ele>262.0</ele><time>2026-04-18T15:05:30.357Z</time></trkpt><trkpt lat="45.06821" lon="8.3311317"><ele>265.0</ele><time>2026-04-18T15:05:31.357Z</time></trkpt><trkpt lat="45.06809" lon="8.3310717"><ele>268.0</ele><time>2026-04-18T15:05:32.356Z</time></trkpt><trkpt lat="45.0679933" lon="8.3309917"><ele>271.0</ele><time>2026-04-18T15:05:33.357Z</time></trkpt><trkpt lat="45.0679117" lon="8.330905"><ele>271.0</ele><time>2026-04-18T15:05:34.357Z</time></trkpt><trkpt lat="45.0678567" lon="8.3307783"><ele>271.0</ele><time>2026-04-18T15:05:35.357Z</time></trkpt><trkpt lat="45.0678217" lon="8.330635"><ele>271.0</ele><time>2026-04-18T15:05:36.357Z</time></trkpt><trkpt lat="45.0677967" lon="8.3304917"><ele>271.0</ele><time>2026-04-18T15:05:37.357Z</time></trkpt><trkpt lat="45.0677417" lon="8.33037"><ele>271.0</ele><time>2026-04-18T15:05:38.356Z</time></trkpt><trkpt lat="45.0676633" lon="8.3302683"><ele>270.0</ele><time>2026-04-18T15:05:39.357Z</time></trkpt><trkpt lat="45.0675767" lon="8.3301933"><ele>269.0</ele><time>2026-04-18T15:05:40.357Z</time></trkpt><trkpt lat="45.067505" lon="8.33013"><ele>268.0</ele><time>2026-04-18T15:05:41.357Z</time></trkpt><trkpt lat="45.0674417" lon="8.3300783"><ele>267.0</ele><time>2026-04-18T15:05:42.356Z</time></trkpt><trkpt lat="45.0673817" lon="8.3300417"><ele>266.0</ele><time>2026-04-18T15:05:43.357Z</time></trkpt><trkpt lat="45.0673183" lon="8.3300133"><ele>265.0</ele><time>2026-04-18T15:05:44.357Z</time></trkpt><trkpt lat="45.067225" lon="8.3301267"><ele>264.4</ele><time>2026-04-18T15:05:46.357Z</time></trkpt><trkpt lat="45.067205" lon="8.330225"><ele>263.8</ele><time>2026-04-18T15:05:47.356Z</time></trkpt><trkpt lat="45.0672133" lon="8.3303533"><ele>263.2</ele><time>2026-04-18T15:05:48.357Z</time></trkpt><trkpt lat="45.067245" lon="8.3305167"><ele>262.6</ele><time>2026-04-18T15:05:49.357Z</time></trkpt><trkpt lat="45.0672683" lon="8.330695"><ele>262.0</ele><time>2026-04-18T15:05:50.357Z</time></trkpt><trkpt lat="45.0672833" lon="8.3308833"><ele>262.0</ele><time>2026-04-18T15:05:51.356Z</time></trkpt><trkpt lat="45.0672683" lon="8.3310417"><ele>262.0</ele><time>2026-04-18T15:05:52.357Z</time></trkpt><trkpt lat="45.0672267" lon="8.3312083"><ele>262.0</ele><time>2026-04-18T15:05:53.357Z</time></trkpt><trkpt lat="45.06714" lon="8.3313617"><ele>262.0</ele><time>2026-04-18T15:05:54.357Z</time></trkpt><trkpt lat="45.0670417" lon="8.3315"><ele>265.25</ele><time>2026-04-18T15:05:55.357Z</time></trkpt><trkpt lat="45.06694" lon="8.3316167"><ele>268.5</ele><time>2026-04-18T15:05:56.357Z</time></trkpt><trkpt lat="45.06684" lon="8.3317283"><ele>271.75</ele><time>2026-04-18T15:05:57.357Z</time></trkpt><trkpt lat="45.0667517" lon="8.3318483"><ele>275.0</ele><time>2026-04-18T15:05:58.357Z</time></trkpt><trkpt lat="45.066675" lon="8.332005"><ele>275.0</ele><time>2026-04-18T15:05:59.357Z</time></trkpt><trkpt lat="45.0666167" lon="8.3321767"><ele>275.0</ele><time>2026-04-18T15:06:00.357Z</time></trkpt><trkpt lat="45.0665533" lon="8.3323633"><ele>275.0</ele><time>2026-04-18T15:06:01.357Z</time></trkpt><trkpt lat="45.0664917" lon="8.332555"><ele>275.0</ele><time>2026-04-18T15:06:02.357Z</time></trkpt><trkpt lat="45.0664333" lon="8.3327283"><ele>274.5</ele><time>2026-04-18T15:06:03.357Z</time></trkpt><trkpt lat="45.0663717" lon="8.332905"><ele>274.0</ele><time>2026-04-18T15:06:04.357Z</time></trkpt><trkpt lat="45.0663133" lon="8.333085"><ele>273.5</ele><time>2026-04-18T15:06:05.356Z</time></trkpt><trkpt lat="45.0662533" lon="8.3332617"><ele>273.0</ele><time>2026-04-18T15:06:06.357Z</time></trkpt><trkpt lat="45.0661967" lon="8.3334267"><ele>276.25</ele><time>2026-04-18T15:06:07.357Z</time></trkpt><trkpt lat="45.0661317" lon="8.33359"><ele>279.5</ele><time>2026-04-18T15:06:08.357Z</time></trkpt><trkpt lat="45.0660517" lon="8.3337433"><ele>282.75</ele><time>2026-04-18T15:06:09.357Z</time></trkpt><trkpt lat="45.0659517" lon="8.3338617"><ele>286.0</ele><time>2026-04-18T15:06:10.357Z</time></trkpt><trkpt lat="45.065845" lon="8.3339267"><ele>286.0</ele><time>2026-04-18T15:06:11.357Z</time></trkpt><trkpt lat="45.0657317" lon="8.3339833"><ele>286.0</ele><time>2026-04-18T15:06:12.357Z</time></trkpt><trkpt lat="45.0655967" lon="8.3340317"><ele>286.0</ele><time>2026-04-18T15:06:13.356Z</time></trkpt><trkpt lat="45.065485" lon="8.33412"><ele>286.0</ele><time>2026-04-18T15:06:14.356Z</time></trkpt><trkpt lat="45.0653917" lon="8.3342417"><ele>286.0</ele><time>2026-04-18T15:06:15.357Z</time></trkpt><trkpt lat="45.0653133" lon="8.33437"><ele>286.0</ele><time>2026-04-18T15:06:16.357Z</time></trkpt><trkpt lat="45.06522" lon="8.33448"><ele>286.0</ele><time>2026-04-18T15:06:17.357Z</time></trkpt><trkpt lat="45.0651017" lon="8.3345767"><ele>286.0</ele><time>2026-04-18T15:06:18.357Z</time></trkpt><trkpt lat="45.0649783" lon="8.3346567"><ele>286.0</ele><time>2026-04-18T15:06:19.357Z</time></trkpt><trkpt lat="45.064835" lon="8.3347"><ele>286.0</ele><time>2026-04-18T15:06:20.356Z</time></trkpt><trkpt lat="45.0646917" lon="8.3347267"><ele>286.0</ele><time>2026-04-18T15:06:21.356Z</time></trkpt><trkpt lat="45.0645617" lon="8.334755"><ele>286.0</ele><time>2026-04-18T15:06:22.357Z</time></trkpt><trkpt lat="45.0644467" lon="8.3347917"><ele>287.0</ele><time>2026-04-18T15:06:23.356Z</time></trkpt><trkpt lat="45.0643517" lon="8.33484"><ele>288.0</ele><time>2026-04-18T15:06:24.356Z</time></trkpt><trkpt lat="45.06428" lon="8.3349283"><ele>289.0</ele><time>2026-04-18T15:06:25.357Z</time></trkpt><trkpt lat="45.064225" lon="8.3350583"><ele>290.0</ele><time>2026-04-18T15:06:26.357Z</time></trkpt><trkpt lat="45.0641933" lon="8.3352167"><ele>291.0</ele><time>2026-04-18T15:06:27.357Z</time></trkpt><trkpt lat="45.0641917" lon="8.3353933"><ele>291.25</ele><time>2026-04-18T15:06:28.357Z</time></trkpt><trkpt lat="45.0641983" lon="8.33558"><ele>291.5</ele><time>2026-04-18T15:06:29.357Z</time></trkpt><trkpt lat="45.0642017" lon="8.3357667"><ele>291.75</ele><time>2026-04-18T15:06:30.357Z</time></trkpt><trkpt lat="45.06421" lon="8.33595"><ele>292.0</ele><time>2026-04-18T15:06:31.356Z</time></trkpt><trkpt lat="45.0641967" lon="8.336135"><ele>292.0</ele><time>2026-04-18T15:06:32.357Z</time></trkpt><trkpt lat="45.0641633" lon="8.3363167"><ele>292.0</ele><time>2026-04-18T15:06:33.357Z</time></trkpt><trkpt lat="45.0640933" lon="8.3364983"><ele>292.0</ele><time>2026-04-18T15:06:34.356Z</time></trkpt><trkpt lat="45.063985" lon="8.3366783"><ele>292.0</ele><time>2026-04-18T15:06:35.357Z</time></trkpt><trkpt lat="45.0638733" lon="8.3368567"><ele>288.66666666666663</ele><time>2026-04-18T15:06:36.357Z</time></trkpt><trkpt lat="45.0637833" lon="8.337035"><ele>285.3333333333333</ele><time>2026-04-18T15:06:37.357Z</time></trkpt><trkpt lat="45.0637117" lon="8.337215"><ele>282.0</ele><time>2026-04-18T15:06:38.357Z</time></trkpt><trkpt lat="45.06364" lon="8.33741"><ele>282.0</ele><time>2026-04-18T15:06:39.357Z</time></trkpt><trkpt lat="45.0635567" lon="8.3375967"><ele>282.0</ele><time>2026-04-18T15:06:40.357Z</time></trkpt><trkpt lat="45.06347" lon="8.3377733"><ele>282.0</ele><time>2026-04-18T15:06:41.357Z</time></trkpt><trkpt lat="45.063375" lon="8.33795"><ele>280.6666666666667</ele><time>2026-04-18T15:06:42.356Z</time></trkpt><trkpt lat="45.0632867" lon="8.3381333"><ele>279.33333333333337</ele><time>2026-04-18T15:06:43.356Z</time></trkpt><trkpt lat="45.0631983" lon="8.3383217"><ele>278.0</ele><time>2026-04-18T15:06:44.356Z</time></trkpt><trkpt lat="45.063105" lon="8.3385067"><ele>278.0</ele><time>2026-04-18T15:06:45.357Z</time></trkpt><trkpt lat="45.0630217" lon="8.3386833"><ele>278.0</ele><time>2026-04-18T15:06:46.356Z</time></trkpt><trkpt lat="45.0629533" lon="8.33885"><ele>278.0</ele><time>2026-04-18T15:06:47.356Z</time></trkpt><trkpt lat="45.062895" lon="8.3390117"><ele>278.0</ele><time>2026-04-18T15:06:48.357Z</time></trkpt><trkpt lat="45.0628567" lon="8.33918"><ele>279.0</ele><time>2026-04-18T15:06:49.357Z</time></trkpt><trkpt lat="45.0628317" lon="8.33932"><ele>280.0</ele><time>2026-04-18T15:06:50.357Z</time></trkpt><trkpt lat="45.0628183" lon="8.339435"><ele>281.0</ele><time>2026-04-18T15:06:51.357Z</time></trkpt><trkpt lat="45.0628083" lon="8.3395317"><ele>282.0</ele><time>2026-04-18T15:06:52.357Z</time></trkpt><trkpt lat="45.06277" lon="8.3396483"><ele>283.0</ele><time>2026-04-18T15:06:54.356Z</time></trkpt><trkpt lat="45.0626833" lon="8.339755"><ele>283.0</ele><time>2026-04-18T15:06:56.357Z</time></trkpt><trkpt lat="45.0626033" lon="8.3397733"><ele>283.0</ele><time>2026-04-18T15:06:57.357Z</time></trkpt><trkpt lat="45.062505" lon="8.3397917"><ele>283.0</ele><time>2026-04-18T15:06:58.357Z</time></trkpt><trkpt lat="45.06239" lon="8.3398383"><ele>283.0</ele><time>2026-04-18T15:06:59.357Z</time></trkpt><trkpt lat="45.0622683" lon="8.3399083"><ele>283.0</ele><time>2026-04-18T15:07:00.357Z</time></trkpt><trkpt lat="45.062155" lon="8.339995"><ele>283.0</ele><time>2026-04-18T15:07:01.357Z</time></trkpt><trkpt lat="45.0620367" lon="8.3400833"><ele>283.0</ele><time>2026-04-18T15:07:02.357Z</time></trkpt><trkpt lat="45.0619133" lon="8.3401833"><ele>283.0</ele><time>2026-04-18T15:07:03.357Z</time></trkpt><trkpt lat="45.061775" lon="8.34029"><ele>283.0</ele><time>2026-04-18T15:07:04.357Z</time></trkpt><trkpt lat="45.06164" lon="8.3404083"><ele>282.3333333333333</ele><time>2026-04-18T15:07:05.357Z</time></trkpt><trkpt lat="45.061505" lon="8.3405267"><ele>281.6666666666667</ele><time>2026-04-18T15:07:06.356Z</time></trkpt><trkpt lat="45.0613717" lon="8.340635"><ele>281.0</ele><time>2026-04-18T15:07:07.357Z</time></trkpt><trkpt lat="45.061245" lon="8.340735"><ele>281.0</ele><time>2026-04-18T15:07:08.357Z</time></trkpt><trkpt lat="45.0611133" lon="8.3408267"><ele>281.0</ele><time>2026-04-18T15:07:09.357Z</time></trkpt><trkpt lat="45.0609833" lon="8.340905"><ele>281.0</ele><time>2026-04-18T15:07:10.357Z</time></trkpt><trkpt lat="45.0608483" lon="8.3409617"><ele>281.0</ele><time>2026-04-18T15:07:11.357Z</time></trkpt><trkpt lat="45.060715" lon="8.341005"><ele>279.33333333333337</ele><time>2026-04-18T15:07:12.357Z</time></trkpt><trkpt lat="45.0605667" lon="8.34103"><ele>277.6666666666667</ele><time>2026-04-18T15:07:13.357Z</time></trkpt><trkpt lat="45.060415" lon="8.3410267"><ele>276.0</ele><time>2026-04-18T15:07:14.357Z</time></trkpt><trkpt lat="45.0602483" lon="8.3410183"><ele>276.0</ele><time>2026-04-18T15:07:15.357Z</time></trkpt><trkpt lat="45.06008" lon="8.3410083"><ele>276.0</ele><time>2026-04-18T15:07:16.357Z</time></trkpt><trkpt lat="45.059915" lon="8.3410067"><ele>276.0</ele><time>2026-04-18T15:07:17.357Z</time></trkpt><trkpt lat="45.0597517" lon="8.3410017"><ele>274.5</ele><time>2026-04-18T15:07:18.357Z</time></trkpt><trkpt lat="45.0595967" lon="8.340995"><ele>273.0</ele><time>2026-04-18T15:07:19.357Z</time></trkpt><trkpt lat="45.0594517" lon="8.3409867"><ele>271.5</ele><time>2026-04-18T15:07:20.356Z</time></trkpt><trkpt lat="45.059305" lon="8.3409833"><ele>270.0</ele><time>2026-04-18T15:07:21.357Z</time></trkpt><trkpt lat="45.0591533" lon="8.3409767"><ele>270.5</ele><time>2026-04-18T15:07:22.357Z</time></trkpt><trkpt lat="45.0590033" lon="8.3409783"><ele>271.0</ele><time>2026-04-18T15:07:23.357Z</time></trkpt><trkpt lat="45.0588667" lon="8.3409633"><ele>271.5</ele><time>2026-04-18T15:07:24.356Z</time></trkpt><trkpt lat="45.0587383" lon="8.34096"><ele>272.0</ele><time>2026-04-18T15:07:25.357Z</time></trkpt><trkpt lat="45.058615" lon="8.3409633"><ele>272.0</ele><time>2026-04-18T15:07:26.356Z</time></trkpt><trkpt lat="45.0585017" lon="8.3409617"><ele>272.0</ele><time>2026-04-18T15:07:27.357Z</time></trkpt><trkpt lat="45.058405" lon="8.340965"><ele>272.0</ele><time>2026-04-18T15:07:28.357Z</time></trkpt><trkpt lat="45.0583283" lon="8.34099"><ele>272.0</ele><time>2026-04-18T15:07:29.356Z</time></trkpt><trkpt lat="45.0582783" lon="8.3410467"><ele>272.0</ele><time>2026-04-18T15:07:30.356Z</time></trkpt><trkpt lat="45.0582467" lon="8.3411533"><ele>272.0</ele><time>2026-04-18T15:07:31.357Z</time></trkpt><trkpt lat="45.0582367" lon="8.3412817"><ele>271.25</ele><time>2026-04-18T15:07:32.356Z</time></trkpt><trkpt lat="45.05825" lon="8.34142"><ele>270.5</ele><time>2026-04-18T15:07:33.356Z</time></trkpt><trkpt lat="45.058305" lon="8.3415567"><ele>269.75</ele><time>2026-04-18T15:07:34.357Z</time></trkpt><trkpt lat="45.0583933" lon="8.3416633"><ele>269.0</ele><time>2026-04-18T15:07:35.357Z</time></trkpt><trkpt lat="45.0585167" lon="8.3417233"><ele>269.0</ele><time>2026-04-18T15:07:36.356Z</time></trkpt><trkpt lat="45.0586533" lon="8.3417667"><ele>269.0</ele><time>2026-04-18T15:07:37.357Z</time></trkpt><trkpt lat="45.05875" lon="8.3418517"><ele>269.0</ele><time>2026-04-18T15:07:38.356Z</time></trkpt><trkpt lat="45.0588083" lon="8.3419783"><ele>269.0</ele><time>2026-04-18T15:07:39.357Z</time></trkpt><trkpt lat="45.0588433" lon="8.3421267"><ele>267.25</ele><time>2026-04-18T15:07:40.357Z</time></trkpt><trkpt lat="45.0588267" lon="8.3422717"><ele>265.5</ele><time>2026-04-18T15:07:41.357Z</time></trkpt><trkpt lat="45.05877" lon="8.342405"><ele>263.75</ele><time>2026-04-18T15:07:42.356Z</time></trkpt><trkpt lat="45.0587017" lon="8.3425433"><ele>262.0</ele><time>2026-04-18T15:07:43.357Z</time></trkpt><trkpt lat="45.0586233" lon="8.3426933"><ele>262.0</ele><time>2026-04-18T15:07:44.357Z</time></trkpt><trkpt lat="45.0585583" lon="8.3428483"><ele>262.0</ele><time>2026-04-18T15:07:45.357Z</time></trkpt><trkpt lat="45.0584917" lon="8.34301"><ele>262.0</ele><time>2026-04-18T15:07:46.356Z</time></trkpt><trkpt lat="45.05843" lon="8.3431767"><ele>262.0</ele><time>2026-04-18T15:07:47.357Z</time></trkpt><trkpt lat="45.0583617" lon="8.3433417"><ele>261.5</ele><time>2026-04-18T15:07:48.357Z</time></trkpt><trkpt lat="45.0583017" lon="8.3434917"><ele>261.0</ele><time>2026-04-18T15:07:49.356Z</time></trkpt><trkpt lat="45.0582367" lon="8.3436317"><ele>260.5</ele><time>2026-04-18T15:07:50.357Z</time></trkpt><trkpt lat="45.05817" lon="8.3437817"><ele>260.0</ele><time>2026-04-18T15:07:51.357Z</time></trkpt><trkpt lat="45.058085" lon="8.343905"><ele>259.0</ele><time>2026-04-18T15:07:52.357Z</time></trkpt><trkpt lat="45.0579817" lon="8.3440083"><ele>258.0</ele><time>2026-04-18T15:07:53.356Z</time></trkpt><trkpt lat="45.0578567" lon="8.3440933"><ele>257.0</ele><time>2026-04-18T15:07:54.356Z</time></trkpt><trkpt lat="45.05772" lon="8.3441617"><ele>256.0</ele><time>2026-04-18T15:07:55.357Z</time></trkpt><trkpt lat="45.0575817" lon="8.3442"><ele>256.0</ele><time>2026-04-18T15:07:56.356Z</time></trkpt><trkpt lat="45.057455" lon="8.3442383"><ele>256.0</ele><time>2026-04-18T15:07:57.357Z</time></trkpt><trkpt lat="45.0573317" lon="8.3442783"><ele>256.0</ele><time>2026-04-18T15:07:58.356Z</time></trkpt><trkpt lat="45.0572133" lon="8.3442933"><ele>256.0</ele><time>2026-04-18T15:07:59.357Z</time></trkpt><trkpt lat="45.057105" lon="8.3443133"><ele>254.4</ele><time>2026-04-18T15:08:00.357Z</time></trkpt><trkpt lat="45.0570133" lon="8.34432"><ele>252.8</ele><time>2026-04-18T15:08:01.357Z</time></trkpt><trkpt lat="45.0568933" lon="8.344305"><ele>251.20000000000002</ele><time>2026-04-18T15:08:02.357Z</time></trkpt><trkpt lat="45.056785" lon="8.3442617"><ele>249.60000000000002</ele><time>2026-04-18T15:08:03.357Z</time></trkpt><trkpt lat="45.0566883" lon="8.3441733"><ele>248.0</ele><time>2026-04-18T15:08:04.357Z</time></trkpt><trkpt lat="45.0566167" lon="8.3440567"><ele>247.4</ele><time>2026-04-18T15:08:05.357Z</time></trkpt><trkpt lat="45.0565983" lon="8.3439133"><ele>246.8</ele><time>2026-04-18T15:08:06.357Z</time></trkpt><trkpt lat="45.0566283" lon="8.3437667"><ele>246.2</ele><time>2026-04-18T15:08:07.357Z</time></trkpt><trkpt lat="45.056695" lon="8.3436383"><ele>245.6</ele><time>2026-04-18T15:08:08.356Z</time></trkpt><trkpt lat="45.0567817" lon="8.3435117"><ele>245.0</ele><time>2026-04-18T15:08:09.356Z</time></trkpt><trkpt lat="45.0568633" lon="8.3433783"><ele>243.5</ele><time>2026-04-18T15:08:10.356Z</time></trkpt><trkpt lat="45.0569483" lon="8.3432567"><ele>242.0</ele><time>2026-04-18T15:08:11.357Z</time></trkpt><trkpt lat="45.0570167" lon="8.3431283"><ele>240.5</ele><time>2026-04-18T15:08:12.357Z</time></trkpt><trkpt lat="45.0570433" lon="8.3429833"><ele>239.0</ele><time>2026-04-18T15:08:13.357Z</time></trkpt><trkpt lat="45.0570383" lon="8.3428233"><ele>238.5</ele><time>2026-04-18T15:08:14.357Z</time></trkpt><trkpt lat="45.056995" lon="8.34266"><ele>238.0</ele><time>2026-04-18T15:08:15.357Z</time></trkpt><trkpt lat="45.0569267" lon="8.34249"><ele>237.5</ele><time>2026-04-18T15:08:16.357Z</time></trkpt><trkpt lat="45.0568533" lon="8.3423433"><ele>237.0</ele><time>2026-04-18T15:08:17.357Z</time></trkpt><trkpt lat="45.0567683" lon="8.3422033"><ele>235.75</ele><time>2026-04-18T15:08:18.357Z</time></trkpt><trkpt lat="45.0566583" lon="8.3420817"><ele>234.5</ele><time>2026-04-18T15:08:19.357Z</time></trkpt><trkpt lat="45.0565483" lon="8.3419933"><ele>233.25</ele><time>2026-04-18T15:08:20.356Z</time></trkpt><trkpt lat="45.05644" lon="8.3419033"><ele>232.0</ele><time>2026-04-18T15:08:21.357Z</time></trkpt><trkpt lat="45.0563283" lon="8.3418267"><ele>232.0</ele><time>2026-04-18T15:08:22.356Z</time></trkpt><trkpt lat="45.05622" lon="8.3417567"><ele>232.0</ele><time>2026-04-18T15:08:23.357Z</time></trkpt><trkpt lat="45.056115" lon="8.3416917"><ele>232.0</ele><time>2026-04-18T15:08:24.356Z</time></trkpt><trkpt lat="45.056005" lon="8.3416267"><ele>232.0</ele><time>2026-04-18T15:08:25.357Z</time></trkpt><trkpt lat="45.0558767" lon="8.34155"><ele>231.25</ele><time>2026-04-18T15:08:26.356Z</time></trkpt><trkpt lat="45.0557583" lon="8.3414783"><ele>230.5</ele><time>2026-04-18T15:08:27.357Z</time></trkpt><trkpt lat="45.05562" lon="8.3414033"><ele>229.75</ele><time>2026-04-18T15:08:28.356Z</time></trkpt><trkpt lat="45.0554933" lon="8.3413167"><ele>229.0</ele><time>2026-04-18T15:08:29.357Z</time></trkpt><trkpt lat="45.05537" lon="8.3412667"><ele>229.0</ele><time>2026-04-18T15:08:30.357Z</time></trkpt><trkpt lat="45.0552533" lon="8.3411967"><ele>229.0</ele><time>2026-04-18T15:08:31.357Z</time></trkpt><trkpt lat="45.0551383" lon="8.3411233"><ele>229.0</ele><time>2026-04-18T15:08:32.356Z</time></trkpt><trkpt lat="45.0550117" lon="8.3410383"><ele>229.0</ele><time>2026-04-18T15:08:33.356Z</time></trkpt><trkpt lat="45.0549033" lon="8.3409783"><ele>228.0</ele><time>2026-04-18T15:08:34.357Z</time></trkpt><trkpt lat="45.05479" lon="8.340905"><ele>227.0</ele><time>2026-04-18T15:08:35.357Z</time></trkpt><trkpt lat="45.0546933" lon="8.3408283"><ele>226.0</ele><time>2026-04-18T15:08:36.357Z</time></trkpt><trkpt lat="45.0545767" lon="8.3407533"><ele>225.0</ele><time>2026-04-18T15:08:37.356Z</time></trkpt><trkpt lat="45.0544583" lon="8.3406633"><ele>225.0</ele><time>2026-04-18T15:08:38.356Z</time></trkpt><trkpt lat="45.0543417" lon="8.3405667"><ele>225.0</ele><time>2026-04-18T15:08:39.357Z</time></trkpt><trkpt lat="45.0542233" lon="8.3404367"><ele>225.0</ele><time>2026-04-18T15:08:40.357Z</time></trkpt><trkpt lat="45.0541117" lon="8.3402983"><ele>225.0</ele><time>2026-04-18T15:08:41.356Z</time></trkpt><trkpt lat="45.0540083" lon="8.3401767"><ele>223.25</ele><time>2026-04-18T15:08:42.357Z</time></trkpt><trkpt lat="45.0539067" lon="8.3400567"><ele>221.5</ele><time>2026-04-18T15:08:43.356Z</time></trkpt><trkpt lat="45.0538083" lon="8.3399533"><ele>219.75</ele><time>2026-04-18T15:08:44.357Z</time></trkpt><trkpt lat="45.0537333" lon="8.3398483"><ele>218.0</ele><time>2026-04-18T15:08:45.357Z</time></trkpt><trkpt lat="45.053655" lon="8.3397383"><ele>218.8</ele><time>2026-04-18T15:08:46.357Z</time></trkpt><trkpt lat="45.0535717" lon="8.3396283"><ele>219.60000000000002</ele><time>2026-04-18T15:08:47.356Z</time></trkpt><trkpt lat="45.0534883" lon="8.3395267"><ele>220.39999999999998</ele><time>2026-04-18T15:08:48.357Z</time></trkpt><trkpt lat="45.0534083" lon="8.3394433"><ele>221.2</ele><time>2026-04-18T15:08:49.356Z</time></trkpt><trkpt lat="45.0533367" lon="8.3393533"><ele>222.0</ele><time>2026-04-18T15:08:50.357Z</time></trkpt><trkpt lat="45.0532683" lon="8.3392433"><ele>219.8</ele><time>2026-04-18T15:08:51.357Z</time></trkpt><trkpt lat="45.0531967" lon="8.3391417"><ele>217.6</ele><time>2026-04-18T15:08:52.356Z</time></trkpt><trkpt lat="45.0531317" lon="8.33902"><ele>215.4</ele><time>2026-04-18T15:08:53.357Z</time></trkpt><trkpt lat="45.0530617" lon="8.3388883"><ele>213.20000000000002</ele><time>2026-04-18T15:08:54.357Z</time></trkpt><trkpt lat="45.0529983" lon="8.338755"><ele>211.0</ele><time>2026-04-18T15:08:55.356Z</time></trkpt><trkpt lat="45.0529367" lon="8.33863"><ele>210.60000000000002</ele><time>2026-04-18T15:08:56.357Z</time></trkpt><trkpt lat="45.0528533" lon="8.3385317"><ele>210.2</ele><time>2026-04-18T15:08:57.357Z</time></trkpt><trkpt lat="45.0527733" lon="8.3384317"><ele>209.8</ele><time>2026-04-18T15:08:58.357Z</time></trkpt><trkpt lat="45.0526933" lon="8.3383367"><ele>209.39999999999998</ele><time>2026-04-18T15:08:59.357Z</time></trkpt><trkpt lat="45.0526133" lon="8.3382483"><ele>209.0</ele><time>2026-04-18T15:09:00.357Z</time></trkpt><trkpt lat="45.0525367" lon="8.3381733"><ele>208.39999999999998</ele><time>2026-04-18T15:09:01.357Z</time></trkpt><trkpt lat="45.0524467" lon="8.338145"><ele>207.8</ele><time>2026-04-18T15:09:02.356Z</time></trkpt><trkpt lat="45.0523667" lon="8.3381017"><ele>207.2</ele><time>2026-04-18T15:09:03.356Z</time></trkpt><trkpt lat="45.052285" lon="8.3380817"><ele>206.60000000000002</ele><time>2026-04-18T15:09:04.357Z</time></trkpt><trkpt lat="45.0521933" lon="8.338075"><ele>206.0</ele><time>2026-04-18T15:09:05.357Z</time></trkpt><trkpt lat="45.0520883" lon="8.3380783"><ele>206.0</ele><time>2026-04-18T15:09:06.357Z</time></trkpt><trkpt lat="45.0519733" lon="8.3380767"><ele>206.0</ele><time>2026-04-18T15:09:07.356Z</time></trkpt><trkpt lat="45.0518417" lon="8.3380817"><ele>206.0</ele><time>2026-04-18T15:09:08.357Z</time></trkpt><trkpt lat="45.0517267" lon="8.33808"><ele>206.0</ele><time>2026-04-18T15:09:09.357Z</time></trkpt><trkpt lat="45.0516117" lon="8.338105"><ele>205.25</ele><time>2026-04-18T15:09:10.357Z</time></trkpt><trkpt lat="45.051495" lon="8.3381717"><ele>204.5</ele><time>2026-04-18T15:09:11.357Z</time></trkpt><trkpt lat="45.0513767" lon="8.3382433"><ele>203.75</ele><time>2026-04-18T15:09:12.357Z</time></trkpt><trkpt lat="45.0512633" lon="8.33832"><ele>203.0</ele><time>2026-04-18T15:09:13.357Z</time></trkpt><trkpt lat="45.051155" lon="8.338375"><ele>203.0</ele><time>2026-04-18T15:09:14.357Z</time></trkpt><trkpt lat="45.0510367" lon="8.3384683"><ele>203.0</ele><time>2026-04-18T15:09:15.357Z</time></trkpt><trkpt lat="45.05093" lon="8.3385583"><ele>203.0</ele><time>2026-04-18T15:09:16.357Z</time></trkpt><trkpt lat="45.0508217" lon="8.3386483"><ele>203.0</ele><time>2026-04-18T15:09:17.357Z</time></trkpt><trkpt lat="45.0507117" lon="8.3387767"><ele>203.25</ele><time>2026-04-18T15:09:18.356Z</time></trkpt><trkpt lat="45.0505983" lon="8.33892"><ele>203.5</ele><time>2026-04-18T15:09:19.357Z</time></trkpt><trkpt lat="45.0505067" lon="8.339065"><ele>203.75</ele><time>2026-04-18T15:09:20.357Z</time></trkpt><trkpt lat="45.0504117" lon="8.33921"><ele>204.0</ele><time>2026-04-18T15:09:21.357Z</time></trkpt><trkpt lat="45.0503117" lon="8.3393483"><ele>204.0</ele><time>2026-04-18T15:09:22.357Z</time></trkpt><trkpt lat="45.0502133" lon="8.3394983"><ele>204.0</ele><time>2026-04-18T15:09:23.357Z</time></trkpt><trkpt lat="45.0501117" lon="8.33963"><ele>204.0</ele><time>2026-04-18T15:09:24.357Z</time></trkpt><trkpt lat="45.0500217" lon="8.339775"><ele>204.0</ele><time>2026-04-18T15:09:25.357Z</time></trkpt><trkpt lat="45.0499233" lon="8.3399217"><ele>203.0</ele><time>2026-04-18T15:09:26.357Z</time></trkpt><trkpt lat="45.0498233" lon="8.340085"><ele>202.0</ele><time>2026-04-18T15:09:27.357Z</time></trkpt><trkpt lat="45.0497317" lon="8.3402433"><ele>201.0</ele><time>2026-04-18T15:09:28.357Z</time></trkpt><trkpt lat="45.04963" lon="8.3404033"><ele>200.0</ele><time>2026-04-18T15:09:29.357Z</time></trkpt><trkpt lat="45.04952" lon="8.3405617"><ele>200.0</ele><time>2026-04-18T15:09:30.357Z</time></trkpt><trkpt lat="45.0494117" lon="8.3407233"><ele>200.0</ele><time>2026-04-18T15:09:31.357Z</time></trkpt><trkpt lat="45.049305" lon="8.34088"><ele>200.0</ele><time>2026-04-18T15:09:32.356Z</time></trkpt><trkpt lat="45.0491933" lon="8.3410533"><ele>199.66666666666669</ele><time>2026-04-18T15:09:33.357Z</time></trkpt><trkpt lat="45.0490667" lon="8.341225"><ele>199.33333333333331</ele><time>2026-04-18T15:09:34.357Z</time></trkpt><trkpt lat="45.04895" lon="8.3413967"><ele>199.0</ele><time>2026-04-18T15:09:35.357Z</time></trkpt><trkpt lat="45.0488367" lon="8.3415717"><ele>199.0</ele><time>2026-04-18T15:09:36.357Z</time></trkpt><trkpt lat="45.04872" lon="8.34174"><ele>199.0</ele><time>2026-04-18T15:09:37.357Z</time></trkpt><trkpt lat="45.0486017" lon="8.34191"><ele>199.0</ele><time>2026-04-18T15:09:38.357Z</time></trkpt><trkpt lat="45.0484767" lon="8.3420733"><ele>199.0</ele><time>2026-04-18T15:09:39.357Z</time></trkpt><trkpt lat="45.048365" lon="8.3422467"><ele>199.0</ele><time>2026-04-18T15:09:40.357Z</time></trkpt><trkpt lat="45.0482483" lon="8.3424117"><ele>199.0</ele><time>2026-04-18T15:09:41.356Z</time></trkpt><trkpt lat="45.048135" lon="8.3425717"><ele>198.33333333333331</ele><time>2026-04-18T15:09:42.356Z</time></trkpt><trkpt lat="45.0480217" lon="8.3427317"><ele>197.66666666666669</ele><time>2026-04-18T15:09:43.357Z</time></trkpt><trkpt lat="45.0479067" lon="8.3428883"><ele>197.0</ele><time>2026-04-18T15:09:44.357Z</time></trkpt><trkpt lat="45.0477817" lon="8.34305"><ele>197.0</ele><time>2026-04-18T15:09:45.357Z</time></trkpt><trkpt lat="45.0476517" lon="8.3432033"><ele>197.0</ele><time>2026-04-18T15:09:46.357Z</time></trkpt><trkpt lat="45.0475267" lon="8.3433517"><ele>197.0</ele><time>2026-04-18T15:09:47.357Z</time></trkpt><trkpt lat="45.047405" lon="8.3434983"><ele>196.33333333333334</ele><time>2026-04-18T15:09:48.357Z</time></trkpt><trkpt lat="45.047285" lon="8.34364"><ele>195.66666666666669</ele><time>2026-04-18T15:09:49.356Z</time></trkpt><trkpt lat="45.04716" lon="8.343795"><ele>195.0</ele><time>2026-04-18T15:09:50.356Z</time></trkpt><trkpt lat="45.0470333" lon="8.3439483"><ele>195.0</ele><time>2026-04-18T15:09:51.357Z</time></trkpt><trkpt lat="45.0469033" lon="8.3441067"><ele>195.0</ele><time>2026-04-18T15:09:52.357Z</time></trkpt><trkpt lat="45.0467733" lon="8.3442617"><ele>195.0</ele><time>2026-04-18T15:09:53.357Z</time></trkpt><trkpt lat="45.046645" lon="8.34441"><ele>194.0</ele><time>2026-04-18T15:09:54.357Z</time></trkpt><trkpt lat="45.0465183" lon="8.3445583"><ele>193.0</ele><time>2026-04-18T15:09:55.357Z</time></trkpt><trkpt lat="45.0464017" lon="8.3447017"><ele>192.0</ele><time>2026-04-18T15:09:56.357Z</time></trkpt><trkpt lat="45.0462883" lon="8.3448533"><ele>192.0</ele><time>2026-04-18T15:09:57.357Z</time></trkpt><trkpt lat="45.0461667" lon="8.345"><ele>192.0</ele><time>2026-04-18T15:09:58.357Z</time></trkpt><trkpt lat="45.04604" lon="8.3451583"><ele>192.0</ele><time>2026-04-18T15:09:59.356Z</time></trkpt><trkpt lat="45.0459183" lon="8.3453083"><ele>192.0</ele><time>2026-04-18T15:10:00.357Z</time></trkpt><trkpt lat="45.0458" lon="8.3454567"><ele>192.0</ele><time>2026-04-18T15:10:01.357Z</time></trkpt><trkpt lat="45.04568" lon="8.3456067"><ele>192.0</ele><time>2026-04-18T15:10:02.356Z</time></trkpt><trkpt lat="45.0455633" lon="8.3457517"><ele>192.33333333333331</ele><time>2026-04-18T15:10:03.357Z</time></trkpt><trkpt lat="45.0454383" lon="8.3458983"><ele>192.66666666666666</ele><time>2026-04-18T15:10:04.357Z</time></trkpt><trkpt lat="45.0453117" lon="8.3460417"><ele>193.0</ele><time>2026-04-18T15:10:05.357Z</time></trkpt><trkpt lat="45.0451917" lon="8.34619"><ele>193.0</ele><time>2026-04-18T15:10:06.357Z</time></trkpt><trkpt lat="45.0450717" lon="8.346345"><ele>193.0</ele><time>2026-04-18T15:10:07.357Z</time></trkpt><trkpt lat="45.044955" lon="8.3464883"><ele>193.0</ele><time>2026-04-18T15:10:08.357Z</time></trkpt><trkpt lat="45.0448367" lon="8.34661"><ele>192.66666666666666</ele><time>2026-04-18T15:10:09.357Z</time></trkpt><trkpt lat="45.0447083" lon="8.3467367"><ele>192.33333333333331</ele><time>2026-04-18T15:10:10.357Z</time></trkpt><trkpt lat="45.044575" lon="8.3468517"><ele>192.0</ele><time>2026-04-18T15:10:11.357Z</time></trkpt><trkpt lat="45.0444317" lon="8.3469433"><ele>192.0</ele><time>2026-04-18T15:10:12.357Z</time></trkpt><trkpt lat="45.0442767" lon="8.3470167"><ele>192.0</ele><time>2026-04-18T15:10:13.356Z</time></trkpt><trkpt lat="45.044115" lon="8.34706"><ele>192.0</ele><time>2026-04-18T15:10:14.356Z</time></trkpt><trkpt lat="45.0439517" lon="8.3470967"><ele>190.66666666666666</ele><time>2026-04-18T15:10:15.357Z</time></trkpt><trkpt lat="45.04379" lon="8.34713"><ele>189.33333333333331</ele><time>2026-04-18T15:10:16.357Z</time></trkpt><trkpt lat="45.043625" lon="8.347175"><ele>188.0</ele><time>2026-04-18T15:10:17.356Z</time></trkpt><trkpt lat="45.0434617" lon="8.347205"><ele>189.33333333333331</ele><time>2026-04-18T15:10:18.357Z</time></trkpt><trkpt lat="45.0432983" lon="8.347265"><ele>190.66666666666666</ele><time>2026-04-18T15:10:19.357Z</time></trkpt><trkpt lat="45.0431283" lon="8.347325"><ele>192.0</ele><time>2026-04-18T15:10:20.357Z</time></trkpt><trkpt lat="45.0429583" lon="8.3473867"><ele>192.0</ele><time>2026-04-18T15:10:21.357Z</time></trkpt><trkpt lat="45.0427933" lon="8.347445"><ele>192.0</ele><time>2026-04-18T15:10:22.356Z</time></trkpt><trkpt lat="45.0426317" lon="8.3475117"><ele>192.0</ele><time>2026-04-18T15:10:23.357Z</time></trkpt><trkpt lat="45.042465" lon="8.3475583"><ele>190.66666666666666</ele><time>2026-04-18T15:10:24.356Z</time></trkpt><trkpt lat="45.0422967" lon="8.3476183"><ele>189.33333333333331</ele><time>2026-04-18T15:10:25.357Z</time></trkpt><trkpt lat="45.0421383" lon="8.3476767"><ele>188.0</ele><time>2026-04-18T15:10:26.357Z</time></trkpt><trkpt lat="45.04198" lon="8.3477433"><ele>188.0</ele><time>2026-04-18T15:10:27.357Z</time></trkpt><trkpt lat="45.04182" lon="8.3478033"><ele>188.0</ele><time>2026-04-18T15:10:28.357Z</time></trkpt><trkpt lat="45.0416583" lon="8.3478683"><ele>188.0</ele><time>2026-04-18T15:10:29.357Z</time></trkpt><trkpt lat="45.0415" lon="8.3479383"><ele>187.66666666666666</ele><time>2026-04-18T15:10:30.357Z</time></trkpt><trkpt lat="45.04135" lon="8.3480017"><ele>187.33333333333334</ele><time>2026-04-18T15:10:31.357Z</time></trkpt><trkpt lat="45.0412183" lon="8.3481167"><ele>187.0</ele><time>2026-04-18T15:10:32.356Z</time></trkpt><trkpt lat="45.0410933" lon="8.3482567"><ele>187.0</ele><time>2026-04-18T15:10:33.357Z</time></trkpt><trkpt lat="45.0409767" lon="8.3484317"><ele>187.0</ele><time>2026-04-18T15:10:34.356Z</time></trkpt><trkpt lat="45.0408833" lon="8.34861"><ele>187.0</ele><time>2026-04-18T15:10:35.357Z</time></trkpt><trkpt lat="45.0407917" lon="8.34879"><ele>186.66666666666669</ele><time>2026-04-18T15:10:36.356Z</time></trkpt><trkpt lat="45.0407083" lon="8.3489617"><ele>186.33333333333334</ele><time>2026-04-18T15:10:37.357Z</time></trkpt><trkpt lat="45.0406117" lon="8.349125"><ele>186.0</ele><time>2026-04-18T15:10:38.357Z</time></trkpt><trkpt lat="45.04052" lon="8.3492983"><ele>186.0</ele><time>2026-04-18T15:10:39.357Z</time></trkpt><trkpt lat="45.0404367" lon="8.34947"><ele>186.0</ele><time>2026-04-18T15:10:40.356Z</time></trkpt><trkpt lat="45.040345" lon="8.3496533"><ele>186.0</ele><time>2026-04-18T15:10:41.357Z</time></trkpt><trkpt lat="45.0402467" lon="8.34983"><ele>187.33333333333334</ele><time>2026-04-18T15:10:42.357Z</time></trkpt><trkpt lat="45.0401417" lon="8.3500167"><ele>188.66666666666669</ele><time>2026-04-18T15:10:43.356Z</time></trkpt><trkpt lat="45.04005" lon="8.350205"><ele>190.0</ele><time>2026-04-18T15:10:44.357Z</time></trkpt><trkpt lat="45.0399583" lon="8.3503883"><ele>188.0</ele><time>2026-04-18T15:10:45.357Z</time></trkpt><trkpt lat="45.0398617" lon="8.350575"><ele>186.0</ele><time>2026-04-18T15:10:46.357Z</time></trkpt><trkpt lat="45.0397833" lon="8.3507733"><ele>184.0</ele><time>2026-04-18T15:10:47.357Z</time></trkpt><trkpt lat="45.0397283" lon="8.3509767"><ele>184.0</ele><time>2026-04-18T15:10:48.357Z</time></trkpt><trkpt lat="45.03969" lon="8.3511817"><ele>184.0</ele><time>2026-04-18T15:10:49.357Z</time></trkpt><trkpt lat="45.0396783" lon="8.3513933"><ele>184.0</ele><time>2026-04-18T15:10:50.357Z</time></trkpt><trkpt lat="45.0397433" lon="8.3515783"><ele>184.0</ele><time>2026-04-18T15:10:51.357Z</time></trkpt><trkpt lat="45.0397967" lon="8.3517917"><ele>185.0</ele><time>2026-04-18T15:10:52.357Z</time></trkpt><trkpt lat="45.039845" lon="8.35202"><ele>186.0</ele><time>2026-04-18T15:10:53.357Z</time></trkpt><trkpt lat="45.0398767" lon="8.3522417"><ele>187.0</ele><time>2026-04-18T15:10:54.356Z</time></trkpt><trkpt lat="45.0399183" lon="8.35246"><ele>187.66666666666669</ele><time>2026-04-18T15:10:55.357Z</time></trkpt><trkpt lat="45.0399517" lon="8.3526867"><ele>188.33333333333334</ele><time>2026-04-18T15:10:56.357Z</time></trkpt><trkpt lat="45.04" lon="8.3528967"><ele>189.0</ele><time>2026-04-18T15:10:57.356Z</time></trkpt><trkpt lat="45.04003" lon="8.353115"><ele>193.0</ele><time>2026-04-18T15:10:58.355Z</time></trkpt><trkpt lat="45.0400717" lon="8.3533367"><ele>197.0</ele><time>2026-04-18T15:10:59.355Z</time></trkpt><trkpt lat="45.040115" lon="8.3535567"><ele>201.0</ele><time>2026-04-18T15:11:00.356Z</time></trkpt><trkpt lat="45.0401633" lon="8.353775"><ele>201.0</ele><time>2026-04-18T15:11:01.356Z</time></trkpt><trkpt lat="45.0401933" lon="8.3539867"><ele>201.0</ele><time>2026-04-18T15:11:02.356Z</time></trkpt><trkpt lat="45.0402" lon="8.3541967"><ele>201.0</ele><time>2026-04-18T15:11:03.356Z</time></trkpt><trkpt lat="45.040185" lon="8.354405"><ele>201.0</ele><time>2026-04-18T15:11:04.356Z</time></trkpt><trkpt lat="45.0401667" lon="8.3546233"><ele>201.5</ele><time>2026-04-18T15:11:05.356Z</time></trkpt><trkpt lat="45.040135" lon="8.3548267"><ele>202.0</ele><time>2026-04-18T15:11:06.355Z</time></trkpt><trkpt lat="45.0401133" lon="8.3550333"><ele>202.5</ele><time>2026-04-18T15:11:07.356Z</time></trkpt><trkpt lat="45.0400983" lon="8.3552417"><ele>203.0</ele><time>2026-04-18T15:11:08.356Z</time></trkpt><trkpt lat="45.0400783" lon="8.3554617"><ele>204.0</ele><time>2026-04-18T15:11:09.356Z</time></trkpt><trkpt lat="45.040055" lon="8.3556917"><ele>205.0</ele><time>2026-04-18T15:11:10.356Z</time></trkpt><trkpt lat="45.0400283" lon="8.3559083"><ele>206.0</ele><time>2026-04-18T15:11:11.355Z</time></trkpt><trkpt lat="45.039995" lon="8.3561183"><ele>206.0</ele><time>2026-04-18T15:11:12.356Z</time></trkpt><trkpt lat="45.0399683" lon="8.3563133"><ele>206.0</ele><time>2026-04-18T15:11:13.356Z</time></trkpt><trkpt lat="45.03995" lon="8.3565183"><ele>206.0</ele><time>2026-04-18T15:11:14.355Z</time></trkpt><trkpt lat="45.0399433" lon="8.356715"><ele>206.0</ele><time>2026-04-18T15:11:15.356Z</time></trkpt><trkpt lat="45.03997" lon="8.3568983"><ele>206.5</ele><time>2026-04-18T15:11:16.355Z</time></trkpt><trkpt lat="45.0400483" lon="8.3570833"><ele>207.0</ele><time>2026-04-18T15:11:17.356Z</time></trkpt><trkpt lat="45.0401317" lon="8.357255"><ele>207.5</ele><time>2026-04-18T15:11:18.355Z</time></trkpt><trkpt lat="45.0402167" lon="8.3574283"><ele>208.0</ele><time>2026-04-18T15:11:19.356Z</time></trkpt><trkpt lat="45.0402967" lon="8.3576033"><ele>208.0</ele><time>2026-04-18T15:11:20.356Z</time></trkpt><trkpt lat="45.0403833" lon="8.3577733"><ele>208.0</ele><time>2026-04-18T15:11:21.356Z</time></trkpt><trkpt lat="45.040495" lon="8.3579383"><ele>208.0</ele><time>2026-04-18T15:11:22.356Z</time></trkpt><trkpt lat="45.0406067" lon="8.3580717"><ele>209.5</ele><time>2026-04-18T15:11:23.356Z</time></trkpt><trkpt lat="45.0407367" lon="8.35817"><ele>211.0</ele><time>2026-04-18T15:11:24.355Z</time></trkpt><trkpt lat="45.0408733" lon="8.3582083"><ele>212.5</ele><time>2026-04-18T15:11:25.356Z</time></trkpt><trkpt lat="45.04101" lon="8.3581867"><ele>214.0</ele><time>2026-04-18T15:11:26.356Z</time></trkpt><trkpt lat="45.041155" lon="8.35815"><ele>214.0</ele><time>2026-04-18T15:11:27.356Z</time></trkpt><trkpt lat="45.0412933" lon="8.35812"><ele>214.0</ele><time>2026-04-18T15:11:28.356Z</time></trkpt><trkpt lat="45.04142" lon="8.3581333"><ele>214.0</ele><time>2026-04-18T15:11:29.356Z</time></trkpt><trkpt lat="45.04154" lon="8.358205"><ele>214.0</ele><time>2026-04-18T15:11:30.356Z</time></trkpt><trkpt lat="45.04163" lon="8.3583383"><ele>215.66666666666666</ele><time>2026-04-18T15:11:31.356Z</time></trkpt><trkpt lat="45.04169" lon="8.3585267"><ele>217.33333333333331</ele><time>2026-04-18T15:11:32.356Z</time></trkpt><trkpt lat="45.0417283" lon="8.35875"><ele>219.0</ele><time>2026-04-18T15:11:33.356Z</time></trkpt><trkpt lat="45.041755" lon="8.358965"><ele>219.0</ele><time>2026-04-18T15:11:34.356Z</time></trkpt><trkpt lat="45.04176" lon="8.3591617"><ele>219.0</ele><time>2026-04-18T15:11:35.356Z</time></trkpt><trkpt lat="45.041775" lon="8.35935"><ele>219.0</ele><time>2026-04-18T15:11:36.356Z</time></trkpt><trkpt lat="45.041825" lon="8.3595167"><ele>219.0</ele><time>2026-04-18T15:11:37.356Z</time></trkpt><trkpt lat="45.041905" lon="8.3596633"><ele>218.25</ele><time>2026-04-18T15:11:38.356Z</time></trkpt><trkpt lat="45.0420017" lon="8.359795"><ele>217.5</ele><time>2026-04-18T15:11:39.356Z</time></trkpt><trkpt lat="45.042145" lon="8.359875"><ele>216.75</ele><time>2026-04-18T15:11:40.356Z</time></trkpt><trkpt lat="45.0422733" lon="8.3599583"><ele>216.0</ele><time>2026-04-18T15:11:41.356Z</time></trkpt><trkpt lat="45.0423783" lon="8.3600767"><ele>216.0</ele><time>2026-04-18T15:11:42.356Z</time></trkpt><trkpt lat="45.0424367" lon="8.3602267"><ele>216.0</ele><time>2026-04-18T15:11:43.356Z</time></trkpt><trkpt lat="45.0424683" lon="8.3603983"><ele>216.0</ele><time>2026-04-18T15:11:44.356Z</time></trkpt><trkpt lat="45.04246" lon="8.3605933"><ele>216.0</ele><time>2026-04-18T15:11:45.356Z</time></trkpt><trkpt lat="45.042435" lon="8.360795"><ele>216.33333333333331</ele><time>2026-04-18T15:11:46.356Z</time></trkpt><trkpt lat="45.0423883" lon="8.36101"><ele>216.66666666666666</ele><time>2026-04-18T15:11:47.356Z</time></trkpt><trkpt lat="45.0423067" lon="8.3612017"><ele>217.0</ele><time>2026-04-18T15:11:48.356Z</time></trkpt><trkpt lat="45.04223" lon="8.361405"><ele>218.33333333333331</ele><time>2026-04-18T15:11:49.356Z</time></trkpt><trkpt lat="45.0421617" lon="8.36161"><ele>219.66666666666669</ele><time>2026-04-18T15:11:50.356Z</time></trkpt><trkpt lat="45.04211" lon="8.361825"><ele>221.0</ele><time>2026-04-18T15:11:51.356Z</time></trkpt><trkpt lat="45.0420733" lon="8.362035"><ele>223.5</ele><time>2026-04-18T15:11:52.356Z</time></trkpt><trkpt lat="45.0420267" lon="8.36223"><ele>226.0</ele><time>2026-04-18T15:11:53.356Z</time></trkpt><trkpt lat="45.0419717" lon="8.3624017"><ele>228.5</ele><time>2026-04-18T15:11:54.355Z</time></trkpt><trkpt lat="45.0418933" lon="8.362545"><ele>231.0</ele><time>2026-04-18T15:11:55.356Z</time></trkpt><trkpt lat="45.0417933" lon="8.3626733"><ele>231.0</ele><time>2026-04-18T15:11:56.355Z</time></trkpt><trkpt lat="45.041685" lon="8.362775"><ele>231.0</ele><time>2026-04-18T15:11:57.356Z</time></trkpt><trkpt lat="45.041565" lon="8.3628783"><ele>231.0</ele><time>2026-04-18T15:11:58.356Z</time></trkpt><trkpt lat="45.041455" lon="8.3629917"><ele>231.0</ele><time>2026-04-18T15:11:59.355Z</time></trkpt><trkpt lat="45.04135" lon="8.36313"><ele>231.66666666666669</ele><time>2026-04-18T15:12:00.356Z</time></trkpt><trkpt lat="45.04125" lon="8.3632783"><ele>232.33333333333334</ele><time>2026-04-18T15:12:01.356Z</time></trkpt><trkpt lat="45.0411633" lon="8.36346"><ele>233.0</ele><time>2026-04-18T15:12:02.356Z</time></trkpt><trkpt lat="45.0410883" lon="8.3636533"><ele>233.0</ele><time>2026-04-18T15:12:03.356Z</time></trkpt><trkpt lat="45.0410117" lon="8.3638367"><ele>233.0</ele><time>2026-04-18T15:12:04.356Z</time></trkpt><trkpt lat="45.0409283" lon="8.3640183"><ele>233.0</ele><time>2026-04-18T15:12:05.356Z</time></trkpt><trkpt lat="45.040835" lon="8.3642017"><ele>236.0</ele><time>2026-04-18T15:12:06.355Z</time></trkpt><trkpt lat="45.04074" lon="8.36437"><ele>239.0</ele><time>2026-04-18T15:12:07.356Z</time></trkpt><trkpt lat="45.0406383" lon="8.3645383"><ele>242.0</ele><time>2026-04-18T15:12:08.356Z</time></trkpt><trkpt lat="45.04052" lon="8.3646883"><ele>239.66666666666669</ele><time>2026-04-18T15:12:09.356Z</time></trkpt><trkpt lat="45.040395" lon="8.3648483"><ele>237.33333333333331</ele><time>2026-04-18T15:12:10.356Z</time></trkpt><trkpt lat="45.04027" lon="8.365015"><ele>235.0</ele><time>2026-04-18T15:12:11.356Z</time></trkpt><trkpt lat="45.04015" lon="8.3651783"><ele>235.0</ele><time>2026-04-18T15:12:12.356Z</time></trkpt><trkpt lat="45.040025" lon="8.3653467"><ele>235.0</ele><time>2026-04-18T15:12:13.356Z</time></trkpt><trkpt lat="45.0398967" lon="8.3655167"><ele>235.0</ele><time>2026-04-18T15:12:14.356Z</time></trkpt><trkpt lat="45.0397733" lon="8.3656767"><ele>239.33333333333331</ele><time>2026-04-18T15:12:15.355Z</time></trkpt><trkpt lat="45.03965" lon="8.36584"><ele>243.66666666666669</ele><time>2026-04-18T15:12:16.356Z</time></trkpt><trkpt lat="45.03953" lon="8.366005"><ele>248.0</ele><time>2026-04-18T15:12:17.356Z</time></trkpt><trkpt lat="45.0394067" lon="8.3661667"><ele>248.0</ele><time>2026-04-18T15:12:18.356Z</time></trkpt><trkpt lat="45.039285" lon="8.36632"><ele>248.0</ele><time>2026-04-18T15:12:19.356Z</time></trkpt><trkpt lat="45.0391667" lon="8.3664733"><ele>248.0</ele><time>2026-04-18T15:12:20.356Z</time></trkpt><trkpt lat="45.0390533" lon="8.366635"><ele>252.0</ele><time>2026-04-18T15:12:21.356Z</time></trkpt><trkpt lat="45.0389417" lon="8.3667983"><ele>256.0</ele><time>2026-04-18T15:12:22.356Z</time></trkpt><trkpt lat="45.03883" lon="8.3669733"><ele>260.0</ele><time>2026-04-18T15:12:23.356Z</time></trkpt><trkpt lat="45.03873" lon="8.3671617"><ele>257.33333333333337</ele><time>2026-04-18T15:12:24.355Z</time></trkpt><trkpt lat="45.0386467" lon="8.3673467"><ele>254.66666666666669</ele><time>2026-04-18T15:12:25.356Z</time></trkpt><trkpt lat="45.0385633" lon="8.36754"><ele>252.0</ele><time>2026-04-18T15:12:26.356Z</time></trkpt><trkpt lat="45.038485" lon="8.3677433"><ele>252.0</ele><time>2026-04-18T15:12:27.356Z</time></trkpt><trkpt lat="45.0384017" lon="8.367945"><ele>252.0</ele><time>2026-04-18T15:12:28.355Z</time></trkpt><trkpt lat="45.0383067" lon="8.368145"><ele>252.0</ele><time>2026-04-18T15:12:29.356Z</time></trkpt><trkpt lat="45.0382217" lon="8.3683533"><ele>252.66666666666669</ele><time>2026-04-18T15:12:30.356Z</time></trkpt><trkpt lat="45.0381433" lon="8.3685617"><ele>253.33333333333334</ele><time>2026-04-18T15:12:31.356Z</time></trkpt><trkpt lat="45.0380617" lon="8.3687683"><ele>254.0</ele><time>2026-04-18T15:12:32.356Z</time></trkpt><trkpt lat="45.0379767" lon="8.3689733"><ele>254.0</ele><time>2026-04-18T15:12:33.356Z</time></trkpt><trkpt lat="45.037885" lon="8.369175"><ele>254.0</ele><time>2026-04-18T15:12:34.356Z</time></trkpt><trkpt lat="45.0377967" lon="8.3693767"><ele>254.0</ele><time>2026-04-18T15:12:35.356Z</time></trkpt><trkpt lat="45.037715" lon="8.3695883"><ele>252.0</ele><time>2026-04-18T15:12:36.356Z</time></trkpt><trkpt lat="45.0376283" lon="8.3697833"><ele>250.0</ele><time>2026-04-18T15:12:37.356Z</time></trkpt><trkpt lat="45.0375433" lon="8.3699767"><ele>248.0</ele><time>2026-04-18T15:12:38.356Z</time></trkpt><trkpt lat="45.037465" lon="8.37017"><ele>248.0</ele><time>2026-04-18T15:12:39.355Z</time></trkpt><trkpt lat="45.0373933" lon="8.3703617"><ele>248.0</ele><time>2026-04-18T15:12:40.356Z</time></trkpt><trkpt lat="45.0373317" lon="8.370555"><ele>248.0</ele><time>2026-04-18T15:12:41.355Z</time></trkpt><trkpt lat="45.0372867" lon="8.3707517"><ele>248.0</ele><time>2026-04-18T15:12:42.356Z</time></trkpt><trkpt lat="45.0372617" lon="8.370955"><ele>246.25</ele><time>2026-04-18T15:12:43.356Z</time></trkpt><trkpt lat="45.037265" lon="8.3711633"><ele>244.5</ele><time>2026-04-18T15:12:44.356Z</time></trkpt><trkpt lat="45.0372683" lon="8.3713683"><ele>242.75</ele><time>2026-04-18T15:12:45.355Z</time></trkpt><trkpt lat="45.037275" lon="8.3715667"><ele>241.0</ele><time>2026-04-18T15:12:46.355Z</time></trkpt><trkpt lat="45.0372883" lon="8.3717567"><ele>241.0</ele><time>2026-04-18T15:12:47.355Z</time></trkpt><trkpt lat="45.0372983" lon="8.371905"><ele>241.00000000000003</ele><time>2026-04-18T15:12:48.356Z</time></trkpt><trkpt lat="45.0372983" lon="8.372025"><ele>241.00000000000003</ele><time>2026-04-18T15:12:49.356Z</time></trkpt><trkpt lat="45.0372583" lon="8.3721567"><ele>241.0</ele><time>2026-04-18T15:12:51.356Z</time></trkpt><trkpt lat="45.0371733" lon="8.3720967"><ele>241.0</ele><time>2026-04-18T15:12:54.356Z</time></trkpt><trkpt lat="45.0371167" lon="8.3719983"><ele>241.0</ele><time>2026-04-18T15:12:55.356Z</time></trkpt><trkpt lat="45.0370567" lon="8.3718867"><ele>241.00000000000003</ele><time>2026-04-18T15:12:56.356Z</time></trkpt><trkpt lat="45.0369933" lon="8.3717733"><ele>241.00000000000003</ele><time>2026-04-18T15:12:57.356Z</time></trkpt><trkpt lat="45.036925" lon="8.3716217"><ele>241.0</ele><time>2026-04-18T15:12:58.355Z</time></trkpt><trkpt lat="45.0368567" lon="8.37149"><ele>241.0</ele><time>2026-04-18T15:12:59.355Z</time></trkpt><trkpt lat="45.0368167" lon="8.371325"><ele>241.0</ele><time>2026-04-18T15:13:00.356Z</time></trkpt><trkpt lat="45.036795" lon="8.371165"><ele>241.0</ele><time>2026-04-18T15:13:01.355Z</time></trkpt><trkpt lat="45.0367917" lon="8.370995"><ele>241.0</ele><time>2026-04-18T15:13:02.356Z</time></trkpt><trkpt lat="45.036805" lon="8.37083"><ele>241.0</ele><time>2026-04-18T15:13:03.355Z</time></trkpt><trkpt lat="45.0368267" lon="8.3706567"><ele>242.75</ele><time>2026-04-18T15:13:04.356Z</time></trkpt><trkpt lat="45.0368417" lon="8.37048"><ele>244.5</ele><time>2026-04-18T15:13:05.356Z</time></trkpt><trkpt lat="45.0368617" lon="8.3703017"><ele>246.25</ele><time>2026-04-18T15:13:06.356Z</time></trkpt><trkpt lat="45.036875" lon="8.37014"><ele>248.0</ele><time>2026-04-18T15:13:07.356Z</time></trkpt><trkpt lat="45.036885" lon="8.3699833"><ele>248.0</ele><time>2026-04-18T15:13:08.356Z</time></trkpt><trkpt lat="45.0369017" lon="8.3698283"><ele>248.0</ele><time>2026-04-18T15:13:09.355Z</time></trkpt><trkpt lat="45.036925" lon="8.3696833"><ele>248.0</ele><time>2026-04-18T15:13:10.356Z</time></trkpt><trkpt lat="45.0369083" lon="8.3695233"><ele>248.0</ele><time>2026-04-18T15:13:11.355Z</time></trkpt><trkpt lat="45.0368767" lon="8.3693733"><ele>248.0</ele><time>2026-04-18T15:13:12.356Z</time></trkpt><trkpt lat="45.0368417" lon="8.3692183"><ele>250.60000000000002</ele><time>2026-04-18T15:13:13.355Z</time></trkpt><trkpt lat="45.0367983" lon="8.3690733"><ele>253.20000000000002</ele><time>2026-04-18T15:13:14.356Z</time></trkpt><trkpt lat="45.0367567" lon="8.368955"><ele>255.8</ele><time>2026-04-18T15:13:15.355Z</time></trkpt><trkpt lat="45.0367183" lon="8.3688333"><ele>258.40000000000003</ele><time>2026-04-18T15:13:16.355Z</time></trkpt><trkpt lat="45.0366733" lon="8.368715"><ele>261.0</ele><time>2026-04-18T15:13:17.356Z</time></trkpt><trkpt lat="45.0366217" lon="8.3685917"><ele>261.1666666666667</ele><time>2026-04-18T15:13:18.356Z</time></trkpt><trkpt lat="45.0365733" lon="8.3684833"><ele>261.3333333333333</ele><time>2026-04-18T15:13:19.356Z</time></trkpt><trkpt lat="45.0365317" lon="8.3684"><ele>261.5</ele><time>2026-04-18T15:13:20.356Z</time></trkpt><trkpt lat="45.036485" lon="8.3682833"><ele>261.66666666666663</ele><time>2026-04-18T15:13:22.356Z</time></trkpt><trkpt lat="45.0364767" lon="8.3681833"><ele>261.8333333333333</ele><time>2026-04-18T15:13:26.356Z</time></trkpt><trkpt lat="45.0365283" lon="8.368095"><ele>262.0</ele><time>2026-04-18T15:13:28.356Z</time></trkpt><trkpt lat="45.0366233" lon="8.368005"><ele>262.75</ele><time>2026-04-18T15:13:30.356Z</time></trkpt><trkpt lat="45.036725" lon="8.3679117"><ele>263.5</ele><time>2026-04-18T15:13:32.356Z</time></trkpt><trkpt lat="45.036825" lon="8.36783"><ele>264.25</ele><time>2026-04-18T15:13:34.356Z</time></trkpt><trkpt lat="45.0369367" lon="8.3677433"><ele>265.0</ele><time>2026-04-18T15:13:36.356Z</time></trkpt><trkpt lat="45.0370333" lon="8.367655"><ele>265.0</ele><time>2026-04-18T15:13:38.355Z</time></trkpt><trkpt lat="45.0371233" lon="8.36757"><ele>265.0</ele><time>2026-04-18T15:13:40.355Z</time></trkpt><trkpt lat="45.037195" lon="8.3674733"><ele>265.0</ele><time>2026-04-18T15:13:42.355Z</time></trkpt><trkpt lat="45.0372583" lon="8.3674033"><ele>265.0</ele><time>2026-04-18T15:13:44.355Z</time></trkpt><trkpt lat="45.03732" lon="8.3673367"><ele>265.0</ele><time>2026-04-18T15:13:47.356Z</time></trkpt><trkpt lat="45.0373283" lon="8.367245"><ele>265.0</ele><time>2026-04-18T15:13:51.356Z</time></trkpt></trkseg><trkseg><trkpt lat="45.03641" lon="8.3680133"><ele>255.0</ele><time>2026-04-18T16:11:11.37Z</time></trkpt><trkpt lat="45.03637" lon="8.36793"><ele>255.0</ele><time>2026-04-18T16:11:13.37Z</time></trkpt><trkpt lat="45.0363267" lon="8.3678167"><ele>255.0</ele><time>2026-04-18T16:11:15.371Z</time></trkpt><trkpt lat="45.03639" lon="8.36768"><ele>255.0</ele><time>2026-04-18T16:11:17.37Z</time></trkpt><trkpt lat="45.03646" lon="8.3676133"><ele>255.0</ele><time>2026-04-18T16:11:18.371Z</time></trkpt><trkpt lat="45.036535" lon="8.3675233"><ele>255.0</ele><time>2026-04-18T16:11:19.371Z</time></trkpt><trkpt lat="45.036615" lon="8.367445"><ele>255.0</ele><time>2026-04-18T16:11:20.371Z</time></trkpt><trkpt lat="45.036695" lon="8.3673817"><ele>255.0</ele><time>2026-04-18T16:11:21.371Z</time></trkpt><trkpt lat="45.0367817" lon="8.36731"><ele>255.0</ele><time>2026-04-18T16:11:22.371Z</time></trkpt><trkpt lat="45.0368667" lon="8.3672383"><ele>255.0</ele><time>2026-04-18T16:11:23.371Z</time></trkpt><trkpt lat="45.0369583" lon="8.3671783"><ele>253.5</ele><time>2026-04-18T16:11:24.371Z</time></trkpt><trkpt lat="45.0370467" lon="8.3671017"><ele>252.0</ele><time>2026-04-18T16:11:25.371Z</time></trkpt><trkpt lat="45.0371217" lon="8.3670433"><ele>250.5</ele><time>2026-04-18T16:11:26.37Z</time></trkpt><trkpt lat="45.0371783" lon="8.36698"><ele>249.0</ele><time>2026-04-18T16:11:27.37Z</time></trkpt><trkpt lat="45.03724" lon="8.3669283"><ele>247.5</ele><time>2026-04-18T16:11:28.371Z</time></trkpt><trkpt lat="45.037305" lon="8.36687"><ele>246.0</ele><time>2026-04-18T16:11:29.37Z</time></trkpt><trkpt lat="45.037375" lon="8.3668033"><ele>246.0</ele><time>2026-04-18T16:11:30.371Z</time></trkpt><trkpt lat="45.03746" lon="8.366765"><ele>246.00000000000003</ele><time>2026-04-18T16:11:31.371Z</time></trkpt><trkpt lat="45.03756" lon="8.3667433"><ele>246.00000000000003</ele><time>2026-04-18T16:11:32.371Z</time></trkpt><trkpt lat="45.037635" lon="8.366725"><ele>246.0</ele><time>2026-04-18T16:11:33.371Z</time></trkpt><trkpt lat="45.03774" lon="8.3666933"><ele>246.0</ele><time>2026-04-18T16:11:35.371Z</time></trkpt><trkpt lat="45.0378633" lon="8.3667133"><ele>248.33333333333334</ele><time>2026-04-18T16:11:37.371Z</time></trkpt><trkpt lat="45.0379483" lon="8.3667367"><ele>250.66666666666669</ele><time>2026-04-18T16:11:39.371Z</time></trkpt><trkpt lat="45.038015" lon="8.366725"><ele>253.0</ele><time>2026-04-18T16:11:42.371Z</time></trkpt><trkpt lat="45.0380933" lon="8.366655"><ele>255.33333333333334</ele><time>2026-04-18T16:11:44.371Z</time></trkpt><trkpt lat="45.0381633" lon="8.36664"><ele>257.6666666666667</ele><time>2026-04-18T16:11:45.371Z</time></trkpt><trkpt lat="45.03824" lon="8.3665917"><ele>260.0</ele><time>2026-04-18T16:11:46.37Z</time></trkpt><trkpt lat="45.0383217" lon="8.3665067"><ele>260.0</ele><time>2026-04-18T16:11:47.371Z</time></trkpt><trkpt lat="45.0384" lon="8.3664"><ele>260.0</ele><time>2026-04-18T16:11:48.371Z</time></trkpt><trkpt lat="45.03849" lon="8.3663033"><ele>260.0</ele><time>2026-04-18T16:11:49.371Z</time></trkpt><trkpt lat="45.0385767" lon="8.3662083"><ele>260.0</ele><time>2026-04-18T16:11:50.371Z</time></trkpt><trkpt lat="45.0386583" lon="8.366125"><ele>260.0</ele><time>2026-04-18T16:11:51.371Z</time></trkpt><trkpt lat="45.03873" lon="8.366045"><ele>260.2</ele><time>2026-04-18T16:11:52.371Z</time></trkpt><trkpt lat="45.0387983" lon="8.36596"><ele>260.4</ele><time>2026-04-18T16:11:53.371Z</time></trkpt><trkpt lat="45.0388633" lon="8.3658683"><ele>260.6</ele><time>2026-04-18T16:11:54.371Z</time></trkpt><trkpt lat="45.0389183" lon="8.3657617"><ele>260.8</ele><time>2026-04-18T16:11:55.37Z</time></trkpt><trkpt lat="45.0389783" lon="8.3656233"><ele>261.0</ele><time>2026-04-18T16:11:56.371Z</time></trkpt><trkpt lat="45.039005" lon="8.365495"><ele>261.2</ele><time>2026-04-18T16:11:57.371Z</time></trkpt><trkpt lat="45.0390117" lon="8.3653517"><ele>261.40000000000003</ele><time>2026-04-18T16:11:58.371Z</time></trkpt><trkpt lat="45.0389967" lon="8.3652183"><ele>261.6</ele><time>2026-04-18T16:11:59.371Z</time></trkpt><trkpt lat="45.0389733" lon="8.3650817"><ele>261.8</ele><time>2026-04-18T16:12:00.371Z</time></trkpt><trkpt lat="45.03897" lon="8.36494"><ele>262.0</ele><time>2026-04-18T16:12:01.371Z</time></trkpt><trkpt lat="45.0390017" lon="8.3648033"><ele>262.2</ele><time>2026-04-18T16:12:02.371Z</time></trkpt><trkpt lat="45.03906" lon="8.36469"><ele>262.4</ele><time>2026-04-18T16:12:03.37Z</time></trkpt><trkpt lat="45.0391333" lon="8.3645983"><ele>262.6</ele><time>2026-04-18T16:12:04.37Z</time></trkpt><trkpt lat="45.03924" lon="8.3645333"><ele>262.8</ele><time>2026-04-18T16:12:05.37Z</time></trkpt><trkpt lat="45.0393517" lon="8.3645017"><ele>263.0</ele><time>2026-04-18T16:12:06.371Z</time></trkpt><trkpt lat="45.0394667" lon="8.3644567"><ele>262.0</ele><time>2026-04-18T16:12:07.371Z</time></trkpt><trkpt lat="45.0395717" lon="8.3643917"><ele>261.0</ele><time>2026-04-18T16:12:08.371Z</time></trkpt><trkpt lat="45.0396767" lon="8.3643"><ele>260.0</ele><time>2026-04-18T16:12:09.37Z</time></trkpt><trkpt lat="45.0397817" lon="8.36421"><ele>259.0</ele><time>2026-04-18T16:12:10.37Z</time></trkpt><trkpt lat="45.039875" lon="8.3641267"><ele>259.0</ele><time>2026-04-18T16:12:11.371Z</time></trkpt><trkpt lat="45.0399617" lon="8.364035"><ele>259.0</ele><time>2026-04-18T16:12:12.371Z</time></trkpt><trkpt lat="45.04006" lon="8.3639467"><ele>259.0</ele><time>2026-04-18T16:12:13.371Z</time></trkpt><trkpt lat="45.0401583" lon="8.363855"><ele>259.0</ele><time>2026-04-18T16:12:14.37Z</time></trkpt><trkpt lat="45.040245" lon="8.3637617"><ele>254.79999999999998</ele><time>2026-04-18T16:12:15.371Z</time></trkpt><trkpt lat="45.0403383" lon="8.36367"><ele>250.59999999999997</ele><time>2026-04-18T16:12:16.371Z</time></trkpt><trkpt lat="45.04043" lon="8.3635867"><ele>246.4</ele><time>2026-04-18T16:12:17.371Z</time></trkpt><trkpt lat="45.0405117" lon="8.3634933"><ele>242.2</ele><time>2026-04-18T16:12:18.371Z</time></trkpt><trkpt lat="45.0406017" lon="8.3634067"><ele>238.0</ele><time>2026-04-18T16:12:19.37Z</time></trkpt><trkpt lat="45.0406933" lon="8.3633217"><ele>237.99999999999997</ele><time>2026-04-18T16:12:20.371Z</time></trkpt><trkpt lat="45.0407833" lon="8.36326"><ele>238.0</ele><time>2026-04-18T16:12:21.37Z</time></trkpt><trkpt lat="45.0408767" lon="8.3632133"><ele>238.0</ele><time>2026-04-18T16:12:22.371Z</time></trkpt><trkpt lat="45.04096" lon="8.3631917"><ele>238.0</ele><time>2026-04-18T16:12:23.371Z</time></trkpt><trkpt lat="45.0410367" lon="8.3631767"><ele>237.99999999999997</ele><time>2026-04-18T16:12:24.371Z</time></trkpt><trkpt lat="45.0411" lon="8.3631767"><ele>238.0</ele><time>2026-04-18T16:12:25.37Z</time></trkpt><trkpt lat="45.0411717" lon="8.3631933"><ele>237.0</ele><time>2026-04-18T16:12:28.371Z</time></trkpt><trkpt lat="45.04127" lon="8.3631917"><ele>236.0</ele><time>2026-04-18T16:12:36.371Z</time></trkpt><trkpt lat="45.041365" lon="8.3631"><ele>235.0</ele><time>2026-04-18T16:12:38.371Z</time></trkpt><trkpt lat="45.0414217" lon="8.3630317"><ele>234.0</ele><time>2026-04-18T16:12:39.37Z</time></trkpt><trkpt lat="45.0414933" lon="8.36296"><ele>233.0</ele><time>2026-04-18T16:12:40.371Z</time></trkpt><trkpt lat="45.0415717" lon="8.3628833"><ele>232.60000000000002</ele><time>2026-04-18T16:12:41.37Z</time></trkpt><trkpt lat="45.0416517" lon="8.3628"><ele>232.20000000000002</ele><time>2026-04-18T16:12:42.371Z</time></trkpt><trkpt lat="45.04173" lon="8.3627117"><ele>231.8</ele><time>2026-04-18T16:12:43.371Z</time></trkpt><trkpt lat="45.0418067" lon="8.36263"><ele>231.4</ele><time>2026-04-18T16:12:44.371Z</time></trkpt><trkpt lat="45.0418767" lon="8.3625467"><ele>231.0</ele><time>2026-04-18T16:12:45.371Z</time></trkpt><trkpt lat="45.041965" lon="8.3624533"><ele>231.0</ele><time>2026-04-18T16:12:46.371Z</time></trkpt><trkpt lat="45.0420317" lon="8.3623333"><ele>231.0</ele><time>2026-04-18T16:12:47.371Z</time></trkpt><trkpt lat="45.04209" lon="8.3621917"><ele>231.0</ele><time>2026-04-18T16:12:48.371Z</time></trkpt><trkpt lat="45.04214" lon="8.362045"><ele>231.0</ele><time>2026-04-18T16:12:49.371Z</time></trkpt><trkpt lat="45.0421817" lon="8.361895"><ele>228.5</ele><time>2026-04-18T16:12:50.371Z</time></trkpt><trkpt lat="45.042215" lon="8.3617417"><ele>226.0</ele><time>2026-04-18T16:12:51.371Z</time></trkpt><trkpt lat="45.0422467" lon="8.3615767"><ele>223.5</ele><time>2026-04-18T16:12:52.371Z</time></trkpt><trkpt lat="45.0422967" lon="8.36141"><ele>221.0</ele><time>2026-04-18T16:12:53.37Z</time></trkpt><trkpt lat="45.0423417" lon="8.3612467"><ele>220.0</ele><time>2026-04-18T16:12:54.371Z</time></trkpt><trkpt lat="45.0423833" lon="8.3610883"><ele>219.0</ele><time>2026-04-18T16:12:55.371Z</time></trkpt><trkpt lat="45.0424217" lon="8.3609183"><ele>218.0</ele><time>2026-04-18T16:12:56.371Z</time></trkpt><trkpt lat="45.04245" lon="8.3607433"><ele>217.0</ele><time>2026-04-18T16:12:57.371Z</time></trkpt><trkpt lat="45.0424733" lon="8.3605817"><ele>216.8</ele><time>2026-04-18T16:12:58.371Z</time></trkpt><trkpt lat="45.0424883" lon="8.3604417"><ele>216.6</ele><time>2026-04-18T16:12:59.37Z</time></trkpt><trkpt lat="45.042485" lon="8.360305"><ele>216.40000000000003</ele><time>2026-04-18T16:13:00.371Z</time></trkpt><trkpt lat="45.0424617" lon="8.3601883"><ele>216.20000000000002</ele><time>2026-04-18T16:13:01.371Z</time></trkpt><trkpt lat="45.0424317" lon="8.3600767"><ele>216.0</ele><time>2026-04-18T16:13:02.371Z</time></trkpt><trkpt lat="45.0423733" lon="8.3599667"><ele>216.0</ele><time>2026-04-18T16:13:03.37Z</time></trkpt><trkpt lat="45.04229" lon="8.3598733"><ele>216.00000000000003</ele><time>2026-04-18T16:13:04.371Z</time></trkpt><trkpt lat="45.0421933" lon="8.359795"><ele>216.00000000000003</ele><time>2026-04-18T16:13:05.371Z</time></trkpt><trkpt lat="45.0420867" lon="8.3597533"><ele>216.0</ele><time>2026-04-18T16:13:06.371Z</time></trkpt><trkpt lat="45.041985" lon="8.3596833"><ele>216.0</ele><time>2026-04-18T16:13:07.371Z</time></trkpt><trkpt lat="45.0418867" lon="8.3595783"><ele>216.75</ele><time>2026-04-18T16:13:08.371Z</time></trkpt><trkpt lat="45.0418183" lon="8.3594383"><ele>217.5</ele><time>2026-04-18T16:13:09.371Z</time></trkpt><trkpt lat="45.04176" lon="8.3592867"><ele>218.25</ele><time>2026-04-18T16:13:10.371Z</time></trkpt><trkpt lat="45.0417317" lon="8.3591167"><ele>219.0</ele><time>2026-04-18T16:13:11.37Z</time></trkpt><trkpt lat="45.0417183" lon="8.3589517"><ele>220.0</ele><time>2026-04-18T16:13:12.371Z</time></trkpt><trkpt lat="45.0416983" lon="8.3587817"><ele>221.0</ele><time>2026-04-18T16:13:13.371Z</time></trkpt><trkpt lat="45.0416667" lon="8.3586167"><ele>222.0</ele><time>2026-04-18T16:13:14.37Z</time></trkpt><trkpt lat="45.0416317" lon="8.35847"><ele>223.0</ele><time>2026-04-18T16:13:15.371Z</time></trkpt><trkpt lat="45.0415967" lon="8.3583333"><ele>221.2</ele><time>2026-04-18T16:13:16.371Z</time></trkpt><trkpt lat="45.0415383" lon="8.3582167"><ele>219.4</ele><time>2026-04-18T16:13:17.371Z</time></trkpt><trkpt lat="45.0414683" lon="8.358135"><ele>217.59999999999997</ele><time>2026-04-18T16:13:18.371Z</time></trkpt><trkpt lat="45.0413583" lon="8.3581083"><ele>215.79999999999998</ele><time>2026-04-18T16:13:19.371Z</time></trkpt><trkpt lat="45.0412367" lon="8.3581267"><ele>214.0</ele><time>2026-04-18T16:13:20.371Z</time></trkpt><trkpt lat="45.0411167" lon="8.3581517"><ele>214.0</ele><time>2026-04-18T16:13:21.371Z</time></trkpt><trkpt lat="45.041005" lon="8.3581833"><ele>213.99999999999997</ele><time>2026-04-18T16:13:22.37Z</time></trkpt><trkpt lat="45.0408933" lon="8.3582017"><ele>213.99999999999997</ele><time>2026-04-18T16:13:23.371Z</time></trkpt><trkpt lat="45.0407883" lon="8.358175"><ele>214.0</ele><time>2026-04-18T16:13:24.371Z</time></trkpt><trkpt lat="45.0406833" lon="8.3581167"><ele>214.0</ele><time>2026-04-18T16:13:25.371Z</time></trkpt><trkpt lat="45.04058" lon="8.3580433"><ele>212.5</ele><time>2026-04-18T16:13:26.371Z</time></trkpt><trkpt lat="45.04049" lon="8.3579467"><ele>211.0</ele><time>2026-04-18T16:13:27.371Z</time></trkpt><trkpt lat="45.0404167" lon="8.357825"><ele>209.5</ele><time>2026-04-18T16:13:28.371Z</time></trkpt><trkpt lat="45.0403417" lon="8.3576717"><ele>208.0</ele><time>2026-04-18T16:13:29.371Z</time></trkpt><trkpt lat="45.04026" lon="8.3574967"><ele>208.0</ele><time>2026-04-18T16:13:30.371Z</time></trkpt><trkpt lat="45.0401717" lon="8.3573267"><ele>208.0</ele><time>2026-04-18T16:13:31.371Z</time></trkpt><trkpt lat="45.040095" lon="8.3571567"><ele>208.0</ele><time>2026-04-18T16:13:32.37Z</time></trkpt><trkpt lat="45.0400233" lon="8.3570117"><ele>208.0</ele><time>2026-04-18T16:13:33.371Z</time></trkpt><trkpt lat="45.0399667" lon="8.3568617"><ele>207.5</ele><time>2026-04-18T16:13:34.37Z</time></trkpt><trkpt lat="45.03994" lon="8.3567"><ele>207.0</ele><time>2026-04-18T16:13:35.371Z</time></trkpt><trkpt lat="45.0399333" lon="8.3565333"><ele>206.5</ele><time>2026-04-18T16:13:36.37Z</time></trkpt><trkpt lat="45.039945" lon="8.3563367"><ele>206.0</ele><time>2026-04-18T16:13:37.371Z</time></trkpt><trkpt lat="45.0399683" lon="8.3561117"><ele>206.0</ele><time>2026-04-18T16:13:38.371Z</time></trkpt><trkpt lat="45.0399917" lon="8.35588"><ele>206.0</ele><time>2026-04-18T16:13:39.371Z</time></trkpt><trkpt lat="45.040015" lon="8.3556333"><ele>206.0</ele><time>2026-04-18T16:13:40.371Z</time></trkpt><trkpt lat="45.04004" lon="8.3553883"><ele>205.0</ele><time>2026-04-18T16:13:41.371Z</time></trkpt><trkpt lat="45.0400883" lon="8.35515"><ele>204.0</ele><time>2026-04-18T16:13:42.37Z</time></trkpt><trkpt lat="45.040115" lon="8.3549067"><ele>203.0</ele><time>2026-04-18T16:13:43.371Z</time></trkpt><trkpt lat="45.0401417" lon="8.35467"><ele>202.33333333333334</ele><time>2026-04-18T16:13:44.371Z</time></trkpt><trkpt lat="45.040165" lon="8.35445"><ele>201.66666666666669</ele><time>2026-04-18T16:13:45.371Z</time></trkpt><trkpt lat="45.04019" lon="8.3542317"><ele>201.0</ele><time>2026-04-18T16:13:46.371Z</time></trkpt><trkpt lat="45.0402017" lon="8.3540383"><ele>201.0</ele><time>2026-04-18T16:13:47.371Z</time></trkpt><trkpt lat="45.040195" lon="8.3538533"><ele>201.0</ele><time>2026-04-18T16:13:48.371Z</time></trkpt><trkpt lat="45.040175" lon="8.353665"><ele>201.0</ele><time>2026-04-18T16:13:49.371Z</time></trkpt><trkpt lat="45.0401317" lon="8.35346"><ele>201.0</ele><time>2026-04-18T16:13:50.37Z</time></trkpt><trkpt lat="45.0400683" lon="8.353215"><ele>200.33333333333331</ele><time>2026-04-18T16:13:51.371Z</time></trkpt><trkpt lat="45.040025" lon="8.3529783"><ele>199.66666666666666</ele><time>2026-04-18T16:13:52.371Z</time></trkpt><trkpt lat="45.0399833" lon="8.3527517"><ele>199.0</ele><time>2026-04-18T16:13:53.37Z</time></trkpt><trkpt lat="45.0399467" lon="8.3525383"><ele>196.5</ele><time>2026-04-18T16:13:54.37Z</time></trkpt><trkpt lat="45.0399183" lon="8.3523383"><ele>194.0</ele><time>2026-04-18T16:13:55.371Z</time></trkpt><trkpt lat="45.039885" lon="8.352165"><ele>191.5</ele><time>2026-04-18T16:13:56.371Z</time></trkpt><trkpt lat="45.0398517" lon="8.3519833"><ele>189.0</ele><time>2026-04-18T16:13:57.371Z</time></trkpt><trkpt lat="45.0398217" lon="8.3518183"><ele>188.5</ele><time>2026-04-18T16:13:58.371Z</time></trkpt><trkpt lat="45.0397883" lon="8.3516567"><ele>188.0</ele><time>2026-04-18T16:13:59.371Z</time></trkpt><trkpt lat="45.03976" lon="8.3515"><ele>187.5</ele><time>2026-04-18T16:14:00.371Z</time></trkpt><trkpt lat="45.0397383" lon="8.3513367"><ele>187.0</ele><time>2026-04-18T16:14:01.37Z</time></trkpt><trkpt lat="45.0397267" lon="8.351175"><ele>186.25</ele><time>2026-04-18T16:14:02.37Z</time></trkpt><trkpt lat="45.03973" lon="8.351015"><ele>185.5</ele><time>2026-04-18T16:14:03.371Z</time></trkpt><trkpt lat="45.0397517" lon="8.3508517"><ele>184.75</ele><time>2026-04-18T16:14:04.371Z</time></trkpt><trkpt lat="45.03979" lon="8.35067"><ele>184.0</ele><time>2026-04-18T16:14:05.371Z</time></trkpt><trkpt lat="45.03988" lon="8.350495"><ele>186.0</ele><time>2026-04-18T16:14:06.37Z</time></trkpt><trkpt lat="45.04" lon="8.3503"><ele>188.0</ele><time>2026-04-18T16:14:07.37Z</time></trkpt><trkpt lat="45.0401017" lon="8.3500833"><ele>190.0</ele><time>2026-04-18T16:14:08.371Z</time></trkpt><trkpt lat="45.0402083" lon="8.3498583"><ele>188.66666666666669</ele><time>2026-04-18T16:14:09.371Z</time></trkpt><trkpt lat="45.04032" lon="8.3496633"><ele>187.33333333333334</ele><time>2026-04-18T16:14:10.37Z</time></trkpt><trkpt lat="45.0404283" lon="8.3494583"><ele>186.0</ele><time>2026-04-18T16:14:11.371Z</time></trkpt><trkpt lat="45.0405217" lon="8.3492567"><ele>186.0</ele><time>2026-04-18T16:14:12.37Z</time></trkpt><trkpt lat="45.0406167" lon="8.3490633"><ele>186.0</ele><time>2026-04-18T16:14:13.37Z</time></trkpt><trkpt lat="45.04072" lon="8.3488867"><ele>186.0</ele><time>2026-04-18T16:14:14.371Z</time></trkpt><trkpt lat="45.0408217" lon="8.34871"><ele>186.33333333333334</ele><time>2026-04-18T16:14:15.371Z</time></trkpt><trkpt lat="45.0409283" lon="8.3485217"><ele>186.66666666666669</ele><time>2026-04-18T16:14:16.371Z</time></trkpt><trkpt lat="45.0410233" lon="8.348345"><ele>187.0</ele><time>2026-04-18T16:14:17.371Z</time></trkpt><trkpt lat="45.0411317" lon="8.3481883"><ele>187.0</ele><time>2026-04-18T16:14:18.371Z</time></trkpt><trkpt lat="45.0412567" lon="8.3480517"><ele>187.0</ele><time>2026-04-18T16:14:19.37Z</time></trkpt><trkpt lat="45.0414017" lon="8.347955"><ele>187.0</ele><time>2026-04-18T16:14:20.371Z</time></trkpt><trkpt lat="45.04156" lon="8.347895"><ele>187.33333333333334</ele><time>2026-04-18T16:14:21.371Z</time></trkpt><trkpt lat="45.04172" lon="8.3478417"><ele>187.66666666666666</ele><time>2026-04-18T16:14:22.371Z</time></trkpt><trkpt lat="45.0418783" lon="8.3477817"><ele>188.0</ele><time>2026-04-18T16:14:23.371Z</time></trkpt><trkpt lat="45.04204" lon="8.3477283"><ele>188.0</ele><time>2026-04-18T16:14:24.37Z</time></trkpt><trkpt lat="45.042205" lon="8.3476567"><ele>188.0</ele><time>2026-04-18T16:14:25.371Z</time></trkpt><trkpt lat="45.0423733" lon="8.3476033"><ele>188.0</ele><time>2026-04-18T16:14:26.37Z</time></trkpt><trkpt lat="45.0425417" lon="8.3475533"><ele>189.33333333333331</ele><time>2026-04-18T16:14:27.371Z</time></trkpt><trkpt lat="45.0426967" lon="8.3474933"><ele>190.66666666666666</ele><time>2026-04-18T16:14:28.371Z</time></trkpt><trkpt lat="45.0428517" lon="8.3474133"><ele>192.0</ele><time>2026-04-18T16:14:29.37Z</time></trkpt><trkpt lat="45.0430167" lon="8.34736"><ele>192.0</ele><time>2026-04-18T16:14:30.371Z</time></trkpt><trkpt lat="45.0431783" lon="8.347315"><ele>192.0</ele><time>2026-04-18T16:14:31.37Z</time></trkpt><trkpt lat="45.0433383" lon="8.3472617"><ele>192.0</ele><time>2026-04-18T16:14:32.371Z</time></trkpt><trkpt lat="45.0435017" lon="8.3471983"><ele>190.66666666666666</ele><time>2026-04-18T16:14:33.371Z</time></trkpt><trkpt lat="45.0436633" lon="8.3471633"><ele>189.33333333333331</ele><time>2026-04-18T16:14:34.371Z</time></trkpt><trkpt lat="45.0438433" lon="8.3471517"><ele>188.0</ele><time>2026-04-18T16:14:35.371Z</time></trkpt><trkpt lat="45.04402" lon="8.3471217"><ele>189.33333333333331</ele><time>2026-04-18T16:14:36.371Z</time></trkpt><trkpt lat="45.044185" lon="8.3470817"><ele>190.66666666666666</ele><time>2026-04-18T16:14:37.371Z</time></trkpt><trkpt lat="45.0443467" lon="8.3470167"><ele>192.0</ele><time>2026-04-18T16:14:38.371Z</time></trkpt><trkpt lat="45.044505" lon="8.3469383"><ele>192.0</ele><time>2026-04-18T16:14:39.37Z</time></trkpt><trkpt lat="45.0446517" lon="8.3468383"><ele>192.0</ele><time>2026-04-18T16:14:40.371Z</time></trkpt><trkpt lat="45.0448" lon="8.346695"><ele>192.0</ele><time>2026-04-18T16:14:41.37Z</time></trkpt><trkpt lat="45.044935" lon="8.3465517"><ele>192.33333333333331</ele><time>2026-04-18T16:14:42.37Z</time></trkpt><trkpt lat="45.0450617" lon="8.3464017"><ele>192.66666666666666</ele><time>2026-04-18T16:14:43.371Z</time></trkpt><trkpt lat="45.045185" lon="8.3462383"><ele>193.0</ele><time>2026-04-18T16:14:44.37Z</time></trkpt><trkpt lat="45.0453183" lon="8.3460717"><ele>193.0</ele><time>2026-04-18T16:14:45.371Z</time></trkpt><trkpt lat="45.0454383" lon="8.3459117"><ele>193.0</ele><time>2026-04-18T16:14:46.371Z</time></trkpt><trkpt lat="45.04557" lon="8.3457567"><ele>193.0</ele><time>2026-04-18T16:14:47.37Z</time></trkpt><trkpt lat="45.045705" lon="8.3455783"><ele>192.66666666666666</ele><time>2026-04-18T16:14:48.371Z</time></trkpt><trkpt lat="45.045845" lon="8.3454183"><ele>192.33333333333331</ele><time>2026-04-18T16:14:49.37Z</time></trkpt><trkpt lat="45.0459817" lon="8.3452667"><ele>192.0</ele><time>2026-04-18T16:14:50.371Z</time></trkpt><trkpt lat="45.046115" lon="8.345105"><ele>192.0</ele><time>2026-04-18T16:14:51.371Z</time></trkpt><trkpt lat="45.046235" lon="8.344945"><ele>192.0</ele><time>2026-04-18T16:14:52.371Z</time></trkpt><trkpt lat="45.04636" lon="8.3447883"><ele>192.0</ele><time>2026-04-18T16:14:53.37Z</time></trkpt><trkpt lat="45.0464967" lon="8.3446433"><ele>193.0</ele><time>2026-04-18T16:14:54.371Z</time></trkpt><trkpt lat="45.0466283" lon="8.3445"><ele>194.0</ele><time>2026-04-18T16:14:55.371Z</time></trkpt><trkpt lat="45.0467483" lon="8.34435"><ele>195.0</ele><time>2026-04-18T16:14:56.371Z</time></trkpt><trkpt lat="45.0468733" lon="8.3442"><ele>195.0</ele><time>2026-04-18T16:14:57.37Z</time></trkpt><trkpt lat="45.0469917" lon="8.3440433"><ele>195.0</ele><time>2026-04-18T16:14:58.371Z</time></trkpt><trkpt lat="45.04711" lon="8.34389"><ele>195.0</ele><time>2026-04-18T16:14:59.371Z</time></trkpt><trkpt lat="45.0472417" lon="8.34374"><ele>194.33333333333331</ele><time>2026-04-18T16:15:00.371Z</time></trkpt><trkpt lat="45.047365" lon="8.3435917"><ele>193.66666666666666</ele><time>2026-04-18T16:15:01.37Z</time></trkpt><trkpt lat="45.0474867" lon="8.34343"><ele>193.0</ele><time>2026-04-18T16:15:02.371Z</time></trkpt><trkpt lat="45.0476133" lon="8.3432767"><ele>193.66666666666666</ele><time>2026-04-18T16:15:03.371Z</time></trkpt><trkpt lat="45.0477417" lon="8.343125"><ele>194.33333333333331</ele><time>2026-04-18T16:15:04.371Z</time></trkpt><trkpt lat="45.047865" lon="8.34298"><ele>195.0</ele><time>2026-04-18T16:15:05.371Z</time></trkpt><trkpt lat="45.0479867" lon="8.3428183"><ele>195.0</ele><time>2026-04-18T16:15:06.371Z</time></trkpt><trkpt lat="45.0481117" lon="8.342655"><ele>195.0</ele><time>2026-04-18T16:15:07.371Z</time></trkpt><trkpt lat="45.0482383" lon="8.3424883"><ele>195.0</ele><time>2026-04-18T16:15:08.371Z</time></trkpt><trkpt lat="45.0483583" lon="8.3423217"><ele>196.33333333333331</ele><time>2026-04-18T16:15:09.371Z</time></trkpt><trkpt lat="45.048475" lon="8.3421333"><ele>197.66666666666666</ele><time>2026-04-18T16:15:10.371Z</time></trkpt><trkpt lat="45.0485883" lon="8.3419583"><ele>199.0</ele><time>2026-04-18T16:15:11.37Z</time></trkpt><trkpt lat="45.0486983" lon="8.341795"><ele>199.0</ele><time>2026-04-18T16:15:12.371Z</time></trkpt><trkpt lat="45.0488067" lon="8.3416383"><ele>199.0</ele><time>2026-04-18T16:15:13.371Z</time></trkpt><trkpt lat="45.048915" lon="8.3414783"><ele>199.0</ele><time>2026-04-18T16:15:14.371Z</time></trkpt><trkpt lat="45.0490183" lon="8.34133"><ele>199.0</ele><time>2026-04-18T16:15:15.37Z</time></trkpt><trkpt lat="45.0491183" lon="8.3411767"><ele>199.0</ele><time>2026-04-18T16:15:16.371Z</time></trkpt><trkpt lat="45.04923" lon="8.3410233"><ele>199.0</ele><time>2026-04-18T16:15:17.371Z</time></trkpt><trkpt lat="45.0493483" lon="8.34087"><ele>199.33333333333331</ele><time>2026-04-18T16:15:18.37Z</time></trkpt><trkpt lat="45.0494617" lon="8.3407133"><ele>199.66666666666669</ele><time>2026-04-18T16:15:19.37Z</time></trkpt><trkpt lat="45.0495817" lon="8.3405583"><ele>200.0</ele><time>2026-04-18T16:15:20.37Z</time></trkpt><trkpt lat="45.0497" lon="8.340395"><ele>200.0</ele><time>2026-04-18T16:15:21.37Z</time></trkpt><trkpt lat="45.0498117" lon="8.34024"><ele>200.0</ele><time>2026-04-18T16:15:22.371Z</time></trkpt><trkpt lat="45.0499133" lon="8.340075"><ele>200.0</ele><time>2026-04-18T16:15:23.37Z</time></trkpt><trkpt lat="45.050015" lon="8.3399267"><ele>201.0</ele><time>2026-04-18T16:15:24.37Z</time></trkpt><trkpt lat="45.0501233" lon="8.3397867"><ele>202.0</ele><time>2026-04-18T16:15:25.371Z</time></trkpt><trkpt lat="45.0502383" lon="8.3396367"><ele>203.0</ele><time>2026-04-18T16:15:26.37Z</time></trkpt><trkpt lat="45.050335" lon="8.3394883"><ele>204.0</ele><time>2026-04-18T16:15:27.371Z</time></trkpt><trkpt lat="45.05042" lon="8.3393317"><ele>204.0</ele><time>2026-04-18T16:15:28.371Z</time></trkpt><trkpt lat="45.05052" lon="8.3392017"><ele>204.0</ele><time>2026-04-18T16:15:29.371Z</time></trkpt><trkpt lat="45.05061" lon="8.3390717"><ele>204.0</ele><time>2026-04-18T16:15:30.371Z</time></trkpt><trkpt lat="45.0506883" lon="8.338925"><ele>204.0</ele><time>2026-04-18T16:15:31.371Z</time></trkpt><trkpt lat="45.05078" lon="8.3387933"><ele>203.75</ele><time>2026-04-18T16:15:32.371Z</time></trkpt><trkpt lat="45.0508833" lon="8.3386917"><ele>203.5</ele><time>2026-04-18T16:15:33.37Z</time></trkpt><trkpt lat="45.0509967" lon="8.3385967"><ele>203.25</ele><time>2026-04-18T16:15:34.371Z</time></trkpt><trkpt lat="45.0511" lon="8.338515"><ele>203.0</ele><time>2026-04-18T16:15:35.37Z</time></trkpt><trkpt lat="45.0512033" lon="8.3384533"><ele>203.0</ele><time>2026-04-18T16:15:36.371Z</time></trkpt><trkpt lat="45.0513" lon="8.3383783"><ele>203.0</ele><time>2026-04-18T16:15:37.37Z</time></trkpt><trkpt lat="45.0513867" lon="8.338325"><ele>203.0</ele><time>2026-04-18T16:15:38.371Z</time></trkpt><trkpt lat="45.0514783" lon="8.338265"><ele>203.0</ele><time>2026-04-18T16:15:39.37Z</time></trkpt><trkpt lat="45.0515683" lon="8.3382067"><ele>203.0</ele><time>2026-04-18T16:15:40.371Z</time></trkpt><trkpt lat="45.0516683" lon="8.3381633"><ele>203.50000000000003</ele><time>2026-04-18T16:15:41.371Z</time></trkpt><trkpt lat="45.0517583" lon="8.3381417"><ele>204.0</ele><time>2026-04-18T16:15:42.371Z</time></trkpt><trkpt lat="45.05186" lon="8.3381267"><ele>204.5</ele><time>2026-04-18T16:15:43.371Z</time></trkpt><trkpt lat="45.05195" lon="8.3381083"><ele>205.0</ele><time>2026-04-18T16:15:44.371Z</time></trkpt><trkpt lat="45.0520233" lon="8.3381067"><ele>205.50000000000003</ele><time>2026-04-18T16:15:45.371Z</time></trkpt><trkpt lat="45.0521083" lon="8.3381117"><ele>206.0</ele><time>2026-04-18T16:15:46.37Z</time></trkpt><trkpt lat="45.0521817" lon="8.3381167"><ele>206.00000000000003</ele><time>2026-04-18T16:15:47.371Z</time></trkpt><trkpt lat="45.05228" lon="8.338125"><ele>206.0</ele><time>2026-04-18T16:15:49.371Z</time></trkpt><trkpt lat="45.0523417" lon="8.33803"><ele>206.0</ele><time>2026-04-18T16:15:51.371Z</time></trkpt><trkpt lat="45.0523267" lon="8.33788"><ele>206.0</ele><time>2026-04-18T16:15:53.371Z</time></trkpt><trkpt lat="45.0522883" lon="8.337795"><ele>206.00000000000003</ele><time>2026-04-18T16:15:54.371Z</time></trkpt><trkpt lat="45.05225" lon="8.33772"><ele>206.0</ele><time>2026-04-18T16:15:55.37Z</time></trkpt><trkpt lat="45.05222" lon="8.3376367"><ele>206.16666666666669</ele><time>2026-04-18T16:15:56.371Z</time></trkpt><trkpt lat="45.05216" lon="8.3375417"><ele>206.33333333333334</ele><time>2026-04-18T16:15:57.37Z</time></trkpt><trkpt lat="45.05213" lon="8.3374533"><ele>206.5</ele><time>2026-04-18T16:15:58.371Z</time></trkpt><trkpt lat="45.0520667" lon="8.337375"><ele>206.66666666666669</ele><time>2026-04-18T16:15:59.371Z</time></trkpt><trkpt lat="45.051955" lon="8.3373017"><ele>206.83333333333334</ele><time>2026-04-18T16:16:01.371Z</time></trkpt><trkpt lat="45.0518783" lon="8.3372917"><ele>207.0</ele><time>2026-04-18T16:16:02.371Z</time></trkpt><trkpt lat="45.0517233" lon="8.33723"><ele>206.5</ele><time>2026-04-18T16:16:03.371Z</time></trkpt><trkpt lat="45.0516117" lon="8.33718"><ele>206.0</ele><time>2026-04-18T16:16:04.37Z</time></trkpt><trkpt lat="45.0515083" lon="8.3371183"><ele>205.5</ele><time>2026-04-18T16:16:05.371Z</time></trkpt><trkpt lat="45.0513967" lon="8.3370117"><ele>205.0</ele><time>2026-04-18T16:16:06.37Z</time></trkpt><trkpt lat="45.0512817" lon="8.33689"><ele>205.0</ele><time>2026-04-18T16:16:07.37Z</time></trkpt><trkpt lat="45.05117" lon="8.336765"><ele>205.0</ele><time>2026-04-18T16:16:08.371Z</time></trkpt><trkpt lat="45.05105" lon="8.3366217"><ele>205.0</ele><time>2026-04-18T16:16:09.371Z</time></trkpt><trkpt lat="45.0509317" lon="8.33649"><ele>205.25</ele><time>2026-04-18T16:16:10.371Z</time></trkpt><trkpt lat="45.0508067" lon="8.3363733"><ele>205.5</ele><time>2026-04-18T16:16:11.369Z</time></trkpt><trkpt lat="45.0506917" lon="8.3362533"><ele>205.75</ele><time>2026-04-18T16:16:12.37Z</time></trkpt><trkpt lat="45.0505733" lon="8.3361383"><ele>206.0</ele><time>2026-04-18T16:16:13.37Z</time></trkpt><trkpt lat="45.0504617" lon="8.33601"><ele>206.0</ele><time>2026-04-18T16:16:14.37Z</time></trkpt><trkpt lat="45.0503417" lon="8.3358883"><ele>206.0</ele><time>2026-04-18T16:16:15.37Z</time></trkpt><trkpt lat="45.05023" lon="8.3357733"><ele>206.0</ele><time>2026-04-18T16:16:16.37Z</time></trkpt><trkpt lat="45.0501217" lon="8.3356733"><ele>206.0</ele><time>2026-04-18T16:16:17.369Z</time></trkpt><trkpt lat="45.0500283" lon="8.33556"><ele>209.5</ele><time>2026-04-18T16:16:18.37Z</time></trkpt><trkpt lat="45.0499283" lon="8.335455"><ele>213.0</ele><time>2026-04-18T16:16:19.369Z</time></trkpt><trkpt lat="45.049825" lon="8.3353517"><ele>216.5</ele><time>2026-04-18T16:16:20.37Z</time></trkpt><trkpt lat="45.049725" lon="8.33527"><ele>220.0</ele><time>2026-04-18T16:16:21.37Z</time></trkpt><trkpt lat="45.0496167" lon="8.33523"><ele>220.0</ele><time>2026-04-18T16:16:22.369Z</time></trkpt><trkpt lat="45.0495017" lon="8.3352367"><ele>220.0</ele><time>2026-04-18T16:16:23.37Z</time></trkpt><trkpt lat="45.0494" lon="8.3353183"><ele>220.0</ele><time>2026-04-18T16:16:24.37Z</time></trkpt><trkpt lat="45.0493183" lon="8.3354533"><ele>220.0</ele><time>2026-04-18T16:16:25.37Z</time></trkpt><trkpt lat="45.0492667" lon="8.3356433"><ele>219.25</ele><time>2026-04-18T16:16:26.37Z</time></trkpt><trkpt lat="45.0492483" lon="8.3358483"><ele>218.5</ele><time>2026-04-18T16:16:27.37Z</time></trkpt><trkpt lat="45.049225" lon="8.3360533"><ele>217.75</ele><time>2026-04-18T16:16:28.37Z</time></trkpt><trkpt lat="45.0492167" lon="8.3362533"><ele>217.0</ele><time>2026-04-18T16:16:29.37Z</time></trkpt><trkpt lat="45.0491933" lon="8.33644"><ele>216.75</ele><time>2026-04-18T16:16:30.37Z</time></trkpt><trkpt lat="45.0491717" lon="8.3366317"><ele>216.5</ele><time>2026-04-18T16:16:31.369Z</time></trkpt><trkpt lat="45.04914" lon="8.3368083"><ele>216.25</ele><time>2026-04-18T16:16:32.369Z</time></trkpt><trkpt lat="45.0490817" lon="8.336965"><ele>216.0</ele><time>2026-04-18T16:16:33.37Z</time></trkpt><trkpt lat="45.0489917" lon="8.3370933"><ele>217.75</ele><time>2026-04-18T16:16:34.37Z</time></trkpt><trkpt lat="45.0488883" lon="8.337195"><ele>219.5</ele><time>2026-04-18T16:16:35.37Z</time></trkpt><trkpt lat="45.0487683" lon="8.3372683"><ele>221.25</ele><time>2026-04-18T16:16:36.369Z</time></trkpt><trkpt lat="45.0486383" lon="8.3373483"><ele>223.0</ele><time>2026-04-18T16:16:37.37Z</time></trkpt><trkpt lat="45.0485033" lon="8.3374267"><ele>223.0</ele><time>2026-04-18T16:16:38.369Z</time></trkpt><trkpt lat="45.04836" lon="8.337505"><ele>223.0</ele><time>2026-04-18T16:16:39.37Z</time></trkpt><trkpt lat="45.0482167" lon="8.3375983"><ele>223.0</ele><time>2026-04-18T16:16:40.37Z</time></trkpt><trkpt lat="45.0480683" lon="8.3377033"><ele>225.0</ele><time>2026-04-18T16:16:41.37Z</time></trkpt><trkpt lat="45.0479317" lon="8.337805"><ele>227.0</ele><time>2026-04-18T16:16:42.37Z</time></trkpt><trkpt lat="45.047805" lon="8.3378917"><ele>229.0</ele><time>2026-04-18T16:16:43.37Z</time></trkpt><trkpt lat="45.0477033" lon="8.3379933"><ele>231.0</ele><time>2026-04-18T16:16:44.37Z</time></trkpt><trkpt lat="45.0476183" lon="8.3381017"><ele>231.0</ele><time>2026-04-18T16:16:45.37Z</time></trkpt><trkpt lat="45.0475533" lon="8.3382083"><ele>231.0</ele><time>2026-04-18T16:16:46.369Z</time></trkpt><trkpt lat="45.0474783" lon="8.3382833"><ele>231.0</ele><time>2026-04-18T16:16:47.37Z</time></trkpt><trkpt lat="45.0474017" lon="8.338345"><ele>231.0</ele><time>2026-04-18T16:16:48.37Z</time></trkpt><trkpt lat="45.0473333" lon="8.33836"><ele>231.0</ele><time>2026-04-18T16:16:49.37Z</time></trkpt><trkpt lat="45.0472683" lon="8.3383283"><ele>231.0</ele><time>2026-04-18T16:16:50.37Z</time></trkpt><trkpt lat="45.0472167" lon="8.3382383"><ele>233.75</ele><time>2026-04-18T16:16:51.37Z</time></trkpt><trkpt lat="45.0472133" lon="8.3381017"><ele>236.5</ele><time>2026-04-18T16:16:52.369Z</time></trkpt><trkpt lat="45.0472533" lon="8.3379217"><ele>239.25</ele><time>2026-04-18T16:16:53.37Z</time></trkpt><trkpt lat="45.0473417" lon="8.33772"><ele>242.0</ele><time>2026-04-18T16:16:54.37Z</time></trkpt><trkpt lat="45.04746" lon="8.3375283"><ele>242.0</ele><time>2026-04-18T16:16:55.37Z</time></trkpt><trkpt lat="45.0475533" lon="8.3373467"><ele>242.0</ele><time>2026-04-18T16:16:56.369Z</time></trkpt><trkpt lat="45.0476467" lon="8.3371883"><ele>242.0</ele><time>2026-04-18T16:16:57.37Z</time></trkpt><trkpt lat="45.0477417" lon="8.337025"><ele>242.0</ele><time>2026-04-18T16:16:58.37Z</time></trkpt><trkpt lat="45.0478333" lon="8.3368617"><ele>242.0</ele><time>2026-04-18T16:16:59.37Z</time></trkpt><trkpt lat="45.047925" lon="8.3366983"><ele>242.0</ele><time>2026-04-18T16:17:00.37Z</time></trkpt><trkpt lat="45.04802" lon="8.3365433"><ele>242.0</ele><time>2026-04-18T16:17:01.369Z</time></trkpt><trkpt lat="45.0480983" lon="8.3363767"><ele>244.0</ele><time>2026-04-18T16:17:02.37Z</time></trkpt><trkpt lat="45.048145" lon="8.3361783"><ele>246.0</ele><time>2026-04-18T16:17:03.369Z</time></trkpt><trkpt lat="45.048185" lon="8.335985"><ele>248.0</ele><time>2026-04-18T16:17:04.37Z</time></trkpt><trkpt lat="45.0482067" lon="8.335785"><ele>250.0</ele><time>2026-04-18T16:17:05.37Z</time></trkpt><trkpt lat="45.0482" lon="8.3355667"><ele>252.0</ele><time>2026-04-18T16:17:06.369Z</time></trkpt><trkpt lat="45.0481683" lon="8.3353417"><ele>254.0</ele><time>2026-04-18T16:17:07.37Z</time></trkpt><trkpt lat="45.04814" lon="8.3351267"><ele>256.0</ele><time>2026-04-18T16:17:08.37Z</time></trkpt><trkpt lat="45.048125" lon="8.3349117"><ele>256.66666666666663</ele><time>2026-04-18T16:17:09.369Z</time></trkpt><trkpt lat="45.0481117" lon="8.3346867"><ele>257.3333333333333</ele><time>2026-04-18T16:17:10.37Z</time></trkpt><trkpt lat="45.0481067" lon="8.3344633"><ele>258.0</ele><time>2026-04-18T16:17:11.37Z</time></trkpt><trkpt lat="45.048095" lon="8.334235"><ele>258.0</ele><time>2026-04-18T16:17:12.369Z</time></trkpt><trkpt lat="45.04807" lon="8.3340333"><ele>258.0</ele><time>2026-04-18T16:17:13.37Z</time></trkpt><trkpt lat="45.048055" lon="8.3338167"><ele>258.0</ele><time>2026-04-18T16:17:14.369Z</time></trkpt><trkpt lat="45.0480317" lon="8.333615"><ele>258.0</ele><time>2026-04-18T16:17:15.37Z</time></trkpt><trkpt lat="45.0479917" lon="8.333415"><ele>257.6666666666667</ele><time>2026-04-18T16:17:16.37Z</time></trkpt><trkpt lat="45.04798" lon="8.3332067"><ele>257.33333333333337</ele><time>2026-04-18T16:17:17.37Z</time></trkpt><trkpt lat="45.0479633" lon="8.332985"><ele>257.0</ele><time>2026-04-18T16:17:18.37Z</time></trkpt><trkpt lat="45.0479367" lon="8.3327533"><ele>256.33333333333337</ele><time>2026-04-18T16:17:19.369Z</time></trkpt><trkpt lat="45.0479133" lon="8.3325283"><ele>255.66666666666669</ele><time>2026-04-18T16:17:20.369Z</time></trkpt><trkpt lat="45.0478933" lon="8.3323"><ele>255.0</ele><time>2026-04-18T16:17:21.37Z</time></trkpt><trkpt lat="45.04789" lon="8.33207"><ele>255.0</ele><time>2026-04-18T16:17:22.37Z</time></trkpt><trkpt lat="45.0478767" lon="8.3318517"><ele>255.0</ele><time>2026-04-18T16:17:23.37Z</time></trkpt><trkpt lat="45.0478483" lon="8.33162"><ele>255.0</ele><time>2026-04-18T16:17:24.37Z</time></trkpt><trkpt lat="45.0478217" lon="8.3313867"><ele>255.0</ele><time>2026-04-18T16:17:25.369Z</time></trkpt><trkpt lat="45.0478083" lon="8.331155"><ele>255.0</ele><time>2026-04-18T16:17:26.37Z</time></trkpt><trkpt lat="45.0477933" lon="8.3309167"><ele>255.0</ele><time>2026-04-18T16:17:27.369Z</time></trkpt><trkpt lat="45.047775" lon="8.3306767"><ele>256.3333333333333</ele><time>2026-04-18T16:17:28.37Z</time></trkpt><trkpt lat="45.0477433" lon="8.3304317"><ele>257.66666666666663</ele><time>2026-04-18T16:17:29.37Z</time></trkpt><trkpt lat="45.0477133" lon="8.3301817"><ele>259.0</ele><time>2026-04-18T16:17:30.369Z</time></trkpt><trkpt lat="45.0476733" lon="8.3299417"><ele>260.66666666666663</ele><time>2026-04-18T16:17:31.37Z</time></trkpt><trkpt lat="45.0476033" lon="8.329715"><ele>262.3333333333333</ele><time>2026-04-18T16:17:32.37Z</time></trkpt><trkpt lat="45.047505" lon="8.3295083"><ele>264.0</ele><time>2026-04-18T16:17:33.37Z</time></trkpt><trkpt lat="45.0473917" lon="8.3292967"><ele>262.3333333333333</ele><time>2026-04-18T16:17:34.37Z</time></trkpt><trkpt lat="45.0472717" lon="8.3290983"><ele>260.66666666666663</ele><time>2026-04-18T16:17:35.37Z</time></trkpt><trkpt lat="45.04716" lon="8.32891"><ele>259.0</ele><time>2026-04-18T16:17:36.37Z</time></trkpt><trkpt lat="45.0470567" lon="8.3287267"><ele>259.0</ele><time>2026-04-18T16:17:37.37Z</time></trkpt><trkpt lat="45.0469617" lon="8.32855"><ele>259.0</ele><time>2026-04-18T16:17:38.369Z</time></trkpt><trkpt lat="45.0468633" lon="8.32837"><ele>259.0</ele><time>2026-04-18T16:17:39.37Z</time></trkpt><trkpt lat="45.0467617" lon="8.3281917"><ele>260.66666666666663</ele><time>2026-04-18T16:17:40.37Z</time></trkpt><trkpt lat="45.0466783" lon="8.3280167"><ele>262.3333333333333</ele><time>2026-04-18T16:17:41.37Z</time></trkpt><trkpt lat="45.0465833" lon="8.3278367"><ele>264.0</ele><time>2026-04-18T16:17:42.37Z</time></trkpt><trkpt lat="45.0464833" lon="8.327665"><ele>264.0</ele><time>2026-04-18T16:17:43.37Z</time></trkpt><trkpt lat="45.0463817" lon="8.327495"><ele>264.0</ele><time>2026-04-18T16:17:44.369Z</time></trkpt><trkpt lat="45.046285" lon="8.3273233"><ele>264.0</ele><time>2026-04-18T16:17:45.37Z</time></trkpt><trkpt lat="45.0461867" lon="8.3271467"><ele>264.5</ele><time>2026-04-18T16:17:46.37Z</time></trkpt><trkpt lat="45.0460883" lon="8.3269833"><ele>265.0</ele><time>2026-04-18T16:17:47.37Z</time></trkpt><trkpt lat="45.046005" lon="8.3268417"><ele>265.5</ele><time>2026-04-18T16:17:48.37Z</time></trkpt><trkpt lat="45.0459217" lon="8.3266917"><ele>266.0</ele><time>2026-04-18T16:17:49.37Z</time></trkpt><trkpt lat="45.0458517" lon="8.3265383"><ele>265.25</ele><time>2026-04-18T16:17:50.369Z</time></trkpt><trkpt lat="45.0457967" lon="8.3263633"><ele>264.5</ele><time>2026-04-18T16:17:51.37Z</time></trkpt><trkpt lat="45.045775" lon="8.3261783"><ele>263.75</ele><time>2026-04-18T16:17:52.369Z</time></trkpt><trkpt lat="45.045785" lon="8.3259767"><ele>263.0</ele><time>2026-04-18T16:17:53.37Z</time></trkpt><trkpt lat="45.0458383" lon="8.325775"><ele>263.0</ele><time>2026-04-18T16:17:54.369Z</time></trkpt><trkpt lat="45.0459167" lon="8.325605"><ele>263.0</ele><time>2026-04-18T16:17:55.37Z</time></trkpt><trkpt lat="45.04601" lon="8.3254633"><ele>263.0</ele><time>2026-04-18T16:17:56.37Z</time></trkpt><trkpt lat="45.046105" lon="8.3253433"><ele>263.0</ele><time>2026-04-18T16:17:57.37Z</time></trkpt><trkpt lat="45.0461883" lon="8.3252283"><ele>260.75</ele><time>2026-04-18T16:17:58.37Z</time></trkpt><trkpt lat="45.0462617" lon="8.3250783"><ele>258.5</ele><time>2026-04-18T16:17:59.37Z</time></trkpt><trkpt lat="45.0462983" lon="8.324905"><ele>256.25</ele><time>2026-04-18T16:18:00.369Z</time></trkpt><trkpt lat="45.0462767" lon="8.3247233"><ele>254.0</ele><time>2026-04-18T16:18:01.37Z</time></trkpt><trkpt lat="45.0462417" lon="8.3245417"><ele>252.75</ele><time>2026-04-18T16:18:02.37Z</time></trkpt><trkpt lat="45.0461933" lon="8.324355"><ele>251.5</ele><time>2026-04-18T16:18:03.37Z</time></trkpt><trkpt lat="45.04614" lon="8.3241783"><ele>250.25</ele><time>2026-04-18T16:18:04.37Z</time></trkpt><trkpt lat="45.0460867" lon="8.323995"><ele>249.0</ele><time>2026-04-18T16:18:05.37Z</time></trkpt><trkpt lat="45.0460433" lon="8.323805"><ele>248.5</ele><time>2026-04-18T16:18:06.369Z</time></trkpt><trkpt lat="45.0460033" lon="8.3236217"><ele>248.0</ele><time>2026-04-18T16:18:07.37Z</time></trkpt><trkpt lat="45.045965" lon="8.3234433"><ele>247.5</ele><time>2026-04-18T16:18:08.37Z</time></trkpt><trkpt lat="45.0459417" lon="8.3232617"><ele>247.0</ele><time>2026-04-18T16:18:09.37Z</time></trkpt><trkpt lat="45.04595" lon="8.323085"><ele>246.25</ele><time>2026-04-18T16:18:10.37Z</time></trkpt><trkpt lat="45.04598" lon="8.32291"><ele>245.5</ele><time>2026-04-18T16:18:11.37Z</time></trkpt><trkpt lat="45.046025" lon="8.3227333"><ele>244.75</ele><time>2026-04-18T16:18:12.37Z</time></trkpt><trkpt lat="45.0460967" lon="8.32254"><ele>244.0</ele><time>2026-04-18T16:18:13.37Z</time></trkpt><trkpt lat="45.0461867" lon="8.32236"><ele>242.5</ele><time>2026-04-18T16:18:14.37Z</time></trkpt><trkpt lat="45.0462517" lon="8.3221733"><ele>241.0</ele><time>2026-04-18T16:18:15.369Z</time></trkpt><trkpt lat="45.0463183" lon="8.3219867"><ele>239.5</ele><time>2026-04-18T16:18:16.37Z</time></trkpt><trkpt lat="45.04638" lon="8.3218017"><ele>238.0</ele><time>2026-04-18T16:18:17.37Z</time></trkpt><trkpt lat="45.0464367" lon="8.321625"><ele>238.0</ele><time>2026-04-18T16:18:18.37Z</time></trkpt><trkpt lat="45.046485" lon="8.3214367"><ele>238.0</ele><time>2026-04-18T16:18:19.37Z</time></trkpt><trkpt lat="45.0465167" lon="8.3212383"><ele>238.0</ele><time>2026-04-18T16:18:20.369Z</time></trkpt><trkpt lat="45.0465567" lon="8.3210333"><ele>238.0</ele><time>2026-04-18T16:18:21.37Z</time></trkpt><trkpt lat="45.04658" lon="8.320845"><ele>237.4</ele><time>2026-04-18T16:18:22.369Z</time></trkpt><trkpt lat="45.046595" lon="8.3206617"><ele>236.8</ele><time>2026-04-18T16:18:23.37Z</time></trkpt><trkpt lat="45.046605" lon="8.320505"><ele>236.2</ele><time>2026-04-18T16:18:24.369Z</time></trkpt><trkpt lat="45.0466017" lon="8.3203683"><ele>235.6</ele><time>2026-04-18T16:18:25.369Z</time></trkpt><trkpt lat="45.0465717" lon="8.3202333"><ele>235.0</ele><time>2026-04-18T16:18:26.369Z</time></trkpt><trkpt lat="45.0465017" lon="8.320115"><ele>237.75</ele><time>2026-04-18T16:18:27.37Z</time></trkpt><trkpt lat="45.046405" lon="8.320025"><ele>240.5</ele><time>2026-04-18T16:18:28.37Z</time></trkpt><trkpt lat="45.0463033" lon="8.3199633"><ele>243.25</ele><time>2026-04-18T16:18:29.369Z</time></trkpt><trkpt lat="45.0461833" lon="8.31997"><ele>246.0</ele><time>2026-04-18T16:18:30.37Z</time></trkpt><trkpt lat="45.04606" lon="8.3200367"><ele>246.0</ele><time>2026-04-18T16:18:31.37Z</time></trkpt><trkpt lat="45.0459283" lon="8.320115"><ele>246.0</ele><time>2026-04-18T16:18:32.37Z</time></trkpt><trkpt lat="45.0457967" lon="8.3201917"><ele>246.0</ele><time>2026-04-18T16:18:33.37Z</time></trkpt><trkpt lat="45.0456517" lon="8.3202467"><ele>246.0</ele><time>2026-04-18T16:18:34.37Z</time></trkpt><trkpt lat="45.0455067" lon="8.3202717"><ele>246.33333333333331</ele><time>2026-04-18T16:18:35.37Z</time></trkpt><trkpt lat="45.04536" lon="8.3203033"><ele>246.66666666666666</ele><time>2026-04-18T16:18:36.37Z</time></trkpt><trkpt lat="45.045205" lon="8.320315"><ele>247.0</ele><time>2026-04-18T16:18:37.369Z</time></trkpt><trkpt lat="45.0450467" lon="8.3203267"><ele>247.0</ele><time>2026-04-18T16:18:38.369Z</time></trkpt><trkpt lat="45.0449033" lon="8.3203183"><ele>247.0</ele><time>2026-04-18T16:18:39.369Z</time></trkpt><trkpt lat="45.04476" lon="8.32027"><ele>247.0</ele><time>2026-04-18T16:18:40.37Z</time></trkpt><trkpt lat="45.0446217" lon="8.3201767"><ele>247.0</ele><time>2026-04-18T16:18:41.37Z</time></trkpt><trkpt lat="45.0444967" lon="8.320065"><ele>247.0</ele><time>2026-04-18T16:18:42.37Z</time></trkpt><trkpt lat="45.04439" lon="8.3199433"><ele>247.0</ele><time>2026-04-18T16:18:43.37Z</time></trkpt><trkpt lat="45.0442933" lon="8.31981"><ele>247.0</ele><time>2026-04-18T16:18:44.37Z</time></trkpt><trkpt lat="45.044235" lon="8.319675"><ele>247.0</ele><time>2026-04-18T16:18:45.369Z</time></trkpt><trkpt lat="45.044225" lon="8.3195"><ele>246.75</ele><time>2026-04-18T16:18:46.37Z</time></trkpt><trkpt lat="45.04424" lon="8.319315"><ele>246.5</ele><time>2026-04-18T16:18:47.37Z</time></trkpt><trkpt lat="45.044275" lon="8.31913"><ele>246.25</ele><time>2026-04-18T16:18:48.37Z</time></trkpt><trkpt lat="45.0443233" lon="8.3189367"><ele>246.0</ele><time>2026-04-18T16:18:49.37Z</time></trkpt><trkpt lat="45.0443717" lon="8.31873"><ele>244.33333333333331</ele><time>2026-04-18T16:18:50.369Z</time></trkpt><trkpt lat="45.04441" lon="8.3185067"><ele>242.66666666666666</ele><time>2026-04-18T16:18:51.369Z</time></trkpt><trkpt lat="45.0444533" lon="8.3182983"><ele>241.0</ele><time>2026-04-18T16:18:52.37Z</time></trkpt><trkpt lat="45.044505" lon="8.3180817"><ele>239.33333333333331</ele><time>2026-04-18T16:18:53.37Z</time></trkpt><trkpt lat="45.044555" lon="8.31787"><ele>237.66666666666669</ele><time>2026-04-18T16:18:54.37Z</time></trkpt><trkpt lat="45.0446083" lon="8.3176583"><ele>236.0</ele><time>2026-04-18T16:18:55.369Z</time></trkpt><trkpt lat="45.0446617" lon="8.3174567"><ele>236.0</ele><time>2026-04-18T16:18:56.37Z</time></trkpt><trkpt lat="45.0447083" lon="8.317255"><ele>236.0</ele><time>2026-04-18T16:18:57.369Z</time></trkpt><trkpt lat="45.04476" lon="8.31705"><ele>236.0</ele><time>2026-04-18T16:18:58.37Z</time></trkpt><trkpt lat="45.044815" lon="8.3168417"><ele>235.33333333333334</ele><time>2026-04-18T16:18:59.37Z</time></trkpt><trkpt lat="45.0448567" lon="8.3166267"><ele>234.66666666666669</ele><time>2026-04-18T16:19:00.37Z</time></trkpt><trkpt lat="45.04491" lon="8.316415"><ele>234.0</ele><time>2026-04-18T16:19:01.37Z</time></trkpt><trkpt lat="45.044965" lon="8.3161883"><ele>234.0</ele><time>2026-04-18T16:19:02.369Z</time></trkpt><trkpt lat="45.0450133" lon="8.31596"><ele>234.0</ele><time>2026-04-18T16:19:03.37Z</time></trkpt><trkpt lat="45.04507" lon="8.315745"><ele>234.0</ele><time>2026-04-18T16:19:04.369Z</time></trkpt><trkpt lat="45.0451133" lon="8.31553"><ele>233.5</ele><time>2026-04-18T16:19:05.37Z</time></trkpt><trkpt lat="45.04516" lon="8.315315"><ele>233.0</ele><time>2026-04-18T16:19:06.37Z</time></trkpt><trkpt lat="45.0452167" lon="8.31512"><ele>232.5</ele><time>2026-04-18T16:19:07.37Z</time></trkpt><trkpt lat="45.04526" lon="8.3149367"><ele>232.0</ele><time>2026-04-18T16:19:08.37Z</time></trkpt><trkpt lat="45.0452783" lon="8.31474"><ele>231.75</ele><time>2026-04-18T16:19:09.37Z</time></trkpt><trkpt lat="45.0452767" lon="8.31454"><ele>231.5</ele><time>2026-04-18T16:19:10.37Z</time></trkpt><trkpt lat="45.0452567" lon="8.3143517"><ele>231.25</ele><time>2026-04-18T16:19:11.37Z</time></trkpt><trkpt lat="45.0452117" lon="8.3141633"><ele>231.0</ele><time>2026-04-18T16:19:12.37Z</time></trkpt><trkpt lat="45.045145" lon="8.3139883"><ele>231.25</ele><time>2026-04-18T16:19:13.37Z</time></trkpt><trkpt lat="45.045085" lon="8.3138183"><ele>231.5</ele><time>2026-04-18T16:19:14.37Z</time></trkpt><trkpt lat="45.045025" lon="8.3136567"><ele>231.75</ele><time>2026-04-18T16:19:15.369Z</time></trkpt><trkpt lat="45.044955" lon="8.3135217"><ele>232.0</ele><time>2026-04-18T16:19:16.37Z</time></trkpt><trkpt lat="45.04488" lon="8.3133967"><ele>234.0</ele><time>2026-04-18T16:19:17.369Z</time></trkpt><trkpt lat="45.0447917" lon="8.31331"><ele>236.0</ele><time>2026-04-18T16:19:18.369Z</time></trkpt><trkpt lat="45.0446867" lon="8.3132667"><ele>238.0</ele><time>2026-04-18T16:19:19.369Z</time></trkpt><trkpt lat="45.0445717" lon="8.3132767"><ele>240.0</ele><time>2026-04-18T16:19:20.37Z</time></trkpt><trkpt lat="45.0444567" lon="8.3133217"><ele>240.0</ele><time>2026-04-18T16:19:21.37Z</time></trkpt><trkpt lat="45.0443467" lon="8.3133733"><ele>240.0</ele><time>2026-04-18T16:19:22.37Z</time></trkpt><trkpt lat="45.0442633" lon="8.3134183"><ele>240.0</ele><time>2026-04-18T16:19:23.37Z</time></trkpt><trkpt lat="45.0441967" lon="8.31347"><ele>240.0</ele><time>2026-04-18T16:19:24.37Z</time></trkpt><trkpt lat="45.0441267" lon="8.3134933"><ele>240.0</ele><time>2026-04-18T16:19:25.37Z</time></trkpt><trkpt lat="45.044055" lon="8.31347"><ele>240.0</ele><time>2026-04-18T16:19:26.37Z</time></trkpt><trkpt lat="45.0440033" lon="8.3134067"><ele>242.0</ele><time>2026-04-18T16:19:27.37Z</time></trkpt><trkpt lat="45.0439667" lon="8.31331"><ele>244.0</ele><time>2026-04-18T16:19:28.37Z</time></trkpt><trkpt lat="45.0439683" lon="8.3131817"><ele>246.0</ele><time>2026-04-18T16:19:29.37Z</time></trkpt><trkpt lat="45.0439883" lon="8.3130333"><ele>248.0</ele><time>2026-04-18T16:19:30.369Z</time></trkpt><trkpt lat="45.0440433" lon="8.3128783"><ele>250.0</ele><time>2026-04-18T16:19:31.37Z</time></trkpt><trkpt lat="45.044125" lon="8.3127417"><ele>249.5</ele><time>2026-04-18T16:19:32.37Z</time></trkpt><trkpt lat="45.0442217" lon="8.3126067"><ele>249.0</ele><time>2026-04-18T16:19:33.37Z</time></trkpt><trkpt lat="45.0443083" lon="8.3124667"><ele>248.5</ele><time>2026-04-18T16:19:34.37Z</time></trkpt><trkpt lat="45.04438" lon="8.3123217"><ele>248.0</ele><time>2026-04-18T16:19:35.37Z</time></trkpt><trkpt lat="45.04444" lon="8.3121767"><ele>250.25</ele><time>2026-04-18T16:19:36.37Z</time></trkpt><trkpt lat="45.0444867" lon="8.312015"><ele>252.5</ele><time>2026-04-18T16:19:37.37Z</time></trkpt><trkpt lat="45.0445233" lon="8.3118517"><ele>254.75</ele><time>2026-04-18T16:19:38.37Z</time></trkpt><trkpt lat="45.0445667" lon="8.3116933"><ele>257.0</ele><time>2026-04-18T16:19:39.369Z</time></trkpt><trkpt lat="45.044615" lon="8.3115217"><ele>259.5</ele><time>2026-04-18T16:19:40.37Z</time></trkpt><trkpt lat="45.0446583" lon="8.311335"><ele>262.0</ele><time>2026-04-18T16:19:41.369Z</time></trkpt><trkpt lat="45.0447067" lon="8.31115"><ele>264.5</ele><time>2026-04-18T16:19:42.37Z</time></trkpt><trkpt lat="45.0447633" lon="8.310975"><ele>267.0</ele><time>2026-04-18T16:19:43.37Z</time></trkpt><trkpt lat="45.04482" lon="8.31079"><ele>267.0</ele><time>2026-04-18T16:19:44.369Z</time></trkpt><trkpt lat="45.0448767" lon="8.3105983"><ele>267.0</ele><time>2026-04-18T16:19:45.37Z</time></trkpt><trkpt lat="45.0449367" lon="8.3104117"><ele>267.0</ele><time>2026-04-18T16:19:46.37Z</time></trkpt><trkpt lat="45.0450083" lon="8.310225"><ele>267.0</ele><time>2026-04-18T16:19:47.37Z</time></trkpt><trkpt lat="45.0450683" lon="8.3100467"><ele>267.75</ele><time>2026-04-18T16:19:48.37Z</time></trkpt><trkpt lat="45.04513" lon="8.30986"><ele>268.5</ele><time>2026-04-18T16:19:49.37Z</time></trkpt><trkpt lat="45.0451867" lon="8.3096667"><ele>269.25</ele><time>2026-04-18T16:19:50.37Z</time></trkpt><trkpt lat="45.0452567" lon="8.3094833"><ele>270.0</ele><time>2026-04-18T16:19:51.37Z</time></trkpt><trkpt lat="45.0453183" lon="8.3092983"><ele>270.0</ele><time>2026-04-18T16:19:52.37Z</time></trkpt><trkpt lat="45.0453767" lon="8.3091117"><ele>270.0</ele><time>2026-04-18T16:19:53.37Z</time></trkpt><trkpt lat="45.045435" lon="8.30892"><ele>270.0</ele><time>2026-04-18T16:19:54.37Z</time></trkpt><trkpt lat="45.04548" lon="8.308725"><ele>270.0</ele><time>2026-04-18T16:19:55.37Z</time></trkpt><trkpt lat="45.04551" lon="8.30854"><ele>271.2</ele><time>2026-04-18T16:19:56.369Z</time></trkpt><trkpt lat="45.04551" lon="8.308365"><ele>272.4</ele><time>2026-04-18T16:19:57.37Z</time></trkpt><trkpt lat="45.0454867" lon="8.3082333"><ele>273.6</ele><time>2026-04-18T16:19:58.37Z</time></trkpt><trkpt lat="45.0454683" lon="8.308135"><ele>274.8</ele><time>2026-04-18T16:19:59.37Z</time></trkpt><trkpt lat="45.0454283" lon="8.3079633"><ele>276.0</ele><time>2026-04-18T16:20:01.37Z</time></trkpt><trkpt lat="45.0454117" lon="8.30785"><ele>277.2</ele><time>2026-04-18T16:20:02.37Z</time></trkpt><trkpt lat="45.045405" lon="8.3077267"><ele>278.40000000000003</ele><time>2026-04-18T16:20:03.369Z</time></trkpt><trkpt lat="45.04542" lon="8.3075733"><ele>279.6</ele><time>2026-04-18T16:20:04.37Z</time></trkpt><trkpt lat="45.0454433" lon="8.307405"><ele>280.8</ele><time>2026-04-18T16:20:05.37Z</time></trkpt><trkpt lat="45.0454667" lon="8.3072283"><ele>282.0</ele><time>2026-04-18T16:20:06.37Z</time></trkpt><trkpt lat="45.0455" lon="8.307045"><ele>282.25</ele><time>2026-04-18T16:20:07.369Z</time></trkpt><trkpt lat="45.0455367" lon="8.3068617"><ele>282.5</ele><time>2026-04-18T16:20:08.37Z</time></trkpt><trkpt lat="45.0455783" lon="8.30665"><ele>282.75</ele><time>2026-04-18T16:20:09.37Z</time></trkpt><trkpt lat="45.0456183" lon="8.306445"><ele>283.0</ele><time>2026-04-18T16:20:10.37Z</time></trkpt><trkpt lat="45.0456467" lon="8.3062583"><ele>283.0</ele><time>2026-04-18T16:20:11.37Z</time></trkpt><trkpt lat="45.0456933" lon="8.306065"><ele>283.0</ele><time>2026-04-18T16:20:12.37Z</time></trkpt><trkpt lat="45.045745" lon="8.3058667"><ele>283.0</ele><time>2026-04-18T16:20:13.37Z</time></trkpt><trkpt lat="45.0458217" lon="8.3056817"><ele>283.0</ele><time>2026-04-18T16:20:14.37Z</time></trkpt><trkpt lat="45.0458933" lon="8.30548"><ele>279.66666666666663</ele><time>2026-04-18T16:20:15.369Z</time></trkpt><trkpt lat="45.0459717" lon="8.3052783"><ele>276.3333333333333</ele><time>2026-04-18T16:20:16.369Z</time></trkpt><trkpt lat="45.0460583" lon="8.3050833"><ele>273.0</ele><time>2026-04-18T16:20:17.37Z</time></trkpt><trkpt lat="45.046155" lon="8.304885"><ele>271.0</ele><time>2026-04-18T16:20:18.369Z</time></trkpt><trkpt lat="45.0462433" lon="8.3046833"><ele>269.0</ele><time>2026-04-18T16:20:19.37Z</time></trkpt><trkpt lat="45.046335" lon="8.304495"><ele>267.0</ele><time>2026-04-18T16:20:20.37Z</time></trkpt><trkpt lat="45.0464117" lon="8.3043067"><ele>267.0</ele><time>2026-04-18T16:20:21.37Z</time></trkpt><trkpt lat="45.0464883" lon="8.304105"><ele>267.0</ele><time>2026-04-18T16:20:22.37Z</time></trkpt><trkpt lat="45.0465633" lon="8.30392"><ele>267.0</ele><time>2026-04-18T16:20:23.37Z</time></trkpt><trkpt lat="45.04664" lon="8.3037367"><ele>265.3333333333333</ele><time>2026-04-18T16:20:24.37Z</time></trkpt><trkpt lat="45.0467283" lon="8.3035567"><ele>263.66666666666663</ele><time>2026-04-18T16:20:25.37Z</time></trkpt><trkpt lat="45.0468083" lon="8.3033633"><ele>262.0</ele><time>2026-04-18T16:20:26.37Z</time></trkpt><trkpt lat="45.0468833" lon="8.3031717"><ele>260.66666666666663</ele><time>2026-04-18T16:20:27.37Z</time></trkpt><trkpt lat="45.046945" lon="8.302975"><ele>259.3333333333333</ele><time>2026-04-18T16:20:28.369Z</time></trkpt><trkpt lat="45.0470017" lon="8.30276"><ele>258.0</ele><time>2026-04-18T16:20:29.37Z</time></trkpt><trkpt lat="45.0470367" lon="8.3025483"><ele>258.0</ele><time>2026-04-18T16:20:30.37Z</time></trkpt><trkpt lat="45.04709" lon="8.30235"><ele>258.0</ele><time>2026-04-18T16:20:31.369Z</time></trkpt><trkpt lat="45.0471317" lon="8.30213"><ele>258.0</ele><time>2026-04-18T16:20:32.37Z</time></trkpt><trkpt lat="45.0471733" lon="8.3019267"><ele>258.0</ele><time>2026-04-18T16:20:33.37Z</time></trkpt><trkpt lat="45.0472033" lon="8.301715"><ele>258.0</ele><time>2026-04-18T16:20:34.37Z</time></trkpt><trkpt lat="45.04724" lon="8.30152"><ele>258.0</ele><time>2026-04-18T16:20:35.37Z</time></trkpt><trkpt lat="45.0472667" lon="8.3013267"><ele>258.0</ele><time>2026-04-18T16:20:36.37Z</time></trkpt><trkpt lat="45.0473033" lon="8.3011267"><ele>258.0</ele><time>2026-04-18T16:20:37.37Z</time></trkpt><trkpt lat="45.0473383" lon="8.3009283"><ele>258.0</ele><time>2026-04-18T16:20:38.369Z</time></trkpt><trkpt lat="45.04738" lon="8.300725"><ele>258.0</ele><time>2026-04-18T16:20:39.37Z</time></trkpt><trkpt lat="45.0474267" lon="8.30052"><ele>258.0</ele><time>2026-04-18T16:20:40.37Z</time></trkpt><trkpt lat="45.047485" lon="8.3003283"><ele>257.6666666666667</ele><time>2026-04-18T16:20:41.37Z</time></trkpt><trkpt lat="45.0475383" lon="8.3001317"><ele>257.33333333333337</ele><time>2026-04-18T16:20:42.369Z</time></trkpt><trkpt lat="45.047595" lon="8.2999283"><ele>257.0</ele><time>2026-04-18T16:20:43.37Z</time></trkpt><trkpt lat="45.0476467" lon="8.299725"><ele>257.75</ele><time>2026-04-18T16:20:44.37Z</time></trkpt><trkpt lat="45.0476883" lon="8.2995283"><ele>258.5</ele><time>2026-04-18T16:20:45.37Z</time></trkpt><trkpt lat="45.0477367" lon="8.29934"><ele>259.25</ele><time>2026-04-18T16:20:46.37Z</time></trkpt><trkpt lat="45.0477767" lon="8.2991683"><ele>260.0</ele><time>2026-04-18T16:20:47.37Z</time></trkpt><trkpt lat="45.047805" lon="8.2990133"><ele>259.75</ele><time>2026-04-18T16:20:48.37Z</time></trkpt><trkpt lat="45.0478167" lon="8.29884"><ele>259.5</ele><time>2026-04-18T16:20:49.37Z</time></trkpt><trkpt lat="45.0478067" lon="8.29866"><ele>259.25</ele><time>2026-04-18T16:20:50.369Z</time></trkpt><trkpt lat="45.04778" lon="8.29848"><ele>259.0</ele><time>2026-04-18T16:20:51.37Z</time></trkpt><trkpt lat="45.0477383" lon="8.2982883"><ele>259.0</ele><time>2026-04-18T16:20:52.37Z</time></trkpt><trkpt lat="45.0476933" lon="8.2980917"><ele>259.0</ele><time>2026-04-18T16:20:53.37Z</time></trkpt><trkpt lat="45.0476467" lon="8.2979033"><ele>259.0</ele><time>2026-04-18T16:20:54.369Z</time></trkpt><trkpt lat="45.0475983" lon="8.2977133"><ele>259.0</ele><time>2026-04-18T16:20:55.37Z</time></trkpt><trkpt lat="45.0475483" lon="8.2975183"><ele>258.66666666666663</ele><time>2026-04-18T16:20:56.369Z</time></trkpt><trkpt lat="45.0475017" lon="8.2973133"><ele>258.3333333333333</ele><time>2026-04-18T16:20:57.369Z</time></trkpt><trkpt lat="45.0474583" lon="8.2970967"><ele>258.0</ele><time>2026-04-18T16:20:58.369Z</time></trkpt><trkpt lat="45.0474267" lon="8.2968833"><ele>258.0</ele><time>2026-04-18T16:20:59.37Z</time></trkpt><trkpt lat="45.0474133" lon="8.2966817"><ele>258.0</ele><time>2026-04-18T16:21:00.37Z</time></trkpt><trkpt lat="45.0474033" lon="8.29649"><ele>258.0</ele><time>2026-04-18T16:21:01.37Z</time></trkpt><trkpt lat="45.047395" lon="8.296315"><ele>258.0</ele><time>2026-04-18T16:21:02.37Z</time></trkpt><trkpt lat="45.0473783" lon="8.29614"><ele>257.75</ele><time>2026-04-18T16:21:03.369Z</time></trkpt><trkpt lat="45.04736" lon="8.29596"><ele>257.5</ele><time>2026-04-18T16:21:04.369Z</time></trkpt><trkpt lat="45.0473417" lon="8.295795"><ele>257.25</ele><time>2026-04-18T16:21:05.37Z</time></trkpt><trkpt lat="45.047335" lon="8.2956233"><ele>257.0</ele><time>2026-04-18T16:21:06.37Z</time></trkpt><trkpt lat="45.0473533" lon="8.2954467"><ele>257.0</ele><time>2026-04-18T16:21:07.37Z</time></trkpt><trkpt lat="45.047395" lon="8.2952883"><ele>257.0</ele><time>2026-04-18T16:21:08.37Z</time></trkpt><trkpt lat="45.04746" lon="8.2951417"><ele>257.0</ele><time>2026-04-18T16:21:09.37Z</time></trkpt><trkpt lat="45.0475567" lon="8.2950233"><ele>257.0</ele><time>2026-04-18T16:21:10.37Z</time></trkpt><trkpt lat="45.0476717" lon="8.2949433"><ele>253.0</ele><time>2026-04-18T16:21:11.37Z</time></trkpt><trkpt lat="45.0478033" lon="8.29492"><ele>249.0</ele><time>2026-04-18T16:21:12.37Z</time></trkpt><trkpt lat="45.047945" lon="8.2949683"><ele>245.0</ele><time>2026-04-18T16:21:13.37Z</time></trkpt><trkpt lat="45.0480633" lon="8.2950733"><ele>241.0</ele><time>2026-04-18T16:21:14.369Z</time></trkpt><trkpt lat="45.04815" lon="8.2952367"><ele>241.0</ele><time>2026-04-18T16:21:15.37Z</time></trkpt><trkpt lat="45.048205" lon="8.295405"><ele>241.0</ele><time>2026-04-18T16:21:16.37Z</time></trkpt><trkpt lat="45.04823" lon="8.295595"><ele>241.0</ele><time>2026-04-18T16:21:17.369Z</time></trkpt><trkpt lat="45.0482483" lon="8.29576"><ele>241.0</ele><time>2026-04-18T16:21:18.37Z</time></trkpt><trkpt lat="45.048275" lon="8.295935"><ele>238.75</ele><time>2026-04-18T16:21:19.37Z</time></trkpt><trkpt lat="45.0483233" lon="8.2960867"><ele>236.5</ele><time>2026-04-18T16:21:20.37Z</time></trkpt><trkpt lat="45.0484017" lon="8.2962317"><ele>234.25</ele><time>2026-04-18T16:21:21.37Z</time></trkpt><trkpt lat="45.0485" lon="8.2963383"><ele>232.0</ele><time>2026-04-18T16:21:22.37Z</time></trkpt><trkpt lat="45.04861" lon="8.2964083"><ele>232.0</ele><time>2026-04-18T16:21:23.369Z</time></trkpt><trkpt lat="45.0487417" lon="8.2964333"><ele>232.0</ele><time>2026-04-18T16:21:24.37Z</time></trkpt><trkpt lat="45.04888" lon="8.2964217"><ele>232.0</ele><time>2026-04-18T16:21:25.37Z</time></trkpt><trkpt lat="45.049025" lon="8.296405"><ele>232.0</ele><time>2026-04-18T16:21:26.37Z</time></trkpt><trkpt lat="45.0491717" lon="8.2963867"><ele>231.0</ele><time>2026-04-18T16:21:27.369Z</time></trkpt><trkpt lat="45.0493233" lon="8.2963733"><ele>230.0</ele><time>2026-04-18T16:21:28.37Z</time></trkpt><trkpt lat="45.0494833" lon="8.2963733"><ele>229.0</ele><time>2026-04-18T16:21:29.37Z</time></trkpt><trkpt lat="45.04964" lon="8.2963717"><ele>229.0</ele><time>2026-04-18T16:21:30.37Z</time></trkpt><trkpt lat="45.0498" lon="8.29636"><ele>229.0</ele><time>2026-04-18T16:21:31.37Z</time></trkpt><trkpt lat="45.0499533" lon="8.296345"><ele>229.0</ele><time>2026-04-18T16:21:32.369Z</time></trkpt><trkpt lat="45.0501017" lon="8.2963167"><ele>227.75</ele><time>2026-04-18T16:21:33.37Z</time></trkpt><trkpt lat="45.0502483" lon="8.2962783"><ele>226.5</ele><time>2026-04-18T16:21:34.369Z</time></trkpt><trkpt lat="45.050385" lon="8.296205"><ele>225.25</ele><time>2026-04-18T16:21:35.37Z</time></trkpt><trkpt lat="45.0505083" lon="8.296105"><ele>224.0</ele><time>2026-04-18T16:21:36.37Z</time></trkpt><trkpt lat="45.05064" lon="8.2959933"><ele>224.0</ele><time>2026-04-18T16:21:37.37Z</time></trkpt><trkpt lat="45.0507617" lon="8.2958917"><ele>224.0</ele><time>2026-04-18T16:21:38.37Z</time></trkpt><trkpt lat="45.0508933" lon="8.2958083"><ele>224.0</ele><time>2026-04-18T16:21:39.369Z</time></trkpt><trkpt lat="45.051035" lon="8.295735"><ele>224.0</ele><time>2026-04-18T16:21:40.37Z</time></trkpt><trkpt lat="45.0511717" lon="8.29566"><ele>223.0</ele><time>2026-04-18T16:21:41.37Z</time></trkpt><trkpt lat="45.0513033" lon="8.295575"><ele>222.0</ele><time>2026-04-18T16:21:42.37Z</time></trkpt><trkpt lat="45.0514367" lon="8.295495"><ele>221.0</ele><time>2026-04-18T16:21:43.37Z</time></trkpt><trkpt lat="45.0515817" lon="8.295405"><ele>220.0</ele><time>2026-04-18T16:21:44.37Z</time></trkpt><trkpt lat="45.0517283" lon="8.2953033"><ele>219.75</ele><time>2026-04-18T16:21:45.369Z</time></trkpt><trkpt lat="45.0518717" lon="8.2952233"><ele>219.5</ele><time>2026-04-18T16:21:46.37Z</time></trkpt><trkpt lat="45.0520017" lon="8.29514"><ele>219.25</ele><time>2026-04-18T16:21:47.37Z</time></trkpt><trkpt lat="45.05213" lon="8.2950733"><ele>219.0</ele><time>2026-04-18T16:21:48.37Z</time></trkpt><trkpt lat="45.0522567" lon="8.294995"><ele>216.0</ele><time>2026-04-18T16:21:49.37Z</time></trkpt><trkpt lat="45.0527317" lon="8.2945"><ele>216.0</ele><time>2026-04-18T16:21:53.37Z</time></trkpt><trkpt lat="45.0528283" lon="8.294325"><ele>216.0</ele><time>2026-04-18T16:21:54.37Z</time></trkpt><trkpt lat="45.05292" lon="8.2941433"><ele>216.0</ele><time>2026-04-18T16:21:55.37Z</time></trkpt><trkpt lat="45.053005" lon="8.2939683"><ele>218.0</ele><time>2026-04-18T16:21:56.369Z</time></trkpt><trkpt lat="45.0530833" lon="8.2937833"><ele>220.0</ele><time>2026-04-18T16:21:57.37Z</time></trkpt><trkpt lat="45.0531667" lon="8.2935983"><ele>222.0</ele><time>2026-04-18T16:21:58.37Z</time></trkpt><trkpt lat="45.0532517" lon="8.2934267"><ele>220.5</ele><time>2026-04-18T16:21:59.37Z</time></trkpt><trkpt lat="45.0533317" lon="8.2932467"><ele>219.0</ele><time>2026-04-18T16:22:00.369Z</time></trkpt><trkpt lat="45.0534" lon="8.293065"><ele>217.5</ele><time>2026-04-18T16:22:01.37Z</time></trkpt><trkpt lat="45.0534767" lon="8.2928933"><ele>216.0</ele><time>2026-04-18T16:22:02.369Z</time></trkpt><trkpt lat="45.0535233" lon="8.292695"><ele>214.5</ele><time>2026-04-18T16:22:03.37Z</time></trkpt><trkpt lat="45.0535617" lon="8.29249"><ele>213.0</ele><time>2026-04-18T16:22:04.37Z</time></trkpt><trkpt lat="45.053575" lon="8.2922833"><ele>211.5</ele><time>2026-04-18T16:22:05.369Z</time></trkpt><trkpt lat="45.0535783" lon="8.29207"><ele>210.0</ele><time>2026-04-18T16:22:06.37Z</time></trkpt><trkpt lat="45.0535817" lon="8.2918717"><ele>209.66666666666669</ele><time>2026-04-18T16:22:07.37Z</time></trkpt><trkpt lat="45.0535867" lon="8.29166"><ele>209.33333333333334</ele><time>2026-04-18T16:22:08.37Z</time></trkpt><trkpt lat="45.0535583" lon="8.291425"><ele>209.0</ele><time>2026-04-18T16:22:09.37Z</time></trkpt><trkpt lat="45.053535" lon="8.2912017"><ele>208.75</ele><time>2026-04-18T16:22:10.369Z</time></trkpt><trkpt lat="45.0535267" lon="8.2909917"><ele>208.5</ele><time>2026-04-18T16:22:11.369Z</time></trkpt><trkpt lat="45.05352" lon="8.2907933"><ele>208.25</ele><time>2026-04-18T16:22:12.37Z</time></trkpt><trkpt lat="45.0535117" lon="8.2905883"><ele>208.0</ele><time>2026-04-18T16:22:13.37Z</time></trkpt><trkpt lat="45.0535067" lon="8.29039"><ele>207.5</ele><time>2026-04-18T16:22:14.37Z</time></trkpt><trkpt lat="45.0535" lon="8.290175"><ele>207.0</ele><time>2026-04-18T16:22:15.37Z</time></trkpt><trkpt lat="45.0534883" lon="8.2899683"><ele>206.5</ele><time>2026-04-18T16:22:16.37Z</time></trkpt><trkpt lat="45.0534867" lon="8.2897667"><ele>206.0</ele><time>2026-04-18T16:22:17.369Z</time></trkpt><trkpt lat="45.0534833" lon="8.2895517"><ele>204.66666666666669</ele><time>2026-04-18T16:22:18.37Z</time></trkpt><trkpt lat="45.0534717" lon="8.2893317"><ele>203.33333333333331</ele><time>2026-04-18T16:22:19.37Z</time></trkpt><trkpt lat="45.0534567" lon="8.289105"><ele>202.0</ele><time>2026-04-18T16:22:20.37Z</time></trkpt><trkpt lat="45.0534583" lon="8.2889017"><ele>200.75</ele><time>2026-04-18T16:22:21.37Z</time></trkpt><trkpt lat="45.0534533" lon="8.2887167"><ele>199.5</ele><time>2026-04-18T16:22:22.37Z</time></trkpt><trkpt lat="45.0534483" lon="8.288525"><ele>198.25</ele><time>2026-04-18T16:22:23.369Z</time></trkpt><trkpt lat="45.0534517" lon="8.2883217"><ele>197.0</ele><time>2026-04-18T16:22:24.37Z</time></trkpt><trkpt lat="45.053465" lon="8.2881133"><ele>196.5</ele><time>2026-04-18T16:22:25.37Z</time></trkpt><trkpt lat="45.05348" lon="8.2879133"><ele>196.0</ele><time>2026-04-18T16:22:26.369Z</time></trkpt><trkpt lat="45.0535017" lon="8.2877033"><ele>195.5</ele><time>2026-04-18T16:22:27.37Z</time></trkpt><trkpt lat="45.0535217" lon="8.28749"><ele>195.0</ele><time>2026-04-18T16:22:28.37Z</time></trkpt><trkpt lat="45.0535483" lon="8.28728"><ele>194.66666666666669</ele><time>2026-04-18T16:22:29.37Z</time></trkpt><trkpt lat="45.053565" lon="8.28706"><ele>194.33333333333334</ele><time>2026-04-18T16:22:30.37Z</time></trkpt><trkpt lat="45.05358" lon="8.28684"><ele>194.0</ele><time>2026-04-18T16:22:31.37Z</time></trkpt><trkpt lat="45.053595" lon="8.2866183"><ele>193.0</ele><time>2026-04-18T16:22:32.37Z</time></trkpt><trkpt lat="45.0536067" lon="8.2864033"><ele>192.0</ele><time>2026-04-18T16:22:33.37Z</time></trkpt><trkpt lat="45.053625" lon="8.2861767"><ele>191.0</ele><time>2026-04-18T16:22:34.37Z</time></trkpt><trkpt lat="45.0536433" lon="8.28595"><ele>191.0</ele><time>2026-04-18T16:22:35.369Z</time></trkpt><trkpt lat="45.0536617" lon="8.285715"><ele>191.0</ele><time>2026-04-18T16:22:36.369Z</time></trkpt><trkpt lat="45.0536717" lon="8.285495"><ele>191.0</ele><time>2026-04-18T16:22:37.369Z</time></trkpt><trkpt lat="45.0536983" lon="8.2852667"><ele>190.33333333333331</ele><time>2026-04-18T16:22:38.369Z</time></trkpt><trkpt lat="45.0537317" lon="8.2850533"><ele>189.66666666666666</ele><time>2026-04-18T16:22:39.37Z</time></trkpt><trkpt lat="45.0537767" lon="8.2848367"><ele>189.0</ele><time>2026-04-18T16:22:40.369Z</time></trkpt><trkpt lat="45.0538433" lon="8.28463"><ele>189.0</ele><time>2026-04-18T16:22:41.37Z</time></trkpt><trkpt lat="45.0539333" lon="8.28442"><ele>189.0</ele><time>2026-04-18T16:22:42.369Z</time></trkpt><trkpt lat="45.05402" lon="8.2842183"><ele>189.0</ele><time>2026-04-18T16:22:43.37Z</time></trkpt><trkpt lat="45.0541117" lon="8.28403"><ele>190.0</ele><time>2026-04-18T16:22:44.37Z</time></trkpt><trkpt lat="45.0542167" lon="8.2838483"><ele>191.0</ele><time>2026-04-18T16:22:45.37Z</time></trkpt><trkpt lat="45.05432" lon="8.2836617"><ele>192.0</ele><time>2026-04-18T16:22:46.37Z</time></trkpt><trkpt lat="45.05443" lon="8.2834717"><ele>192.0</ele><time>2026-04-18T16:22:47.37Z</time></trkpt><trkpt lat="45.0545333" lon="8.2832833"><ele>192.0</ele><time>2026-04-18T16:22:48.37Z</time></trkpt><trkpt lat="45.05464" lon="8.2831117"><ele>192.0</ele><time>2026-04-18T16:22:49.37Z</time></trkpt><trkpt lat="45.0547433" lon="8.2829333"><ele>191.0</ele><time>2026-04-18T16:22:50.37Z</time></trkpt><trkpt lat="45.0548483" lon="8.2827567"><ele>190.0</ele><time>2026-04-18T16:22:51.37Z</time></trkpt><trkpt lat="45.0549483" lon="8.28258"><ele>189.0</ele><time>2026-04-18T16:22:52.37Z</time></trkpt><trkpt lat="45.0550467" lon="8.2824033"><ele>187.33333333333334</ele><time>2026-04-18T16:22:53.37Z</time></trkpt><trkpt lat="45.05515" lon="8.2822317"><ele>185.66666666666669</ele><time>2026-04-18T16:22:54.37Z</time></trkpt><trkpt lat="45.0552583" lon="8.2820517"><ele>184.0</ele><time>2026-04-18T16:22:55.37Z</time></trkpt><trkpt lat="45.0553533" lon="8.2818767"><ele>184.0</ele><time>2026-04-18T16:22:56.37Z</time></trkpt><trkpt lat="45.0554467" lon="8.2817"><ele>184.0</ele><time>2026-04-18T16:22:57.37Z</time></trkpt><trkpt lat="45.05554" lon="8.2815317"><ele>184.0</ele><time>2026-04-18T16:22:58.37Z</time></trkpt><trkpt lat="45.0556367" lon="8.2813633"><ele>184.0</ele><time>2026-04-18T16:22:59.37Z</time></trkpt><trkpt lat="45.055735" lon="8.2811967"><ele>184.0</ele><time>2026-04-18T16:23:00.369Z</time></trkpt><trkpt lat="45.05583" lon="8.2810333"><ele>184.0</ele><time>2026-04-18T16:23:01.37Z</time></trkpt><trkpt lat="45.0559183" lon="8.2808933"><ele>184.0</ele><time>2026-04-18T16:23:02.37Z</time></trkpt><trkpt lat="45.055985" lon="8.2807833"><ele>183.83333333333334</ele><time>2026-04-18T16:23:03.37Z</time></trkpt><trkpt lat="45.0560283" lon="8.2807"><ele>183.66666666666669</ele><time>2026-04-18T16:23:04.37Z</time></trkpt><trkpt lat="45.056085" lon="8.280605"><ele>183.5</ele><time>2026-04-18T16:23:06.37Z</time></trkpt><trkpt lat="45.05613" lon="8.2805417"><ele>183.33333333333334</ele><time>2026-04-18T16:25:00.37Z</time></trkpt><trkpt lat="45.0561167" lon="8.2804283"><ele>183.16666666666666</ele><time>2026-04-18T16:25:02.37Z</time></trkpt><trkpt lat="45.0561267" lon="8.2803117"><ele>183.0</ele><time>2026-04-18T16:25:04.37Z</time></trkpt><trkpt lat="45.0561217" lon="8.28022"><ele>183.0</ele><time>2026-04-18T16:29:07.368Z</time></trkpt><trkpt lat="45.0560517" lon="8.2802633"><ele>183.0</ele><time>2026-04-18T16:29:11.369Z</time></trkpt><trkpt lat="45.0560133" lon="8.2803483"><ele>183.0</ele><time>2026-04-18T16:29:13.369Z</time></trkpt><trkpt lat="45.05601" lon="8.2804433"><ele>183.0</ele><time>2026-04-18T16:29:15.369Z</time></trkpt><trkpt lat="45.056085" lon="8.2805017"><ele>183.0</ele><time>2026-04-18T16:29:24.368Z</time></trkpt><trkpt lat="45.05617" lon="8.28043"><ele>183.0</ele><time>2026-04-18T16:29:26.369Z</time></trkpt><trkpt lat="45.0562167" lon="8.2803533"><ele>183.0</ele><time>2026-04-18T16:29:27.369Z</time></trkpt><trkpt lat="45.05627" lon="8.2802633"><ele>183.0</ele><time>2026-04-18T16:29:28.368Z</time></trkpt><trkpt lat="45.056325" lon="8.2801617"><ele>183.0</ele><time>2026-04-18T16:29:29.369Z</time></trkpt><trkpt lat="45.0563833" lon="8.2800433"><ele>183.0</ele><time>2026-04-18T16:29:30.368Z</time></trkpt><trkpt lat="45.0564467" lon="8.2799233"><ele>183.0</ele><time>2026-04-18T16:29:31.369Z</time></trkpt><trkpt lat="45.05652" lon="8.2797967"><ele>182.75</ele><time>2026-04-18T16:29:32.369Z</time></trkpt><trkpt lat="45.0565933" lon="8.2796517"><ele>182.5</ele><time>2026-04-18T16:29:33.368Z</time></trkpt><trkpt lat="45.056675" lon="8.2795067"><ele>182.25</ele><time>2026-04-18T16:29:34.369Z</time></trkpt><trkpt lat="45.0567617" lon="8.2793667"><ele>182.0</ele><time>2026-04-18T16:29:35.368Z</time></trkpt><trkpt lat="45.056855" lon="8.2792183"><ele>182.0</ele><time>2026-04-18T16:29:36.368Z</time></trkpt><trkpt lat="45.056935" lon="8.2790583"><ele>182.0</ele><time>2026-04-18T16:29:37.369Z</time></trkpt><trkpt lat="45.05702" lon="8.2789017"><ele>182.0</ele><time>2026-04-18T16:29:38.369Z</time></trkpt><trkpt lat="45.0571" lon="8.2787717"><ele>182.0</ele><time>2026-04-18T16:29:39.369Z</time></trkpt><trkpt lat="45.05717" lon="8.27864"><ele>181.8</ele><time>2026-04-18T16:29:40.368Z</time></trkpt><trkpt lat="45.057245" lon="8.2785167"><ele>181.6</ele><time>2026-04-18T16:29:41.369Z</time></trkpt><trkpt lat="45.057315" lon="8.2784083"><ele>181.4</ele><time>2026-04-18T16:29:42.369Z</time></trkpt><trkpt lat="45.0573767" lon="8.278315"><ele>181.20000000000002</ele><time>2026-04-18T16:29:43.368Z</time></trkpt><trkpt lat="45.0574267" lon="8.2782133"><ele>181.0</ele><time>2026-04-18T16:29:44.368Z</time></trkpt><trkpt lat="45.0574767" lon="8.2781167"><ele>180.83333333333334</ele><time>2026-04-18T16:29:45.368Z</time></trkpt><trkpt lat="45.057525" lon="8.2780283"><ele>180.66666666666669</ele><time>2026-04-18T16:29:46.369Z</time></trkpt><trkpt lat="45.0575733" lon="8.2779417"><ele>180.5</ele><time>2026-04-18T16:29:47.369Z</time></trkpt><trkpt lat="45.0576383" lon="8.2778433"><ele>180.33333333333334</ele><time>2026-04-18T16:29:48.369Z</time></trkpt><trkpt lat="45.0576933" lon="8.2777483"><ele>180.16666666666666</ele><time>2026-04-18T16:29:49.368Z</time></trkpt><trkpt lat="45.0577417" lon="8.2776617"><ele>180.0</ele><time>2026-04-18T16:29:50.368Z</time></trkpt><trkpt lat="45.0577917" lon="8.27758"><ele>180.0</ele><time>2026-04-18T16:29:51.369Z</time></trkpt><trkpt lat="45.05784" lon="8.2775"><ele>180.0</ele><time>2026-04-18T16:29:52.369Z</time></trkpt><trkpt lat="45.05788" lon="8.2774267"><ele>180.0</ele><time>2026-04-18T16:29:53.368Z</time></trkpt><trkpt lat="45.05792" lon="8.2773533"><ele>180.0</ele><time>2026-04-18T16:29:54.368Z</time></trkpt><trkpt lat="45.0579667" lon="8.277265"><ele>180.0</ele><time>2026-04-18T16:29:55.369Z</time></trkpt><trkpt lat="45.0580133" lon="8.2771733"><ele>180.0</ele><time>2026-04-18T16:29:56.369Z</time></trkpt><trkpt lat="45.0580567" lon="8.2770767"><ele>180.0</ele><time>2026-04-18T16:29:57.368Z</time></trkpt><trkpt lat="45.0581033" lon="8.2769983"><ele>180.0</ele><time>2026-04-18T16:29:58.369Z</time></trkpt><trkpt lat="45.0581317" lon="8.2769133"><ele>180.0</ele><time>2026-04-18T16:29:59.368Z</time></trkpt><trkpt lat="45.0581383" lon="8.2768117"><ele>180.0</ele><time>2026-04-18T16:30:00.369Z</time></trkpt><trkpt lat="45.0581317" lon="8.2767017"><ele>180.0</ele><time>2026-04-18T16:30:01.369Z</time></trkpt><trkpt lat="45.0581083" lon="8.27657"><ele>180.0</ele><time>2026-04-18T16:30:02.369Z</time></trkpt><trkpt lat="45.0580967" lon="8.276415"><ele>180.0</ele><time>2026-04-18T16:30:03.368Z</time></trkpt><trkpt lat="45.0581017" lon="8.27625"><ele>180.0</ele><time>2026-04-18T16:30:04.369Z</time></trkpt><trkpt lat="45.0581317" lon="8.2760783"><ele>180.0</ele><time>2026-04-18T16:30:05.369Z</time></trkpt><trkpt lat="45.05818" lon="8.275895"><ele>180.0</ele><time>2026-04-18T16:30:06.368Z</time></trkpt><trkpt lat="45.0582283" lon="8.275695"><ele>180.0</ele><time>2026-04-18T16:30:07.369Z</time></trkpt><trkpt lat="45.0582883" lon="8.2755083"><ele>180.66666666666666</ele><time>2026-04-18T16:30:08.369Z</time></trkpt><trkpt lat="45.05836" lon="8.275325"><ele>181.33333333333331</ele><time>2026-04-18T16:30:09.369Z</time></trkpt><trkpt lat="45.0584217" lon="8.2751333"><ele>182.0</ele><time>2026-04-18T16:30:10.369Z</time></trkpt><trkpt lat="45.05849" lon="8.2749333"><ele>183.33333333333331</ele><time>2026-04-18T16:30:11.368Z</time></trkpt><trkpt lat="45.05855" lon="8.2747333"><ele>184.66666666666666</ele><time>2026-04-18T16:30:12.369Z</time></trkpt><trkpt lat="45.0585867" lon="8.2745267"><ele>186.0</ele><time>2026-04-18T16:30:13.369Z</time></trkpt><trkpt lat="45.0586433" lon="8.2743333"><ele>186.0</ele><time>2026-04-18T16:30:14.369Z</time></trkpt><trkpt lat="45.0587067" lon="8.274135"><ele>186.0</ele><time>2026-04-18T16:30:15.369Z</time></trkpt><trkpt lat="45.058775" lon="8.2739317"><ele>186.0</ele><time>2026-04-18T16:30:16.369Z</time></trkpt><trkpt lat="45.0588417" lon="8.2737267"><ele>188.0</ele><time>2026-04-18T16:30:17.369Z</time></trkpt><trkpt lat="45.0589" lon="8.27351"><ele>190.0</ele><time>2026-04-18T16:30:18.369Z</time></trkpt><trkpt lat="45.0589567" lon="8.2732983"><ele>192.0</ele><time>2026-04-18T16:30:19.369Z</time></trkpt><trkpt lat="45.0590183" lon="8.2730933"><ele>193.33333333333331</ele><time>2026-04-18T16:30:20.369Z</time></trkpt><trkpt lat="45.05908" lon="8.272885"><ele>194.66666666666666</ele><time>2026-04-18T16:30:21.369Z</time></trkpt><trkpt lat="45.0591367" lon="8.27267"><ele>196.0</ele><time>2026-04-18T16:30:22.368Z</time></trkpt><trkpt lat="45.0591917" lon="8.272465"><ele>193.33333333333331</ele><time>2026-04-18T16:30:23.369Z</time></trkpt><trkpt lat="45.0592283" lon="8.2722333"><ele>190.66666666666666</ele><time>2026-04-18T16:30:24.369Z</time></trkpt><trkpt lat="45.0592767" lon="8.27201"><ele>188.0</ele><time>2026-04-18T16:30:25.368Z</time></trkpt><trkpt lat="45.0593217" lon="8.27178"><ele>188.0</ele><time>2026-04-18T16:30:26.369Z</time></trkpt><trkpt lat="45.0593633" lon="8.2715633"><ele>188.0</ele><time>2026-04-18T16:30:27.369Z</time></trkpt><trkpt lat="45.059415" lon="8.2713417"><ele>188.0</ele><time>2026-04-18T16:30:28.369Z</time></trkpt><trkpt lat="45.05947" lon="8.2711333"><ele>188.33333333333331</ele><time>2026-04-18T16:30:29.369Z</time></trkpt><trkpt lat="45.05952" lon="8.2709133"><ele>188.66666666666666</ele><time>2026-04-18T16:30:30.369Z</time></trkpt><trkpt lat="45.05957" lon="8.2706867"><ele>189.0</ele><time>2026-04-18T16:30:31.369Z</time></trkpt><trkpt lat="45.0596217" lon="8.27045"><ele>189.66666666666666</ele><time>2026-04-18T16:30:32.369Z</time></trkpt><trkpt lat="45.0596733" lon="8.2702133"><ele>190.33333333333331</ele><time>2026-04-18T16:30:33.369Z</time></trkpt><trkpt lat="45.059715" lon="8.26998"><ele>191.0</ele><time>2026-04-18T16:30:34.369Z</time></trkpt><trkpt lat="45.0597417" lon="8.2697433"><ele>191.33333333333331</ele><time>2026-04-18T16:30:35.369Z</time></trkpt><trkpt lat="45.05976" lon="8.2695133"><ele>191.66666666666666</ele><time>2026-04-18T16:30:36.369Z</time></trkpt><trkpt lat="45.0597717" lon="8.269275"><ele>192.0</ele><time>2026-04-18T16:30:37.368Z</time></trkpt><trkpt lat="45.05978" lon="8.2690533"><ele>192.33333333333331</ele><time>2026-04-18T16:30:38.369Z</time></trkpt><trkpt lat="45.0597933" lon="8.2688317"><ele>192.66666666666666</ele><time>2026-04-18T16:30:39.369Z</time></trkpt><trkpt lat="45.0597983" lon="8.268615"><ele>193.0</ele><time>2026-04-18T16:30:40.369Z</time></trkpt><trkpt lat="45.0597933" lon="8.2683917"><ele>193.0</ele><time>2026-04-18T16:30:41.368Z</time></trkpt><trkpt lat="45.05979" lon="8.2681667"><ele>193.0</ele><time>2026-04-18T16:30:42.368Z</time></trkpt><trkpt lat="45.05978" lon="8.267945"><ele>193.0</ele><time>2026-04-18T16:30:43.369Z</time></trkpt><trkpt lat="45.0597667" lon="8.2677133"><ele>194.33333333333331</ele><time>2026-04-18T16:30:44.368Z</time></trkpt><trkpt lat="45.0597567" lon="8.267475"><ele>195.66666666666669</ele><time>2026-04-18T16:30:45.369Z</time></trkpt><trkpt lat="45.0597383" lon="8.2672483"><ele>197.0</ele><time>2026-04-18T16:30:46.368Z</time></trkpt><trkpt lat="45.0597167" lon="8.2670083"><ele>197.0</ele><time>2026-04-18T16:30:47.369Z</time></trkpt><trkpt lat="45.0596933" lon="8.2667717"><ele>197.0</ele><time>2026-04-18T16:30:48.369Z</time></trkpt><trkpt lat="45.0596767" lon="8.266545"><ele>197.0</ele><time>2026-04-18T16:30:49.368Z</time></trkpt><trkpt lat="45.0596617" lon="8.2663117"><ele>196.66666666666669</ele><time>2026-04-18T16:30:50.369Z</time></trkpt><trkpt lat="45.0596533" lon="8.2660817"><ele>196.33333333333331</ele><time>2026-04-18T16:30:51.369Z</time></trkpt><trkpt lat="45.0596333" lon="8.2658417"><ele>196.0</ele><time>2026-04-18T16:30:52.369Z</time></trkpt><trkpt lat="45.0596167" lon="8.26561"><ele>195.66666666666666</ele><time>2026-04-18T16:30:53.368Z</time></trkpt><trkpt lat="45.059595" lon="8.2653667"><ele>195.33333333333331</ele><time>2026-04-18T16:30:54.369Z</time></trkpt><trkpt lat="45.05957" lon="8.265145"><ele>195.0</ele><time>2026-04-18T16:30:55.368Z</time></trkpt><trkpt lat="45.0595467" lon="8.2648983"><ele>195.0</ele><time>2026-04-18T16:30:56.369Z</time></trkpt><trkpt lat="45.0595067" lon="8.2646667"><ele>195.0</ele><time>2026-04-18T16:30:57.368Z</time></trkpt><trkpt lat="45.0594633" lon="8.2644433"><ele>195.0</ele><time>2026-04-18T16:30:58.369Z</time></trkpt><trkpt lat="45.0594017" lon="8.2642183"><ele>195.0</ele><time>2026-04-18T16:30:59.369Z</time></trkpt><trkpt lat="45.0593433" lon="8.2640017"><ele>195.0</ele><time>2026-04-18T16:31:00.369Z</time></trkpt><trkpt lat="45.0593117" lon="8.2637767"><ele>195.0</ele><time>2026-04-18T16:31:01.369Z</time></trkpt><trkpt lat="45.0592717" lon="8.2635533"><ele>194.25</ele><time>2026-04-18T16:31:02.369Z</time></trkpt><trkpt lat="45.0592583" lon="8.2633367"><ele>193.5</ele><time>2026-04-18T16:31:03.369Z</time></trkpt><trkpt lat="45.0592517" lon="8.26313"><ele>192.75</ele><time>2026-04-18T16:31:04.368Z</time></trkpt><trkpt lat="45.0592467" lon="8.2629183"><ele>192.0</ele><time>2026-04-18T16:31:05.368Z</time></trkpt><trkpt lat="45.0592417" lon="8.2627183"><ele>191.75</ele><time>2026-04-18T16:31:06.368Z</time></trkpt><trkpt lat="45.0592267" lon="8.262525"><ele>191.5</ele><time>2026-04-18T16:31:07.368Z</time></trkpt><trkpt lat="45.05922" lon="8.26233"><ele>191.25</ele><time>2026-04-18T16:31:08.369Z</time></trkpt><trkpt lat="45.0592117" lon="8.2621467"><ele>191.0</ele><time>2026-04-18T16:31:09.368Z</time></trkpt><trkpt lat="45.0592117" lon="8.2619633"><ele>191.0</ele><time>2026-04-18T16:31:10.368Z</time></trkpt><trkpt lat="45.0592183" lon="8.2617717"><ele>191.0</ele><time>2026-04-18T16:31:11.369Z</time></trkpt><trkpt lat="45.0592333" lon="8.2615833"><ele>191.0</ele><time>2026-04-18T16:31:12.369Z</time></trkpt><trkpt lat="45.0592517" lon="8.2614"><ele>191.0</ele><time>2026-04-18T16:31:13.369Z</time></trkpt><trkpt lat="45.059275" lon="8.2612133"><ele>191.25</ele><time>2026-04-18T16:31:14.369Z</time></trkpt><trkpt lat="45.0592867" lon="8.26103"><ele>191.5</ele><time>2026-04-18T16:31:15.369Z</time></trkpt><trkpt lat="45.0593" lon="8.2608533"><ele>191.75</ele><time>2026-04-18T16:31:16.368Z</time></trkpt><trkpt lat="45.059305" lon="8.2606767"><ele>192.0</ele><time>2026-04-18T16:31:17.369Z</time></trkpt><trkpt lat="45.0593167" lon="8.2605117"><ele>192.16666666666666</ele><time>2026-04-18T16:31:18.369Z</time></trkpt><trkpt lat="45.0593283" lon="8.2603583"><ele>192.33333333333331</ele><time>2026-04-18T16:31:19.369Z</time></trkpt><trkpt lat="45.059335" lon="8.260225"><ele>192.5</ele><time>2026-04-18T16:31:20.368Z</time></trkpt><trkpt lat="45.05934" lon="8.260105"><ele>192.66666666666666</ele><time>2026-04-18T16:31:21.369Z</time></trkpt><trkpt lat="45.0593517" lon="8.2599967"><ele>192.83333333333331</ele><time>2026-04-18T16:31:22.369Z</time></trkpt><trkpt lat="45.059365" lon="8.2599083"><ele>193.0</ele><time>2026-04-18T16:31:23.368Z</time></trkpt><trkpt lat="45.0594133" lon="8.25978"><ele>193.0</ele><time>2026-04-18T16:31:25.369Z</time></trkpt><trkpt lat="45.059475" lon="8.25976"><ele>193.0</ele><time>2026-04-18T16:31:26.369Z</time></trkpt><trkpt lat="45.0595717" lon="8.2597817"><ele>193.0</ele><time>2026-04-18T16:31:27.369Z</time></trkpt><trkpt lat="45.0596783" lon="8.259805"><ele>193.0</ele><time>2026-04-18T16:31:28.369Z</time></trkpt><trkpt lat="45.0597967" lon="8.25982"><ele>193.0</ele><time>2026-04-18T16:31:29.369Z</time></trkpt><trkpt lat="45.0599083" lon="8.259825"><ele>192.25</ele><time>2026-04-18T16:31:30.369Z</time></trkpt><trkpt lat="45.060035" lon="8.2598483"><ele>191.5</ele><time>2026-04-18T16:31:31.368Z</time></trkpt><trkpt lat="45.0601733" lon="8.2598767"><ele>190.75</ele><time>2026-04-18T16:31:32.369Z</time></trkpt><trkpt lat="45.06029" lon="8.2598933"><ele>190.0</ele><time>2026-04-18T16:31:33.369Z</time></trkpt><trkpt lat="45.06042" lon="8.2598967"><ele>190.0</ele><time>2026-04-18T16:31:34.368Z</time></trkpt><trkpt lat="45.0605467" lon="8.2599067"><ele>190.0</ele><time>2026-04-18T16:31:35.369Z</time></trkpt><trkpt lat="45.0606717" lon="8.2599417"><ele>190.0</ele><time>2026-04-18T16:31:36.369Z</time></trkpt><trkpt lat="45.0608033" lon="8.25996"><ele>190.0</ele><time>2026-04-18T16:31:37.369Z</time></trkpt><trkpt lat="45.060935" lon="8.2599767"><ele>189.6</ele><time>2026-04-18T16:31:38.368Z</time></trkpt><trkpt lat="45.0610617" lon="8.2600017"><ele>189.2</ele><time>2026-04-18T16:31:39.369Z</time></trkpt><trkpt lat="45.0611783" lon="8.26002"><ele>188.8</ele><time>2026-04-18T16:31:40.369Z</time></trkpt><trkpt lat="45.0612783" lon="8.2600383"><ele>188.4</ele><time>2026-04-18T16:31:41.368Z</time></trkpt><trkpt lat="45.061375" lon="8.26007"><ele>188.0</ele><time>2026-04-18T16:31:42.369Z</time></trkpt><trkpt lat="45.0614583" lon="8.2600717"><ele>188.0</ele><time>2026-04-18T16:31:43.368Z</time></trkpt><trkpt lat="45.0615383" lon="8.260035"><ele>188.0</ele><time>2026-04-18T16:31:44.369Z</time></trkpt><trkpt lat="45.0616117" lon="8.2599733"><ele>188.0</ele><time>2026-04-18T16:31:45.369Z</time></trkpt><trkpt lat="45.0616817" lon="8.2598783"><ele>188.0</ele><time>2026-04-18T16:31:46.369Z</time></trkpt><trkpt lat="45.0617233" lon="8.2597367"><ele>188.0</ele><time>2026-04-18T16:31:47.369Z</time></trkpt><trkpt lat="45.061745" lon="8.259545"><ele>188.25</ele><time>2026-04-18T16:31:48.368Z</time></trkpt><trkpt lat="45.0617617" lon="8.25935"><ele>188.5</ele><time>2026-04-18T16:31:49.368Z</time></trkpt><trkpt lat="45.0617917" lon="8.2591533"><ele>188.75</ele><time>2026-04-18T16:31:50.369Z</time></trkpt><trkpt lat="45.06183" lon="8.258945"><ele>189.0</ele><time>2026-04-18T16:31:51.368Z</time></trkpt><trkpt lat="45.061875" lon="8.2587333"><ele>189.0</ele><time>2026-04-18T16:31:52.369Z</time></trkpt><trkpt lat="45.061905" lon="8.25851"><ele>189.0</ele><time>2026-04-18T16:31:53.369Z</time></trkpt><trkpt lat="45.061945" lon="8.2582833"><ele>189.0</ele><time>2026-04-18T16:31:54.369Z</time></trkpt><trkpt lat="45.061975" lon="8.2580467"><ele>189.0</ele><time>2026-04-18T16:31:55.369Z</time></trkpt><trkpt lat="45.0620067" lon="8.2578117"><ele>189.0</ele><time>2026-04-18T16:31:56.369Z</time></trkpt><trkpt lat="45.0620433" lon="8.2575883"><ele>189.0</ele><time>2026-04-18T16:31:57.369Z</time></trkpt><trkpt lat="45.0620767" lon="8.2573517"><ele>190.0</ele><time>2026-04-18T16:31:58.369Z</time></trkpt><trkpt lat="45.0621117" lon="8.2571217"><ele>191.0</ele><time>2026-04-18T16:31:59.368Z</time></trkpt><trkpt lat="45.06215" lon="8.2568967"><ele>192.0</ele><time>2026-04-18T16:32:00.369Z</time></trkpt><trkpt lat="45.06219" lon="8.2566733"><ele>192.0</ele><time>2026-04-18T16:32:01.369Z</time></trkpt><trkpt lat="45.0622383" lon="8.256445"><ele>192.0</ele><time>2026-04-18T16:32:02.369Z</time></trkpt><trkpt lat="45.0622867" lon="8.2562383"><ele>192.0</ele><time>2026-04-18T16:32:03.368Z</time></trkpt><trkpt lat="45.0623267" lon="8.2560167"><ele>192.0</ele><time>2026-04-18T16:32:04.369Z</time></trkpt><trkpt lat="45.062375" lon="8.2558183"><ele>192.0</ele><time>2026-04-18T16:32:05.369Z</time></trkpt><trkpt lat="45.062415" lon="8.255595"><ele>192.0</ele><time>2026-04-18T16:32:06.369Z</time></trkpt><trkpt lat="45.06245" lon="8.2553783"><ele>191.66666666666666</ele><time>2026-04-18T16:32:07.369Z</time></trkpt><trkpt lat="45.06248" lon="8.255165"><ele>191.33333333333331</ele><time>2026-04-18T16:32:08.369Z</time></trkpt><trkpt lat="45.0625317" lon="8.2549417"><ele>191.0</ele><time>2026-04-18T16:32:09.369Z</time></trkpt><trkpt lat="45.062575" lon="8.2547133"><ele>191.0</ele><time>2026-04-18T16:32:10.369Z</time></trkpt><trkpt lat="45.0626117" lon="8.2544833"><ele>191.0</ele><time>2026-04-18T16:32:11.369Z</time></trkpt><trkpt lat="45.0626517" lon="8.2542517"><ele>191.0</ele><time>2026-04-18T16:32:12.368Z</time></trkpt><trkpt lat="45.062675" lon="8.25401"><ele>191.0</ele><time>2026-04-18T16:32:13.369Z</time></trkpt><trkpt lat="45.0627" lon="8.2537667"><ele>191.0</ele><time>2026-04-18T16:32:14.369Z</time></trkpt><trkpt lat="45.0627183" lon="8.25353"><ele>191.0</ele><time>2026-04-18T16:32:15.369Z</time></trkpt><trkpt lat="45.0627317" lon="8.2533083"><ele>191.0</ele><time>2026-04-18T16:32:16.369Z</time></trkpt><trkpt lat="45.0627467" lon="8.2530783"><ele>191.0</ele><time>2026-04-18T16:32:17.369Z</time></trkpt><trkpt lat="45.0627517" lon="8.252845"><ele>191.0</ele><time>2026-04-18T16:32:18.369Z</time></trkpt><trkpt lat="45.0627567" lon="8.2526233"><ele>191.0</ele><time>2026-04-18T16:32:19.369Z</time></trkpt><trkpt lat="45.0627633" lon="8.2523967"><ele>191.0</ele><time>2026-04-18T16:32:20.369Z</time></trkpt><trkpt lat="45.0627767" lon="8.2521717"><ele>191.0</ele><time>2026-04-18T16:32:21.369Z</time></trkpt><trkpt lat="45.0627933" lon="8.2519533"><ele>192.66666666666666</ele><time>2026-04-18T16:32:22.368Z</time></trkpt><trkpt lat="45.06283" lon="8.251745"><ele>194.33333333333331</ele><time>2026-04-18T16:32:23.369Z</time></trkpt><trkpt lat="45.0628633" lon="8.251535"><ele>196.0</ele><time>2026-04-18T16:32:24.369Z</time></trkpt><trkpt lat="45.0629133" lon="8.2513083"><ele>196.66666666666666</ele><time>2026-04-18T16:32:25.368Z</time></trkpt><trkpt lat="45.0629633" lon="8.2510867"><ele>197.33333333333331</ele><time>2026-04-18T16:32:26.369Z</time></trkpt><trkpt lat="45.0630133" lon="8.250865"><ele>198.0</ele><time>2026-04-18T16:32:27.369Z</time></trkpt><trkpt lat="45.0630733" lon="8.25065"><ele>198.66666666666669</ele><time>2026-04-18T16:32:28.368Z</time></trkpt><trkpt lat="45.0631267" lon="8.2504267"><ele>199.33333333333334</ele><time>2026-04-18T16:32:29.368Z</time></trkpt><trkpt lat="45.06318" lon="8.250195"><ele>200.0</ele><time>2026-04-18T16:32:30.368Z</time></trkpt><trkpt lat="45.0632217" lon="8.2499633"><ele>200.0</ele><time>2026-04-18T16:32:31.368Z</time></trkpt><trkpt lat="45.0632617" lon="8.24974"><ele>200.0</ele><time>2026-04-18T16:32:32.368Z</time></trkpt><trkpt lat="45.0633167" lon="8.2495217"><ele>200.0</ele><time>2026-04-18T16:32:33.367Z</time></trkpt><trkpt lat="45.063375" lon="8.24928"><ele>199.66666666666669</ele><time>2026-04-18T16:32:34.368Z</time></trkpt><trkpt lat="45.06343" lon="8.2490617"><ele>199.33333333333331</ele><time>2026-04-18T16:32:35.368Z</time></trkpt><trkpt lat="45.0634967" lon="8.2488467"><ele>199.0</ele><time>2026-04-18T16:32:36.368Z</time></trkpt><trkpt lat="45.0635483" lon="8.24864"><ele>199.0</ele><time>2026-04-18T16:32:37.367Z</time></trkpt><trkpt lat="45.0636017" lon="8.24842"><ele>199.0</ele><time>2026-04-18T16:32:38.368Z</time></trkpt><trkpt lat="45.06368" lon="8.248215"><ele>199.0</ele><time>2026-04-18T16:32:39.368Z</time></trkpt><trkpt lat="45.0637417" lon="8.2479967"><ele>199.0</ele><time>2026-04-18T16:32:40.368Z</time></trkpt><trkpt lat="45.0637983" lon="8.2477833"><ele>199.0</ele><time>2026-04-18T16:32:41.368Z</time></trkpt><trkpt lat="45.0638467" lon="8.247555"><ele>199.0</ele><time>2026-04-18T16:32:42.368Z</time></trkpt><trkpt lat="45.063895" lon="8.2473233"><ele>199.66666666666666</ele><time>2026-04-18T16:32:43.368Z</time></trkpt><trkpt lat="45.0639567" lon="8.2471"><ele>200.33333333333331</ele><time>2026-04-18T16:32:44.367Z</time></trkpt><trkpt lat="45.06402" lon="8.2468833"><ele>201.0</ele><time>2026-04-18T16:32:45.368Z</time></trkpt><trkpt lat="45.0640683" lon="8.2466683"><ele>201.66666666666669</ele><time>2026-04-18T16:32:46.368Z</time></trkpt><trkpt lat="45.0641217" lon="8.2464533"><ele>202.33333333333334</ele><time>2026-04-18T16:32:47.368Z</time></trkpt><trkpt lat="45.0641783" lon="8.2462417"><ele>203.0</ele><time>2026-04-18T16:32:48.368Z</time></trkpt><trkpt lat="45.06423" lon="8.2460333"><ele>203.0</ele><time>2026-04-18T16:32:49.368Z</time></trkpt><trkpt lat="45.0642767" lon="8.2458183"><ele>203.0</ele><time>2026-04-18T16:32:50.368Z</time></trkpt><trkpt lat="45.06432" lon="8.2455983"><ele>203.0</ele><time>2026-04-18T16:32:51.368Z</time></trkpt><trkpt lat="45.0643767" lon="8.2453967"><ele>203.33333333333334</ele><time>2026-04-18T16:32:52.368Z</time></trkpt><trkpt lat="45.0644317" lon="8.2451983"><ele>203.66666666666669</ele><time>2026-04-18T16:32:53.368Z</time></trkpt><trkpt lat="45.0644817" lon="8.2449767"><ele>204.0</ele><time>2026-04-18T16:32:54.368Z</time></trkpt><trkpt lat="45.0645383" lon="8.2447617"><ele>204.0</ele><time>2026-04-18T16:32:55.367Z</time></trkpt><trkpt lat="45.064585" lon="8.2445417"><ele>204.0</ele><time>2026-04-18T16:32:56.368Z</time></trkpt><trkpt lat="45.0646483" lon="8.2443367"><ele>204.0</ele><time>2026-04-18T16:32:57.368Z</time></trkpt><trkpt lat="45.064705" lon="8.24413"><ele>204.0</ele><time>2026-04-18T16:32:58.368Z</time></trkpt><trkpt lat="45.0647533" lon="8.243935"><ele>204.0</ele><time>2026-04-18T16:32:59.368Z</time></trkpt><trkpt lat="45.0648033" lon="8.24375"><ele>204.0</ele><time>2026-04-18T16:33:00.368Z</time></trkpt><trkpt lat="45.0648533" lon="8.2435633"><ele>204.0</ele><time>2026-04-18T16:33:01.367Z</time></trkpt><trkpt lat="45.0649017" lon="8.2433933"><ele>204.0</ele><time>2026-04-18T16:33:02.367Z</time></trkpt><trkpt lat="45.06494" lon="8.2432317"><ele>204.0</ele><time>2026-04-18T16:33:03.368Z</time></trkpt><trkpt lat="45.064985" lon="8.2430883"><ele>204.0</ele><time>2026-04-18T16:33:04.368Z</time></trkpt><trkpt lat="45.06504" lon="8.24297"><ele>204.0</ele><time>2026-04-18T16:33:05.368Z</time></trkpt><trkpt lat="45.0650617" lon="8.2428633"><ele>204.0</ele><time>2026-04-18T16:33:06.368Z</time></trkpt><trkpt lat="45.065085" lon="8.2427717"><ele>204.0</ele><time>2026-04-18T16:33:07.368Z</time></trkpt><trkpt lat="45.0650683" lon="8.242605"><ele>204.0</ele><time>2026-04-18T16:33:09.368Z</time></trkpt><trkpt lat="45.0650133" lon="8.2425367"><ele>204.0</ele><time>2026-04-18T16:33:10.368Z</time></trkpt><trkpt lat="45.06494" lon="8.2425083"><ele>204.0</ele><time>2026-04-18T16:33:11.368Z</time></trkpt><trkpt lat="45.0648383" lon="8.2424983"><ele>204.0</ele><time>2026-04-18T16:33:12.368Z</time></trkpt><trkpt lat="45.0647133" lon="8.242485"><ele>204.0</ele><time>2026-04-18T16:33:13.368Z</time></trkpt><trkpt lat="45.0645833" lon="8.2424433"><ele>204.0</ele><time>2026-04-18T16:33:14.368Z</time></trkpt><trkpt lat="45.06444" lon="8.24238"><ele>204.0</ele><time>2026-04-18T16:33:15.367Z</time></trkpt><trkpt lat="45.064305" lon="8.2422833"><ele>204.0</ele><time>2026-04-18T16:33:16.368Z</time></trkpt><trkpt lat="45.0641683" lon="8.242175"><ele>204.5</ele><time>2026-04-18T16:33:17.367Z</time></trkpt><trkpt lat="45.0640483" lon="8.2420517"><ele>205.0</ele><time>2026-04-18T16:33:18.368Z</time></trkpt><trkpt lat="45.0639417" lon="8.2419283"><ele>205.5</ele><time>2026-04-18T16:33:19.368Z</time></trkpt><trkpt lat="45.0638333" lon="8.2417817"><ele>206.0</ele><time>2026-04-18T16:33:20.368Z</time></trkpt><trkpt lat="45.063705" lon="8.2416117"><ele>207.66666666666669</ele><time>2026-04-18T16:33:21.367Z</time></trkpt><trkpt lat="45.0635917" lon="8.24144"><ele>209.33333333333331</ele><time>2026-04-18T16:33:22.367Z</time></trkpt><trkpt lat="45.0634767" lon="8.241265"><ele>211.0</ele><time>2026-04-18T16:33:23.367Z</time></trkpt><trkpt lat="45.063365" lon="8.2410967"><ele>212.75</ele><time>2026-04-18T16:33:24.368Z</time></trkpt><trkpt lat="45.0632567" lon="8.2409367"><ele>214.5</ele><time>2026-04-18T16:33:25.367Z</time></trkpt><trkpt lat="45.0631667" lon="8.2407867"><ele>216.25</ele><time>2026-04-18T16:33:26.368Z</time></trkpt><trkpt lat="45.0630883" lon="8.2406383"><ele>218.0</ele><time>2026-04-18T16:33:27.368Z</time></trkpt><trkpt lat="45.063015" lon="8.2405"><ele>218.00000000000003</ele><time>2026-04-18T16:33:28.368Z</time></trkpt><trkpt lat="45.0629433" lon="8.240385"><ele>218.0</ele><time>2026-04-18T16:33:29.368Z</time></trkpt><trkpt lat="45.0628883" lon="8.2402867"><ele>218.0</ele><time>2026-04-18T16:33:30.368Z</time></trkpt><trkpt lat="45.0628417" lon="8.2402"><ele>218.0</ele><time>2026-04-18T16:33:31.368Z</time></trkpt><trkpt lat="45.0628067" lon="8.24011"><ele>218.00000000000003</ele><time>2026-04-18T16:33:32.367Z</time></trkpt><trkpt lat="45.062785" lon="8.2400183"><ele>218.0</ele><time>2026-04-18T16:33:33.368Z</time></trkpt><trkpt lat="45.0627933" lon="8.2399017"><ele>217.60000000000002</ele><time>2026-04-18T16:33:34.368Z</time></trkpt><trkpt lat="45.0628367" lon="8.239795"><ele>217.20000000000002</ele><time>2026-04-18T16:33:35.367Z</time></trkpt><trkpt lat="45.062895" lon="8.2397067"><ele>216.8</ele><time>2026-04-18T16:33:36.368Z</time></trkpt><trkpt lat="45.0629867" lon="8.2395917"><ele>216.4</ele><time>2026-04-18T16:33:37.368Z</time></trkpt><trkpt lat="45.0631167" lon="8.2394933"><ele>216.0</ele><time>2026-04-18T16:33:38.368Z</time></trkpt><trkpt lat="45.0632433" lon="8.2394083"><ele>217.0</ele><time>2026-04-18T16:33:39.368Z</time></trkpt><trkpt lat="45.0633617" lon="8.2393067"><ele>218.0</ele><time>2026-04-18T16:33:40.368Z</time></trkpt><trkpt lat="45.0634867" lon="8.2391933"><ele>219.0</ele><time>2026-04-18T16:33:41.368Z</time></trkpt><trkpt lat="45.063605" lon="8.23908"><ele>220.0</ele><time>2026-04-18T16:33:42.368Z</time></trkpt><trkpt lat="45.0637433" lon="8.2389783"><ele>219.33333333333331</ele><time>2026-04-18T16:33:43.368Z</time></trkpt><trkpt lat="45.063875" lon="8.238865"><ele>218.66666666666669</ele><time>2026-04-18T16:33:44.368Z</time></trkpt><trkpt lat="45.064015" lon="8.23875"><ele>218.0</ele><time>2026-04-18T16:33:45.367Z</time></trkpt><trkpt lat="45.0641483" lon="8.2386267"><ele>221.33333333333334</ele><time>2026-04-18T16:33:46.368Z</time></trkpt><trkpt lat="45.064285" lon="8.2384933"><ele>224.66666666666669</ele><time>2026-04-18T16:33:47.367Z</time></trkpt><trkpt lat="45.064405" lon="8.2383517"><ele>228.0</ele><time>2026-04-18T16:33:48.368Z</time></trkpt><trkpt lat="45.0645133" lon="8.2382"><ele>228.33333333333331</ele><time>2026-04-18T16:33:49.368Z</time></trkpt><trkpt lat="45.06462" lon="8.2380367"><ele>228.66666666666666</ele><time>2026-04-18T16:33:50.367Z</time></trkpt><trkpt lat="45.064715" lon="8.2378467"><ele>229.0</ele><time>2026-04-18T16:33:51.368Z</time></trkpt><trkpt lat="45.0648117" lon="8.237655"><ele>229.0</ele><time>2026-04-18T16:33:52.368Z</time></trkpt><trkpt lat="45.0649" lon="8.237475"><ele>229.0</ele><time>2026-04-18T16:33:53.368Z</time></trkpt><trkpt lat="45.0649967" lon="8.237305"><ele>229.0</ele><time>2026-04-18T16:33:54.368Z</time></trkpt><trkpt lat="45.0650817" lon="8.2371283"><ele>231.33333333333331</ele><time>2026-04-18T16:33:55.368Z</time></trkpt><trkpt lat="45.0651717" lon="8.23695"><ele>233.66666666666669</ele><time>2026-04-18T16:33:56.367Z</time></trkpt><trkpt lat="45.06527" lon="8.2367717"><ele>236.0</ele><time>2026-04-18T16:33:57.368Z</time></trkpt><trkpt lat="45.06535" lon="8.236585"><ele>235.33333333333334</ele><time>2026-04-18T16:33:58.367Z</time></trkpt><trkpt lat="45.065415" lon="8.23639"><ele>234.66666666666669</ele><time>2026-04-18T16:33:59.368Z</time></trkpt><trkpt lat="45.0654833" lon="8.2361883"><ele>234.0</ele><time>2026-04-18T16:34:00.368Z</time></trkpt><trkpt lat="45.0655367" lon="8.235975"><ele>234.0</ele><time>2026-04-18T16:34:01.368Z</time></trkpt><trkpt lat="45.0655933" lon="8.2357617"><ele>234.0</ele><time>2026-04-18T16:34:02.368Z</time></trkpt><trkpt lat="45.065645" lon="8.2355467"><ele>234.0</ele><time>2026-04-18T16:34:03.367Z</time></trkpt><trkpt lat="45.0656983" lon="8.2353433"><ele>234.33333333333331</ele><time>2026-04-18T16:34:04.368Z</time></trkpt><trkpt lat="45.0657567" lon="8.235135"><ele>234.66666666666666</ele><time>2026-04-18T16:34:05.368Z</time></trkpt><trkpt lat="45.0658067" lon="8.2349217"><ele>235.0</ele><time>2026-04-18T16:34:06.368Z</time></trkpt><trkpt lat="45.0658533" lon="8.2347167"><ele>239.0</ele><time>2026-04-18T16:34:07.368Z</time></trkpt><trkpt lat="45.0659083" lon="8.2345133"><ele>243.0</ele><time>2026-04-18T16:34:08.368Z</time></trkpt><trkpt lat="45.0659583" lon="8.234305"><ele>247.0</ele><time>2026-04-18T16:34:09.367Z</time></trkpt><trkpt lat="45.066005" lon="8.2340967"><ele>246.66666666666666</ele><time>2026-04-18T16:34:10.368Z</time></trkpt><trkpt lat="45.066045" lon="8.2338967"><ele>246.33333333333331</ele><time>2026-04-18T16:34:11.367Z</time></trkpt><trkpt lat="45.0661" lon="8.233695"><ele>246.0</ele><time>2026-04-18T16:34:12.368Z</time></trkpt><trkpt lat="45.06616" lon="8.2334933"><ele>246.0</ele><time>2026-04-18T16:34:13.368Z</time></trkpt><trkpt lat="45.0662117" lon="8.233295"><ele>246.0</ele><time>2026-04-18T16:34:14.368Z</time></trkpt><trkpt lat="45.0662717" lon="8.2330933"><ele>246.0</ele><time>2026-04-18T16:34:15.368Z</time></trkpt><trkpt lat="45.0663283" lon="8.2328917"><ele>246.66666666666669</ele><time>2026-04-18T16:34:16.368Z</time></trkpt><trkpt lat="45.066385" lon="8.2326867"><ele>247.33333333333334</ele><time>2026-04-18T16:34:17.367Z</time></trkpt><trkpt lat="45.066445" lon="8.2324767"><ele>248.0</ele><time>2026-04-18T16:34:18.368Z</time></trkpt><trkpt lat="45.0665" lon="8.23227"><ele>248.0</ele><time>2026-04-18T16:34:19.368Z</time></trkpt><trkpt lat="45.06655" lon="8.2320617"><ele>248.0</ele><time>2026-04-18T16:34:20.368Z</time></trkpt><trkpt lat="45.0665917" lon="8.2318617"><ele>248.0</ele><time>2026-04-18T16:34:21.368Z</time></trkpt><trkpt lat="45.066635" lon="8.2316717"><ele>248.0</ele><time>2026-04-18T16:34:22.368Z</time></trkpt><trkpt lat="45.0666833" lon="8.2314883"><ele>252.25</ele><time>2026-04-18T16:34:23.367Z</time></trkpt><trkpt lat="45.0667283" lon="8.2313033"><ele>256.5</ele><time>2026-04-18T16:34:24.368Z</time></trkpt><trkpt lat="45.066775" lon="8.231115"><ele>260.75</ele><time>2026-04-18T16:34:25.368Z</time></trkpt><trkpt lat="45.066815" lon="8.2309283"><ele>265.0</ele><time>2026-04-18T16:34:26.368Z</time></trkpt><trkpt lat="45.066815" lon="8.2307383"><ele>265.75</ele><time>2026-04-18T16:34:27.368Z</time></trkpt><trkpt lat="45.0667933" lon="8.2305533"><ele>266.5</ele><time>2026-04-18T16:34:28.367Z</time></trkpt><trkpt lat="45.066735" lon="8.2303583"><ele>267.25</ele><time>2026-04-18T16:34:29.368Z</time></trkpt><trkpt lat="45.0666633" lon="8.2301867"><ele>268.0</ele><time>2026-04-18T16:34:30.368Z</time></trkpt><trkpt lat="45.0665683" lon="8.2300217"><ele>267.0</ele><time>2026-04-18T16:34:31.367Z</time></trkpt><trkpt lat="45.0664633" lon="8.2298717"><ele>266.0</ele><time>2026-04-18T16:34:32.368Z</time></trkpt><trkpt lat="45.0663433" lon="8.2297217"><ele>265.0</ele><time>2026-04-18T16:34:33.368Z</time></trkpt><trkpt lat="45.066245" lon="8.2295733"><ele>265.0</ele><time>2026-04-18T16:34:34.368Z</time></trkpt><trkpt lat="45.0661433" lon="8.22942"><ele>265.0</ele><time>2026-04-18T16:34:35.367Z</time></trkpt><trkpt lat="45.0660267" lon="8.22925"><ele>265.0</ele><time>2026-04-18T16:34:36.368Z</time></trkpt><trkpt lat="45.0659133" lon="8.2290933"><ele>266.0</ele><time>2026-04-18T16:34:37.367Z</time></trkpt><trkpt lat="45.0657883" lon="8.2289333"><ele>267.0</ele><time>2026-04-18T16:34:38.368Z</time></trkpt><trkpt lat="45.0656883" lon="8.2287833"><ele>268.0</ele><time>2026-04-18T16:34:39.368Z</time></trkpt><trkpt lat="45.0655933" lon="8.22863"><ele>268.0</ele><time>2026-04-18T16:34:40.368Z</time></trkpt><trkpt lat="45.065495" lon="8.2284833"><ele>268.0</ele><time>2026-04-18T16:34:41.368Z</time></trkpt><trkpt lat="45.0653917" lon="8.228355"><ele>268.0</ele><time>2026-04-18T16:34:42.367Z</time></trkpt><trkpt lat="45.06529" lon="8.2282283"><ele>268.0</ele><time>2026-04-18T16:34:43.368Z</time></trkpt><trkpt lat="45.0651883" lon="8.2281217"><ele>268.6</ele><time>2026-04-18T16:34:44.368Z</time></trkpt><trkpt lat="45.0650917" lon="8.2280433"><ele>269.20000000000005</ele><time>2026-04-18T16:34:45.368Z</time></trkpt><trkpt lat="45.0650083" lon="8.2279733"><ele>269.8</ele><time>2026-04-18T16:34:46.368Z</time></trkpt><trkpt lat="45.064935" lon="8.2278817"><ele>270.40000000000003</ele><time>2026-04-18T16:34:47.368Z</time></trkpt><trkpt lat="45.06486" lon="8.2277783"><ele>271.0</ele><time>2026-04-18T16:34:48.368Z</time></trkpt><trkpt lat="45.0648083" lon="8.2276433"><ele>271.0</ele><time>2026-04-18T16:34:49.368Z</time></trkpt><trkpt lat="45.0647867" lon="8.2274833"><ele>271.0</ele><time>2026-04-18T16:34:50.368Z</time></trkpt><trkpt lat="45.0647883" lon="8.2273033"><ele>271.0</ele><time>2026-04-18T16:34:51.367Z</time></trkpt><trkpt lat="45.0647967" lon="8.2271433"><ele>271.0</ele><time>2026-04-18T16:34:52.368Z</time></trkpt><trkpt lat="45.0648317" lon="8.2269517"><ele>271.0</ele><time>2026-04-18T16:34:53.368Z</time></trkpt><trkpt lat="45.0648783" lon="8.22678"><ele>271.0</ele><time>2026-04-18T16:34:54.368Z</time></trkpt><trkpt lat="45.0649117" lon="8.2266267"><ele>271.0</ele><time>2026-04-18T16:34:55.368Z</time></trkpt><trkpt lat="45.0649533" lon="8.2264783"><ele>271.0</ele><time>2026-04-18T16:34:56.368Z</time></trkpt><trkpt lat="45.065005" lon="8.2263417"><ele>268.5</ele><time>2026-04-18T16:34:57.368Z</time></trkpt><trkpt lat="45.0650783" lon="8.226245"><ele>266.0</ele><time>2026-04-18T16:34:58.368Z</time></trkpt><trkpt lat="45.0651783" lon="8.2261567"><ele>263.5</ele><time>2026-04-18T16:34:59.368Z</time></trkpt><trkpt lat="45.0653033" lon="8.2261017"><ele>261.0</ele><time>2026-04-18T16:35:00.367Z</time></trkpt><trkpt lat="45.0654567" lon="8.22608"><ele>261.0</ele><time>2026-04-18T16:35:01.368Z</time></trkpt><trkpt lat="45.0656217" lon="8.22606"><ele>261.0</ele><time>2026-04-18T16:35:02.368Z</time></trkpt><trkpt lat="45.0657983" lon="8.2260367"><ele>261.0</ele><time>2026-04-18T16:35:03.368Z</time></trkpt><trkpt lat="45.0659533" lon="8.226"><ele>261.3333333333333</ele><time>2026-04-18T16:35:04.368Z</time></trkpt><trkpt lat="45.0661117" lon="8.22596"><ele>261.66666666666663</ele><time>2026-04-18T16:35:05.367Z</time></trkpt><trkpt lat="45.066265" lon="8.2259283"><ele>262.0</ele><time>2026-04-18T16:35:06.368Z</time></trkpt><trkpt lat="45.0664117" lon="8.22589"><ele>262.0</ele><time>2026-04-18T16:35:07.368Z</time></trkpt><trkpt lat="45.066555" lon="8.2258533"><ele>262.0</ele><time>2026-04-18T16:35:08.368Z</time></trkpt><trkpt lat="45.06671" lon="8.2258133"><ele>262.0</ele><time>2026-04-18T16:35:09.368Z</time></trkpt><trkpt lat="45.066855" lon="8.2257633"><ele>261.0</ele><time>2026-04-18T16:35:10.368Z</time></trkpt><trkpt lat="45.0670083" lon="8.225715"><ele>260.0</ele><time>2026-04-18T16:35:11.367Z</time></trkpt><trkpt lat="45.0671633" lon="8.2256733"><ele>259.0</ele><time>2026-04-18T16:35:12.368Z</time></trkpt><trkpt lat="45.0673217" lon="8.2256267"><ele>258.0</ele><time>2026-04-18T16:35:13.368Z</time></trkpt><trkpt lat="45.0674667" lon="8.225575"><ele>257.0</ele><time>2026-04-18T16:35:14.368Z</time></trkpt><trkpt lat="45.0676067" lon="8.225535"><ele>256.0</ele><time>2026-04-18T16:35:15.368Z</time></trkpt><trkpt lat="45.0677383" lon="8.2255"><ele>255.0</ele><time>2026-04-18T16:35:16.368Z</time></trkpt><trkpt lat="45.0678783" lon="8.225465"><ele>255.0</ele><time>2026-04-18T16:35:17.368Z</time></trkpt><trkpt lat="45.0680283" lon="8.2254267"><ele>255.0</ele><time>2026-04-18T16:35:18.368Z</time></trkpt><trkpt lat="45.0681767" lon="8.2253683"><ele>255.0</ele><time>2026-04-18T16:35:19.368Z</time></trkpt><trkpt lat="45.06831" lon="8.2252917"><ele>255.25</ele><time>2026-04-18T16:35:20.368Z</time></trkpt><trkpt lat="45.068435" lon="8.225175"><ele>255.5</ele><time>2026-04-18T16:35:21.368Z</time></trkpt><trkpt lat="45.0685417" lon="8.22503"><ele>255.75</ele><time>2026-04-18T16:35:22.367Z</time></trkpt><trkpt lat="45.06864" lon="8.2248733"><ele>256.0</ele><time>2026-04-18T16:35:23.368Z</time></trkpt><trkpt lat="45.0687383" lon="8.224715"><ele>256.0</ele><time>2026-04-18T16:35:24.368Z</time></trkpt><trkpt lat="45.0688517" lon="8.224555"><ele>256.0</ele><time>2026-04-18T16:35:25.367Z</time></trkpt><trkpt lat="45.06896" lon="8.2244067"><ele>256.0</ele><time>2026-04-18T16:35:26.368Z</time></trkpt><trkpt lat="45.06907" lon="8.2242567"><ele>259.0</ele><time>2026-04-18T16:35:27.368Z</time></trkpt><trkpt lat="45.06919" lon="8.224105"><ele>262.0</ele><time>2026-04-18T16:35:28.368Z</time></trkpt><trkpt lat="45.0692983" lon="8.22395"><ele>265.0</ele><time>2026-04-18T16:35:29.368Z</time></trkpt><trkpt lat="45.0693933" lon="8.2237817"><ele>265.0</ele><time>2026-04-18T16:35:30.368Z</time></trkpt><trkpt lat="45.0695117" lon="8.2236417"><ele>265.0</ele><time>2026-04-18T16:35:31.368Z</time></trkpt><trkpt lat="45.06962" lon="8.2234833"><ele>265.0</ele><time>2026-04-18T16:35:32.368Z</time></trkpt><trkpt lat="45.06973" lon="8.223325"><ele>265.0</ele><time>2026-04-18T16:35:33.368Z</time></trkpt><trkpt lat="45.0698317" lon="8.2231633"><ele>265.0</ele><time>2026-04-18T16:35:34.367Z</time></trkpt><trkpt lat="45.06992" lon="8.223005"><ele>265.0</ele><time>2026-04-18T16:35:35.368Z</time></trkpt><trkpt lat="45.06998" lon="8.2228233"><ele>265.0</ele><time>2026-04-18T16:35:36.368Z</time></trkpt><trkpt lat="45.0700167" lon="8.222635"><ele>267.0</ele><time>2026-04-18T16:35:37.367Z</time></trkpt><trkpt lat="45.0700367" lon="8.2224383"><ele>269.0</ele><time>2026-04-18T16:35:38.367Z</time></trkpt><trkpt lat="45.070055" lon="8.2222233"><ele>271.0</ele><time>2026-04-18T16:35:39.368Z</time></trkpt><trkpt lat="45.0700783" lon="8.222"><ele>271.3333333333333</ele><time>2026-04-18T16:35:40.368Z</time></trkpt><trkpt lat="45.0701033" lon="8.2217817"><ele>271.6666666666667</ele><time>2026-04-18T16:35:41.368Z</time></trkpt><trkpt lat="45.070115" lon="8.22156"><ele>272.0</ele><time>2026-04-18T16:35:42.368Z</time></trkpt><trkpt lat="45.07013" lon="8.2213267"><ele>272.33333333333337</ele><time>2026-04-18T16:35:43.367Z</time></trkpt><trkpt lat="45.070145" lon="8.2210867"><ele>272.6666666666667</ele><time>2026-04-18T16:35:44.368Z</time></trkpt><trkpt lat="45.0701483" lon="8.2208583"><ele>273.0</ele><time>2026-04-18T16:35:45.368Z</time></trkpt><trkpt lat="45.0701633" lon="8.2206217"><ele>273.0</ele><time>2026-04-18T16:35:46.368Z</time></trkpt><trkpt lat="45.0701667" lon="8.220395"><ele>273.0</ele><time>2026-04-18T16:35:47.367Z</time></trkpt><trkpt lat="45.0701583" lon="8.22017"><ele>273.0</ele><time>2026-04-18T16:35:48.368Z</time></trkpt><trkpt lat="45.0701383" lon="8.2199417"><ele>276.0</ele><time>2026-04-18T16:35:49.368Z</time></trkpt><trkpt lat="45.0701167" lon="8.21973"><ele>279.0</ele><time>2026-04-18T16:35:50.368Z</time></trkpt><trkpt lat="45.0701017" lon="8.2195067"><ele>282.0</ele><time>2026-04-18T16:35:51.368Z</time></trkpt><trkpt lat="45.0700983" lon="8.2192917"><ele>282.0</ele><time>2026-04-18T16:35:52.367Z</time></trkpt><trkpt lat="45.0700917" lon="8.2190883"><ele>282.0</ele><time>2026-04-18T16:35:53.367Z</time></trkpt><trkpt lat="45.07009" lon="8.2188683"><ele>282.0</ele><time>2026-04-18T16:35:54.368Z</time></trkpt><trkpt lat="45.0700967" lon="8.218645"><ele>284.0</ele><time>2026-04-18T16:35:55.368Z</time></trkpt><trkpt lat="45.0700917" lon="8.2184167"><ele>286.0</ele><time>2026-04-18T16:35:56.368Z</time></trkpt><trkpt lat="45.0700867" lon="8.218195"><ele>288.0</ele><time>2026-04-18T16:35:57.367Z</time></trkpt><trkpt lat="45.0700817" lon="8.2179783"><ele>290.6666666666667</ele><time>2026-04-18T16:35:58.368Z</time></trkpt><trkpt lat="45.0700767" lon="8.21776"><ele>293.33333333333337</ele><time>2026-04-18T16:35:59.368Z</time></trkpt><trkpt lat="45.070075" lon="8.2175433"><ele>296.0</ele><time>2026-04-18T16:36:00.368Z</time></trkpt><trkpt lat="45.070075" lon="8.21734"><ele>297.0</ele><time>2026-04-18T16:36:01.368Z</time></trkpt><trkpt lat="45.0700833" lon="8.2171483"><ele>298.0</ele><time>2026-04-18T16:36:02.368Z</time></trkpt><trkpt lat="45.070105" lon="8.2169683"><ele>299.0</ele><time>2026-04-18T16:36:03.368Z</time></trkpt><trkpt lat="45.07011" lon="8.2167867"><ele>300.0</ele><time>2026-04-18T16:36:04.368Z</time></trkpt><trkpt lat="45.0701467" lon="8.2166217"><ele>299.0</ele><time>2026-04-18T16:36:05.368Z</time></trkpt><trkpt lat="45.0701683" lon="8.2164733"><ele>298.0</ele><time>2026-04-18T16:36:06.367Z</time></trkpt><trkpt lat="45.0702" lon="8.2163217"><ele>297.0</ele><time>2026-04-18T16:36:07.367Z</time></trkpt><trkpt lat="45.0702433" lon="8.2161767"><ele>296.0</ele><time>2026-04-18T16:36:08.367Z</time></trkpt><trkpt lat="45.0703067" lon="8.2160267"><ele>296.0</ele><time>2026-04-18T16:36:09.368Z</time></trkpt><trkpt lat="45.0703967" lon="8.2158967"><ele>296.0</ele><time>2026-04-18T16:36:10.368Z</time></trkpt><trkpt lat="45.0705067" lon="8.2158167"><ele>296.0</ele><time>2026-04-18T16:36:11.368Z</time></trkpt><trkpt lat="45.07063" lon="8.2157417"><ele>296.0</ele><time>2026-04-18T16:36:12.367Z</time></trkpt><trkpt lat="45.0707517" lon="8.2156567"><ele>293.75</ele><time>2026-04-18T16:36:13.368Z</time></trkpt><trkpt lat="45.0708367" lon="8.2155217"><ele>291.5</ele><time>2026-04-18T16:36:14.368Z</time></trkpt><trkpt lat="45.0708983" lon="8.2153633"><ele>289.25</ele><time>2026-04-18T16:36:15.368Z</time></trkpt><trkpt lat="45.070935" lon="8.2152067"><ele>287.0</ele><time>2026-04-18T16:36:16.368Z</time></trkpt><trkpt lat="45.0709433" lon="8.2150467"><ele>287.0</ele><time>2026-04-18T16:36:17.368Z</time></trkpt><trkpt lat="45.0709367" lon="8.2148867"><ele>287.0</ele><time>2026-04-18T16:36:18.368Z</time></trkpt><trkpt lat="45.0709167" lon="8.2147283"><ele>287.0</ele><time>2026-04-18T16:36:19.368Z</time></trkpt><trkpt lat="45.0708817" lon="8.2145783"><ele>287.0</ele><time>2026-04-18T16:36:20.368Z</time></trkpt><trkpt lat="45.070855" lon="8.2144283"><ele>287.0</ele><time>2026-04-18T16:36:21.368Z</time></trkpt><trkpt lat="45.0708483" lon="8.2142683"><ele>285.5</ele><time>2026-04-18T16:36:22.367Z</time></trkpt><trkpt lat="45.07086" lon="8.2141083"><ele>284.0</ele><time>2026-04-18T16:36:23.368Z</time></trkpt><trkpt lat="45.07091" lon="8.2139483"><ele>282.5</ele><time>2026-04-18T16:36:24.367Z</time></trkpt><trkpt lat="45.0709717" lon="8.2137867"><ele>281.0</ele><time>2026-04-18T16:36:25.368Z</time></trkpt><trkpt lat="45.071055" lon="8.2136233"><ele>279.5</ele><time>2026-04-18T16:36:26.368Z</time></trkpt><trkpt lat="45.071135" lon="8.2134533"><ele>278.0</ele><time>2026-04-18T16:36:27.368Z</time></trkpt><trkpt lat="45.0712033" lon="8.2132883"><ele>276.5</ele><time>2026-04-18T16:36:28.368Z</time></trkpt><trkpt lat="45.0712633" lon="8.2131133"><ele>275.0</ele><time>2026-04-18T16:36:29.368Z</time></trkpt><trkpt lat="45.0713217" lon="8.2129417"><ele>273.25</ele><time>2026-04-18T16:36:30.367Z</time></trkpt><trkpt lat="45.0713817" lon="8.2127683"><ele>271.5</ele><time>2026-04-18T16:36:31.367Z</time></trkpt><trkpt lat="45.0714433" lon="8.2126"><ele>269.75</ele><time>2026-04-18T16:36:32.367Z</time></trkpt><trkpt lat="45.0715" lon="8.2124383"><ele>268.0</ele><time>2026-04-18T16:36:33.368Z</time></trkpt><trkpt lat="45.071565" lon="8.2122967"><ele>269.6</ele><time>2026-04-18T16:36:34.368Z</time></trkpt><trkpt lat="45.0716383" lon="8.2121767"><ele>271.20000000000005</ele><time>2026-04-18T16:36:35.368Z</time></trkpt><trkpt lat="45.07172" lon="8.2120717"><ele>272.8</ele><time>2026-04-18T16:36:36.368Z</time></trkpt><trkpt lat="45.0717933" lon="8.21198"><ele>274.40000000000003</ele><time>2026-04-18T16:36:37.368Z</time></trkpt><trkpt lat="45.0718633" lon="8.2118683"><ele>276.0</ele><time>2026-04-18T16:36:38.368Z</time></trkpt><trkpt lat="45.0719167" lon="8.2117217"><ele>276.0</ele><time>2026-04-18T16:36:39.368Z</time></trkpt><trkpt lat="45.0719333" lon="8.2115433"><ele>276.0</ele><time>2026-04-18T16:36:40.368Z</time></trkpt><trkpt lat="45.0718917" lon="8.2113517"><ele>276.0</ele><time>2026-04-18T16:36:41.367Z</time></trkpt><trkpt lat="45.07183" lon="8.21117"><ele>276.0</ele><time>2026-04-18T16:36:42.368Z</time></trkpt><trkpt lat="45.0717767" lon="8.21098"><ele>276.75</ele><time>2026-04-18T16:36:43.367Z</time></trkpt><trkpt lat="45.07172" lon="8.2107967"><ele>277.5</ele><time>2026-04-18T16:36:44.368Z</time></trkpt><trkpt lat="45.0716583" lon="8.21061"><ele>278.25</ele><time>2026-04-18T16:36:45.368Z</time></trkpt><trkpt lat="45.0716083" lon="8.210415"><ele>279.0</ele><time>2026-04-18T16:36:46.368Z</time></trkpt><trkpt lat="45.0715667" lon="8.2102267"><ele>277.75</ele><time>2026-04-18T16:36:47.368Z</time></trkpt><trkpt lat="45.0715483" lon="8.21005"><ele>276.5</ele><time>2026-04-18T16:36:48.368Z</time></trkpt><trkpt lat="45.0715633" lon="8.2098833"><ele>275.25</ele><time>2026-04-18T16:36:49.368Z</time></trkpt><trkpt lat="45.0715917" lon="8.209695"><ele>274.0</ele><time>2026-04-18T16:36:50.368Z</time></trkpt><trkpt lat="45.0716167" lon="8.209505"><ele>276.5</ele><time>2026-04-18T16:36:51.368Z</time></trkpt><trkpt lat="45.0716367" lon="8.20931"><ele>279.0</ele><time>2026-04-18T16:36:52.367Z</time></trkpt><trkpt lat="45.071655" lon="8.2091233"><ele>281.5</ele><time>2026-04-18T16:36:53.368Z</time></trkpt><trkpt lat="45.07168" lon="8.2089317"><ele>284.0</ele><time>2026-04-18T16:36:54.368Z</time></trkpt><trkpt lat="45.0717033" lon="8.2087267"><ele>284.25</ele><time>2026-04-18T16:36:55.367Z</time></trkpt><trkpt lat="45.07173" lon="8.2085267"><ele>284.5</ele><time>2026-04-18T16:36:56.368Z</time></trkpt><trkpt lat="45.0717817" lon="8.20834"><ele>284.75</ele><time>2026-04-18T16:36:57.367Z</time></trkpt><trkpt lat="45.0717917" lon="8.2081333"><ele>285.0</ele><time>2026-04-18T16:36:58.367Z</time></trkpt><trkpt lat="45.071805" lon="8.2079383"><ele>285.5</ele><time>2026-04-18T16:36:59.367Z</time></trkpt><trkpt lat="45.0718067" lon="8.2077433"><ele>286.0</ele><time>2026-04-18T16:37:00.368Z</time></trkpt><trkpt lat="45.0717917" lon="8.20755"><ele>286.5</ele><time>2026-04-18T16:37:01.367Z</time></trkpt><trkpt lat="45.0717567" lon="8.2073717"><ele>287.0</ele><time>2026-04-18T16:37:02.367Z</time></trkpt><trkpt lat="45.07171" lon="8.207205"><ele>287.75</ele><time>2026-04-18T16:37:03.368Z</time></trkpt><trkpt lat="45.0716617" lon="8.20704"><ele>288.5</ele><time>2026-04-18T16:37:04.368Z</time></trkpt><trkpt lat="45.0716133" lon="8.206885"><ele>289.25</ele><time>2026-04-18T16:37:05.368Z</time></trkpt><trkpt lat="45.0715717" lon="8.2067317"><ele>290.0</ele><time>2026-04-18T16:37:06.368Z</time></trkpt><trkpt lat="45.0715" lon="8.2065867"><ele>287.75</ele><time>2026-04-18T16:37:07.367Z</time></trkpt><trkpt lat="45.0714117" lon="8.2064517"><ele>285.5</ele><time>2026-04-18T16:37:08.368Z</time></trkpt><trkpt lat="45.071315" lon="8.20632"><ele>283.25</ele><time>2026-04-18T16:37:09.367Z</time></trkpt><trkpt lat="45.0712117" lon="8.2062033"><ele>281.0</ele><time>2026-04-18T16:37:10.367Z</time></trkpt><trkpt lat="45.0711267" lon="8.20609"><ele>281.0</ele><time>2026-04-18T16:37:11.368Z</time></trkpt><trkpt lat="45.0710533" lon="8.205985"><ele>281.0</ele><time>2026-04-18T16:37:12.368Z</time></trkpt><trkpt lat="45.070995" lon="8.20588"><ele>281.0</ele><time>2026-04-18T16:37:13.367Z</time></trkpt><trkpt lat="45.070965" lon="8.2057567"><ele>281.0</ele><time>2026-04-18T16:37:14.368Z</time></trkpt><trkpt lat="45.0709483" lon="8.2056183"><ele>281.0</ele><time>2026-04-18T16:37:15.368Z</time></trkpt><trkpt lat="45.07095" lon="8.2054733"><ele>280.40000000000003</ele><time>2026-04-18T16:37:16.368Z</time></trkpt><trkpt lat="45.0709733" lon="8.2053383"><ele>279.8</ele><time>2026-04-18T16:37:17.367Z</time></trkpt><trkpt lat="45.0710283" lon="8.2052217"><ele>279.20000000000005</ele><time>2026-04-18T16:37:18.368Z</time></trkpt><trkpt lat="45.0710883" lon="8.2051367"><ele>278.6</ele><time>2026-04-18T16:37:19.368Z</time></trkpt><trkpt lat="45.0711533" lon="8.2050633"><ele>278.0</ele><time>2026-04-18T16:37:20.367Z</time></trkpt><trkpt lat="45.0712367" lon="8.205015"><ele>278.0</ele><time>2026-04-18T16:37:21.368Z</time></trkpt><trkpt lat="45.0713683" lon="8.2050267"><ele>278.0</ele><time>2026-04-18T16:37:22.368Z</time></trkpt><trkpt lat="45.07153" lon="8.205115"><ele>278.0</ele><time>2026-04-18T16:37:23.367Z</time></trkpt><trkpt lat="45.0717067" lon="8.20519"><ele>277.5</ele><time>2026-04-18T16:37:24.367Z</time></trkpt><trkpt lat="45.0718667" lon="8.2052483"><ele>277.0</ele><time>2026-04-18T16:37:25.368Z</time></trkpt><trkpt lat="45.0720067" lon="8.2052767"><ele>276.5</ele><time>2026-04-18T16:37:26.368Z</time></trkpt><trkpt lat="45.0721433" lon="8.2052667"><ele>276.0</ele><time>2026-04-18T16:37:27.368Z</time></trkpt><trkpt lat="45.072275" lon="8.2052183"><ele>276.0</ele><time>2026-04-18T16:37:28.368Z</time></trkpt><trkpt lat="45.072405" lon="8.2051333"><ele>276.0</ele><time>2026-04-18T16:37:29.367Z</time></trkpt><trkpt lat="45.0725333" lon="8.20504"><ele>276.0</ele><time>2026-04-18T16:37:30.368Z</time></trkpt><trkpt lat="45.0726567" lon="8.204945"><ele>276.0</ele><time>2026-04-18T16:37:31.367Z</time></trkpt><trkpt lat="45.07278" lon="8.2048417"><ele>274.25</ele><time>2026-04-18T16:37:32.368Z</time></trkpt><trkpt lat="45.072885" lon="8.2047333"><ele>272.5</ele><time>2026-04-18T16:37:33.367Z</time></trkpt><trkpt lat="45.0729967" lon="8.2046717"><ele>270.75</ele><time>2026-04-18T16:37:34.368Z</time></trkpt><trkpt lat="45.07311" lon="8.2046333"><ele>269.0</ele><time>2026-04-18T16:37:35.368Z</time></trkpt><trkpt lat="45.0732233" lon="8.20462"><ele>268.25</ele><time>2026-04-18T16:37:36.368Z</time></trkpt><trkpt lat="45.0733467" lon="8.204625"><ele>267.5</ele><time>2026-04-18T16:37:37.368Z</time></trkpt><trkpt lat="45.0734767" lon="8.2046617"><ele>266.75</ele><time>2026-04-18T16:37:38.368Z</time></trkpt><trkpt lat="45.0736067" lon="8.20472"><ele>266.0</ele><time>2026-04-18T16:37:39.367Z</time></trkpt><trkpt lat="45.0737233" lon="8.2048167"><ele>269.25</ele><time>2026-04-18T16:37:40.368Z</time></trkpt><trkpt lat="45.073845" lon="8.20493"><ele>272.5</ele><time>2026-04-18T16:37:41.367Z</time></trkpt><trkpt lat="45.07395" lon="8.2050067"><ele>275.75</ele><time>2026-04-18T16:37:42.368Z</time></trkpt><trkpt lat="45.0740517" lon="8.205045"><ele>279.0</ele><time>2026-04-18T16:37:43.368Z</time></trkpt><trkpt lat="45.0741383" lon="8.2050333"><ele>279.0</ele><time>2026-04-18T16:37:44.368Z</time></trkpt><trkpt lat="45.07422" lon="8.204945"><ele>279.0</ele><time>2026-04-18T16:37:45.368Z</time></trkpt><trkpt lat="45.074275" lon="8.204815"><ele>279.0</ele><time>2026-04-18T16:37:46.368Z</time></trkpt><trkpt lat="45.0743067" lon="8.20465"><ele>279.0</ele><time>2026-04-18T16:37:47.368Z</time></trkpt><trkpt lat="45.0743083" lon="8.2044667"><ele>278.0</ele><time>2026-04-18T16:37:48.367Z</time></trkpt><trkpt lat="45.0742933" lon="8.204305"><ele>277.0</ele><time>2026-04-18T16:37:49.368Z</time></trkpt><trkpt lat="45.0742517" lon="8.2041433"><ele>276.0</ele><time>2026-04-18T16:37:50.368Z</time></trkpt><trkpt lat="45.0741767" lon="8.20399"><ele>275.0</ele><time>2026-04-18T16:37:51.367Z</time></trkpt><trkpt lat="45.0740767" lon="8.20384"><ele>272.25</ele><time>2026-04-18T16:37:52.367Z</time></trkpt><trkpt lat="45.0739717" lon="8.203705"><ele>269.5</ele><time>2026-04-18T16:37:53.368Z</time></trkpt><trkpt lat="45.07387" lon="8.2035817"><ele>266.75</ele><time>2026-04-18T16:37:54.368Z</time></trkpt><trkpt lat="45.0737717" lon="8.2034483"><ele>264.0</ele><time>2026-04-18T16:37:55.368Z</time></trkpt><trkpt lat="45.0736883" lon="8.203295"><ele>266.5</ele><time>2026-04-18T16:37:56.368Z</time></trkpt><trkpt lat="45.0736133" lon="8.2031333"><ele>269.0</ele><time>2026-04-18T16:37:57.367Z</time></trkpt><trkpt lat="45.07354" lon="8.20297"><ele>271.5</ele><time>2026-04-18T16:37:58.368Z</time></trkpt><trkpt lat="45.07349" lon="8.20282"><ele>274.0</ele><time>2026-04-18T16:37:59.367Z</time></trkpt><trkpt lat="45.0734383" lon="8.2026483"><ele>274.0</ele><time>2026-04-18T16:38:00.368Z</time></trkpt><trkpt lat="45.0734" lon="8.2024767"><ele>274.0</ele><time>2026-04-18T16:38:01.367Z</time></trkpt><trkpt lat="45.073375" lon="8.2022933"><ele>274.0</ele><time>2026-04-18T16:38:02.368Z</time></trkpt><trkpt lat="45.0733667" lon="8.202095"><ele>274.0</ele><time>2026-04-18T16:38:03.368Z</time></trkpt><trkpt lat="45.0733733" lon="8.2019083"><ele>274.5</ele><time>2026-04-18T16:38:04.368Z</time></trkpt><trkpt lat="45.073375" lon="8.2017083"><ele>275.0</ele><time>2026-04-18T16:38:05.368Z</time></trkpt><trkpt lat="45.0733533" lon="8.2015117"><ele>275.5</ele><time>2026-04-18T16:38:06.368Z</time></trkpt><trkpt lat="45.07332" lon="8.2013133"><ele>276.0</ele><time>2026-04-18T16:38:07.368Z</time></trkpt><trkpt lat="45.07326" lon="8.2011217"><ele>275.25</ele><time>2026-04-18T16:38:08.368Z</time></trkpt><trkpt lat="45.073185" lon="8.2009317"><ele>274.5</ele><time>2026-04-18T16:38:09.368Z</time></trkpt><trkpt lat="45.0731" lon="8.2007617"><ele>273.75</ele><time>2026-04-18T16:38:10.368Z</time></trkpt><trkpt lat="45.0730233" lon="8.200585"><ele>273.0</ele><time>2026-04-18T16:38:11.368Z</time></trkpt><trkpt lat="45.0729583" lon="8.2004133"><ele>273.0</ele><time>2026-04-18T16:38:12.367Z</time></trkpt><trkpt lat="45.0728783" lon="8.200225"><ele>273.0</ele><time>2026-04-18T16:38:13.367Z</time></trkpt><trkpt lat="45.0728" lon="8.20004"><ele>273.0</ele><time>2026-04-18T16:38:14.368Z</time></trkpt><trkpt lat="45.0727217" lon="8.1998583"><ele>274.5</ele><time>2026-04-18T16:38:15.368Z</time></trkpt><trkpt lat="45.072645" lon="8.19967"><ele>276.0</ele><time>2026-04-18T16:38:16.368Z</time></trkpt><trkpt lat="45.072565" lon="8.199495"><ele>277.5</ele><time>2026-04-18T16:38:17.367Z</time></trkpt><trkpt lat="45.0724883" lon="8.1993183"><ele>279.0</ele><time>2026-04-18T16:38:18.368Z</time></trkpt><trkpt lat="45.0724083" lon="8.1991417"><ele>273.25</ele><time>2026-04-18T16:38:19.368Z</time></trkpt><trkpt lat="45.07234" lon="8.1989783"><ele>267.5</ele><time>2026-04-18T16:38:20.368Z</time></trkpt><trkpt lat="45.0722967" lon="8.1988217"><ele>261.75</ele><time>2026-04-18T16:38:21.368Z</time></trkpt><trkpt lat="45.0722767" lon="8.19867"><ele>256.0</ele><time>2026-04-18T16:38:22.367Z</time></trkpt><trkpt lat="45.0723" lon="8.1985333"><ele>256.0</ele><time>2026-04-18T16:38:23.368Z</time></trkpt><trkpt lat="45.07236" lon="8.198395"><ele>256.0</ele><time>2026-04-18T16:38:24.367Z</time></trkpt><trkpt lat="45.0724517" lon="8.198285"><ele>256.0</ele><time>2026-04-18T16:38:25.367Z</time></trkpt><trkpt lat="45.0725567" lon="8.1981817"><ele>256.0</ele><time>2026-04-18T16:38:26.368Z</time></trkpt><trkpt lat="45.0726717" lon="8.1980883"><ele>257.5</ele><time>2026-04-18T16:38:27.367Z</time></trkpt><trkpt lat="45.0728" lon="8.1979967"><ele>259.0</ele><time>2026-04-18T16:38:28.368Z</time></trkpt><trkpt lat="45.0729283" lon="8.1979033"><ele>260.5</ele><time>2026-04-18T16:38:29.368Z</time></trkpt><trkpt lat="45.0730633" lon="8.1978133"><ele>262.0</ele><time>2026-04-18T16:38:30.368Z</time></trkpt><trkpt lat="45.0732" lon="8.197755"><ele>264.66666666666663</ele><time>2026-04-18T16:38:31.368Z</time></trkpt><trkpt lat="45.0733433" lon="8.197695"><ele>267.3333333333333</ele><time>2026-04-18T16:38:32.368Z</time></trkpt><trkpt lat="45.0734883" lon="8.1976767"><ele>270.0</ele><time>2026-04-18T16:38:33.368Z</time></trkpt><trkpt lat="45.0736433" lon="8.1976817"><ele>270.0</ele><time>2026-04-18T16:38:34.367Z</time></trkpt><trkpt lat="45.0737883" lon="8.1976783"><ele>270.0</ele><time>2026-04-18T16:38:35.368Z</time></trkpt><trkpt lat="45.0739417" lon="8.1976617"><ele>270.0</ele><time>2026-04-18T16:38:36.368Z</time></trkpt><trkpt lat="45.0740833" lon="8.197605"><ele>270.0</ele><time>2026-04-18T16:38:37.367Z</time></trkpt><trkpt lat="45.0742183" lon="8.1975117"><ele>271.0</ele><time>2026-04-18T16:38:38.368Z</time></trkpt><trkpt lat="45.0743367" lon="8.1974133"><ele>272.0</ele><time>2026-04-18T16:38:39.367Z</time></trkpt><trkpt lat="45.0744683" lon="8.197345"><ele>273.0</ele><time>2026-04-18T16:38:40.367Z</time></trkpt><trkpt lat="45.0745983" lon="8.1972783"><ele>274.0</ele><time>2026-04-18T16:38:41.368Z</time></trkpt><trkpt lat="45.074745" lon="8.1972583"><ele>273.25</ele><time>2026-04-18T16:38:42.368Z</time></trkpt><trkpt lat="45.0748817" lon="8.197235"><ele>272.5</ele><time>2026-04-18T16:38:43.368Z</time></trkpt><trkpt lat="45.0750133" lon="8.19721"><ele>271.75</ele><time>2026-04-18T16:38:44.368Z</time></trkpt><trkpt lat="45.0751317" lon="8.19719"><ele>271.0</ele><time>2026-04-18T16:38:45.368Z</time></trkpt><trkpt lat="45.0752283" lon="8.19716"><ele>271.0</ele><time>2026-04-18T16:38:46.368Z</time></trkpt><trkpt lat="45.0753067" lon="8.19709"><ele>271.0</ele><time>2026-04-18T16:38:47.368Z</time></trkpt><trkpt lat="45.0753683" lon="8.197005"><ele>271.0</ele><time>2026-04-18T16:38:48.368Z</time></trkpt><trkpt lat="45.0754183" lon="8.1968717"><ele>271.0</ele><time>2026-04-18T16:38:49.368Z</time></trkpt><trkpt lat="45.0754333" lon="8.1967"><ele>271.0</ele><time>2026-04-18T16:38:50.368Z</time></trkpt><trkpt lat="45.075425" lon="8.1965233"><ele>270.0</ele><time>2026-04-18T16:38:51.368Z</time></trkpt><trkpt lat="45.0754383" lon="8.196355"><ele>269.0</ele><time>2026-04-18T16:38:52.368Z</time></trkpt><trkpt lat="45.0754767" lon="8.1961733"><ele>268.0</ele><time>2026-04-18T16:38:53.368Z</time></trkpt><trkpt lat="45.0755383" lon="8.1959983"><ele>267.0</ele><time>2026-04-18T16:38:54.367Z</time></trkpt><trkpt lat="45.0756283" lon="8.1958467"><ele>267.0</ele><time>2026-04-18T16:38:55.367Z</time></trkpt><trkpt lat="45.07573" lon="8.1957017"><ele>267.0</ele><time>2026-04-18T16:38:56.368Z</time></trkpt><trkpt lat="45.0758333" lon="8.19558"><ele>267.0</ele><time>2026-04-18T16:38:57.368Z</time></trkpt><trkpt lat="45.0759617" lon="8.1954533"><ele>267.0</ele><time>2026-04-18T16:38:58.368Z</time></trkpt><trkpt lat="45.0760817" lon="8.1953533"><ele>267.25</ele><time>2026-04-18T16:38:59.368Z</time></trkpt><trkpt lat="45.07621" lon="8.1953117"><ele>267.5</ele><time>2026-04-18T16:39:00.368Z</time></trkpt><trkpt lat="45.0763417" lon="8.1952867"><ele>267.75</ele><time>2026-04-18T16:39:01.368Z</time></trkpt><trkpt lat="45.0764667" lon="8.1953"><ele>268.0</ele><time>2026-04-18T16:39:02.368Z</time></trkpt><trkpt lat="45.076595" lon="8.1953417"><ele>269.4</ele><time>2026-04-18T16:39:03.368Z</time></trkpt><trkpt lat="45.0767117" lon="8.1953867"><ele>270.8</ele><time>2026-04-18T16:39:04.368Z</time></trkpt><trkpt lat="45.0768167" lon="8.1954183"><ele>272.2</ele><time>2026-04-18T16:39:05.368Z</time></trkpt><trkpt lat="45.0769217" lon="8.195425"><ele>273.6</ele><time>2026-04-18T16:39:06.367Z</time></trkpt><trkpt lat="45.0770133" lon="8.1953567"><ele>275.0</ele><time>2026-04-18T16:39:07.368Z</time></trkpt><trkpt lat="45.0771" lon="8.19526"><ele>275.0</ele><time>2026-04-18T16:39:08.368Z</time></trkpt><trkpt lat="45.0771517" lon="8.19512"><ele>275.0</ele><time>2026-04-18T16:39:09.367Z</time></trkpt><trkpt lat="45.07721" lon="8.194995"><ele>275.0</ele><time>2026-04-18T16:39:10.367Z</time></trkpt><trkpt lat="45.0772767" lon="8.1948583"><ele>275.0</ele><time>2026-04-18T16:39:11.368Z</time></trkpt><trkpt lat="45.07735" lon="8.1946983"><ele>275.25</ele><time>2026-04-18T16:39:12.367Z</time></trkpt><trkpt lat="45.0774367" lon="8.1945617"><ele>275.5</ele><time>2026-04-18T16:39:13.367Z</time></trkpt><trkpt lat="45.0775117" lon="8.1944033"><ele>275.75</ele><time>2026-04-18T16:39:14.368Z</time></trkpt><trkpt lat="45.0775917" lon="8.1942367"><ele>276.0</ele><time>2026-04-18T16:39:15.368Z</time></trkpt><trkpt lat="45.0776783" lon="8.19408"><ele>275.75</ele><time>2026-04-18T16:39:16.367Z</time></trkpt><trkpt lat="45.0777783" lon="8.193935"><ele>275.5</ele><time>2026-04-18T16:39:17.368Z</time></trkpt><trkpt lat="45.0778967" lon="8.1938033"><ele>275.25</ele><time>2026-04-18T16:39:18.368Z</time></trkpt><trkpt lat="45.078015" lon="8.1936783"><ele>275.0</ele><time>2026-04-18T16:39:19.368Z</time></trkpt><trkpt lat="45.0781283" lon="8.193565"><ele>275.0</ele><time>2026-04-18T16:39:20.367Z</time></trkpt><trkpt lat="45.07825" lon="8.193455"><ele>275.0</ele><time>2026-04-18T16:39:21.367Z</time></trkpt><trkpt lat="45.0783517" lon="8.1933417"><ele>275.0</ele><time>2026-04-18T16:39:22.367Z</time></trkpt><trkpt lat="45.0784733" lon="8.1932583"><ele>275.0</ele><time>2026-04-18T16:39:23.368Z</time></trkpt><trkpt lat="45.078595" lon="8.1932133"><ele>276.5</ele><time>2026-04-18T16:39:24.368Z</time></trkpt><trkpt lat="45.0787167" lon="8.1931817"><ele>278.0</ele><time>2026-04-18T16:39:25.367Z</time></trkpt><trkpt lat="45.0788367" lon="8.19316"><ele>279.5</ele><time>2026-04-18T16:39:26.368Z</time></trkpt><trkpt lat="45.0789633" lon="8.193155"><ele>281.0</ele><time>2026-04-18T16:39:27.367Z</time></trkpt><trkpt lat="45.0791" lon="8.1931783"><ele>284.25</ele><time>2026-04-18T16:39:28.367Z</time></trkpt><trkpt lat="45.0792433" lon="8.193225"><ele>287.5</ele><time>2026-04-18T16:39:29.367Z</time></trkpt><trkpt lat="45.0793867" lon="8.1932667"><ele>290.75</ele><time>2026-04-18T16:39:30.368Z</time></trkpt><trkpt lat="45.0795367" lon="8.1933183"><ele>294.0</ele><time>2026-04-18T16:39:31.367Z</time></trkpt><trkpt lat="45.0796783" lon="8.1933633"><ele>294.0</ele><time>2026-04-18T16:39:32.367Z</time></trkpt><trkpt lat="45.0798183" lon="8.1933983"><ele>294.0</ele><time>2026-04-18T16:39:33.368Z</time></trkpt><trkpt lat="45.079975" lon="8.1934467"><ele>294.0</ele><time>2026-04-18T16:39:34.368Z</time></trkpt><trkpt lat="45.080135" lon="8.1935033"><ele>294.6666666666667</ele><time>2026-04-18T16:39:35.367Z</time></trkpt><trkpt lat="45.080295" lon="8.19355"><ele>295.33333333333337</ele><time>2026-04-18T16:39:36.368Z</time></trkpt><trkpt lat="45.0804533" lon="8.1936033"><ele>296.0</ele><time>2026-04-18T16:39:37.368Z</time></trkpt><trkpt lat="45.0805933" lon="8.1936567"><ele>296.0</ele><time>2026-04-18T16:39:38.368Z</time></trkpt><trkpt lat="45.0807117" lon="8.1937017"><ele>296.0</ele><time>2026-04-18T16:39:39.368Z</time></trkpt><trkpt lat="45.0808467" lon="8.1937617"><ele>296.0</ele><time>2026-04-18T16:39:40.367Z</time></trkpt><trkpt lat="45.0809617" lon="8.1938133"><ele>296.0</ele><time>2026-04-18T16:39:41.367Z</time></trkpt><trkpt lat="45.0810683" lon="8.19381"><ele>297.75</ele><time>2026-04-18T16:39:42.368Z</time></trkpt><trkpt lat="45.0811667" lon="8.193755"><ele>299.5</ele><time>2026-04-18T16:39:43.368Z</time></trkpt><trkpt lat="45.0812517" lon="8.1936583"><ele>301.25</ele><time>2026-04-18T16:39:44.367Z</time></trkpt><trkpt lat="45.0813267" lon="8.1935233"><ele>303.0</ele><time>2026-04-18T16:39:45.368Z</time></trkpt><trkpt lat="45.0813883" lon="8.193375"><ele>303.0</ele><time>2026-04-18T16:39:46.368Z</time></trkpt><trkpt lat="45.0814" lon="8.1931967"><ele>303.0</ele><time>2026-04-18T16:39:47.368Z</time></trkpt><trkpt lat="45.0813967" lon="8.1930117"><ele>303.0</ele><time>2026-04-18T16:39:48.368Z</time></trkpt><trkpt lat="45.0813833" lon="8.1928467"><ele>303.0</ele><time>2026-04-18T16:39:49.368Z</time></trkpt><trkpt lat="45.08136" lon="8.1926833"><ele>303.5</ele><time>2026-04-18T16:39:50.368Z</time></trkpt><trkpt lat="45.0813067" lon="8.19253"><ele>304.0</ele><time>2026-04-18T16:39:51.368Z</time></trkpt><trkpt lat="45.0812217" lon="8.19238"><ele>304.5</ele><time>2026-04-18T16:39:52.368Z</time></trkpt><trkpt lat="45.081125" lon="8.1922467"><ele>305.0</ele><time>2026-04-18T16:39:53.367Z</time></trkpt><trkpt lat="45.0810517" lon="8.19212"><ele>305.2</ele><time>2026-04-18T16:39:54.368Z</time></trkpt><trkpt lat="45.0809833" lon="8.1919717"><ele>305.4</ele><time>2026-04-18T16:39:55.368Z</time></trkpt><trkpt lat="45.08095" lon="8.191835"><ele>305.6</ele><time>2026-04-18T16:39:56.368Z</time></trkpt><trkpt lat="45.0809033" lon="8.1917117"><ele>305.8</ele><time>2026-04-18T16:39:57.367Z</time></trkpt><trkpt lat="45.0808417" lon="8.191625"><ele>306.0</ele><time>2026-04-18T16:39:58.368Z</time></trkpt><trkpt lat="45.0807283" lon="8.1916233"><ele>306.0</ele><time>2026-04-18T16:39:59.368Z</time></trkpt><trkpt lat="45.0806017" lon="8.1916583"><ele>306.0</ele><time>2026-04-18T16:40:00.368Z</time></trkpt><trkpt lat="45.0805017" lon="8.1916667"><ele>306.0</ele><time>2026-04-18T16:40:01.368Z</time></trkpt><trkpt lat="45.0804217" lon="8.191635"><ele>306.0</ele><time>2026-04-18T16:40:02.367Z</time></trkpt><trkpt lat="45.0803417" lon="8.191575"><ele>306.0</ele><time>2026-04-18T16:40:03.368Z</time></trkpt><trkpt lat="45.08028" lon="8.1914867"><ele>309.0</ele><time>2026-04-18T16:40:04.367Z</time></trkpt><trkpt lat="45.0802333" lon="8.1913783"><ele>312.0</ele><time>2026-04-18T16:40:05.367Z</time></trkpt><trkpt lat="45.0802117" lon="8.1912617"><ele>315.0</ele><time>2026-04-18T16:40:06.368Z</time></trkpt><trkpt lat="45.0801783" lon="8.191135"><ele>318.0</ele><time>2026-04-18T16:40:07.368Z</time></trkpt><trkpt lat="45.0801317" lon="8.191025"><ele>321.0</ele><time>2026-04-18T16:40:08.367Z</time></trkpt><trkpt lat="45.0800683" lon="8.1909483"><ele>324.0</ele><time>2026-04-18T16:40:09.368Z</time></trkpt><trkpt lat="45.08" lon="8.1909017"><ele>321.8333333333333</ele><time>2026-04-18T16:40:10.368Z</time></trkpt><trkpt lat="45.0798967" lon="8.190885"><ele>319.6666666666667</ele><time>2026-04-18T16:40:11.368Z</time></trkpt><trkpt lat="45.0798083" lon="8.1908667"><ele>317.5</ele><time>2026-04-18T16:40:12.367Z</time></trkpt><trkpt lat="45.0797283" lon="8.190825"><ele>315.33333333333337</ele><time>2026-04-18T16:40:13.368Z</time></trkpt><trkpt lat="45.0796633" lon="8.1907583"><ele>313.1666666666667</ele><time>2026-04-18T16:40:14.368Z</time></trkpt><trkpt lat="45.0796217" lon="8.1906533"><ele>311.0</ele><time>2026-04-18T16:40:15.368Z</time></trkpt><trkpt lat="45.0796033" lon="8.1905267"><ele>311.0</ele><time>2026-04-18T16:40:16.368Z</time></trkpt><trkpt lat="45.0796117" lon="8.19036"><ele>311.0</ele><time>2026-04-18T16:40:17.367Z</time></trkpt><trkpt lat="45.079625" lon="8.1901683"><ele>311.0</ele><time>2026-04-18T16:40:18.368Z</time></trkpt><trkpt lat="45.0796333" lon="8.1899533"><ele>311.0</ele><time>2026-04-18T16:40:19.367Z</time></trkpt><trkpt lat="45.07964" lon="8.1897567"><ele>311.25</ele><time>2026-04-18T16:40:20.367Z</time></trkpt><trkpt lat="45.07964" lon="8.189565"><ele>311.5</ele><time>2026-04-18T16:40:21.368Z</time></trkpt><trkpt lat="45.0796467" lon="8.189375"><ele>311.75</ele><time>2026-04-18T16:40:22.368Z</time></trkpt><trkpt lat="45.0796583" lon="8.1891883"><ele>312.0</ele><time>2026-04-18T16:40:23.368Z</time></trkpt><trkpt lat="45.079685" lon="8.1889983"><ele>313.0</ele><time>2026-04-18T16:40:24.367Z</time></trkpt><trkpt lat="45.0797317" lon="8.1888183"><ele>314.0</ele><time>2026-04-18T16:40:25.368Z</time></trkpt><trkpt lat="45.07979" lon="8.188635"><ele>315.0</ele><time>2026-04-18T16:40:26.368Z</time></trkpt><trkpt lat="45.07985" lon="8.1884633"><ele>316.0</ele><time>2026-04-18T16:40:27.368Z</time></trkpt><trkpt lat="45.0799133" lon="8.1882917"><ele>318.75</ele><time>2026-04-18T16:40:28.368Z</time></trkpt><trkpt lat="45.0799683" lon="8.1881483"><ele>321.5</ele><time>2026-04-18T16:40:29.367Z</time></trkpt><trkpt lat="45.0800183" lon="8.1879917"><ele>324.25</ele><time>2026-04-18T16:40:30.368Z</time></trkpt><trkpt lat="45.0800417" lon="8.1878117"><ele>327.0</ele><time>2026-04-18T16:40:31.368Z</time></trkpt><trkpt lat="45.08005" lon="8.18764"><ele>327.0</ele><time>2026-04-18T16:40:32.367Z</time></trkpt><trkpt lat="45.0800633" lon="8.187475"><ele>327.0</ele><time>2026-04-18T16:40:33.367Z</time></trkpt><trkpt lat="45.0800817" lon="8.1873033"><ele>327.0</ele><time>2026-04-18T16:40:34.368Z</time></trkpt><trkpt lat="45.0801117" lon="8.187155"><ele>327.0</ele><time>2026-04-18T16:40:35.368Z</time></trkpt><trkpt lat="45.0801367" lon="8.1870117"><ele>326.0</ele><time>2026-04-18T16:40:36.367Z</time></trkpt><trkpt lat="45.0801267" lon="8.1868767"><ele>325.0</ele><time>2026-04-18T16:40:37.368Z</time></trkpt><trkpt lat="45.08008" lon="8.1867267"><ele>324.0</ele><time>2026-04-18T16:40:38.368Z</time></trkpt><trkpt lat="45.0800233" lon="8.1865783"><ele>323.0</ele><time>2026-04-18T16:40:39.367Z</time></trkpt><trkpt lat="45.0799683" lon="8.1864167"><ele>325.0</ele><time>2026-04-18T16:40:40.368Z</time></trkpt><trkpt lat="45.0799167" lon="8.18625"><ele>327.0</ele><time>2026-04-18T16:40:41.368Z</time></trkpt><trkpt lat="45.07987" lon="8.1860617"><ele>329.0</ele><time>2026-04-18T16:40:42.368Z</time></trkpt><trkpt lat="45.079835" lon="8.1858883"><ele>331.0</ele><time>2026-04-18T16:40:43.368Z</time></trkpt><trkpt lat="45.07982" lon="8.1857083"><ele>327.5</ele><time>2026-04-18T16:40:44.367Z</time></trkpt><trkpt lat="45.0798167" lon="8.18555"><ele>324.0</ele><time>2026-04-18T16:40:45.368Z</time></trkpt><trkpt lat="45.0798467" lon="8.1853883"><ele>320.5</ele><time>2026-04-18T16:40:46.367Z</time></trkpt><trkpt lat="45.0799117" lon="8.18524"><ele>317.0</ele><time>2026-04-18T16:40:47.368Z</time></trkpt><trkpt lat="45.0799983" lon="8.1851033"><ele>315.5</ele><time>2026-04-18T16:40:48.368Z</time></trkpt><trkpt lat="45.0801067" lon="8.1849867"><ele>314.0</ele><time>2026-04-18T16:40:49.367Z</time></trkpt><trkpt lat="45.0802333" lon="8.1848983"><ele>312.5</ele><time>2026-04-18T16:40:50.368Z</time></trkpt><trkpt lat="45.08038" lon="8.1848217"><ele>311.0</ele><time>2026-04-18T16:40:51.368Z</time></trkpt><trkpt lat="45.0805133" lon="8.1847383"><ele>307.75</ele><time>2026-04-18T16:40:52.368Z</time></trkpt><trkpt lat="45.0806283" lon="8.1846483"><ele>304.5</ele><time>2026-04-18T16:40:53.368Z</time></trkpt><trkpt lat="45.0807333" lon="8.1845417"><ele>301.25</ele><time>2026-04-18T16:40:54.367Z</time></trkpt><trkpt lat="45.0808333" lon="8.184445"><ele>298.0</ele><time>2026-04-18T16:40:55.368Z</time></trkpt><trkpt lat="45.0809283" lon="8.1843617"><ele>298.0</ele><time>2026-04-18T16:40:56.367Z</time></trkpt><trkpt lat="45.0810333" lon="8.1843067"><ele>298.0</ele><time>2026-04-18T16:40:57.368Z</time></trkpt><trkpt lat="45.0811433" lon="8.1842867"><ele>298.0</ele><time>2026-04-18T16:40:58.368Z</time></trkpt><trkpt lat="45.0812617" lon="8.1842933"><ele>298.0</ele><time>2026-04-18T16:40:59.367Z</time></trkpt><trkpt lat="45.0813833" lon="8.1843117"><ele>298.0</ele><time>2026-04-18T16:41:00.368Z</time></trkpt><trkpt lat="45.0815017" lon="8.1843167"><ele>298.0</ele><time>2026-04-18T16:41:01.368Z</time></trkpt><trkpt lat="45.081625" lon="8.1842717"><ele>298.0</ele><time>2026-04-18T16:41:02.368Z</time></trkpt><trkpt lat="45.0817217" lon="8.184175"><ele>298.0</ele><time>2026-04-18T16:41:03.367Z</time></trkpt><trkpt lat="45.0818" lon="8.184045"><ele>294.75</ele><time>2026-04-18T16:41:04.368Z</time></trkpt><trkpt lat="45.0818767" lon="8.1839017"><ele>291.5</ele><time>2026-04-18T16:41:05.368Z</time></trkpt><trkpt lat="45.0819717" lon="8.1837717"><ele>288.25</ele><time>2026-04-18T16:41:06.368Z</time></trkpt><trkpt lat="45.0820817" lon="8.1836617"><ele>285.0</ele><time>2026-04-18T16:41:07.368Z</time></trkpt><trkpt lat="45.082195" lon="8.1835733"><ele>285.0</ele><time>2026-04-18T16:41:08.367Z</time></trkpt><trkpt lat="45.0823" lon="8.1834967"><ele>285.0</ele><time>2026-04-18T16:41:09.368Z</time></trkpt><trkpt lat="45.0823933" lon="8.183425"><ele>285.0</ele><time>2026-04-18T16:41:10.368Z</time></trkpt><trkpt lat="45.0824583" lon="8.1833533"><ele>285.0</ele><time>2026-04-18T16:41:11.367Z</time></trkpt><trkpt lat="45.0825017" lon="8.1832183"><ele>285.0</ele><time>2026-04-18T16:41:13.367Z</time></trkpt><trkpt lat="45.0824233" lon="8.1831333"><ele>285.0</ele><time>2026-04-18T16:41:15.368Z</time></trkpt><trkpt lat="45.0823333" lon="8.1831683"><ele>285.0</ele><time>2026-04-18T16:41:16.368Z</time></trkpt><trkpt lat="45.0822467" lon="8.183245"><ele>285.0</ele><time>2026-04-18T16:41:17.367Z</time></trkpt><trkpt lat="45.08214" lon="8.183355"><ele>285.0</ele><time>2026-04-18T16:41:18.368Z</time></trkpt><trkpt lat="45.0820233" lon="8.18346"><ele>285.0</ele><time>2026-04-18T16:41:19.368Z</time></trkpt><trkpt lat="45.0819083" lon="8.18354"><ele>285.0</ele><time>2026-04-18T16:41:20.368Z</time></trkpt><trkpt lat="45.081795" lon="8.1836383"><ele>285.0</ele><time>2026-04-18T16:41:21.368Z</time></trkpt><trkpt lat="45.0816983" lon="8.1837217"><ele>285.0</ele><time>2026-04-18T16:41:22.368Z</time></trkpt><trkpt lat="45.0816033" lon="8.1837933"><ele>284.0</ele><time>2026-04-18T16:41:23.368Z</time></trkpt><trkpt lat="45.0814933" lon="8.183835"><ele>283.0</ele><time>2026-04-18T16:41:24.367Z</time></trkpt><trkpt lat="45.0813833" lon="8.1838483"><ele>282.0</ele><time>2026-04-18T16:41:25.368Z</time></trkpt><trkpt lat="45.0812867" lon="8.1838233"><ele>281.0</ele><time>2026-04-18T16:41:26.367Z</time></trkpt><trkpt lat="45.0812083" lon="8.1837783"><ele>280.0</ele><time>2026-04-18T16:41:27.367Z</time></trkpt><trkpt lat="45.0811433" lon="8.1837067"><ele>280.0</ele><time>2026-04-18T16:41:28.367Z</time></trkpt><trkpt lat="45.0811" lon="8.1836133"><ele>280.0</ele><time>2026-04-18T16:41:29.366Z</time></trkpt><trkpt lat="45.0810433" lon="8.18353"><ele>280.0</ele><time>2026-04-18T16:41:30.366Z</time></trkpt><trkpt lat="45.0809667" lon="8.183485"><ele>280.0</ele><time>2026-04-18T16:41:31.367Z</time></trkpt><trkpt lat="45.080875" lon="8.1834917"><ele>280.0</ele><time>2026-04-18T16:41:32.366Z</time></trkpt><trkpt lat="45.0807867" lon="8.1835233"><ele>280.0</ele><time>2026-04-18T16:41:33.367Z</time></trkpt><trkpt lat="45.0806933" lon="8.1836"><ele>278.4</ele><time>2026-04-18T16:41:34.366Z</time></trkpt><trkpt lat="45.0806" lon="8.1836917"><ele>276.8</ele><time>2026-04-18T16:41:35.366Z</time></trkpt><trkpt lat="45.080505" lon="8.18377"><ele>275.2</ele><time>2026-04-18T16:41:36.366Z</time></trkpt><trkpt lat="45.080405" lon="8.18384"><ele>273.6</ele><time>2026-04-18T16:41:37.367Z</time></trkpt><trkpt lat="45.0803217" lon="8.1838883"><ele>272.0</ele><time>2026-04-18T16:41:38.367Z</time></trkpt><trkpt lat="45.0802283" lon="8.1838967"><ele>272.0</ele><time>2026-04-18T16:41:39.366Z</time></trkpt><trkpt lat="45.0801333" lon="8.1838717"><ele>272.0</ele><time>2026-04-18T16:41:40.367Z</time></trkpt><trkpt lat="45.0800433" lon="8.1838067"><ele>272.0</ele><time>2026-04-18T16:41:41.367Z</time></trkpt><trkpt lat="45.0799517" lon="8.1837067"><ele>272.0</ele><time>2026-04-18T16:41:42.366Z</time></trkpt><trkpt lat="45.0798683" lon="8.1835817"><ele>272.0</ele><time>2026-04-18T16:41:43.367Z</time></trkpt><trkpt lat="45.079785" lon="8.18346"><ele>272.33333333333337</ele><time>2026-04-18T16:41:44.366Z</time></trkpt><trkpt lat="45.0797167" lon="8.1833467"><ele>272.6666666666667</ele><time>2026-04-18T16:41:45.366Z</time></trkpt><trkpt lat="45.079655" lon="8.1832633"><ele>273.0</ele><time>2026-04-18T16:41:46.367Z</time></trkpt><trkpt lat="45.079585" lon="8.1832"><ele>273.3333333333333</ele><time>2026-04-18T16:41:47.366Z</time></trkpt><trkpt lat="45.0795117" lon="8.1831833"><ele>273.66666666666663</ele><time>2026-04-18T16:41:48.367Z</time></trkpt><trkpt lat="45.07944" lon="8.1832233"><ele>274.0</ele><time>2026-04-18T16:41:49.366Z</time></trkpt><trkpt lat="45.0793817" lon="8.1833017"><ele>274.0</ele><time>2026-04-18T16:41:50.367Z</time></trkpt><trkpt lat="45.0793083" lon="8.1833767"><ele>274.0</ele><time>2026-04-18T16:41:52.367Z</time></trkpt><trkpt lat="45.07934" lon="8.1832067"><ele>274.0</ele><time>2026-04-18T16:41:55.367Z</time></trkpt><trkpt lat="45.0793983" lon="8.183085"><ele>274.0</ele><time>2026-04-18T16:41:56.367Z</time></trkpt><trkpt lat="45.0794533" lon="8.18296"><ele>274.0</ele><time>2026-04-18T16:41:57.366Z</time></trkpt><trkpt lat="45.079515" lon="8.18286"><ele>271.66666666666663</ele><time>2026-04-18T16:41:58.367Z</time></trkpt><trkpt lat="45.0795733" lon="8.182795"><ele>269.3333333333333</ele><time>2026-04-18T16:41:59.366Z</time></trkpt><trkpt lat="45.0796367" lon="8.1827833"><ele>267.0</ele><time>2026-04-18T16:42:00.367Z</time></trkpt><trkpt lat="45.0797033" lon="8.1828267"><ele>264.6666666666667</ele><time>2026-04-18T16:42:01.366Z</time></trkpt><trkpt lat="45.079765" lon="8.1829133"><ele>262.33333333333337</ele><time>2026-04-18T16:42:02.367Z</time></trkpt><trkpt lat="45.0798267" lon="8.182995"><ele>260.0</ele><time>2026-04-18T16:42:03.366Z</time></trkpt><trkpt lat="45.0798983" lon="8.183065"><ele>260.2</ele><time>2026-04-18T16:42:04.367Z</time></trkpt><trkpt lat="45.079975" lon="8.1831"><ele>260.4</ele><time>2026-04-18T16:42:05.367Z</time></trkpt><trkpt lat="45.0800683" lon="8.1831017"><ele>260.6</ele><time>2026-04-18T16:42:06.366Z</time></trkpt><trkpt lat="45.080165" lon="8.1830567"><ele>260.8</ele><time>2026-04-18T16:42:07.367Z</time></trkpt><trkpt lat="45.08025" lon="8.18296"><ele>261.0</ele><time>2026-04-18T16:42:08.367Z</time></trkpt><trkpt lat="45.0803033" lon="8.182805"><ele>261.0</ele><time>2026-04-18T16:42:09.366Z</time></trkpt><trkpt lat="45.08033" lon="8.1826383"><ele>261.0</ele><time>2026-04-18T16:42:10.367Z</time></trkpt><trkpt lat="45.0803617" lon="8.1824933"><ele>261.0</ele><time>2026-04-18T16:42:11.367Z</time></trkpt><trkpt lat="45.0804117" lon="8.1823533"><ele>261.0</ele><time>2026-04-18T16:42:12.366Z</time></trkpt><trkpt lat="45.0804583" lon="8.182215"><ele>261.0</ele><time>2026-04-18T16:42:13.367Z</time></trkpt><trkpt lat="45.080525" lon="8.1821083"><ele>258.8</ele><time>2026-04-18T16:42:14.367Z</time></trkpt><trkpt lat="45.0805917" lon="8.1820233"><ele>256.6</ele><time>2026-04-18T16:42:15.367Z</time></trkpt><trkpt lat="45.0806667" lon="8.181965"><ele>254.4</ele><time>2026-04-18T16:42:16.367Z</time></trkpt><trkpt lat="45.080755" lon="8.1819383"><ele>252.2</ele><time>2026-04-18T16:42:17.366Z</time></trkpt><trkpt lat="45.08084" lon="8.181955"><ele>250.0</ele><time>2026-04-18T16:42:18.367Z</time></trkpt><trkpt lat="45.0809417" lon="8.1820083"><ele>249.6</ele><time>2026-04-18T16:42:19.367Z</time></trkpt><trkpt lat="45.081045" lon="8.1820733"><ele>249.2</ele><time>2026-04-18T16:42:20.367Z</time></trkpt><trkpt lat="45.081145" lon="8.182125"><ele>248.8</ele><time>2026-04-18T16:42:21.367Z</time></trkpt><trkpt lat="45.0812217" lon="8.1820917"><ele>248.4</ele><time>2026-04-18T16:42:22.366Z</time></trkpt><trkpt lat="45.081315" lon="8.1820133"><ele>248.0</ele><time>2026-04-18T16:42:23.367Z</time></trkpt><trkpt lat="45.0814017" lon="8.1818783"><ele>248.0</ele><time>2026-04-18T16:42:24.367Z</time></trkpt><trkpt lat="45.08149" lon="8.1817167"><ele>248.0</ele><time>2026-04-18T16:42:25.367Z</time></trkpt><trkpt lat="45.081575" lon="8.1815683"><ele>248.0</ele><time>2026-04-18T16:42:26.366Z</time></trkpt><trkpt lat="45.0816667" lon="8.18144"><ele>248.0</ele><time>2026-04-18T16:42:27.367Z</time></trkpt><trkpt lat="45.081775" lon="8.181345"><ele>246.0</ele><time>2026-04-18T16:42:28.367Z</time></trkpt><trkpt lat="45.081885" lon="8.1812667"><ele>244.0</ele><time>2026-04-18T16:42:29.367Z</time></trkpt><trkpt lat="45.082" lon="8.181185"><ele>242.0</ele><time>2026-04-18T16:42:30.367Z</time></trkpt><trkpt lat="45.0821133" lon="8.1810917"><ele>240.0</ele><time>2026-04-18T16:42:31.366Z</time></trkpt><trkpt lat="45.08221" lon="8.1809817"><ele>240.0</ele><time>2026-04-18T16:42:32.367Z</time></trkpt><trkpt lat="45.0822817" lon="8.1808267"><ele>240.0</ele><time>2026-04-18T16:42:33.367Z</time></trkpt><trkpt lat="45.0823167" lon="8.1806567"><ele>240.0</ele><time>2026-04-18T16:42:34.367Z</time></trkpt><trkpt lat="45.082355" lon="8.1804833"><ele>240.0</ele><time>2026-04-18T16:42:35.367Z</time></trkpt><trkpt lat="45.0823917" lon="8.1803183"><ele>238.6</ele><time>2026-04-18T16:42:36.367Z</time></trkpt><trkpt lat="45.0824133" lon="8.1801533"><ele>237.2</ele><time>2026-04-18T16:42:37.367Z</time></trkpt><trkpt lat="45.0824467" lon="8.1799983"><ele>235.8</ele><time>2026-04-18T16:42:38.367Z</time></trkpt><trkpt lat="45.0824967" lon="8.1798683"><ele>234.4</ele><time>2026-04-18T16:42:39.367Z</time></trkpt><trkpt lat="45.0825583" lon="8.17974"><ele>233.0</ele><time>2026-04-18T16:42:40.367Z</time></trkpt><trkpt lat="45.082625" lon="8.1796233"><ele>230.4</ele><time>2026-04-18T16:42:41.367Z</time></trkpt><trkpt lat="45.08271" lon="8.1795333"><ele>227.8</ele><time>2026-04-18T16:42:42.367Z</time></trkpt><trkpt lat="45.0828017" lon="8.1794817"><ele>225.2</ele><time>2026-04-18T16:42:43.367Z</time></trkpt><trkpt lat="45.082905" lon="8.1794617"><ele>222.6</ele><time>2026-04-18T16:42:44.366Z</time></trkpt><trkpt lat="45.0830233" lon="8.1795"><ele>220.0</ele><time>2026-04-18T16:42:45.367Z</time></trkpt><trkpt lat="45.083155" lon="8.1795883"><ele>220.0</ele><time>2026-04-18T16:42:46.367Z</time></trkpt><trkpt lat="45.0832767" lon="8.1797"><ele>220.0</ele><time>2026-04-18T16:42:47.366Z</time></trkpt><trkpt lat="45.083385" lon="8.1798367"><ele>220.0</ele><time>2026-04-18T16:42:48.367Z</time></trkpt><trkpt lat="45.0834783" lon="8.1799667"><ele>220.0</ele><time>2026-04-18T16:42:49.367Z</time></trkpt><trkpt lat="45.0835633" lon="8.1800917"><ele>222.0</ele><time>2026-04-18T16:42:50.366Z</time></trkpt><trkpt lat="45.08364" lon="8.1802017"><ele>224.0</ele><time>2026-04-18T16:42:51.366Z</time></trkpt><trkpt lat="45.0836883" lon="8.1803267"><ele>226.0</ele><time>2026-04-18T16:42:52.367Z</time></trkpt><trkpt lat="45.08371" lon="8.1804517"><ele>228.0</ele><time>2026-04-18T16:42:53.367Z</time></trkpt><trkpt lat="45.0837" lon="8.1805833"><ele>230.0</ele><time>2026-04-18T16:42:54.366Z</time></trkpt><trkpt lat="45.08365" lon="8.1807217"><ele>230.6</ele><time>2026-04-18T16:42:55.367Z</time></trkpt><trkpt lat="45.0835817" lon="8.1808567"><ele>231.2</ele><time>2026-04-18T16:42:56.367Z</time></trkpt><trkpt lat="45.0835383" lon="8.18098"><ele>231.8</ele><time>2026-04-18T16:42:57.367Z</time></trkpt><trkpt lat="45.0835133" lon="8.1810967"><ele>232.4</ele><time>2026-04-18T16:42:58.367Z</time></trkpt><trkpt lat="45.0835183" lon="8.1812083"><ele>233.0</ele><time>2026-04-18T16:42:59.367Z</time></trkpt><trkpt lat="45.083555" lon="8.181315"><ele>233.0</ele><time>2026-04-18T16:43:00.367Z</time></trkpt><trkpt lat="45.0836217" lon="8.1814017"><ele>233.0</ele><time>2026-04-18T16:43:01.367Z</time></trkpt><trkpt lat="45.0837033" lon="8.1814483"><ele>233.0</ele><time>2026-04-18T16:43:02.367Z</time></trkpt><trkpt lat="45.0837967" lon="8.18145"><ele>233.0</ele><time>2026-04-18T16:43:03.367Z</time></trkpt><trkpt lat="45.08388" lon="8.181395"><ele>233.0</ele><time>2026-04-18T16:43:04.367Z</time></trkpt><trkpt lat="45.0839683" lon="8.1812817"><ele>233.0</ele><time>2026-04-18T16:43:05.367Z</time></trkpt><trkpt lat="45.0840333" lon="8.1811167"><ele>233.0</ele><time>2026-04-18T16:43:06.366Z</time></trkpt><trkpt lat="45.084075" lon="8.180945"><ele>233.0</ele><time>2026-04-18T16:43:07.367Z</time></trkpt><trkpt lat="45.0841083" lon="8.1808"><ele>233.0</ele><time>2026-04-18T16:43:08.367Z</time></trkpt><trkpt lat="45.084145" lon="8.1806867"><ele>229.60000000000002</ele><time>2026-04-18T16:43:09.367Z</time></trkpt><trkpt lat="45.0842" lon="8.180625"><ele>226.20000000000002</ele><time>2026-04-18T16:43:10.367Z</time></trkpt><trkpt lat="45.08431" lon="8.1806917"><ele>222.8</ele><time>2026-04-18T16:43:12.367Z</time></trkpt><trkpt lat="45.0843717" lon="8.1808067"><ele>219.4</ele><time>2026-04-18T16:43:13.366Z</time></trkpt><trkpt lat="45.0844067" lon="8.1809983"><ele>216.0</ele><time>2026-04-18T16:43:14.366Z</time></trkpt><trkpt lat="45.0844317" lon="8.18119"><ele>215.8</ele><time>2026-04-18T16:43:15.367Z</time></trkpt><trkpt lat="45.0844483" lon="8.1813733"><ele>215.60000000000002</ele><time>2026-04-18T16:43:16.367Z</time></trkpt><trkpt lat="45.0844767" lon="8.1815233"><ele>215.4</ele><time>2026-04-18T16:43:17.366Z</time></trkpt><trkpt lat="45.0845083" lon="8.181655"><ele>215.2</ele><time>2026-04-18T16:43:18.367Z</time></trkpt><trkpt lat="45.0845667" lon="8.1817633"><ele>215.0</ele><time>2026-04-18T16:43:19.367Z</time></trkpt><trkpt lat="45.0846517" lon="8.1818317"><ele>215.5</ele><time>2026-04-18T16:43:20.367Z</time></trkpt><trkpt lat="45.084755" lon="8.1818667"><ele>216.0</ele><time>2026-04-18T16:43:21.367Z</time></trkpt><trkpt lat="45.0848733" lon="8.1818467"><ele>216.5</ele><time>2026-04-18T16:43:22.367Z</time></trkpt><trkpt lat="45.0849917" lon="8.181785"><ele>217.0</ele><time>2026-04-18T16:43:23.367Z</time></trkpt><trkpt lat="45.0851083" lon="8.1816917"><ele>214.75</ele><time>2026-04-18T16:43:24.366Z</time></trkpt><trkpt lat="45.08521" lon="8.1815633"><ele>212.5</ele><time>2026-04-18T16:43:25.367Z</time></trkpt><trkpt lat="45.0852917" lon="8.1814183"><ele>210.25</ele><time>2026-04-18T16:43:26.367Z</time></trkpt><trkpt lat="45.0853767" lon="8.1812733"><ele>208.0</ele><time>2026-04-18T16:43:27.367Z</time></trkpt><trkpt lat="45.0854633" lon="8.1811383"><ele>206.33333333333331</ele><time>2026-04-18T16:43:28.367Z</time></trkpt><trkpt lat="45.0855533" lon="8.180975"><ele>204.66666666666669</ele><time>2026-04-18T16:43:29.367Z</time></trkpt><trkpt lat="45.0856433" lon="8.180795"><ele>203.0</ele><time>2026-04-18T16:43:30.367Z</time></trkpt><trkpt lat="45.0857267" lon="8.1806133"><ele>201.5</ele><time>2026-04-18T16:43:31.367Z</time></trkpt><trkpt lat="45.0858067" lon="8.1804417"><ele>200.0</ele><time>2026-04-18T16:43:32.367Z</time></trkpt><trkpt lat="45.08588" lon="8.18026"><ele>198.5</ele><time>2026-04-18T16:43:33.366Z</time></trkpt><trkpt lat="45.0859517" lon="8.1800867"><ele>197.0</ele><time>2026-04-18T16:43:34.367Z</time></trkpt><trkpt lat="45.086035" lon="8.17991"><ele>196.66666666666669</ele><time>2026-04-18T16:43:35.367Z</time></trkpt><trkpt lat="45.0861133" lon="8.1797267"><ele>196.33333333333331</ele><time>2026-04-18T16:43:36.366Z</time></trkpt><trkpt lat="45.0861967" lon="8.17955"><ele>196.0</ele><time>2026-04-18T16:43:37.366Z</time></trkpt><trkpt lat="45.086275" lon="8.1793683"><ele>196.0</ele><time>2026-04-18T16:43:38.367Z</time></trkpt><trkpt lat="45.086355" lon="8.1791833"><ele>196.0</ele><time>2026-04-18T16:43:39.367Z</time></trkpt><trkpt lat="45.0864333" lon="8.1790017"><ele>196.0</ele><time>2026-04-18T16:43:40.367Z</time></trkpt><trkpt lat="45.0865083" lon="8.1788333"><ele>196.0</ele><time>2026-04-18T16:43:41.367Z</time></trkpt><trkpt lat="45.0865867" lon="8.17867"><ele>196.0</ele><time>2026-04-18T16:43:42.366Z</time></trkpt><trkpt lat="45.0866617" lon="8.1785117"><ele>196.0</ele><time>2026-04-18T16:43:43.367Z</time></trkpt><trkpt lat="45.0867317" lon="8.178355"><ele>196.0</ele><time>2026-04-18T16:43:44.367Z</time></trkpt><trkpt lat="45.0868017" lon="8.178195"><ele>196.0</ele><time>2026-04-18T16:43:45.366Z</time></trkpt><trkpt lat="45.0868667" lon="8.1780167"><ele>196.0</ele><time>2026-04-18T16:43:46.367Z</time></trkpt><trkpt lat="45.086935" lon="8.1778433"><ele>196.0</ele><time>2026-04-18T16:43:47.366Z</time></trkpt><trkpt lat="45.0870017" lon="8.1776733"><ele>196.0</ele><time>2026-04-18T16:43:48.366Z</time></trkpt><trkpt lat="45.08707" lon="8.177515"><ele>196.0</ele><time>2026-04-18T16:43:49.367Z</time></trkpt><trkpt lat="45.0871283" lon="8.1773717"><ele>196.20000000000002</ele><time>2026-04-18T16:43:50.366Z</time></trkpt><trkpt lat="45.087185" lon="8.1772467"><ele>196.4</ele><time>2026-04-18T16:43:51.367Z</time></trkpt><trkpt lat="45.0872417" lon="8.1771267"><ele>196.6</ele><time>2026-04-18T16:43:52.367Z</time></trkpt><trkpt lat="45.0872917" lon="8.17702"><ele>196.8</ele><time>2026-04-18T16:43:53.367Z</time></trkpt><trkpt lat="45.0873433" lon="8.1769167"><ele>197.0</ele><time>2026-04-18T16:43:54.367Z</time></trkpt><trkpt lat="45.087375" lon="8.1768267"><ele>197.00000000000003</ele><time>2026-04-18T16:43:55.366Z</time></trkpt><trkpt lat="45.0874017" lon="8.1767383"><ele>197.0</ele><time>2026-04-18T16:43:56.366Z</time></trkpt><trkpt lat="45.08743" lon="8.1766567"><ele>197.0</ele><time>2026-04-18T16:43:57.366Z</time></trkpt><trkpt lat="45.0874733" lon="8.176555"><ele>197.0</ele><time>2026-04-18T16:43:59.367Z</time></trkpt><trkpt lat="45.0875317" lon="8.176505"><ele>197.00000000000003</ele><time>2026-04-18T16:44:09.367Z</time></trkpt><trkpt lat="45.0875267" lon="8.1764"><ele>197.0</ele><time>2026-04-18T16:44:11.367Z</time></trkpt><trkpt lat="45.08744" lon="8.176235"><ele>197.5</ele><time>2026-04-18T16:44:13.367Z</time></trkpt><trkpt lat="45.08737" lon="8.176135"><ele>198.0</ele><time>2026-04-18T16:44:14.367Z</time></trkpt><trkpt lat="45.0872933" lon="8.1760233"><ele>198.5</ele><time>2026-04-18T16:44:15.367Z</time></trkpt><trkpt lat="45.0872083" lon="8.1759033"><ele>199.0</ele><time>2026-04-18T16:44:16.367Z</time></trkpt><trkpt lat="45.0871133" lon="8.1757917"><ele>200.25</ele><time>2026-04-18T16:44:17.366Z</time></trkpt><trkpt lat="45.0870117" lon="8.17568"><ele>201.5</ele><time>2026-04-18T16:44:18.366Z</time></trkpt><trkpt lat="45.0869067" lon="8.17557"><ele>202.75</ele><time>2026-04-18T16:44:19.367Z</time></trkpt><trkpt lat="45.0868" lon="8.1754433"><ele>204.0</ele><time>2026-04-18T16:44:20.367Z</time></trkpt><trkpt lat="45.0866867" lon="8.175315"><ele>202.0</ele><time>2026-04-18T16:44:21.366Z</time></trkpt><trkpt lat="45.0865833" lon="8.1751983"><ele>200.0</ele><time>2026-04-18T16:44:22.367Z</time></trkpt><trkpt lat="45.0864683" lon="8.1750567"><ele>198.0</ele><time>2026-04-18T16:44:23.367Z</time></trkpt><trkpt lat="45.08635" lon="8.1748883"><ele>198.66666666666669</ele><time>2026-04-18T16:44:24.367Z</time></trkpt><trkpt lat="45.0862433" lon="8.17472"><ele>199.33333333333334</ele><time>2026-04-18T16:44:25.366Z</time></trkpt><trkpt lat="45.0861333" lon="8.174565"><ele>200.0</ele><time>2026-04-18T16:44:26.367Z</time></trkpt><trkpt lat="45.0860183" lon="8.1743967"><ele>200.0</ele><time>2026-04-18T16:44:27.367Z</time></trkpt><trkpt lat="45.0859117" lon="8.1742367"><ele>200.0</ele><time>2026-04-18T16:44:28.367Z</time></trkpt><trkpt lat="45.0858017" lon="8.1740817"><ele>200.0</ele><time>2026-04-18T16:44:29.367Z</time></trkpt><trkpt lat="45.0856867" lon="8.1739183"><ele>200.33333333333334</ele><time>2026-04-18T16:44:30.367Z</time></trkpt><trkpt lat="45.0855767" lon="8.1737517"><ele>200.66666666666669</ele><time>2026-04-18T16:44:31.366Z</time></trkpt><trkpt lat="45.085475" lon="8.1735783"><ele>201.0</ele><time>2026-04-18T16:44:32.366Z</time></trkpt><trkpt lat="45.0853667" lon="8.173405"><ele>201.0</ele><time>2026-04-18T16:44:33.367Z</time></trkpt><trkpt lat="45.0852567" lon="8.173235"><ele>201.0</ele><time>2026-04-18T16:44:34.367Z</time></trkpt><trkpt lat="45.0851533" lon="8.173085"><ele>201.0</ele><time>2026-04-18T16:44:35.366Z</time></trkpt><trkpt lat="45.085055" lon="8.1729183"><ele>200.66666666666669</ele><time>2026-04-18T16:44:36.367Z</time></trkpt><trkpt lat="45.0849567" lon="8.1727483"><ele>200.33333333333334</ele><time>2026-04-18T16:44:37.367Z</time></trkpt><trkpt lat="45.0848483" lon="8.172565"><ele>200.0</ele><time>2026-04-18T16:44:38.367Z</time></trkpt><trkpt lat="45.084735" lon="8.1723767"><ele>199.66666666666669</ele><time>2026-04-18T16:44:39.367Z</time></trkpt><trkpt lat="45.084645" lon="8.172195"><ele>199.33333333333331</ele><time>2026-04-18T16:44:40.367Z</time></trkpt><trkpt lat="45.0845567" lon="8.1720117"><ele>199.0</ele><time>2026-04-18T16:44:41.366Z</time></trkpt><trkpt lat="45.08446" lon="8.1718183"><ele>199.0</ele><time>2026-04-18T16:44:42.367Z</time></trkpt><trkpt lat="45.08435" lon="8.1716233"><ele>199.0</ele><time>2026-04-18T16:44:43.367Z</time></trkpt><trkpt lat="45.0842483" lon="8.1714367"><ele>199.0</ele><time>2026-04-18T16:44:44.366Z</time></trkpt><trkpt lat="45.08416" lon="8.171245"><ele>199.33333333333331</ele><time>2026-04-18T16:44:45.367Z</time></trkpt><trkpt lat="45.0840633" lon="8.1710417"><ele>199.66666666666669</ele><time>2026-04-18T16:44:46.367Z</time></trkpt><trkpt lat="45.0839683" lon="8.170835"><ele>200.0</ele><time>2026-04-18T16:44:47.366Z</time></trkpt><trkpt lat="45.08388" lon="8.170635"><ele>200.0</ele><time>2026-04-18T16:44:48.367Z</time></trkpt><trkpt lat="45.08379" lon="8.1704367"><ele>200.0</ele><time>2026-04-18T16:44:49.366Z</time></trkpt><trkpt lat="45.0837017" lon="8.1702483"><ele>200.0</ele><time>2026-04-18T16:44:50.367Z</time></trkpt><trkpt lat="45.0836233" lon="8.1700383"><ele>200.66666666666669</ele><time>2026-04-18T16:44:51.367Z</time></trkpt><trkpt lat="45.0835483" lon="8.169835"><ele>201.33333333333331</ele><time>2026-04-18T16:44:52.367Z</time></trkpt><trkpt lat="45.08347" lon="8.1696283"><ele>202.0</ele><time>2026-04-18T16:44:53.366Z</time></trkpt><trkpt lat="45.08339" lon="8.1694317"><ele>202.0</ele><time>2026-04-18T16:44:54.367Z</time></trkpt><trkpt lat="45.08331" lon="8.1692333"><ele>202.0</ele><time>2026-04-18T16:44:55.367Z</time></trkpt><trkpt lat="45.0832367" lon="8.169035"><ele>202.0</ele><time>2026-04-18T16:44:56.367Z</time></trkpt><trkpt lat="45.0831617" lon="8.16884"><ele>202.66666666666666</ele><time>2026-04-18T16:44:57.367Z</time></trkpt><trkpt lat="45.0830967" lon="8.1686467"><ele>203.33333333333331</ele><time>2026-04-18T16:44:58.367Z</time></trkpt><trkpt lat="45.083035" lon="8.1684533"><ele>204.0</ele><time>2026-04-18T16:44:59.367Z</time></trkpt><trkpt lat="45.0829683" lon="8.1682567"><ele>204.0</ele><time>2026-04-18T16:45:00.367Z</time></trkpt><trkpt lat="45.0829117" lon="8.1680417"><ele>204.0</ele><time>2026-04-18T16:45:01.366Z</time></trkpt><trkpt lat="45.08285" lon="8.1678367"><ele>204.0</ele><time>2026-04-18T16:45:02.367Z</time></trkpt><trkpt lat="45.0827917" lon="8.1676367"><ele>204.0</ele><time>2026-04-18T16:45:03.367Z</time></trkpt><trkpt lat="45.0827267" lon="8.1674317"><ele>204.0</ele><time>2026-04-18T16:45:04.367Z</time></trkpt><trkpt lat="45.082665" lon="8.167225"><ele>204.0</ele><time>2026-04-18T16:45:05.367Z</time></trkpt><trkpt lat="45.0826083" lon="8.1670217"><ele>204.66666666666669</ele><time>2026-04-18T16:45:06.366Z</time></trkpt><trkpt lat="45.0825533" lon="8.1668167"><ele>205.33333333333334</ele><time>2026-04-18T16:45:07.366Z</time></trkpt><trkpt lat="45.082505" lon="8.1666133"><ele>206.0</ele><time>2026-04-18T16:45:08.367Z</time></trkpt><trkpt lat="45.0824517" lon="8.1664033"><ele>206.33333333333334</ele><time>2026-04-18T16:45:09.367Z</time></trkpt><trkpt lat="45.0823983" lon="8.1662"><ele>206.66666666666669</ele><time>2026-04-18T16:45:10.367Z</time></trkpt><trkpt lat="45.0823467" lon="8.166"><ele>207.0</ele><time>2026-04-18T16:45:11.366Z</time></trkpt><trkpt lat="45.0822933" lon="8.1657833"><ele>207.0</ele><time>2026-04-18T16:45:12.367Z</time></trkpt><trkpt lat="45.0822417" lon="8.1655717"><ele>207.0</ele><time>2026-04-18T16:45:13.367Z</time></trkpt><trkpt lat="45.0821917" lon="8.165365"><ele>207.0</ele><time>2026-04-18T16:45:14.367Z</time></trkpt><trkpt lat="45.0821333" lon="8.1651533"><ele>207.0</ele><time>2026-04-18T16:45:15.367Z</time></trkpt><trkpt lat="45.0820767" lon="8.16495"><ele>207.0</ele><time>2026-04-18T16:45:16.367Z</time></trkpt><trkpt lat="45.0820117" lon="8.16474"><ele>207.0</ele><time>2026-04-18T16:45:17.367Z</time></trkpt><trkpt lat="45.081955" lon="8.1645283"><ele>206.66666666666669</ele><time>2026-04-18T16:45:18.367Z</time></trkpt><trkpt lat="45.0819067" lon="8.1643167"><ele>206.33333333333334</ele><time>2026-04-18T16:45:19.367Z</time></trkpt><trkpt lat="45.0818533" lon="8.1641067"><ele>206.0</ele><time>2026-04-18T16:45:20.367Z</time></trkpt><trkpt lat="45.0817983" lon="8.163885"><ele>206.0</ele><time>2026-04-18T16:45:21.367Z</time></trkpt><trkpt lat="45.08174" lon="8.1636667"><ele>206.0</ele><time>2026-04-18T16:45:22.367Z</time></trkpt><trkpt lat="45.0816883" lon="8.1634517"><ele>206.0</ele><time>2026-04-18T16:45:23.367Z</time></trkpt><trkpt lat="45.0816367" lon="8.1632317"><ele>204.66666666666669</ele><time>2026-04-18T16:45:24.367Z</time></trkpt><trkpt lat="45.0815783" lon="8.1630167"><ele>203.33333333333331</ele><time>2026-04-18T16:45:25.367Z</time></trkpt><trkpt lat="45.08152" lon="8.1627883"><ele>202.0</ele><time>2026-04-18T16:45:26.366Z</time></trkpt><trkpt lat="45.0814617" lon="8.162575"><ele>203.66666666666666</ele><time>2026-04-18T16:45:27.367Z</time></trkpt><trkpt lat="45.0814" lon="8.1623467"><ele>205.33333333333331</ele><time>2026-04-18T16:45:28.367Z</time></trkpt><trkpt lat="45.08134" lon="8.1621367"><ele>207.0</ele><time>2026-04-18T16:45:29.366Z</time></trkpt><trkpt lat="45.0812833" lon="8.16192"><ele>207.0</ele><time>2026-04-18T16:45:30.367Z</time></trkpt><trkpt lat="45.0812333" lon="8.1617117"><ele>207.0</ele><time>2026-04-18T16:45:31.367Z</time></trkpt><trkpt lat="45.081175" lon="8.1614933"><ele>207.0</ele><time>2026-04-18T16:45:32.367Z</time></trkpt><trkpt lat="45.081115" lon="8.1612717"><ele>206.66666666666669</ele><time>2026-04-18T16:45:33.367Z</time></trkpt><trkpt lat="45.081065" lon="8.1610517"><ele>206.33333333333334</ele><time>2026-04-18T16:45:34.367Z</time></trkpt><trkpt lat="45.08101" lon="8.1608333"><ele>206.0</ele><time>2026-04-18T16:45:35.367Z</time></trkpt><trkpt lat="45.0809633" lon="8.160625"><ele>206.0</ele><time>2026-04-18T16:45:36.366Z</time></trkpt><trkpt lat="45.0809033" lon="8.1604083"><ele>206.0</ele><time>2026-04-18T16:45:37.367Z</time></trkpt><trkpt lat="45.08085" lon="8.1601867"><ele>206.0</ele><time>2026-04-18T16:45:38.367Z</time></trkpt><trkpt lat="45.0808083" lon="8.1599617"><ele>205.66666666666669</ele><time>2026-04-18T16:45:39.367Z</time></trkpt><trkpt lat="45.0807833" lon="8.1597333"><ele>205.33333333333331</ele><time>2026-04-18T16:45:40.367Z</time></trkpt><trkpt lat="45.080765" lon="8.1594983"><ele>205.0</ele><time>2026-04-18T16:45:41.367Z</time></trkpt><trkpt lat="45.0807517" lon="8.1592683"><ele>205.0</ele><time>2026-04-18T16:45:42.367Z</time></trkpt><trkpt lat="45.080745" lon="8.1590433"><ele>205.0</ele><time>2026-04-18T16:45:43.367Z</time></trkpt><trkpt lat="45.0807467" lon="8.1588117"><ele>205.0</ele><time>2026-04-18T16:45:44.367Z</time></trkpt><trkpt lat="45.08075" lon="8.1585767"><ele>206.66666666666666</ele><time>2026-04-18T16:45:45.367Z</time></trkpt><trkpt lat="45.0807683" lon="8.15835"><ele>208.33333333333331</ele><time>2026-04-18T16:45:46.366Z</time></trkpt><trkpt lat="45.08079" lon="8.1581283"><ele>210.0</ele><time>2026-04-18T16:45:47.366Z</time></trkpt><trkpt lat="45.0808217" lon="8.15791"><ele>210.66666666666669</ele><time>2026-04-18T16:45:48.367Z</time></trkpt><trkpt lat="45.08087" lon="8.1576817"><ele>211.33333333333334</ele><time>2026-04-18T16:45:49.367Z</time></trkpt><trkpt lat="45.0809283" lon="8.15746"><ele>212.0</ele><time>2026-04-18T16:45:50.367Z</time></trkpt><trkpt lat="45.08098" lon="8.1572433"><ele>212.0</ele><time>2026-04-18T16:45:51.367Z</time></trkpt><trkpt lat="45.0810467" lon="8.1570417"><ele>212.0</ele><time>2026-04-18T16:45:52.367Z</time></trkpt><trkpt lat="45.081115" lon="8.1568433"><ele>212.0</ele><time>2026-04-18T16:45:53.367Z</time></trkpt><trkpt lat="45.0811883" lon="8.156645"><ele>211.66666666666669</ele><time>2026-04-18T16:45:54.367Z</time></trkpt><trkpt lat="45.0812583" lon="8.15644"><ele>211.33333333333331</ele><time>2026-04-18T16:45:55.367Z</time></trkpt><trkpt lat="45.0813233" lon="8.156235"><ele>211.0</ele><time>2026-04-18T16:45:56.366Z</time></trkpt><trkpt lat="45.0813933" lon="8.1560333"><ele>211.0</ele><time>2026-04-18T16:45:57.367Z</time></trkpt><trkpt lat="45.0814633" lon="8.15583"><ele>211.0</ele><time>2026-04-18T16:45:58.367Z</time></trkpt><trkpt lat="45.0815317" lon="8.155625"><ele>211.0</ele><time>2026-04-18T16:45:59.367Z</time></trkpt><trkpt lat="45.081605" lon="8.155435"><ele>211.0</ele><time>2026-04-18T16:46:00.367Z</time></trkpt><trkpt lat="45.0816633" lon="8.1552333"><ele>211.0</ele><time>2026-04-18T16:46:01.367Z</time></trkpt><trkpt lat="45.0817333" lon="8.1550317"><ele>211.0</ele><time>2026-04-18T16:46:02.366Z</time></trkpt><trkpt lat="45.0817983" lon="8.1548367"><ele>211.0</ele><time>2026-04-18T16:46:03.367Z</time></trkpt><trkpt lat="45.0818583" lon="8.1546267"><ele>211.0</ele><time>2026-04-18T16:46:04.367Z</time></trkpt><trkpt lat="45.0819083" lon="8.1544267"><ele>211.0</ele><time>2026-04-18T16:46:05.367Z</time></trkpt><trkpt lat="45.0819717" lon="8.1542283"><ele>211.33333333333331</ele><time>2026-04-18T16:46:06.367Z</time></trkpt><trkpt lat="45.0820483" lon="8.1540233"><ele>211.66666666666669</ele><time>2026-04-18T16:46:07.367Z</time></trkpt><trkpt lat="45.0821283" lon="8.15383"><ele>212.0</ele><time>2026-04-18T16:46:08.366Z</time></trkpt><trkpt lat="45.0822" lon="8.15364"><ele>212.0</ele><time>2026-04-18T16:46:09.367Z</time></trkpt><trkpt lat="45.08229" lon="8.1534583"><ele>212.0</ele><time>2026-04-18T16:46:10.367Z</time></trkpt><trkpt lat="45.0823833" lon="8.153285"><ele>212.0</ele><time>2026-04-18T16:46:11.367Z</time></trkpt><trkpt lat="45.082485" lon="8.1531133"><ele>211.33333333333334</ele><time>2026-04-18T16:46:12.367Z</time></trkpt><trkpt lat="45.0826" lon="8.1529433"><ele>210.66666666666669</ele><time>2026-04-18T16:46:13.366Z</time></trkpt><trkpt lat="45.08273" lon="8.1527967"><ele>210.0</ele><time>2026-04-18T16:46:14.366Z</time></trkpt><trkpt lat="45.0828667" lon="8.15266"><ele>210.0</ele><time>2026-04-18T16:46:15.367Z</time></trkpt><trkpt lat="45.083" lon="8.1525667"><ele>210.0</ele><time>2026-04-18T16:46:16.367Z</time></trkpt><trkpt lat="45.08314" lon="8.1524417"><ele>210.0</ele><time>2026-04-18T16:46:17.367Z</time></trkpt><trkpt lat="45.083285" lon="8.152335"><ele>211.0</ele><time>2026-04-18T16:46:18.367Z</time></trkpt><trkpt lat="45.0834283" lon="8.1522333"><ele>212.0</ele><time>2026-04-18T16:46:19.367Z</time></trkpt><trkpt lat="45.08357" lon="8.152125"><ele>213.0</ele><time>2026-04-18T16:46:20.367Z</time></trkpt><trkpt lat="45.0837133" lon="8.1520067"><ele>213.0</ele><time>2026-04-18T16:46:21.367Z</time></trkpt><trkpt lat="45.083865" lon="8.1519017"><ele>213.0</ele><time>2026-04-18T16:46:22.367Z</time></trkpt><trkpt lat="45.0840133" lon="8.1517917"><ele>213.0</ele><time>2026-04-18T16:46:23.366Z</time></trkpt><trkpt lat="45.08416" lon="8.1516783"><ele>212.66666666666669</ele><time>2026-04-18T16:46:24.366Z</time></trkpt><trkpt lat="45.0843117" lon="8.1515717"><ele>212.33333333333334</ele><time>2026-04-18T16:46:25.367Z</time></trkpt><trkpt lat="45.0844567" lon="8.15146"><ele>212.0</ele><time>2026-04-18T16:46:26.367Z</time></trkpt><trkpt lat="45.0845967" lon="8.1513467"><ele>212.0</ele><time>2026-04-18T16:46:27.366Z</time></trkpt><trkpt lat="45.0847383" lon="8.1512383"><ele>212.0</ele><time>2026-04-18T16:46:28.366Z</time></trkpt><trkpt lat="45.0848883" lon="8.1511333"><ele>212.0</ele><time>2026-04-18T16:46:29.367Z</time></trkpt><trkpt lat="45.0850317" lon="8.1510283"><ele>212.66666666666669</ele><time>2026-04-18T16:46:30.367Z</time></trkpt><trkpt lat="45.08518" lon="8.1509333"><ele>213.33333333333331</ele><time>2026-04-18T16:46:31.367Z</time></trkpt><trkpt lat="45.085325" lon="8.1508267"><ele>214.0</ele><time>2026-04-18T16:46:32.367Z</time></trkpt><trkpt lat="45.0854667" lon="8.1507067"><ele>214.0</ele><time>2026-04-18T16:46:33.366Z</time></trkpt><trkpt lat="45.0856067" lon="8.15061"><ele>214.0</ele><time>2026-04-18T16:46:34.367Z</time></trkpt><trkpt lat="45.0857533" lon="8.15051"><ele>214.0</ele><time>2026-04-18T16:46:35.367Z</time></trkpt><trkpt lat="45.0859" lon="8.1504017"><ele>214.66666666666666</ele><time>2026-04-18T16:46:36.367Z</time></trkpt><trkpt lat="45.0860417" lon="8.150285"><ele>215.33333333333331</ele><time>2026-04-18T16:46:37.367Z</time></trkpt><trkpt lat="45.0861817" lon="8.150175"><ele>216.0</ele><time>2026-04-18T16:46:38.367Z</time></trkpt><trkpt lat="45.086325" lon="8.150065"><ele>216.0</ele><time>2026-04-18T16:46:39.367Z</time></trkpt><trkpt lat="45.0864617" lon="8.1499367"><ele>216.0</ele><time>2026-04-18T16:46:40.367Z</time></trkpt><trkpt lat="45.0865867" lon="8.1498017"><ele>216.0</ele><time>2026-04-18T16:46:41.367Z</time></trkpt><trkpt lat="45.086715" lon="8.1496683"><ele>216.0</ele><time>2026-04-18T16:46:42.366Z</time></trkpt><trkpt lat="45.0868383" lon="8.1495267"><ele>216.0</ele><time>2026-04-18T16:46:43.367Z</time></trkpt><trkpt lat="45.086945" lon="8.1493733"><ele>216.0</ele><time>2026-04-18T16:46:44.367Z</time></trkpt><trkpt lat="45.087055" lon="8.1492117"><ele>216.0</ele><time>2026-04-18T16:46:45.367Z</time></trkpt><trkpt lat="45.0871467" lon="8.1490533"><ele>216.0</ele><time>2026-04-18T16:46:46.367Z</time></trkpt><trkpt lat="45.0872167" lon="8.1489033"><ele>216.0</ele><time>2026-04-18T16:46:47.366Z</time></trkpt><trkpt lat="45.0872817" lon="8.1487717"><ele>216.0</ele><time>2026-04-18T16:46:48.366Z</time></trkpt><trkpt lat="45.0873483" lon="8.14866"><ele>216.0</ele><time>2026-04-18T16:46:49.367Z</time></trkpt><trkpt lat="45.0874033" lon="8.1485633"><ele>216.00000000000003</ele><time>2026-04-18T16:46:50.367Z</time></trkpt><trkpt lat="45.0874467" lon="8.1484017"><ele>216.00000000000003</ele><time>2026-04-18T16:46:52.367Z</time></trkpt><trkpt lat="45.0874067" lon="8.1482333"><ele>216.0</ele><time>2026-04-18T16:46:54.367Z</time></trkpt><trkpt lat="45.0873333" lon="8.1481317"><ele>216.0</ele><time>2026-04-18T16:46:55.367Z</time></trkpt><trkpt lat="45.08724" lon="8.148025"><ele>215.5</ele><time>2026-04-18T16:46:56.367Z</time></trkpt><trkpt lat="45.0871183" lon="8.1479067"><ele>215.0</ele><time>2026-04-18T16:46:57.367Z</time></trkpt><trkpt lat="45.0869967" lon="8.1477883"><ele>214.5</ele><time>2026-04-18T16:46:58.367Z</time></trkpt><trkpt lat="45.0868867" lon="8.1476717"><ele>214.0</ele><time>2026-04-18T16:46:59.367Z</time></trkpt><trkpt lat="45.0867783" lon="8.1475317"><ele>214.0</ele><time>2026-04-18T16:47:00.367Z</time></trkpt><trkpt lat="45.0866633" lon="8.1474083"><ele>214.0</ele><time>2026-04-18T16:47:01.367Z</time></trkpt><trkpt lat="45.0865633" lon="8.1472667"><ele>214.0</ele><time>2026-04-18T16:47:02.366Z</time></trkpt><trkpt lat="45.086455" lon="8.1471267"><ele>214.0</ele><time>2026-04-18T16:47:03.367Z</time></trkpt><trkpt lat="45.0863333" lon="8.146985"><ele>216.66666666666666</ele><time>2026-04-18T16:47:04.367Z</time></trkpt><trkpt lat="45.0862067" lon="8.1468383"><ele>219.33333333333331</ele><time>2026-04-18T16:47:05.367Z</time></trkpt><trkpt lat="45.0860817" lon="8.1466933"><ele>222.0</ele><time>2026-04-18T16:47:06.367Z</time></trkpt><trkpt lat="45.08596" lon="8.1465683"><ele>224.0</ele><time>2026-04-18T16:47:07.367Z</time></trkpt><trkpt lat="45.0858267" lon="8.14646"><ele>226.0</ele><time>2026-04-18T16:47:08.366Z</time></trkpt><trkpt lat="45.08569" lon="8.1463617"><ele>228.0</ele><time>2026-04-18T16:47:09.367Z</time></trkpt><trkpt lat="45.0855533" lon="8.146295"><ele>228.0</ele><time>2026-04-18T16:47:10.367Z</time></trkpt><trkpt lat="45.085405" lon="8.1462483"><ele>228.0</ele><time>2026-04-18T16:47:11.367Z</time></trkpt><trkpt lat="45.0852567" lon="8.1461933"><ele>228.0</ele><time>2026-04-18T16:47:12.367Z</time></trkpt><trkpt lat="45.0851167" lon="8.1461417"><ele>228.0</ele><time>2026-04-18T16:47:13.367Z</time></trkpt><trkpt lat="45.0849733" lon="8.1460783"><ele>228.0</ele><time>2026-04-18T16:47:14.367Z</time></trkpt><trkpt lat="45.0848317" lon="8.14601"><ele>228.0</ele><time>2026-04-18T16:47:15.367Z</time></trkpt><trkpt lat="45.0846967" lon="8.1459383"><ele>228.0</ele><time>2026-04-18T16:47:16.367Z</time></trkpt><trkpt lat="45.0845783" lon="8.1458267"><ele>228.5</ele><time>2026-04-18T16:47:17.367Z</time></trkpt><trkpt lat="45.0844533" lon="8.145705"><ele>229.0</ele><time>2026-04-18T16:47:18.367Z</time></trkpt><trkpt lat="45.0843417" lon="8.1455667"><ele>229.5</ele><time>2026-04-18T16:47:19.367Z</time></trkpt><trkpt lat="45.084255" lon="8.1453983"><ele>230.0</ele><time>2026-04-18T16:47:20.366Z</time></trkpt><trkpt lat="45.0841717" lon="8.14522"><ele>237.0</ele><time>2026-04-18T16:47:21.367Z</time></trkpt><trkpt lat="45.0840917" lon="8.145035"><ele>244.0</ele><time>2026-04-18T16:47:22.367Z</time></trkpt><trkpt lat="45.0839983" lon="8.1448417"><ele>251.0</ele><time>2026-04-18T16:47:23.367Z</time></trkpt><trkpt lat="45.0838983" lon="8.1446333"><ele>251.0</ele><time>2026-04-18T16:47:24.366Z</time></trkpt><trkpt lat="45.0838083" lon="8.1444283"><ele>251.0</ele><time>2026-04-18T16:47:25.367Z</time></trkpt><trkpt lat="45.0837233" lon="8.14422"><ele>251.0</ele><time>2026-04-18T16:47:26.367Z</time></trkpt><trkpt lat="45.0836383" lon="8.1440283"><ele>249.0</ele><time>2026-04-18T16:47:27.367Z</time></trkpt><trkpt lat="45.083555" lon="8.1438267"><ele>247.0</ele><time>2026-04-18T16:47:28.366Z</time></trkpt><trkpt lat="45.0834683" lon="8.14363"><ele>245.0</ele><time>2026-04-18T16:47:29.367Z</time></trkpt><trkpt lat="45.0833817" lon="8.1434367"><ele>245.0</ele><time>2026-04-18T16:47:30.367Z</time></trkpt><trkpt lat="45.0832983" lon="8.143235"><ele>245.0</ele><time>2026-04-18T16:47:31.367Z</time></trkpt><trkpt lat="45.0832183" lon="8.1430317"><ele>245.0</ele><time>2026-04-18T16:47:32.367Z</time></trkpt><trkpt lat="45.0831417" lon="8.1428217"><ele>244.0</ele><time>2026-04-18T16:47:33.366Z</time></trkpt><trkpt lat="45.0830517" lon="8.142625"><ele>243.0</ele><time>2026-04-18T16:47:34.367Z</time></trkpt><trkpt lat="45.0829467" lon="8.14242"><ele>242.0</ele><time>2026-04-18T16:47:35.366Z</time></trkpt><trkpt lat="45.0828667" lon="8.142225"><ele>241.66666666666669</ele><time>2026-04-18T16:47:36.366Z</time></trkpt><trkpt lat="45.082785" lon="8.1420483"><ele>241.33333333333331</ele><time>2026-04-18T16:47:37.367Z</time></trkpt><trkpt lat="45.0827033" lon="8.1418467"><ele>241.0</ele><time>2026-04-18T16:47:38.367Z</time></trkpt><trkpt lat="45.0826333" lon="8.1416433"><ele>242.66666666666666</ele><time>2026-04-18T16:47:39.367Z</time></trkpt><trkpt lat="45.0825717" lon="8.141435"><ele>244.33333333333331</ele><time>2026-04-18T16:47:40.366Z</time></trkpt><trkpt lat="45.082515" lon="8.1412317"><ele>246.0</ele><time>2026-04-18T16:47:41.367Z</time></trkpt><trkpt lat="45.0824667" lon="8.1410183"><ele>246.0</ele><time>2026-04-18T16:47:42.367Z</time></trkpt><trkpt lat="45.082415" lon="8.140815"><ele>246.0</ele><time>2026-04-18T16:47:43.367Z</time></trkpt><trkpt lat="45.0823783" lon="8.1406017"><ele>246.0</ele><time>2026-04-18T16:47:44.366Z</time></trkpt><trkpt lat="45.08234" lon="8.1403883"><ele>246.0</ele><time>2026-04-18T16:47:45.366Z</time></trkpt><trkpt lat="45.0823017" lon="8.1401617"><ele>246.0</ele><time>2026-04-18T16:47:46.367Z</time></trkpt><trkpt lat="45.082255" lon="8.1399383"><ele>246.0</ele><time>2026-04-18T16:47:47.366Z</time></trkpt><trkpt lat="45.0822083" lon="8.1397233"><ele>247.5</ele><time>2026-04-18T16:47:48.367Z</time></trkpt><trkpt lat="45.082165" lon="8.1395117"><ele>249.0</ele><time>2026-04-18T16:47:49.367Z</time></trkpt><trkpt lat="45.0821217" lon="8.139325"><ele>250.5</ele><time>2026-04-18T16:47:50.366Z</time></trkpt><trkpt lat="45.0820817" lon="8.13913"><ele>252.0</ele><time>2026-04-18T16:47:51.366Z</time></trkpt><trkpt lat="45.0820433" lon="8.13892"><ele>253.66666666666669</ele><time>2026-04-18T16:47:52.367Z</time></trkpt><trkpt lat="45.0820083" lon="8.138705"><ele>255.33333333333334</ele><time>2026-04-18T16:47:53.367Z</time></trkpt><trkpt lat="45.0819667" lon="8.1385017"><ele>257.0</ele><time>2026-04-18T16:47:54.367Z</time></trkpt><trkpt lat="45.0819233" lon="8.138285"><ele>258.0</ele><time>2026-04-18T16:47:55.367Z</time></trkpt><trkpt lat="45.081895" lon="8.1380833"><ele>259.0</ele><time>2026-04-18T16:47:56.367Z</time></trkpt><trkpt lat="45.08185" lon="8.1378883"><ele>260.0</ele><time>2026-04-18T16:47:57.367Z</time></trkpt><trkpt lat="45.0818133" lon="8.1376867"><ele>261.0</ele><time>2026-04-18T16:47:58.367Z</time></trkpt><trkpt lat="45.0817767" lon="8.1374833"><ele>262.75</ele><time>2026-04-18T16:47:59.367Z</time></trkpt><trkpt lat="45.081725" lon="8.1372933"><ele>264.5</ele><time>2026-04-18T16:48:00.367Z</time></trkpt><trkpt lat="45.0816933" lon="8.1370867"><ele>266.25</ele><time>2026-04-18T16:48:01.367Z</time></trkpt><trkpt lat="45.081655" lon="8.1369033"><ele>268.0</ele><time>2026-04-18T16:48:02.367Z</time></trkpt><trkpt lat="45.0816333" lon="8.13672"><ele>268.5</ele><time>2026-04-18T16:48:03.367Z</time></trkpt><trkpt lat="45.0816083" lon="8.1365367"><ele>269.0</ele><time>2026-04-18T16:48:04.367Z</time></trkpt><trkpt lat="45.0815767" lon="8.1363467"><ele>269.5</ele><time>2026-04-18T16:48:05.366Z</time></trkpt><trkpt lat="45.081535" lon="8.1361633"><ele>270.0</ele><time>2026-04-18T16:48:06.366Z</time></trkpt><trkpt lat="45.0815017" lon="8.1359967"><ele>270.0</ele><time>2026-04-18T16:48:07.367Z</time></trkpt><trkpt lat="45.08149" lon="8.1358517"><ele>270.0</ele><time>2026-04-18T16:48:08.366Z</time></trkpt><trkpt lat="45.0814683" lon="8.13573"><ele>270.0</ele><time>2026-04-18T16:48:09.367Z</time></trkpt><trkpt lat="45.081435" lon="8.1356217"><ele>270.0</ele><time>2026-04-18T16:48:10.367Z</time></trkpt><trkpt lat="45.0813933" lon="8.13548"><ele>270.0</ele><time>2026-04-18T16:48:12.367Z</time></trkpt><trkpt lat="45.0813733" lon="8.1353867"><ele>270.3333333333333</ele><time>2026-04-18T16:48:15.367Z</time></trkpt><trkpt lat="45.0813267" lon="8.135315"><ele>270.6666666666667</ele><time>2026-04-18T16:48:17.367Z</time></trkpt><trkpt lat="45.08127" lon="8.1352717"><ele>271.0</ele><time>2026-04-18T16:48:18.367Z</time></trkpt><trkpt lat="45.0811967" lon="8.13522"><ele>271.33333333333337</ele><time>2026-04-18T16:48:19.367Z</time></trkpt><trkpt lat="45.0811117" lon="8.1351733"><ele>271.6666666666667</ele><time>2026-04-18T16:48:20.366Z</time></trkpt><trkpt lat="45.0810167" lon="8.1351217"><ele>272.0</ele><time>2026-04-18T16:48:21.366Z</time></trkpt><trkpt lat="45.0809217" lon="8.1350733"><ele>272.0</ele><time>2026-04-18T16:48:22.367Z</time></trkpt><trkpt lat="45.08082" lon="8.1350117"><ele>272.0</ele><time>2026-04-18T16:48:23.367Z</time></trkpt><trkpt lat="45.080715" lon="8.1349183"><ele>272.0</ele><time>2026-04-18T16:48:24.367Z</time></trkpt><trkpt lat="45.0806267" lon="8.1348233"><ele>272.0</ele><time>2026-04-18T16:48:25.367Z</time></trkpt><trkpt lat="45.08056" lon="8.1346983"><ele>274.0</ele><time>2026-04-18T16:48:26.366Z</time></trkpt><trkpt lat="45.080515" lon="8.134545"><ele>276.0</ele><time>2026-04-18T16:48:27.367Z</time></trkpt><trkpt lat="45.0804917" lon="8.1343717"><ele>278.0</ele><time>2026-04-18T16:48:28.367Z</time></trkpt><trkpt lat="45.0804967" lon="8.134175"><ele>280.0</ele><time>2026-04-18T16:48:29.367Z</time></trkpt><trkpt lat="45.0804883" lon="8.1339767"><ele>280.25</ele><time>2026-04-18T16:48:30.367Z</time></trkpt><trkpt lat="45.0804883" lon="8.13378"><ele>280.5</ele><time>2026-04-18T16:48:31.367Z</time></trkpt><trkpt lat="45.0804917" lon="8.1335817"><ele>280.75</ele><time>2026-04-18T16:48:32.367Z</time></trkpt><trkpt lat="45.0804933" lon="8.1333833"><ele>281.0</ele><time>2026-04-18T16:48:33.366Z</time></trkpt><trkpt lat="45.080505" lon="8.133185"><ele>280.5</ele><time>2026-04-18T16:48:34.367Z</time></trkpt><trkpt lat="45.080505" lon="8.1330083"><ele>280.0</ele><time>2026-04-18T16:48:35.367Z</time></trkpt><trkpt lat="45.080505" lon="8.1328267"><ele>279.5</ele><time>2026-04-18T16:48:36.367Z</time></trkpt><trkpt lat="45.0805017" lon="8.1326417"><ele>279.0</ele><time>2026-04-18T16:48:37.366Z</time></trkpt><trkpt lat="45.0805017" lon="8.1324433"><ele>278.5</ele><time>2026-04-18T16:48:38.366Z</time></trkpt><trkpt lat="45.080495" lon="8.1322517"><ele>278.0</ele><time>2026-04-18T16:48:39.366Z</time></trkpt><trkpt lat="45.08049" lon="8.132065"><ele>277.5</ele><time>2026-04-18T16:48:40.367Z</time></trkpt><trkpt lat="45.08048" lon="8.1318833"><ele>277.0</ele><time>2026-04-18T16:48:41.367Z</time></trkpt><trkpt lat="45.0804667" lon="8.131715"><ele>277.0</ele><time>2026-04-18T16:48:42.367Z</time></trkpt><trkpt lat="45.0804267" lon="8.1315733"><ele>277.0</ele><time>2026-04-18T16:48:43.366Z</time></trkpt><trkpt lat="45.08035" lon="8.1314483"><ele>277.0</ele><time>2026-04-18T16:48:44.367Z</time></trkpt><trkpt lat="45.080245" lon="8.1313467"><ele>277.0</ele><time>2026-04-18T16:48:45.367Z</time></trkpt><trkpt lat="45.0801283" lon="8.1312767"><ele>276.0</ele><time>2026-04-18T16:48:46.367Z</time></trkpt><trkpt lat="45.0800017" lon="8.1312433"><ele>275.0</ele><time>2026-04-18T16:48:47.366Z</time></trkpt><trkpt lat="45.07987" lon="8.1312133"><ele>274.0</ele><time>2026-04-18T16:48:48.367Z</time></trkpt><trkpt lat="45.0797267" lon="8.1312033"><ele>273.0</ele><time>2026-04-18T16:48:49.367Z</time></trkpt><trkpt lat="45.07957" lon="8.1312233"><ele>269.0</ele><time>2026-04-18T16:48:50.366Z</time></trkpt><trkpt lat="45.0794167" lon="8.1312567"><ele>265.0</ele><time>2026-04-18T16:48:51.367Z</time></trkpt><trkpt lat="45.0792633" lon="8.1312933"><ele>261.0</ele><time>2026-04-18T16:48:52.367Z</time></trkpt><trkpt lat="45.0791067" lon="8.1313433"><ele>259.6666666666667</ele><time>2026-04-18T16:48:53.367Z</time></trkpt><trkpt lat="45.078955" lon="8.131385"><ele>258.33333333333337</ele><time>2026-04-18T16:48:54.367Z</time></trkpt><trkpt lat="45.0788" lon="8.1314267"><ele>257.0</ele><time>2026-04-18T16:48:55.367Z</time></trkpt><trkpt lat="45.0786467" lon="8.1314733"><ele>257.0</ele><time>2026-04-18T16:48:56.367Z</time></trkpt><trkpt lat="45.0784983" lon="8.13155"><ele>257.0</ele><time>2026-04-18T16:48:57.367Z</time></trkpt><trkpt lat="45.07835" lon="8.131635"><ele>257.0</ele><time>2026-04-18T16:48:58.367Z</time></trkpt><trkpt lat="45.0782017" lon="8.13172"><ele>260.33333333333337</ele><time>2026-04-18T16:48:59.367Z</time></trkpt><trkpt lat="45.0780483" lon="8.1317733"><ele>263.6666666666667</ele><time>2026-04-18T16:49:00.367Z</time></trkpt><trkpt lat="45.0778917" lon="8.13182"><ele>267.0</ele><time>2026-04-18T16:49:01.367Z</time></trkpt><trkpt lat="45.0777333" lon="8.1318417"><ele>267.0</ele><time>2026-04-18T16:49:02.366Z</time></trkpt><trkpt lat="45.0775833" lon="8.1318533"><ele>267.0</ele><time>2026-04-18T16:49:03.367Z</time></trkpt><trkpt lat="45.0774317" lon="8.1318467"><ele>267.0</ele><time>2026-04-18T16:49:04.366Z</time></trkpt><trkpt lat="45.0772817" lon="8.13184"><ele>269.0</ele><time>2026-04-18T16:49:05.367Z</time></trkpt><trkpt lat="45.0771317" lon="8.1318433"><ele>271.0</ele><time>2026-04-18T16:49:06.367Z</time></trkpt><trkpt lat="45.0769817" lon="8.1318467"><ele>273.0</ele><time>2026-04-18T16:49:07.367Z</time></trkpt><trkpt lat="45.076835" lon="8.1318483"><ele>275.0</ele><time>2026-04-18T16:49:08.367Z</time></trkpt><trkpt lat="45.076685" lon="8.131855"><ele>277.6666666666667</ele><time>2026-04-18T16:49:09.367Z</time></trkpt><trkpt lat="45.0765367" lon="8.13186"><ele>280.3333333333333</ele><time>2026-04-18T16:49:10.367Z</time></trkpt><trkpt lat="45.0763767" lon="8.131875"><ele>283.0</ele><time>2026-04-18T16:49:11.367Z</time></trkpt><trkpt lat="45.0762283" lon="8.131885"><ele>283.0</ele><time>2026-04-18T16:49:12.367Z</time></trkpt><trkpt lat="45.0760867" lon="8.1318817"><ele>283.0</ele><time>2026-04-18T16:49:13.367Z</time></trkpt><trkpt lat="45.0759317" lon="8.1318617"><ele>283.0</ele><time>2026-04-18T16:49:14.367Z</time></trkpt><trkpt lat="45.0757767" lon="8.1318283"><ele>283.3333333333333</ele><time>2026-04-18T16:49:15.367Z</time></trkpt><trkpt lat="45.0756233" lon="8.1317983"><ele>283.6666666666667</ele><time>2026-04-18T16:49:16.367Z</time></trkpt><trkpt lat="45.0754733" lon="8.1317683"><ele>284.0</ele><time>2026-04-18T16:49:17.367Z</time></trkpt><trkpt lat="45.0753083" lon="8.13173"><ele>284.0</ele><time>2026-04-18T16:49:18.367Z</time></trkpt><trkpt lat="45.0751433" lon="8.1316933"><ele>284.0</ele><time>2026-04-18T16:49:19.367Z</time></trkpt><trkpt lat="45.0749983" lon="8.1316683"><ele>284.0</ele><time>2026-04-18T16:49:20.366Z</time></trkpt><trkpt lat="45.0748233" lon="8.131635"><ele>283.33333333333337</ele><time>2026-04-18T16:49:21.367Z</time></trkpt><trkpt lat="45.0746467" lon="8.13159"><ele>282.6666666666667</ele><time>2026-04-18T16:49:22.367Z</time></trkpt><trkpt lat="45.07448" lon="8.1315533"><ele>282.0</ele><time>2026-04-18T16:49:23.366Z</time></trkpt><trkpt lat="45.0743133" lon="8.1315367"><ele>282.0</ele><time>2026-04-18T16:49:24.366Z</time></trkpt><trkpt lat="45.0741417" lon="8.131515"><ele>282.0</ele><time>2026-04-18T16:49:25.367Z</time></trkpt><trkpt lat="45.0739733" lon="8.1314833"><ele>282.0</ele><time>2026-04-18T16:49:26.367Z</time></trkpt><trkpt lat="45.0738117" lon="8.131485"><ele>280.6666666666667</ele><time>2026-04-18T16:49:27.366Z</time></trkpt><trkpt lat="45.0736483" lon="8.1315017"><ele>279.33333333333337</ele><time>2026-04-18T16:49:28.367Z</time></trkpt><trkpt lat="45.0734817" lon="8.1315483"><ele>278.0</ele><time>2026-04-18T16:49:29.367Z</time></trkpt><trkpt lat="45.0733267" lon="8.1316033"><ele>277.6666666666667</ele><time>2026-04-18T16:49:30.367Z</time></trkpt><trkpt lat="45.0731633" lon="8.1316567"><ele>277.3333333333333</ele><time>2026-04-18T16:49:31.367Z</time></trkpt><trkpt lat="45.0729983" lon="8.1316983"><ele>277.0</ele><time>2026-04-18T16:49:32.367Z</time></trkpt><trkpt lat="45.07284" lon="8.131745"><ele>277.0</ele><time>2026-04-18T16:49:33.367Z</time></trkpt><trkpt lat="45.0726817" lon="8.1317867"><ele>277.0</ele><time>2026-04-18T16:49:34.367Z</time></trkpt><trkpt lat="45.0725233" lon="8.131815"><ele>277.0</ele><time>2026-04-18T16:49:35.367Z</time></trkpt><trkpt lat="45.0723583" lon="8.131815"><ele>277.3333333333333</ele><time>2026-04-18T16:49:36.367Z</time></trkpt><trkpt lat="45.0722067" lon="8.1318"><ele>277.6666666666667</ele><time>2026-04-18T16:49:37.367Z</time></trkpt><trkpt lat="45.0720617" lon="8.1317667"><ele>278.0</ele><time>2026-04-18T16:49:38.367Z</time></trkpt><trkpt lat="45.0719117" lon="8.1317083"><ele>278.0</ele><time>2026-04-18T16:49:39.367Z</time></trkpt><trkpt lat="45.071755" lon="8.13166"><ele>278.0</ele><time>2026-04-18T16:49:40.367Z</time></trkpt><trkpt lat="45.0715967" lon="8.1316217"><ele>278.0</ele><time>2026-04-18T16:49:41.367Z</time></trkpt><trkpt lat="45.071435" lon="8.13159"><ele>274.6666666666667</ele><time>2026-04-18T16:49:42.367Z</time></trkpt><trkpt lat="45.0712733" lon="8.131545"><ele>271.3333333333333</ele><time>2026-04-18T16:49:43.367Z</time></trkpt><trkpt lat="45.0711133" lon="8.131495"><ele>268.0</ele><time>2026-04-18T16:49:44.367Z</time></trkpt><trkpt lat="45.07096" lon="8.1314567"><ele>268.0</ele><time>2026-04-18T16:49:45.367Z</time></trkpt><trkpt lat="45.0707983" lon="8.1313967"><ele>268.0</ele><time>2026-04-18T16:49:46.367Z</time></trkpt><trkpt lat="45.0706467" lon="8.1313"><ele>268.0</ele><time>2026-04-18T16:49:47.367Z</time></trkpt><trkpt lat="45.0705033" lon="8.13118"><ele>267.3333333333333</ele><time>2026-04-18T16:49:48.367Z</time></trkpt><trkpt lat="45.0703733" lon="8.131045"><ele>266.6666666666667</ele><time>2026-04-18T16:49:49.367Z</time></trkpt><trkpt lat="45.07025" lon="8.1308833"><ele>266.0</ele><time>2026-04-18T16:49:50.367Z</time></trkpt><trkpt lat="45.0701317" lon="8.130705"><ele>266.0</ele><time>2026-04-18T16:49:51.367Z</time></trkpt><trkpt lat="45.0700317" lon="8.1305167"><ele>266.0</ele><time>2026-04-18T16:49:52.367Z</time></trkpt><trkpt lat="45.06993" lon="8.1303383"><ele>266.0</ele><time>2026-04-18T16:49:53.367Z</time></trkpt><trkpt lat="45.0698217" lon="8.1301583"><ele>266.0</ele><time>2026-04-18T16:49:54.366Z</time></trkpt><trkpt lat="45.0697083" lon="8.1299917"><ele>266.0</ele><time>2026-04-18T16:49:55.367Z</time></trkpt><trkpt lat="45.069585" lon="8.1298433"><ele>266.0</ele><time>2026-04-18T16:49:56.367Z</time></trkpt><trkpt lat="45.0694717" lon="8.1296817"><ele>266.0</ele><time>2026-04-18T16:49:57.366Z</time></trkpt><trkpt lat="45.0693633" lon="8.1295367"><ele>266.0</ele><time>2026-04-18T16:49:58.367Z</time></trkpt><trkpt lat="45.0692517" lon="8.129395"><ele>266.0</ele><time>2026-04-18T16:49:59.367Z</time></trkpt><trkpt lat="45.0691433" lon="8.1292717"><ele>266.0</ele><time>2026-04-18T16:50:00.367Z</time></trkpt><trkpt lat="45.06903" lon="8.1291917"><ele>266.5</ele><time>2026-04-18T16:50:01.367Z</time></trkpt><trkpt lat="45.06891" lon="8.1291667"><ele>267.0</ele><time>2026-04-18T16:50:02.367Z</time></trkpt><trkpt lat="45.0687817" lon="8.12917"><ele>267.5</ele><time>2026-04-18T16:50:03.367Z</time></trkpt><trkpt lat="45.0686483" lon="8.1292117"><ele>268.0</ele><time>2026-04-18T16:50:04.367Z</time></trkpt><trkpt lat="45.068515" lon="8.1292983"><ele>268.0</ele><time>2026-04-18T16:50:05.366Z</time></trkpt><trkpt lat="45.06839" lon="8.1293933"><ele>268.0</ele><time>2026-04-18T16:50:06.367Z</time></trkpt><trkpt lat="45.0682633" lon="8.1294517"><ele>268.0</ele><time>2026-04-18T16:50:07.367Z</time></trkpt><trkpt lat="45.0681267" lon="8.1294667"><ele>268.0</ele><time>2026-04-18T16:50:08.367Z</time></trkpt><trkpt lat="45.067995" lon="8.129445"><ele>265.3333333333333</ele><time>2026-04-18T16:50:09.366Z</time></trkpt><trkpt lat="45.0678517" lon="8.1293617"><ele>262.6666666666667</ele><time>2026-04-18T16:50:10.367Z</time></trkpt><trkpt lat="45.0677217" lon="8.1292517"><ele>260.0</ele><time>2026-04-18T16:50:11.367Z</time></trkpt><trkpt lat="45.0675933" lon="8.1291333"><ele>260.33333333333337</ele><time>2026-04-18T16:50:12.367Z</time></trkpt><trkpt lat="45.0674667" lon="8.1290083"><ele>260.6666666666667</ele><time>2026-04-18T16:50:13.367Z</time></trkpt><trkpt lat="45.0673267" lon="8.128885"><ele>261.0</ele><time>2026-04-18T16:50:14.366Z</time></trkpt><trkpt lat="45.067195" lon="8.1287667"><ele>260.3333333333333</ele><time>2026-04-18T16:50:15.367Z</time></trkpt><trkpt lat="45.06706" lon="8.1286317"><ele>259.66666666666663</ele><time>2026-04-18T16:50:16.367Z</time></trkpt><trkpt lat="45.06692" lon="8.12849"><ele>259.0</ele><time>2026-04-18T16:50:17.367Z</time></trkpt><trkpt lat="45.0667883" lon="8.128365"><ele>259.0</ele><time>2026-04-18T16:50:18.367Z</time></trkpt><trkpt lat="45.0666317" lon="8.12829"><ele>259.0</ele><time>2026-04-18T16:50:19.367Z</time></trkpt><trkpt lat="45.0664683" lon="8.128235"><ele>259.0</ele><time>2026-04-18T16:50:20.367Z</time></trkpt><trkpt lat="45.0663017" lon="8.1281933"><ele>259.0</ele><time>2026-04-18T16:50:21.367Z</time></trkpt><trkpt lat="45.0661233" lon="8.128145"><ele>259.0</ele><time>2026-04-18T16:50:22.367Z</time></trkpt><trkpt lat="45.0659567" lon="8.1281033"><ele>259.0</ele><time>2026-04-18T16:50:23.367Z</time></trkpt><trkpt lat="45.0658" lon="8.1280617"><ele>258.3333333333333</ele><time>2026-04-18T16:50:24.366Z</time></trkpt><trkpt lat="45.0656417" lon="8.128035"><ele>257.6666666666667</ele><time>2026-04-18T16:50:25.367Z</time></trkpt><trkpt lat="45.0654783" lon="8.1279967"><ele>257.0</ele><time>2026-04-18T16:50:26.367Z</time></trkpt><trkpt lat="45.065315" lon="8.12797"><ele>257.0</ele><time>2026-04-18T16:50:27.366Z</time></trkpt><trkpt lat="45.0651483" lon="8.1279317"><ele>257.0</ele><time>2026-04-18T16:50:28.367Z</time></trkpt><trkpt lat="45.0649783" lon="8.127895"><ele>257.0</ele><time>2026-04-18T16:50:29.367Z</time></trkpt><trkpt lat="45.0648133" lon="8.1278517"><ele>257.0</ele><time>2026-04-18T16:50:30.367Z</time></trkpt><trkpt lat="45.064645" lon="8.1278233"><ele>257.0</ele><time>2026-04-18T16:50:31.367Z</time></trkpt><trkpt lat="45.06448" lon="8.1277917"><ele>257.0</ele><time>2026-04-18T16:50:32.366Z</time></trkpt><trkpt lat="45.064315" lon="8.127745"><ele>257.0</ele><time>2026-04-18T16:50:33.367Z</time></trkpt><trkpt lat="45.0641567" lon="8.1276933"><ele>257.0</ele><time>2026-04-18T16:50:34.367Z</time></trkpt><trkpt lat="45.0639983" lon="8.1276533"><ele>257.0</ele><time>2026-04-18T16:50:35.366Z</time></trkpt><trkpt lat="45.0638433" lon="8.1276133"><ele>256.0</ele><time>2026-04-18T16:50:36.367Z</time></trkpt><trkpt lat="45.063695" lon="8.1275717"><ele>255.0</ele><time>2026-04-18T16:50:37.366Z</time></trkpt><trkpt lat="45.0635467" lon="8.1275317"><ele>254.0</ele><time>2026-04-18T16:50:38.366Z</time></trkpt><trkpt lat="45.0634017" lon="8.1274767"><ele>253.66666666666669</ele><time>2026-04-18T16:50:39.367Z</time></trkpt><trkpt lat="45.063265" lon="8.1274133"><ele>253.33333333333331</ele><time>2026-04-18T16:50:40.366Z</time></trkpt><trkpt lat="45.0631217" lon="8.1273517"><ele>253.0</ele><time>2026-04-18T16:50:41.367Z</time></trkpt><trkpt lat="45.0629717" lon="8.1272883"><ele>253.0</ele><time>2026-04-18T16:50:42.366Z</time></trkpt><trkpt lat="45.0628083" lon="8.1272133"><ele>253.0</ele><time>2026-04-18T16:50:43.367Z</time></trkpt><trkpt lat="45.06265" lon="8.12714"><ele>253.0</ele><time>2026-04-18T16:50:44.367Z</time></trkpt><trkpt lat="45.0624917" lon="8.127065"><ele>248.66666666666666</ele><time>2026-04-18T16:50:45.366Z</time></trkpt><trkpt lat="45.0623367" lon="8.1270133"><ele>244.33333333333331</ele><time>2026-04-18T16:50:46.367Z</time></trkpt><trkpt lat="45.0621933" lon="8.1269317"><ele>240.0</ele><time>2026-04-18T16:50:47.366Z</time></trkpt><trkpt lat="45.062045" lon="8.1268217"><ele>240.0</ele><time>2026-04-18T16:50:48.366Z</time></trkpt><trkpt lat="45.0619083" lon="8.1266917"><ele>240.0</ele><time>2026-04-18T16:50:49.367Z</time></trkpt><trkpt lat="45.0617833" lon="8.1265483"><ele>240.0</ele><time>2026-04-18T16:50:50.367Z</time></trkpt><trkpt lat="45.0616783" lon="8.1263767"><ele>237.0</ele><time>2026-04-18T16:50:51.367Z</time></trkpt><trkpt lat="45.06157" lon="8.1262033"><ele>234.0</ele><time>2026-04-18T16:50:52.367Z</time></trkpt><trkpt lat="45.06146" lon="8.1260233"><ele>231.0</ele><time>2026-04-18T16:50:53.367Z</time></trkpt><trkpt lat="45.0613433" lon="8.1258533"><ele>233.33333333333331</ele><time>2026-04-18T16:50:54.366Z</time></trkpt><trkpt lat="45.0612333" lon="8.1256767"><ele>235.66666666666666</ele><time>2026-04-18T16:50:55.367Z</time></trkpt><trkpt lat="45.0611267" lon="8.125505"><ele>238.0</ele><time>2026-04-18T16:50:56.367Z</time></trkpt><trkpt lat="45.0610117" lon="8.1253333"><ele>238.0</ele><time>2026-04-18T16:50:57.367Z</time></trkpt><trkpt lat="45.06089" lon="8.1251583"><ele>238.0</ele><time>2026-04-18T16:50:58.366Z</time></trkpt><trkpt lat="45.0607733" lon="8.1249867"><ele>238.0</ele><time>2026-04-18T16:50:59.366Z</time></trkpt><trkpt lat="45.0606633" lon="8.1248233"><ele>238.25</ele><time>2026-04-18T16:51:00.367Z</time></trkpt><trkpt lat="45.0605633" lon="8.1246617"><ele>238.5</ele><time>2026-04-18T16:51:01.366Z</time></trkpt><trkpt lat="45.0604567" lon="8.1245017"><ele>238.75</ele><time>2026-04-18T16:51:02.367Z</time></trkpt><trkpt lat="45.0603583" lon="8.1243617"><ele>239.0</ele><time>2026-04-18T16:51:03.367Z</time></trkpt><trkpt lat="45.0602633" lon="8.1242167"><ele>239.0</ele><time>2026-04-18T16:51:04.367Z</time></trkpt><trkpt lat="45.060145" lon="8.1240883"><ele>239.0</ele><time>2026-04-18T16:51:05.367Z</time></trkpt><trkpt lat="45.0600183" lon="8.1239717"><ele>239.0</ele><time>2026-04-18T16:51:06.367Z</time></trkpt><trkpt lat="45.059875" lon="8.1239017"><ele>238.33333333333334</ele><time>2026-04-18T16:51:07.366Z</time></trkpt><trkpt lat="45.0597217" lon="8.1238817"><ele>237.66666666666669</ele><time>2026-04-18T16:51:08.367Z</time></trkpt><trkpt lat="45.0595633" lon="8.1238867"><ele>237.0</ele><time>2026-04-18T16:51:09.366Z</time></trkpt><trkpt lat="45.0593983" lon="8.12389"><ele>237.0</ele><time>2026-04-18T16:51:10.367Z</time></trkpt><trkpt lat="45.0592317" lon="8.1238967"><ele>237.0</ele><time>2026-04-18T16:51:11.366Z</time></trkpt><trkpt lat="45.0590667" lon="8.1239017"><ele>237.0</ele><time>2026-04-18T16:51:12.367Z</time></trkpt><trkpt lat="45.0589017" lon="8.1239017"><ele>235.66666666666669</ele><time>2026-04-18T16:51:13.366Z</time></trkpt><trkpt lat="45.058725" lon="8.1238967"><ele>234.33333333333334</ele><time>2026-04-18T16:51:14.367Z</time></trkpt><trkpt lat="45.058555" lon="8.1238983"><ele>233.0</ele><time>2026-04-18T16:51:15.367Z</time></trkpt><trkpt lat="45.05839" lon="8.1239033"><ele>234.33333333333334</ele><time>2026-04-18T16:51:16.367Z</time></trkpt><trkpt lat="45.0582217" lon="8.12391"><ele>235.66666666666669</ele><time>2026-04-18T16:51:17.367Z</time></trkpt><trkpt lat="45.05806" lon="8.12391"><ele>237.0</ele><time>2026-04-18T16:51:18.367Z</time></trkpt><trkpt lat="45.0578983" lon="8.1239283"><ele>237.0</ele><time>2026-04-18T16:51:19.367Z</time></trkpt><trkpt lat="45.057755" lon="8.123985"><ele>237.0</ele><time>2026-04-18T16:51:20.367Z</time></trkpt><trkpt lat="45.0576117" lon="8.1240767"><ele>237.0</ele><time>2026-04-18T16:51:21.367Z</time></trkpt><trkpt lat="45.057475" lon="8.1242033"><ele>238.0</ele><time>2026-04-18T16:51:22.367Z</time></trkpt><trkpt lat="45.0573467" lon="8.124335"><ele>239.0</ele><time>2026-04-18T16:51:23.366Z</time></trkpt><trkpt lat="45.0572083" lon="8.12448"><ele>240.0</ele><time>2026-04-18T16:51:24.367Z</time></trkpt><trkpt lat="45.05706" lon="8.1246017"><ele>240.0</ele><time>2026-04-18T16:51:25.366Z</time></trkpt><trkpt lat="45.0569117" lon="8.124705"><ele>240.0</ele><time>2026-04-18T16:51:26.366Z</time></trkpt><trkpt lat="45.056755" lon="8.1247833"><ele>240.0</ele><time>2026-04-18T16:51:27.366Z</time></trkpt><trkpt lat="45.056595" lon="8.1248633"><ele>239.33333333333331</ele><time>2026-04-18T16:51:28.366Z</time></trkpt><trkpt lat="45.0564433" lon="8.12493"><ele>238.66666666666666</ele><time>2026-04-18T16:51:29.367Z</time></trkpt><trkpt lat="45.0562817" lon="8.1249933"><ele>238.0</ele><time>2026-04-18T16:51:30.367Z</time></trkpt><trkpt lat="45.0561417" lon="8.1250583"><ele>238.0</ele><time>2026-04-18T16:51:31.366Z</time></trkpt><trkpt lat="45.05599" lon="8.1251367"><ele>238.0</ele><time>2026-04-18T16:51:32.367Z</time></trkpt><trkpt lat="45.0558483" lon="8.1252383"><ele>238.0</ele><time>2026-04-18T16:51:33.367Z</time></trkpt><trkpt lat="45.055725" lon="8.1253767"><ele>238.0</ele><time>2026-04-18T16:51:34.367Z</time></trkpt><trkpt lat="45.05562" lon="8.12554"><ele>238.0</ele><time>2026-04-18T16:51:35.367Z</time></trkpt><trkpt lat="45.055515" lon="8.1257117"><ele>238.0</ele><time>2026-04-18T16:51:36.367Z</time></trkpt><trkpt lat="45.055405" lon="8.1258817"><ele>238.0</ele><time>2026-04-18T16:51:37.367Z</time></trkpt><trkpt lat="45.0552883" lon="8.1260533"><ele>238.0</ele><time>2026-04-18T16:51:38.367Z</time></trkpt><trkpt lat="45.0551867" lon="8.126225"><ele>238.0</ele><time>2026-04-18T16:51:39.367Z</time></trkpt><trkpt lat="45.05508" lon="8.1263883"><ele>238.0</ele><time>2026-04-18T16:51:40.366Z</time></trkpt><trkpt lat="45.0549733" lon="8.1265533"><ele>238.0</ele><time>2026-04-18T16:51:41.367Z</time></trkpt><trkpt lat="45.0548533" lon="8.1267283"><ele>238.0</ele><time>2026-04-18T16:51:42.366Z</time></trkpt><trkpt lat="45.0547417" lon="8.12691"><ele>239.66666666666666</ele><time>2026-04-18T16:51:43.367Z</time></trkpt><trkpt lat="45.0546317" lon="8.1270883"><ele>241.33333333333331</ele><time>2026-04-18T16:51:44.367Z</time></trkpt><trkpt lat="45.0545233" lon="8.1272633"><ele>243.0</ele><time>2026-04-18T16:51:45.367Z</time></trkpt><trkpt lat="45.0544117" lon="8.1274367"><ele>243.0</ele><time>2026-04-18T16:51:46.366Z</time></trkpt><trkpt lat="45.0543133" lon="8.127605"><ele>243.0</ele><time>2026-04-18T16:51:47.367Z</time></trkpt><trkpt lat="45.0541917" lon="8.127755"><ele>243.0</ele><time>2026-04-18T16:51:48.367Z</time></trkpt><trkpt lat="45.0540683" lon="8.1278833"><ele>243.66666666666669</ele><time>2026-04-18T16:51:49.367Z</time></trkpt><trkpt lat="45.0539367" lon="8.1280183"><ele>244.33333333333334</ele><time>2026-04-18T16:51:50.367Z</time></trkpt><trkpt lat="45.0537933" lon="8.1281533"><ele>245.0</ele><time>2026-04-18T16:51:51.366Z</time></trkpt><trkpt lat="45.0536683" lon="8.128285"><ele>245.0</ele><time>2026-04-18T16:51:52.367Z</time></trkpt><trkpt lat="45.05353" lon="8.12841"><ele>245.0</ele><time>2026-04-18T16:51:53.366Z</time></trkpt><trkpt lat="45.0533867" lon="8.1285383"><ele>245.0</ele><time>2026-04-18T16:51:54.367Z</time></trkpt><trkpt lat="45.0532467" lon="8.12867"><ele>245.66666666666669</ele><time>2026-04-18T16:51:55.366Z</time></trkpt><trkpt lat="45.053105" lon="8.128795"><ele>246.33333333333331</ele><time>2026-04-18T16:51:56.367Z</time></trkpt><trkpt lat="45.0529717" lon="8.1289217"><ele>247.0</ele><time>2026-04-18T16:51:57.367Z</time></trkpt><trkpt lat="45.0528283" lon="8.1290383"><ele>246.66666666666666</ele><time>2026-04-18T16:51:58.367Z</time></trkpt><trkpt lat="45.05268" lon="8.1291533"><ele>246.33333333333331</ele><time>2026-04-18T16:51:59.367Z</time></trkpt><trkpt lat="45.0525217" lon="8.1292483"><ele>246.0</ele><time>2026-04-18T16:52:00.367Z</time></trkpt><trkpt lat="45.0523733" lon="8.129335"><ele>245.66666666666669</ele><time>2026-04-18T16:52:01.367Z</time></trkpt><trkpt lat="45.0522217" lon="8.12941"><ele>245.33333333333334</ele><time>2026-04-18T16:52:02.367Z</time></trkpt><trkpt lat="45.05206" lon="8.1294733"><ele>245.0</ele><time>2026-04-18T16:52:03.367Z</time></trkpt><trkpt lat="45.0519" lon="8.129525"><ele>245.0</ele><time>2026-04-18T16:52:04.366Z</time></trkpt><trkpt lat="45.051735" lon="8.1295767"><ele>245.0</ele><time>2026-04-18T16:52:05.366Z</time></trkpt><trkpt lat="45.0515517" lon="8.12963"><ele>245.0</ele><time>2026-04-18T16:52:06.367Z</time></trkpt><trkpt lat="45.051385" lon="8.1297"><ele>242.0</ele><time>2026-04-18T16:52:07.367Z</time></trkpt><trkpt lat="45.051215" lon="8.1297533"><ele>239.0</ele><time>2026-04-18T16:52:08.367Z</time></trkpt><trkpt lat="45.051045" lon="8.1298033"><ele>236.0</ele><time>2026-04-18T16:52:09.367Z</time></trkpt><trkpt lat="45.0508883" lon="8.129865"><ele>235.66666666666669</ele><time>2026-04-18T16:52:10.367Z</time></trkpt><trkpt lat="45.050745" lon="8.1299283"><ele>235.33333333333331</ele><time>2026-04-18T16:52:11.367Z</time></trkpt><trkpt lat="45.050595" lon="8.1300017"><ele>235.0</ele><time>2026-04-18T16:52:12.366Z</time></trkpt><trkpt lat="45.0504417" lon="8.13009"><ele>235.0</ele><time>2026-04-18T16:52:13.366Z</time></trkpt><trkpt lat="45.0502983" lon="8.1301883"><ele>235.0</ele><time>2026-04-18T16:52:14.367Z</time></trkpt><trkpt lat="45.05016" lon="8.1303133"><ele>235.0</ele><time>2026-04-18T16:52:15.366Z</time></trkpt><trkpt lat="45.050035" lon="8.13044"><ele>234.25</ele><time>2026-04-18T16:52:16.366Z</time></trkpt><trkpt lat="45.049915" lon="8.130575"><ele>233.5</ele><time>2026-04-18T16:52:17.367Z</time></trkpt><trkpt lat="45.0498017" lon="8.130705"><ele>232.75</ele><time>2026-04-18T16:52:18.367Z</time></trkpt><trkpt lat="45.0496783" lon="8.1308233"><ele>232.0</ele><time>2026-04-18T16:52:19.367Z</time></trkpt><trkpt lat="45.0495517" lon="8.1309417"><ele>235.33333333333331</ele><time>2026-04-18T16:52:20.367Z</time></trkpt><trkpt lat="45.0494233" lon="8.1310733"><ele>238.66666666666669</ele><time>2026-04-18T16:52:21.367Z</time></trkpt><trkpt lat="45.0493033" lon="8.1311917"><ele>242.0</ele><time>2026-04-18T16:52:22.366Z</time></trkpt><trkpt lat="45.0491717" lon="8.131315"><ele>243.25</ele><time>2026-04-18T16:52:23.366Z</time></trkpt><trkpt lat="45.0490533" lon="8.1314367"><ele>244.5</ele><time>2026-04-18T16:52:24.367Z</time></trkpt><trkpt lat="45.048935" lon="8.13155"><ele>245.75</ele><time>2026-04-18T16:52:25.367Z</time></trkpt><trkpt lat="45.0488167" lon="8.13166"><ele>247.0</ele><time>2026-04-18T16:52:26.367Z</time></trkpt><trkpt lat="45.0486967" lon="8.1317833"><ele>247.0</ele><time>2026-04-18T16:52:27.366Z</time></trkpt><trkpt lat="45.0485833" lon="8.131905"><ele>247.0</ele><time>2026-04-18T16:52:28.367Z</time></trkpt><trkpt lat="45.04847" lon="8.1320217"><ele>247.0</ele><time>2026-04-18T16:52:29.367Z</time></trkpt><trkpt lat="45.0483517" lon="8.1321217"><ele>247.0</ele><time>2026-04-18T16:52:30.366Z</time></trkpt><trkpt lat="45.0482267" lon="8.1322083"><ele>247.5</ele><time>2026-04-18T16:52:31.367Z</time></trkpt><trkpt lat="45.0481083" lon="8.132295"><ele>248.0</ele><time>2026-04-18T16:52:32.367Z</time></trkpt><trkpt lat="45.04799" lon="8.1323867"><ele>248.5</ele><time>2026-04-18T16:52:33.366Z</time></trkpt><trkpt lat="45.0478817" lon="8.1324867"><ele>249.0</ele><time>2026-04-18T16:52:34.367Z</time></trkpt><trkpt lat="45.0477767" lon="8.1325733"><ele>249.0</ele><time>2026-04-18T16:52:35.367Z</time></trkpt><trkpt lat="45.0476683" lon="8.1327033"><ele>249.0</ele><time>2026-04-18T16:52:36.367Z</time></trkpt><trkpt lat="45.0475617" lon="8.132825"><ele>249.0</ele><time>2026-04-18T16:52:37.367Z</time></trkpt><trkpt lat="45.0474633" lon="8.1329433"><ele>249.0</ele><time>2026-04-18T16:52:38.367Z</time></trkpt><trkpt lat="45.0474017" lon="8.1330617"><ele>248.5</ele><time>2026-04-18T16:52:39.367Z</time></trkpt><trkpt lat="45.04734" lon="8.133155"><ele>248.0</ele><time>2026-04-18T16:52:40.367Z</time></trkpt><trkpt lat="45.0472767" lon="8.1332167"><ele>247.5</ele><time>2026-04-18T16:52:41.366Z</time></trkpt><trkpt lat="45.0471717" lon="8.1332567"><ele>247.0</ele><time>2026-04-18T16:52:43.367Z</time></trkpt><trkpt lat="45.0471033" lon="8.1332083"><ele>246.5</ele><time>2026-04-18T16:52:44.367Z</time></trkpt><trkpt lat="45.0470367" lon="8.1331283"><ele>246.0</ele><time>2026-04-18T16:52:45.366Z</time></trkpt><trkpt lat="45.0469533" lon="8.1330583"><ele>246.0</ele><time>2026-04-18T16:52:46.367Z</time></trkpt><trkpt lat="45.046855" lon="8.133025"><ele>246.0</ele><time>2026-04-18T16:52:47.367Z</time></trkpt><trkpt lat="45.0467467" lon="8.1329933"><ele>246.0</ele><time>2026-04-18T16:52:48.367Z</time></trkpt><trkpt lat="45.0466283" lon="8.13298"><ele>246.0</ele><time>2026-04-18T16:52:49.367Z</time></trkpt><trkpt lat="45.0465067" lon="8.13296"><ele>245.4</ele><time>2026-04-18T16:52:50.367Z</time></trkpt><trkpt lat="45.04639" lon="8.13296"><ele>244.8</ele><time>2026-04-18T16:52:51.366Z</time></trkpt><trkpt lat="45.0462833" lon="8.1329867"><ele>244.20000000000002</ele><time>2026-04-18T16:52:52.367Z</time></trkpt><trkpt lat="45.04619" lon="8.13302"><ele>243.60000000000002</ele><time>2026-04-18T16:52:53.367Z</time></trkpt><trkpt lat="45.0460967" lon="8.1330583"><ele>243.0</ele><time>2026-04-18T16:52:54.367Z</time></trkpt><trkpt lat="45.0459983" lon="8.133135"><ele>242.25</ele><time>2026-04-18T16:52:55.367Z</time></trkpt><trkpt lat="45.045915" lon="8.133255"><ele>241.5</ele><time>2026-04-18T16:52:56.367Z</time></trkpt><trkpt lat="45.0457967" lon="8.13336"><ele>240.75</ele><time>2026-04-18T16:52:57.366Z</time></trkpt><trkpt lat="45.045745" lon="8.13352"><ele>240.0</ele><time>2026-04-18T16:52:58.365Z</time></trkpt><trkpt lat="45.0457" lon="8.1337033"><ele>240.0</ele><time>2026-04-18T16:52:59.365Z</time></trkpt><trkpt lat="45.0456567" lon="8.1338767"><ele>240.0</ele><time>2026-04-18T16:53:00.366Z</time></trkpt><trkpt lat="45.045615" lon="8.1340367"><ele>240.0</ele><time>2026-04-18T16:53:01.365Z</time></trkpt><trkpt lat="45.0455833" lon="8.1342167"><ele>240.0</ele><time>2026-04-18T16:53:02.366Z</time></trkpt><trkpt lat="45.0455817" lon="8.134405"><ele>240.0</ele><time>2026-04-18T16:53:03.366Z</time></trkpt><trkpt lat="45.04558" lon="8.1345733"><ele>240.0</ele><time>2026-04-18T16:53:04.365Z</time></trkpt><trkpt lat="45.04557" lon="8.1347183"><ele>240.0</ele><time>2026-04-18T16:53:05.366Z</time></trkpt><trkpt lat="45.0455617" lon="8.1348483"><ele>240.0</ele><time>2026-04-18T16:53:06.366Z</time></trkpt><trkpt lat="45.0455567" lon="8.1349667"><ele>240.0</ele><time>2026-04-18T16:53:07.366Z</time></trkpt><trkpt lat="45.0455533" lon="8.1350833"><ele>240.0</ele><time>2026-04-18T16:53:08.366Z</time></trkpt><trkpt lat="45.0455317" lon="8.135195"><ele>240.0</ele><time>2026-04-18T16:53:09.366Z</time></trkpt><trkpt lat="45.045495" lon="8.13531"><ele>240.0</ele><time>2026-04-18T16:53:10.365Z</time></trkpt><trkpt lat="45.0454217" lon="8.13541"><ele>240.0</ele><time>2026-04-18T16:53:11.365Z</time></trkpt><trkpt lat="45.04533" lon="8.135485"><ele>240.0</ele><time>2026-04-18T16:53:12.366Z</time></trkpt><trkpt lat="45.0452067" lon="8.1355633"><ele>240.0</ele><time>2026-04-18T16:53:13.366Z</time></trkpt><trkpt lat="45.045075" lon="8.135655"><ele>240.0</ele><time>2026-04-18T16:53:14.366Z</time></trkpt><trkpt lat="45.0449433" lon="8.13575"><ele>240.0</ele><time>2026-04-18T16:53:15.366Z</time></trkpt><trkpt lat="45.0448183" lon="8.13587"><ele>240.0</ele><time>2026-04-18T16:53:16.366Z</time></trkpt><trkpt lat="45.04469" lon="8.1359733"><ele>238.0</ele><time>2026-04-18T16:53:17.366Z</time></trkpt><trkpt lat="45.04456" lon="8.1360817"><ele>236.0</ele><time>2026-04-18T16:53:18.365Z</time></trkpt><trkpt lat="45.0444267" lon="8.1361917"><ele>234.0</ele><time>2026-04-18T16:53:19.365Z</time></trkpt><trkpt lat="45.044295" lon="8.13631"><ele>234.0</ele><time>2026-04-18T16:53:20.365Z</time></trkpt><trkpt lat="45.0441733" lon="8.1364317"><ele>234.0</ele><time>2026-04-18T16:53:21.366Z</time></trkpt><trkpt lat="45.044055" lon="8.1365417"><ele>234.0</ele><time>2026-04-18T16:53:22.365Z</time></trkpt><trkpt lat="45.043935" lon="8.136645"><ele>234.0</ele><time>2026-04-18T16:53:23.366Z</time></trkpt><trkpt lat="45.04381" lon="8.13673"><ele>232.75</ele><time>2026-04-18T16:53:24.366Z</time></trkpt><trkpt lat="45.043685" lon="8.1367983"><ele>231.5</ele><time>2026-04-18T16:53:25.366Z</time></trkpt><trkpt lat="45.04355" lon="8.136845"><ele>230.25</ele><time>2026-04-18T16:53:26.366Z</time></trkpt><trkpt lat="45.0434017" lon="8.1368733"><ele>229.0</ele><time>2026-04-18T16:53:27.366Z</time></trkpt><trkpt lat="45.0432533" lon="8.13686"><ele>227.33333333333331</ele><time>2026-04-18T16:53:28.366Z</time></trkpt><trkpt lat="45.0431" lon="8.1368383"><ele>225.66666666666669</ele><time>2026-04-18T16:53:29.366Z</time></trkpt><trkpt lat="45.0429433" lon="8.1368167"><ele>224.0</ele><time>2026-04-18T16:53:30.365Z</time></trkpt><trkpt lat="45.04277" lon="8.136785"><ele>224.0</ele><time>2026-04-18T16:53:31.366Z</time></trkpt><trkpt lat="45.04262" lon="8.1367667"><ele>224.0</ele><time>2026-04-18T16:53:32.366Z</time></trkpt><trkpt lat="45.0424583" lon="8.1367417"><ele>224.0</ele><time>2026-04-18T16:53:33.365Z</time></trkpt><trkpt lat="45.042285" lon="8.1367283"><ele>222.33333333333334</ele><time>2026-04-18T16:53:34.365Z</time></trkpt><trkpt lat="45.04212" lon="8.13673"><ele>220.66666666666669</ele><time>2026-04-18T16:53:35.365Z</time></trkpt><trkpt lat="45.0419517" lon="8.1367483"><ele>219.0</ele><time>2026-04-18T16:53:36.366Z</time></trkpt><trkpt lat="45.04179" lon="8.136775"><ele>218.0</ele><time>2026-04-18T16:53:37.366Z</time></trkpt><trkpt lat="45.0416267" lon="8.1368033"><ele>217.0</ele><time>2026-04-18T16:53:38.366Z</time></trkpt><trkpt lat="45.0414717" lon="8.1368483"><ele>216.0</ele><time>2026-04-18T16:53:39.366Z</time></trkpt><trkpt lat="45.04132" lon="8.136875"><ele>216.0</ele><time>2026-04-18T16:53:40.366Z</time></trkpt><trkpt lat="45.0411767" lon="8.1368783"><ele>216.0</ele><time>2026-04-18T16:53:41.366Z</time></trkpt><trkpt lat="45.04102" lon="8.1368733"><ele>216.0</ele><time>2026-04-18T16:53:42.366Z</time></trkpt><trkpt lat="45.0408583" lon="8.1368483"><ele>215.0</ele><time>2026-04-18T16:53:43.365Z</time></trkpt><trkpt lat="45.0407017" lon="8.1367983"><ele>214.0</ele><time>2026-04-18T16:53:44.365Z</time></trkpt><trkpt lat="45.04054" lon="8.136745"><ele>213.0</ele><time>2026-04-18T16:53:45.366Z</time></trkpt><trkpt lat="45.0403683" lon="8.136685"><ele>213.0</ele><time>2026-04-18T16:53:46.366Z</time></trkpt><trkpt lat="45.0402117" lon="8.1366333"><ele>213.0</ele><time>2026-04-18T16:53:47.366Z</time></trkpt><trkpt lat="45.0400617" lon="8.1365883"><ele>213.0</ele><time>2026-04-18T16:53:48.366Z</time></trkpt><trkpt lat="45.03991" lon="8.1365533"><ele>213.5</ele><time>2026-04-18T16:53:49.366Z</time></trkpt><trkpt lat="45.039765" lon="8.1365617"><ele>214.0</ele><time>2026-04-18T16:53:50.365Z</time></trkpt><trkpt lat="45.0396283" lon="8.1365767"><ele>214.5</ele><time>2026-04-18T16:53:51.366Z</time></trkpt><trkpt lat="45.0394883" lon="8.13659"><ele>215.0</ele><time>2026-04-18T16:53:52.366Z</time></trkpt><trkpt lat="45.039335" lon="8.13658"><ele>215.0</ele><time>2026-04-18T16:53:53.366Z</time></trkpt><trkpt lat="45.0391833" lon="8.1365533"><ele>215.0</ele><time>2026-04-18T16:53:54.366Z</time></trkpt><trkpt lat="45.03905" lon="8.1364733"><ele>215.0</ele><time>2026-04-18T16:53:55.366Z</time></trkpt><trkpt lat="45.0389333" lon="8.1363167"><ele>212.33333333333334</ele><time>2026-04-18T16:53:56.366Z</time></trkpt><trkpt lat="45.038835" lon="8.1361217"><ele>209.66666666666669</ele><time>2026-04-18T16:53:57.365Z</time></trkpt><trkpt lat="45.0387617" lon="8.135925"><ele>207.0</ele><time>2026-04-18T16:53:58.365Z</time></trkpt><trkpt lat="45.0386933" lon="8.1357367"><ele>204.5</ele><time>2026-04-18T16:53:59.366Z</time></trkpt><trkpt lat="45.0386083" lon="8.13557"><ele>202.0</ele><time>2026-04-18T16:54:00.366Z</time></trkpt><trkpt lat="45.0385117" lon="8.1354383"><ele>199.5</ele><time>2026-04-18T16:54:01.366Z</time></trkpt><trkpt lat="45.038385" lon="8.1353333"><ele>197.0</ele><time>2026-04-18T16:54:02.366Z</time></trkpt><trkpt lat="45.0382433" lon="8.13527"><ele>197.0</ele><time>2026-04-18T16:54:03.365Z</time></trkpt><trkpt lat="45.038085" lon="8.1352217"><ele>197.0</ele><time>2026-04-18T16:54:04.366Z</time></trkpt><trkpt lat="45.0379383" lon="8.1351617"><ele>197.0</ele><time>2026-04-18T16:54:05.366Z</time></trkpt><trkpt lat="45.037805" lon="8.1351117"><ele>197.0</ele><time>2026-04-18T16:54:06.366Z</time></trkpt><trkpt lat="45.0376817" lon="8.1350667"><ele>197.0</ele><time>2026-04-18T16:54:07.366Z</time></trkpt><trkpt lat="45.0375583" lon="8.1350283"><ele>197.0</ele><time>2026-04-18T16:54:08.366Z</time></trkpt><trkpt lat="45.0374217" lon="8.1350083"><ele>197.0</ele><time>2026-04-18T16:54:09.366Z</time></trkpt><trkpt lat="45.03728" lon="8.135015"><ele>194.5</ele><time>2026-04-18T16:54:10.366Z</time></trkpt><trkpt lat="45.0371417" lon="8.135085"><ele>192.0</ele><time>2026-04-18T16:54:11.366Z</time></trkpt><trkpt lat="45.03702" lon="8.1351967"><ele>189.5</ele><time>2026-04-18T16:54:12.365Z</time></trkpt><trkpt lat="45.0368783" lon="8.135285"><ele>187.0</ele><time>2026-04-18T16:54:13.366Z</time></trkpt><trkpt lat="45.0367533" lon="8.1353833"><ele>186.0</ele><time>2026-04-18T16:54:14.365Z</time></trkpt><trkpt lat="45.036635" lon="8.1354783"><ele>185.0</ele><time>2026-04-18T16:54:15.366Z</time></trkpt><trkpt lat="45.03653" lon="8.1355667"><ele>184.0</ele><time>2026-04-18T16:54:16.366Z</time></trkpt><trkpt lat="45.0364317" lon="8.1356433"><ele>183.0</ele><time>2026-04-18T16:54:17.366Z</time></trkpt><trkpt lat="45.036315" lon="8.1356833"><ele>183.0</ele><time>2026-04-18T16:54:18.365Z</time></trkpt><trkpt lat="45.0361933" lon="8.1356733"><ele>183.0</ele><time>2026-04-18T16:54:19.366Z</time></trkpt><trkpt lat="45.0360767" lon="8.1356017"><ele>183.0</ele><time>2026-04-18T16:54:20.366Z</time></trkpt><trkpt lat="45.035975" lon="8.1354617"><ele>183.0</ele><time>2026-04-18T16:54:21.366Z</time></trkpt><trkpt lat="45.0359" lon="8.1352717"><ele>183.0</ele><time>2026-04-18T16:54:22.366Z</time></trkpt><trkpt lat="45.035845" lon="8.13504"><ele>183.0</ele><time>2026-04-18T16:54:23.365Z</time></trkpt><trkpt lat="45.0357967" lon="8.13482"><ele>183.0</ele><time>2026-04-18T16:54:24.366Z</time></trkpt><trkpt lat="45.0357417" lon="8.1346"><ele>184.0</ele><time>2026-04-18T16:54:25.366Z</time></trkpt><trkpt lat="45.035685" lon="8.134375"><ele>185.0</ele><time>2026-04-18T16:54:26.366Z</time></trkpt><trkpt lat="45.0356233" lon="8.1341617"><ele>186.0</ele><time>2026-04-18T16:54:27.365Z</time></trkpt><trkpt lat="45.0355617" lon="8.13394"><ele>186.0</ele><time>2026-04-18T16:54:28.365Z</time></trkpt><trkpt lat="45.0354933" lon="8.133735"><ele>186.0</ele><time>2026-04-18T16:54:29.365Z</time></trkpt><trkpt lat="45.03542" lon="8.1335333"><ele>186.0</ele><time>2026-04-18T16:54:30.366Z</time></trkpt><trkpt lat="45.0353417" lon="8.1333317"><ele>184.66666666666666</ele><time>2026-04-18T16:54:31.366Z</time></trkpt><trkpt lat="45.0352567" lon="8.1331317"><ele>183.33333333333331</ele><time>2026-04-18T16:54:32.366Z</time></trkpt><trkpt lat="45.0351767" lon="8.132935"><ele>182.0</ele><time>2026-04-18T16:54:33.366Z</time></trkpt><trkpt lat="45.03509" lon="8.1327383"><ele>182.0</ele><time>2026-04-18T16:54:34.366Z</time></trkpt><trkpt lat="45.035015" lon="8.1325383"><ele>182.0</ele><time>2026-04-18T16:54:35.365Z</time></trkpt><trkpt lat="45.0349367" lon="8.1323467"><ele>182.0</ele><time>2026-04-18T16:54:36.366Z</time></trkpt><trkpt lat="45.0348583" lon="8.1321633"><ele>180.25</ele><time>2026-04-18T16:54:37.366Z</time></trkpt><trkpt lat="45.034775" lon="8.1319833"><ele>178.5</ele><time>2026-04-18T16:54:38.366Z</time></trkpt><trkpt lat="45.03469" lon="8.13182"><ele>176.75</ele><time>2026-04-18T16:54:39.365Z</time></trkpt><trkpt lat="45.034585" lon="8.131675"><ele>175.0</ele><time>2026-04-18T16:54:40.366Z</time></trkpt><trkpt lat="45.0344867" lon="8.1315667"><ele>174.0</ele><time>2026-04-18T16:54:41.366Z</time></trkpt><trkpt lat="45.0343633" lon="8.1315133"><ele>173.0</ele><time>2026-04-18T16:54:42.366Z</time></trkpt><trkpt lat="45.0342483" lon="8.1314983"><ele>172.0</ele><time>2026-04-18T16:54:43.366Z</time></trkpt><trkpt lat="45.0341133" lon="8.13154"><ele>171.0</ele><time>2026-04-18T16:54:44.366Z</time></trkpt><trkpt lat="45.0339717" lon="8.13161"><ele>171.0</ele><time>2026-04-18T16:54:45.366Z</time></trkpt><trkpt lat="45.033815" lon="8.1316883"><ele>171.0</ele><time>2026-04-18T16:54:46.366Z</time></trkpt><trkpt lat="45.0336667" lon="8.1317683"><ele>171.0</ele><time>2026-04-18T16:54:47.365Z</time></trkpt><trkpt lat="45.03351" lon="8.1318533"><ele>171.0</ele><time>2026-04-18T16:54:48.365Z</time></trkpt><trkpt lat="45.0333583" lon="8.1319267"><ele>171.0</ele><time>2026-04-18T16:54:49.366Z</time></trkpt><trkpt lat="45.0332183" lon="8.1320167"><ele>171.0</ele><time>2026-04-18T16:54:50.366Z</time></trkpt><trkpt lat="45.0330633" lon="8.1321033"><ele>170.0</ele><time>2026-04-18T16:54:51.365Z</time></trkpt><trkpt lat="45.032905" lon="8.1321767"><ele>169.0</ele><time>2026-04-18T16:54:52.366Z</time></trkpt><trkpt lat="45.03275" lon="8.13225"><ele>168.0</ele><time>2026-04-18T16:54:53.365Z</time></trkpt><trkpt lat="45.0326017" lon="8.1323283"><ele>169.0</ele><time>2026-04-18T16:54:54.366Z</time></trkpt><trkpt lat="45.0324517" lon="8.1324033"><ele>170.0</ele><time>2026-04-18T16:54:55.366Z</time></trkpt><trkpt lat="45.0323017" lon="8.13248"><ele>171.0</ele><time>2026-04-18T16:54:56.365Z</time></trkpt><trkpt lat="45.032145" lon="8.1325567"><ele>171.0</ele><time>2026-04-18T16:54:57.365Z</time></trkpt><trkpt lat="45.0319917" lon="8.13263"><ele>171.0</ele><time>2026-04-18T16:54:58.366Z</time></trkpt><trkpt lat="45.0318333" lon="8.1327083"><ele>171.0</ele><time>2026-04-18T16:54:59.366Z</time></trkpt><trkpt lat="45.0316717" lon="8.1327917"><ele>170.0</ele><time>2026-04-18T16:55:00.366Z</time></trkpt><trkpt lat="45.0315117" lon="8.1328583"><ele>169.0</ele><time>2026-04-18T16:55:01.366Z</time></trkpt><trkpt lat="45.0313533" lon="8.1329333"><ele>168.0</ele><time>2026-04-18T16:55:02.366Z</time></trkpt><trkpt lat="45.0312067" lon="8.1330233"><ele>168.0</ele><time>2026-04-18T16:55:03.366Z</time></trkpt><trkpt lat="45.031055" lon="8.133105"><ele>168.0</ele><time>2026-04-18T16:55:04.366Z</time></trkpt><trkpt lat="45.0309" lon="8.133195"><ele>168.0</ele><time>2026-04-18T16:55:05.365Z</time></trkpt><trkpt lat="45.0307517" lon="8.1333167"><ele>167.66666666666666</ele><time>2026-04-18T16:55:06.365Z</time></trkpt><trkpt lat="45.0306217" lon="8.1334633"><ele>167.33333333333331</ele><time>2026-04-18T16:55:07.366Z</time></trkpt><trkpt lat="45.0305017" lon="8.13363"><ele>167.0</ele><time>2026-04-18T16:55:08.366Z</time></trkpt><trkpt lat="45.0303833" lon="8.1338"><ele>167.0</ele><time>2026-04-18T16:55:09.366Z</time></trkpt><trkpt lat="45.030265" lon="8.1339583"><ele>167.0</ele><time>2026-04-18T16:55:10.366Z</time></trkpt><trkpt lat="45.0301583" lon="8.1341133"><ele>167.0</ele><time>2026-04-18T16:55:11.366Z</time></trkpt><trkpt lat="45.03005" lon="8.1342533"><ele>166.66666666666666</ele><time>2026-04-18T16:55:12.366Z</time></trkpt><trkpt lat="45.0299333" lon="8.1343917"><ele>166.33333333333334</ele><time>2026-04-18T16:55:13.366Z</time></trkpt><trkpt lat="45.0298133" lon="8.1345367"><ele>166.0</ele><time>2026-04-18T16:55:14.365Z</time></trkpt><trkpt lat="45.0297" lon="8.1347017"><ele>166.0</ele><time>2026-04-18T16:55:15.365Z</time></trkpt><trkpt lat="45.0295883" lon="8.1348567"><ele>166.0</ele><time>2026-04-18T16:55:16.366Z</time></trkpt><trkpt lat="45.02948" lon="8.1350017"><ele>166.0</ele><time>2026-04-18T16:55:17.366Z</time></trkpt><trkpt lat="45.0293733" lon="8.1351617"><ele>166.0</ele><time>2026-04-18T16:55:18.365Z</time></trkpt><trkpt lat="45.0292633" lon="8.13531"><ele>166.0</ele><time>2026-04-18T16:55:19.365Z</time></trkpt><trkpt lat="45.02915" lon="8.1354617"><ele>166.0</ele><time>2026-04-18T16:55:20.366Z</time></trkpt><trkpt lat="45.0290383" lon="8.1356217"><ele>166.33333333333334</ele><time>2026-04-18T16:55:21.366Z</time></trkpt><trkpt lat="45.0289517" lon="8.135815"><ele>166.66666666666666</ele><time>2026-04-18T16:55:22.365Z</time></trkpt><trkpt lat="45.0288817" lon="8.1360233"><ele>167.0</ele><time>2026-04-18T16:55:23.366Z</time></trkpt><trkpt lat="45.0288217" lon="8.13625"><ele>167.0</ele><time>2026-04-18T16:55:24.366Z</time></trkpt><trkpt lat="45.02879" lon="8.1364767"><ele>167.0</ele><time>2026-04-18T16:55:25.366Z</time></trkpt><trkpt lat="45.028765" lon="8.1366933"><ele>167.0</ele><time>2026-04-18T16:55:26.366Z</time></trkpt><trkpt lat="45.02874" lon="8.1369183"><ele>166.66666666666666</ele><time>2026-04-18T16:55:27.366Z</time></trkpt><trkpt lat="45.0287117" lon="8.1371417"><ele>166.33333333333334</ele><time>2026-04-18T16:55:28.366Z</time></trkpt><trkpt lat="45.0286767" lon="8.1373517"><ele>166.0</ele><time>2026-04-18T16:55:29.365Z</time></trkpt><trkpt lat="45.0286483" lon="8.1375467"><ele>166.0</ele><time>2026-04-18T16:55:30.366Z</time></trkpt><trkpt lat="45.02862" lon="8.1377283"><ele>166.0</ele><time>2026-04-18T16:55:31.366Z</time></trkpt><trkpt lat="45.0285767" lon="8.1378817"><ele>166.0</ele><time>2026-04-18T16:55:32.366Z</time></trkpt><trkpt lat="45.0285033" lon="8.13801"><ele>166.0</ele><time>2026-04-18T16:55:33.366Z</time></trkpt><trkpt lat="45.0284067" lon="8.1380683"><ele>165.75</ele><time>2026-04-18T16:55:34.366Z</time></trkpt><trkpt lat="45.02829" lon="8.1380683"><ele>165.5</ele><time>2026-04-18T16:55:35.366Z</time></trkpt><trkpt lat="45.0281467" lon="8.137995"><ele>165.25</ele><time>2026-04-18T16:55:36.366Z</time></trkpt><trkpt lat="45.02799" lon="8.1378933"><ele>165.0</ele><time>2026-04-18T16:55:37.366Z</time></trkpt><trkpt lat="45.0278383" lon="8.137805"><ele>165.0</ele><time>2026-04-18T16:55:38.366Z</time></trkpt><trkpt lat="45.027695" lon="8.1377283"><ele>165.0</ele><time>2026-04-18T16:55:39.366Z</time></trkpt><trkpt lat="45.0275483" lon="8.1376467"><ele>165.0</ele><time>2026-04-18T16:55:40.366Z</time></trkpt><trkpt lat="45.027405" lon="8.1375717"><ele>165.0</ele><time>2026-04-18T16:55:41.366Z</time></trkpt><trkpt lat="45.027265" lon="8.1375"><ele>165.0</ele><time>2026-04-18T16:55:42.365Z</time></trkpt><trkpt lat="45.027135" lon="8.1374467"><ele>165.0</ele><time>2026-04-18T16:55:43.366Z</time></trkpt><trkpt lat="45.027" lon="8.137405"><ele>165.0</ele><time>2026-04-18T16:55:44.366Z</time></trkpt><trkpt lat="45.02688" lon="8.1373583"><ele>165.25</ele><time>2026-04-18T16:55:45.366Z</time></trkpt><trkpt lat="45.026755" lon="8.1373083"><ele>165.5</ele><time>2026-04-18T16:55:46.366Z</time></trkpt><trkpt lat="45.026635" lon="8.1372633"><ele>165.75</ele><time>2026-04-18T16:55:47.366Z</time></trkpt><trkpt lat="45.0265183" lon="8.1372317"><ele>166.0</ele><time>2026-04-18T16:55:48.366Z</time></trkpt><trkpt lat="45.0264183" lon="8.1371933"><ele>166.0</ele><time>2026-04-18T16:55:49.366Z</time></trkpt><trkpt lat="45.02634" lon="8.137155"><ele>166.0</ele><time>2026-04-18T16:55:50.366Z</time></trkpt><trkpt lat="45.0262617" lon="8.1371133"><ele>166.0</ele><time>2026-04-18T16:55:51.366Z</time></trkpt><trkpt lat="45.0262083" lon="8.13706"><ele>166.0</ele><time>2026-04-18T16:55:52.366Z</time></trkpt><trkpt lat="45.0261233" lon="8.1369133"><ele>166.0</ele><time>2026-04-18T16:55:54.365Z</time></trkpt><trkpt lat="45.0260983" lon="8.1367967"><ele>166.0</ele><time>2026-04-18T16:55:55.366Z</time></trkpt><trkpt lat="45.0260983" lon="8.1366517"><ele>166.0</ele><time>2026-04-18T16:55:56.366Z</time></trkpt><trkpt lat="45.02613" lon="8.1364867"><ele>166.0</ele><time>2026-04-18T16:55:57.366Z</time></trkpt><trkpt lat="45.0261883" lon="8.1363017"><ele>166.0</ele><time>2026-04-18T16:55:58.366Z</time></trkpt><trkpt lat="45.0262417" lon="8.1361233"><ele>165.5</ele><time>2026-04-18T16:55:59.366Z</time></trkpt><trkpt lat="45.0262833" lon="8.1359317"><ele>165.0</ele><time>2026-04-18T16:56:00.366Z</time></trkpt><trkpt lat="45.0263383" lon="8.1357483"><ele>164.5</ele><time>2026-04-18T16:56:01.365Z</time></trkpt><trkpt lat="45.0263867" lon="8.135555"><ele>164.0</ele><time>2026-04-18T16:56:02.366Z</time></trkpt><trkpt lat="45.0264433" lon="8.1353583"><ele>163.66666666666666</ele><time>2026-04-18T16:56:03.365Z</time></trkpt><trkpt lat="45.0264983" lon="8.1351583"><ele>163.33333333333334</ele><time>2026-04-18T16:56:04.366Z</time></trkpt><trkpt lat="45.0265567" lon="8.13495"><ele>163.0</ele><time>2026-04-18T16:56:05.366Z</time></trkpt><trkpt lat="45.0266183" lon="8.134735"><ele>164.0</ele><time>2026-04-18T16:56:06.366Z</time></trkpt><trkpt lat="45.0266783" lon="8.134525"><ele>165.0</ele><time>2026-04-18T16:56:07.365Z</time></trkpt><trkpt lat="45.0267317" lon="8.134315"><ele>166.0</ele><time>2026-04-18T16:56:08.366Z</time></trkpt><trkpt lat="45.0267933" lon="8.134105"><ele>165.66666666666669</ele><time>2026-04-18T16:56:09.365Z</time></trkpt><trkpt lat="45.0268433" lon="8.133895"><ele>165.33333333333334</ele><time>2026-04-18T16:56:10.365Z</time></trkpt><trkpt lat="45.0269017" lon="8.1336783"><ele>165.0</ele><time>2026-04-18T16:56:11.366Z</time></trkpt><trkpt lat="45.026955" lon="8.13346"><ele>165.0</ele><time>2026-04-18T16:56:12.366Z</time></trkpt><trkpt lat="45.0270083" lon="8.133255"><ele>165.0</ele><time>2026-04-18T16:56:13.366Z</time></trkpt><trkpt lat="45.0270633" lon="8.1330567"><ele>165.0</ele><time>2026-04-18T16:56:14.366Z</time></trkpt><trkpt lat="45.02712" lon="8.13285"><ele>165.0</ele><time>2026-04-18T16:56:15.365Z</time></trkpt><trkpt lat="45.02717" lon="8.1326383"><ele>165.0</ele><time>2026-04-18T16:56:16.366Z</time></trkpt><trkpt lat="45.02723" lon="8.1324217"><ele>165.0</ele><time>2026-04-18T16:56:17.365Z</time></trkpt><trkpt lat="45.0272783" lon="8.1322"><ele>165.33333333333334</ele><time>2026-04-18T16:56:18.365Z</time></trkpt><trkpt lat="45.0273333" lon="8.1319817"><ele>165.66666666666669</ele><time>2026-04-18T16:56:19.365Z</time></trkpt><trkpt lat="45.027385" lon="8.1317683"><ele>166.0</ele><time>2026-04-18T16:56:20.366Z</time></trkpt><trkpt lat="45.027435" lon="8.1315467"><ele>167.0</ele><time>2026-04-18T16:56:21.366Z</time></trkpt><trkpt lat="45.0274933" lon="8.1313383"><ele>168.0</ele><time>2026-04-18T16:56:22.366Z</time></trkpt><trkpt lat="45.02755" lon="8.13113"><ele>169.0</ele><time>2026-04-18T16:56:23.366Z</time></trkpt><trkpt lat="45.02761" lon="8.13094"><ele>169.0</ele><time>2026-04-18T16:56:24.366Z</time></trkpt><trkpt lat="45.0276583" lon="8.1307567"><ele>169.0</ele><time>2026-04-18T16:56:25.366Z</time></trkpt><trkpt lat="45.02772" lon="8.1305733"><ele>169.0</ele><time>2026-04-18T16:56:26.366Z</time></trkpt><trkpt lat="45.0277733" lon="8.130385"><ele>169.0</ele><time>2026-04-18T16:56:27.365Z</time></trkpt><trkpt lat="45.0278233" lon="8.1302067"><ele>168.79999999999998</ele><time>2026-04-18T16:56:28.366Z</time></trkpt><trkpt lat="45.0278683" lon="8.1300433"><ele>168.6</ele><time>2026-04-18T16:56:29.366Z</time></trkpt><trkpt lat="45.0279017" lon="8.129905"><ele>168.4</ele><time>2026-04-18T16:56:30.366Z</time></trkpt><trkpt lat="45.0279333" lon="8.1297917"><ele>168.2</ele><time>2026-04-18T16:56:31.366Z</time></trkpt><trkpt lat="45.02796" lon="8.12968"><ele>168.0</ele><time>2026-04-18T16:56:32.366Z</time></trkpt><trkpt lat="45.027965" lon="8.1295817"><ele>168.0</ele><time>2026-04-18T16:56:33.366Z</time></trkpt><trkpt lat="45.027935" lon="8.1294833"><ele>168.0</ele><time>2026-04-18T16:56:34.366Z</time></trkpt><trkpt lat="45.027895" lon="8.129405"><ele>168.0</ele><time>2026-04-18T16:56:35.365Z</time></trkpt><trkpt lat="45.0278167" lon="8.129325"><ele>168.0</ele><time>2026-04-18T16:56:36.365Z</time></trkpt><trkpt lat="45.0277117" lon="8.1292617"><ele>168.0</ele><time>2026-04-18T16:56:37.366Z</time></trkpt><trkpt lat="45.0275833" lon="8.1292033"><ele>167.75</ele><time>2026-04-18T16:56:38.366Z</time></trkpt><trkpt lat="45.02744" lon="8.1291383"><ele>167.5</ele><time>2026-04-18T16:56:39.365Z</time></trkpt><trkpt lat="45.02732" lon="8.1290533"><ele>167.25</ele><time>2026-04-18T16:56:40.366Z</time></trkpt><trkpt lat="45.02719" lon="8.1289583"><ele>167.0</ele><time>2026-04-18T16:56:41.366Z</time></trkpt><trkpt lat="45.0270567" lon="8.1288517"><ele>167.66666666666666</ele><time>2026-04-18T16:56:42.365Z</time></trkpt><trkpt lat="45.026925" lon="8.12875"><ele>168.33333333333334</ele><time>2026-04-18T16:56:43.365Z</time></trkpt><trkpt lat="45.0267767" lon="8.128635"><ele>169.0</ele><time>2026-04-18T16:56:44.365Z</time></trkpt><trkpt lat="45.0266283" lon="8.1285333"><ele>168.33333333333334</ele><time>2026-04-18T16:56:45.366Z</time></trkpt><trkpt lat="45.0264767" lon="8.1284233"><ele>167.66666666666666</ele><time>2026-04-18T16:56:46.365Z</time></trkpt><trkpt lat="45.02632" lon="8.12831"><ele>167.0</ele><time>2026-04-18T16:56:47.366Z</time></trkpt><trkpt lat="45.026165" lon="8.128195"><ele>167.0</ele><time>2026-04-18T16:56:48.366Z</time></trkpt><trkpt lat="45.026015" lon="8.1281"><ele>167.0</ele><time>2026-04-18T16:56:49.366Z</time></trkpt><trkpt lat="45.025875" lon="8.1279883"><ele>167.0</ele><time>2026-04-18T16:56:50.366Z</time></trkpt><trkpt lat="45.02573" lon="8.127875"><ele>167.66666666666666</ele><time>2026-04-18T16:56:51.366Z</time></trkpt><trkpt lat="45.025585" lon="8.1277617"><ele>168.33333333333334</ele><time>2026-04-18T16:56:52.365Z</time></trkpt><trkpt lat="45.0254417" lon="8.127655"><ele>169.0</ele><time>2026-04-18T16:56:53.366Z</time></trkpt><trkpt lat="45.0252967" lon="8.1275483"><ele>169.0</ele><time>2026-04-18T16:56:54.366Z</time></trkpt><trkpt lat="45.0251483" lon="8.1274483"><ele>169.0</ele><time>2026-04-18T16:56:55.366Z</time></trkpt><trkpt lat="45.025005" lon="8.12734"><ele>169.0</ele><time>2026-04-18T16:56:56.366Z</time></trkpt><trkpt lat="45.0248633" lon="8.1272417"><ele>170.33333333333334</ele><time>2026-04-18T16:56:57.365Z</time></trkpt><trkpt lat="45.0247183" lon="8.1271333"><ele>171.66666666666666</ele><time>2026-04-18T16:56:58.365Z</time></trkpt><trkpt lat="45.0245733" lon="8.127025"><ele>173.0</ele><time>2026-04-18T16:56:59.365Z</time></trkpt><trkpt lat="45.02443" lon="8.1269317"><ele>173.0</ele><time>2026-04-18T16:57:00.366Z</time></trkpt><trkpt lat="45.0242917" lon="8.126835"><ele>173.0</ele><time>2026-04-18T16:57:01.366Z</time></trkpt><trkpt lat="45.02416" lon="8.1267233"><ele>173.0</ele><time>2026-04-18T16:57:02.366Z</time></trkpt><trkpt lat="45.024025" lon="8.1265983"><ele>175.33333333333331</ele><time>2026-04-18T16:57:03.366Z</time></trkpt><trkpt lat="45.0238767" lon="8.1264833"><ele>177.66666666666666</ele><time>2026-04-18T16:57:04.366Z</time></trkpt><trkpt lat="45.0237317" lon="8.1263733"><ele>180.0</ele><time>2026-04-18T16:57:05.366Z</time></trkpt><trkpt lat="45.0235817" lon="8.1262667"><ele>180.0</ele><time>2026-04-18T16:57:06.365Z</time></trkpt><trkpt lat="45.023445" lon="8.1261683"><ele>180.0</ele><time>2026-04-18T16:57:07.366Z</time></trkpt><trkpt lat="45.0233133" lon="8.12608"><ele>180.0</ele><time>2026-04-18T16:57:08.366Z</time></trkpt><trkpt lat="45.0231783" lon="8.125975"><ele>179.33333333333334</ele><time>2026-04-18T16:57:09.366Z</time></trkpt><trkpt lat="45.0230367" lon="8.1258533"><ele>178.66666666666669</ele><time>2026-04-18T16:57:10.366Z</time></trkpt><trkpt lat="45.022895" lon="8.12575"><ele>178.0</ele><time>2026-04-18T16:57:11.366Z</time></trkpt><trkpt lat="45.0227383" lon="8.1256417"><ele>180.0</ele><time>2026-04-18T16:57:12.365Z</time></trkpt><trkpt lat="45.022585" lon="8.12554"><ele>182.0</ele><time>2026-04-18T16:57:13.366Z</time></trkpt><trkpt lat="45.0224333" lon="8.125435"><ele>184.0</ele><time>2026-04-18T16:57:14.366Z</time></trkpt><trkpt lat="45.0222883" lon="8.12533"><ele>185.0</ele><time>2026-04-18T16:57:15.366Z</time></trkpt><trkpt lat="45.0221467" lon="8.125225"><ele>186.0</ele><time>2026-04-18T16:57:16.366Z</time></trkpt><trkpt lat="45.022005" lon="8.1251183"><ele>187.0</ele><time>2026-04-18T16:57:17.366Z</time></trkpt><trkpt lat="45.0218683" lon="8.1250067"><ele>187.0</ele><time>2026-04-18T16:57:18.365Z</time></trkpt><trkpt lat="45.0217167" lon="8.1249"><ele>187.0</ele><time>2026-04-18T16:57:19.365Z</time></trkpt><trkpt lat="45.0215767" lon="8.1248"><ele>187.0</ele><time>2026-04-18T16:57:20.365Z</time></trkpt><trkpt lat="45.0214367" lon="8.12469"><ele>189.33333333333334</ele><time>2026-04-18T16:57:21.366Z</time></trkpt><trkpt lat="45.0213" lon="8.1245717"><ele>191.66666666666669</ele><time>2026-04-18T16:57:22.365Z</time></trkpt><trkpt lat="45.0211633" lon="8.1244383"><ele>194.0</ele><time>2026-04-18T16:57:23.366Z</time></trkpt><trkpt lat="45.0210367" lon="8.1243"><ele>194.0</ele><time>2026-04-18T16:57:24.366Z</time></trkpt><trkpt lat="45.0209117" lon="8.1241633"><ele>194.0</ele><time>2026-04-18T16:57:25.366Z</time></trkpt><trkpt lat="45.0208083" lon="8.1240183"><ele>194.0</ele><time>2026-04-18T16:57:26.366Z</time></trkpt><trkpt lat="45.0206767" lon="8.1238567"><ele>195.66666666666669</ele><time>2026-04-18T16:57:27.366Z</time></trkpt><trkpt lat="45.0205483" lon="8.1237"><ele>197.33333333333331</ele><time>2026-04-18T16:57:28.366Z</time></trkpt><trkpt lat="45.0204167" lon="8.1235533"><ele>199.0</ele><time>2026-04-18T16:57:29.365Z</time></trkpt><trkpt lat="45.0202917" lon="8.1234117"><ele>199.0</ele><time>2026-04-18T16:57:30.366Z</time></trkpt><trkpt lat="45.02016" lon="8.1232867"><ele>199.0</ele><time>2026-04-18T16:57:31.366Z</time></trkpt><trkpt lat="45.020025" lon="8.1231783"><ele>199.0</ele><time>2026-04-18T16:57:32.366Z</time></trkpt><trkpt lat="45.0198683" lon="8.1231"><ele>201.66666666666666</ele><time>2026-04-18T16:57:33.366Z</time></trkpt><trkpt lat="45.0197033" lon="8.1230583"><ele>204.33333333333331</ele><time>2026-04-18T16:57:34.366Z</time></trkpt><trkpt lat="45.0195467" lon="8.123025"><ele>207.0</ele><time>2026-04-18T16:57:35.366Z</time></trkpt><trkpt lat="45.0194" lon="8.1229817"><ele>207.0</ele><time>2026-04-18T16:57:36.366Z</time></trkpt><trkpt lat="45.0192783" lon="8.12292"><ele>207.0</ele><time>2026-04-18T16:57:37.365Z</time></trkpt><trkpt lat="45.0191567" lon="8.122825"><ele>207.0</ele><time>2026-04-18T16:57:38.366Z</time></trkpt><trkpt lat="45.01904" lon="8.12273"><ele>207.0</ele><time>2026-04-18T16:57:39.366Z</time></trkpt><trkpt lat="45.0189367" lon="8.1225867"><ele>206.33333333333331</ele><time>2026-04-18T16:57:40.365Z</time></trkpt><trkpt lat="45.018825" lon="8.122425"><ele>205.66666666666666</ele><time>2026-04-18T16:57:41.365Z</time></trkpt><trkpt lat="45.0187017" lon="8.12227"><ele>205.0</ele><time>2026-04-18T16:57:42.366Z</time></trkpt><trkpt lat="45.0185783" lon="8.1221117"><ele>207.0</ele><time>2026-04-18T16:57:43.366Z</time></trkpt><trkpt lat="45.0184467" lon="8.1219533"><ele>209.0</ele><time>2026-04-18T16:57:44.366Z</time></trkpt><trkpt lat="45.0183183" lon="8.1218067"><ele>211.0</ele><time>2026-04-18T16:57:45.366Z</time></trkpt><trkpt lat="45.0182067" lon="8.12165"><ele>213.33333333333331</ele><time>2026-04-18T16:57:46.366Z</time></trkpt><trkpt lat="45.0180917" lon="8.1215017"><ele>215.66666666666669</ele><time>2026-04-18T16:57:47.365Z</time></trkpt><trkpt lat="45.0179733" lon="8.1213517"><ele>218.0</ele><time>2026-04-18T16:57:48.365Z</time></trkpt><trkpt lat="45.0178433" lon="8.1212067"><ele>218.0</ele><time>2026-04-18T16:57:49.366Z</time></trkpt><trkpt lat="45.0177117" lon="8.12106"><ele>218.0</ele><time>2026-04-18T16:57:50.365Z</time></trkpt><trkpt lat="45.0175983" lon="8.1208967"><ele>218.0</ele><time>2026-04-18T16:57:51.366Z</time></trkpt><trkpt lat="45.0174783" lon="8.120745"><ele>219.33333333333334</ele><time>2026-04-18T16:57:52.366Z</time></trkpt><trkpt lat="45.0173533" lon="8.1205917"><ele>220.66666666666669</ele><time>2026-04-18T16:57:53.366Z</time></trkpt><trkpt lat="45.01722" lon="8.1204383"><ele>222.0</ele><time>2026-04-18T16:57:54.366Z</time></trkpt><trkpt lat="45.0170983" lon="8.1202767"><ele>222.0</ele><time>2026-04-18T16:57:55.365Z</time></trkpt><trkpt lat="45.0169683" lon="8.120115"><ele>222.0</ele><time>2026-04-18T16:57:56.366Z</time></trkpt><trkpt lat="45.01684" lon="8.1199583"><ele>222.0</ele><time>2026-04-18T16:57:57.366Z</time></trkpt><trkpt lat="45.0167133" lon="8.1197933"><ele>227.0</ele><time>2026-04-18T16:57:58.365Z</time></trkpt><trkpt lat="45.016575" lon="8.1196383"><ele>232.0</ele><time>2026-04-18T16:57:59.366Z</time></trkpt><trkpt lat="45.01645" lon="8.1194817"><ele>237.0</ele><time>2026-04-18T16:58:00.366Z</time></trkpt><trkpt lat="45.01632" lon="8.1193233"><ele>237.0</ele><time>2026-04-18T16:58:01.366Z</time></trkpt><trkpt lat="45.0161883" lon="8.1191617"><ele>237.0</ele><time>2026-04-18T16:58:02.366Z</time></trkpt><trkpt lat="45.01607" lon="8.119"><ele>237.0</ele><time>2026-04-18T16:58:03.366Z</time></trkpt><trkpt lat="45.0159417" lon="8.1188433"><ele>238.0</ele><time>2026-04-18T16:58:04.365Z</time></trkpt><trkpt lat="45.0158217" lon="8.1186817"><ele>239.0</ele><time>2026-04-18T16:58:05.365Z</time></trkpt><trkpt lat="45.015695" lon="8.1185267"><ele>240.0</ele><time>2026-04-18T16:58:06.365Z</time></trkpt><trkpt lat="45.01557" lon="8.1183683"><ele>238.66666666666669</ele><time>2026-04-18T16:58:07.366Z</time></trkpt><trkpt lat="45.0154483" lon="8.1182183"><ele>237.33333333333334</ele><time>2026-04-18T16:58:08.366Z</time></trkpt><trkpt lat="45.0153317" lon="8.11807"><ele>236.0</ele><time>2026-04-18T16:58:09.366Z</time></trkpt><trkpt lat="45.0152133" lon="8.1179383"><ele>236.0</ele><time>2026-04-18T16:58:10.366Z</time></trkpt><trkpt lat="45.0150817" lon="8.1178283"><ele>236.0</ele><time>2026-04-18T16:58:11.366Z</time></trkpt><trkpt lat="45.014945" lon="8.1177417"><ele>236.0</ele><time>2026-04-18T16:58:12.366Z</time></trkpt><trkpt lat="45.0147817" lon="8.117735"><ele>237.66666666666669</ele><time>2026-04-18T16:58:13.365Z</time></trkpt><trkpt lat="45.0146233" lon="8.1177767"><ele>239.33333333333331</ele><time>2026-04-18T16:58:14.366Z</time></trkpt><trkpt lat="45.0144617" lon="8.1178333"><ele>241.0</ele><time>2026-04-18T16:58:15.366Z</time></trkpt><trkpt lat="45.014305" lon="8.1178717"><ele>242.0</ele><time>2026-04-18T16:58:16.366Z</time></trkpt><trkpt lat="45.0141383" lon="8.11788"><ele>243.0</ele><time>2026-04-18T16:58:17.366Z</time></trkpt><trkpt lat="45.0139567" lon="8.1178433"><ele>244.0</ele><time>2026-04-18T16:58:18.366Z</time></trkpt><trkpt lat="45.0137817" lon="8.1178183"><ele>244.0</ele><time>2026-04-18T16:58:19.366Z</time></trkpt><trkpt lat="45.01361" lon="8.1177983"><ele>244.0</ele><time>2026-04-18T16:58:20.365Z</time></trkpt><trkpt lat="45.0134317" lon="8.1177983"><ele>244.0</ele><time>2026-04-18T16:58:21.366Z</time></trkpt><trkpt lat="45.0132567" lon="8.1178"><ele>244.0</ele><time>2026-04-18T16:58:22.365Z</time></trkpt><trkpt lat="45.013085" lon="8.1178383"><ele>244.0</ele><time>2026-04-18T16:58:23.366Z</time></trkpt><trkpt lat="45.0129233" lon="8.1178867"><ele>244.0</ele><time>2026-04-18T16:58:24.366Z</time></trkpt><trkpt lat="45.01275" lon="8.1179167"><ele>244.0</ele><time>2026-04-18T16:58:25.366Z</time></trkpt><trkpt lat="45.01258" lon="8.1179533"><ele>244.0</ele><time>2026-04-18T16:58:26.366Z</time></trkpt><trkpt lat="45.0124217" lon="8.1179917"><ele>244.0</ele><time>2026-04-18T16:58:27.366Z</time></trkpt><trkpt lat="45.0122667" lon="8.1180433"><ele>244.66666666666666</ele><time>2026-04-18T16:58:28.365Z</time></trkpt><trkpt lat="45.0121083" lon="8.118095"><ele>245.33333333333331</ele><time>2026-04-18T16:58:29.366Z</time></trkpt><trkpt lat="45.0119567" lon="8.1181267"><ele>246.0</ele><time>2026-04-18T16:58:30.366Z</time></trkpt><trkpt lat="45.0118083" lon="8.118165"><ele>246.0</ele><time>2026-04-18T16:58:31.366Z</time></trkpt><trkpt lat="45.0116633" lon="8.1182067"><ele>246.0</ele><time>2026-04-18T16:58:32.366Z</time></trkpt><trkpt lat="45.01151" lon="8.1182433"><ele>246.0</ele><time>2026-04-18T16:58:33.366Z</time></trkpt><trkpt lat="45.0113633" lon="8.1182933"><ele>250.33333333333331</ele><time>2026-04-18T16:58:34.365Z</time></trkpt><trkpt lat="45.011195" lon="8.1183133"><ele>254.66666666666666</ele><time>2026-04-18T16:58:35.366Z</time></trkpt><trkpt lat="45.0110533" lon="8.1183117"><ele>259.0</ele><time>2026-04-18T16:58:36.365Z</time></trkpt><trkpt lat="45.0108967" lon="8.1182667"><ele>263.3333333333333</ele><time>2026-04-18T16:58:37.365Z</time></trkpt><trkpt lat="45.01077" lon="8.1181417"><ele>267.6666666666667</ele><time>2026-04-18T16:58:38.366Z</time></trkpt><trkpt lat="45.010675" lon="8.1179717"><ele>272.0</ele><time>2026-04-18T16:58:39.366Z</time></trkpt><trkpt lat="45.0105833" lon="8.117785"><ele>272.0</ele><time>2026-04-18T16:58:40.366Z</time></trkpt><trkpt lat="45.0104967" lon="8.1176017"><ele>272.0</ele><time>2026-04-18T16:58:41.365Z</time></trkpt><trkpt lat="45.0103967" lon="8.117425"><ele>272.0</ele><time>2026-04-18T16:58:42.366Z</time></trkpt><trkpt lat="45.0102983" lon="8.1172533"><ele>270.0</ele><time>2026-04-18T16:58:43.366Z</time></trkpt><trkpt lat="45.010195" lon="8.1170833"><ele>268.0</ele><time>2026-04-18T16:58:44.366Z</time></trkpt><trkpt lat="45.0101033" lon="8.1169233"><ele>266.0</ele><time>2026-04-18T16:58:45.366Z</time></trkpt><trkpt lat="45.0100033" lon="8.11675"><ele>265.75</ele><time>2026-04-18T16:58:46.366Z</time></trkpt><trkpt lat="45.0099267" lon="8.11659"><ele>265.5</ele><time>2026-04-18T16:58:47.365Z</time></trkpt><trkpt lat="45.00984" lon="8.11643"><ele>265.25</ele><time>2026-04-18T16:58:48.366Z</time></trkpt><trkpt lat="45.0097517" lon="8.1162783"><ele>265.0</ele><time>2026-04-18T16:58:49.366Z</time></trkpt><trkpt lat="45.00967" lon="8.1161233"><ele>264.75</ele><time>2026-04-18T16:58:50.365Z</time></trkpt><trkpt lat="45.0096017" lon="8.1159667"><ele>264.5</ele><time>2026-04-18T16:58:51.366Z</time></trkpt><trkpt lat="45.009545" lon="8.1158"><ele>264.25</ele><time>2026-04-18T16:58:52.365Z</time></trkpt><trkpt lat="45.0095083" lon="8.1156367"><ele>264.0</ele><time>2026-04-18T16:58:53.366Z</time></trkpt><trkpt lat="45.0095083" lon="8.115455"><ele>264.75</ele><time>2026-04-18T16:58:54.366Z</time></trkpt><trkpt lat="45.0095033" lon="8.1153017"><ele>265.5</ele><time>2026-04-18T16:58:55.366Z</time></trkpt><trkpt lat="45.009525" lon="8.1151467"><ele>266.25</ele><time>2026-04-18T16:58:56.366Z</time></trkpt><trkpt lat="45.0095517" lon="8.1149833"><ele>267.0</ele><time>2026-04-18T16:58:57.366Z</time></trkpt><trkpt lat="45.0095683" lon="8.114815"><ele>268.25</ele><time>2026-04-18T16:58:58.366Z</time></trkpt><trkpt lat="45.0095667" lon="8.1146367"><ele>269.5</ele><time>2026-04-18T16:58:59.365Z</time></trkpt><trkpt lat="45.0095633" lon="8.1144717"><ele>270.75</ele><time>2026-04-18T16:59:00.366Z</time></trkpt><trkpt lat="45.0095467" lon="8.114315"><ele>272.0</ele><time>2026-04-18T16:59:01.366Z</time></trkpt><trkpt lat="45.0095167" lon="8.1141733"><ele>273.25</ele><time>2026-04-18T16:59:02.365Z</time></trkpt><trkpt lat="45.0094583" lon="8.1140183"><ele>274.5</ele><time>2026-04-18T16:59:03.366Z</time></trkpt><trkpt lat="45.009405" lon="8.1138867"><ele>275.75</ele><time>2026-04-18T16:59:04.365Z</time></trkpt><trkpt lat="45.00934" lon="8.1137433"><ele>277.0</ele><time>2026-04-18T16:59:05.366Z</time></trkpt><trkpt lat="45.0092833" lon="8.11362"><ele>277.0</ele><time>2026-04-18T16:59:06.365Z</time></trkpt><trkpt lat="45.009215" lon="8.1134867"><ele>277.0</ele><time>2026-04-18T16:59:07.366Z</time></trkpt><trkpt lat="45.0091417" lon="8.1133967"><ele>277.0</ele><time>2026-04-18T16:59:08.366Z</time></trkpt><trkpt lat="45.0090617" lon="8.1133133"><ele>277.0</ele><time>2026-04-18T16:59:09.366Z</time></trkpt><trkpt lat="45.0089833" lon="8.1132383"><ele>277.0</ele><time>2026-04-18T16:59:10.366Z</time></trkpt><trkpt lat="45.0089117" lon="8.1131683"><ele>279.16666666666663</ele><time>2026-04-18T16:59:11.366Z</time></trkpt><trkpt lat="45.008855" lon="8.113105"><ele>281.3333333333333</ele><time>2026-04-18T16:59:12.366Z</time></trkpt><trkpt lat="45.0087917" lon="8.1130433"><ele>283.5</ele><time>2026-04-18T16:59:13.366Z</time></trkpt><trkpt lat="45.0087217" lon="8.1129867"><ele>285.6666666666667</ele><time>2026-04-18T16:59:14.366Z</time></trkpt><trkpt lat="45.00866" lon="8.11292"><ele>287.83333333333337</ele><time>2026-04-18T16:59:15.365Z</time></trkpt><trkpt lat="45.0086017" lon="8.1128517"><ele>290.0</ele><time>2026-04-18T16:59:16.366Z</time></trkpt><trkpt lat="45.00854" lon="8.1128"><ele>290.0</ele><time>2026-04-18T16:59:17.366Z</time></trkpt><trkpt lat="45.008485" lon="8.11272"><ele>290.0</ele><time>2026-04-18T16:59:18.365Z</time></trkpt><trkpt lat="45.0084233" lon="8.1126617"><ele>290.0</ele><time>2026-04-18T16:59:19.366Z</time></trkpt><trkpt lat="45.0083617" lon="8.11263"><ele>290.0</ele><time>2026-04-18T16:59:20.366Z</time></trkpt><trkpt lat="45.00828" lon="8.11262"><ele>290.0</ele><time>2026-04-18T16:59:21.366Z</time></trkpt><trkpt lat="45.008195" lon="8.112645"><ele>290.0</ele><time>2026-04-18T16:59:22.365Z</time></trkpt><trkpt lat="45.0081067" lon="8.1127033"><ele>290.5</ele><time>2026-04-18T16:59:23.366Z</time></trkpt><trkpt lat="45.008" lon="8.1128183"><ele>291.0</ele><time>2026-04-18T16:59:24.366Z</time></trkpt><trkpt lat="45.0079217" lon="8.1129617"><ele>291.5</ele><time>2026-04-18T16:59:25.366Z</time></trkpt><trkpt lat="45.0078233" lon="8.1130917"><ele>292.0</ele><time>2026-04-18T16:59:26.365Z</time></trkpt><trkpt lat="45.0077283" lon="8.113235"><ele>292.25</ele><time>2026-04-18T16:59:27.365Z</time></trkpt><trkpt lat="45.007635" lon="8.1133817"><ele>292.5</ele><time>2026-04-18T16:59:28.365Z</time></trkpt><trkpt lat="45.0075433" lon="8.1135217"><ele>292.75</ele><time>2026-04-18T16:59:29.366Z</time></trkpt><trkpt lat="45.0074383" lon="8.113665"><ele>293.0</ele><time>2026-04-18T16:59:30.365Z</time></trkpt><trkpt lat="45.00735" lon="8.1137917"><ele>290.5</ele><time>2026-04-18T16:59:31.366Z</time></trkpt><trkpt lat="45.0072617" lon="8.1139017"><ele>288.0</ele><time>2026-04-18T16:59:32.366Z</time></trkpt><trkpt lat="45.0071483" lon="8.1139833"><ele>285.5</ele><time>2026-04-18T16:59:33.366Z</time></trkpt><trkpt lat="45.0070417" lon="8.1140783"><ele>283.0</ele><time>2026-04-18T16:59:34.366Z</time></trkpt><trkpt lat="45.0069517" lon="8.1141867"><ele>283.0</ele><time>2026-04-18T16:59:35.366Z</time></trkpt><trkpt lat="45.0068733" lon="8.1143117"><ele>283.0</ele><time>2026-04-18T16:59:36.366Z</time></trkpt><trkpt lat="45.0067717" lon="8.1143833"><ele>283.0</ele><time>2026-04-18T16:59:37.366Z</time></trkpt><trkpt lat="45.00667" lon="8.1144483"><ele>283.0</ele><time>2026-04-18T16:59:38.366Z</time></trkpt><trkpt lat="45.0065583" lon="8.114465"><ele>280.8</ele><time>2026-04-18T16:59:39.366Z</time></trkpt><trkpt lat="45.0064467" lon="8.1144517"><ele>278.6</ele><time>2026-04-18T16:59:40.366Z</time></trkpt><trkpt lat="45.0063383" lon="8.114445"><ele>276.4</ele><time>2026-04-18T16:59:41.365Z</time></trkpt><trkpt lat="45.0062367" lon="8.114445"><ele>274.2</ele><time>2026-04-18T16:59:42.366Z</time></trkpt><trkpt lat="45.0061267" lon="8.1144417"><ele>272.0</ele><time>2026-04-18T16:59:43.366Z</time></trkpt><trkpt lat="45.0060283" lon="8.1144567"><ele>272.0</ele><time>2026-04-18T16:59:44.366Z</time></trkpt><trkpt lat="45.005935" lon="8.1144717"><ele>272.0</ele><time>2026-04-18T16:59:45.366Z</time></trkpt><trkpt lat="45.0058433" lon="8.114505"><ele>272.0</ele><time>2026-04-18T16:59:46.366Z</time></trkpt><trkpt lat="45.0057617" lon="8.1145417"><ele>272.0</ele><time>2026-04-18T16:59:47.366Z</time></trkpt><trkpt lat="45.0056767" lon="8.1145933"><ele>272.0</ele><time>2026-04-18T16:59:48.366Z</time></trkpt><trkpt lat="45.0055867" lon="8.114635"><ele>270.1666666666667</ele><time>2026-04-18T16:59:49.365Z</time></trkpt><trkpt lat="45.0054883" lon="8.1146833"><ele>268.33333333333337</ele><time>2026-04-18T16:59:50.366Z</time></trkpt><trkpt lat="45.00539" lon="8.1146983"><ele>266.5</ele><time>2026-04-18T16:59:51.366Z</time></trkpt><trkpt lat="45.0052983" lon="8.1147217"><ele>264.6666666666667</ele><time>2026-04-18T16:59:52.366Z</time></trkpt><trkpt lat="45.0052267" lon="8.114705"><ele>262.8333333333333</ele><time>2026-04-18T16:59:53.365Z</time></trkpt><trkpt lat="45.0051533" lon="8.1147117"><ele>261.0</ele><time>2026-04-18T16:59:54.366Z</time></trkpt><trkpt lat="45.005085" lon="8.114645"><ele>261.0</ele><time>2026-04-18T16:59:55.366Z</time></trkpt><trkpt lat="45.0050417" lon="8.11452"><ele>261.0</ele><time>2026-04-18T16:59:57.366Z</time></trkpt><trkpt lat="45.0050617" lon="8.11443"><ele>261.0</ele><time>2026-04-18T16:59:58.366Z</time></trkpt><trkpt lat="45.0051017" lon="8.1143217"><ele>261.0</ele><time>2026-04-18T16:59:59.366Z</time></trkpt><trkpt lat="45.005185" lon="8.1142183"><ele>261.0</ele><time>2026-04-18T17:00:00.365Z</time></trkpt><trkpt lat="45.00529" lon="8.1141017"><ele>258.25</ele><time>2026-04-18T17:00:01.365Z</time></trkpt><trkpt lat="45.0053917" lon="8.1139617"><ele>255.5</ele><time>2026-04-18T17:00:02.366Z</time></trkpt><trkpt lat="45.00549" lon="8.11383"><ele>252.75</ele><time>2026-04-18T17:00:03.366Z</time></trkpt><trkpt lat="45.005585" lon="8.1137"><ele>250.0</ele><time>2026-04-18T17:00:04.366Z</time></trkpt><trkpt lat="45.0056883" lon="8.1135567"><ele>250.0</ele><time>2026-04-18T17:00:05.365Z</time></trkpt><trkpt lat="45.0057817" lon="8.1134133"><ele>250.0</ele><time>2026-04-18T17:00:06.365Z</time></trkpt><trkpt lat="45.005865" lon="8.11327"><ele>250.0</ele><time>2026-04-18T17:00:07.365Z</time></trkpt><trkpt lat="45.005935" lon="8.113115"><ele>250.0</ele><time>2026-04-18T17:00:08.366Z</time></trkpt><trkpt lat="45.0059967" lon="8.1129433"><ele>250.0</ele><time>2026-04-18T17:00:09.366Z</time></trkpt><trkpt lat="45.00606" lon="8.1127817"><ele>250.0</ele><time>2026-04-18T17:00:10.366Z</time></trkpt><trkpt lat="45.006105" lon="8.1126183"><ele>250.0</ele><time>2026-04-18T17:00:11.365Z</time></trkpt><trkpt lat="45.0061417" lon="8.1124567"><ele>250.0</ele><time>2026-04-18T17:00:12.366Z</time></trkpt><trkpt lat="45.00618" lon="8.1122967"><ele>248.0</ele><time>2026-04-18T17:00:13.366Z</time></trkpt><trkpt lat="45.006215" lon="8.1121317"><ele>246.0</ele><time>2026-04-18T17:00:14.365Z</time></trkpt><trkpt lat="45.0062433" lon="8.11196"><ele>244.0</ele><time>2026-04-18T17:00:15.365Z</time></trkpt><trkpt lat="45.0062783" lon="8.1117983"><ele>242.0</ele><time>2026-04-18T17:00:16.366Z</time></trkpt><trkpt lat="45.0063183" lon="8.111645"><ele>241.6</ele><time>2026-04-18T17:00:17.366Z</time></trkpt><trkpt lat="45.0063483" lon="8.1115017"><ele>241.2</ele><time>2026-04-18T17:00:18.366Z</time></trkpt><trkpt lat="45.0063767" lon="8.1113633"><ele>240.8</ele><time>2026-04-18T17:00:19.365Z</time></trkpt><trkpt lat="45.0063867" lon="8.1112267"><ele>240.4</ele><time>2026-04-18T17:00:20.366Z</time></trkpt><trkpt lat="45.0063783" lon="8.1110983"><ele>240.0</ele><time>2026-04-18T17:00:21.366Z</time></trkpt><trkpt lat="45.00635" lon="8.110965"><ele>240.0</ele><time>2026-04-18T17:00:22.366Z</time></trkpt><trkpt lat="45.006295" lon="8.11084"><ele>240.0</ele><time>2026-04-18T17:00:23.366Z</time></trkpt><trkpt lat="45.0062183" lon="8.1107333"><ele>240.0</ele><time>2026-04-18T17:00:24.366Z</time></trkpt><trkpt lat="45.006115" lon="8.11063"><ele>240.0</ele><time>2026-04-18T17:00:25.366Z</time></trkpt><trkpt lat="45.0060033" lon="8.1105417"><ele>239.25</ele><time>2026-04-18T17:00:26.366Z</time></trkpt><trkpt lat="45.0058833" lon="8.1104617"><ele>238.5</ele><time>2026-04-18T17:00:27.366Z</time></trkpt><trkpt lat="45.0057583" lon="8.1103933"><ele>237.75</ele><time>2026-04-18T17:00:28.366Z</time></trkpt><trkpt lat="45.0056417" lon="8.1103267"><ele>237.0</ele><time>2026-04-18T17:00:29.366Z</time></trkpt><trkpt lat="45.005525" lon="8.1102467"><ele>237.0</ele><time>2026-04-18T17:00:30.366Z</time></trkpt><trkpt lat="45.005425" lon="8.11017"><ele>237.0</ele><time>2026-04-18T17:00:31.366Z</time></trkpt><trkpt lat="45.0053283" lon="8.1100917"><ele>237.0</ele><time>2026-04-18T17:00:32.366Z</time></trkpt><trkpt lat="45.0052583" lon="8.10998"><ele>237.0</ele><time>2026-04-18T17:00:33.366Z</time></trkpt><trkpt lat="45.0051833" lon="8.10986"><ele>237.0</ele><time>2026-04-18T17:00:34.366Z</time></trkpt><trkpt lat="45.00511" lon="8.109745"><ele>235.25</ele><time>2026-04-18T17:00:35.366Z</time></trkpt><trkpt lat="45.00503" lon="8.1096167"><ele>233.5</ele><time>2026-04-18T17:00:36.366Z</time></trkpt><trkpt lat="45.0049433" lon="8.1094967"><ele>231.75</ele><time>2026-04-18T17:00:37.365Z</time></trkpt><trkpt lat="45.00485" lon="8.1093767"><ele>230.0</ele><time>2026-04-18T17:00:38.366Z</time></trkpt><trkpt lat="45.0047517" lon="8.109265"><ele>230.0</ele><time>2026-04-18T17:00:39.366Z</time></trkpt><trkpt lat="45.00466" lon="8.109145"><ele>230.0</ele><time>2026-04-18T17:00:40.366Z</time></trkpt><trkpt lat="45.004565" lon="8.109035"><ele>230.0</ele><time>2026-04-18T17:00:41.366Z</time></trkpt><trkpt lat="45.004465" lon="8.1089217"><ele>230.0</ele><time>2026-04-18T17:00:42.365Z</time></trkpt><trkpt lat="45.00436" lon="8.1088033"><ele>230.25</ele><time>2026-04-18T17:00:43.366Z</time></trkpt><trkpt lat="45.0042717" lon="8.108675"><ele>230.5</ele><time>2026-04-18T17:00:44.366Z</time></trkpt><trkpt lat="45.004195" lon="8.1085433"><ele>230.75</ele><time>2026-04-18T17:00:45.365Z</time></trkpt><trkpt lat="45.004125" lon="8.1084133"><ele>231.0</ele><time>2026-04-18T17:00:46.365Z</time></trkpt><trkpt lat="45.0040617" lon="8.10824"><ele>231.0</ele><time>2026-04-18T17:00:47.366Z</time></trkpt><trkpt lat="45.0040033" lon="8.10807"><ele>231.0</ele><time>2026-04-18T17:00:48.365Z</time></trkpt><trkpt lat="45.0039483" lon="8.1079033"><ele>231.0</ele><time>2026-04-18T17:00:49.366Z</time></trkpt><trkpt lat="45.0038933" lon="8.10774"><ele>231.0</ele><time>2026-04-18T17:00:50.365Z</time></trkpt><trkpt lat="45.0038433" lon="8.1075833"><ele>231.0</ele><time>2026-04-18T17:00:51.365Z</time></trkpt><trkpt lat="45.0037883" lon="8.107425"><ele>231.0</ele><time>2026-04-18T17:00:52.365Z</time></trkpt><trkpt lat="45.0037117" lon="8.1072817"><ele>231.0</ele><time>2026-04-18T17:00:53.366Z</time></trkpt><trkpt lat="45.0036417" lon="8.1071633"><ele>231.0</ele><time>2026-04-18T17:00:54.366Z</time></trkpt><trkpt lat="45.003555" lon="8.1070533"><ele>232.0</ele><time>2026-04-18T17:00:55.366Z</time></trkpt><trkpt lat="45.0034683" lon="8.1069533"><ele>233.00000000000003</ele><time>2026-04-18T17:00:56.365Z</time></trkpt><trkpt lat="45.0033867" lon="8.106865"><ele>234.00000000000003</ele><time>2026-04-18T17:00:57.365Z</time></trkpt><trkpt lat="45.0033117" lon="8.106785"><ele>235.0</ele><time>2026-04-18T17:00:58.366Z</time></trkpt><trkpt lat="45.0032667" lon="8.1066917"><ele>236.0</ele><time>2026-04-18T17:00:59.366Z</time></trkpt><trkpt lat="45.0032233" lon="8.106585"><ele>231.60000000000002</ele><time>2026-04-18T17:01:00.366Z</time></trkpt><trkpt lat="45.0031883" lon="8.10647"><ele>227.20000000000002</ele><time>2026-04-18T17:01:01.366Z</time></trkpt><trkpt lat="45.0031717" lon="8.1063433"><ele>222.79999999999998</ele><time>2026-04-18T17:01:02.366Z</time></trkpt><trkpt lat="45.0031667" lon="8.1062067"><ele>218.39999999999998</ele><time>2026-04-18T17:01:03.365Z</time></trkpt><trkpt lat="45.0032" lon="8.1060517"><ele>214.0</ele><time>2026-04-18T17:01:04.365Z</time></trkpt><trkpt lat="45.0032283" lon="8.10591"><ele>214.0</ele><time>2026-04-18T17:01:05.366Z</time></trkpt><trkpt lat="45.00328" lon="8.105755"><ele>214.0</ele><time>2026-04-18T17:01:06.366Z</time></trkpt><trkpt lat="45.0033317" lon="8.1056017"><ele>214.0</ele><time>2026-04-18T17:01:07.365Z</time></trkpt><trkpt lat="45.003385" lon="8.105455"><ele>214.0</ele><time>2026-04-18T17:01:08.366Z</time></trkpt><trkpt lat="45.0034167" lon="8.1053117"><ele>214.0</ele><time>2026-04-18T17:01:09.366Z</time></trkpt><trkpt lat="45.003445" lon="8.105165"><ele>213.99999999999997</ele><time>2026-04-18T17:01:10.366Z</time></trkpt><trkpt lat="45.0034517" lon="8.1050217"><ele>213.99999999999997</ele><time>2026-04-18T17:01:11.365Z</time></trkpt><trkpt lat="45.0034467" lon="8.1048667"><ele>214.0</ele><time>2026-04-18T17:01:12.365Z</time></trkpt><trkpt lat="45.003425" lon="8.1047133"><ele>214.0</ele><time>2026-04-18T17:01:13.365Z</time></trkpt><trkpt lat="45.00341" lon="8.10457"><ele>214.0</ele><time>2026-04-18T17:01:14.366Z</time></trkpt><trkpt lat="45.00339" lon="8.1044033"><ele>214.0</ele><time>2026-04-18T17:01:15.366Z</time></trkpt><trkpt lat="45.0033733" lon="8.1042283"><ele>214.0</ele><time>2026-04-18T17:01:16.366Z</time></trkpt><trkpt lat="45.0033483" lon="8.10407"><ele>214.0</ele><time>2026-04-18T17:01:17.366Z</time></trkpt><trkpt lat="45.00334" lon="8.103915"><ele>210.75</ele><time>2026-04-18T17:01:18.365Z</time></trkpt><trkpt lat="45.0033567" lon="8.1037583"><ele>207.5</ele><time>2026-04-18T17:01:19.365Z</time></trkpt><trkpt lat="45.0034067" lon="8.1036"><ele>204.25</ele><time>2026-04-18T17:01:20.366Z</time></trkpt><trkpt lat="45.00347" lon="8.1034383"><ele>201.0</ele><time>2026-04-18T17:01:21.366Z</time></trkpt><trkpt lat="45.003525" lon="8.1032767"><ele>199.0</ele><time>2026-04-18T17:01:22.366Z</time></trkpt><trkpt lat="45.0035767" lon="8.1031083"><ele>197.0</ele><time>2026-04-18T17:01:23.366Z</time></trkpt><trkpt lat="45.0036217" lon="8.10294"><ele>195.0</ele><time>2026-04-18T17:01:24.366Z</time></trkpt><trkpt lat="45.0036567" lon="8.102775"><ele>193.0</ele><time>2026-04-18T17:01:25.365Z</time></trkpt><trkpt lat="45.0036717" lon="8.1026233"><ele>192.99999999999997</ele><time>2026-04-18T17:01:26.366Z</time></trkpt><trkpt lat="45.00368" lon="8.1024817"><ele>193.0</ele><time>2026-04-18T17:01:27.365Z</time></trkpt><trkpt lat="45.0036733" lon="8.1023533"><ele>193.0</ele><time>2026-04-18T17:01:28.366Z</time></trkpt><trkpt lat="45.003645" lon="8.1022417"><ele>193.0</ele><time>2026-04-18T17:01:29.366Z</time></trkpt><trkpt lat="45.0036133" lon="8.10214"><ele>192.99999999999997</ele><time>2026-04-18T17:01:30.366Z</time></trkpt><trkpt lat="45.0035817" lon="8.1020583"><ele>193.0</ele><time>2026-04-18T17:01:31.366Z</time></trkpt><trkpt lat="45.0035317" lon="8.10193"><ele>192.8</ele><time>2026-04-18T17:01:33.366Z</time></trkpt><trkpt lat="45.0035" lon="8.101795"><ele>192.60000000000002</ele><time>2026-04-18T17:01:35.366Z</time></trkpt><trkpt lat="45.0034783" lon="8.1016983"><ele>192.39999999999998</ele><time>2026-04-18T17:01:36.366Z</time></trkpt><trkpt lat="45.0034367" lon="8.101585"><ele>192.2</ele><time>2026-04-18T17:01:37.366Z</time></trkpt><trkpt lat="45.0033783" lon="8.10148"><ele>192.0</ele><time>2026-04-18T17:01:38.366Z</time></trkpt><trkpt lat="45.0033017" lon="8.1013883"><ele>193.0</ele><time>2026-04-18T17:01:39.366Z</time></trkpt><trkpt lat="45.003215" lon="8.1012983"><ele>194.0</ele><time>2026-04-18T17:01:40.365Z</time></trkpt><trkpt lat="45.00313" lon="8.1011833"><ele>195.0</ele><time>2026-04-18T17:01:41.366Z</time></trkpt><trkpt lat="45.0030467" lon="8.10106"><ele>196.0</ele><time>2026-04-18T17:01:42.365Z</time></trkpt><trkpt lat="45.0029683" lon="8.100945"><ele>196.0</ele><time>2026-04-18T17:01:43.365Z</time></trkpt><trkpt lat="45.002895" lon="8.10083"><ele>196.0</ele><time>2026-04-18T17:01:44.365Z</time></trkpt><trkpt lat="45.00282" lon="8.1007083"><ele>196.0</ele><time>2026-04-18T17:01:45.366Z</time></trkpt><trkpt lat="45.0027467" lon="8.1005883"><ele>196.0</ele><time>2026-04-18T17:01:46.365Z</time></trkpt><trkpt lat="45.0026767" lon="8.1004733"><ele>196.0</ele><time>2026-04-18T17:01:47.365Z</time></trkpt><trkpt lat="45.0026083" lon="8.1003517"><ele>197.0</ele><time>2026-04-18T17:01:48.366Z</time></trkpt><trkpt lat="45.0025467" lon="8.1002367"><ele>198.0</ele><time>2026-04-18T17:01:49.366Z</time></trkpt><trkpt lat="45.0024883" lon="8.100125"><ele>199.0</ele><time>2026-04-18T17:01:50.366Z</time></trkpt><trkpt lat="45.0024283" lon="8.1000017"><ele>200.0</ele><time>2026-04-18T17:01:51.366Z</time></trkpt><trkpt lat="45.00236" lon="8.099885"><ele>201.0</ele><time>2026-04-18T17:01:52.366Z</time></trkpt><trkpt lat="45.00229" lon="8.09977"><ele>202.4</ele><time>2026-04-18T17:01:53.366Z</time></trkpt><trkpt lat="45.0022217" lon="8.099655"><ele>203.8</ele><time>2026-04-18T17:01:54.366Z</time></trkpt><trkpt lat="45.00215" lon="8.0995417"><ele>205.20000000000002</ele><time>2026-04-18T17:01:55.366Z</time></trkpt><trkpt lat="45.0020733" lon="8.0994267"><ele>206.60000000000002</ele><time>2026-04-18T17:01:56.366Z</time></trkpt><trkpt lat="45.0019967" lon="8.0993067"><ele>208.0</ele><time>2026-04-18T17:01:57.366Z</time></trkpt><trkpt lat="45.0019117" lon="8.0991883"><ele>209.5</ele><time>2026-04-18T17:01:58.366Z</time></trkpt><trkpt lat="45.0018233" lon="8.0990733"><ele>211.0</ele><time>2026-04-18T17:01:59.365Z</time></trkpt><trkpt lat="45.0017267" lon="8.0989683"><ele>212.5</ele><time>2026-04-18T17:02:00.366Z</time></trkpt><trkpt lat="45.0016317" lon="8.0988617"><ele>214.0</ele><time>2026-04-18T17:02:01.365Z</time></trkpt><trkpt lat="45.001535" lon="8.0987517"><ele>214.0</ele><time>2026-04-18T17:02:02.365Z</time></trkpt><trkpt lat="45.00144" lon="8.098635"><ele>214.0</ele><time>2026-04-18T17:02:03.366Z</time></trkpt><trkpt lat="45.0013467" lon="8.0985217"><ele>214.0</ele><time>2026-04-18T17:02:04.366Z</time></trkpt><trkpt lat="45.0012367" lon="8.0983933"><ele>214.0</ele><time>2026-04-18T17:02:05.366Z</time></trkpt><trkpt lat="45.001125" lon="8.09827"><ele>214.75</ele><time>2026-04-18T17:02:06.366Z</time></trkpt><trkpt lat="45.001015" lon="8.0981417"><ele>215.5</ele><time>2026-04-18T17:02:07.366Z</time></trkpt><trkpt lat="45.00092" lon="8.0980267"><ele>216.25</ele><time>2026-04-18T17:02:08.366Z</time></trkpt><trkpt lat="45.0008217" lon="8.09789"><ele>217.0</ele><time>2026-04-18T17:02:09.366Z</time></trkpt><trkpt lat="45.00072" lon="8.0977533"><ele>217.0</ele><time>2026-04-18T17:02:10.365Z</time></trkpt><trkpt lat="45.000615" lon="8.0976217"><ele>217.0</ele><time>2026-04-18T17:02:11.366Z</time></trkpt><trkpt lat="45.0005033" lon="8.0974983"><ele>217.0</ele><time>2026-04-18T17:02:12.366Z</time></trkpt><trkpt lat="45.0003983" lon="8.097365"><ele>217.0</ele><time>2026-04-18T17:02:13.366Z</time></trkpt><trkpt lat="45.000295" lon="8.0972283"><ele>219.25</ele><time>2026-04-18T17:02:14.365Z</time></trkpt><trkpt lat="45.0001917" lon="8.097095"><ele>221.5</ele><time>2026-04-18T17:02:15.366Z</time></trkpt><trkpt lat="45.0001067" lon="8.0969567"><ele>223.75</ele><time>2026-04-18T17:02:16.365Z</time></trkpt><trkpt lat="45.0" lon="8.09682"><ele>226.0</ele><time>2026-04-18T17:02:17.366Z</time></trkpt><trkpt lat="44.9999067" lon="8.096665"><ele>228.5</ele><time>2026-04-18T17:02:18.366Z</time></trkpt><trkpt lat="44.9998133" lon="8.0965217"><ele>231.0</ele><time>2026-04-18T17:02:19.366Z</time></trkpt><trkpt lat="44.9997233" lon="8.09638"><ele>233.5</ele><time>2026-04-18T17:02:20.365Z</time></trkpt><trkpt lat="44.9996317" lon="8.09625"><ele>236.0</ele><time>2026-04-18T17:02:21.366Z</time></trkpt><trkpt lat="44.999535" lon="8.0961117"><ele>236.0</ele><time>2026-04-18T17:02:22.366Z</time></trkpt><trkpt lat="44.9994583" lon="8.095995"><ele>236.00000000000003</ele><time>2026-04-18T17:02:23.366Z</time></trkpt><trkpt lat="44.9993867" lon="8.0958933"><ele>236.00000000000003</ele><time>2026-04-18T17:02:24.366Z</time></trkpt><trkpt lat="44.99932" lon="8.0958083"><ele>236.0</ele><time>2026-04-18T17:02:25.366Z</time></trkpt><trkpt lat="44.999265" lon="8.0957133"><ele>236.0</ele><time>2026-04-18T17:02:26.366Z</time></trkpt><trkpt lat="44.9992333" lon="8.095615"><ele>237.60000000000002</ele><time>2026-04-18T17:02:27.366Z</time></trkpt><trkpt lat="44.999225" lon="8.0955183"><ele>239.20000000000002</ele><time>2026-04-18T17:02:28.366Z</time></trkpt><trkpt lat="44.9992467" lon="8.0954167"><ele>240.79999999999998</ele><time>2026-04-18T17:02:29.366Z</time></trkpt><trkpt lat="44.9993183" lon="8.095355"><ele>242.39999999999998</ele><time>2026-04-18T17:02:30.366Z</time></trkpt><trkpt lat="44.9994283" lon="8.095325"><ele>244.0</ele><time>2026-04-18T17:02:31.366Z</time></trkpt><trkpt lat="44.999555" lon="8.09533"><ele>244.0</ele><time>2026-04-18T17:02:32.366Z</time></trkpt><trkpt lat="44.999705" lon="8.0953683"><ele>244.0</ele><time>2026-04-18T17:02:33.366Z</time></trkpt><trkpt lat="44.99986" lon="8.0954067"><ele>244.0</ele><time>2026-04-18T17:02:34.365Z</time></trkpt><trkpt lat="45.0" lon="8.095445"><ele>244.0</ele><time>2026-04-18T17:02:35.366Z</time></trkpt><trkpt lat="45.0001333" lon="8.09549"><ele>244.0</ele><time>2026-04-18T17:02:36.365Z</time></trkpt><trkpt lat="45.00026" lon="8.09551"><ele>244.0</ele><time>2026-04-18T17:02:37.366Z</time></trkpt><trkpt lat="45.00039" lon="8.0955267"><ele>244.0</ele><time>2026-04-18T17:02:38.366Z</time></trkpt><trkpt lat="45.00053" lon="8.095535"><ele>244.0</ele><time>2026-04-18T17:02:39.366Z</time></trkpt><trkpt lat="45.00065" lon="8.0955367"><ele>244.0</ele><time>2026-04-18T17:02:40.366Z</time></trkpt><trkpt lat="45.0007783" lon="8.095545"><ele>244.0</ele><time>2026-04-18T17:02:41.366Z</time></trkpt><trkpt lat="45.0009167" lon="8.0955733"><ele>244.0</ele><time>2026-04-18T17:02:42.366Z</time></trkpt><trkpt lat="45.0010533" lon="8.0956117"><ele>244.0</ele><time>2026-04-18T17:02:43.366Z</time></trkpt><trkpt lat="45.0011783" lon="8.095675"><ele>244.0</ele><time>2026-04-18T17:02:44.365Z</time></trkpt><trkpt lat="45.0012933" lon="8.0957433"><ele>244.0</ele><time>2026-04-18T17:02:45.365Z</time></trkpt><trkpt lat="45.0014017" lon="8.0958233"><ele>244.0</ele><time>2026-04-18T17:02:46.365Z</time></trkpt><trkpt lat="45.0015033" lon="8.09591"><ele>244.0</ele><time>2026-04-18T17:02:47.365Z</time></trkpt><trkpt lat="45.0015983" lon="8.0959733"><ele>243.99999999999997</ele><time>2026-04-18T17:02:48.366Z</time></trkpt><trkpt lat="45.0016883" lon="8.0959967"><ele>243.99999999999997</ele><time>2026-04-18T17:02:49.365Z</time></trkpt><trkpt lat="45.00178" lon="8.095985"><ele>244.0</ele><time>2026-04-18T17:02:50.366Z</time></trkpt><trkpt lat="45.0018533" lon="8.0958967"><ele>244.0</ele><time>2026-04-18T17:02:51.365Z</time></trkpt><trkpt lat="45.0019167" lon="8.0957817"><ele>248.79999999999998</ele><time>2026-04-18T17:02:52.365Z</time></trkpt><trkpt lat="45.0019317" lon="8.09565"><ele>253.59999999999997</ele><time>2026-04-18T17:02:53.366Z</time></trkpt><trkpt lat="45.001915" lon="8.0955067"><ele>258.4</ele><time>2026-04-18T17:02:54.366Z</time></trkpt><trkpt lat="45.0018683" lon="8.0953733"><ele>263.2</ele><time>2026-04-18T17:02:55.366Z</time></trkpt><trkpt lat="45.00179" lon="8.0952433"><ele>268.0</ele><time>2026-04-18T17:02:56.366Z</time></trkpt><trkpt lat="45.0016867" lon="8.0951183"><ele>265.25</ele><time>2026-04-18T17:02:57.366Z</time></trkpt><trkpt lat="45.00156" lon="8.094985"><ele>262.5</ele><time>2026-04-18T17:02:58.366Z</time></trkpt><trkpt lat="45.001445" lon="8.0948667"><ele>259.75</ele><time>2026-04-18T17:02:59.366Z</time></trkpt><trkpt lat="45.0013267" lon="8.0947383"><ele>257.0</ele><time>2026-04-18T17:03:00.366Z</time></trkpt><trkpt lat="45.0012067" lon="8.0946183"><ele>258.0</ele><time>2026-04-18T17:03:01.366Z</time></trkpt><trkpt lat="45.001095" lon="8.0945"><ele>259.0</ele><time>2026-04-18T17:03:02.366Z</time></trkpt><trkpt lat="45.0009933" lon="8.0943917"><ele>260.0</ele><time>2026-04-18T17:03:03.366Z</time></trkpt><trkpt lat="45.0008833" lon="8.094275"><ele>261.0</ele><time>2026-04-18T17:03:04.366Z</time></trkpt><trkpt lat="45.0007667" lon="8.09415"><ele>265.75</ele><time>2026-04-18T17:03:05.366Z</time></trkpt><trkpt lat="45.000655" lon="8.0940367"><ele>270.5</ele><time>2026-04-18T17:03:06.365Z</time></trkpt><trkpt lat="45.0005467" lon="8.0939017"><ele>275.25</ele><time>2026-04-18T17:03:07.366Z</time></trkpt><trkpt lat="45.0004433" lon="8.093775"><ele>280.0</ele><time>2026-04-18T17:03:08.366Z</time></trkpt><trkpt lat="45.0003433" lon="8.0936617"><ele>280.0</ele><time>2026-04-18T17:03:09.366Z</time></trkpt><trkpt lat="45.0002433" lon="8.0935417"><ele>280.0</ele><time>2026-04-18T17:03:10.365Z</time></trkpt><trkpt lat="45.0001483" lon="8.0934233"><ele>280.0</ele><time>2026-04-18T17:03:11.366Z</time></trkpt><trkpt lat="45.0000633" lon="8.09331"><ele>280.0</ele><time>2026-04-18T17:03:12.366Z</time></trkpt><trkpt lat="44.999975" lon="8.09321"><ele>281.66666666666663</ele><time>2026-04-18T17:03:13.366Z</time></trkpt><trkpt lat="44.9999033" lon="8.093125"><ele>283.3333333333333</ele><time>2026-04-18T17:03:14.366Z</time></trkpt><trkpt lat="44.999845" lon="8.0930333"><ele>285.0</ele><time>2026-04-18T17:03:15.366Z</time></trkpt><trkpt lat="44.9998067" lon="8.0929383"><ele>286.6666666666667</ele><time>2026-04-18T17:03:16.366Z</time></trkpt><trkpt lat="44.9997917" lon="8.0928333"><ele>288.33333333333337</ele><time>2026-04-18T17:03:17.366Z</time></trkpt><trkpt lat="44.99981" lon="8.092715"><ele>290.0</ele><time>2026-04-18T17:03:18.366Z</time></trkpt><trkpt lat="44.999845" lon="8.09261"><ele>290.0</ele><time>2026-04-18T17:03:19.366Z</time></trkpt><trkpt lat="44.9998967" lon="8.0925133"><ele>290.0</ele><time>2026-04-18T17:03:20.366Z</time></trkpt><trkpt lat="44.9999933" lon="8.0924267"><ele>290.0</ele><time>2026-04-18T17:03:21.366Z</time></trkpt><trkpt lat="45.00011" lon="8.0923367"><ele>290.0</ele><time>2026-04-18T17:03:22.366Z</time></trkpt><trkpt lat="45.0002217" lon="8.0922483"><ele>290.0</ele><time>2026-04-18T17:03:23.366Z</time></trkpt><trkpt lat="45.0003367" lon="8.092175"><ele>290.0</ele><time>2026-04-18T17:03:24.366Z</time></trkpt><trkpt lat="45.0004567" lon="8.092105"><ele>290.0</ele><time>2026-04-18T17:03:25.365Z</time></trkpt><trkpt lat="45.00058" lon="8.0920317"><ele>290.0</ele><time>2026-04-18T17:03:26.366Z</time></trkpt><trkpt lat="45.0007033" lon="8.0919633"><ele>289.75</ele><time>2026-04-18T17:03:27.366Z</time></trkpt><trkpt lat="45.0008333" lon="8.09188"><ele>289.5</ele><time>2026-04-18T17:03:28.366Z</time></trkpt><trkpt lat="45.0009683" lon="8.091805"><ele>289.25</ele><time>2026-04-18T17:03:29.366Z</time></trkpt><trkpt lat="45.001105" lon="8.0917233"><ele>289.0</ele><time>2026-04-18T17:03:30.365Z</time></trkpt><trkpt lat="45.001245" lon="8.0916433"><ele>289.0</ele><time>2026-04-18T17:03:31.365Z</time></trkpt><trkpt lat="45.00141" lon="8.0916017"><ele>289.0</ele><time>2026-04-18T17:03:32.366Z</time></trkpt><trkpt lat="45.0015617" lon="8.09158"><ele>289.0</ele><time>2026-04-18T17:03:33.366Z</time></trkpt><trkpt lat="45.0017267" lon="8.0915783"><ele>282.66666666666663</ele><time>2026-04-18T17:03:34.366Z</time></trkpt><trkpt lat="45.0018833" lon="8.091575"><ele>276.3333333333333</ele><time>2026-04-18T17:03:35.366Z</time></trkpt><trkpt lat="45.0020367" lon="8.0915717"><ele>270.0</ele><time>2026-04-18T17:03:36.366Z</time></trkpt><trkpt lat="45.0021817" lon="8.0915583"><ele>270.0</ele><time>2026-04-18T17:03:37.365Z</time></trkpt><trkpt lat="45.0023217" lon="8.0915117"><ele>270.0</ele><time>2026-04-18T17:03:38.365Z</time></trkpt><trkpt lat="45.0024517" lon="8.0914467"><ele>270.0</ele><time>2026-04-18T17:03:39.366Z</time></trkpt><trkpt lat="45.0025683" lon="8.0913433"><ele>270.0</ele><time>2026-04-18T17:03:40.365Z</time></trkpt><trkpt lat="45.0026867" lon="8.0912167"><ele>273.25</ele><time>2026-04-18T17:03:41.366Z</time></trkpt><trkpt lat="45.002785" lon="8.0910667"><ele>276.5</ele><time>2026-04-18T17:03:42.366Z</time></trkpt><trkpt lat="45.0028767" lon="8.09091"><ele>279.75</ele><time>2026-04-18T17:03:43.366Z</time></trkpt><trkpt lat="45.0029583" lon="8.0907483"><ele>283.0</ele><time>2026-04-18T17:03:44.366Z</time></trkpt><trkpt lat="45.0030217" lon="8.0905733"><ele>283.5</ele><time>2026-04-18T17:03:45.366Z</time></trkpt><trkpt lat="45.00304" lon="8.0903767"><ele>284.0</ele><time>2026-04-18T17:03:46.366Z</time></trkpt><trkpt lat="45.0030233" lon="8.09018"><ele>284.5</ele><time>2026-04-18T17:03:47.366Z</time></trkpt><trkpt lat="45.0029883" lon="8.0899917"><ele>285.0</ele><time>2026-04-18T17:03:48.365Z</time></trkpt><trkpt lat="45.002965" lon="8.0898367"><ele>286.25</ele><time>2026-04-18T17:03:49.366Z</time></trkpt><trkpt lat="45.00297" lon="8.0896883"><ele>287.5</ele><time>2026-04-18T17:03:50.366Z</time></trkpt><trkpt lat="45.00299" lon="8.0895417"><ele>288.75</ele><time>2026-04-18T17:03:51.366Z</time></trkpt><trkpt lat="45.003055" lon="8.0893933"><ele>290.0</ele><time>2026-04-18T17:03:52.366Z</time></trkpt><trkpt lat="45.0031417" lon="8.0892667"><ele>290.0</ele><time>2026-04-18T17:03:53.366Z</time></trkpt><trkpt lat="45.0032633" lon="8.089175"><ele>290.0</ele><time>2026-04-18T17:03:54.366Z</time></trkpt><trkpt lat="45.0033733" lon="8.0890883"><ele>290.0</ele><time>2026-04-18T17:03:55.366Z</time></trkpt><trkpt lat="45.003495" lon="8.0890033"><ele>290.0</ele><time>2026-04-18T17:03:56.366Z</time></trkpt><trkpt lat="45.0036017" lon="8.0889167"><ele>288.75</ele><time>2026-04-18T17:03:57.366Z</time></trkpt><trkpt lat="45.003685" lon="8.0888"><ele>287.5</ele><time>2026-04-18T17:03:58.366Z</time></trkpt><trkpt lat="45.0037483" lon="8.088665"><ele>286.25</ele><time>2026-04-18T17:03:59.366Z</time></trkpt><trkpt lat="45.0037467" lon="8.0884967"><ele>285.0</ele><time>2026-04-18T17:04:00.366Z</time></trkpt><trkpt lat="45.0037017" lon="8.0883183"><ele>286.0</ele><time>2026-04-18T17:04:01.366Z</time></trkpt><trkpt lat="45.003615" lon="8.08814"><ele>287.0</ele><time>2026-04-18T17:04:02.366Z</time></trkpt><trkpt lat="45.0035167" lon="8.087965"><ele>288.0</ele><time>2026-04-18T17:04:03.366Z</time></trkpt><trkpt lat="45.0034483" lon="8.08779"><ele>288.0</ele><time>2026-04-18T17:04:04.365Z</time></trkpt><trkpt lat="45.0033433" lon="8.0875883"><ele>288.0</ele><time>2026-04-18T17:04:05.366Z</time></trkpt><trkpt lat="45.003245" lon="8.087395"><ele>288.0</ele><time>2026-04-18T17:04:06.366Z</time></trkpt><trkpt lat="45.003135" lon="8.0871833"><ele>284.0</ele><time>2026-04-18T17:04:07.366Z</time></trkpt><trkpt lat="45.0030367" lon="8.0869767"><ele>280.0</ele><time>2026-04-18T17:04:08.366Z</time></trkpt><trkpt lat="45.0029467" lon="8.0867833"><ele>276.0</ele><time>2026-04-18T17:04:09.365Z</time></trkpt><trkpt lat="45.0028633" lon="8.086595"><ele>278.3333333333333</ele><time>2026-04-18T17:04:10.366Z</time></trkpt><trkpt lat="45.0027783" lon="8.08641"><ele>280.66666666666663</ele><time>2026-04-18T17:04:11.366Z</time></trkpt><trkpt lat="45.0027" lon="8.0862317"><ele>283.0</ele><time>2026-04-18T17:04:12.366Z</time></trkpt><trkpt lat="45.0026167" lon="8.0860633"><ele>283.0</ele><time>2026-04-18T17:04:13.366Z</time></trkpt><trkpt lat="45.00253" lon="8.0859083"><ele>283.0</ele><time>2026-04-18T17:04:14.366Z</time></trkpt><trkpt lat="45.00244" lon="8.085755"><ele>283.0</ele><time>2026-04-18T17:04:15.366Z</time></trkpt><trkpt lat="45.00233" lon="8.085635"><ele>283.0</ele><time>2026-04-18T17:04:16.366Z</time></trkpt><trkpt lat="45.00221" lon="8.0855483"><ele>283.66666666666663</ele><time>2026-04-18T17:04:17.365Z</time></trkpt><trkpt lat="45.00206" lon="8.0855067"><ele>284.3333333333333</ele><time>2026-04-18T17:04:18.365Z</time></trkpt><trkpt lat="45.0019117" lon="8.0854783"><ele>285.0</ele><time>2026-04-18T17:04:19.365Z</time></trkpt><trkpt lat="45.0017667" lon="8.0854433"><ele>285.0</ele><time>2026-04-18T17:04:20.365Z</time></trkpt><trkpt lat="45.0016183" lon="8.0854067"><ele>285.0</ele><time>2026-04-18T17:04:21.366Z</time></trkpt><trkpt lat="45.0014667" lon="8.0853667"><ele>285.0</ele><time>2026-04-18T17:04:22.365Z</time></trkpt><trkpt lat="45.0013167" lon="8.0853483"><ele>285.0</ele><time>2026-04-18T17:04:23.366Z</time></trkpt><trkpt lat="45.00119" lon="8.0853267"><ele>285.0</ele><time>2026-04-18T17:04:24.366Z</time></trkpt><trkpt lat="45.001065" lon="8.0852967"><ele>285.0</ele><time>2026-04-18T17:04:25.366Z</time></trkpt><trkpt lat="45.00095" lon="8.0852533"><ele>285.0</ele><time>2026-04-18T17:04:26.365Z</time></trkpt><trkpt lat="45.0008217" lon="8.0851683"><ele>282.5</ele><time>2026-04-18T17:04:27.366Z</time></trkpt><trkpt lat="45.000715" lon="8.0850383"><ele>280.0</ele><time>2026-04-18T17:04:28.366Z</time></trkpt><trkpt lat="45.0006267" lon="8.0848833"><ele>277.5</ele><time>2026-04-18T17:04:29.366Z</time></trkpt><trkpt lat="45.00055" lon="8.0847183"><ele>275.0</ele><time>2026-04-18T17:04:30.365Z</time></trkpt><trkpt lat="45.000455" lon="8.084525"><ele>275.0</ele><time>2026-04-18T17:04:31.366Z</time></trkpt><trkpt lat="45.0003467" lon="8.0843417"><ele>275.0</ele><time>2026-04-18T17:04:32.366Z</time></trkpt><trkpt lat="45.0002217" lon="8.0841717"><ele>275.0</ele><time>2026-04-18T17:04:33.366Z</time></trkpt><trkpt lat="45.0000967" lon="8.0840083"><ele>276.75</ele><time>2026-04-18T17:04:34.366Z</time></trkpt><trkpt lat="44.9999733" lon="8.08384"><ele>278.5</ele><time>2026-04-18T17:04:35.366Z</time></trkpt><trkpt lat="44.9998683" lon="8.0836983"><ele>280.25</ele><time>2026-04-18T17:04:36.366Z</time></trkpt><trkpt lat="44.9998" lon="8.0835517"><ele>282.0</ele><time>2026-04-18T17:04:37.366Z</time></trkpt><trkpt lat="44.999735" lon="8.0833733"><ele>281.0</ele><time>2026-04-18T17:04:38.366Z</time></trkpt><trkpt lat="44.99971" lon="8.0831717"><ele>280.0</ele><time>2026-04-18T17:04:39.365Z</time></trkpt><trkpt lat="44.9997" lon="8.08296"><ele>279.0</ele><time>2026-04-18T17:04:40.366Z</time></trkpt><trkpt lat="44.999685" lon="8.082755"><ele>278.0</ele><time>2026-04-18T17:04:41.365Z</time></trkpt><trkpt lat="44.999645" lon="8.0825667"><ele>274.6666666666667</ele><time>2026-04-18T17:04:42.365Z</time></trkpt><trkpt lat="44.9995683" lon="8.08238"><ele>271.3333333333333</ele><time>2026-04-18T17:04:43.365Z</time></trkpt><trkpt lat="44.9994783" lon="8.0821867"><ele>268.0</ele><time>2026-04-18T17:04:44.365Z</time></trkpt><trkpt lat="44.99939" lon="8.0820033"><ele>268.0</ele><time>2026-04-18T17:04:45.364Z</time></trkpt><trkpt lat="44.9993067" lon="8.08181"><ele>268.0</ele><time>2026-04-18T17:04:46.365Z</time></trkpt><trkpt lat="44.9992317" lon="8.0816333"><ele>268.0</ele><time>2026-04-18T17:04:47.365Z</time></trkpt><trkpt lat="44.9991583" lon="8.08146"><ele>268.0</ele><time>2026-04-18T17:04:48.364Z</time></trkpt><trkpt lat="44.9990917" lon="8.081295"><ele>268.25</ele><time>2026-04-18T17:04:49.365Z</time></trkpt><trkpt lat="44.9990083" lon="8.08114"><ele>268.5</ele><time>2026-04-18T17:04:50.364Z</time></trkpt><trkpt lat="44.99893" lon="8.0809833"><ele>268.75</ele><time>2026-04-18T17:04:51.364Z</time></trkpt><trkpt lat="44.9988483" lon="8.08085"><ele>269.0</ele><time>2026-04-18T17:04:52.364Z</time></trkpt><trkpt lat="44.9987633" lon="8.0807317"><ele>269.0</ele><time>2026-04-18T17:04:53.365Z</time></trkpt><trkpt lat="44.998665" lon="8.0806283"><ele>269.0</ele><time>2026-04-18T17:04:54.364Z</time></trkpt><trkpt lat="44.9985583" lon="8.080535"><ele>269.0</ele><time>2026-04-18T17:04:55.365Z</time></trkpt><trkpt lat="44.998475" lon="8.0804517"><ele>269.0</ele><time>2026-04-18T17:04:56.364Z</time></trkpt><trkpt lat="44.9983733" lon="8.0803583"><ele>270.25</ele><time>2026-04-18T17:04:57.365Z</time></trkpt><trkpt lat="44.99827" lon="8.0802517"><ele>271.5</ele><time>2026-04-18T17:04:58.365Z</time></trkpt><trkpt lat="44.9981733" lon="8.0801533"><ele>272.75</ele><time>2026-04-18T17:04:59.365Z</time></trkpt><trkpt lat="44.9980483" lon="8.08007"><ele>274.0</ele><time>2026-04-18T17:05:00.364Z</time></trkpt><trkpt lat="44.9979483" lon="8.0799767"><ele>270.0</ele><time>2026-04-18T17:05:01.365Z</time></trkpt><trkpt lat="44.99786" lon="8.07986"><ele>266.0</ele><time>2026-04-18T17:05:02.364Z</time></trkpt><trkpt lat="44.9977733" lon="8.07976"><ele>262.0</ele><time>2026-04-18T17:05:03.364Z</time></trkpt><trkpt lat="44.9976867" lon="8.0796617"><ele>258.0</ele><time>2026-04-18T17:05:04.365Z</time></trkpt><trkpt lat="44.9976017" lon="8.0795583"><ele>258.0</ele><time>2026-04-18T17:05:05.365Z</time></trkpt><trkpt lat="44.997525" lon="8.07943"><ele>258.0</ele><time>2026-04-18T17:05:06.365Z</time></trkpt><trkpt lat="44.9974667" lon="8.0792883"><ele>258.0</ele><time>2026-04-18T17:05:07.365Z</time></trkpt><trkpt lat="44.99742" lon="8.07915"><ele>258.0</ele><time>2026-04-18T17:05:08.364Z</time></trkpt><trkpt lat="44.9973867" lon="8.0789867"><ele>262.5</ele><time>2026-04-18T17:05:09.365Z</time></trkpt><trkpt lat="44.99736" lon="8.078815"><ele>267.0</ele><time>2026-04-18T17:05:10.365Z</time></trkpt><trkpt lat="44.9973483" lon="8.07865"><ele>271.5</ele><time>2026-04-18T17:05:11.365Z</time></trkpt><trkpt lat="44.9973317" lon="8.0785033"><ele>276.0</ele><time>2026-04-18T17:05:12.365Z</time></trkpt><trkpt lat="44.9972883" lon="8.0783683"><ele>274.5</ele><time>2026-04-18T17:05:13.365Z</time></trkpt><trkpt lat="44.9972317" lon="8.0782433"><ele>273.0</ele><time>2026-04-18T17:05:14.365Z</time></trkpt><trkpt lat="44.9971533" lon="8.0781283"><ele>271.5</ele><time>2026-04-18T17:05:15.365Z</time></trkpt><trkpt lat="44.9970567" lon="8.0780333"><ele>270.0</ele><time>2026-04-18T17:05:16.365Z</time></trkpt><trkpt lat="44.9969467" lon="8.0779483"><ele>270.0</ele><time>2026-04-18T17:05:17.365Z</time></trkpt><trkpt lat="44.9968217" lon="8.0778717"><ele>270.0</ele><time>2026-04-18T17:05:18.365Z</time></trkpt><trkpt lat="44.996715" lon="8.07778"><ele>270.0</ele><time>2026-04-18T17:05:19.365Z</time></trkpt><trkpt lat="44.9966167" lon="8.077695"><ele>270.0</ele><time>2026-04-18T17:05:20.365Z</time></trkpt><trkpt lat="44.996515" lon="8.0776417"><ele>271.0</ele><time>2026-04-18T17:05:21.365Z</time></trkpt><trkpt lat="44.9964133" lon="8.0775983"><ele>272.0</ele><time>2026-04-18T17:05:22.365Z</time></trkpt><trkpt lat="44.9962967" lon="8.0775967"><ele>273.0</ele><time>2026-04-18T17:05:23.365Z</time></trkpt><trkpt lat="44.9961817" lon="8.077615"><ele>274.0</ele><time>2026-04-18T17:05:24.365Z</time></trkpt><trkpt lat="44.9960733" lon="8.07764"><ele>275.0</ele><time>2026-04-18T17:05:25.365Z</time></trkpt><trkpt lat="44.99597" lon="8.077715"><ele>275.0</ele><time>2026-04-18T17:05:26.365Z</time></trkpt><trkpt lat="44.995895" lon="8.0778167"><ele>275.0</ele><time>2026-04-18T17:05:27.364Z</time></trkpt><trkpt lat="44.9958183" lon="8.0778883"><ele>275.0</ele><time>2026-04-18T17:05:28.365Z</time></trkpt><trkpt lat="44.9957383" lon="8.0779333"><ele>275.0</ele><time>2026-04-18T17:05:29.364Z</time></trkpt><trkpt lat="44.9956333" lon="8.07794"><ele>275.0</ele><time>2026-04-18T17:05:30.365Z</time></trkpt><trkpt lat="44.995525" lon="8.0779"><ele>274.0</ele><time>2026-04-18T17:05:31.365Z</time></trkpt><trkpt lat="44.9954" lon="8.0778267"><ele>273.0</ele><time>2026-04-18T17:05:32.365Z</time></trkpt><trkpt lat="44.9952717" lon="8.077745"><ele>272.0</ele><time>2026-04-18T17:05:33.365Z</time></trkpt><trkpt lat="44.99513" lon="8.0776667"><ele>271.0</ele><time>2026-04-18T17:05:34.365Z</time></trkpt><trkpt lat="44.9949783" lon="8.077595"><ele>269.66666666666663</ele><time>2026-04-18T17:05:35.364Z</time></trkpt><trkpt lat="44.9948417" lon="8.0775233"><ele>268.3333333333333</ele><time>2026-04-18T17:05:36.365Z</time></trkpt><trkpt lat="44.9946983" lon="8.07745"><ele>267.0</ele><time>2026-04-18T17:05:37.365Z</time></trkpt><trkpt lat="44.994545" lon="8.07739"><ele>262.75</ele><time>2026-04-18T17:05:38.365Z</time></trkpt><trkpt lat="44.994385" lon="8.0773417"><ele>258.5</ele><time>2026-04-18T17:05:39.365Z</time></trkpt><trkpt lat="44.99425" lon="8.0772817"><ele>254.25</ele><time>2026-04-18T17:05:40.364Z</time></trkpt><trkpt lat="44.994115" lon="8.0772117"><ele>250.0</ele><time>2026-04-18T17:05:41.365Z</time></trkpt><trkpt lat="44.9939667" lon="8.0771433"><ele>250.0</ele><time>2026-04-18T17:05:42.364Z</time></trkpt><trkpt lat="44.9938233" lon="8.077075"><ele>250.0</ele><time>2026-04-18T17:05:43.365Z</time></trkpt><trkpt lat="44.9936767" lon="8.0770183"><ele>250.0</ele><time>2026-04-18T17:05:44.365Z</time></trkpt><trkpt lat="44.9935483" lon="8.0769783"><ele>250.0</ele><time>2026-04-18T17:05:45.365Z</time></trkpt><trkpt lat="44.9934167" lon="8.0769433"><ele>251.0</ele><time>2026-04-18T17:05:46.365Z</time></trkpt><trkpt lat="44.9932767" lon="8.07691"><ele>252.0</ele><time>2026-04-18T17:05:47.365Z</time></trkpt><trkpt lat="44.9931283" lon="8.0769"><ele>253.0</ele><time>2026-04-18T17:05:48.364Z</time></trkpt><trkpt lat="44.992985" lon="8.07689"><ele>254.0</ele><time>2026-04-18T17:05:49.365Z</time></trkpt><trkpt lat="44.99283" lon="8.076865"><ele>254.0</ele><time>2026-04-18T17:05:50.364Z</time></trkpt><trkpt lat="44.9926817" lon="8.0768267"><ele>254.0</ele><time>2026-04-18T17:05:51.365Z</time></trkpt><trkpt lat="44.9925333" lon="8.0767783"><ele>254.0</ele><time>2026-04-18T17:05:52.365Z</time></trkpt><trkpt lat="44.9923917" lon="8.0767183"><ele>254.33333333333334</ele><time>2026-04-18T17:05:53.365Z</time></trkpt><trkpt lat="44.9922517" lon="8.07662"><ele>254.66666666666669</ele><time>2026-04-18T17:05:54.365Z</time></trkpt><trkpt lat="44.9920967" lon="8.0765"><ele>255.0</ele><time>2026-04-18T17:05:55.365Z</time></trkpt><trkpt lat="44.9919467" lon="8.07639"><ele>255.0</ele><time>2026-04-18T17:05:56.365Z</time></trkpt><trkpt lat="44.991805" lon="8.0762933"><ele>255.0</ele><time>2026-04-18T17:05:57.365Z</time></trkpt><trkpt lat="44.9916583" lon="8.0761667"><ele>255.0</ele><time>2026-04-18T17:05:58.364Z</time></trkpt><trkpt lat="44.9915033" lon="8.07607"><ele>258.3333333333333</ele><time>2026-04-18T17:05:59.365Z</time></trkpt><trkpt lat="44.9913383" lon="8.0759883"><ele>261.66666666666663</ele><time>2026-04-18T17:06:00.365Z</time></trkpt><trkpt lat="44.9911733" lon="8.0759333"><ele>265.0</ele><time>2026-04-18T17:06:01.365Z</time></trkpt><trkpt lat="44.9910117" lon="8.0758767"><ele>265.0</ele><time>2026-04-18T17:06:02.364Z</time></trkpt><trkpt lat="44.99085" lon="8.0758183"><ele>265.0</ele><time>2026-04-18T17:06:03.365Z</time></trkpt><trkpt lat="44.9906967" lon="8.07575"><ele>265.0</ele><time>2026-04-18T17:06:04.365Z</time></trkpt><trkpt lat="44.9905383" lon="8.0756883"><ele>259.66666666666663</ele><time>2026-04-18T17:06:05.364Z</time></trkpt><trkpt lat="44.9903783" lon="8.07562"><ele>254.33333333333331</ele><time>2026-04-18T17:06:06.365Z</time></trkpt><trkpt lat="44.99021" lon="8.0755667"><ele>249.0</ele><time>2026-04-18T17:06:07.365Z</time></trkpt><trkpt lat="44.9900383" lon="8.0755017"><ele>250.33333333333331</ele><time>2026-04-18T17:06:08.364Z</time></trkpt><trkpt lat="44.98989" lon="8.07543"><ele>251.66666666666666</ele><time>2026-04-18T17:06:09.365Z</time></trkpt><trkpt lat="44.9897483" lon="8.0753333"><ele>253.0</ele><time>2026-04-18T17:06:10.365Z</time></trkpt><trkpt lat="44.9896433" lon="8.0752067"><ele>253.0</ele><time>2026-04-18T17:06:11.365Z</time></trkpt><trkpt lat="44.98955" lon="8.0750333"><ele>253.0</ele><time>2026-04-18T17:06:12.365Z</time></trkpt><trkpt lat="44.9894683" lon="8.0748317"><ele>253.0</ele><time>2026-04-18T17:06:13.365Z</time></trkpt><trkpt lat="44.98939" lon="8.0746183"><ele>251.66666666666666</ele><time>2026-04-18T17:06:14.365Z</time></trkpt><trkpt lat="44.9893067" lon="8.0744033"><ele>250.33333333333331</ele><time>2026-04-18T17:06:15.364Z</time></trkpt><trkpt lat="44.9892117" lon="8.0741917"><ele>249.0</ele><time>2026-04-18T17:06:16.365Z</time></trkpt><trkpt lat="44.9891083" lon="8.0739967"><ele>249.0</ele><time>2026-04-18T17:06:17.365Z</time></trkpt><trkpt lat="44.9889867" lon="8.0738167"><ele>249.0</ele><time>2026-04-18T17:06:18.365Z</time></trkpt><trkpt lat="44.9888583" lon="8.0736617"><ele>249.0</ele><time>2026-04-18T17:06:19.365Z</time></trkpt><trkpt lat="44.9887217" lon="8.0735183"><ele>249.0</ele><time>2026-04-18T17:06:20.365Z</time></trkpt><trkpt lat="44.9885933" lon="8.0733933"><ele>249.0</ele><time>2026-04-18T17:06:21.364Z</time></trkpt><trkpt lat="44.9884583" lon="8.0732717"><ele>249.0</ele><time>2026-04-18T17:06:22.365Z</time></trkpt><trkpt lat="44.9883217" lon="8.0731583"><ele>247.0</ele><time>2026-04-18T17:06:23.365Z</time></trkpt><trkpt lat="44.9881833" lon="8.0730217"><ele>245.0</ele><time>2026-04-18T17:06:24.365Z</time></trkpt><trkpt lat="44.98803" lon="8.0729283"><ele>243.0</ele><time>2026-04-18T17:06:25.365Z</time></trkpt><trkpt lat="44.9878717" lon="8.072865"><ele>243.0</ele><time>2026-04-18T17:06:26.365Z</time></trkpt><trkpt lat="44.987715" lon="8.07287"><ele>243.0</ele><time>2026-04-18T17:06:27.365Z</time></trkpt><trkpt lat="44.9875567" lon="8.07291"><ele>243.0</ele><time>2026-04-18T17:06:28.365Z</time></trkpt><trkpt lat="44.987395" lon="8.07295"><ele>240.0</ele><time>2026-04-18T17:06:29.364Z</time></trkpt><trkpt lat="44.98724" lon="8.073"><ele>237.0</ele><time>2026-04-18T17:06:30.365Z</time></trkpt><trkpt lat="44.98708" lon="8.0730417"><ele>234.0</ele><time>2026-04-18T17:06:31.365Z</time></trkpt><trkpt lat="44.986915" lon="8.0730783"><ele>234.0</ele><time>2026-04-18T17:06:32.365Z</time></trkpt><trkpt lat="44.986745" lon="8.0731317"><ele>234.0</ele><time>2026-04-18T17:06:33.364Z</time></trkpt><trkpt lat="44.9865867" lon="8.0731967"><ele>234.0</ele><time>2026-04-18T17:06:34.365Z</time></trkpt><trkpt lat="44.9864317" lon="8.0732467"><ele>236.0</ele><time>2026-04-18T17:06:35.364Z</time></trkpt><trkpt lat="44.98627" lon="8.07328"><ele>238.0</ele><time>2026-04-18T17:06:36.365Z</time></trkpt><trkpt lat="44.9861" lon="8.0733067"><ele>240.0</ele><time>2026-04-18T17:06:37.364Z</time></trkpt><trkpt lat="44.9859383" lon="8.07331"><ele>240.0</ele><time>2026-04-18T17:06:38.365Z</time></trkpt><trkpt lat="44.98577" lon="8.0733083"><ele>240.0</ele><time>2026-04-18T17:06:39.365Z</time></trkpt><trkpt lat="44.985605" lon="8.0733183"><ele>240.0</ele><time>2026-04-18T17:06:40.365Z</time></trkpt><trkpt lat="44.9854367" lon="8.073335"><ele>240.0</ele><time>2026-04-18T17:06:41.365Z</time></trkpt><trkpt lat="44.9852617" lon="8.073355"><ele>240.0</ele><time>2026-04-18T17:06:42.365Z</time></trkpt><trkpt lat="44.9850967" lon="8.0733633"><ele>240.0</ele><time>2026-04-18T17:06:43.365Z</time></trkpt><trkpt lat="44.9849333" lon="8.073385"><ele>240.0</ele><time>2026-04-18T17:06:44.365Z</time></trkpt><trkpt lat="44.9847733" lon="8.0733833"><ele>240.0</ele><time>2026-04-18T17:06:45.365Z</time></trkpt><trkpt lat="44.9846167" lon="8.073375"><ele>240.0</ele><time>2026-04-18T17:06:46.365Z</time></trkpt><trkpt lat="44.984455" lon="8.0733317"><ele>239.66666666666669</ele><time>2026-04-18T17:06:47.364Z</time></trkpt><trkpt lat="44.984305" lon="8.0732617"><ele>239.33333333333334</ele><time>2026-04-18T17:06:48.365Z</time></trkpt><trkpt lat="44.984155" lon="8.0731717"><ele>239.0</ele><time>2026-04-18T17:06:49.365Z</time></trkpt><trkpt lat="44.9840167" lon="8.073075"><ele>239.0</ele><time>2026-04-18T17:06:50.364Z</time></trkpt><trkpt lat="44.983895" lon="8.0729883"><ele>239.0</ele><time>2026-04-18T17:06:51.365Z</time></trkpt><trkpt lat="44.9837783" lon="8.07289"><ele>239.0</ele><time>2026-04-18T17:06:52.365Z</time></trkpt><trkpt lat="44.98367" lon="8.0727583"><ele>239.0</ele><time>2026-04-18T17:06:53.365Z</time></trkpt><trkpt lat="44.9835983" lon="8.0725767"><ele>239.33333333333334</ele><time>2026-04-18T17:06:54.364Z</time></trkpt><trkpt lat="44.9835583" lon="8.0723767"><ele>239.66666666666669</ele><time>2026-04-18T17:06:55.365Z</time></trkpt><trkpt lat="44.9835633" lon="8.0721417"><ele>240.0</ele><time>2026-04-18T17:06:56.365Z</time></trkpt><trkpt lat="44.9836167" lon="8.071925"><ele>240.0</ele><time>2026-04-18T17:06:57.365Z</time></trkpt><trkpt lat="44.9837017" lon="8.07171"><ele>240.0</ele><time>2026-04-18T17:06:58.365Z</time></trkpt><trkpt lat="44.9837967" lon="8.071505"><ele>240.0</ele><time>2026-04-18T17:06:59.364Z</time></trkpt><trkpt lat="44.9838733" lon="8.0713083"><ele>240.5</ele><time>2026-04-18T17:07:00.365Z</time></trkpt><trkpt lat="44.9839467" lon="8.0711333"><ele>241.0</ele><time>2026-04-18T17:07:01.364Z</time></trkpt><trkpt lat="44.9840033" lon="8.07097"><ele>241.5</ele><time>2026-04-18T17:07:02.364Z</time></trkpt><trkpt lat="44.9840133" lon="8.070795"><ele>242.0</ele><time>2026-04-18T17:07:03.365Z</time></trkpt><trkpt lat="44.983975" lon="8.070625"><ele>243.5</ele><time>2026-04-18T17:07:04.365Z</time></trkpt><trkpt lat="44.9839" lon="8.0704667"><ele>245.0</ele><time>2026-04-18T17:07:05.365Z</time></trkpt><trkpt lat="44.9837867" lon="8.0703433"><ele>246.5</ele><time>2026-04-18T17:07:06.365Z</time></trkpt><trkpt lat="44.98365" lon="8.07026"><ele>248.0</ele><time>2026-04-18T17:07:07.365Z</time></trkpt><trkpt lat="44.983485" lon="8.0702033"><ele>248.33333333333334</ele><time>2026-04-18T17:07:08.365Z</time></trkpt><trkpt lat="44.983325" lon="8.0701617"><ele>248.66666666666669</ele><time>2026-04-18T17:07:09.364Z</time></trkpt><trkpt lat="44.9831783" lon="8.0701033"><ele>249.0</ele><time>2026-04-18T17:07:10.365Z</time></trkpt><trkpt lat="44.98305" lon="8.070005"><ele>250.25</ele><time>2026-04-18T17:07:11.365Z</time></trkpt><trkpt lat="44.9829483" lon="8.0698867"><ele>251.5</ele><time>2026-04-18T17:07:12.365Z</time></trkpt><trkpt lat="44.9828733" lon="8.0697383"><ele>252.75</ele><time>2026-04-18T17:07:13.365Z</time></trkpt><trkpt lat="44.9828417" lon="8.069545"><ele>254.0</ele><time>2026-04-18T17:07:14.364Z</time></trkpt><trkpt lat="44.9828367" lon="8.0693517"><ele>254.0</ele><time>2026-04-18T17:07:15.365Z</time></trkpt><trkpt lat="44.9828983" lon="8.0691633"><ele>254.0</ele><time>2026-04-18T17:07:16.365Z</time></trkpt><trkpt lat="44.9829767" lon="8.0689867"><ele>254.0</ele><time>2026-04-18T17:07:17.365Z</time></trkpt><trkpt lat="44.9830667" lon="8.06884"><ele>254.0</ele><time>2026-04-18T17:07:18.365Z</time></trkpt><trkpt lat="44.983135" lon="8.0687"><ele>252.25</ele><time>2026-04-18T17:07:19.365Z</time></trkpt><trkpt lat="44.9832067" lon="8.0685517"><ele>250.5</ele><time>2026-04-18T17:07:20.365Z</time></trkpt><trkpt lat="44.98325" lon="8.0683867"><ele>248.75</ele><time>2026-04-18T17:07:21.365Z</time></trkpt><trkpt lat="44.98327" lon="8.0682367"><ele>247.0</ele><time>2026-04-18T17:07:22.364Z</time></trkpt><trkpt lat="44.9832517" lon="8.0680783"><ele>247.0</ele><time>2026-04-18T17:07:23.364Z</time></trkpt><trkpt lat="44.9832" lon="8.0679333"><ele>247.0</ele><time>2026-04-18T17:07:24.365Z</time></trkpt><trkpt lat="44.983125" lon="8.0678083"><ele>247.0</ele><time>2026-04-18T17:07:25.365Z</time></trkpt><trkpt lat="44.9830317" lon="8.0676983"><ele>247.0</ele><time>2026-04-18T17:07:26.365Z</time></trkpt><trkpt lat="44.9829133" lon="8.0675967"><ele>247.0</ele><time>2026-04-18T17:07:27.365Z</time></trkpt><trkpt lat="44.9827733" lon="8.0675017"><ele>247.0</ele><time>2026-04-18T17:07:28.364Z</time></trkpt><trkpt lat="44.9826383" lon="8.06742"><ele>247.0</ele><time>2026-04-18T17:07:29.365Z</time></trkpt><trkpt lat="44.9825067" lon="8.06732"><ele>248.33333333333331</ele><time>2026-04-18T17:07:30.365Z</time></trkpt><trkpt lat="44.9823683" lon="8.0672283"><ele>249.66666666666669</ele><time>2026-04-18T17:07:31.365Z</time></trkpt><trkpt lat="44.9822167" lon="8.0671683"><ele>251.0</ele><time>2026-04-18T17:07:32.364Z</time></trkpt><trkpt lat="44.9820733" lon="8.0671"><ele>251.0</ele><time>2026-04-18T17:07:33.365Z</time></trkpt><trkpt lat="44.9819367" lon="8.0670567"><ele>251.0</ele><time>2026-04-18T17:07:34.365Z</time></trkpt><trkpt lat="44.9818" lon="8.0670117"><ele>251.0</ele><time>2026-04-18T17:07:35.365Z</time></trkpt><trkpt lat="44.9816683" lon="8.066915"><ele>251.0</ele><time>2026-04-18T17:07:36.365Z</time></trkpt><trkpt lat="44.9815333" lon="8.066815"><ele>249.33333333333334</ele><time>2026-04-18T17:07:37.365Z</time></trkpt><trkpt lat="44.9814033" lon="8.06668"><ele>247.66666666666669</ele><time>2026-04-18T17:07:38.364Z</time></trkpt><trkpt lat="44.981285" lon="8.0665467"><ele>246.0</ele><time>2026-04-18T17:07:39.365Z</time></trkpt><trkpt lat="44.9811883" lon="8.066405"><ele>241.0</ele><time>2026-04-18T17:07:40.365Z</time></trkpt><trkpt lat="44.9810883" lon="8.0662417"><ele>236.0</ele><time>2026-04-18T17:07:41.365Z</time></trkpt><trkpt lat="44.981015" lon="8.06606"><ele>231.0</ele><time>2026-04-18T17:07:42.365Z</time></trkpt><trkpt lat="44.9809633" lon="8.065855"><ele>228.75</ele><time>2026-04-18T17:07:43.365Z</time></trkpt><trkpt lat="44.980915" lon="8.0656483"><ele>226.5</ele><time>2026-04-18T17:07:44.365Z</time></trkpt><trkpt lat="44.980875" lon="8.06544"><ele>224.25</ele><time>2026-04-18T17:07:45.365Z</time></trkpt><trkpt lat="44.9808267" lon="8.0652533"><ele>222.0</ele><time>2026-04-18T17:07:46.364Z</time></trkpt><trkpt lat="44.9807933" lon="8.0650717"><ele>224.75</ele><time>2026-04-18T17:07:47.365Z</time></trkpt><trkpt lat="44.9807383" lon="8.0649083"><ele>227.5</ele><time>2026-04-18T17:07:48.365Z</time></trkpt><trkpt lat="44.9806933" lon="8.064755"><ele>230.25</ele><time>2026-04-18T17:07:49.364Z</time></trkpt><trkpt lat="44.980645" lon="8.0646117"><ele>233.0</ele><time>2026-04-18T17:07:50.364Z</time></trkpt><trkpt lat="44.9806017" lon="8.0644633"><ele>233.0</ele><time>2026-04-18T17:07:51.365Z</time></trkpt><trkpt lat="44.980575" lon="8.0643367"><ele>233.0</ele><time>2026-04-18T17:07:52.365Z</time></trkpt><trkpt lat="44.9805533" lon="8.0642283"><ele>233.0</ele><time>2026-04-18T17:07:53.365Z</time></trkpt><trkpt lat="44.9804933" lon="8.06407"><ele>233.0</ele><time>2026-04-18T17:07:55.365Z</time></trkpt><trkpt lat="44.98042" lon="8.06393"><ele>233.0</ele><time>2026-04-18T17:07:57.365Z</time></trkpt><trkpt lat="44.9803583" lon="8.0638633"><ele>233.5</ele><time>2026-04-18T17:07:58.365Z</time></trkpt><trkpt lat="44.9802733" lon="8.0638067"><ele>234.0</ele><time>2026-04-18T17:07:59.365Z</time></trkpt><trkpt lat="44.9801667" lon="8.063745"><ele>234.5</ele><time>2026-04-18T17:08:00.364Z</time></trkpt><trkpt lat="44.9800583" lon="8.06367"><ele>235.0</ele><time>2026-04-18T17:08:01.365Z</time></trkpt><trkpt lat="44.97993" lon="8.063625"><ele>235.0</ele><time>2026-04-18T17:08:02.364Z</time></trkpt><trkpt lat="44.979795" lon="8.0635967"><ele>235.0</ele><time>2026-04-18T17:08:03.365Z</time></trkpt><trkpt lat="44.979655" lon="8.0636183"><ele>235.0</ele><time>2026-04-18T17:08:04.365Z</time></trkpt><trkpt lat="44.9795333" lon="8.0636217"><ele>235.0</ele><time>2026-04-18T17:08:05.365Z</time></trkpt><trkpt lat="44.97941" lon="8.0636067"><ele>235.0</ele><time>2026-04-18T17:08:06.365Z</time></trkpt><trkpt lat="44.9792767" lon="8.0635833"><ele>235.0</ele><time>2026-04-18T17:08:07.364Z</time></trkpt><trkpt lat="44.9791183" lon="8.0635333"><ele>235.0</ele><time>2026-04-18T17:08:08.365Z</time></trkpt><trkpt lat="44.9789883" lon="8.0634733"><ele>235.0</ele><time>2026-04-18T17:08:09.365Z</time></trkpt><trkpt lat="44.9788517" lon="8.06338"><ele>234.75</ele><time>2026-04-18T17:08:10.365Z</time></trkpt><trkpt lat="44.9787217" lon="8.0632917"><ele>234.5</ele><time>2026-04-18T17:08:11.365Z</time></trkpt><trkpt lat="44.978595" lon="8.063215"><ele>234.25</ele><time>2026-04-18T17:08:12.365Z</time></trkpt><trkpt lat="44.9784717" lon="8.0631617"><ele>234.0</ele><time>2026-04-18T17:08:13.365Z</time></trkpt><trkpt lat="44.9783517" lon="8.0631117"><ele>230.6</ele><time>2026-04-18T17:08:14.365Z</time></trkpt><trkpt lat="44.9782383" lon="8.0630483"><ele>227.2</ele><time>2026-04-18T17:08:15.364Z</time></trkpt><trkpt lat="44.9781483" lon="8.0629767"><ele>223.79999999999998</ele><time>2026-04-18T17:08:16.365Z</time></trkpt><trkpt lat="44.9780967" lon="8.0628967"><ele>220.39999999999998</ele><time>2026-04-18T17:08:17.365Z</time></trkpt><trkpt lat="44.978075" lon="8.062785"><ele>217.0</ele><time>2026-04-18T17:08:18.365Z</time></trkpt><trkpt lat="44.9780617" lon="8.0626683"><ele>217.0</ele><time>2026-04-18T17:08:19.365Z</time></trkpt><trkpt lat="44.9780833" lon="8.062545"><ele>217.0</ele><time>2026-04-18T17:08:20.365Z</time></trkpt><trkpt lat="44.9781283" lon="8.0624283"><ele>217.0</ele><time>2026-04-18T17:08:21.365Z</time></trkpt><trkpt lat="44.97818" lon="8.0623217"><ele>217.0</ele><time>2026-04-18T17:08:22.364Z</time></trkpt><trkpt lat="44.9782417" lon="8.0622367"><ele>217.0</ele><time>2026-04-18T17:08:23.365Z</time></trkpt><trkpt lat="44.9783217" lon="8.0621683"><ele>216.8</ele><time>2026-04-18T17:08:24.365Z</time></trkpt><trkpt lat="44.9784233" lon="8.062105"><ele>216.6</ele><time>2026-04-18T17:08:25.365Z</time></trkpt><trkpt lat="44.97851" lon="8.06203"><ele>216.40000000000003</ele><time>2026-04-18T17:08:26.365Z</time></trkpt><trkpt lat="44.9785883" lon="8.061935"><ele>216.20000000000002</ele><time>2026-04-18T17:08:27.365Z</time></trkpt><trkpt lat="44.9786567" lon="8.0618567"><ele>216.0</ele><time>2026-04-18T17:08:28.365Z</time></trkpt><trkpt lat="44.9787233" lon="8.0617883"><ele>216.0</ele><time>2026-04-18T17:08:29.365Z</time></trkpt><trkpt lat="44.9787817" lon="8.061735"><ele>216.0</ele><time>2026-04-18T17:08:30.365Z</time></trkpt><trkpt lat="44.9788733" lon="8.0616517"><ele>216.0</ele><time>2026-04-18T17:08:32.365Z</time></trkpt><trkpt lat="44.97893" lon="8.0615517"><ele>216.0</ele><time>2026-04-18T17:08:34.365Z</time></trkpt><trkpt lat="44.978895" lon="8.06146"><ele>216.0</ele><time>2026-04-18T17:08:37.365Z</time></trkpt><trkpt lat="44.97883" lon="8.06153"><ele>216.0</ele><time>2026-04-18T17:08:39.364Z</time></trkpt><trkpt lat="44.9787733" lon="8.0615867"><ele>216.0</ele><time>2026-04-18T17:08:40.365Z</time></trkpt><trkpt lat="44.9787017" lon="8.0616483"><ele>216.00000000000003</ele><time>2026-04-18T17:08:41.364Z</time></trkpt><trkpt lat="44.9786" lon="8.0617033"><ele>216.00000000000003</ele><time>2026-04-18T17:08:42.365Z</time></trkpt><trkpt lat="44.9784983" lon="8.0617467"><ele>216.0</ele><time>2026-04-18T17:08:43.365Z</time></trkpt><trkpt lat="44.978385" lon="8.06179"><ele>216.0</ele><time>2026-04-18T17:08:44.365Z</time></trkpt><trkpt lat="44.9782833" lon="8.0618083"><ele>212.4</ele><time>2026-04-18T17:08:45.364Z</time></trkpt><trkpt lat="44.97818" lon="8.06182"><ele>208.8</ele><time>2026-04-18T17:08:46.365Z</time></trkpt><trkpt lat="44.9780717" lon="8.0618283"><ele>205.20000000000002</ele><time>2026-04-18T17:08:47.365Z</time></trkpt><trkpt lat="44.97797" lon="8.0618367"><ele>201.60000000000002</ele><time>2026-04-18T17:08:48.365Z</time></trkpt><trkpt lat="44.9778617" lon="8.0618217"><ele>198.0</ele><time>2026-04-18T17:08:49.364Z</time></trkpt><trkpt lat="44.9777517" lon="8.0618"><ele>198.0</ele><time>2026-04-18T17:08:50.364Z</time></trkpt><trkpt lat="44.9776533" lon="8.061795"><ele>198.0</ele><time>2026-04-18T17:08:51.365Z</time></trkpt><trkpt lat="44.9775617" lon="8.0617933"><ele>198.0</ele><time>2026-04-18T17:08:52.365Z</time></trkpt><trkpt lat="44.9774733" lon="8.0618033"><ele>198.0</ele><time>2026-04-18T17:08:53.365Z</time></trkpt><trkpt lat="44.9773783" lon="8.06181"><ele>198.0</ele><time>2026-04-18T17:08:54.365Z</time></trkpt><trkpt lat="44.97727" lon="8.061805"><ele>196.0</ele><time>2026-04-18T17:08:55.364Z</time></trkpt><trkpt lat="44.9771667" lon="8.0618117"><ele>194.0</ele><time>2026-04-18T17:08:56.365Z</time></trkpt><trkpt lat="44.9770767" lon="8.0617883"><ele>192.0</ele><time>2026-04-18T17:08:57.365Z</time></trkpt><trkpt lat="44.9769917" lon="8.0617867"><ele>190.0</ele><time>2026-04-18T17:08:58.365Z</time></trkpt><trkpt lat="44.9769267" lon="8.0617917"><ele>188.0</ele><time>2026-04-18T17:08:59.365Z</time></trkpt><trkpt lat="44.9768217" lon="8.0617933"><ele>188.0</ele><time>2026-04-18T17:09:01.365Z</time></trkpt><trkpt lat="44.976745" lon="8.0618"><ele>188.0</ele><time>2026-04-18T17:09:03.365Z</time></trkpt><trkpt lat="44.9766067" lon="8.0617833"><ele>188.0</ele><time>2026-04-18T17:09:05.365Z</time></trkpt><trkpt lat="44.9765183" lon="8.0617683"><ele>188.0</ele><time>2026-04-18T17:09:06.365Z</time></trkpt><trkpt lat="44.9764133" lon="8.0617433"><ele>188.0</ele><time>2026-04-18T17:09:07.365Z</time></trkpt><trkpt lat="44.9763017" lon="8.0617267"><ele>186.5</ele><time>2026-04-18T17:09:08.365Z</time></trkpt><trkpt lat="44.9761817" lon="8.0617033"><ele>185.0</ele><time>2026-04-18T17:09:09.364Z</time></trkpt><trkpt lat="44.9760567" lon="8.0616833"><ele>183.5</ele><time>2026-04-18T17:09:10.365Z</time></trkpt><trkpt lat="44.97593" lon="8.061655"><ele>182.0</ele><time>2026-04-18T17:09:11.364Z</time></trkpt><trkpt lat="44.9758083" lon="8.0616183"><ele>181.5</ele><time>2026-04-18T17:09:12.365Z</time></trkpt><trkpt lat="44.9757033" lon="8.0616017"><ele>181.0</ele><time>2026-04-18T17:09:13.365Z</time></trkpt><trkpt lat="44.9755933" lon="8.06157"><ele>180.5</ele><time>2026-04-18T17:09:14.365Z</time></trkpt><trkpt lat="44.9754767" lon="8.0614967"><ele>180.0</ele><time>2026-04-18T17:09:15.365Z</time></trkpt><trkpt lat="44.9753767" lon="8.0613917"><ele>180.0</ele><time>2026-04-18T17:09:16.365Z</time></trkpt><trkpt lat="44.9753067" lon="8.0612367"><ele>180.0</ele><time>2026-04-18T17:09:17.364Z</time></trkpt><trkpt lat="44.97524" lon="8.0610583"><ele>180.0</ele><time>2026-04-18T17:09:18.364Z</time></trkpt><trkpt lat="44.975185" lon="8.0608933"><ele>180.0</ele><time>2026-04-18T17:09:19.364Z</time></trkpt><trkpt lat="44.9751317" lon="8.0607417"><ele>180.0</ele><time>2026-04-18T17:09:20.364Z</time></trkpt><trkpt lat="44.9750783" lon="8.0605933"><ele>180.0</ele><time>2026-04-18T17:09:21.365Z</time></trkpt><trkpt lat="44.9750317" lon="8.060445"><ele>180.0</ele><time>2026-04-18T17:09:22.364Z</time></trkpt><trkpt lat="44.97498" lon="8.0603067"><ele>180.0</ele><time>2026-04-18T17:09:23.365Z</time></trkpt><trkpt lat="44.9749383" lon="8.0601717"><ele>180.0</ele><time>2026-04-18T17:09:24.364Z</time></trkpt><trkpt lat="44.974915" lon="8.0600433"><ele>180.2</ele><time>2026-04-18T17:09:25.365Z</time></trkpt><trkpt lat="44.97491" lon="8.0599167"><ele>180.4</ele><time>2026-04-18T17:09:26.365Z</time></trkpt><trkpt lat="44.9749333" lon="8.05977"><ele>180.60000000000002</ele><time>2026-04-18T17:09:27.365Z</time></trkpt><trkpt lat="44.9749767" lon="8.0596133"><ele>180.8</ele><time>2026-04-18T17:09:28.365Z</time></trkpt><trkpt lat="44.9750233" lon="8.0594733"><ele>181.0</ele><time>2026-04-18T17:09:29.365Z</time></trkpt><trkpt lat="44.9750583" lon="8.05935"><ele>181.0</ele><time>2026-04-18T17:09:30.365Z</time></trkpt><trkpt lat="44.97508" lon="8.0592433"><ele>181.0</ele><time>2026-04-18T17:09:31.364Z</time></trkpt><trkpt lat="44.975095" lon="8.0591483"><ele>181.0</ele><time>2026-04-18T17:09:32.364Z</time></trkpt><trkpt lat="44.9750983" lon="8.05899"><ele>181.0</ele><time>2026-04-18T17:09:34.364Z</time></trkpt><trkpt lat="44.9750433" lon="8.0588633"><ele>181.0</ele><time>2026-04-18T17:09:36.365Z</time></trkpt><trkpt lat="44.975" lon="8.058785"><ele>181.0</ele><time>2026-04-18T17:09:37.365Z</time></trkpt><trkpt lat="44.9749333" lon="8.05871"><ele>182.0</ele><time>2026-04-18T17:09:38.365Z</time></trkpt><trkpt lat="44.9748533" lon="8.0586217"><ele>183.0</ele><time>2026-04-18T17:09:39.364Z</time></trkpt><trkpt lat="44.97475" lon="8.0585667"><ele>184.0</ele><time>2026-04-18T17:09:40.365Z</time></trkpt><trkpt lat="44.97463" lon="8.0585183"><ele>185.0</ele><time>2026-04-18T17:09:41.365Z</time></trkpt><trkpt lat="44.9745033" lon="8.058475"><ele>185.0</ele><time>2026-04-18T17:09:42.365Z</time></trkpt><trkpt lat="44.974365" lon="8.0584317"><ele>185.0</ele><time>2026-04-18T17:09:43.365Z</time></trkpt><trkpt lat="44.9742217" lon="8.0584017"><ele>185.0</ele><time>2026-04-18T17:09:44.365Z</time></trkpt><trkpt lat="44.9740833" lon="8.0583633"><ele>185.0</ele><time>2026-04-18T17:09:45.365Z</time></trkpt><trkpt lat="44.9739517" lon="8.058325"><ele>191.5</ele><time>2026-04-18T17:09:46.365Z</time></trkpt><trkpt lat="44.97384" lon="8.05828"><ele>198.0</ele><time>2026-04-18T17:09:47.365Z</time></trkpt><trkpt lat="44.9737317" lon="8.0581933"><ele>204.5</ele><time>2026-04-18T17:09:48.365Z</time></trkpt><trkpt lat="44.9736483" lon="8.058075"><ele>211.0</ele><time>2026-04-18T17:09:49.365Z</time></trkpt><trkpt lat="44.973575" lon="8.0579133"><ele>211.0</ele><time>2026-04-18T17:09:50.364Z</time></trkpt><trkpt lat="44.9735417" lon="8.0577167"><ele>211.0</ele><time>2026-04-18T17:09:51.365Z</time></trkpt><trkpt lat="44.97353" lon="8.05751"><ele>211.0</ele><time>2026-04-18T17:09:52.365Z</time></trkpt><trkpt lat="44.973535" lon="8.0573017"><ele>211.0</ele><time>2026-04-18T17:09:53.365Z</time></trkpt><trkpt lat="44.9735367" lon="8.0571033"><ele>213.0</ele><time>2026-04-18T17:09:54.365Z</time></trkpt><trkpt lat="44.9735433" lon="8.0569083"><ele>215.0</ele><time>2026-04-18T17:09:55.365Z</time></trkpt><trkpt lat="44.97356" lon="8.0567267"><ele>217.0</ele><time>2026-04-18T17:09:56.365Z</time></trkpt><trkpt lat="44.97359" lon="8.0565483"><ele>219.0</ele><time>2026-04-18T17:09:57.365Z</time></trkpt><trkpt lat="44.9736333" lon="8.0563833"><ele>219.0</ele><time>2026-04-18T17:09:58.364Z</time></trkpt><trkpt lat="44.9737067" lon="8.0562117"><ele>219.0</ele><time>2026-04-18T17:09:59.365Z</time></trkpt><trkpt lat="44.97378" lon="8.05605"><ele>219.0</ele><time>2026-04-18T17:10:00.365Z</time></trkpt><trkpt lat="44.97386" lon="8.0558833"><ele>219.0</ele><time>2026-04-18T17:10:01.365Z</time></trkpt><trkpt lat="44.9739367" lon="8.0557233"><ele>218.0</ele><time>2026-04-18T17:10:02.365Z</time></trkpt><trkpt lat="44.9740183" lon="8.0555567"><ele>217.0</ele><time>2026-04-18T17:10:03.364Z</time></trkpt><trkpt lat="44.9740967" lon="8.055385"><ele>216.0</ele><time>2026-04-18T17:10:04.365Z</time></trkpt><trkpt lat="44.9741633" lon="8.055205"><ele>215.0</ele><time>2026-04-18T17:10:05.365Z</time></trkpt><trkpt lat="44.9742" lon="8.0550167"><ele>213.0</ele><time>2026-04-18T17:10:06.365Z</time></trkpt><trkpt lat="44.974225" lon="8.0548167"><ele>211.0</ele><time>2026-04-18T17:10:07.365Z</time></trkpt><trkpt lat="44.97423" lon="8.0545967"><ele>209.0</ele><time>2026-04-18T17:10:08.364Z</time></trkpt><trkpt lat="44.9742233" lon="8.0543783"><ele>209.0</ele><time>2026-04-18T17:10:09.365Z</time></trkpt><trkpt lat="44.9742083" lon="8.05417"><ele>209.0</ele><time>2026-04-18T17:10:10.365Z</time></trkpt><trkpt lat="44.97419" lon="8.0539733"><ele>209.0</ele><time>2026-04-18T17:10:11.365Z</time></trkpt><trkpt lat="44.9741767" lon="8.0537767"><ele>209.0</ele><time>2026-04-18T17:10:12.365Z</time></trkpt><trkpt lat="44.9741483" lon="8.0536033"><ele>213.5</ele><time>2026-04-18T17:10:13.365Z</time></trkpt><trkpt lat="44.9741017" lon="8.0534333"><ele>218.0</ele><time>2026-04-18T17:10:14.365Z</time></trkpt><trkpt lat="44.974015" lon="8.0533"><ele>222.5</ele><time>2026-04-18T17:10:15.365Z</time></trkpt><trkpt lat="44.9739067" lon="8.053155"><ele>227.0</ele><time>2026-04-18T17:10:16.364Z</time></trkpt><trkpt lat="44.9738067" lon="8.0530133"><ele>226.25</ele><time>2026-04-18T17:10:17.364Z</time></trkpt><trkpt lat="44.97371" lon="8.05286"><ele>225.5</ele><time>2026-04-18T17:10:18.365Z</time></trkpt><trkpt lat="44.973645" lon="8.0526817"><ele>224.75</ele><time>2026-04-18T17:10:19.365Z</time></trkpt><trkpt lat="44.9735933" lon="8.0524983"><ele>224.0</ele><time>2026-04-18T17:10:20.365Z</time></trkpt><trkpt lat="44.9735383" lon="8.0523017"><ele>224.0</ele><time>2026-04-18T17:10:21.365Z</time></trkpt><trkpt lat="44.973465" lon="8.0521267"><ele>224.0</ele><time>2026-04-18T17:10:22.365Z</time></trkpt><trkpt lat="44.973385" lon="8.0519417"><ele>224.0</ele><time>2026-04-18T17:10:23.364Z</time></trkpt><trkpt lat="44.9733117" lon="8.0517633"><ele>224.0</ele><time>2026-04-18T17:10:24.365Z</time></trkpt><trkpt lat="44.973245" lon="8.0515817"><ele>228.25</ele><time>2026-04-18T17:10:25.365Z</time></trkpt><trkpt lat="44.9731817" lon="8.0513933"><ele>232.5</ele><time>2026-04-18T17:10:26.365Z</time></trkpt><trkpt lat="44.97311" lon="8.0512133"><ele>236.75</ele><time>2026-04-18T17:10:27.364Z</time></trkpt><trkpt lat="44.9730417" lon="8.0510383"><ele>241.0</ele><time>2026-04-18T17:10:28.365Z</time></trkpt><trkpt lat="44.9729883" lon="8.0508633"><ele>241.75</ele><time>2026-04-18T17:10:29.364Z</time></trkpt><trkpt lat="44.9729533" lon="8.05071"><ele>242.5</ele><time>2026-04-18T17:10:30.365Z</time></trkpt><trkpt lat="44.9729533" lon="8.0505433"><ele>243.25</ele><time>2026-04-18T17:10:31.364Z</time></trkpt><trkpt lat="44.973" lon="8.05037"><ele>244.0</ele><time>2026-04-18T17:10:32.365Z</time></trkpt><trkpt lat="44.97307" lon="8.0502267"><ele>244.0</ele><time>2026-04-18T17:10:33.365Z</time></trkpt><trkpt lat="44.97311" lon="8.050065"><ele>243.99999999999997</ele><time>2026-04-18T17:10:34.365Z</time></trkpt><trkpt lat="44.97313" lon="8.04992"><ele>243.99999999999997</ele><time>2026-04-18T17:10:35.364Z</time></trkpt><trkpt lat="44.9731483" lon="8.049775"><ele>244.0</ele><time>2026-04-18T17:10:36.364Z</time></trkpt><trkpt lat="44.9731533" lon="8.0496383"><ele>244.0</ele><time>2026-04-18T17:10:37.365Z</time></trkpt><trkpt lat="44.9731783" lon="8.0494967"><ele>245.75</ele><time>2026-04-18T17:10:38.365Z</time></trkpt><trkpt lat="44.973235" lon="8.0493567"><ele>247.5</ele><time>2026-04-18T17:10:39.364Z</time></trkpt><trkpt lat="44.97329" lon="8.0492033"><ele>249.25</ele><time>2026-04-18T17:10:40.365Z</time></trkpt><trkpt lat="44.973355" lon="8.0490483"><ele>251.0</ele><time>2026-04-18T17:10:41.364Z</time></trkpt><trkpt lat="44.9734333" lon="8.048885"><ele>251.0</ele><time>2026-04-18T17:10:42.365Z</time></trkpt><trkpt lat="44.9735083" lon="8.0487117"><ele>251.0</ele><time>2026-04-18T17:10:43.365Z</time></trkpt><trkpt lat="44.973575" lon="8.0485467"><ele>251.0</ele><time>2026-04-18T17:10:44.365Z</time></trkpt><trkpt lat="44.9736183" lon="8.04838"><ele>251.0</ele><time>2026-04-18T17:10:45.365Z</time></trkpt><trkpt lat="44.9736383" lon="8.0482167"><ele>253.20000000000002</ele><time>2026-04-18T17:10:46.365Z</time></trkpt><trkpt lat="44.9736383" lon="8.0480667"><ele>255.40000000000003</ele><time>2026-04-18T17:10:47.365Z</time></trkpt><trkpt lat="44.9736017" lon="8.0479167"><ele>257.6</ele><time>2026-04-18T17:10:48.365Z</time></trkpt><trkpt lat="44.9735483" lon="8.0478133"><ele>259.8</ele><time>2026-04-18T17:10:49.365Z</time></trkpt><trkpt lat="44.973485" lon="8.0477417"><ele>262.0</ele><time>2026-04-18T17:10:50.365Z</time></trkpt><trkpt lat="44.973425" lon="8.0476733"><ele>262.0</ele><time>2026-04-18T17:10:51.364Z</time></trkpt><trkpt lat="44.9733567" lon="8.0476233"><ele>262.0</ele><time>2026-04-18T17:10:52.364Z</time></trkpt><trkpt lat="44.9732817" lon="8.0475967"><ele>262.0</ele><time>2026-04-18T17:10:53.365Z</time></trkpt><trkpt lat="44.9731983" lon="8.0475733"><ele>262.0</ele><time>2026-04-18T17:10:54.365Z</time></trkpt><trkpt lat="44.9730917" lon="8.0475617"><ele>262.0</ele><time>2026-04-18T17:10:55.364Z</time></trkpt><trkpt lat="44.9729733" lon="8.0475267"><ele>261.25</ele><time>2026-04-18T17:10:56.365Z</time></trkpt><trkpt lat="44.9728517" lon="8.0474667"><ele>260.5</ele><time>2026-04-18T17:10:57.364Z</time></trkpt><trkpt lat="44.972715" lon="8.0474117"><ele>259.75</ele><time>2026-04-18T17:10:58.365Z</time></trkpt><trkpt lat="44.9725717" lon="8.0473333"><ele>259.0</ele><time>2026-04-18T17:10:59.365Z</time></trkpt><trkpt lat="44.9724417" lon="8.0472783"><ele>261.25</ele><time>2026-04-18T17:11:00.365Z</time></trkpt><trkpt lat="44.972305" lon="8.0472517"><ele>263.5</ele><time>2026-04-18T17:11:01.365Z</time></trkpt><trkpt lat="44.9721717" lon="8.0472333"><ele>265.75</ele><time>2026-04-18T17:11:02.365Z</time></trkpt><trkpt lat="44.9720433" lon="8.0472067"><ele>268.0</ele><time>2026-04-18T17:11:03.365Z</time></trkpt><trkpt lat="44.971915" lon="8.0471767"><ele>268.0</ele><time>2026-04-18T17:11:04.365Z</time></trkpt><trkpt lat="44.97179" lon="8.04714"><ele>268.0</ele><time>2026-04-18T17:11:05.364Z</time></trkpt><trkpt lat="44.9716733" lon="8.0470967"><ele>268.0</ele><time>2026-04-18T17:11:06.365Z</time></trkpt><trkpt lat="44.971545" lon="8.0470483"><ele>268.0</ele><time>2026-04-18T17:11:07.364Z</time></trkpt><trkpt lat="44.9713967" lon="8.0469933"><ele>269.0</ele><time>2026-04-18T17:11:08.365Z</time></trkpt><trkpt lat="44.97125" lon="8.04694"><ele>270.0</ele><time>2026-04-18T17:11:09.365Z</time></trkpt><trkpt lat="44.9710933" lon="8.0469017"><ele>271.0</ele><time>2026-04-18T17:11:10.364Z</time></trkpt><trkpt lat="44.9709233" lon="8.0468667"><ele>270.3333333333333</ele><time>2026-04-18T17:11:11.365Z</time></trkpt><trkpt lat="44.9707617" lon="8.0468067"><ele>269.6666666666667</ele><time>2026-04-18T17:11:12.365Z</time></trkpt><trkpt lat="44.970595" lon="8.046735"><ele>269.0</ele><time>2026-04-18T17:11:13.364Z</time></trkpt><trkpt lat="44.9704417" lon="8.04669"><ele>269.0</ele><time>2026-04-18T17:11:14.365Z</time></trkpt><trkpt lat="44.9702867" lon="8.0466317"><ele>269.0</ele><time>2026-04-18T17:11:15.364Z</time></trkpt><trkpt lat="44.9701383" lon="8.0465783"><ele>269.0</ele><time>2026-04-18T17:11:16.365Z</time></trkpt><trkpt lat="44.9699967" lon="8.0465167"><ele>269.5</ele><time>2026-04-18T17:11:17.365Z</time></trkpt><trkpt lat="44.9698683" lon="8.0464567"><ele>270.0</ele><time>2026-04-18T17:11:18.364Z</time></trkpt><trkpt lat="44.969735" lon="8.046395"><ele>270.5</ele><time>2026-04-18T17:11:19.365Z</time></trkpt><trkpt lat="44.9696133" lon="8.04633"><ele>271.0</ele><time>2026-04-18T17:11:20.365Z</time></trkpt><trkpt lat="44.969475" lon="8.0462767"><ele>271.0</ele><time>2026-04-18T17:11:21.364Z</time></trkpt><trkpt lat="44.969345" lon="8.0462083"><ele>271.0</ele><time>2026-04-18T17:11:22.364Z</time></trkpt><trkpt lat="44.969225" lon="8.046115"><ele>271.0</ele><time>2026-04-18T17:11:23.365Z</time></trkpt><trkpt lat="44.969115" lon="8.0460067"><ele>271.0</ele><time>2026-04-18T17:11:24.365Z</time></trkpt><trkpt lat="44.9690133" lon="8.0458683"><ele>271.25</ele><time>2026-04-18T17:11:25.364Z</time></trkpt><trkpt lat="44.9689317" lon="8.0457067"><ele>271.5</ele><time>2026-04-18T17:11:26.365Z</time></trkpt><trkpt lat="44.968865" lon="8.0455333"><ele>271.75</ele><time>2026-04-18T17:11:27.365Z</time></trkpt><trkpt lat="44.9687867" lon="8.0453733"><ele>272.0</ele><time>2026-04-18T17:11:28.364Z</time></trkpt><trkpt lat="44.9687383" lon="8.0451767"><ele>272.0</ele><time>2026-04-18T17:11:29.365Z</time></trkpt><trkpt lat="44.9686717" lon="8.04497"><ele>272.0</ele><time>2026-04-18T17:11:30.365Z</time></trkpt><trkpt lat="44.9685933" lon="8.0447817"><ele>272.0</ele><time>2026-04-18T17:11:31.365Z</time></trkpt><trkpt lat="44.9684933" lon="8.0446083"><ele>269.6666666666667</ele><time>2026-04-18T17:11:32.365Z</time></trkpt><trkpt lat="44.9683783" lon="8.044445"><ele>267.3333333333333</ele><time>2026-04-18T17:11:33.365Z</time></trkpt><trkpt lat="44.9682633" lon="8.0442783"><ele>265.0</ele><time>2026-04-18T17:11:34.365Z</time></trkpt><trkpt lat="44.9681683" lon="8.0441383"><ele>265.3333333333333</ele><time>2026-04-18T17:11:35.365Z</time></trkpt><trkpt lat="44.9680633" lon="8.044005"><ele>265.6666666666667</ele><time>2026-04-18T17:11:36.365Z</time></trkpt><trkpt lat="44.967945" lon="8.0438817"><ele>266.0</ele><time>2026-04-18T17:11:37.364Z</time></trkpt><trkpt lat="44.9678" lon="8.0437483"><ele>266.0</ele><time>2026-04-18T17:11:38.364Z</time></trkpt><trkpt lat="44.9676533" lon="8.043615"><ele>266.0</ele><time>2026-04-18T17:11:39.365Z</time></trkpt><trkpt lat="44.9675133" lon="8.043485"><ele>266.0</ele><time>2026-04-18T17:11:40.365Z</time></trkpt><trkpt lat="44.96739" lon="8.0433567"><ele>263.0</ele><time>2026-04-18T17:11:41.365Z</time></trkpt><trkpt lat="44.9672683" lon="8.0432183"><ele>260.0</ele><time>2026-04-18T17:11:42.365Z</time></trkpt><trkpt lat="44.967145" lon="8.0430833"><ele>257.0</ele><time>2026-04-18T17:11:43.365Z</time></trkpt><trkpt lat="44.9670217" lon="8.0429317"><ele>257.0</ele><time>2026-04-18T17:11:44.365Z</time></trkpt><trkpt lat="44.966895" lon="8.04277"><ele>257.0</ele><time>2026-04-18T17:11:45.365Z</time></trkpt><trkpt lat="44.9667633" lon="8.042615"><ele>257.0</ele><time>2026-04-18T17:11:46.364Z</time></trkpt><trkpt lat="44.9666267" lon="8.042465"><ele>257.6666666666667</ele><time>2026-04-18T17:11:47.364Z</time></trkpt><trkpt lat="44.9664917" lon="8.04232"><ele>258.3333333333333</ele><time>2026-04-18T17:11:48.365Z</time></trkpt><trkpt lat="44.966355" lon="8.0421717"><ele>259.0</ele><time>2026-04-18T17:11:49.364Z</time></trkpt><trkpt lat="44.9662283" lon="8.0420367"><ele>259.0</ele><time>2026-04-18T17:11:50.365Z</time></trkpt><trkpt lat="44.9660967" lon="8.041905"><ele>259.0</ele><time>2026-04-18T17:11:51.364Z</time></trkpt><trkpt lat="44.9659667" lon="8.0417817"><ele>259.0</ele><time>2026-04-18T17:11:52.365Z</time></trkpt><trkpt lat="44.9658233" lon="8.0416733"><ele>261.5</ele><time>2026-04-18T17:11:53.365Z</time></trkpt><trkpt lat="44.9656867" lon="8.0415617"><ele>264.0</ele><time>2026-04-18T17:11:54.365Z</time></trkpt><trkpt lat="44.96557" lon="8.0414767"><ele>266.5</ele><time>2026-04-18T17:11:55.365Z</time></trkpt><trkpt lat="44.96545" lon="8.0413867"><ele>269.0</ele><time>2026-04-18T17:11:56.365Z</time></trkpt><trkpt lat="44.9653383" lon="8.0412917"><ele>269.0</ele><time>2026-04-18T17:11:57.364Z</time></trkpt><trkpt lat="44.9652333" lon="8.0412017"><ele>269.0</ele><time>2026-04-18T17:11:58.364Z</time></trkpt><trkpt lat="44.965125" lon="8.04109"><ele>269.0</ele><time>2026-04-18T17:11:59.365Z</time></trkpt><trkpt lat="44.9650467" lon="8.040975"><ele>269.0</ele><time>2026-04-18T17:12:00.364Z</time></trkpt><trkpt lat="44.9649583" lon="8.040855"><ele>268.4</ele><time>2026-04-18T17:12:01.365Z</time></trkpt><trkpt lat="44.9648933" lon="8.040735"><ele>267.79999999999995</ele><time>2026-04-18T17:12:02.365Z</time></trkpt><trkpt lat="44.96482" lon="8.040625"><ele>267.20000000000005</ele><time>2026-04-18T17:12:03.365Z</time></trkpt><trkpt lat="44.9647483" lon="8.0405117"><ele>266.6</ele><time>2026-04-18T17:12:04.365Z</time></trkpt><trkpt lat="44.9646867" lon="8.0403633"><ele>266.0</ele><time>2026-04-18T17:12:05.365Z</time></trkpt><trkpt lat="44.96464" lon="8.0402133"><ele>266.0</ele><time>2026-04-18T17:12:06.364Z</time></trkpt><trkpt lat="44.96461" lon="8.0400533"><ele>266.0</ele><time>2026-04-18T17:12:07.365Z</time></trkpt><trkpt lat="44.9646067" lon="8.0398917"><ele>266.0</ele><time>2026-04-18T17:12:08.365Z</time></trkpt><trkpt lat="44.9646083" lon="8.0397033"><ele>266.0</ele><time>2026-04-18T17:12:09.365Z</time></trkpt><trkpt lat="44.964635" lon="8.0395233"><ele>264.75</ele><time>2026-04-18T17:12:10.364Z</time></trkpt><trkpt lat="44.9646867" lon="8.03935"><ele>263.5</ele><time>2026-04-18T17:12:11.364Z</time></trkpt><trkpt lat="44.9647467" lon="8.0391967"><ele>262.25</ele><time>2026-04-18T17:12:12.364Z</time></trkpt><trkpt lat="44.9647917" lon="8.039055"><ele>261.0</ele><time>2026-04-18T17:12:13.365Z</time></trkpt><trkpt lat="44.96484" lon="8.0389267"><ele>261.0</ele><time>2026-04-18T17:12:14.365Z</time></trkpt><trkpt lat="44.9648633" lon="8.0388"><ele>261.0</ele><time>2026-04-18T17:12:15.365Z</time></trkpt><trkpt lat="44.9648633" lon="8.038675"><ele>261.0</ele><time>2026-04-18T17:12:16.365Z</time></trkpt><trkpt lat="44.9648333" lon="8.03855"><ele>261.0</ele><time>2026-04-18T17:12:17.365Z</time></trkpt><trkpt lat="44.9647717" lon="8.0384333"><ele>261.0</ele><time>2026-04-18T17:12:18.365Z</time></trkpt><trkpt lat="44.964685" lon="8.0383333"><ele>261.75</ele><time>2026-04-18T17:12:19.365Z</time></trkpt><trkpt lat="44.9645833" lon="8.0382183"><ele>262.5</ele><time>2026-04-18T17:12:20.365Z</time></trkpt><trkpt lat="44.9644817" lon="8.0381083"><ele>263.25</ele><time>2026-04-18T17:12:21.365Z</time></trkpt><trkpt lat="44.9643833" lon="8.0380117"><ele>264.0</ele><time>2026-04-18T17:12:22.365Z</time></trkpt><trkpt lat="44.9642667" lon="8.0379067"><ele>262.5</ele><time>2026-04-18T17:12:23.364Z</time></trkpt><trkpt lat="44.9641417" lon="8.0378167"><ele>261.0</ele><time>2026-04-18T17:12:24.365Z</time></trkpt><trkpt lat="44.96403" lon="8.0377417"><ele>259.5</ele><time>2026-04-18T17:12:25.365Z</time></trkpt><trkpt lat="44.9639133" lon="8.0376867"><ele>258.0</ele><time>2026-04-18T17:12:26.365Z</time></trkpt><trkpt lat="44.9637867" lon="8.0376533"><ele>258.0</ele><time>2026-04-18T17:12:27.365Z</time></trkpt><trkpt lat="44.9636767" lon="8.0376267"><ele>258.0</ele><time>2026-04-18T17:12:28.365Z</time></trkpt><trkpt lat="44.963575" lon="8.0376"><ele>258.0</ele><time>2026-04-18T17:12:29.364Z</time></trkpt><trkpt lat="44.963485" lon="8.03757"><ele>258.0</ele><time>2026-04-18T17:12:30.364Z</time></trkpt><trkpt lat="44.9633983" lon="8.03755"><ele>258.0</ele><time>2026-04-18T17:12:31.365Z</time></trkpt><trkpt lat="44.963315" lon="8.037525"><ele>257.71428571428567</ele><time>2026-04-18T17:12:32.365Z</time></trkpt><trkpt lat="44.963235" lon="8.0375083"><ele>257.42857142857144</ele><time>2026-04-18T17:12:33.365Z</time></trkpt><trkpt lat="44.9631667" lon="8.0374867"><ele>257.1428571428571</ele><time>2026-04-18T17:12:34.365Z</time></trkpt><trkpt lat="44.9631017" lon="8.0374667"><ele>256.85714285714283</ele><time>2026-04-18T17:12:35.365Z</time></trkpt><trkpt lat="44.9630333" lon="8.0374483"><ele>256.57142857142856</ele><time>2026-04-18T17:12:36.364Z</time></trkpt><trkpt lat="44.96296" lon="8.0374383"><ele>256.2857142857143</ele><time>2026-04-18T17:12:37.364Z</time></trkpt><trkpt lat="44.96288" lon="8.0374367"><ele>256.0</ele><time>2026-04-18T17:12:38.364Z</time></trkpt><trkpt lat="44.9627833" lon="8.037435"><ele>256.0</ele><time>2026-04-18T17:12:39.365Z</time></trkpt><trkpt lat="44.96266" lon="8.0374467"><ele>256.0</ele><time>2026-04-18T17:12:40.365Z</time></trkpt><trkpt lat="44.9625233" lon="8.037485"><ele>256.0</ele><time>2026-04-18T17:12:41.365Z</time></trkpt><trkpt lat="44.9623817" lon="8.03752"><ele>256.0</ele><time>2026-04-18T17:12:42.365Z</time></trkpt><trkpt lat="44.9622467" lon="8.03755"><ele>254.0</ele><time>2026-04-18T17:12:43.365Z</time></trkpt><trkpt lat="44.9621167" lon="8.0375667"><ele>252.0</ele><time>2026-04-18T17:12:44.365Z</time></trkpt><trkpt lat="44.96198" lon="8.0375767"><ele>250.0</ele><time>2026-04-18T17:12:45.364Z</time></trkpt><trkpt lat="44.9618383" lon="8.03759"><ele>248.0</ele><time>2026-04-18T17:12:46.365Z</time></trkpt><trkpt lat="44.9616833" lon="8.0375933"><ele>247.0</ele><time>2026-04-18T17:12:47.365Z</time></trkpt><trkpt lat="44.9615333" lon="8.0375983"><ele>246.0</ele><time>2026-04-18T17:12:48.364Z</time></trkpt><trkpt lat="44.9613833" lon="8.03761"><ele>245.0</ele><time>2026-04-18T17:12:49.364Z</time></trkpt><trkpt lat="44.961235" lon="8.0376117"><ele>244.0</ele><time>2026-04-18T17:12:50.365Z</time></trkpt><trkpt lat="44.9610933" lon="8.03762"><ele>244.0</ele><time>2026-04-18T17:12:51.365Z</time></trkpt><trkpt lat="44.9609517" lon="8.03762"><ele>244.0</ele><time>2026-04-18T17:12:52.365Z</time></trkpt><trkpt lat="44.9608" lon="8.0376217"><ele>244.0</ele><time>2026-04-18T17:12:53.365Z</time></trkpt><trkpt lat="44.9606467" lon="8.0376283"><ele>244.0</ele><time>2026-04-18T17:12:54.364Z</time></trkpt><trkpt lat="44.9604983" lon="8.037635"><ele>245.25</ele><time>2026-04-18T17:12:55.365Z</time></trkpt><trkpt lat="44.9603583" lon="8.0376267"><ele>246.5</ele><time>2026-04-18T17:12:56.364Z</time></trkpt><trkpt lat="44.9602183" lon="8.0376083"><ele>247.75</ele><time>2026-04-18T17:12:57.365Z</time></trkpt><trkpt lat="44.9600783" lon="8.03758"><ele>249.0</ele><time>2026-04-18T17:12:58.364Z</time></trkpt><trkpt lat="44.9599383" lon="8.037535"><ele>249.75</ele><time>2026-04-18T17:12:59.364Z</time></trkpt><trkpt lat="44.9598083" lon="8.0374933"><ele>250.5</ele><time>2026-04-18T17:13:00.364Z</time></trkpt><trkpt lat="44.95966" lon="8.0374567"><ele>251.25</ele><time>2026-04-18T17:13:01.364Z</time></trkpt><trkpt lat="44.9595133" lon="8.037415"><ele>252.0</ele><time>2026-04-18T17:13:02.365Z</time></trkpt><trkpt lat="44.9593533" lon="8.0373533"><ele>253.0</ele><time>2026-04-18T17:13:03.365Z</time></trkpt><trkpt lat="44.9592117" lon="8.0373017"><ele>254.0</ele><time>2026-04-18T17:13:04.365Z</time></trkpt><trkpt lat="44.95906" lon="8.03726"><ele>255.0</ele><time>2026-04-18T17:13:05.364Z</time></trkpt><trkpt lat="44.9589017" lon="8.0372133"><ele>255.0</ele><time>2026-04-18T17:13:06.365Z</time></trkpt><trkpt lat="44.9587433" lon="8.0371667"><ele>255.0</ele><time>2026-04-18T17:13:07.365Z</time></trkpt><trkpt lat="44.95859" lon="8.037135"><ele>255.0</ele><time>2026-04-18T17:13:08.364Z</time></trkpt><trkpt lat="44.958425" lon="8.0370883"><ele>251.33333333333331</ele><time>2026-04-18T17:13:09.365Z</time></trkpt><trkpt lat="44.958265" lon="8.037045"><ele>247.66666666666666</ele><time>2026-04-18T17:13:10.364Z</time></trkpt><trkpt lat="44.9581033" lon="8.037"><ele>244.0</ele><time>2026-04-18T17:13:11.364Z</time></trkpt><trkpt lat="44.957965" lon="8.03695"><ele>244.0</ele><time>2026-04-18T17:13:12.365Z</time></trkpt><trkpt lat="44.9578267" lon="8.0369117"><ele>244.0</ele><time>2026-04-18T17:13:13.364Z</time></trkpt><trkpt lat="44.9576883" lon="8.03685"><ele>244.0</ele><time>2026-04-18T17:13:14.365Z</time></trkpt><trkpt lat="44.9575383" lon="8.0367417"><ele>240.33333333333331</ele><time>2026-04-18T17:13:15.365Z</time></trkpt><trkpt lat="44.957405" lon="8.0366267"><ele>236.66666666666669</ele><time>2026-04-18T17:13:16.365Z</time></trkpt><trkpt lat="44.95728" lon="8.0365"><ele>233.0</ele><time>2026-04-18T17:13:17.365Z</time></trkpt><trkpt lat="44.9571533" lon="8.0363533"><ele>233.0</ele><time>2026-04-18T17:13:18.365Z</time></trkpt><trkpt lat="44.9570267" lon="8.0362233"><ele>233.0</ele><time>2026-04-18T17:13:19.365Z</time></trkpt><trkpt lat="44.95691" lon="8.03609"><ele>233.0</ele><time>2026-04-18T17:13:20.364Z</time></trkpt><trkpt lat="44.95681" lon="8.0359567"><ele>233.0</ele><time>2026-04-18T17:13:21.365Z</time></trkpt><trkpt lat="44.9567167" lon="8.03584"><ele>232.4</ele><time>2026-04-18T17:13:22.365Z</time></trkpt><trkpt lat="44.9566317" lon="8.035735"><ele>231.8</ele><time>2026-04-18T17:13:23.365Z</time></trkpt><trkpt lat="44.9565517" lon="8.0356717"><ele>231.2</ele><time>2026-04-18T17:13:24.365Z</time></trkpt><trkpt lat="44.9564667" lon="8.035625"><ele>230.6</ele><time>2026-04-18T17:13:25.365Z</time></trkpt><trkpt lat="44.95638" lon="8.0356217"><ele>230.0</ele><time>2026-04-18T17:13:26.365Z</time></trkpt><trkpt lat="44.9562883" lon="8.0356733"><ele>230.0</ele><time>2026-04-18T17:13:27.365Z</time></trkpt><trkpt lat="44.9561867" lon="8.0357533"><ele>230.0</ele><time>2026-04-18T17:13:28.364Z</time></trkpt><trkpt lat="44.9560867" lon="8.0358367"><ele>230.0</ele><time>2026-04-18T17:13:29.365Z</time></trkpt><trkpt lat="44.955985" lon="8.0359217"><ele>230.0</ele><time>2026-04-18T17:13:30.365Z</time></trkpt><trkpt lat="44.9558933" lon="8.036"><ele>230.6</ele><time>2026-04-18T17:13:31.364Z</time></trkpt><trkpt lat="44.9557933" lon="8.0360517"><ele>231.2</ele><time>2026-04-18T17:13:32.365Z</time></trkpt><trkpt lat="44.9556933" lon="8.0360933"><ele>231.8</ele><time>2026-04-18T17:13:33.365Z</time></trkpt><trkpt lat="44.9555883" lon="8.0361217"><ele>232.4</ele><time>2026-04-18T17:13:34.364Z</time></trkpt><trkpt lat="44.9554783" lon="8.0361533"><ele>233.0</ele><time>2026-04-18T17:13:35.365Z</time></trkpt><trkpt lat="44.9553667" lon="8.0361633"><ele>233.0</ele><time>2026-04-18T17:13:36.365Z</time></trkpt><trkpt lat="44.95525" lon="8.0361283"><ele>233.0</ele><time>2026-04-18T17:13:37.364Z</time></trkpt><trkpt lat="44.9551283" lon="8.0360767"><ele>233.0</ele><time>2026-04-18T17:13:38.365Z</time></trkpt><trkpt lat="44.95502" lon="8.0360133"><ele>233.0</ele><time>2026-04-18T17:13:39.365Z</time></trkpt><trkpt lat="44.9549183" lon="8.0359517"><ele>231.60000000000002</ele><time>2026-04-18T17:13:40.365Z</time></trkpt><trkpt lat="44.9548167" lon="8.0359117"><ele>230.20000000000002</ele><time>2026-04-18T17:13:41.365Z</time></trkpt><trkpt lat="44.954715" lon="8.0358817"><ele>228.8</ele><time>2026-04-18T17:13:42.365Z</time></trkpt><trkpt lat="44.9546117" lon="8.03589"><ele>227.4</ele><time>2026-04-18T17:13:43.365Z</time></trkpt><trkpt lat="44.9544983" lon="8.0359333"><ele>226.0</ele><time>2026-04-18T17:13:44.365Z</time></trkpt><trkpt lat="44.954375" lon="8.0360117"><ele>226.0</ele><time>2026-04-18T17:13:45.365Z</time></trkpt><trkpt lat="44.95426" lon="8.0360933"><ele>226.0</ele><time>2026-04-18T17:13:46.365Z</time></trkpt><trkpt lat="44.9541317" lon="8.0361467"><ele>226.0</ele><time>2026-04-18T17:13:47.365Z</time></trkpt><trkpt lat="44.954" lon="8.0361983"><ele>226.0</ele><time>2026-04-18T17:13:48.365Z</time></trkpt><trkpt lat="44.9538733" lon="8.036265"><ele>223.0</ele><time>2026-04-18T17:13:49.365Z</time></trkpt><trkpt lat="44.9537417" lon="8.0363433"><ele>220.0</ele><time>2026-04-18T17:13:50.365Z</time></trkpt><trkpt lat="44.953605" lon="8.036405"><ele>217.0</ele><time>2026-04-18T17:13:51.365Z</time></trkpt><trkpt lat="44.9534883" lon="8.0364617"><ele>214.0</ele><time>2026-04-18T17:13:52.365Z</time></trkpt><trkpt lat="44.9533733" lon="8.0365117"><ele>214.0</ele><time>2026-04-18T17:13:53.365Z</time></trkpt><trkpt lat="44.9532467" lon="8.0365433"><ele>214.0</ele><time>2026-04-18T17:13:54.365Z</time></trkpt><trkpt lat="44.9531217" lon="8.036575"><ele>214.0</ele><time>2026-04-18T17:13:55.364Z</time></trkpt><trkpt lat="44.9530167" lon="8.0366233"><ele>214.0</ele><time>2026-04-18T17:13:56.365Z</time></trkpt><trkpt lat="44.952915" lon="8.0366783"><ele>214.0</ele><time>2026-04-18T17:13:57.365Z</time></trkpt><trkpt lat="44.9528183" lon="8.0367367"><ele>213.99999999999997</ele><time>2026-04-18T17:13:58.364Z</time></trkpt><trkpt lat="44.95273" lon="8.036805"><ele>213.99999999999997</ele><time>2026-04-18T17:13:59.365Z</time></trkpt><trkpt lat="44.9526333" lon="8.03685"><ele>214.0</ele><time>2026-04-18T17:14:00.365Z</time></trkpt><trkpt lat="44.952555" lon="8.0368633"><ele>214.0</ele><time>2026-04-18T17:14:01.365Z</time></trkpt><trkpt lat="44.9524783" lon="8.036835"><ele>211.83333333333331</ele><time>2026-04-18T17:14:02.365Z</time></trkpt><trkpt lat="44.9524183" lon="8.0367833"><ele>209.66666666666666</ele><time>2026-04-18T17:14:03.364Z</time></trkpt><trkpt lat="44.95237" lon="8.0366983"><ele>207.5</ele><time>2026-04-18T17:14:04.365Z</time></trkpt><trkpt lat="44.9523467" lon="8.0365767"><ele>205.33333333333331</ele><time>2026-04-18T17:14:05.364Z</time></trkpt><trkpt lat="44.952315" lon="8.0364567"><ele>203.16666666666666</ele><time>2026-04-18T17:14:06.365Z</time></trkpt><trkpt lat="44.95228" lon="8.0363517"><ele>201.0</ele><time>2026-04-18T17:14:07.365Z</time></trkpt><trkpt lat="44.952235" lon="8.0362617"><ele>201.0</ele><time>2026-04-18T17:14:08.365Z</time></trkpt><trkpt lat="44.9521833" lon="8.03619"><ele>201.0</ele><time>2026-04-18T17:14:09.364Z</time></trkpt><trkpt lat="44.9521217" lon="8.0361467"><ele>201.0</ele><time>2026-04-18T17:14:10.365Z</time></trkpt><trkpt lat="44.9520567" lon="8.0361167"><ele>201.0</ele><time>2026-04-18T17:14:11.365Z</time></trkpt><trkpt lat="44.9519783" lon="8.036105"><ele>201.0</ele><time>2026-04-18T17:14:12.365Z</time></trkpt><trkpt lat="44.9518983" lon="8.0360983"><ele>201.0</ele><time>2026-04-18T17:14:13.365Z</time></trkpt><trkpt lat="44.95181" lon="8.0360817"><ele>201.0</ele><time>2026-04-18T17:14:14.365Z</time></trkpt><trkpt lat="44.9517267" lon="8.0360283"><ele>201.0</ele><time>2026-04-18T17:14:15.364Z</time></trkpt><trkpt lat="44.9516267" lon="8.0359617"><ele>201.0</ele><time>2026-04-18T17:14:16.365Z</time></trkpt><trkpt lat="44.9515233" lon="8.0358633"><ele>201.0</ele><time>2026-04-18T17:14:17.365Z</time></trkpt><trkpt lat="44.9514333" lon="8.0357233"><ele>197.5</ele><time>2026-04-18T17:14:18.365Z</time></trkpt><trkpt lat="44.9513483" lon="8.0355817"><ele>194.0</ele><time>2026-04-18T17:14:19.365Z</time></trkpt><trkpt lat="44.9512717" lon="8.0354433"><ele>190.5</ele><time>2026-04-18T17:14:20.365Z</time></trkpt><trkpt lat="44.9511933" lon="8.035325"><ele>187.0</ele><time>2026-04-18T17:14:21.364Z</time></trkpt><trkpt lat="44.9511267" lon="8.0352183"><ele>187.0</ele><time>2026-04-18T17:14:22.365Z</time></trkpt><trkpt lat="44.95106" lon="8.035125"><ele>187.0</ele><time>2026-04-18T17:14:23.365Z</time></trkpt><trkpt lat="44.9509883" lon="8.0350417"><ele>187.0</ele><time>2026-04-18T17:14:24.365Z</time></trkpt><trkpt lat="44.9509217" lon="8.03496"><ele>187.0</ele><time>2026-04-18T17:14:25.365Z</time></trkpt><trkpt lat="44.95085" lon="8.0348683"><ele>187.0</ele><time>2026-04-18T17:14:26.365Z</time></trkpt><trkpt lat="44.950775" lon="8.034775"><ele>188.6</ele><time>2026-04-18T17:14:27.365Z</time></trkpt><trkpt lat="44.9506967" lon="8.0346783"><ele>190.2</ele><time>2026-04-18T17:14:28.365Z</time></trkpt><trkpt lat="44.9506217" lon="8.0345967"><ele>191.8</ele><time>2026-04-18T17:14:29.365Z</time></trkpt><trkpt lat="44.9505633" lon="8.0345067"><ele>193.4</ele><time>2026-04-18T17:14:30.365Z</time></trkpt><trkpt lat="44.9504983" lon="8.03442"><ele>195.0</ele><time>2026-04-18T17:14:31.365Z</time></trkpt><trkpt lat="44.950435" lon="8.0343117"><ele>195.0</ele><time>2026-04-18T17:14:32.365Z</time></trkpt><trkpt lat="44.95038" lon="8.0341817"><ele>195.0</ele><time>2026-04-18T17:14:33.365Z</time></trkpt><trkpt lat="44.95033" lon="8.0340433"><ele>195.0</ele><time>2026-04-18T17:14:34.365Z</time></trkpt><trkpt lat="44.9502833" lon="8.0339067"><ele>195.0</ele><time>2026-04-18T17:14:35.365Z</time></trkpt><trkpt lat="44.950235" lon="8.0337567"><ele>195.0</ele><time>2026-04-18T17:14:36.364Z</time></trkpt><trkpt lat="44.9501833" lon="8.0336117"><ele>198.75</ele><time>2026-04-18T17:14:37.364Z</time></trkpt><trkpt lat="44.950135" lon="8.0334283"><ele>202.5</ele><time>2026-04-18T17:14:38.364Z</time></trkpt><trkpt lat="44.9500967" lon="8.0332517"><ele>206.25</ele><time>2026-04-18T17:14:39.365Z</time></trkpt><trkpt lat="44.9500683" lon="8.0330783"><ele>210.0</ele><time>2026-04-18T17:14:40.364Z</time></trkpt><trkpt lat="44.9500483" lon="8.0328917"><ele>212.25</ele><time>2026-04-18T17:14:41.364Z</time></trkpt><trkpt lat="44.9500517" lon="8.0326967"><ele>214.5</ele><time>2026-04-18T17:14:42.365Z</time></trkpt><trkpt lat="44.9500667" lon="8.0325083"><ele>216.75</ele><time>2026-04-18T17:14:43.364Z</time></trkpt><trkpt lat="44.9500883" lon="8.03231"><ele>219.0</ele><time>2026-04-18T17:14:44.364Z</time></trkpt><trkpt lat="44.95012" lon="8.0321167"><ele>219.25</ele><time>2026-04-18T17:14:45.365Z</time></trkpt><trkpt lat="44.9501567" lon="8.0319183"><ele>219.5</ele><time>2026-04-18T17:14:46.364Z</time></trkpt><trkpt lat="44.9501967" lon="8.031735"><ele>219.75</ele><time>2026-04-18T17:14:47.364Z</time></trkpt><trkpt lat="44.950235" lon="8.0315667"><ele>220.0</ele><time>2026-04-18T17:14:48.365Z</time></trkpt><trkpt lat="44.9502817" lon="8.031395"><ele>220.0</ele><time>2026-04-18T17:14:49.365Z</time></trkpt><trkpt lat="44.95033" lon="8.0312433"><ele>220.0</ele><time>2026-04-18T17:14:50.365Z</time></trkpt><trkpt lat="44.9503683" lon="8.03108"><ele>220.0</ele><time>2026-04-18T17:14:51.364Z</time></trkpt><trkpt lat="44.9503933" lon="8.0309167"><ele>220.0</ele><time>2026-04-18T17:14:52.365Z</time></trkpt><trkpt lat="44.9504033" lon="8.0307533"><ele>220.75</ele><time>2026-04-18T17:14:53.365Z</time></trkpt><trkpt lat="44.9503917" lon="8.0305983"><ele>221.5</ele><time>2026-04-18T17:14:54.365Z</time></trkpt><trkpt lat="44.9503633" lon="8.0304267"><ele>222.25</ele><time>2026-04-18T17:14:55.365Z</time></trkpt><trkpt lat="44.9503083" lon="8.0302683"><ele>223.0</ele><time>2026-04-18T17:14:56.365Z</time></trkpt><trkpt lat="44.950235" lon="8.03011"><ele>222.5</ele><time>2026-04-18T17:14:57.364Z</time></trkpt><trkpt lat="44.9501583" lon="8.0299733"><ele>222.0</ele><time>2026-04-18T17:14:58.365Z</time></trkpt><trkpt lat="44.95007" lon="8.0298367"><ele>221.5</ele><time>2026-04-18T17:14:59.365Z</time></trkpt><trkpt lat="44.9499817" lon="8.0297067"><ele>221.0</ele><time>2026-04-18T17:15:00.365Z</time></trkpt><trkpt lat="44.9499067" lon="8.0295817"><ele>221.0</ele><time>2026-04-18T17:15:01.365Z</time></trkpt><trkpt lat="44.9498183" lon="8.0294733"><ele>221.0</ele><time>2026-04-18T17:15:02.365Z</time></trkpt><trkpt lat="44.94973" lon="8.0293567"><ele>221.0</ele><time>2026-04-18T17:15:03.365Z</time></trkpt><trkpt lat="44.94965" lon="8.029235"><ele>221.0</ele><time>2026-04-18T17:15:04.365Z</time></trkpt><trkpt lat="44.9496" lon="8.029115"><ele>223.0</ele><time>2026-04-18T17:15:05.365Z</time></trkpt><trkpt lat="44.9495667" lon="8.0289817"><ele>225.00000000000003</ele><time>2026-04-18T17:15:06.365Z</time></trkpt><trkpt lat="44.9495917" lon="8.0288683"><ele>227.00000000000003</ele><time>2026-04-18T17:15:07.365Z</time></trkpt><trkpt lat="44.9496567" lon="8.0287483"><ele>229.0</ele><time>2026-04-18T17:15:08.365Z</time></trkpt><trkpt lat="44.9497317" lon="8.0286083"><ele>231.0</ele><time>2026-04-18T17:15:09.365Z</time></trkpt><trkpt lat="44.9498067" lon="8.0284617"><ele>231.0</ele><time>2026-04-18T17:15:10.364Z</time></trkpt><trkpt lat="44.9498867" lon="8.0283283"><ele>231.0</ele><time>2026-04-18T17:15:11.365Z</time></trkpt><trkpt lat="44.9499717" lon="8.0281967"><ele>231.0</ele><time>2026-04-18T17:15:12.365Z</time></trkpt><trkpt lat="44.9500417" lon="8.028075"><ele>231.0</ele><time>2026-04-18T17:15:13.365Z</time></trkpt><trkpt lat="44.9501033" lon="8.0279517"><ele>233.16666666666666</ele><time>2026-04-18T17:15:14.364Z</time></trkpt><trkpt lat="44.9501583" lon="8.0278333"><ele>235.33333333333331</ele><time>2026-04-18T17:15:15.364Z</time></trkpt><trkpt lat="44.950205" lon="8.0277167"><ele>237.5</ele><time>2026-04-18T17:15:16.365Z</time></trkpt><trkpt lat="44.9502283" lon="8.0276033"><ele>239.66666666666666</ele><time>2026-04-18T17:15:17.365Z</time></trkpt><trkpt lat="44.9502433" lon="8.0275083"><ele>241.83333333333331</ele><time>2026-04-18T17:15:18.365Z</time></trkpt><trkpt lat="44.9502617" lon="8.0274133"><ele>244.0</ele><time>2026-04-18T17:15:20.365Z</time></trkpt><trkpt lat="44.950245" lon="8.0272983"><ele>243.99999999999997</ele><time>2026-04-18T17:15:23.365Z</time></trkpt><trkpt lat="44.95023" lon="8.02721"><ele>244.0</ele><time>2026-04-18T17:15:25.365Z</time></trkpt><trkpt lat="44.9502117" lon="8.02707"><ele>244.0</ele><time>2026-04-18T17:15:28.365Z</time></trkpt><trkpt lat="44.9501933" lon="8.0269583"><ele>244.0</ele><time>2026-04-18T17:15:30.365Z</time></trkpt><trkpt lat="44.950195" lon="8.0268683"><ele>243.99999999999997</ele><time>2026-04-18T17:15:32.364Z</time></trkpt><trkpt lat="44.9501383" lon="8.0267567"><ele>244.0</ele><time>2026-04-18T17:16:09.365Z</time></trkpt><trkpt lat="44.950075" lon="8.0267633"><ele>244.0</ele><time>2026-04-18T17:16:13.364Z</time></trkpt></trkseg></trk></gpx>